<?xml version="1.0" encoding="UTF-8" standalone="no" ?>
<gpx xmlns="http://www.topografix.com/GPX/1/1" xmlns:xsi="http://www.w3.org/2001/XMLSchema-instance" xsi:schemaLocation="http://www.topografix.com/GPX/1/1 http://www.topografix.com/GPX/1/1/gpx.xsd" version="1.1" creator="VisuGPX - https://www.visugpx.com">
  <metadata>
    <name>Boucle St Michel/Pomerieux</name>
    <desc><![CDATA[Sortie assez longue pour travailler l'endurance en VTT lors de la période hivernal. 
Aucune difficulté, et praticable toute l'année. 

Enjoy !!]]></desc>
  </metadata>
  <trk>
    <name><![CDATA[Boucle St Michel/Pomerieux_1]]></name>
    <trkseg>
      <trkpt lat="47.82354" lon="-0.89623">
        <ele>67.6</ele>
        <time>2020-12-20T11:06:32Z</time>
      </trkpt>
      <trkpt lat="47.82357" lon="-0.89626">
        <ele>67.7</ele>
        <time>2020-12-20T11:06:33Z</time>
      </trkpt>
      <trkpt lat="47.82359" lon="-0.8963">
        <ele>67.8</ele>
        <time>2020-12-20T11:06:34Z</time>
      </trkpt>
      <trkpt lat="47.82361" lon="-0.89635">
        <ele>67.9</ele>
        <time>2020-12-20T11:06:35Z</time>
      </trkpt>
      <trkpt lat="47.82362" lon="-0.8964">
        <ele>67.9</ele>
        <time>2020-12-20T11:06:36Z</time>
      </trkpt>
      <trkpt lat="47.82364" lon="-0.89646">
        <ele>68</ele>
        <time>2020-12-20T11:06:37Z</time>
      </trkpt>
      <trkpt lat="47.82366" lon="-0.89651">
        <ele>68.1</ele>
        <time>2020-12-20T11:06:38Z</time>
      </trkpt>
      <trkpt lat="47.82367" lon="-0.89656">
        <ele>68.2</ele>
        <time>2020-12-20T11:06:39Z</time>
      </trkpt>
      <trkpt lat="47.82369" lon="-0.89661">
        <ele>68.3</ele>
        <time>2020-12-20T11:06:40Z</time>
      </trkpt>
      <trkpt lat="47.82371" lon="-0.89665">
        <ele>68.3</ele>
        <time>2020-12-20T11:06:41Z</time>
      </trkpt>
      <trkpt lat="47.82373" lon="-0.89669">
        <ele>68.5</ele>
        <time>2020-12-20T11:06:42Z</time>
      </trkpt>
      <trkpt lat="47.82376" lon="-0.89673">
        <ele>68.6</ele>
        <time>2020-12-20T11:06:43Z</time>
      </trkpt>
      <trkpt lat="47.82379" lon="-0.89677">
        <ele>68.8</ele>
        <time>2020-12-20T11:06:44Z</time>
      </trkpt>
      <trkpt lat="47.82381" lon="-0.89681">
        <ele>69</ele>
        <time>2020-12-20T11:06:45Z</time>
      </trkpt>
      <trkpt lat="47.82384" lon="-0.89684">
        <ele>69.1</ele>
        <time>2020-12-20T11:06:46Z</time>
      </trkpt>
      <trkpt lat="47.82386" lon="-0.89688">
        <ele>69.2</ele>
        <time>2020-12-20T11:06:47Z</time>
      </trkpt>
      <trkpt lat="47.82388" lon="-0.8969">
        <ele>69.3</ele>
        <time>2020-12-20T11:06:48Z</time>
      </trkpt>
      <trkpt lat="47.8239" lon="-0.89693">
        <ele>69.5</ele>
        <time>2020-12-20T11:06:49Z</time>
      </trkpt>
      <trkpt lat="47.82391" lon="-0.89694">
        <ele>69.5</ele>
        <time>2020-12-20T11:06:50Z</time>
      </trkpt>
      <trkpt lat="47.82392" lon="-0.89694">
        <ele>69.5</ele>
        <time>2020-12-20T11:06:51Z</time>
      </trkpt>
      <trkpt lat="47.82393" lon="-0.89693">
        <ele>69.6</ele>
        <time>2020-12-20T11:06:52Z</time>
      </trkpt>
      <trkpt lat="47.82395" lon="-0.8969">
        <ele>69.6</ele>
        <time>2020-12-20T11:06:53Z</time>
      </trkpt>
      <trkpt lat="47.82397" lon="-0.89685">
        <ele>69.6</ele>
        <time>2020-12-20T11:06:54Z</time>
      </trkpt>
      <trkpt lat="47.824" lon="-0.8968">
        <ele>69.6</ele>
        <time>2020-12-20T11:06:55Z</time>
      </trkpt>
      <trkpt lat="47.82402" lon="-0.89674">
        <ele>69.6</ele>
        <time>2020-12-20T11:06:56Z</time>
      </trkpt>
      <trkpt lat="47.82405" lon="-0.89668">
        <ele>69.6</ele>
        <time>2020-12-20T11:06:57Z</time>
      </trkpt>
      <trkpt lat="47.82408" lon="-0.89662">
        <ele>69.6</ele>
        <time>2020-12-20T11:06:58Z</time>
      </trkpt>
      <trkpt lat="47.82411" lon="-0.89656">
        <ele>69.7</ele>
        <time>2020-12-20T11:06:59Z</time>
      </trkpt>
      <trkpt lat="47.82417" lon="-0.89644">
        <ele>69.7</ele>
        <time>2020-12-20T11:07:01Z</time>
      </trkpt>
      <trkpt lat="47.8242" lon="-0.89638">
        <ele>69.7</ele>
        <time>2020-12-20T11:07:02Z</time>
      </trkpt>
      <trkpt lat="47.82423" lon="-0.89632">
        <ele>69.6</ele>
        <time>2020-12-20T11:07:03Z</time>
      </trkpt>
      <trkpt lat="47.82425" lon="-0.89626">
        <ele>69.6</ele>
        <time>2020-12-20T11:07:04Z</time>
      </trkpt>
      <trkpt lat="47.82428" lon="-0.8962">
        <ele>69.5</ele>
        <time>2020-12-20T11:07:05Z</time>
      </trkpt>
      <trkpt lat="47.8243" lon="-0.89613">
        <ele>69.5</ele>
        <time>2020-12-20T11:07:06Z</time>
      </trkpt>
      <trkpt lat="47.82433" lon="-0.89607">
        <ele>69.4</ele>
        <time>2020-12-20T11:07:07Z</time>
      </trkpt>
      <trkpt lat="47.82436" lon="-0.896">
        <ele>69.4</ele>
        <time>2020-12-20T11:07:08Z</time>
      </trkpt>
      <trkpt lat="47.82439" lon="-0.89594">
        <ele>69.4</ele>
        <time>2020-12-20T11:07:09Z</time>
      </trkpt>
      <trkpt lat="47.82441" lon="-0.89587">
        <ele>69.3</ele>
        <time>2020-12-20T11:07:10Z</time>
      </trkpt>
      <trkpt lat="47.82443" lon="-0.89581">
        <ele>69.3</ele>
        <time>2020-12-20T11:07:11Z</time>
      </trkpt>
      <trkpt lat="47.82446" lon="-0.89575">
        <ele>69.3</ele>
        <time>2020-12-20T11:07:12Z</time>
      </trkpt>
      <trkpt lat="47.82449" lon="-0.89569">
        <ele>69.3</ele>
        <time>2020-12-20T11:07:13Z</time>
      </trkpt>
      <trkpt lat="47.82451" lon="-0.89564">
        <ele>69.3</ele>
        <time>2020-12-20T11:07:14Z</time>
      </trkpt>
      <trkpt lat="47.82454" lon="-0.89558">
        <ele>69.3</ele>
        <time>2020-12-20T11:07:15Z</time>
      </trkpt>
      <trkpt lat="47.82456" lon="-0.89551">
        <ele>69.3</ele>
        <time>2020-12-20T11:07:16Z</time>
      </trkpt>
      <trkpt lat="47.82458" lon="-0.89545">
        <ele>69.3</ele>
        <time>2020-12-20T11:07:17Z</time>
      </trkpt>
      <trkpt lat="47.82462" lon="-0.8953">
        <ele>69.2</ele>
        <time>2020-12-20T11:07:19Z</time>
      </trkpt>
      <trkpt lat="47.82463" lon="-0.89523">
        <ele>69.2</ele>
        <time>2020-12-20T11:07:20Z</time>
      </trkpt>
      <trkpt lat="47.82465" lon="-0.89515">
        <ele>69.1</ele>
        <time>2020-12-20T11:07:21Z</time>
      </trkpt>
      <trkpt lat="47.82466" lon="-0.89508">
        <ele>69.1</ele>
        <time>2020-12-20T11:07:22Z</time>
      </trkpt>
      <trkpt lat="47.82467" lon="-0.895">
        <ele>69</ele>
        <time>2020-12-20T11:07:23Z</time>
      </trkpt>
      <trkpt lat="47.82469" lon="-0.89493">
        <ele>68.9</ele>
        <time>2020-12-20T11:07:24Z</time>
      </trkpt>
      <trkpt lat="47.8247" lon="-0.89486">
        <ele>68.8</ele>
        <time>2020-12-20T11:07:25Z</time>
      </trkpt>
      <trkpt lat="47.82472" lon="-0.8948">
        <ele>68.8</ele>
        <time>2020-12-20T11:07:26Z</time>
      </trkpt>
      <trkpt lat="47.82474" lon="-0.89475">
        <ele>68.7</ele>
        <time>2020-12-20T11:07:27Z</time>
      </trkpt>
      <trkpt lat="47.82477" lon="-0.8947">
        <ele>68.6</ele>
        <time>2020-12-20T11:07:28Z</time>
      </trkpt>
      <trkpt lat="47.82481" lon="-0.89467">
        <ele>68.6</ele>
        <time>2020-12-20T11:07:29Z</time>
      </trkpt>
      <trkpt lat="47.82485" lon="-0.89466">
        <ele>68.6</ele>
        <time>2020-12-20T11:07:30Z</time>
      </trkpt>
      <trkpt lat="47.82494" lon="-0.89465">
        <ele>68.6</ele>
        <time>2020-12-20T11:07:32Z</time>
      </trkpt>
      <trkpt lat="47.82499" lon="-0.89465">
        <ele>68.6</ele>
        <time>2020-12-20T11:07:33Z</time>
      </trkpt>
      <trkpt lat="47.82503" lon="-0.89465">
        <ele>68.5</ele>
        <time>2020-12-20T11:07:34Z</time>
      </trkpt>
      <trkpt lat="47.82508" lon="-0.89466">
        <ele>68.3</ele>
        <time>2020-12-20T11:07:35Z</time>
      </trkpt>
      <trkpt lat="47.82513" lon="-0.89466">
        <ele>68.2</ele>
        <time>2020-12-20T11:07:36Z</time>
      </trkpt>
      <trkpt lat="47.82518" lon="-0.89467">
        <ele>68</ele>
        <time>2020-12-20T11:07:37Z</time>
      </trkpt>
      <trkpt lat="47.82524" lon="-0.89468">
        <ele>67.9</ele>
        <time>2020-12-20T11:07:38Z</time>
      </trkpt>
      <trkpt lat="47.8253" lon="-0.89469">
        <ele>67.7</ele>
        <time>2020-12-20T11:07:39Z</time>
      </trkpt>
      <trkpt lat="47.82536" lon="-0.89469">
        <ele>67.5</ele>
        <time>2020-12-20T11:07:40Z</time>
      </trkpt>
      <trkpt lat="47.82542" lon="-0.8947">
        <ele>67.3</ele>
        <time>2020-12-20T11:07:41Z</time>
      </trkpt>
      <trkpt lat="47.82548" lon="-0.89471">
        <ele>67.1</ele>
        <time>2020-12-20T11:07:42Z</time>
      </trkpt>
      <trkpt lat="47.82555" lon="-0.89472">
        <ele>66.9</ele>
        <time>2020-12-20T11:07:43Z</time>
      </trkpt>
      <trkpt lat="47.82562" lon="-0.89472">
        <ele>66.7</ele>
        <time>2020-12-20T11:07:44Z</time>
      </trkpt>
      <trkpt lat="47.82568" lon="-0.89473">
        <ele>66.5</ele>
        <time>2020-12-20T11:07:45Z</time>
      </trkpt>
      <trkpt lat="47.82575" lon="-0.89474">
        <ele>66.3</ele>
        <time>2020-12-20T11:07:46Z</time>
      </trkpt>
      <trkpt lat="47.82582" lon="-0.89474">
        <ele>66</ele>
        <time>2020-12-20T11:07:47Z</time>
      </trkpt>
      <trkpt lat="47.8259" lon="-0.89474">
        <ele>65.6</ele>
        <time>2020-12-20T11:07:48Z</time>
      </trkpt>
      <trkpt lat="47.82597" lon="-0.89474">
        <ele>65.2</ele>
        <time>2020-12-20T11:07:49Z</time>
      </trkpt>
      <trkpt lat="47.82605" lon="-0.89473">
        <ele>64.8</ele>
        <time>2020-12-20T11:07:50Z</time>
      </trkpt>
      <trkpt lat="47.82612" lon="-0.89471">
        <ele>64.4</ele>
        <time>2020-12-20T11:07:51Z</time>
      </trkpt>
      <trkpt lat="47.82618" lon="-0.89468">
        <ele>64.1</ele>
        <time>2020-12-20T11:07:52Z</time>
      </trkpt>
      <trkpt lat="47.82623" lon="-0.89466">
        <ele>63.8</ele>
        <time>2020-12-20T11:07:53Z</time>
      </trkpt>
      <trkpt lat="47.82627" lon="-0.89464">
        <ele>63.6</ele>
        <time>2020-12-20T11:07:54Z</time>
      </trkpt>
      <trkpt lat="47.8263" lon="-0.89465">
        <ele>63.4</ele>
        <time>2020-12-20T11:07:55Z</time>
      </trkpt>
      <trkpt lat="47.82632" lon="-0.89468">
        <ele>63.3</ele>
        <time>2020-12-20T11:07:56Z</time>
      </trkpt>
      <trkpt lat="47.82634" lon="-0.89473">
        <ele>63.2</ele>
        <time>2020-12-20T11:07:57Z</time>
      </trkpt>
      <trkpt lat="47.82636" lon="-0.89479">
        <ele>63</ele>
        <time>2020-12-20T11:07:58Z</time>
      </trkpt>
      <trkpt lat="47.82638" lon="-0.89486">
        <ele>62.8</ele>
        <time>2020-12-20T11:07:59Z</time>
      </trkpt>
      <trkpt lat="47.82641" lon="-0.89492">
        <ele>62.6</ele>
        <time>2020-12-20T11:08:00Z</time>
      </trkpt>
      <trkpt lat="47.82644" lon="-0.89499">
        <ele>62.4</ele>
        <time>2020-12-20T11:08:01Z</time>
      </trkpt>
      <trkpt lat="47.82647" lon="-0.89506">
        <ele>62.3</ele>
        <time>2020-12-20T11:08:02Z</time>
      </trkpt>
      <trkpt lat="47.82651" lon="-0.89514">
        <ele>62.2</ele>
        <time>2020-12-20T11:08:03Z</time>
      </trkpt>
      <trkpt lat="47.82654" lon="-0.89521">
        <ele>62.2</ele>
        <time>2020-12-20T11:08:04Z</time>
      </trkpt>
      <trkpt lat="47.82657" lon="-0.89529">
        <ele>62.2</ele>
        <time>2020-12-20T11:08:05Z</time>
      </trkpt>
      <trkpt lat="47.8266" lon="-0.89537">
        <ele>62.2</ele>
        <time>2020-12-20T11:08:06Z</time>
      </trkpt>
      <trkpt lat="47.82662" lon="-0.89544">
        <ele>62.3</ele>
        <time>2020-12-20T11:08:07Z</time>
      </trkpt>
      <trkpt lat="47.82665" lon="-0.89551">
        <ele>62.3</ele>
        <time>2020-12-20T11:08:08Z</time>
      </trkpt>
      <trkpt lat="47.82667" lon="-0.8956">
        <ele>62.4</ele>
        <time>2020-12-20T11:08:09Z</time>
      </trkpt>
      <trkpt lat="47.82668" lon="-0.89568">
        <ele>62.6</ele>
        <time>2020-12-20T11:08:10Z</time>
      </trkpt>
      <trkpt lat="47.82669" lon="-0.89577">
        <ele>62.8</ele>
        <time>2020-12-20T11:08:11Z</time>
      </trkpt>
      <trkpt lat="47.82669" lon="-0.89586">
        <ele>63</ele>
        <time>2020-12-20T11:08:12Z</time>
      </trkpt>
      <trkpt lat="47.82667" lon="-0.89594">
        <ele>63.3</ele>
        <time>2020-12-20T11:08:13Z</time>
      </trkpt>
      <trkpt lat="47.82665" lon="-0.89602">
        <ele>63.5</ele>
        <time>2020-12-20T11:08:14Z</time>
      </trkpt>
      <trkpt lat="47.82663" lon="-0.89609">
        <ele>63.7</ele>
        <time>2020-12-20T11:08:15Z</time>
      </trkpt>
      <trkpt lat="47.8266" lon="-0.89616">
        <ele>64</ele>
        <time>2020-12-20T11:08:16Z</time>
      </trkpt>
      <trkpt lat="47.82657" lon="-0.89622">
        <ele>64.2</ele>
        <time>2020-12-20T11:08:17Z</time>
      </trkpt>
      <trkpt lat="47.82654" lon="-0.89628">
        <ele>64.4</ele>
        <time>2020-12-20T11:08:18Z</time>
      </trkpt>
      <trkpt lat="47.82651" lon="-0.89634">
        <ele>64.7</ele>
        <time>2020-12-20T11:08:19Z</time>
      </trkpt>
      <trkpt lat="47.82649" lon="-0.89641">
        <ele>64.9</ele>
        <time>2020-12-20T11:08:20Z</time>
      </trkpt>
      <trkpt lat="47.82647" lon="-0.89648">
        <ele>65.1</ele>
        <time>2020-12-20T11:08:21Z</time>
      </trkpt>
      <trkpt lat="47.82646" lon="-0.89654">
        <ele>65.2</ele>
        <time>2020-12-20T11:08:22Z</time>
      </trkpt>
      <trkpt lat="47.82646" lon="-0.8966">
        <ele>65.4</ele>
        <time>2020-12-20T11:08:23Z</time>
      </trkpt>
      <trkpt lat="47.82646" lon="-0.89666">
        <ele>65.5</ele>
        <time>2020-12-20T11:08:24Z</time>
      </trkpt>
      <trkpt lat="47.82647" lon="-0.89672">
        <ele>65.6</ele>
        <time>2020-12-20T11:08:25Z</time>
      </trkpt>
      <trkpt lat="47.82648" lon="-0.89678">
        <ele>65.7</ele>
        <time>2020-12-20T11:08:26Z</time>
      </trkpt>
      <trkpt lat="47.8265" lon="-0.89684">
        <ele>65.8</ele>
        <time>2020-12-20T11:08:27Z</time>
      </trkpt>
      <trkpt lat="47.82651" lon="-0.89691">
        <ele>65.9</ele>
        <time>2020-12-20T11:08:28Z</time>
      </trkpt>
      <trkpt lat="47.82652" lon="-0.89697">
        <ele>66</ele>
        <time>2020-12-20T11:08:29Z</time>
      </trkpt>
      <trkpt lat="47.82653" lon="-0.89703">
        <ele>66.1</ele>
        <time>2020-12-20T11:08:30Z</time>
      </trkpt>
      <trkpt lat="47.82654" lon="-0.89708">
        <ele>66.2</ele>
        <time>2020-12-20T11:08:31Z</time>
      </trkpt>
      <trkpt lat="47.82655" lon="-0.89714">
        <ele>66.3</ele>
        <time>2020-12-20T11:08:32Z</time>
      </trkpt>
      <trkpt lat="47.82655" lon="-0.89719">
        <ele>66.4</ele>
        <time>2020-12-20T11:08:33Z</time>
      </trkpt>
      <trkpt lat="47.82656" lon="-0.89724">
        <ele>66.5</ele>
        <time>2020-12-20T11:08:34Z</time>
      </trkpt>
      <trkpt lat="47.82656" lon="-0.89729">
        <ele>66.7</ele>
        <time>2020-12-20T11:08:35Z</time>
      </trkpt>
      <trkpt lat="47.82657" lon="-0.89733">
        <ele>66.7</ele>
        <time>2020-12-20T11:08:36Z</time>
      </trkpt>
      <trkpt lat="47.82657" lon="-0.89737">
        <ele>66.8</ele>
        <time>2020-12-20T11:08:37Z</time>
      </trkpt>
      <trkpt lat="47.82657" lon="-0.89741">
        <ele>66.9</ele>
        <time>2020-12-20T11:08:38Z</time>
      </trkpt>
      <trkpt lat="47.82657" lon="-0.89744">
        <ele>67</ele>
        <time>2020-12-20T11:08:39Z</time>
      </trkpt>
      <trkpt lat="47.82658" lon="-0.89746">
        <ele>67</ele>
        <time>2020-12-20T11:08:40Z</time>
      </trkpt>
      <trkpt lat="47.82658" lon="-0.89747">
        <ele>67</ele>
        <time>2020-12-20T11:08:41Z</time>
      </trkpt>
      <trkpt lat="47.82658" lon="-0.89748">
        <ele>67.1</ele>
        <time>2020-12-20T11:08:42Z</time>
      </trkpt>
      <trkpt lat="47.82658" lon="-0.8975">
        <ele>67.1</ele>
        <time>2020-12-20T11:08:43Z</time>
      </trkpt>
      <trkpt lat="47.82658" lon="-0.89752">
        <ele>67.1</ele>
        <time>2020-12-20T11:08:44Z</time>
      </trkpt>
      <trkpt lat="47.82659" lon="-0.89756">
        <ele>67.2</ele>
        <time>2020-12-20T11:08:45Z</time>
      </trkpt>
      <trkpt lat="47.82659" lon="-0.8976">
        <ele>67.2</ele>
        <time>2020-12-20T11:08:46Z</time>
      </trkpt>
      <trkpt lat="47.8266" lon="-0.89764">
        <ele>67.3</ele>
        <time>2020-12-20T11:08:47Z</time>
      </trkpt>
      <trkpt lat="47.8266" lon="-0.89769">
        <ele>67.3</ele>
        <time>2020-12-20T11:08:48Z</time>
      </trkpt>
      <trkpt lat="47.82661" lon="-0.89773">
        <ele>67.4</ele>
        <time>2020-12-20T11:08:49Z</time>
      </trkpt>
      <trkpt lat="47.82661" lon="-0.89779">
        <ele>67.4</ele>
        <time>2020-12-20T11:08:50Z</time>
      </trkpt>
      <trkpt lat="47.82662" lon="-0.89783">
        <ele>67.5</ele>
        <time>2020-12-20T11:08:51Z</time>
      </trkpt>
      <trkpt lat="47.82664" lon="-0.89787">
        <ele>67.5</ele>
        <time>2020-12-20T11:08:52Z</time>
      </trkpt>
      <trkpt lat="47.82666" lon="-0.8979">
        <ele>67.5</ele>
        <time>2020-12-20T11:08:53Z</time>
      </trkpt>
      <trkpt lat="47.82669" lon="-0.89792">
        <ele>67.5</ele>
        <time>2020-12-20T11:08:54Z</time>
      </trkpt>
      <trkpt lat="47.82672" lon="-0.89793">
        <ele>67.5</ele>
        <time>2020-12-20T11:08:55Z</time>
      </trkpt>
      <trkpt lat="47.82676" lon="-0.89793">
        <ele>67.5</ele>
        <time>2020-12-20T11:08:56Z</time>
      </trkpt>
      <trkpt lat="47.82679" lon="-0.89793">
        <ele>67.4</ele>
        <time>2020-12-20T11:08:57Z</time>
      </trkpt>
      <trkpt lat="47.82683" lon="-0.89793">
        <ele>67.4</ele>
        <time>2020-12-20T11:08:58Z</time>
      </trkpt>
      <trkpt lat="47.82687" lon="-0.89793">
        <ele>67.4</ele>
        <time>2020-12-20T11:08:59Z</time>
      </trkpt>
      <trkpt lat="47.8269" lon="-0.89793">
        <ele>67.4</ele>
        <time>2020-12-20T11:09:00Z</time>
      </trkpt>
      <trkpt lat="47.82693" lon="-0.89794">
        <ele>67.4</ele>
        <time>2020-12-20T11:09:01Z</time>
      </trkpt>
      <trkpt lat="47.82697" lon="-0.89795">
        <ele>67.4</ele>
        <time>2020-12-20T11:09:02Z</time>
      </trkpt>
      <trkpt lat="47.82699" lon="-0.89796">
        <ele>67.4</ele>
        <time>2020-12-20T11:09:03Z</time>
      </trkpt>
      <trkpt lat="47.82702" lon="-0.89798">
        <ele>67.4</ele>
        <time>2020-12-20T11:09:04Z</time>
      </trkpt>
      <trkpt lat="47.82705" lon="-0.89801">
        <ele>67.4</ele>
        <time>2020-12-20T11:09:05Z</time>
      </trkpt>
      <trkpt lat="47.82707" lon="-0.89803">
        <ele>67.5</ele>
        <time>2020-12-20T11:09:06Z</time>
      </trkpt>
      <trkpt lat="47.82708" lon="-0.89806">
        <ele>67.5</ele>
        <time>2020-12-20T11:09:07Z</time>
      </trkpt>
      <trkpt lat="47.82708" lon="-0.89809">
        <ele>67.6</ele>
        <time>2020-12-20T11:09:08Z</time>
      </trkpt>
      <trkpt lat="47.82708" lon="-0.89813">
        <ele>67.6</ele>
        <time>2020-12-20T11:09:09Z</time>
      </trkpt>
      <trkpt lat="47.82707" lon="-0.89816">
        <ele>67.7</ele>
        <time>2020-12-20T11:09:10Z</time>
      </trkpt>
      <trkpt lat="47.82705" lon="-0.8982">
        <ele>67.8</ele>
        <time>2020-12-20T11:09:11Z</time>
      </trkpt>
      <trkpt lat="47.82703" lon="-0.89824">
        <ele>67.8</ele>
        <time>2020-12-20T11:09:12Z</time>
      </trkpt>
      <trkpt lat="47.82701" lon="-0.89828">
        <ele>67.9</ele>
        <time>2020-12-20T11:09:13Z</time>
      </trkpt>
      <trkpt lat="47.82699" lon="-0.89831">
        <ele>68</ele>
        <time>2020-12-20T11:09:14Z</time>
      </trkpt>
      <trkpt lat="47.82697" lon="-0.89835">
        <ele>68</ele>
        <time>2020-12-20T11:09:15Z</time>
      </trkpt>
      <trkpt lat="47.82695" lon="-0.89839">
        <ele>68.1</ele>
        <time>2020-12-20T11:09:16Z</time>
      </trkpt>
      <trkpt lat="47.82692" lon="-0.89844">
        <ele>68.1</ele>
        <time>2020-12-20T11:09:17Z</time>
      </trkpt>
      <trkpt lat="47.82691" lon="-0.89847">
        <ele>68.2</ele>
        <time>2020-12-20T11:09:18Z</time>
      </trkpt>
      <trkpt lat="47.82688" lon="-0.89851">
        <ele>68.2</ele>
        <time>2020-12-20T11:09:19Z</time>
      </trkpt>
      <trkpt lat="47.82685" lon="-0.89856">
        <ele>68.3</ele>
        <time>2020-12-20T11:09:20Z</time>
      </trkpt>
      <trkpt lat="47.82683" lon="-0.8986">
        <ele>68.3</ele>
        <time>2020-12-20T11:09:21Z</time>
      </trkpt>
      <trkpt lat="47.82681" lon="-0.89863">
        <ele>68.4</ele>
        <time>2020-12-20T11:09:22Z</time>
      </trkpt>
      <trkpt lat="47.82679" lon="-0.89867">
        <ele>68.4</ele>
        <time>2020-12-20T11:09:23Z</time>
      </trkpt>
      <trkpt lat="47.82677" lon="-0.8987">
        <ele>68.4</ele>
        <time>2020-12-20T11:09:24Z</time>
      </trkpt>
      <trkpt lat="47.82674" lon="-0.89875">
        <ele>68.5</ele>
        <time>2020-12-20T11:09:25Z</time>
      </trkpt>
      <trkpt lat="47.82673" lon="-0.89878">
        <ele>68.5</ele>
        <time>2020-12-20T11:09:26Z</time>
      </trkpt>
      <trkpt lat="47.8267" lon="-0.89883">
        <ele>68.6</ele>
        <time>2020-12-20T11:09:27Z</time>
      </trkpt>
      <trkpt lat="47.82669" lon="-0.89886">
        <ele>68.6</ele>
        <time>2020-12-20T11:09:28Z</time>
      </trkpt>
      <trkpt lat="47.82667" lon="-0.8989">
        <ele>68.7</ele>
        <time>2020-12-20T11:09:29Z</time>
      </trkpt>
      <trkpt lat="47.82664" lon="-0.89894">
        <ele>68.8</ele>
        <time>2020-12-20T11:09:30Z</time>
      </trkpt>
      <trkpt lat="47.82662" lon="-0.89898">
        <ele>68.9</ele>
        <time>2020-12-20T11:09:31Z</time>
      </trkpt>
      <trkpt lat="47.8266" lon="-0.89901">
        <ele>69</ele>
        <time>2020-12-20T11:09:32Z</time>
      </trkpt>
      <trkpt lat="47.82658" lon="-0.89905">
        <ele>69.1</ele>
        <time>2020-12-20T11:09:33Z</time>
      </trkpt>
      <trkpt lat="47.82656" lon="-0.8991">
        <ele>69.2</ele>
        <time>2020-12-20T11:09:34Z</time>
      </trkpt>
      <trkpt lat="47.82655" lon="-0.89914">
        <ele>69.2</ele>
        <time>2020-12-20T11:09:35Z</time>
      </trkpt>
      <trkpt lat="47.82652" lon="-0.89919">
        <ele>69.4</ele>
        <time>2020-12-20T11:09:36Z</time>
      </trkpt>
      <trkpt lat="47.8265" lon="-0.89921">
        <ele>69.4</ele>
        <time>2020-12-20T11:09:37Z</time>
      </trkpt>
      <trkpt lat="47.82648" lon="-0.89925">
        <ele>69.5</ele>
        <time>2020-12-20T11:09:38Z</time>
      </trkpt>
      <trkpt lat="47.82646" lon="-0.8993">
        <ele>69.6</ele>
        <time>2020-12-20T11:09:39Z</time>
      </trkpt>
      <trkpt lat="47.82644" lon="-0.89933">
        <ele>69.7</ele>
        <time>2020-12-20T11:09:40Z</time>
      </trkpt>
      <trkpt lat="47.82642" lon="-0.89937">
        <ele>69.8</ele>
        <time>2020-12-20T11:09:41Z</time>
      </trkpt>
      <trkpt lat="47.8264" lon="-0.8994">
        <ele>69.8</ele>
        <time>2020-12-20T11:09:42Z</time>
      </trkpt>
      <trkpt lat="47.82639" lon="-0.89945">
        <ele>69.9</ele>
        <time>2020-12-20T11:09:43Z</time>
      </trkpt>
      <trkpt lat="47.82638" lon="-0.89948">
        <ele>69.9</ele>
        <time>2020-12-20T11:09:44Z</time>
      </trkpt>
      <trkpt lat="47.82636" lon="-0.89951">
        <ele>70</ele>
        <time>2020-12-20T11:09:45Z</time>
      </trkpt>
      <trkpt lat="47.82635" lon="-0.89954">
        <ele>70</ele>
        <time>2020-12-20T11:09:46Z</time>
      </trkpt>
      <trkpt lat="47.82633" lon="-0.89957">
        <ele>70.1</ele>
        <time>2020-12-20T11:09:47Z</time>
      </trkpt>
      <trkpt lat="47.82633" lon="-0.8996">
        <ele>70.1</ele>
        <time>2020-12-20T11:09:48Z</time>
      </trkpt>
      <trkpt lat="47.82632" lon="-0.89964">
        <ele>70.2</ele>
        <time>2020-12-20T11:09:49Z</time>
      </trkpt>
      <trkpt lat="47.82632" lon="-0.89967">
        <ele>70.2</ele>
        <time>2020-12-20T11:09:50Z</time>
      </trkpt>
      <trkpt lat="47.82633" lon="-0.89969">
        <ele>70.2</ele>
        <time>2020-12-20T11:09:51Z</time>
      </trkpt>
      <trkpt lat="47.82635" lon="-0.89971">
        <ele>70.2</ele>
        <time>2020-12-20T11:09:52Z</time>
      </trkpt>
      <trkpt lat="47.82637" lon="-0.89971">
        <ele>70.1</ele>
        <time>2020-12-20T11:09:53Z</time>
      </trkpt>
      <trkpt lat="47.82638" lon="-0.89971">
        <ele>70.1</ele>
        <time>2020-12-20T11:09:54Z</time>
      </trkpt>
      <trkpt lat="47.8264" lon="-0.89971">
        <ele>70.1</ele>
        <time>2020-12-20T11:09:55Z</time>
      </trkpt>
      <trkpt lat="47.82641" lon="-0.8997">
        <ele>70.1</ele>
        <time>2020-12-20T11:09:56Z</time>
      </trkpt>
      <trkpt lat="47.82642" lon="-0.89968">
        <ele>70</ele>
        <time>2020-12-20T11:09:57Z</time>
      </trkpt>
      <trkpt lat="47.82643" lon="-0.89967">
        <ele>70</ele>
        <time>2020-12-20T11:09:58Z</time>
      </trkpt>
      <trkpt lat="47.82645" lon="-0.89966">
        <ele>70</ele>
        <time>2020-12-20T11:09:59Z</time>
      </trkpt>
      <trkpt lat="47.82647" lon="-0.89967">
        <ele>69.9</ele>
        <time>2020-12-20T11:10:00Z</time>
      </trkpt>
      <trkpt lat="47.82649" lon="-0.89967">
        <ele>69.9</ele>
        <time>2020-12-20T11:11:14Z</time>
      </trkpt>
      <trkpt lat="47.82652" lon="-0.89967">
        <ele>69.8</ele>
        <time>2020-12-20T11:11:15Z</time>
      </trkpt>
      <trkpt lat="47.82655" lon="-0.89968">
        <ele>69.8</ele>
        <time>2020-12-20T11:11:16Z</time>
      </trkpt>
      <trkpt lat="47.82659" lon="-0.89968">
        <ele>69.7</ele>
        <time>2020-12-20T11:11:17Z</time>
      </trkpt>
      <trkpt lat="47.82664" lon="-0.89968">
        <ele>69.7</ele>
        <time>2020-12-20T11:11:18Z</time>
      </trkpt>
      <trkpt lat="47.82669" lon="-0.89968">
        <ele>69.6</ele>
        <time>2020-12-20T11:11:19Z</time>
      </trkpt>
      <trkpt lat="47.82674" lon="-0.89969">
        <ele>69.6</ele>
        <time>2020-12-20T11:11:20Z</time>
      </trkpt>
      <trkpt lat="47.82679" lon="-0.89969">
        <ele>69.6</ele>
        <time>2020-12-20T11:11:21Z</time>
      </trkpt>
      <trkpt lat="47.82684" lon="-0.89969">
        <ele>69.6</ele>
        <time>2020-12-20T11:11:22Z</time>
      </trkpt>
      <trkpt lat="47.82689" lon="-0.89969">
        <ele>69.6</ele>
        <time>2020-12-20T11:11:23Z</time>
      </trkpt>
      <trkpt lat="47.82694" lon="-0.8997">
        <ele>69.6</ele>
        <time>2020-12-20T11:11:24Z</time>
      </trkpt>
      <trkpt lat="47.827" lon="-0.89969">
        <ele>69.6</ele>
        <time>2020-12-20T11:11:25Z</time>
      </trkpt>
      <trkpt lat="47.82704" lon="-0.89969">
        <ele>69.6</ele>
        <time>2020-12-20T11:11:26Z</time>
      </trkpt>
      <trkpt lat="47.82707" lon="-0.89969">
        <ele>69.6</ele>
        <time>2020-12-20T11:11:27Z</time>
      </trkpt>
      <trkpt lat="47.82713" lon="-0.8997">
        <ele>69.6</ele>
        <time>2020-12-20T11:11:28Z</time>
      </trkpt>
      <trkpt lat="47.82717" lon="-0.8997">
        <ele>69.6</ele>
        <time>2020-12-20T11:11:29Z</time>
      </trkpt>
      <trkpt lat="47.8272" lon="-0.8997">
        <ele>69.6</ele>
        <time>2020-12-20T11:11:30Z</time>
      </trkpt>
      <trkpt lat="47.82724" lon="-0.89971">
        <ele>69.7</ele>
        <time>2020-12-20T11:11:31Z</time>
      </trkpt>
      <trkpt lat="47.82728" lon="-0.89971">
        <ele>69.7</ele>
        <time>2020-12-20T11:11:32Z</time>
      </trkpt>
      <trkpt lat="47.82732" lon="-0.89972">
        <ele>69.7</ele>
        <time>2020-12-20T11:11:33Z</time>
      </trkpt>
      <trkpt lat="47.82736" lon="-0.89972">
        <ele>69.7</ele>
        <time>2020-12-20T11:11:34Z</time>
      </trkpt>
      <trkpt lat="47.8274" lon="-0.89973">
        <ele>69.7</ele>
        <time>2020-12-20T11:11:35Z</time>
      </trkpt>
      <trkpt lat="47.82744" lon="-0.89975">
        <ele>69.7</ele>
        <time>2020-12-20T11:11:36Z</time>
      </trkpt>
      <trkpt lat="47.82749" lon="-0.89978">
        <ele>69.7</ele>
        <time>2020-12-20T11:11:37Z</time>
      </trkpt>
      <trkpt lat="47.82754" lon="-0.8998">
        <ele>69.7</ele>
        <time>2020-12-20T11:11:38Z</time>
      </trkpt>
      <trkpt lat="47.82759" lon="-0.89982">
        <ele>69.8</ele>
        <time>2020-12-20T11:11:39Z</time>
      </trkpt>
      <trkpt lat="47.82763" lon="-0.89984">
        <ele>69.8</ele>
        <time>2020-12-20T11:11:40Z</time>
      </trkpt>
      <trkpt lat="47.82769" lon="-0.89987">
        <ele>69.8</ele>
        <time>2020-12-20T11:11:41Z</time>
      </trkpt>
      <trkpt lat="47.82773" lon="-0.89989">
        <ele>69.8</ele>
        <time>2020-12-20T11:11:42Z</time>
      </trkpt>
      <trkpt lat="47.82778" lon="-0.89992">
        <ele>69.9</ele>
        <time>2020-12-20T11:11:43Z</time>
      </trkpt>
      <trkpt lat="47.82784" lon="-0.89995">
        <ele>69.9</ele>
        <time>2020-12-20T11:11:44Z</time>
      </trkpt>
      <trkpt lat="47.82789" lon="-0.89998">
        <ele>70</ele>
        <time>2020-12-20T11:11:45Z</time>
      </trkpt>
      <trkpt lat="47.82794" lon="-0.90001">
        <ele>70</ele>
        <time>2020-12-20T11:11:46Z</time>
      </trkpt>
      <trkpt lat="47.82799" lon="-0.90003">
        <ele>70</ele>
        <time>2020-12-20T11:11:47Z</time>
      </trkpt>
      <trkpt lat="47.82804" lon="-0.90006">
        <ele>70</ele>
        <time>2020-12-20T11:11:48Z</time>
      </trkpt>
      <trkpt lat="47.82809" lon="-0.90008">
        <ele>70</ele>
        <time>2020-12-20T11:11:49Z</time>
      </trkpt>
      <trkpt lat="47.82814" lon="-0.90011">
        <ele>70</ele>
        <time>2020-12-20T11:11:50Z</time>
      </trkpt>
      <trkpt lat="47.82819" lon="-0.90014">
        <ele>70</ele>
        <time>2020-12-20T11:11:51Z</time>
      </trkpt>
      <trkpt lat="47.82823" lon="-0.90016">
        <ele>70</ele>
        <time>2020-12-20T11:11:52Z</time>
      </trkpt>
      <trkpt lat="47.82828" lon="-0.90019">
        <ele>70</ele>
        <time>2020-12-20T11:11:53Z</time>
      </trkpt>
      <trkpt lat="47.82832" lon="-0.90023">
        <ele>70</ele>
        <time>2020-12-20T11:11:54Z</time>
      </trkpt>
      <trkpt lat="47.82837" lon="-0.90027">
        <ele>69.9</ele>
        <time>2020-12-20T11:11:55Z</time>
      </trkpt>
      <trkpt lat="47.82841" lon="-0.90033">
        <ele>69.8</ele>
        <time>2020-12-20T11:11:56Z</time>
      </trkpt>
      <trkpt lat="47.82845" lon="-0.90038">
        <ele>69.7</ele>
        <time>2020-12-20T11:11:57Z</time>
      </trkpt>
      <trkpt lat="47.82848" lon="-0.90043">
        <ele>69.6</ele>
        <time>2020-12-20T11:11:58Z</time>
      </trkpt>
      <trkpt lat="47.82851" lon="-0.90049">
        <ele>69.6</ele>
        <time>2020-12-20T11:11:59Z</time>
      </trkpt>
      <trkpt lat="47.82855" lon="-0.90056">
        <ele>69.5</ele>
        <time>2020-12-20T11:12:00Z</time>
      </trkpt>
      <trkpt lat="47.82858" lon="-0.90061">
        <ele>69.4</ele>
        <time>2020-12-20T11:12:01Z</time>
      </trkpt>
      <trkpt lat="47.82861" lon="-0.90066">
        <ele>69.3</ele>
        <time>2020-12-20T11:12:02Z</time>
      </trkpt>
      <trkpt lat="47.82866" lon="-0.90073">
        <ele>69.2</ele>
        <time>2020-12-20T11:12:03Z</time>
      </trkpt>
      <trkpt lat="47.82871" lon="-0.90078">
        <ele>69.1</ele>
        <time>2020-12-20T11:12:04Z</time>
      </trkpt>
      <trkpt lat="47.82875" lon="-0.90081">
        <ele>69</ele>
        <time>2020-12-20T11:12:05Z</time>
      </trkpt>
      <trkpt lat="47.82879" lon="-0.90083">
        <ele>68.9</ele>
        <time>2020-12-20T11:12:06Z</time>
      </trkpt>
      <trkpt lat="47.82884" lon="-0.90085">
        <ele>68.8</ele>
        <time>2020-12-20T11:12:07Z</time>
      </trkpt>
      <trkpt lat="47.82888" lon="-0.90085">
        <ele>68.7</ele>
        <time>2020-12-20T11:12:08Z</time>
      </trkpt>
      <trkpt lat="47.82892" lon="-0.90085">
        <ele>68.6</ele>
        <time>2020-12-20T11:12:09Z</time>
      </trkpt>
      <trkpt lat="47.82894" lon="-0.90085">
        <ele>68.5</ele>
        <time>2020-12-20T11:12:10Z</time>
      </trkpt>
      <trkpt lat="47.82896" lon="-0.90085">
        <ele>68.5</ele>
        <time>2020-12-20T11:12:11Z</time>
      </trkpt>
      <trkpt lat="47.82898" lon="-0.90084">
        <ele>68.4</ele>
        <time>2020-12-20T11:12:12Z</time>
      </trkpt>
      <trkpt lat="47.82901" lon="-0.90083">
        <ele>68.4</ele>
        <time>2020-12-20T11:12:13Z</time>
      </trkpt>
      <trkpt lat="47.82904" lon="-0.90081">
        <ele>68.3</ele>
        <time>2020-12-20T11:12:14Z</time>
      </trkpt>
      <trkpt lat="47.82907" lon="-0.9008">
        <ele>68.2</ele>
        <time>2020-12-20T11:12:15Z</time>
      </trkpt>
      <trkpt lat="47.82912" lon="-0.9008">
        <ele>68.1</ele>
        <time>2020-12-20T11:12:16Z</time>
      </trkpt>
      <trkpt lat="47.82917" lon="-0.90079">
        <ele>68</ele>
        <time>2020-12-20T11:12:17Z</time>
      </trkpt>
      <trkpt lat="47.8292" lon="-0.90079">
        <ele>67.9</ele>
        <time>2020-12-20T11:12:18Z</time>
      </trkpt>
      <trkpt lat="47.82925" lon="-0.90078">
        <ele>67.7</ele>
        <time>2020-12-20T11:12:19Z</time>
      </trkpt>
      <trkpt lat="47.82931" lon="-0.90079">
        <ele>67.5</ele>
        <time>2020-12-20T11:12:20Z</time>
      </trkpt>
      <trkpt lat="47.82935" lon="-0.90079">
        <ele>67.4</ele>
        <time>2020-12-20T11:12:21Z</time>
      </trkpt>
      <trkpt lat="47.82941" lon="-0.9008">
        <ele>67.1</ele>
        <time>2020-12-20T11:12:22Z</time>
      </trkpt>
      <trkpt lat="47.82945" lon="-0.90081">
        <ele>67</ele>
        <time>2020-12-20T11:12:23Z</time>
      </trkpt>
      <trkpt lat="47.8295" lon="-0.90083">
        <ele>66.8</ele>
        <time>2020-12-20T11:12:24Z</time>
      </trkpt>
      <trkpt lat="47.82955" lon="-0.90085">
        <ele>66.6</ele>
        <time>2020-12-20T11:12:25Z</time>
      </trkpt>
      <trkpt lat="47.82962" lon="-0.90087">
        <ele>66.3</ele>
        <time>2020-12-20T11:12:26Z</time>
      </trkpt>
      <trkpt lat="47.82967" lon="-0.90088">
        <ele>66.1</ele>
        <time>2020-12-20T11:12:27Z</time>
      </trkpt>
      <trkpt lat="47.82972" lon="-0.9009">
        <ele>66</ele>
        <time>2020-12-20T11:12:28Z</time>
      </trkpt>
      <trkpt lat="47.8298" lon="-0.90091">
        <ele>65.7</ele>
        <time>2020-12-20T11:12:29Z</time>
      </trkpt>
      <trkpt lat="47.82986" lon="-0.90092">
        <ele>65.5</ele>
        <time>2020-12-20T11:12:30Z</time>
      </trkpt>
      <trkpt lat="47.82991" lon="-0.90093">
        <ele>65.3</ele>
        <time>2020-12-20T11:12:31Z</time>
      </trkpt>
      <trkpt lat="47.82998" lon="-0.90094">
        <ele>65.1</ele>
        <time>2020-12-20T11:12:32Z</time>
      </trkpt>
      <trkpt lat="47.83006" lon="-0.90094">
        <ele>64.8</ele>
        <time>2020-12-20T11:12:33Z</time>
      </trkpt>
      <trkpt lat="47.83012" lon="-0.90095">
        <ele>64.7</ele>
        <time>2020-12-20T11:12:34Z</time>
      </trkpt>
      <trkpt lat="47.8302" lon="-0.90095">
        <ele>64.5</ele>
        <time>2020-12-20T11:12:35Z</time>
      </trkpt>
      <trkpt lat="47.83025" lon="-0.90095">
        <ele>64.4</ele>
        <time>2020-12-20T11:12:36Z</time>
      </trkpt>
      <trkpt lat="47.83032" lon="-0.90096">
        <ele>64.2</ele>
        <time>2020-12-20T11:12:37Z</time>
      </trkpt>
      <trkpt lat="47.83038" lon="-0.90096">
        <ele>64</ele>
        <time>2020-12-20T11:12:38Z</time>
      </trkpt>
      <trkpt lat="47.83046" lon="-0.90096">
        <ele>63.8</ele>
        <time>2020-12-20T11:12:39Z</time>
      </trkpt>
      <trkpt lat="47.83053" lon="-0.90097">
        <ele>63.6</ele>
        <time>2020-12-20T11:12:40Z</time>
      </trkpt>
      <trkpt lat="47.83059" lon="-0.90097">
        <ele>63.5</ele>
        <time>2020-12-20T11:12:41Z</time>
      </trkpt>
      <trkpt lat="47.83065" lon="-0.90097">
        <ele>63.3</ele>
        <time>2020-12-20T11:12:42Z</time>
      </trkpt>
      <trkpt lat="47.8307" lon="-0.90098">
        <ele>63.2</ele>
        <time>2020-12-20T11:12:43Z</time>
      </trkpt>
      <trkpt lat="47.83075" lon="-0.90098">
        <ele>63</ele>
        <time>2020-12-20T11:12:44Z</time>
      </trkpt>
      <trkpt lat="47.83079" lon="-0.90099">
        <ele>62.9</ele>
        <time>2020-12-20T11:12:45Z</time>
      </trkpt>
      <trkpt lat="47.83083" lon="-0.90099">
        <ele>62.8</ele>
        <time>2020-12-20T11:12:46Z</time>
      </trkpt>
      <trkpt lat="47.83085" lon="-0.90098">
        <ele>62.8</ele>
        <time>2020-12-20T11:12:47Z</time>
      </trkpt>
      <trkpt lat="47.83088" lon="-0.90098">
        <ele>62.8</ele>
        <time>2020-12-20T11:12:48Z</time>
      </trkpt>
      <trkpt lat="47.83088" lon="-0.90097">
        <ele>62.8</ele>
        <time>2020-12-20T11:12:49Z</time>
      </trkpt>
      <trkpt lat="47.83093" lon="-0.90098">
        <ele>62.7</ele>
        <time>2020-12-20T11:14:52Z</time>
      </trkpt>
      <trkpt lat="47.83097" lon="-0.90099">
        <ele>62.6</ele>
        <time>2020-12-20T11:14:53Z</time>
      </trkpt>
      <trkpt lat="47.83101" lon="-0.90101">
        <ele>62.6</ele>
        <time>2020-12-20T11:14:54Z</time>
      </trkpt>
      <trkpt lat="47.83106" lon="-0.90103">
        <ele>62.5</ele>
        <time>2020-12-20T11:14:55Z</time>
      </trkpt>
      <trkpt lat="47.83111" lon="-0.90104">
        <ele>62.4</ele>
        <time>2020-12-20T11:14:56Z</time>
      </trkpt>
      <trkpt lat="47.83116" lon="-0.90105">
        <ele>62.3</ele>
        <time>2020-12-20T11:14:57Z</time>
      </trkpt>
      <trkpt lat="47.83122" lon="-0.90106">
        <ele>62.3</ele>
        <time>2020-12-20T11:14:58Z</time>
      </trkpt>
      <trkpt lat="47.83128" lon="-0.90108">
        <ele>62.2</ele>
        <time>2020-12-20T11:14:59Z</time>
      </trkpt>
      <trkpt lat="47.83133" lon="-0.9011">
        <ele>62.1</ele>
        <time>2020-12-20T11:15:00Z</time>
      </trkpt>
      <trkpt lat="47.83139" lon="-0.90113">
        <ele>62</ele>
        <time>2020-12-20T11:15:01Z</time>
      </trkpt>
      <trkpt lat="47.83145" lon="-0.90116">
        <ele>61.9</ele>
        <time>2020-12-20T11:15:02Z</time>
      </trkpt>
      <trkpt lat="47.83151" lon="-0.90118">
        <ele>61.8</ele>
        <time>2020-12-20T11:15:03Z</time>
      </trkpt>
      <trkpt lat="47.83158" lon="-0.90121">
        <ele>61.7</ele>
        <time>2020-12-20T11:15:04Z</time>
      </trkpt>
      <trkpt lat="47.83163" lon="-0.90124">
        <ele>61.6</ele>
        <time>2020-12-20T11:15:05Z</time>
      </trkpt>
      <trkpt lat="47.8317" lon="-0.90127">
        <ele>61.4</ele>
        <time>2020-12-20T11:15:06Z</time>
      </trkpt>
      <trkpt lat="47.83176" lon="-0.9013">
        <ele>61.3</ele>
        <time>2020-12-20T11:15:07Z</time>
      </trkpt>
      <trkpt lat="47.83182" lon="-0.90132">
        <ele>61.3</ele>
        <time>2020-12-20T11:15:08Z</time>
      </trkpt>
      <trkpt lat="47.83189" lon="-0.90136">
        <ele>61.2</ele>
        <time>2020-12-20T11:15:09Z</time>
      </trkpt>
      <trkpt lat="47.83196" lon="-0.90139">
        <ele>61.1</ele>
        <time>2020-12-20T11:15:10Z</time>
      </trkpt>
      <trkpt lat="47.83201" lon="-0.90142">
        <ele>61.1</ele>
        <time>2020-12-20T11:15:11Z</time>
      </trkpt>
      <trkpt lat="47.83208" lon="-0.90145">
        <ele>61</ele>
        <time>2020-12-20T11:15:12Z</time>
      </trkpt>
      <trkpt lat="47.83214" lon="-0.90148">
        <ele>61</ele>
        <time>2020-12-20T11:15:13Z</time>
      </trkpt>
      <trkpt lat="47.8322" lon="-0.90151">
        <ele>60.9</ele>
        <time>2020-12-20T11:15:14Z</time>
      </trkpt>
      <trkpt lat="47.83227" lon="-0.90154">
        <ele>60.9</ele>
        <time>2020-12-20T11:15:15Z</time>
      </trkpt>
      <trkpt lat="47.83233" lon="-0.90157">
        <ele>60.9</ele>
        <time>2020-12-20T11:15:16Z</time>
      </trkpt>
      <trkpt lat="47.8324" lon="-0.90161">
        <ele>60.9</ele>
        <time>2020-12-20T11:15:17Z</time>
      </trkpt>
      <trkpt lat="47.83247" lon="-0.90164">
        <ele>61</ele>
        <time>2020-12-20T11:15:18Z</time>
      </trkpt>
      <trkpt lat="47.83252" lon="-0.90166">
        <ele>61</ele>
        <time>2020-12-20T11:15:19Z</time>
      </trkpt>
      <trkpt lat="47.83258" lon="-0.90169">
        <ele>61.1</ele>
        <time>2020-12-20T11:15:20Z</time>
      </trkpt>
      <trkpt lat="47.83265" lon="-0.90171">
        <ele>61.1</ele>
        <time>2020-12-20T11:15:21Z</time>
      </trkpt>
      <trkpt lat="47.83272" lon="-0.90172">
        <ele>61.2</ele>
        <time>2020-12-20T11:15:22Z</time>
      </trkpt>
      <trkpt lat="47.83278" lon="-0.90173">
        <ele>61.3</ele>
        <time>2020-12-20T11:15:23Z</time>
      </trkpt>
      <trkpt lat="47.83285" lon="-0.90173">
        <ele>61.4</ele>
        <time>2020-12-20T11:15:24Z</time>
      </trkpt>
      <trkpt lat="47.83293" lon="-0.90172">
        <ele>61.5</ele>
        <time>2020-12-20T11:15:25Z</time>
      </trkpt>
      <trkpt lat="47.833" lon="-0.9017">
        <ele>61.6</ele>
        <time>2020-12-20T11:15:26Z</time>
      </trkpt>
      <trkpt lat="47.83307" lon="-0.90168">
        <ele>61.7</ele>
        <time>2020-12-20T11:15:27Z</time>
      </trkpt>
      <trkpt lat="47.83314" lon="-0.90165">
        <ele>61.7</ele>
        <time>2020-12-20T11:15:28Z</time>
      </trkpt>
      <trkpt lat="47.83321" lon="-0.90162">
        <ele>61.8</ele>
        <time>2020-12-20T11:15:29Z</time>
      </trkpt>
      <trkpt lat="47.83328" lon="-0.90158">
        <ele>61.8</ele>
        <time>2020-12-20T11:15:30Z</time>
      </trkpt>
      <trkpt lat="47.83335" lon="-0.90155">
        <ele>61.9</ele>
        <time>2020-12-20T11:15:31Z</time>
      </trkpt>
      <trkpt lat="47.83342" lon="-0.90151">
        <ele>61.9</ele>
        <time>2020-12-20T11:15:32Z</time>
      </trkpt>
      <trkpt lat="47.83349" lon="-0.90146">
        <ele>61.9</ele>
        <time>2020-12-20T11:15:33Z</time>
      </trkpt>
      <trkpt lat="47.83356" lon="-0.90142">
        <ele>61.9</ele>
        <time>2020-12-20T11:15:34Z</time>
      </trkpt>
      <trkpt lat="47.83362" lon="-0.90138">
        <ele>61.9</ele>
        <time>2020-12-20T11:15:35Z</time>
      </trkpt>
      <trkpt lat="47.83369" lon="-0.90134">
        <ele>61.9</ele>
        <time>2020-12-20T11:15:36Z</time>
      </trkpt>
      <trkpt lat="47.83376" lon="-0.90129">
        <ele>61.8</ele>
        <time>2020-12-20T11:15:37Z</time>
      </trkpt>
      <trkpt lat="47.83382" lon="-0.90125">
        <ele>61.8</ele>
        <time>2020-12-20T11:15:38Z</time>
      </trkpt>
      <trkpt lat="47.83389" lon="-0.9012">
        <ele>61.7</ele>
        <time>2020-12-20T11:15:39Z</time>
      </trkpt>
      <trkpt lat="47.83396" lon="-0.90116">
        <ele>61.7</ele>
        <time>2020-12-20T11:15:40Z</time>
      </trkpt>
      <trkpt lat="47.83402" lon="-0.90111">
        <ele>61.6</ele>
        <time>2020-12-20T11:15:41Z</time>
      </trkpt>
      <trkpt lat="47.83409" lon="-0.90106">
        <ele>61.5</ele>
        <time>2020-12-20T11:15:42Z</time>
      </trkpt>
      <trkpt lat="47.83416" lon="-0.90102">
        <ele>61.4</ele>
        <time>2020-12-20T11:15:43Z</time>
      </trkpt>
      <trkpt lat="47.83423" lon="-0.90097">
        <ele>61.4</ele>
        <time>2020-12-20T11:15:44Z</time>
      </trkpt>
      <trkpt lat="47.83429" lon="-0.90093">
        <ele>61.4</ele>
        <time>2020-12-20T11:15:45Z</time>
      </trkpt>
      <trkpt lat="47.83437" lon="-0.90087">
        <ele>61.3</ele>
        <time>2020-12-20T11:15:46Z</time>
      </trkpt>
      <trkpt lat="47.83444" lon="-0.90083">
        <ele>61.3</ele>
        <time>2020-12-20T11:15:47Z</time>
      </trkpt>
      <trkpt lat="47.83451" lon="-0.90078">
        <ele>61.3</ele>
        <time>2020-12-20T11:15:48Z</time>
      </trkpt>
      <trkpt lat="47.83456" lon="-0.90075">
        <ele>61.4</ele>
        <time>2020-12-20T11:15:49Z</time>
      </trkpt>
      <trkpt lat="47.83464" lon="-0.90069">
        <ele>61.4</ele>
        <time>2020-12-20T11:15:50Z</time>
      </trkpt>
      <trkpt lat="47.83471" lon="-0.90064">
        <ele>61.4</ele>
        <time>2020-12-20T11:15:51Z</time>
      </trkpt>
      <trkpt lat="47.83477" lon="-0.9006">
        <ele>61.4</ele>
        <time>2020-12-20T11:15:52Z</time>
      </trkpt>
      <trkpt lat="47.83483" lon="-0.90057">
        <ele>61.5</ele>
        <time>2020-12-20T11:15:53Z</time>
      </trkpt>
      <trkpt lat="47.83489" lon="-0.90053">
        <ele>61.5</ele>
        <time>2020-12-20T11:15:54Z</time>
      </trkpt>
      <trkpt lat="47.83494" lon="-0.9005">
        <ele>61.5</ele>
        <time>2020-12-20T11:15:55Z</time>
      </trkpt>
      <trkpt lat="47.83501" lon="-0.90045">
        <ele>61.6</ele>
        <time>2020-12-20T11:15:56Z</time>
      </trkpt>
      <trkpt lat="47.83506" lon="-0.90042">
        <ele>61.6</ele>
        <time>2020-12-20T11:15:57Z</time>
      </trkpt>
      <trkpt lat="47.83512" lon="-0.90038">
        <ele>61.7</ele>
        <time>2020-12-20T11:15:58Z</time>
      </trkpt>
      <trkpt lat="47.83517" lon="-0.90034">
        <ele>61.7</ele>
        <time>2020-12-20T11:15:59Z</time>
      </trkpt>
      <trkpt lat="47.83522" lon="-0.9003">
        <ele>61.7</ele>
        <time>2020-12-20T11:16:00Z</time>
      </trkpt>
      <trkpt lat="47.83527" lon="-0.90027">
        <ele>61.8</ele>
        <time>2020-12-20T11:16:01Z</time>
      </trkpt>
      <trkpt lat="47.83532" lon="-0.90023">
        <ele>61.8</ele>
        <time>2020-12-20T11:16:02Z</time>
      </trkpt>
      <trkpt lat="47.83537" lon="-0.9002">
        <ele>61.8</ele>
        <time>2020-12-20T11:16:03Z</time>
      </trkpt>
      <trkpt lat="47.83542" lon="-0.90016">
        <ele>61.8</ele>
        <time>2020-12-20T11:16:04Z</time>
      </trkpt>
      <trkpt lat="47.83546" lon="-0.90013">
        <ele>61.8</ele>
        <time>2020-12-20T11:16:05Z</time>
      </trkpt>
      <trkpt lat="47.8355" lon="-0.90011">
        <ele>61.8</ele>
        <time>2020-12-20T11:16:06Z</time>
      </trkpt>
      <trkpt lat="47.83555" lon="-0.90008">
        <ele>61.8</ele>
        <time>2020-12-20T11:16:07Z</time>
      </trkpt>
      <trkpt lat="47.83559" lon="-0.90005">
        <ele>61.8</ele>
        <time>2020-12-20T11:16:08Z</time>
      </trkpt>
      <trkpt lat="47.83564" lon="-0.90002">
        <ele>61.8</ele>
        <time>2020-12-20T11:16:09Z</time>
      </trkpt>
      <trkpt lat="47.83568" lon="-0.89999">
        <ele>61.8</ele>
        <time>2020-12-20T11:16:10Z</time>
      </trkpt>
      <trkpt lat="47.83571" lon="-0.89997">
        <ele>61.8</ele>
        <time>2020-12-20T11:16:11Z</time>
      </trkpt>
      <trkpt lat="47.83575" lon="-0.89994">
        <ele>61.8</ele>
        <time>2020-12-20T11:16:12Z</time>
      </trkpt>
      <trkpt lat="47.83579" lon="-0.89991">
        <ele>61.8</ele>
        <time>2020-12-20T11:16:13Z</time>
      </trkpt>
      <trkpt lat="47.83583" lon="-0.89988">
        <ele>61.9</ele>
        <time>2020-12-20T11:16:14Z</time>
      </trkpt>
      <trkpt lat="47.83587" lon="-0.89985">
        <ele>61.8</ele>
        <time>2020-12-20T11:16:15Z</time>
      </trkpt>
      <trkpt lat="47.83591" lon="-0.89983">
        <ele>61.8</ele>
        <time>2020-12-20T11:16:16Z</time>
      </trkpt>
      <trkpt lat="47.83595" lon="-0.8998">
        <ele>61.8</ele>
        <time>2020-12-20T11:16:17Z</time>
      </trkpt>
      <trkpt lat="47.836" lon="-0.89977">
        <ele>61.8</ele>
        <time>2020-12-20T11:16:18Z</time>
      </trkpt>
      <trkpt lat="47.83604" lon="-0.89974">
        <ele>61.8</ele>
        <time>2020-12-20T11:16:19Z</time>
      </trkpt>
      <trkpt lat="47.83609" lon="-0.89971">
        <ele>61.8</ele>
        <time>2020-12-20T11:16:20Z</time>
      </trkpt>
      <trkpt lat="47.83613" lon="-0.89969">
        <ele>61.8</ele>
        <time>2020-12-20T11:16:21Z</time>
      </trkpt>
      <trkpt lat="47.83618" lon="-0.89966">
        <ele>61.8</ele>
        <time>2020-12-20T11:16:22Z</time>
      </trkpt>
      <trkpt lat="47.83622" lon="-0.89962">
        <ele>61.8</ele>
        <time>2020-12-20T11:16:23Z</time>
      </trkpt>
      <trkpt lat="47.83627" lon="-0.89959">
        <ele>61.8</ele>
        <time>2020-12-20T11:16:24Z</time>
      </trkpt>
      <trkpt lat="47.83632" lon="-0.89956">
        <ele>61.8</ele>
        <time>2020-12-20T11:16:25Z</time>
      </trkpt>
      <trkpt lat="47.83637" lon="-0.89952">
        <ele>61.8</ele>
        <time>2020-12-20T11:16:26Z</time>
      </trkpt>
      <trkpt lat="47.83643" lon="-0.89949">
        <ele>61.8</ele>
        <time>2020-12-20T11:16:27Z</time>
      </trkpt>
      <trkpt lat="47.83648" lon="-0.89946">
        <ele>61.9</ele>
        <time>2020-12-20T11:16:28Z</time>
      </trkpt>
      <trkpt lat="47.83654" lon="-0.89942">
        <ele>61.9</ele>
        <time>2020-12-20T11:16:29Z</time>
      </trkpt>
      <trkpt lat="47.83661" lon="-0.89937">
        <ele>61.9</ele>
        <time>2020-12-20T11:16:30Z</time>
      </trkpt>
      <trkpt lat="47.83666" lon="-0.89934">
        <ele>62</ele>
        <time>2020-12-20T11:16:31Z</time>
      </trkpt>
      <trkpt lat="47.83672" lon="-0.8993">
        <ele>62</ele>
        <time>2020-12-20T11:16:32Z</time>
      </trkpt>
      <trkpt lat="47.83679" lon="-0.89926">
        <ele>62</ele>
        <time>2020-12-20T11:16:33Z</time>
      </trkpt>
      <trkpt lat="47.83686" lon="-0.89922">
        <ele>62</ele>
        <time>2020-12-20T11:16:34Z</time>
      </trkpt>
      <trkpt lat="47.83692" lon="-0.89918">
        <ele>62</ele>
        <time>2020-12-20T11:16:35Z</time>
      </trkpt>
      <trkpt lat="47.83696" lon="-0.89915">
        <ele>62</ele>
        <time>2020-12-20T11:16:36Z</time>
      </trkpt>
      <trkpt lat="47.83704" lon="-0.89911">
        <ele>61.9</ele>
        <time>2020-12-20T11:16:37Z</time>
      </trkpt>
      <trkpt lat="47.83709" lon="-0.89908">
        <ele>61.8</ele>
        <time>2020-12-20T11:16:38Z</time>
      </trkpt>
      <trkpt lat="47.83715" lon="-0.89904">
        <ele>61.8</ele>
        <time>2020-12-20T11:16:39Z</time>
      </trkpt>
      <trkpt lat="47.83721" lon="-0.899">
        <ele>61.7</ele>
        <time>2020-12-20T11:16:40Z</time>
      </trkpt>
      <trkpt lat="47.83727" lon="-0.89896">
        <ele>61.7</ele>
        <time>2020-12-20T11:16:41Z</time>
      </trkpt>
      <trkpt lat="47.83733" lon="-0.89892">
        <ele>61.6</ele>
        <time>2020-12-20T11:16:42Z</time>
      </trkpt>
      <trkpt lat="47.83739" lon="-0.89887">
        <ele>61.6</ele>
        <time>2020-12-20T11:16:43Z</time>
      </trkpt>
      <trkpt lat="47.83745" lon="-0.89882">
        <ele>61.6</ele>
        <time>2020-12-20T11:16:44Z</time>
      </trkpt>
      <trkpt lat="47.83751" lon="-0.89877">
        <ele>61.5</ele>
        <time>2020-12-20T11:16:45Z</time>
      </trkpt>
      <trkpt lat="47.83758" lon="-0.89871">
        <ele>61.4</ele>
        <time>2020-12-20T11:16:46Z</time>
      </trkpt>
      <trkpt lat="47.83763" lon="-0.89867">
        <ele>61.2</ele>
        <time>2020-12-20T11:16:47Z</time>
      </trkpt>
      <trkpt lat="47.83769" lon="-0.89861">
        <ele>61.1</ele>
        <time>2020-12-20T11:16:48Z</time>
      </trkpt>
      <trkpt lat="47.83775" lon="-0.89856">
        <ele>61</ele>
        <time>2020-12-20T11:16:49Z</time>
      </trkpt>
      <trkpt lat="47.83781" lon="-0.89851">
        <ele>60.8</ele>
        <time>2020-12-20T11:16:50Z</time>
      </trkpt>
      <trkpt lat="47.83787" lon="-0.89845">
        <ele>60.7</ele>
        <time>2020-12-20T11:16:51Z</time>
      </trkpt>
      <trkpt lat="47.83793" lon="-0.8984">
        <ele>60.6</ele>
        <time>2020-12-20T11:16:52Z</time>
      </trkpt>
      <trkpt lat="47.83799" lon="-0.89834">
        <ele>60.4</ele>
        <time>2020-12-20T11:16:53Z</time>
      </trkpt>
      <trkpt lat="47.83805" lon="-0.89829">
        <ele>60.3</ele>
        <time>2020-12-20T11:16:54Z</time>
      </trkpt>
      <trkpt lat="47.83811" lon="-0.89823">
        <ele>60.3</ele>
        <time>2020-12-20T11:16:55Z</time>
      </trkpt>
      <trkpt lat="47.83817" lon="-0.89818">
        <ele>60.2</ele>
        <time>2020-12-20T11:16:56Z</time>
      </trkpt>
      <trkpt lat="47.83823" lon="-0.89812">
        <ele>60.1</ele>
        <time>2020-12-20T11:16:57Z</time>
      </trkpt>
      <trkpt lat="47.83829" lon="-0.89806">
        <ele>60.1</ele>
        <time>2020-12-20T11:16:58Z</time>
      </trkpt>
      <trkpt lat="47.83834" lon="-0.89801">
        <ele>60</ele>
        <time>2020-12-20T11:16:59Z</time>
      </trkpt>
      <trkpt lat="47.8384" lon="-0.89796">
        <ele>59.8</ele>
        <time>2020-12-20T11:17:00Z</time>
      </trkpt>
      <trkpt lat="47.83846" lon="-0.89791">
        <ele>59.7</ele>
        <time>2020-12-20T11:17:01Z</time>
      </trkpt>
      <trkpt lat="47.83852" lon="-0.89785">
        <ele>59.6</ele>
        <time>2020-12-20T11:17:02Z</time>
      </trkpt>
      <trkpt lat="47.83858" lon="-0.8978">
        <ele>59.4</ele>
        <time>2020-12-20T11:17:03Z</time>
      </trkpt>
      <trkpt lat="47.83864" lon="-0.89774">
        <ele>59.3</ele>
        <time>2020-12-20T11:17:04Z</time>
      </trkpt>
      <trkpt lat="47.83869" lon="-0.89769">
        <ele>59.1</ele>
        <time>2020-12-20T11:17:05Z</time>
      </trkpt>
      <trkpt lat="47.83875" lon="-0.89763">
        <ele>59</ele>
        <time>2020-12-20T11:17:06Z</time>
      </trkpt>
      <trkpt lat="47.83881" lon="-0.89758">
        <ele>58.9</ele>
        <time>2020-12-20T11:17:07Z</time>
      </trkpt>
      <trkpt lat="47.83887" lon="-0.89752">
        <ele>58.7</ele>
        <time>2020-12-20T11:17:08Z</time>
      </trkpt>
      <trkpt lat="47.83893" lon="-0.89747">
        <ele>58.6</ele>
        <time>2020-12-20T11:17:09Z</time>
      </trkpt>
      <trkpt lat="47.83899" lon="-0.89741">
        <ele>58.4</ele>
        <time>2020-12-20T11:17:10Z</time>
      </trkpt>
      <trkpt lat="47.83905" lon="-0.89735">
        <ele>58.3</ele>
        <time>2020-12-20T11:17:11Z</time>
      </trkpt>
      <trkpt lat="47.83911" lon="-0.8973">
        <ele>58.1</ele>
        <time>2020-12-20T11:17:12Z</time>
      </trkpt>
      <trkpt lat="47.83918" lon="-0.89724">
        <ele>58</ele>
        <time>2020-12-20T11:17:13Z</time>
      </trkpt>
      <trkpt lat="47.83924" lon="-0.89718">
        <ele>57.7</ele>
        <time>2020-12-20T11:17:14Z</time>
      </trkpt>
      <trkpt lat="47.83932" lon="-0.89712">
        <ele>57.4</ele>
        <time>2020-12-20T11:17:15Z</time>
      </trkpt>
      <trkpt lat="47.83939" lon="-0.89706">
        <ele>57.2</ele>
        <time>2020-12-20T11:17:16Z</time>
      </trkpt>
      <trkpt lat="47.83946" lon="-0.89703">
        <ele>56.9</ele>
        <time>2020-12-20T11:17:17Z</time>
      </trkpt>
      <trkpt lat="47.83954" lon="-0.897">
        <ele>56.7</ele>
        <time>2020-12-20T11:17:18Z</time>
      </trkpt>
      <trkpt lat="47.83962" lon="-0.89698">
        <ele>56.4</ele>
        <time>2020-12-20T11:17:19Z</time>
      </trkpt>
      <trkpt lat="47.8397" lon="-0.89697">
        <ele>56.1</ele>
        <time>2020-12-20T11:17:20Z</time>
      </trkpt>
      <trkpt lat="47.83978" lon="-0.89696">
        <ele>55.8</ele>
        <time>2020-12-20T11:17:21Z</time>
      </trkpt>
      <trkpt lat="47.83987" lon="-0.89696">
        <ele>55.5</ele>
        <time>2020-12-20T11:17:22Z</time>
      </trkpt>
      <trkpt lat="47.83995" lon="-0.89697">
        <ele>55.2</ele>
        <time>2020-12-20T11:17:23Z</time>
      </trkpt>
      <trkpt lat="47.84003" lon="-0.89697">
        <ele>54.9</ele>
        <time>2020-12-20T11:17:24Z</time>
      </trkpt>
      <trkpt lat="47.84011" lon="-0.89698">
        <ele>54.7</ele>
        <time>2020-12-20T11:17:25Z</time>
      </trkpt>
      <trkpt lat="47.84021" lon="-0.89699">
        <ele>54.4</ele>
        <time>2020-12-20T11:17:26Z</time>
      </trkpt>
      <trkpt lat="47.84027" lon="-0.89699">
        <ele>54.3</ele>
        <time>2020-12-20T11:17:27Z</time>
      </trkpt>
      <trkpt lat="47.84035" lon="-0.89701">
        <ele>54.1</ele>
        <time>2020-12-20T11:17:28Z</time>
      </trkpt>
      <trkpt lat="47.84042" lon="-0.89703">
        <ele>53.9</ele>
        <time>2020-12-20T11:17:29Z</time>
      </trkpt>
      <trkpt lat="47.84049" lon="-0.89707">
        <ele>53.8</ele>
        <time>2020-12-20T11:17:30Z</time>
      </trkpt>
      <trkpt lat="47.84057" lon="-0.89711">
        <ele>53.7</ele>
        <time>2020-12-20T11:17:31Z</time>
      </trkpt>
      <trkpt lat="47.84065" lon="-0.89715">
        <ele>53.6</ele>
        <time>2020-12-20T11:17:32Z</time>
      </trkpt>
      <trkpt lat="47.84072" lon="-0.89719">
        <ele>53.5</ele>
        <time>2020-12-20T11:17:33Z</time>
      </trkpt>
      <trkpt lat="47.84079" lon="-0.89723">
        <ele>53.4</ele>
        <time>2020-12-20T11:17:34Z</time>
      </trkpt>
      <trkpt lat="47.84085" lon="-0.89726">
        <ele>53.4</ele>
        <time>2020-12-20T11:17:35Z</time>
      </trkpt>
      <trkpt lat="47.84091" lon="-0.89729">
        <ele>53.5</ele>
        <time>2020-12-20T11:17:36Z</time>
      </trkpt>
      <trkpt lat="47.84098" lon="-0.89733">
        <ele>53.6</ele>
        <time>2020-12-20T11:17:37Z</time>
      </trkpt>
      <trkpt lat="47.84105" lon="-0.89736">
        <ele>53.7</ele>
        <time>2020-12-20T11:17:38Z</time>
      </trkpt>
      <trkpt lat="47.84112" lon="-0.8974">
        <ele>53.8</ele>
        <time>2020-12-20T11:17:39Z</time>
      </trkpt>
      <trkpt lat="47.84117" lon="-0.89743">
        <ele>53.9</ele>
        <time>2020-12-20T11:17:40Z</time>
      </trkpt>
      <trkpt lat="47.84124" lon="-0.89746">
        <ele>53.9</ele>
        <time>2020-12-20T11:17:41Z</time>
      </trkpt>
      <trkpt lat="47.8413" lon="-0.8975">
        <ele>54</ele>
        <time>2020-12-20T11:17:42Z</time>
      </trkpt>
      <trkpt lat="47.84136" lon="-0.89753">
        <ele>54.1</ele>
        <time>2020-12-20T11:17:43Z</time>
      </trkpt>
      <trkpt lat="47.84143" lon="-0.89756">
        <ele>54.1</ele>
        <time>2020-12-20T11:17:44Z</time>
      </trkpt>
      <trkpt lat="47.84149" lon="-0.89759">
        <ele>54.2</ele>
        <time>2020-12-20T11:17:45Z</time>
      </trkpt>
      <trkpt lat="47.84156" lon="-0.89763">
        <ele>54.3</ele>
        <time>2020-12-20T11:17:46Z</time>
      </trkpt>
      <trkpt lat="47.84162" lon="-0.89766">
        <ele>54.4</ele>
        <time>2020-12-20T11:17:47Z</time>
      </trkpt>
      <trkpt lat="47.84168" lon="-0.89769">
        <ele>54.5</ele>
        <time>2020-12-20T11:17:48Z</time>
      </trkpt>
      <trkpt lat="47.84173" lon="-0.89771">
        <ele>54.6</ele>
        <time>2020-12-20T11:17:49Z</time>
      </trkpt>
      <trkpt lat="47.84179" lon="-0.89773">
        <ele>54.7</ele>
        <time>2020-12-20T11:17:50Z</time>
      </trkpt>
      <trkpt lat="47.84185" lon="-0.89774">
        <ele>54.8</ele>
        <time>2020-12-20T11:17:51Z</time>
      </trkpt>
      <trkpt lat="47.84191" lon="-0.89774">
        <ele>54.9</ele>
        <time>2020-12-20T11:17:52Z</time>
      </trkpt>
      <trkpt lat="47.84195" lon="-0.89774">
        <ele>54.9</ele>
        <time>2020-12-20T11:17:53Z</time>
      </trkpt>
      <trkpt lat="47.842" lon="-0.89773">
        <ele>55</ele>
        <time>2020-12-20T11:17:54Z</time>
      </trkpt>
      <trkpt lat="47.84206" lon="-0.89772">
        <ele>55</ele>
        <time>2020-12-20T11:17:55Z</time>
      </trkpt>
      <trkpt lat="47.84211" lon="-0.89771">
        <ele>55</ele>
        <time>2020-12-20T11:17:56Z</time>
      </trkpt>
      <trkpt lat="47.84216" lon="-0.8977">
        <ele>55.1</ele>
        <time>2020-12-20T11:17:57Z</time>
      </trkpt>
      <trkpt lat="47.84221" lon="-0.89768">
        <ele>55.1</ele>
        <time>2020-12-20T11:17:58Z</time>
      </trkpt>
      <trkpt lat="47.84227" lon="-0.89766">
        <ele>55.1</ele>
        <time>2020-12-20T11:17:59Z</time>
      </trkpt>
      <trkpt lat="47.84233" lon="-0.89764">
        <ele>55.1</ele>
        <time>2020-12-20T11:18:00Z</time>
      </trkpt>
      <trkpt lat="47.84237" lon="-0.89763">
        <ele>55.2</ele>
        <time>2020-12-20T11:18:01Z</time>
      </trkpt>
      <trkpt lat="47.84242" lon="-0.89761">
        <ele>55.2</ele>
        <time>2020-12-20T11:18:02Z</time>
      </trkpt>
      <trkpt lat="47.84247" lon="-0.89759">
        <ele>55.2</ele>
        <time>2020-12-20T11:18:03Z</time>
      </trkpt>
      <trkpt lat="47.84252" lon="-0.89757">
        <ele>55.2</ele>
        <time>2020-12-20T11:18:04Z</time>
      </trkpt>
      <trkpt lat="47.84257" lon="-0.89755">
        <ele>55.4</ele>
        <time>2020-12-20T11:18:05Z</time>
      </trkpt>
      <trkpt lat="47.84263" lon="-0.89753">
        <ele>55.5</ele>
        <time>2020-12-20T11:18:06Z</time>
      </trkpt>
      <trkpt lat="47.84268" lon="-0.89751">
        <ele>55.7</ele>
        <time>2020-12-20T11:18:07Z</time>
      </trkpt>
      <trkpt lat="47.84274" lon="-0.89749">
        <ele>55.9</ele>
        <time>2020-12-20T11:18:08Z</time>
      </trkpt>
      <trkpt lat="47.84279" lon="-0.89747">
        <ele>56</ele>
        <time>2020-12-20T11:18:09Z</time>
      </trkpt>
      <trkpt lat="47.84285" lon="-0.89745">
        <ele>56.2</ele>
        <time>2020-12-20T11:18:10Z</time>
      </trkpt>
      <trkpt lat="47.8429" lon="-0.89742">
        <ele>56.3</ele>
        <time>2020-12-20T11:18:11Z</time>
      </trkpt>
      <trkpt lat="47.84296" lon="-0.8974">
        <ele>56.5</ele>
        <time>2020-12-20T11:18:12Z</time>
      </trkpt>
      <trkpt lat="47.84302" lon="-0.89738">
        <ele>56.6</ele>
        <time>2020-12-20T11:18:13Z</time>
      </trkpt>
      <trkpt lat="47.84307" lon="-0.89736">
        <ele>56.7</ele>
        <time>2020-12-20T11:18:14Z</time>
      </trkpt>
      <trkpt lat="47.84314" lon="-0.89734">
        <ele>56.9</ele>
        <time>2020-12-20T11:18:15Z</time>
      </trkpt>
      <trkpt lat="47.8432" lon="-0.89732">
        <ele>57</ele>
        <time>2020-12-20T11:18:16Z</time>
      </trkpt>
      <trkpt lat="47.84326" lon="-0.89731">
        <ele>57.1</ele>
        <time>2020-12-20T11:18:17Z</time>
      </trkpt>
      <trkpt lat="47.84331" lon="-0.8973">
        <ele>57.2</ele>
        <time>2020-12-20T11:18:18Z</time>
      </trkpt>
      <trkpt lat="47.84337" lon="-0.89729">
        <ele>57.2</ele>
        <time>2020-12-20T11:18:19Z</time>
      </trkpt>
      <trkpt lat="47.84343" lon="-0.89728">
        <ele>57.1</ele>
        <time>2020-12-20T11:18:20Z</time>
      </trkpt>
      <trkpt lat="47.84348" lon="-0.89727">
        <ele>57</ele>
        <time>2020-12-20T11:18:21Z</time>
      </trkpt>
      <trkpt lat="47.84354" lon="-0.89726">
        <ele>57</ele>
        <time>2020-12-20T11:18:22Z</time>
      </trkpt>
      <trkpt lat="47.8436" lon="-0.89726">
        <ele>56.9</ele>
        <time>2020-12-20T11:18:23Z</time>
      </trkpt>
      <trkpt lat="47.84365" lon="-0.89725">
        <ele>56.8</ele>
        <time>2020-12-20T11:18:24Z</time>
      </trkpt>
      <trkpt lat="47.8437" lon="-0.89724">
        <ele>56.8</ele>
        <time>2020-12-20T11:18:25Z</time>
      </trkpt>
      <trkpt lat="47.84376" lon="-0.89723">
        <ele>56.7</ele>
        <time>2020-12-20T11:18:26Z</time>
      </trkpt>
      <trkpt lat="47.84381" lon="-0.89722">
        <ele>56.6</ele>
        <time>2020-12-20T11:18:27Z</time>
      </trkpt>
      <trkpt lat="47.84387" lon="-0.89721">
        <ele>56.5</ele>
        <time>2020-12-20T11:18:28Z</time>
      </trkpt>
      <trkpt lat="47.84394" lon="-0.8972">
        <ele>56.5</ele>
        <time>2020-12-20T11:18:29Z</time>
      </trkpt>
      <trkpt lat="47.84399" lon="-0.89719">
        <ele>56.4</ele>
        <time>2020-12-20T11:18:30Z</time>
      </trkpt>
      <trkpt lat="47.84405" lon="-0.89718">
        <ele>56.3</ele>
        <time>2020-12-20T11:18:31Z</time>
      </trkpt>
      <trkpt lat="47.84409" lon="-0.89717">
        <ele>56.3</ele>
        <time>2020-12-20T11:18:32Z</time>
      </trkpt>
      <trkpt lat="47.84414" lon="-0.89716">
        <ele>56.2</ele>
        <time>2020-12-20T11:18:33Z</time>
      </trkpt>
      <trkpt lat="47.8442" lon="-0.89715">
        <ele>56.2</ele>
        <time>2020-12-20T11:18:34Z</time>
      </trkpt>
      <trkpt lat="47.84425" lon="-0.89714">
        <ele>56.2</ele>
        <time>2020-12-20T11:18:35Z</time>
      </trkpt>
      <trkpt lat="47.84431" lon="-0.89713">
        <ele>56.2</ele>
        <time>2020-12-20T11:18:36Z</time>
      </trkpt>
      <trkpt lat="47.84436" lon="-0.89712">
        <ele>56.2</ele>
        <time>2020-12-20T11:18:37Z</time>
      </trkpt>
      <trkpt lat="47.84441" lon="-0.89711">
        <ele>56.2</ele>
        <time>2020-12-20T11:18:38Z</time>
      </trkpt>
      <trkpt lat="47.84447" lon="-0.89711">
        <ele>56.2</ele>
        <time>2020-12-20T11:18:39Z</time>
      </trkpt>
      <trkpt lat="47.84452" lon="-0.8971">
        <ele>56.2</ele>
        <time>2020-12-20T11:18:40Z</time>
      </trkpt>
      <trkpt lat="47.84457" lon="-0.8971">
        <ele>56.3</ele>
        <time>2020-12-20T11:18:41Z</time>
      </trkpt>
      <trkpt lat="47.84463" lon="-0.89709">
        <ele>56.3</ele>
        <time>2020-12-20T11:18:42Z</time>
      </trkpt>
      <trkpt lat="47.84468" lon="-0.89708">
        <ele>56.3</ele>
        <time>2020-12-20T11:18:43Z</time>
      </trkpt>
      <trkpt lat="47.84473" lon="-0.89707">
        <ele>56.3</ele>
        <time>2020-12-20T11:18:44Z</time>
      </trkpt>
      <trkpt lat="47.84478" lon="-0.89706">
        <ele>56.3</ele>
        <time>2020-12-20T11:18:45Z</time>
      </trkpt>
      <trkpt lat="47.84482" lon="-0.89705">
        <ele>56.3</ele>
        <time>2020-12-20T11:18:46Z</time>
      </trkpt>
      <trkpt lat="47.84487" lon="-0.89704">
        <ele>56.4</ele>
        <time>2020-12-20T11:18:47Z</time>
      </trkpt>
      <trkpt lat="47.84492" lon="-0.89703">
        <ele>56.4</ele>
        <time>2020-12-20T11:18:48Z</time>
      </trkpt>
      <trkpt lat="47.84496" lon="-0.89702">
        <ele>56.4</ele>
        <time>2020-12-20T11:18:49Z</time>
      </trkpt>
      <trkpt lat="47.84499" lon="-0.89702">
        <ele>56.4</ele>
        <time>2020-12-20T11:18:50Z</time>
      </trkpt>
      <trkpt lat="47.84501" lon="-0.89701">
        <ele>56.4</ele>
        <time>2020-12-20T11:18:51Z</time>
      </trkpt>
      <trkpt lat="47.84503" lon="-0.89701">
        <ele>56.4</ele>
        <time>2020-12-20T11:18:52Z</time>
      </trkpt>
      <trkpt lat="47.84504" lon="-0.89701">
        <ele>56.4</ele>
        <time>2020-12-20T11:18:53Z</time>
      </trkpt>
      <trkpt lat="47.84505" lon="-0.89701">
        <ele>56.4</ele>
        <time>2020-12-20T11:18:54Z</time>
      </trkpt>
      <trkpt lat="47.84507" lon="-0.89702">
        <ele>56.4</ele>
        <time>2020-12-20T11:18:55Z</time>
      </trkpt>
      <trkpt lat="47.8451" lon="-0.89704">
        <ele>56.4</ele>
        <time>2020-12-20T11:18:56Z</time>
      </trkpt>
      <trkpt lat="47.84512" lon="-0.89708">
        <ele>56.4</ele>
        <time>2020-12-20T11:18:57Z</time>
      </trkpt>
      <trkpt lat="47.84513" lon="-0.89714">
        <ele>56.5</ele>
        <time>2020-12-20T11:18:58Z</time>
      </trkpt>
      <trkpt lat="47.84514" lon="-0.89721">
        <ele>56.5</ele>
        <time>2020-12-20T11:18:59Z</time>
      </trkpt>
      <trkpt lat="47.84514" lon="-0.89728">
        <ele>56.6</ele>
        <time>2020-12-20T11:19:00Z</time>
      </trkpt>
      <trkpt lat="47.84515" lon="-0.89736">
        <ele>56.7</ele>
        <time>2020-12-20T11:19:01Z</time>
      </trkpt>
      <trkpt lat="47.84515" lon="-0.89744">
        <ele>56.8</ele>
        <time>2020-12-20T11:19:02Z</time>
      </trkpt>
      <trkpt lat="47.84516" lon="-0.89751">
        <ele>56.8</ele>
        <time>2020-12-20T11:19:03Z</time>
      </trkpt>
      <trkpt lat="47.84516" lon="-0.89759">
        <ele>56.9</ele>
        <time>2020-12-20T11:19:04Z</time>
      </trkpt>
      <trkpt lat="47.84517" lon="-0.89767">
        <ele>57</ele>
        <time>2020-12-20T11:19:05Z</time>
      </trkpt>
      <trkpt lat="47.84517" lon="-0.89775">
        <ele>57.1</ele>
        <time>2020-12-20T11:19:06Z</time>
      </trkpt>
      <trkpt lat="47.84518" lon="-0.89783">
        <ele>57.2</ele>
        <time>2020-12-20T11:19:07Z</time>
      </trkpt>
      <trkpt lat="47.84518" lon="-0.8979">
        <ele>57.3</ele>
        <time>2020-12-20T11:19:08Z</time>
      </trkpt>
      <trkpt lat="47.84519" lon="-0.89798">
        <ele>57.3</ele>
        <time>2020-12-20T11:19:09Z</time>
      </trkpt>
      <trkpt lat="47.84519" lon="-0.89805">
        <ele>57.4</ele>
        <time>2020-12-20T11:19:10Z</time>
      </trkpt>
      <trkpt lat="47.84519" lon="-0.89813">
        <ele>57.5</ele>
        <time>2020-12-20T11:19:11Z</time>
      </trkpt>
      <trkpt lat="47.8452" lon="-0.8982">
        <ele>57.6</ele>
        <time>2020-12-20T11:19:12Z</time>
      </trkpt>
      <trkpt lat="47.8452" lon="-0.89828">
        <ele>57.7</ele>
        <time>2020-12-20T11:19:13Z</time>
      </trkpt>
      <trkpt lat="47.8452" lon="-0.89835">
        <ele>57.8</ele>
        <time>2020-12-20T11:19:14Z</time>
      </trkpt>
      <trkpt lat="47.84521" lon="-0.89843">
        <ele>57.8</ele>
        <time>2020-12-20T11:19:15Z</time>
      </trkpt>
      <trkpt lat="47.84521" lon="-0.8985">
        <ele>57.8</ele>
        <time>2020-12-20T11:19:16Z</time>
      </trkpt>
      <trkpt lat="47.84522" lon="-0.89858">
        <ele>57.8</ele>
        <time>2020-12-20T11:19:17Z</time>
      </trkpt>
      <trkpt lat="47.84522" lon="-0.89865">
        <ele>57.8</ele>
        <time>2020-12-20T11:19:18Z</time>
      </trkpt>
      <trkpt lat="47.84522" lon="-0.89872">
        <ele>57.9</ele>
        <time>2020-12-20T11:19:19Z</time>
      </trkpt>
      <trkpt lat="47.84522" lon="-0.8988">
        <ele>57.9</ele>
        <time>2020-12-20T11:19:20Z</time>
      </trkpt>
      <trkpt lat="47.84523" lon="-0.89887">
        <ele>57.9</ele>
        <time>2020-12-20T11:19:21Z</time>
      </trkpt>
      <trkpt lat="47.84523" lon="-0.89894">
        <ele>57.9</ele>
        <time>2020-12-20T11:19:22Z</time>
      </trkpt>
      <trkpt lat="47.84523" lon="-0.89902">
        <ele>58</ele>
        <time>2020-12-20T11:19:23Z</time>
      </trkpt>
      <trkpt lat="47.84524" lon="-0.89909">
        <ele>58</ele>
        <time>2020-12-20T11:19:24Z</time>
      </trkpt>
      <trkpt lat="47.84524" lon="-0.89916">
        <ele>58</ele>
        <time>2020-12-20T11:19:25Z</time>
      </trkpt>
      <trkpt lat="47.84524" lon="-0.89923">
        <ele>58.1</ele>
        <time>2020-12-20T11:19:26Z</time>
      </trkpt>
      <trkpt lat="47.84525" lon="-0.8993">
        <ele>58.2</ele>
        <time>2020-12-20T11:19:27Z</time>
      </trkpt>
      <trkpt lat="47.84525" lon="-0.89937">
        <ele>58.3</ele>
        <time>2020-12-20T11:19:28Z</time>
      </trkpt>
      <trkpt lat="47.84526" lon="-0.89944">
        <ele>58.4</ele>
        <time>2020-12-20T11:19:29Z</time>
      </trkpt>
      <trkpt lat="47.84526" lon="-0.89952">
        <ele>58.6</ele>
        <time>2020-12-20T11:19:30Z</time>
      </trkpt>
      <trkpt lat="47.84526" lon="-0.89959">
        <ele>58.7</ele>
        <time>2020-12-20T11:19:31Z</time>
      </trkpt>
      <trkpt lat="47.84526" lon="-0.89966">
        <ele>58.8</ele>
        <time>2020-12-20T11:19:32Z</time>
      </trkpt>
      <trkpt lat="47.84527" lon="-0.89973">
        <ele>58.9</ele>
        <time>2020-12-20T11:19:33Z</time>
      </trkpt>
      <trkpt lat="47.84527" lon="-0.8998">
        <ele>59</ele>
        <time>2020-12-20T11:19:34Z</time>
      </trkpt>
      <trkpt lat="47.84527" lon="-0.89987">
        <ele>59.1</ele>
        <time>2020-12-20T11:19:35Z</time>
      </trkpt>
      <trkpt lat="47.84528" lon="-0.89994">
        <ele>59.2</ele>
        <time>2020-12-20T11:19:36Z</time>
      </trkpt>
      <trkpt lat="47.84528" lon="-0.9">
        <ele>59.3</ele>
        <time>2020-12-20T11:19:37Z</time>
      </trkpt>
      <trkpt lat="47.84529" lon="-0.90008">
        <ele>59.4</ele>
        <time>2020-12-20T11:19:38Z</time>
      </trkpt>
      <trkpt lat="47.84529" lon="-0.90015">
        <ele>59.4</ele>
        <time>2020-12-20T11:19:39Z</time>
      </trkpt>
      <trkpt lat="47.84529" lon="-0.90022">
        <ele>59.4</ele>
        <time>2020-12-20T11:19:40Z</time>
      </trkpt>
      <trkpt lat="47.8453" lon="-0.90029">
        <ele>59.5</ele>
        <time>2020-12-20T11:19:41Z</time>
      </trkpt>
      <trkpt lat="47.8453" lon="-0.90036">
        <ele>59.5</ele>
        <time>2020-12-20T11:19:42Z</time>
      </trkpt>
      <trkpt lat="47.8453" lon="-0.90043">
        <ele>59.5</ele>
        <time>2020-12-20T11:19:43Z</time>
      </trkpt>
      <trkpt lat="47.84531" lon="-0.9005">
        <ele>59.5</ele>
        <time>2020-12-20T11:19:44Z</time>
      </trkpt>
      <trkpt lat="47.84531" lon="-0.90057">
        <ele>59.5</ele>
        <time>2020-12-20T11:19:45Z</time>
      </trkpt>
      <trkpt lat="47.84532" lon="-0.90064">
        <ele>59.6</ele>
        <time>2020-12-20T11:19:46Z</time>
      </trkpt>
      <trkpt lat="47.84532" lon="-0.90072">
        <ele>59.6</ele>
        <time>2020-12-20T11:19:47Z</time>
      </trkpt>
      <trkpt lat="47.84532" lon="-0.90079">
        <ele>59.6</ele>
        <time>2020-12-20T11:19:48Z</time>
      </trkpt>
      <trkpt lat="47.84532" lon="-0.90086">
        <ele>59.6</ele>
        <time>2020-12-20T11:19:49Z</time>
      </trkpt>
      <trkpt lat="47.84533" lon="-0.90093">
        <ele>59.5</ele>
        <time>2020-12-20T11:19:50Z</time>
      </trkpt>
      <trkpt lat="47.84534" lon="-0.901">
        <ele>59.4</ele>
        <time>2020-12-20T11:19:51Z</time>
      </trkpt>
      <trkpt lat="47.84535" lon="-0.90107">
        <ele>59.3</ele>
        <time>2020-12-20T11:19:52Z</time>
      </trkpt>
      <trkpt lat="47.84536" lon="-0.90115">
        <ele>59.2</ele>
        <time>2020-12-20T11:19:53Z</time>
      </trkpt>
      <trkpt lat="47.84537" lon="-0.90129">
        <ele>59</ele>
        <time>2020-12-20T11:19:55Z</time>
      </trkpt>
      <trkpt lat="47.84537" lon="-0.90136">
        <ele>58.9</ele>
        <time>2020-12-20T11:19:56Z</time>
      </trkpt>
      <trkpt lat="47.84538" lon="-0.90143">
        <ele>58.8</ele>
        <time>2020-12-20T11:19:57Z</time>
      </trkpt>
      <trkpt lat="47.84539" lon="-0.9015">
        <ele>58.7</ele>
        <time>2020-12-20T11:19:58Z</time>
      </trkpt>
      <trkpt lat="47.84539" lon="-0.90157">
        <ele>58.6</ele>
        <time>2020-12-20T11:19:59Z</time>
      </trkpt>
      <trkpt lat="47.8454" lon="-0.90165">
        <ele>58.5</ele>
        <time>2020-12-20T11:20:00Z</time>
      </trkpt>
      <trkpt lat="47.8454" lon="-0.90172">
        <ele>58.5</ele>
        <time>2020-12-20T11:20:01Z</time>
      </trkpt>
      <trkpt lat="47.8454" lon="-0.90179">
        <ele>58.5</ele>
        <time>2020-12-20T11:20:02Z</time>
      </trkpt>
      <trkpt lat="47.8454" lon="-0.90186">
        <ele>58.5</ele>
        <time>2020-12-20T11:20:03Z</time>
      </trkpt>
      <trkpt lat="47.84541" lon="-0.90193">
        <ele>58.5</ele>
        <time>2020-12-20T11:20:04Z</time>
      </trkpt>
      <trkpt lat="47.84541" lon="-0.902">
        <ele>58.5</ele>
        <time>2020-12-20T11:20:05Z</time>
      </trkpt>
      <trkpt lat="47.84541" lon="-0.90207">
        <ele>58.5</ele>
        <time>2020-12-20T11:20:06Z</time>
      </trkpt>
      <trkpt lat="47.84542" lon="-0.90214">
        <ele>58.5</ele>
        <time>2020-12-20T11:20:07Z</time>
      </trkpt>
      <trkpt lat="47.84541" lon="-0.90222">
        <ele>58.5</ele>
        <time>2020-12-20T11:20:08Z</time>
      </trkpt>
      <trkpt lat="47.84542" lon="-0.9023">
        <ele>58.5</ele>
        <time>2020-12-20T11:20:09Z</time>
      </trkpt>
      <trkpt lat="47.84542" lon="-0.90237">
        <ele>58.5</ele>
        <time>2020-12-20T11:20:10Z</time>
      </trkpt>
      <trkpt lat="47.84542" lon="-0.90244">
        <ele>58.5</ele>
        <time>2020-12-20T11:20:11Z</time>
      </trkpt>
      <trkpt lat="47.84541" lon="-0.90252">
        <ele>58.6</ele>
        <time>2020-12-20T11:20:12Z</time>
      </trkpt>
      <trkpt lat="47.84541" lon="-0.90259">
        <ele>58.8</ele>
        <time>2020-12-20T11:20:13Z</time>
      </trkpt>
      <trkpt lat="47.84541" lon="-0.90266">
        <ele>59</ele>
        <time>2020-12-20T11:20:14Z</time>
      </trkpt>
      <trkpt lat="47.84541" lon="-0.90273">
        <ele>59.2</ele>
        <time>2020-12-20T11:20:15Z</time>
      </trkpt>
      <trkpt lat="47.84542" lon="-0.9028">
        <ele>59.4</ele>
        <time>2020-12-20T11:20:16Z</time>
      </trkpt>
      <trkpt lat="47.84542" lon="-0.90288">
        <ele>59.6</ele>
        <time>2020-12-20T11:20:17Z</time>
      </trkpt>
      <trkpt lat="47.84542" lon="-0.90295">
        <ele>59.8</ele>
        <time>2020-12-20T11:20:18Z</time>
      </trkpt>
      <trkpt lat="47.84542" lon="-0.90302">
        <ele>60.1</ele>
        <time>2020-12-20T11:20:19Z</time>
      </trkpt>
      <trkpt lat="47.84542" lon="-0.90309">
        <ele>60.3</ele>
        <time>2020-12-20T11:20:20Z</time>
      </trkpt>
      <trkpt lat="47.84542" lon="-0.90316">
        <ele>60.5</ele>
        <time>2020-12-20T11:20:21Z</time>
      </trkpt>
      <trkpt lat="47.84543" lon="-0.90323">
        <ele>60.7</ele>
        <time>2020-12-20T11:20:22Z</time>
      </trkpt>
      <trkpt lat="47.84543" lon="-0.9033">
        <ele>60.9</ele>
        <time>2020-12-20T11:20:23Z</time>
      </trkpt>
      <trkpt lat="47.84544" lon="-0.90337">
        <ele>61.1</ele>
        <time>2020-12-20T11:20:24Z</time>
      </trkpt>
      <trkpt lat="47.84544" lon="-0.90343">
        <ele>61.2</ele>
        <time>2020-12-20T11:20:25Z</time>
      </trkpt>
      <trkpt lat="47.84544" lon="-0.9035">
        <ele>61.3</ele>
        <time>2020-12-20T11:20:26Z</time>
      </trkpt>
      <trkpt lat="47.84545" lon="-0.90363">
        <ele>61.5</ele>
        <time>2020-12-20T11:20:28Z</time>
      </trkpt>
      <trkpt lat="47.84545" lon="-0.9037">
        <ele>61.7</ele>
        <time>2020-12-20T11:20:29Z</time>
      </trkpt>
      <trkpt lat="47.84545" lon="-0.90377">
        <ele>61.8</ele>
        <time>2020-12-20T11:20:30Z</time>
      </trkpt>
      <trkpt lat="47.84545" lon="-0.90383">
        <ele>61.9</ele>
        <time>2020-12-20T11:20:31Z</time>
      </trkpt>
      <trkpt lat="47.84545" lon="-0.9039">
        <ele>62</ele>
        <time>2020-12-20T11:20:32Z</time>
      </trkpt>
      <trkpt lat="47.84546" lon="-0.90396">
        <ele>62.2</ele>
        <time>2020-12-20T11:20:33Z</time>
      </trkpt>
      <trkpt lat="47.84546" lon="-0.90402">
        <ele>62.3</ele>
        <time>2020-12-20T11:20:34Z</time>
      </trkpt>
      <trkpt lat="47.84547" lon="-0.90408">
        <ele>62.4</ele>
        <time>2020-12-20T11:20:35Z</time>
      </trkpt>
      <trkpt lat="47.84547" lon="-0.90414">
        <ele>62.5</ele>
        <time>2020-12-20T11:20:36Z</time>
      </trkpt>
      <trkpt lat="47.84547" lon="-0.90421">
        <ele>62.6</ele>
        <time>2020-12-20T11:20:37Z</time>
      </trkpt>
      <trkpt lat="47.84547" lon="-0.90427">
        <ele>62.7</ele>
        <time>2020-12-20T11:20:38Z</time>
      </trkpt>
      <trkpt lat="47.84547" lon="-0.90433">
        <ele>62.7</ele>
        <time>2020-12-20T11:20:39Z</time>
      </trkpt>
      <trkpt lat="47.84547" lon="-0.90439">
        <ele>62.8</ele>
        <time>2020-12-20T11:20:40Z</time>
      </trkpt>
      <trkpt lat="47.84547" lon="-0.90446">
        <ele>62.9</ele>
        <time>2020-12-20T11:20:41Z</time>
      </trkpt>
      <trkpt lat="47.84547" lon="-0.90452">
        <ele>62.9</ele>
        <time>2020-12-20T11:20:42Z</time>
      </trkpt>
      <trkpt lat="47.84547" lon="-0.90458">
        <ele>63</ele>
        <time>2020-12-20T11:20:43Z</time>
      </trkpt>
      <trkpt lat="47.84547" lon="-0.90465">
        <ele>63.1</ele>
        <time>2020-12-20T11:20:44Z</time>
      </trkpt>
      <trkpt lat="47.84547" lon="-0.90471">
        <ele>63.1</ele>
        <time>2020-12-20T11:20:45Z</time>
      </trkpt>
      <trkpt lat="47.84547" lon="-0.90477">
        <ele>63.2</ele>
        <time>2020-12-20T11:20:46Z</time>
      </trkpt>
      <trkpt lat="47.84548" lon="-0.90483">
        <ele>63.3</ele>
        <time>2020-12-20T11:20:47Z</time>
      </trkpt>
      <trkpt lat="47.84548" lon="-0.9049">
        <ele>63.3</ele>
        <time>2020-12-20T11:20:48Z</time>
      </trkpt>
      <trkpt lat="47.84548" lon="-0.90496">
        <ele>63.4</ele>
        <time>2020-12-20T11:20:49Z</time>
      </trkpt>
      <trkpt lat="47.84548" lon="-0.90502">
        <ele>63.5</ele>
        <time>2020-12-20T11:20:50Z</time>
      </trkpt>
      <trkpt lat="47.84548" lon="-0.90508">
        <ele>63.6</ele>
        <time>2020-12-20T11:20:51Z</time>
      </trkpt>
      <trkpt lat="47.84548" lon="-0.90514">
        <ele>63.7</ele>
        <time>2020-12-20T11:20:52Z</time>
      </trkpt>
      <trkpt lat="47.84549" lon="-0.9052">
        <ele>63.8</ele>
        <time>2020-12-20T11:20:53Z</time>
      </trkpt>
      <trkpt lat="47.84549" lon="-0.90526">
        <ele>63.9</ele>
        <time>2020-12-20T11:20:54Z</time>
      </trkpt>
      <trkpt lat="47.84549" lon="-0.90531">
        <ele>63.9</ele>
        <time>2020-12-20T11:20:55Z</time>
      </trkpt>
      <trkpt lat="47.84549" lon="-0.90537">
        <ele>64</ele>
        <time>2020-12-20T11:20:56Z</time>
      </trkpt>
      <trkpt lat="47.84549" lon="-0.90543">
        <ele>64.1</ele>
        <time>2020-12-20T11:20:57Z</time>
      </trkpt>
      <trkpt lat="47.8455" lon="-0.90555">
        <ele>64.3</ele>
        <time>2020-12-20T11:20:59Z</time>
      </trkpt>
      <trkpt lat="47.8455" lon="-0.9056">
        <ele>64.4</ele>
        <time>2020-12-20T11:21:00Z</time>
      </trkpt>
      <trkpt lat="47.84551" lon="-0.90566">
        <ele>64.5</ele>
        <time>2020-12-20T11:21:01Z</time>
      </trkpt>
      <trkpt lat="47.84551" lon="-0.90572">
        <ele>64.6</ele>
        <time>2020-12-20T11:21:02Z</time>
      </trkpt>
      <trkpt lat="47.84551" lon="-0.90577">
        <ele>64.7</ele>
        <time>2020-12-20T11:21:03Z</time>
      </trkpt>
      <trkpt lat="47.84551" lon="-0.90583">
        <ele>64.8</ele>
        <time>2020-12-20T11:21:04Z</time>
      </trkpt>
      <trkpt lat="47.84551" lon="-0.90588">
        <ele>64.9</ele>
        <time>2020-12-20T11:21:05Z</time>
      </trkpt>
      <trkpt lat="47.84551" lon="-0.90594">
        <ele>65.1</ele>
        <time>2020-12-20T11:21:06Z</time>
      </trkpt>
      <trkpt lat="47.84551" lon="-0.90599">
        <ele>65.2</ele>
        <time>2020-12-20T11:21:07Z</time>
      </trkpt>
      <trkpt lat="47.84552" lon="-0.90605">
        <ele>65.3</ele>
        <time>2020-12-20T11:21:08Z</time>
      </trkpt>
      <trkpt lat="47.84552" lon="-0.90611">
        <ele>65.5</ele>
        <time>2020-12-20T11:21:09Z</time>
      </trkpt>
      <trkpt lat="47.84552" lon="-0.90616">
        <ele>65.6</ele>
        <time>2020-12-20T11:21:10Z</time>
      </trkpt>
      <trkpt lat="47.84552" lon="-0.90622">
        <ele>65.8</ele>
        <time>2020-12-20T11:21:11Z</time>
      </trkpt>
      <trkpt lat="47.84553" lon="-0.90628">
        <ele>65.9</ele>
        <time>2020-12-20T11:21:12Z</time>
      </trkpt>
      <trkpt lat="47.84553" lon="-0.90633">
        <ele>66.1</ele>
        <time>2020-12-20T11:21:13Z</time>
      </trkpt>
      <trkpt lat="47.84553" lon="-0.90639">
        <ele>66.2</ele>
        <time>2020-12-20T11:21:14Z</time>
      </trkpt>
      <trkpt lat="47.84554" lon="-0.90645">
        <ele>66.4</ele>
        <time>2020-12-20T11:21:15Z</time>
      </trkpt>
      <trkpt lat="47.84554" lon="-0.9065">
        <ele>66.5</ele>
        <time>2020-12-20T11:21:16Z</time>
      </trkpt>
      <trkpt lat="47.84554" lon="-0.90656">
        <ele>66.7</ele>
        <time>2020-12-20T11:21:17Z</time>
      </trkpt>
      <trkpt lat="47.84554" lon="-0.90662">
        <ele>66.9</ele>
        <time>2020-12-20T11:21:18Z</time>
      </trkpt>
      <trkpt lat="47.84554" lon="-0.90668">
        <ele>67</ele>
        <time>2020-12-20T11:21:19Z</time>
      </trkpt>
      <trkpt lat="47.84554" lon="-0.90673">
        <ele>67.1</ele>
        <time>2020-12-20T11:21:20Z</time>
      </trkpt>
      <trkpt lat="47.84555" lon="-0.90679">
        <ele>67.1</ele>
        <time>2020-12-20T11:21:21Z</time>
      </trkpt>
      <trkpt lat="47.84555" lon="-0.90684">
        <ele>67.2</ele>
        <time>2020-12-20T11:21:22Z</time>
      </trkpt>
      <trkpt lat="47.84555" lon="-0.9069">
        <ele>67.3</ele>
        <time>2020-12-20T11:21:23Z</time>
      </trkpt>
      <trkpt lat="47.84555" lon="-0.90696">
        <ele>67.4</ele>
        <time>2020-12-20T11:21:24Z</time>
      </trkpt>
      <trkpt lat="47.84556" lon="-0.90703">
        <ele>67.4</ele>
        <time>2020-12-20T11:21:25Z</time>
      </trkpt>
      <trkpt lat="47.84556" lon="-0.90707">
        <ele>67.5</ele>
        <time>2020-12-20T11:21:26Z</time>
      </trkpt>
      <trkpt lat="47.84556" lon="-0.90713">
        <ele>67.6</ele>
        <time>2020-12-20T11:21:27Z</time>
      </trkpt>
      <trkpt lat="47.84556" lon="-0.90719">
        <ele>67.6</ele>
        <time>2020-12-20T11:21:28Z</time>
      </trkpt>
      <trkpt lat="47.84556" lon="-0.90724">
        <ele>67.7</ele>
        <time>2020-12-20T11:21:29Z</time>
      </trkpt>
      <trkpt lat="47.84556" lon="-0.9073">
        <ele>67.8</ele>
        <time>2020-12-20T11:21:30Z</time>
      </trkpt>
      <trkpt lat="47.84557" lon="-0.90736">
        <ele>67.8</ele>
        <time>2020-12-20T11:21:31Z</time>
      </trkpt>
      <trkpt lat="47.84557" lon="-0.90741">
        <ele>67.9</ele>
        <time>2020-12-20T11:21:32Z</time>
      </trkpt>
      <trkpt lat="47.84557" lon="-0.90748">
        <ele>68</ele>
        <time>2020-12-20T11:21:33Z</time>
      </trkpt>
      <trkpt lat="47.84558" lon="-0.90752">
        <ele>68</ele>
        <time>2020-12-20T11:21:34Z</time>
      </trkpt>
      <trkpt lat="47.84558" lon="-0.90757">
        <ele>68.1</ele>
        <time>2020-12-20T11:21:35Z</time>
      </trkpt>
      <trkpt lat="47.84558" lon="-0.90764">
        <ele>68.3</ele>
        <time>2020-12-20T11:21:36Z</time>
      </trkpt>
      <trkpt lat="47.84558" lon="-0.90769">
        <ele>68.4</ele>
        <time>2020-12-20T11:21:37Z</time>
      </trkpt>
      <trkpt lat="47.84559" lon="-0.90774">
        <ele>68.5</ele>
        <time>2020-12-20T11:21:38Z</time>
      </trkpt>
      <trkpt lat="47.84559" lon="-0.90779">
        <ele>68.6</ele>
        <time>2020-12-20T11:21:39Z</time>
      </trkpt>
      <trkpt lat="47.84559" lon="-0.90783">
        <ele>68.7</ele>
        <time>2020-12-20T11:21:40Z</time>
      </trkpt>
      <trkpt lat="47.84559" lon="-0.90788">
        <ele>68.8</ele>
        <time>2020-12-20T11:21:41Z</time>
      </trkpt>
      <trkpt lat="47.84559" lon="-0.90793">
        <ele>68.9</ele>
        <time>2020-12-20T11:21:42Z</time>
      </trkpt>
      <trkpt lat="47.8456" lon="-0.90799">
        <ele>69</ele>
        <time>2020-12-20T11:21:43Z</time>
      </trkpt>
      <trkpt lat="47.8456" lon="-0.90804">
        <ele>69.1</ele>
        <time>2020-12-20T11:21:44Z</time>
      </trkpt>
      <trkpt lat="47.8456" lon="-0.90809">
        <ele>69.2</ele>
        <time>2020-12-20T11:21:45Z</time>
      </trkpt>
      <trkpt lat="47.8456" lon="-0.90814">
        <ele>69.3</ele>
        <time>2020-12-20T11:21:46Z</time>
      </trkpt>
      <trkpt lat="47.8456" lon="-0.9082">
        <ele>69.4</ele>
        <time>2020-12-20T11:21:47Z</time>
      </trkpt>
      <trkpt lat="47.84561" lon="-0.90825">
        <ele>69.6</ele>
        <time>2020-12-20T11:21:48Z</time>
      </trkpt>
      <trkpt lat="47.84561" lon="-0.90831">
        <ele>69.7</ele>
        <time>2020-12-20T11:21:49Z</time>
      </trkpt>
      <trkpt lat="47.84562" lon="-0.90837">
        <ele>69.7</ele>
        <time>2020-12-20T11:21:50Z</time>
      </trkpt>
      <trkpt lat="47.84562" lon="-0.90842">
        <ele>69.7</ele>
        <time>2020-12-20T11:21:51Z</time>
      </trkpt>
      <trkpt lat="47.84562" lon="-0.90847">
        <ele>69.7</ele>
        <time>2020-12-20T11:21:52Z</time>
      </trkpt>
      <trkpt lat="47.84563" lon="-0.90854">
        <ele>69.6</ele>
        <time>2020-12-20T11:21:53Z</time>
      </trkpt>
      <trkpt lat="47.84563" lon="-0.90859">
        <ele>69.6</ele>
        <time>2020-12-20T11:21:54Z</time>
      </trkpt>
      <trkpt lat="47.84563" lon="-0.90864">
        <ele>69.6</ele>
        <time>2020-12-20T11:21:55Z</time>
      </trkpt>
      <trkpt lat="47.84563" lon="-0.9087">
        <ele>69.5</ele>
        <time>2020-12-20T11:21:56Z</time>
      </trkpt>
      <trkpt lat="47.84563" lon="-0.90877">
        <ele>69.5</ele>
        <time>2020-12-20T11:21:57Z</time>
      </trkpt>
      <trkpt lat="47.84564" lon="-0.90883">
        <ele>69.4</ele>
        <time>2020-12-20T11:21:58Z</time>
      </trkpt>
      <trkpt lat="47.84564" lon="-0.90889">
        <ele>69.4</ele>
        <time>2020-12-20T11:21:59Z</time>
      </trkpt>
      <trkpt lat="47.84564" lon="-0.90895">
        <ele>69.4</ele>
        <time>2020-12-20T11:22:00Z</time>
      </trkpt>
      <trkpt lat="47.84564" lon="-0.90901">
        <ele>69.3</ele>
        <time>2020-12-20T11:22:01Z</time>
      </trkpt>
      <trkpt lat="47.84564" lon="-0.90908">
        <ele>69.3</ele>
        <time>2020-12-20T11:22:02Z</time>
      </trkpt>
      <trkpt lat="47.84564" lon="-0.90914">
        <ele>69.2</ele>
        <time>2020-12-20T11:22:03Z</time>
      </trkpt>
      <trkpt lat="47.84564" lon="-0.9092">
        <ele>69.3</ele>
        <time>2020-12-20T11:22:04Z</time>
      </trkpt>
      <trkpt lat="47.84565" lon="-0.90926">
        <ele>69.4</ele>
        <time>2020-12-20T11:22:05Z</time>
      </trkpt>
      <trkpt lat="47.84565" lon="-0.90934">
        <ele>69.5</ele>
        <time>2020-12-20T11:22:06Z</time>
      </trkpt>
      <trkpt lat="47.84565" lon="-0.9094">
        <ele>69.6</ele>
        <time>2020-12-20T11:22:07Z</time>
      </trkpt>
      <trkpt lat="47.84565" lon="-0.90946">
        <ele>69.6</ele>
        <time>2020-12-20T11:22:08Z</time>
      </trkpt>
      <trkpt lat="47.84566" lon="-0.90951">
        <ele>69.7</ele>
        <time>2020-12-20T11:22:09Z</time>
      </trkpt>
      <trkpt lat="47.84566" lon="-0.90958">
        <ele>69.8</ele>
        <time>2020-12-20T11:22:10Z</time>
      </trkpt>
      <trkpt lat="47.84566" lon="-0.90965">
        <ele>69.9</ele>
        <time>2020-12-20T11:22:11Z</time>
      </trkpt>
      <trkpt lat="47.84566" lon="-0.90971">
        <ele>70</ele>
        <time>2020-12-20T11:22:12Z</time>
      </trkpt>
      <trkpt lat="47.84567" lon="-0.90976">
        <ele>70</ele>
        <time>2020-12-20T11:22:13Z</time>
      </trkpt>
      <trkpt lat="47.84568" lon="-0.9099">
        <ele>70.2</ele>
        <time>2020-12-20T11:22:15Z</time>
      </trkpt>
      <trkpt lat="47.84568" lon="-0.90996">
        <ele>70.3</ele>
        <time>2020-12-20T11:22:16Z</time>
      </trkpt>
      <trkpt lat="47.84568" lon="-0.91001">
        <ele>70.4</ele>
        <time>2020-12-20T11:22:17Z</time>
      </trkpt>
      <trkpt lat="47.84569" lon="-0.91008">
        <ele>70.4</ele>
        <time>2020-12-20T11:22:18Z</time>
      </trkpt>
      <trkpt lat="47.84569" lon="-0.91014">
        <ele>70.5</ele>
        <time>2020-12-20T11:22:19Z</time>
      </trkpt>
      <trkpt lat="47.84569" lon="-0.9102">
        <ele>70.6</ele>
        <time>2020-12-20T11:22:20Z</time>
      </trkpt>
      <trkpt lat="47.84569" lon="-0.91027">
        <ele>70.7</ele>
        <time>2020-12-20T11:22:21Z</time>
      </trkpt>
      <trkpt lat="47.84571" lon="-0.91033">
        <ele>70.7</ele>
        <time>2020-12-20T11:22:22Z</time>
      </trkpt>
      <trkpt lat="47.84573" lon="-0.91038">
        <ele>70.7</ele>
        <time>2020-12-20T11:22:23Z</time>
      </trkpt>
      <trkpt lat="47.84577" lon="-0.91042">
        <ele>70.7</ele>
        <time>2020-12-20T11:22:24Z</time>
      </trkpt>
      <trkpt lat="47.84582" lon="-0.91045">
        <ele>70.6</ele>
        <time>2020-12-20T11:22:25Z</time>
      </trkpt>
      <trkpt lat="47.84587" lon="-0.91045">
        <ele>70.5</ele>
        <time>2020-12-20T11:22:26Z</time>
      </trkpt>
      <trkpt lat="47.84593" lon="-0.91044">
        <ele>70.4</ele>
        <time>2020-12-20T11:22:27Z</time>
      </trkpt>
      <trkpt lat="47.84598" lon="-0.91042">
        <ele>70.2</ele>
        <time>2020-12-20T11:22:28Z</time>
      </trkpt>
      <trkpt lat="47.84603" lon="-0.9104">
        <ele>70.1</ele>
        <time>2020-12-20T11:22:29Z</time>
      </trkpt>
      <trkpt lat="47.84608" lon="-0.91038">
        <ele>70</ele>
        <time>2020-12-20T11:22:30Z</time>
      </trkpt>
      <trkpt lat="47.84613" lon="-0.91036">
        <ele>69.9</ele>
        <time>2020-12-20T11:22:31Z</time>
      </trkpt>
      <trkpt lat="47.84618" lon="-0.91034">
        <ele>69.7</ele>
        <time>2020-12-20T11:22:32Z</time>
      </trkpt>
      <trkpt lat="47.84623" lon="-0.91032">
        <ele>69.6</ele>
        <time>2020-12-20T11:22:33Z</time>
      </trkpt>
      <trkpt lat="47.84628" lon="-0.91031">
        <ele>69.5</ele>
        <time>2020-12-20T11:22:34Z</time>
      </trkpt>
      <trkpt lat="47.84633" lon="-0.9103">
        <ele>69.4</ele>
        <time>2020-12-20T11:22:35Z</time>
      </trkpt>
      <trkpt lat="47.84639" lon="-0.91028">
        <ele>69.2</ele>
        <time>2020-12-20T11:22:36Z</time>
      </trkpt>
      <trkpt lat="47.84644" lon="-0.91026">
        <ele>69.1</ele>
        <time>2020-12-20T11:22:37Z</time>
      </trkpt>
      <trkpt lat="47.84649" lon="-0.91024">
        <ele>68.9</ele>
        <time>2020-12-20T11:22:38Z</time>
      </trkpt>
      <trkpt lat="47.84654" lon="-0.91022">
        <ele>68.8</ele>
        <time>2020-12-20T11:22:39Z</time>
      </trkpt>
      <trkpt lat="47.8466" lon="-0.9102">
        <ele>68.6</ele>
        <time>2020-12-20T11:22:40Z</time>
      </trkpt>
      <trkpt lat="47.84666" lon="-0.91018">
        <ele>68.4</ele>
        <time>2020-12-20T11:22:41Z</time>
      </trkpt>
      <trkpt lat="47.84671" lon="-0.91016">
        <ele>68.3</ele>
        <time>2020-12-20T11:22:42Z</time>
      </trkpt>
      <trkpt lat="47.84677" lon="-0.91014">
        <ele>68.2</ele>
        <time>2020-12-20T11:22:43Z</time>
      </trkpt>
      <trkpt lat="47.84682" lon="-0.91012">
        <ele>68.1</ele>
        <time>2020-12-20T11:22:44Z</time>
      </trkpt>
      <trkpt lat="47.84688" lon="-0.9101">
        <ele>67.9</ele>
        <time>2020-12-20T11:22:45Z</time>
      </trkpt>
      <trkpt lat="47.84693" lon="-0.91008">
        <ele>67.8</ele>
        <time>2020-12-20T11:22:46Z</time>
      </trkpt>
      <trkpt lat="47.84699" lon="-0.91006">
        <ele>67.7</ele>
        <time>2020-12-20T11:22:47Z</time>
      </trkpt>
      <trkpt lat="47.84704" lon="-0.91003">
        <ele>67.6</ele>
        <time>2020-12-20T11:22:48Z</time>
      </trkpt>
      <trkpt lat="47.8471" lon="-0.91002">
        <ele>67.5</ele>
        <time>2020-12-20T11:22:49Z</time>
      </trkpt>
      <trkpt lat="47.84715" lon="-0.91">
        <ele>67.4</ele>
        <time>2020-12-20T11:22:50Z</time>
      </trkpt>
      <trkpt lat="47.84721" lon="-0.90997">
        <ele>67.3</ele>
        <time>2020-12-20T11:22:51Z</time>
      </trkpt>
      <trkpt lat="47.84726" lon="-0.90994">
        <ele>67.3</ele>
        <time>2020-12-20T11:22:52Z</time>
      </trkpt>
      <trkpt lat="47.84732" lon="-0.90991">
        <ele>67.2</ele>
        <time>2020-12-20T11:22:53Z</time>
      </trkpt>
      <trkpt lat="47.84737" lon="-0.90987">
        <ele>67.2</ele>
        <time>2020-12-20T11:22:54Z</time>
      </trkpt>
      <trkpt lat="47.84741" lon="-0.90984">
        <ele>67.1</ele>
        <time>2020-12-20T11:22:55Z</time>
      </trkpt>
      <trkpt lat="47.84747" lon="-0.90981">
        <ele>67</ele>
        <time>2020-12-20T11:22:56Z</time>
      </trkpt>
      <trkpt lat="47.84752" lon="-0.90977">
        <ele>66.9</ele>
        <time>2020-12-20T11:22:57Z</time>
      </trkpt>
      <trkpt lat="47.84757" lon="-0.90973">
        <ele>66.7</ele>
        <time>2020-12-20T11:22:58Z</time>
      </trkpt>
      <trkpt lat="47.84764" lon="-0.90971">
        <ele>66.4</ele>
        <time>2020-12-20T11:22:59Z</time>
      </trkpt>
      <trkpt lat="47.84771" lon="-0.90972">
        <ele>66.1</ele>
        <time>2020-12-20T11:23:00Z</time>
      </trkpt>
      <trkpt lat="47.84777" lon="-0.90974">
        <ele>65.8</ele>
        <time>2020-12-20T11:23:01Z</time>
      </trkpt>
      <trkpt lat="47.84783" lon="-0.90978">
        <ele>65.5</ele>
        <time>2020-12-20T11:23:02Z</time>
      </trkpt>
      <trkpt lat="47.84788" lon="-0.90983">
        <ele>65.3</ele>
        <time>2020-12-20T11:23:03Z</time>
      </trkpt>
      <trkpt lat="47.84794" lon="-0.90989">
        <ele>65</ele>
        <time>2020-12-20T11:23:04Z</time>
      </trkpt>
      <trkpt lat="47.84799" lon="-0.90995">
        <ele>64.7</ele>
        <time>2020-12-20T11:23:05Z</time>
      </trkpt>
      <trkpt lat="47.84803" lon="-0.91001">
        <ele>64.5</ele>
        <time>2020-12-20T11:23:06Z</time>
      </trkpt>
      <trkpt lat="47.84808" lon="-0.91007">
        <ele>64.3</ele>
        <time>2020-12-20T11:23:07Z</time>
      </trkpt>
      <trkpt lat="47.84812" lon="-0.91014">
        <ele>64.1</ele>
        <time>2020-12-20T11:23:08Z</time>
      </trkpt>
      <trkpt lat="47.84817" lon="-0.9102">
        <ele>64</ele>
        <time>2020-12-20T11:23:09Z</time>
      </trkpt>
      <trkpt lat="47.84822" lon="-0.91026">
        <ele>63.8</ele>
        <time>2020-12-20T11:23:10Z</time>
      </trkpt>
      <trkpt lat="47.84826" lon="-0.91032">
        <ele>63.7</ele>
        <time>2020-12-20T11:23:11Z</time>
      </trkpt>
      <trkpt lat="47.84832" lon="-0.91039">
        <ele>63.5</ele>
        <time>2020-12-20T11:23:12Z</time>
      </trkpt>
      <trkpt lat="47.84837" lon="-0.91046">
        <ele>63.4</ele>
        <time>2020-12-20T11:23:13Z</time>
      </trkpt>
      <trkpt lat="47.84842" lon="-0.91053">
        <ele>63.3</ele>
        <time>2020-12-20T11:23:14Z</time>
      </trkpt>
      <trkpt lat="47.84847" lon="-0.91059">
        <ele>63.2</ele>
        <time>2020-12-20T11:23:15Z</time>
      </trkpt>
      <trkpt lat="47.84851" lon="-0.91064">
        <ele>63.1</ele>
        <time>2020-12-20T11:23:16Z</time>
      </trkpt>
      <trkpt lat="47.84855" lon="-0.9107">
        <ele>63.1</ele>
        <time>2020-12-20T11:23:17Z</time>
      </trkpt>
      <trkpt lat="47.84857" lon="-0.91076">
        <ele>63.1</ele>
        <time>2020-12-20T11:23:18Z</time>
      </trkpt>
      <trkpt lat="47.84857" lon="-0.91083">
        <ele>63.1</ele>
        <time>2020-12-20T11:23:19Z</time>
      </trkpt>
      <trkpt lat="47.84856" lon="-0.91091">
        <ele>63.1</ele>
        <time>2020-12-20T11:23:20Z</time>
      </trkpt>
      <trkpt lat="47.84854" lon="-0.91099">
        <ele>63.1</ele>
        <time>2020-12-20T11:23:21Z</time>
      </trkpt>
      <trkpt lat="47.84854" lon="-0.91107">
        <ele>63</ele>
        <time>2020-12-20T11:23:22Z</time>
      </trkpt>
      <trkpt lat="47.84853" lon="-0.91115">
        <ele>63</ele>
        <time>2020-12-20T11:23:23Z</time>
      </trkpt>
      <trkpt lat="47.84852" lon="-0.91123">
        <ele>63</ele>
        <time>2020-12-20T11:23:24Z</time>
      </trkpt>
      <trkpt lat="47.8485" lon="-0.91132">
        <ele>62.9</ele>
        <time>2020-12-20T11:23:25Z</time>
      </trkpt>
      <trkpt lat="47.84848" lon="-0.9114">
        <ele>62.9</ele>
        <time>2020-12-20T11:23:26Z</time>
      </trkpt>
      <trkpt lat="47.84847" lon="-0.91149">
        <ele>62.8</ele>
        <time>2020-12-20T11:23:27Z</time>
      </trkpt>
      <trkpt lat="47.84846" lon="-0.91156">
        <ele>62.8</ele>
        <time>2020-12-20T11:23:28Z</time>
      </trkpt>
      <trkpt lat="47.84843" lon="-0.91164">
        <ele>62.8</ele>
        <time>2020-12-20T11:23:29Z</time>
      </trkpt>
      <trkpt lat="47.8484" lon="-0.91173">
        <ele>62.8</ele>
        <time>2020-12-20T11:23:30Z</time>
      </trkpt>
      <trkpt lat="47.84839" lon="-0.91182">
        <ele>62.9</ele>
        <time>2020-12-20T11:23:31Z</time>
      </trkpt>
      <trkpt lat="47.84839" lon="-0.9119">
        <ele>62.9</ele>
        <time>2020-12-20T11:23:32Z</time>
      </trkpt>
      <trkpt lat="47.84839" lon="-0.91199">
        <ele>62.9</ele>
        <time>2020-12-20T11:23:33Z</time>
      </trkpt>
      <trkpt lat="47.84838" lon="-0.91207">
        <ele>62.9</ele>
        <time>2020-12-20T11:23:34Z</time>
      </trkpt>
      <trkpt lat="47.84838" lon="-0.91215">
        <ele>62.9</ele>
        <time>2020-12-20T11:23:35Z</time>
      </trkpt>
      <trkpt lat="47.84836" lon="-0.91224">
        <ele>62.9</ele>
        <time>2020-12-20T11:23:36Z</time>
      </trkpt>
      <trkpt lat="47.84833" lon="-0.91229">
        <ele>63</ele>
        <time>2020-12-20T11:23:37Z</time>
      </trkpt>
      <trkpt lat="47.8483" lon="-0.91235">
        <ele>63.2</ele>
        <time>2020-12-20T11:23:38Z</time>
      </trkpt>
      <trkpt lat="47.84826" lon="-0.91241">
        <ele>63.4</ele>
        <time>2020-12-20T11:23:39Z</time>
      </trkpt>
      <trkpt lat="47.84823" lon="-0.91246">
        <ele>63.5</ele>
        <time>2020-12-20T11:23:40Z</time>
      </trkpt>
      <trkpt lat="47.84819" lon="-0.9125">
        <ele>63.7</ele>
        <time>2020-12-20T11:23:41Z</time>
      </trkpt>
      <trkpt lat="47.84815" lon="-0.91253">
        <ele>63.9</ele>
        <time>2020-12-20T11:23:42Z</time>
      </trkpt>
      <trkpt lat="47.84813" lon="-0.91256">
        <ele>64</ele>
        <time>2020-12-20T11:23:43Z</time>
      </trkpt>
      <trkpt lat="47.8481" lon="-0.91259">
        <ele>64.2</ele>
        <time>2020-12-20T11:23:44Z</time>
      </trkpt>
      <trkpt lat="47.84807" lon="-0.91262">
        <ele>64.4</ele>
        <time>2020-12-20T11:23:45Z</time>
      </trkpt>
      <trkpt lat="47.84804" lon="-0.91266">
        <ele>64.6</ele>
        <time>2020-12-20T11:23:46Z</time>
      </trkpt>
      <trkpt lat="47.84801" lon="-0.91269">
        <ele>64.8</ele>
        <time>2020-12-20T11:23:47Z</time>
      </trkpt>
      <trkpt lat="47.84798" lon="-0.91272">
        <ele>65</ele>
        <time>2020-12-20T11:23:48Z</time>
      </trkpt>
      <trkpt lat="47.84796" lon="-0.91274">
        <ele>65.1</ele>
        <time>2020-12-20T11:23:49Z</time>
      </trkpt>
      <trkpt lat="47.84793" lon="-0.91276">
        <ele>65.2</ele>
        <time>2020-12-20T11:23:50Z</time>
      </trkpt>
      <trkpt lat="47.84791" lon="-0.91277">
        <ele>65.4</ele>
        <time>2020-12-20T11:23:51Z</time>
      </trkpt>
      <trkpt lat="47.84788" lon="-0.91279">
        <ele>65.5</ele>
        <time>2020-12-20T11:23:52Z</time>
      </trkpt>
      <trkpt lat="47.84786" lon="-0.91281">
        <ele>65.6</ele>
        <time>2020-12-20T11:23:53Z</time>
      </trkpt>
      <trkpt lat="47.84782" lon="-0.91282">
        <ele>65.8</ele>
        <time>2020-12-20T11:23:54Z</time>
      </trkpt>
      <trkpt lat="47.84779" lon="-0.91283">
        <ele>66</ele>
        <time>2020-12-20T11:23:55Z</time>
      </trkpt>
      <trkpt lat="47.84775" lon="-0.91284">
        <ele>66.2</ele>
        <time>2020-12-20T11:23:56Z</time>
      </trkpt>
      <trkpt lat="47.84771" lon="-0.91286">
        <ele>66.4</ele>
        <time>2020-12-20T11:23:57Z</time>
      </trkpt>
      <trkpt lat="47.84768" lon="-0.91288">
        <ele>66.6</ele>
        <time>2020-12-20T11:23:58Z</time>
      </trkpt>
      <trkpt lat="47.84765" lon="-0.91291">
        <ele>66.8</ele>
        <time>2020-12-20T11:23:59Z</time>
      </trkpt>
      <trkpt lat="47.84761" lon="-0.91294">
        <ele>67</ele>
        <time>2020-12-20T11:24:00Z</time>
      </trkpt>
      <trkpt lat="47.84758" lon="-0.91297">
        <ele>67.2</ele>
        <time>2020-12-20T11:24:01Z</time>
      </trkpt>
      <trkpt lat="47.84754" lon="-0.913">
        <ele>67.4</ele>
        <time>2020-12-20T11:24:02Z</time>
      </trkpt>
      <trkpt lat="47.8475" lon="-0.91303">
        <ele>67.6</ele>
        <time>2020-12-20T11:24:03Z</time>
      </trkpt>
      <trkpt lat="47.84746" lon="-0.91306">
        <ele>67.9</ele>
        <time>2020-12-20T11:24:04Z</time>
      </trkpt>
      <trkpt lat="47.84742" lon="-0.91308">
        <ele>68.1</ele>
        <time>2020-12-20T11:24:05Z</time>
      </trkpt>
      <trkpt lat="47.8474" lon="-0.91311">
        <ele>68.2</ele>
        <time>2020-12-20T11:24:06Z</time>
      </trkpt>
      <trkpt lat="47.84737" lon="-0.91313">
        <ele>68.4</ele>
        <time>2020-12-20T11:24:07Z</time>
      </trkpt>
      <trkpt lat="47.84734" lon="-0.91315">
        <ele>68.5</ele>
        <time>2020-12-20T11:24:08Z</time>
      </trkpt>
      <trkpt lat="47.8473" lon="-0.91317">
        <ele>68.8</ele>
        <time>2020-12-20T11:24:09Z</time>
      </trkpt>
      <trkpt lat="47.84726" lon="-0.9132">
        <ele>69</ele>
        <time>2020-12-20T11:24:10Z</time>
      </trkpt>
      <trkpt lat="47.84722" lon="-0.91322">
        <ele>69.2</ele>
        <time>2020-12-20T11:24:11Z</time>
      </trkpt>
      <trkpt lat="47.84719" lon="-0.91325">
        <ele>69.4</ele>
        <time>2020-12-20T11:24:12Z</time>
      </trkpt>
      <trkpt lat="47.84716" lon="-0.91327">
        <ele>69.6</ele>
        <time>2020-12-20T11:24:13Z</time>
      </trkpt>
      <trkpt lat="47.84711" lon="-0.91329">
        <ele>69.8</ele>
        <time>2020-12-20T11:24:14Z</time>
      </trkpt>
      <trkpt lat="47.84707" lon="-0.91333">
        <ele>70.1</ele>
        <time>2020-12-20T11:24:15Z</time>
      </trkpt>
      <trkpt lat="47.84704" lon="-0.91336">
        <ele>70.2</ele>
        <time>2020-12-20T11:24:16Z</time>
      </trkpt>
      <trkpt lat="47.84701" lon="-0.91339">
        <ele>70.3</ele>
        <time>2020-12-20T11:24:17Z</time>
      </trkpt>
      <trkpt lat="47.84698" lon="-0.91342">
        <ele>70.4</ele>
        <time>2020-12-20T11:24:18Z</time>
      </trkpt>
      <trkpt lat="47.84695" lon="-0.91345">
        <ele>70.5</ele>
        <time>2020-12-20T11:24:19Z</time>
      </trkpt>
      <trkpt lat="47.84692" lon="-0.91349">
        <ele>70.6</ele>
        <time>2020-12-20T11:24:20Z</time>
      </trkpt>
      <trkpt lat="47.84689" lon="-0.91352">
        <ele>70.7</ele>
        <time>2020-12-20T11:24:21Z</time>
      </trkpt>
      <trkpt lat="47.84686" lon="-0.91354">
        <ele>70.8</ele>
        <time>2020-12-20T11:24:22Z</time>
      </trkpt>
      <trkpt lat="47.84683" lon="-0.91356">
        <ele>70.9</ele>
        <time>2020-12-20T11:24:23Z</time>
      </trkpt>
      <trkpt lat="47.8468" lon="-0.91359">
        <ele>71.1</ele>
        <time>2020-12-20T11:24:24Z</time>
      </trkpt>
      <trkpt lat="47.84677" lon="-0.91361">
        <ele>71.2</ele>
        <time>2020-12-20T11:24:25Z</time>
      </trkpt>
      <trkpt lat="47.84674" lon="-0.91363">
        <ele>71.3</ele>
        <time>2020-12-20T11:24:26Z</time>
      </trkpt>
      <trkpt lat="47.84671" lon="-0.91365">
        <ele>71.4</ele>
        <time>2020-12-20T11:24:27Z</time>
      </trkpt>
      <trkpt lat="47.84668" lon="-0.91367">
        <ele>71.5</ele>
        <time>2020-12-20T11:24:28Z</time>
      </trkpt>
      <trkpt lat="47.84664" lon="-0.91368">
        <ele>71.6</ele>
        <time>2020-12-20T11:24:29Z</time>
      </trkpt>
      <trkpt lat="47.84661" lon="-0.9137">
        <ele>71.7</ele>
        <time>2020-12-20T11:24:30Z</time>
      </trkpt>
      <trkpt lat="47.84658" lon="-0.91371">
        <ele>71.7</ele>
        <time>2020-12-20T11:24:31Z</time>
      </trkpt>
      <trkpt lat="47.84655" lon="-0.91372">
        <ele>71.8</ele>
        <time>2020-12-20T11:24:32Z</time>
      </trkpt>
      <trkpt lat="47.84652" lon="-0.91374">
        <ele>71.9</ele>
        <time>2020-12-20T11:24:33Z</time>
      </trkpt>
      <trkpt lat="47.84649" lon="-0.91375">
        <ele>71.9</ele>
        <time>2020-12-20T11:24:34Z</time>
      </trkpt>
      <trkpt lat="47.84646" lon="-0.91375">
        <ele>72</ele>
        <time>2020-12-20T11:24:35Z</time>
      </trkpt>
      <trkpt lat="47.84643" lon="-0.91375">
        <ele>72.1</ele>
        <time>2020-12-20T11:24:36Z</time>
      </trkpt>
      <trkpt lat="47.84641" lon="-0.91375">
        <ele>72.1</ele>
        <time>2020-12-20T11:24:37Z</time>
      </trkpt>
      <trkpt lat="47.84638" lon="-0.91376">
        <ele>72.2</ele>
        <time>2020-12-20T11:24:38Z</time>
      </trkpt>
      <trkpt lat="47.84636" lon="-0.91377">
        <ele>72.2</ele>
        <time>2020-12-20T11:24:39Z</time>
      </trkpt>
      <trkpt lat="47.84633" lon="-0.91378">
        <ele>72.3</ele>
        <time>2020-12-20T11:24:40Z</time>
      </trkpt>
      <trkpt lat="47.8463" lon="-0.9138">
        <ele>72.4</ele>
        <time>2020-12-20T11:24:41Z</time>
      </trkpt>
      <trkpt lat="47.84627" lon="-0.91382">
        <ele>72.4</ele>
        <time>2020-12-20T11:24:42Z</time>
      </trkpt>
      <trkpt lat="47.84624" lon="-0.91385">
        <ele>72.5</ele>
        <time>2020-12-20T11:24:43Z</time>
      </trkpt>
      <trkpt lat="47.84621" lon="-0.91387">
        <ele>72.6</ele>
        <time>2020-12-20T11:24:44Z</time>
      </trkpt>
      <trkpt lat="47.84619" lon="-0.9139">
        <ele>72.7</ele>
        <time>2020-12-20T11:24:45Z</time>
      </trkpt>
      <trkpt lat="47.84616" lon="-0.91393">
        <ele>72.8</ele>
        <time>2020-12-20T11:24:46Z</time>
      </trkpt>
      <trkpt lat="47.84613" lon="-0.91395">
        <ele>72.9</ele>
        <time>2020-12-20T11:24:47Z</time>
      </trkpt>
      <trkpt lat="47.84611" lon="-0.91398">
        <ele>72.9</ele>
        <time>2020-12-20T11:24:48Z</time>
      </trkpt>
      <trkpt lat="47.84609" lon="-0.91401">
        <ele>73</ele>
        <time>2020-12-20T11:24:49Z</time>
      </trkpt>
      <trkpt lat="47.84606" lon="-0.91403">
        <ele>73.1</ele>
        <time>2020-12-20T11:24:50Z</time>
      </trkpt>
      <trkpt lat="47.84604" lon="-0.91405">
        <ele>73.2</ele>
        <time>2020-12-20T11:24:51Z</time>
      </trkpt>
      <trkpt lat="47.84602" lon="-0.91408">
        <ele>73.3</ele>
        <time>2020-12-20T11:24:52Z</time>
      </trkpt>
      <trkpt lat="47.846" lon="-0.9141">
        <ele>73.4</ele>
        <time>2020-12-20T11:24:53Z</time>
      </trkpt>
      <trkpt lat="47.84598" lon="-0.91413">
        <ele>73.4</ele>
        <time>2020-12-20T11:24:54Z</time>
      </trkpt>
      <trkpt lat="47.84596" lon="-0.91415">
        <ele>73.5</ele>
        <time>2020-12-20T11:24:55Z</time>
      </trkpt>
      <trkpt lat="47.84595" lon="-0.91416">
        <ele>73.6</ele>
        <time>2020-12-20T11:24:56Z</time>
      </trkpt>
      <trkpt lat="47.84594" lon="-0.91418">
        <ele>73.6</ele>
        <time>2020-12-20T11:24:57Z</time>
      </trkpt>
      <trkpt lat="47.84592" lon="-0.9142">
        <ele>73.7</ele>
        <time>2020-12-20T11:24:58Z</time>
      </trkpt>
      <trkpt lat="47.84591" lon="-0.91424">
        <ele>73.8</ele>
        <time>2020-12-20T11:24:59Z</time>
      </trkpt>
      <trkpt lat="47.8459" lon="-0.91428">
        <ele>73.9</ele>
        <time>2020-12-20T11:25:00Z</time>
      </trkpt>
      <trkpt lat="47.8459" lon="-0.91433">
        <ele>73.9</ele>
        <time>2020-12-20T11:25:01Z</time>
      </trkpt>
      <trkpt lat="47.84589" lon="-0.91438">
        <ele>74</ele>
        <time>2020-12-20T11:25:02Z</time>
      </trkpt>
      <trkpt lat="47.84589" lon="-0.91443">
        <ele>74.1</ele>
        <time>2020-12-20T11:25:03Z</time>
      </trkpt>
      <trkpt lat="47.84589" lon="-0.91448">
        <ele>74.1</ele>
        <time>2020-12-20T11:25:04Z</time>
      </trkpt>
      <trkpt lat="47.84589" lon="-0.91453">
        <ele>74.2</ele>
        <time>2020-12-20T11:25:05Z</time>
      </trkpt>
      <trkpt lat="47.84588" lon="-0.91459">
        <ele>74.3</ele>
        <time>2020-12-20T11:25:06Z</time>
      </trkpt>
      <trkpt lat="47.84588" lon="-0.91466">
        <ele>74.4</ele>
        <time>2020-12-20T11:25:07Z</time>
      </trkpt>
      <trkpt lat="47.84588" lon="-0.91472">
        <ele>74.5</ele>
        <time>2020-12-20T11:25:08Z</time>
      </trkpt>
      <trkpt lat="47.84588" lon="-0.91477">
        <ele>74.5</ele>
        <time>2020-12-20T11:25:09Z</time>
      </trkpt>
      <trkpt lat="47.84588" lon="-0.91483">
        <ele>74.6</ele>
        <time>2020-12-20T11:25:10Z</time>
      </trkpt>
      <trkpt lat="47.84588" lon="-0.91489">
        <ele>74.7</ele>
        <time>2020-12-20T11:25:11Z</time>
      </trkpt>
      <trkpt lat="47.84588" lon="-0.91494">
        <ele>74.7</ele>
        <time>2020-12-20T11:25:12Z</time>
      </trkpt>
      <trkpt lat="47.84587" lon="-0.915">
        <ele>74.8</ele>
        <time>2020-12-20T11:25:13Z</time>
      </trkpt>
      <trkpt lat="47.84588" lon="-0.91505">
        <ele>74.9</ele>
        <time>2020-12-20T11:25:14Z</time>
      </trkpt>
      <trkpt lat="47.84588" lon="-0.91511">
        <ele>75</ele>
        <time>2020-12-20T11:25:15Z</time>
      </trkpt>
      <trkpt lat="47.84588" lon="-0.91517">
        <ele>75.2</ele>
        <time>2020-12-20T11:25:16Z</time>
      </trkpt>
      <trkpt lat="47.84589" lon="-0.91523">
        <ele>75.3</ele>
        <time>2020-12-20T11:25:17Z</time>
      </trkpt>
      <trkpt lat="47.84589" lon="-0.91529">
        <ele>75.4</ele>
        <time>2020-12-20T11:25:18Z</time>
      </trkpt>
      <trkpt lat="47.8459" lon="-0.91535">
        <ele>75.6</ele>
        <time>2020-12-20T11:25:19Z</time>
      </trkpt>
      <trkpt lat="47.8459" lon="-0.9154">
        <ele>75.7</ele>
        <time>2020-12-20T11:25:20Z</time>
      </trkpt>
      <trkpt lat="47.8459" lon="-0.91546">
        <ele>75.8</ele>
        <time>2020-12-20T11:25:21Z</time>
      </trkpt>
      <trkpt lat="47.8459" lon="-0.91552">
        <ele>76</ele>
        <time>2020-12-20T11:25:22Z</time>
      </trkpt>
      <trkpt lat="47.84591" lon="-0.91558">
        <ele>76.1</ele>
        <time>2020-12-20T11:25:23Z</time>
      </trkpt>
      <trkpt lat="47.84591" lon="-0.91564">
        <ele>76.2</ele>
        <time>2020-12-20T11:25:24Z</time>
      </trkpt>
      <trkpt lat="47.84591" lon="-0.9157">
        <ele>76.4</ele>
        <time>2020-12-20T11:25:25Z</time>
      </trkpt>
      <trkpt lat="47.84591" lon="-0.91576">
        <ele>76.5</ele>
        <time>2020-12-20T11:25:26Z</time>
      </trkpt>
      <trkpt lat="47.84591" lon="-0.91588">
        <ele>76.7</ele>
        <time>2020-12-20T11:25:28Z</time>
      </trkpt>
      <trkpt lat="47.84592" lon="-0.91594">
        <ele>76.7</ele>
        <time>2020-12-20T11:25:29Z</time>
      </trkpt>
      <trkpt lat="47.84592" lon="-0.916">
        <ele>76.7</ele>
        <time>2020-12-20T11:25:30Z</time>
      </trkpt>
      <trkpt lat="47.84592" lon="-0.91606">
        <ele>76.7</ele>
        <time>2020-12-20T11:25:31Z</time>
      </trkpt>
      <trkpt lat="47.84592" lon="-0.91612">
        <ele>76.7</ele>
        <time>2020-12-20T11:25:32Z</time>
      </trkpt>
      <trkpt lat="47.84593" lon="-0.91618">
        <ele>76.7</ele>
        <time>2020-12-20T11:25:33Z</time>
      </trkpt>
      <trkpt lat="47.84593" lon="-0.91624">
        <ele>76.7</ele>
        <time>2020-12-20T11:25:34Z</time>
      </trkpt>
      <trkpt lat="47.84593" lon="-0.9163">
        <ele>76.7</ele>
        <time>2020-12-20T11:25:35Z</time>
      </trkpt>
      <trkpt lat="47.84593" lon="-0.91636">
        <ele>76.7</ele>
        <time>2020-12-20T11:25:36Z</time>
      </trkpt>
      <trkpt lat="47.84593" lon="-0.91642">
        <ele>76.7</ele>
        <time>2020-12-20T11:25:37Z</time>
      </trkpt>
      <trkpt lat="47.84594" lon="-0.91648">
        <ele>76.6</ele>
        <time>2020-12-20T11:25:38Z</time>
      </trkpt>
      <trkpt lat="47.84594" lon="-0.91654">
        <ele>76.6</ele>
        <time>2020-12-20T11:25:39Z</time>
      </trkpt>
      <trkpt lat="47.84594" lon="-0.9166">
        <ele>76.6</ele>
        <time>2020-12-20T11:25:40Z</time>
      </trkpt>
      <trkpt lat="47.84594" lon="-0.91666">
        <ele>76.6</ele>
        <time>2020-12-20T11:25:41Z</time>
      </trkpt>
      <trkpt lat="47.84595" lon="-0.91672">
        <ele>76.8</ele>
        <time>2020-12-20T11:25:42Z</time>
      </trkpt>
      <trkpt lat="47.84595" lon="-0.91678">
        <ele>77</ele>
        <time>2020-12-20T11:25:43Z</time>
      </trkpt>
      <trkpt lat="47.84595" lon="-0.91683">
        <ele>77.2</ele>
        <time>2020-12-20T11:25:44Z</time>
      </trkpt>
      <trkpt lat="47.84596" lon="-0.91689">
        <ele>77.3</ele>
        <time>2020-12-20T11:25:45Z</time>
      </trkpt>
      <trkpt lat="47.84596" lon="-0.91695">
        <ele>77.6</ele>
        <time>2020-12-20T11:25:46Z</time>
      </trkpt>
      <trkpt lat="47.84596" lon="-0.91701">
        <ele>77.8</ele>
        <time>2020-12-20T11:25:47Z</time>
      </trkpt>
      <trkpt lat="47.84596" lon="-0.91707">
        <ele>78</ele>
        <time>2020-12-20T11:25:48Z</time>
      </trkpt>
      <trkpt lat="47.84596" lon="-0.91713">
        <ele>78.2</ele>
        <time>2020-12-20T11:25:49Z</time>
      </trkpt>
      <trkpt lat="47.84596" lon="-0.91719">
        <ele>78.4</ele>
        <time>2020-12-20T11:25:50Z</time>
      </trkpt>
      <trkpt lat="47.84597" lon="-0.91725">
        <ele>78.6</ele>
        <time>2020-12-20T11:25:51Z</time>
      </trkpt>
      <trkpt lat="47.84597" lon="-0.91731">
        <ele>78.8</ele>
        <time>2020-12-20T11:25:52Z</time>
      </trkpt>
      <trkpt lat="47.84597" lon="-0.91737">
        <ele>79</ele>
        <time>2020-12-20T11:25:53Z</time>
      </trkpt>
      <trkpt lat="47.84597" lon="-0.91743">
        <ele>79.3</ele>
        <time>2020-12-20T11:25:54Z</time>
      </trkpt>
      <trkpt lat="47.84598" lon="-0.91749">
        <ele>79.4</ele>
        <time>2020-12-20T11:25:55Z</time>
      </trkpt>
      <trkpt lat="47.84598" lon="-0.91755">
        <ele>79.6</ele>
        <time>2020-12-20T11:25:56Z</time>
      </trkpt>
      <trkpt lat="47.84598" lon="-0.9176">
        <ele>79.7</ele>
        <time>2020-12-20T11:25:57Z</time>
      </trkpt>
      <trkpt lat="47.84599" lon="-0.91766">
        <ele>79.9</ele>
        <time>2020-12-20T11:25:58Z</time>
      </trkpt>
      <trkpt lat="47.84599" lon="-0.91771">
        <ele>80</ele>
        <time>2020-12-20T11:25:59Z</time>
      </trkpt>
      <trkpt lat="47.84602" lon="-0.91775">
        <ele>80</ele>
        <time>2020-12-20T11:26:00Z</time>
      </trkpt>
      <trkpt lat="47.84605" lon="-0.91777">
        <ele>80</ele>
        <time>2020-12-20T11:26:01Z</time>
      </trkpt>
      <trkpt lat="47.84608" lon="-0.91775">
        <ele>79.8</ele>
        <time>2020-12-20T11:26:02Z</time>
      </trkpt>
      <trkpt lat="47.84612" lon="-0.91773">
        <ele>79.6</ele>
        <time>2020-12-20T11:26:03Z</time>
      </trkpt>
      <trkpt lat="47.84616" lon="-0.9177">
        <ele>79.4</ele>
        <time>2020-12-20T11:26:04Z</time>
      </trkpt>
      <trkpt lat="47.8462" lon="-0.91767">
        <ele>79.2</ele>
        <time>2020-12-20T11:26:05Z</time>
      </trkpt>
      <trkpt lat="47.84624" lon="-0.91763">
        <ele>78.9</ele>
        <time>2020-12-20T11:26:06Z</time>
      </trkpt>
      <trkpt lat="47.84629" lon="-0.91759">
        <ele>78.6</ele>
        <time>2020-12-20T11:26:07Z</time>
      </trkpt>
      <trkpt lat="47.84634" lon="-0.91755">
        <ele>78.3</ele>
        <time>2020-12-20T11:26:08Z</time>
      </trkpt>
      <trkpt lat="47.8464" lon="-0.9175">
        <ele>78</ele>
        <time>2020-12-20T11:26:09Z</time>
      </trkpt>
      <trkpt lat="47.84646" lon="-0.91746">
        <ele>77.6</ele>
        <time>2020-12-20T11:26:10Z</time>
      </trkpt>
      <trkpt lat="47.84651" lon="-0.91742">
        <ele>77.3</ele>
        <time>2020-12-20T11:26:11Z</time>
      </trkpt>
      <trkpt lat="47.84658" lon="-0.91738">
        <ele>76.9</ele>
        <time>2020-12-20T11:26:12Z</time>
      </trkpt>
      <trkpt lat="47.84663" lon="-0.91734">
        <ele>76.6</ele>
        <time>2020-12-20T11:26:13Z</time>
      </trkpt>
      <trkpt lat="47.84669" lon="-0.9173">
        <ele>76.3</ele>
        <time>2020-12-20T11:26:14Z</time>
      </trkpt>
      <trkpt lat="47.84674" lon="-0.91727">
        <ele>76.1</ele>
        <time>2020-12-20T11:26:15Z</time>
      </trkpt>
      <trkpt lat="47.8468" lon="-0.91725">
        <ele>75.9</ele>
        <time>2020-12-20T11:26:16Z</time>
      </trkpt>
      <trkpt lat="47.84686" lon="-0.91722">
        <ele>75.8</ele>
        <time>2020-12-20T11:26:17Z</time>
      </trkpt>
      <trkpt lat="47.84693" lon="-0.91719">
        <ele>75.6</ele>
        <time>2020-12-20T11:26:18Z</time>
      </trkpt>
      <trkpt lat="47.84699" lon="-0.91716">
        <ele>75.4</ele>
        <time>2020-12-20T11:26:19Z</time>
      </trkpt>
      <trkpt lat="47.84705" lon="-0.91713">
        <ele>75.2</ele>
        <time>2020-12-20T11:26:20Z</time>
      </trkpt>
      <trkpt lat="47.8471" lon="-0.9171">
        <ele>75</ele>
        <time>2020-12-20T11:26:21Z</time>
      </trkpt>
      <trkpt lat="47.84715" lon="-0.91706">
        <ele>74.8</ele>
        <time>2020-12-20T11:26:22Z</time>
      </trkpt>
      <trkpt lat="47.8472" lon="-0.91702">
        <ele>74.6</ele>
        <time>2020-12-20T11:26:23Z</time>
      </trkpt>
      <trkpt lat="47.84726" lon="-0.91698">
        <ele>74.4</ele>
        <time>2020-12-20T11:26:24Z</time>
      </trkpt>
      <trkpt lat="47.84732" lon="-0.91693">
        <ele>74.2</ele>
        <time>2020-12-20T11:26:25Z</time>
      </trkpt>
      <trkpt lat="47.84738" lon="-0.91688">
        <ele>73.9</ele>
        <time>2020-12-20T11:26:26Z</time>
      </trkpt>
      <trkpt lat="47.84745" lon="-0.91685">
        <ele>73.7</ele>
        <time>2020-12-20T11:26:27Z</time>
      </trkpt>
      <trkpt lat="47.84752" lon="-0.91683">
        <ele>73.5</ele>
        <time>2020-12-20T11:26:28Z</time>
      </trkpt>
      <trkpt lat="47.84759" lon="-0.91685">
        <ele>73.3</ele>
        <time>2020-12-20T11:26:29Z</time>
      </trkpt>
      <trkpt lat="47.84765" lon="-0.91689">
        <ele>73.2</ele>
        <time>2020-12-20T11:26:30Z</time>
      </trkpt>
      <trkpt lat="47.84771" lon="-0.91696">
        <ele>73.1</ele>
        <time>2020-12-20T11:26:31Z</time>
      </trkpt>
      <trkpt lat="47.84778" lon="-0.91702">
        <ele>73</ele>
        <time>2020-12-20T11:26:32Z</time>
      </trkpt>
      <trkpt lat="47.84782" lon="-0.9171">
        <ele>73</ele>
        <time>2020-12-20T11:26:33Z</time>
      </trkpt>
      <trkpt lat="47.84787" lon="-0.91717">
        <ele>72.9</ele>
        <time>2020-12-20T11:26:34Z</time>
      </trkpt>
      <trkpt lat="47.84791" lon="-0.91725">
        <ele>72.9</ele>
        <time>2020-12-20T11:26:35Z</time>
      </trkpt>
      <trkpt lat="47.84795" lon="-0.91732">
        <ele>72.9</ele>
        <time>2020-12-20T11:26:36Z</time>
      </trkpt>
      <trkpt lat="47.848" lon="-0.91738">
        <ele>72.7</ele>
        <time>2020-12-20T11:26:37Z</time>
      </trkpt>
      <trkpt lat="47.84804" lon="-0.91746">
        <ele>72.7</ele>
        <time>2020-12-20T11:26:38Z</time>
      </trkpt>
      <trkpt lat="47.84807" lon="-0.91754">
        <ele>72.7</ele>
        <time>2020-12-20T11:26:39Z</time>
      </trkpt>
      <trkpt lat="47.84811" lon="-0.91761">
        <ele>72.6</ele>
        <time>2020-12-20T11:26:40Z</time>
      </trkpt>
      <trkpt lat="47.84814" lon="-0.91767">
        <ele>72.6</ele>
        <time>2020-12-20T11:26:41Z</time>
      </trkpt>
      <trkpt lat="47.84819" lon="-0.91774">
        <ele>72.4</ele>
        <time>2020-12-20T11:26:42Z</time>
      </trkpt>
      <trkpt lat="47.84823" lon="-0.9178">
        <ele>72.3</ele>
        <time>2020-12-20T11:26:43Z</time>
      </trkpt>
      <trkpt lat="47.84826" lon="-0.91785">
        <ele>72.3</ele>
        <time>2020-12-20T11:26:44Z</time>
      </trkpt>
      <trkpt lat="47.8483" lon="-0.91792">
        <ele>72.2</ele>
        <time>2020-12-20T11:26:45Z</time>
      </trkpt>
      <trkpt lat="47.84834" lon="-0.91799">
        <ele>72.1</ele>
        <time>2020-12-20T11:26:46Z</time>
      </trkpt>
      <trkpt lat="47.84838" lon="-0.91806">
        <ele>72.1</ele>
        <time>2020-12-20T11:26:47Z</time>
      </trkpt>
      <trkpt lat="47.84843" lon="-0.91813">
        <ele>72</ele>
        <time>2020-12-20T11:26:48Z</time>
      </trkpt>
      <trkpt lat="47.84847" lon="-0.9182">
        <ele>71.9</ele>
        <time>2020-12-20T11:26:49Z</time>
      </trkpt>
      <trkpt lat="47.8485" lon="-0.91829">
        <ele>71.9</ele>
        <time>2020-12-20T11:26:50Z</time>
      </trkpt>
      <trkpt lat="47.84853" lon="-0.91836">
        <ele>71.8</ele>
        <time>2020-12-20T11:26:51Z</time>
      </trkpt>
      <trkpt lat="47.84856" lon="-0.91844">
        <ele>71.7</ele>
        <time>2020-12-20T11:26:52Z</time>
      </trkpt>
      <trkpt lat="47.84858" lon="-0.9185">
        <ele>71.7</ele>
        <time>2020-12-20T11:26:53Z</time>
      </trkpt>
      <trkpt lat="47.8486" lon="-0.91855">
        <ele>71.6</ele>
        <time>2020-12-20T11:26:54Z</time>
      </trkpt>
      <trkpt lat="47.84864" lon="-0.91861">
        <ele>71.4</ele>
        <time>2020-12-20T11:26:55Z</time>
      </trkpt>
      <trkpt lat="47.84867" lon="-0.91866">
        <ele>71.2</ele>
        <time>2020-12-20T11:26:56Z</time>
      </trkpt>
      <trkpt lat="47.8487" lon="-0.91872">
        <ele>71.1</ele>
        <time>2020-12-20T11:26:57Z</time>
      </trkpt>
      <trkpt lat="47.84873" lon="-0.91878">
        <ele>70.9</ele>
        <time>2020-12-20T11:26:58Z</time>
      </trkpt>
      <trkpt lat="47.84876" lon="-0.91883">
        <ele>70.7</ele>
        <time>2020-12-20T11:26:59Z</time>
      </trkpt>
      <trkpt lat="47.84879" lon="-0.91888">
        <ele>70.6</ele>
        <time>2020-12-20T11:27:00Z</time>
      </trkpt>
      <trkpt lat="47.84881" lon="-0.91895">
        <ele>70.5</ele>
        <time>2020-12-20T11:27:01Z</time>
      </trkpt>
      <trkpt lat="47.84885" lon="-0.91902">
        <ele>70.2</ele>
        <time>2020-12-20T11:27:02Z</time>
      </trkpt>
      <trkpt lat="47.84888" lon="-0.9191">
        <ele>70</ele>
        <time>2020-12-20T11:27:03Z</time>
      </trkpt>
      <trkpt lat="47.84893" lon="-0.91918">
        <ele>69.7</ele>
        <time>2020-12-20T11:27:04Z</time>
      </trkpt>
      <trkpt lat="47.84896" lon="-0.91926">
        <ele>69.8</ele>
        <time>2020-12-20T11:27:05Z</time>
      </trkpt>
      <trkpt lat="47.84899" lon="-0.91933">
        <ele>69.8</ele>
        <time>2020-12-20T11:27:06Z</time>
      </trkpt>
      <trkpt lat="47.84901" lon="-0.91939">
        <ele>69.8</ele>
        <time>2020-12-20T11:27:07Z</time>
      </trkpt>
      <trkpt lat="47.84904" lon="-0.91946">
        <ele>69.9</ele>
        <time>2020-12-20T11:27:08Z</time>
      </trkpt>
      <trkpt lat="47.84906" lon="-0.91952">
        <ele>69.9</ele>
        <time>2020-12-20T11:27:09Z</time>
      </trkpt>
      <trkpt lat="47.84909" lon="-0.91958">
        <ele>69.9</ele>
        <time>2020-12-20T11:27:10Z</time>
      </trkpt>
      <trkpt lat="47.84911" lon="-0.91964">
        <ele>70</ele>
        <time>2020-12-20T11:27:11Z</time>
      </trkpt>
      <trkpt lat="47.84913" lon="-0.91971">
        <ele>70.2</ele>
        <time>2020-12-20T11:27:12Z</time>
      </trkpt>
      <trkpt lat="47.84916" lon="-0.91976">
        <ele>70.2</ele>
        <time>2020-12-20T11:27:13Z</time>
      </trkpt>
      <trkpt lat="47.84917" lon="-0.91982">
        <ele>70.3</ele>
        <time>2020-12-20T11:27:14Z</time>
      </trkpt>
      <trkpt lat="47.8492" lon="-0.91986">
        <ele>70.4</ele>
        <time>2020-12-20T11:27:15Z</time>
      </trkpt>
      <trkpt lat="47.84924" lon="-0.91993">
        <ele>70.5</ele>
        <time>2020-12-20T11:27:16Z</time>
      </trkpt>
      <trkpt lat="47.84927" lon="-0.91999">
        <ele>70.6</ele>
        <time>2020-12-20T11:27:17Z</time>
      </trkpt>
      <trkpt lat="47.8493" lon="-0.92005">
        <ele>70.6</ele>
        <time>2020-12-20T11:27:18Z</time>
      </trkpt>
      <trkpt lat="47.84932" lon="-0.92011">
        <ele>70.6</ele>
        <time>2020-12-20T11:27:19Z</time>
      </trkpt>
      <trkpt lat="47.84934" lon="-0.92017">
        <ele>70.6</ele>
        <time>2020-12-20T11:27:20Z</time>
      </trkpt>
      <trkpt lat="47.84936" lon="-0.92022">
        <ele>70.6</ele>
        <time>2020-12-20T11:27:21Z</time>
      </trkpt>
      <trkpt lat="47.84936" lon="-0.92027">
        <ele>70.6</ele>
        <time>2020-12-20T11:27:22Z</time>
      </trkpt>
      <trkpt lat="47.84938" lon="-0.92031">
        <ele>70.6</ele>
        <time>2020-12-20T11:27:23Z</time>
      </trkpt>
      <trkpt lat="47.84941" lon="-0.92037">
        <ele>70.6</ele>
        <time>2020-12-20T11:27:24Z</time>
      </trkpt>
      <trkpt lat="47.84944" lon="-0.92043">
        <ele>70.5</ele>
        <time>2020-12-20T11:27:25Z</time>
      </trkpt>
      <trkpt lat="47.84946" lon="-0.9205">
        <ele>70.5</ele>
        <time>2020-12-20T11:27:26Z</time>
      </trkpt>
      <trkpt lat="47.84949" lon="-0.92057">
        <ele>70.5</ele>
        <time>2020-12-20T11:27:27Z</time>
      </trkpt>
      <trkpt lat="47.84952" lon="-0.92064">
        <ele>70.5</ele>
        <time>2020-12-20T11:27:28Z</time>
      </trkpt>
      <trkpt lat="47.84955" lon="-0.92071">
        <ele>70.5</ele>
        <time>2020-12-20T11:27:29Z</time>
      </trkpt>
      <trkpt lat="47.84957" lon="-0.92078">
        <ele>70.5</ele>
        <time>2020-12-20T11:27:30Z</time>
      </trkpt>
      <trkpt lat="47.84959" lon="-0.92084">
        <ele>70.5</ele>
        <time>2020-12-20T11:27:31Z</time>
      </trkpt>
      <trkpt lat="47.84961" lon="-0.92089">
        <ele>70.7</ele>
        <time>2020-12-20T11:27:32Z</time>
      </trkpt>
      <trkpt lat="47.84964" lon="-0.92094">
        <ele>70.8</ele>
        <time>2020-12-20T11:27:33Z</time>
      </trkpt>
      <trkpt lat="47.84966" lon="-0.921">
        <ele>71</ele>
        <time>2020-12-20T11:27:34Z</time>
      </trkpt>
      <trkpt lat="47.84969" lon="-0.92105">
        <ele>71.2</ele>
        <time>2020-12-20T11:27:35Z</time>
      </trkpt>
      <trkpt lat="47.84972" lon="-0.92109">
        <ele>71.2</ele>
        <time>2020-12-20T11:27:36Z</time>
      </trkpt>
      <trkpt lat="47.84975" lon="-0.92114">
        <ele>71.4</ele>
        <time>2020-12-20T11:27:37Z</time>
      </trkpt>
      <trkpt lat="47.84977" lon="-0.9212">
        <ele>71.6</ele>
        <time>2020-12-20T11:27:38Z</time>
      </trkpt>
      <trkpt lat="47.84979" lon="-0.92126">
        <ele>71.8</ele>
        <time>2020-12-20T11:27:39Z</time>
      </trkpt>
      <trkpt lat="47.8498" lon="-0.92133">
        <ele>72.1</ele>
        <time>2020-12-20T11:27:40Z</time>
      </trkpt>
      <trkpt lat="47.84982" lon="-0.92141">
        <ele>72.4</ele>
        <time>2020-12-20T11:27:41Z</time>
      </trkpt>
      <trkpt lat="47.84984" lon="-0.92149">
        <ele>72.7</ele>
        <time>2020-12-20T11:27:42Z</time>
      </trkpt>
      <trkpt lat="47.84986" lon="-0.92155">
        <ele>72.9</ele>
        <time>2020-12-20T11:27:43Z</time>
      </trkpt>
      <trkpt lat="47.84986" lon="-0.92162">
        <ele>73.3</ele>
        <time>2020-12-20T11:27:44Z</time>
      </trkpt>
      <trkpt lat="47.84986" lon="-0.92167">
        <ele>73.5</ele>
        <time>2020-12-20T11:27:45Z</time>
      </trkpt>
      <trkpt lat="47.84985" lon="-0.92173">
        <ele>73.7</ele>
        <time>2020-12-20T11:27:46Z</time>
      </trkpt>
      <trkpt lat="47.84983" lon="-0.92176">
        <ele>73.8</ele>
        <time>2020-12-20T11:27:47Z</time>
      </trkpt>
      <trkpt lat="47.84981" lon="-0.92181">
        <ele>74</ele>
        <time>2020-12-20T11:27:48Z</time>
      </trkpt>
      <trkpt lat="47.84979" lon="-0.92184">
        <ele>74.2</ele>
        <time>2020-12-20T11:27:49Z</time>
      </trkpt>
      <trkpt lat="47.84977" lon="-0.92189">
        <ele>74.4</ele>
        <time>2020-12-20T11:27:50Z</time>
      </trkpt>
      <trkpt lat="47.84976" lon="-0.92192">
        <ele>74.5</ele>
        <time>2020-12-20T11:27:51Z</time>
      </trkpt>
      <trkpt lat="47.84974" lon="-0.92196">
        <ele>74.6</ele>
        <time>2020-12-20T11:27:52Z</time>
      </trkpt>
      <trkpt lat="47.84973" lon="-0.922">
        <ele>74.8</ele>
        <time>2020-12-20T11:27:53Z</time>
      </trkpt>
      <trkpt lat="47.84971" lon="-0.92203">
        <ele>74.9</ele>
        <time>2020-12-20T11:27:54Z</time>
      </trkpt>
      <trkpt lat="47.84969" lon="-0.92206">
        <ele>75.1</ele>
        <time>2020-12-20T11:27:55Z</time>
      </trkpt>
      <trkpt lat="47.84967" lon="-0.92209">
        <ele>75.2</ele>
        <time>2020-12-20T11:27:56Z</time>
      </trkpt>
      <trkpt lat="47.84966" lon="-0.92212">
        <ele>75.3</ele>
        <time>2020-12-20T11:27:57Z</time>
      </trkpt>
      <trkpt lat="47.84965" lon="-0.92216">
        <ele>75.4</ele>
        <time>2020-12-20T11:27:58Z</time>
      </trkpt>
      <trkpt lat="47.84963" lon="-0.92219">
        <ele>75.6</ele>
        <time>2020-12-20T11:27:59Z</time>
      </trkpt>
      <trkpt lat="47.84961" lon="-0.92223">
        <ele>75.8</ele>
        <time>2020-12-20T11:28:00Z</time>
      </trkpt>
      <trkpt lat="47.8496" lon="-0.92226">
        <ele>75.9</ele>
        <time>2020-12-20T11:28:01Z</time>
      </trkpt>
      <trkpt lat="47.84959" lon="-0.92229">
        <ele>76</ele>
        <time>2020-12-20T11:28:02Z</time>
      </trkpt>
      <trkpt lat="47.84957" lon="-0.92232">
        <ele>76.1</ele>
        <time>2020-12-20T11:28:03Z</time>
      </trkpt>
      <trkpt lat="47.84955" lon="-0.92236">
        <ele>76.3</ele>
        <time>2020-12-20T11:28:04Z</time>
      </trkpt>
      <trkpt lat="47.84954" lon="-0.92239">
        <ele>76.4</ele>
        <time>2020-12-20T11:28:05Z</time>
      </trkpt>
      <trkpt lat="47.84952" lon="-0.92241">
        <ele>76.5</ele>
        <time>2020-12-20T11:28:06Z</time>
      </trkpt>
      <trkpt lat="47.8495" lon="-0.92244">
        <ele>76.7</ele>
        <time>2020-12-20T11:28:07Z</time>
      </trkpt>
      <trkpt lat="47.84949" lon="-0.92247">
        <ele>76.8</ele>
        <time>2020-12-20T11:28:08Z</time>
      </trkpt>
      <trkpt lat="47.84948" lon="-0.92251">
        <ele>76.9</ele>
        <time>2020-12-20T11:28:09Z</time>
      </trkpt>
      <trkpt lat="47.84947" lon="-0.92254">
        <ele>76.9</ele>
        <time>2020-12-20T11:28:10Z</time>
      </trkpt>
      <trkpt lat="47.84945" lon="-0.92257">
        <ele>76.9</ele>
        <time>2020-12-20T11:28:11Z</time>
      </trkpt>
      <trkpt lat="47.84943" lon="-0.92261">
        <ele>77</ele>
        <time>2020-12-20T11:28:12Z</time>
      </trkpt>
      <trkpt lat="47.84942" lon="-0.92263">
        <ele>77.1</ele>
        <time>2020-12-20T11:28:13Z</time>
      </trkpt>
      <trkpt lat="47.8494" lon="-0.92267">
        <ele>77.1</ele>
        <time>2020-12-20T11:28:14Z</time>
      </trkpt>
      <trkpt lat="47.84939" lon="-0.92271">
        <ele>77.2</ele>
        <time>2020-12-20T11:28:15Z</time>
      </trkpt>
      <trkpt lat="47.84938" lon="-0.92275">
        <ele>77.2</ele>
        <time>2020-12-20T11:28:16Z</time>
      </trkpt>
      <trkpt lat="47.84937" lon="-0.92279">
        <ele>77.3</ele>
        <time>2020-12-20T11:28:17Z</time>
      </trkpt>
      <trkpt lat="47.84936" lon="-0.92282">
        <ele>77.3</ele>
        <time>2020-12-20T11:28:18Z</time>
      </trkpt>
      <trkpt lat="47.84936" lon="-0.92285">
        <ele>77.3</ele>
        <time>2020-12-20T11:28:19Z</time>
      </trkpt>
      <trkpt lat="47.84935" lon="-0.92289">
        <ele>77.4</ele>
        <time>2020-12-20T11:28:20Z</time>
      </trkpt>
      <trkpt lat="47.84934" lon="-0.92294">
        <ele>77.5</ele>
        <time>2020-12-20T11:28:21Z</time>
      </trkpt>
      <trkpt lat="47.84933" lon="-0.92299">
        <ele>77.5</ele>
        <time>2020-12-20T11:28:22Z</time>
      </trkpt>
      <trkpt lat="47.84932" lon="-0.92304">
        <ele>77.6</ele>
        <time>2020-12-20T11:28:23Z</time>
      </trkpt>
      <trkpt lat="47.84931" lon="-0.92308">
        <ele>77.7</ele>
        <time>2020-12-20T11:28:24Z</time>
      </trkpt>
      <trkpt lat="47.8493" lon="-0.92314">
        <ele>77.8</ele>
        <time>2020-12-20T11:28:25Z</time>
      </trkpt>
      <trkpt lat="47.8493" lon="-0.92318">
        <ele>77.8</ele>
        <time>2020-12-20T11:28:26Z</time>
      </trkpt>
      <trkpt lat="47.84929" lon="-0.92322">
        <ele>77.9</ele>
        <time>2020-12-20T11:28:27Z</time>
      </trkpt>
      <trkpt lat="47.84928" lon="-0.92326">
        <ele>78</ele>
        <time>2020-12-20T11:28:28Z</time>
      </trkpt>
      <trkpt lat="47.84927" lon="-0.9233">
        <ele>78.1</ele>
        <time>2020-12-20T11:28:29Z</time>
      </trkpt>
      <trkpt lat="47.84925" lon="-0.92334">
        <ele>78.3</ele>
        <time>2020-12-20T11:28:30Z</time>
      </trkpt>
      <trkpt lat="47.84924" lon="-0.92338">
        <ele>78.3</ele>
        <time>2020-12-20T11:28:31Z</time>
      </trkpt>
      <trkpt lat="47.84922" lon="-0.92341">
        <ele>78.5</ele>
        <time>2020-12-20T11:28:32Z</time>
      </trkpt>
      <trkpt lat="47.84921" lon="-0.92345">
        <ele>78.5</ele>
        <time>2020-12-20T11:28:33Z</time>
      </trkpt>
      <trkpt lat="47.84921" lon="-0.92349">
        <ele>78.5</ele>
        <time>2020-12-20T11:28:34Z</time>
      </trkpt>
      <trkpt lat="47.8492" lon="-0.92354">
        <ele>78.5</ele>
        <time>2020-12-20T11:28:35Z</time>
      </trkpt>
      <trkpt lat="47.8492" lon="-0.92358">
        <ele>78.4</ele>
        <time>2020-12-20T11:28:36Z</time>
      </trkpt>
      <trkpt lat="47.8492" lon="-0.92362">
        <ele>78.4</ele>
        <time>2020-12-20T11:28:37Z</time>
      </trkpt>
      <trkpt lat="47.8492" lon="-0.92366">
        <ele>78.4</ele>
        <time>2020-12-20T11:28:38Z</time>
      </trkpt>
      <trkpt lat="47.8492" lon="-0.92369">
        <ele>78.3</ele>
        <time>2020-12-20T11:28:39Z</time>
      </trkpt>
      <trkpt lat="47.84921" lon="-0.92373">
        <ele>78.2</ele>
        <time>2020-12-20T11:28:40Z</time>
      </trkpt>
      <trkpt lat="47.8492" lon="-0.92376">
        <ele>78.2</ele>
        <time>2020-12-20T11:28:41Z</time>
      </trkpt>
      <trkpt lat="47.84919" lon="-0.92379">
        <ele>78.3</ele>
        <time>2020-12-20T11:28:42Z</time>
      </trkpt>
      <trkpt lat="47.84918" lon="-0.92382">
        <ele>78.3</ele>
        <time>2020-12-20T11:28:43Z</time>
      </trkpt>
      <trkpt lat="47.84917" lon="-0.92385">
        <ele>78.4</ele>
        <time>2020-12-20T11:28:44Z</time>
      </trkpt>
      <trkpt lat="47.84917" lon="-0.92388">
        <ele>78.3</ele>
        <time>2020-12-20T11:28:45Z</time>
      </trkpt>
      <trkpt lat="47.84917" lon="-0.92391">
        <ele>78.3</ele>
        <time>2020-12-20T11:28:46Z</time>
      </trkpt>
      <trkpt lat="47.84916" lon="-0.92394">
        <ele>78.3</ele>
        <time>2020-12-20T11:28:47Z</time>
      </trkpt>
      <trkpt lat="47.84915" lon="-0.92396">
        <ele>78.3</ele>
        <time>2020-12-20T11:28:48Z</time>
      </trkpt>
      <trkpt lat="47.84914" lon="-0.92399">
        <ele>78.2</ele>
        <time>2020-12-20T11:28:49Z</time>
      </trkpt>
      <trkpt lat="47.84914" lon="-0.92402">
        <ele>78.2</ele>
        <time>2020-12-20T11:28:50Z</time>
      </trkpt>
      <trkpt lat="47.84913" lon="-0.92406">
        <ele>78.2</ele>
        <time>2020-12-20T11:28:51Z</time>
      </trkpt>
      <trkpt lat="47.84912" lon="-0.92409">
        <ele>78.1</ele>
        <time>2020-12-20T11:28:52Z</time>
      </trkpt>
      <trkpt lat="47.84911" lon="-0.92413">
        <ele>78.1</ele>
        <time>2020-12-20T11:28:53Z</time>
      </trkpt>
      <trkpt lat="47.84911" lon="-0.92418">
        <ele>78.1</ele>
        <time>2020-12-20T11:28:54Z</time>
      </trkpt>
      <trkpt lat="47.8491" lon="-0.92421">
        <ele>78</ele>
        <time>2020-12-20T11:28:55Z</time>
      </trkpt>
      <trkpt lat="47.84909" lon="-0.92424">
        <ele>78</ele>
        <time>2020-12-20T11:28:56Z</time>
      </trkpt>
      <trkpt lat="47.84908" lon="-0.92427">
        <ele>78</ele>
        <time>2020-12-20T11:28:57Z</time>
      </trkpt>
      <trkpt lat="47.84908" lon="-0.9243">
        <ele>77.9</ele>
        <time>2020-12-20T11:28:58Z</time>
      </trkpt>
      <trkpt lat="47.84908" lon="-0.92433">
        <ele>77.9</ele>
        <time>2020-12-20T11:28:59Z</time>
      </trkpt>
      <trkpt lat="47.84907" lon="-0.92437">
        <ele>77.9</ele>
        <time>2020-12-20T11:29:00Z</time>
      </trkpt>
      <trkpt lat="47.84907" lon="-0.92441">
        <ele>77.8</ele>
        <time>2020-12-20T11:29:01Z</time>
      </trkpt>
      <trkpt lat="47.84907" lon="-0.92445">
        <ele>77.8</ele>
        <time>2020-12-20T11:29:02Z</time>
      </trkpt>
      <trkpt lat="47.84908" lon="-0.92448">
        <ele>77.7</ele>
        <time>2020-12-20T11:29:03Z</time>
      </trkpt>
      <trkpt lat="47.84909" lon="-0.92451">
        <ele>77.7</ele>
        <time>2020-12-20T11:29:04Z</time>
      </trkpt>
      <trkpt lat="47.8491" lon="-0.92454">
        <ele>77.6</ele>
        <time>2020-12-20T11:29:05Z</time>
      </trkpt>
      <trkpt lat="47.84911" lon="-0.92457">
        <ele>77.6</ele>
        <time>2020-12-20T11:29:06Z</time>
      </trkpt>
      <trkpt lat="47.84912" lon="-0.9246">
        <ele>77.5</ele>
        <time>2020-12-20T11:29:07Z</time>
      </trkpt>
      <trkpt lat="47.84913" lon="-0.92463">
        <ele>77.5</ele>
        <time>2020-12-20T11:29:08Z</time>
      </trkpt>
      <trkpt lat="47.84914" lon="-0.92466">
        <ele>77.4</ele>
        <time>2020-12-20T11:29:09Z</time>
      </trkpt>
      <trkpt lat="47.84915" lon="-0.9247">
        <ele>77.4</ele>
        <time>2020-12-20T11:29:10Z</time>
      </trkpt>
      <trkpt lat="47.84917" lon="-0.92474">
        <ele>77.3</ele>
        <time>2020-12-20T11:29:11Z</time>
      </trkpt>
      <trkpt lat="47.84918" lon="-0.92478">
        <ele>77.2</ele>
        <time>2020-12-20T11:29:12Z</time>
      </trkpt>
      <trkpt lat="47.84919" lon="-0.92482">
        <ele>77.1</ele>
        <time>2020-12-20T11:29:13Z</time>
      </trkpt>
      <trkpt lat="47.8492" lon="-0.92487">
        <ele>77</ele>
        <time>2020-12-20T11:29:14Z</time>
      </trkpt>
      <trkpt lat="47.84921" lon="-0.92493">
        <ele>76.8</ele>
        <time>2020-12-20T11:29:15Z</time>
      </trkpt>
      <trkpt lat="47.84922" lon="-0.92498">
        <ele>76.7</ele>
        <time>2020-12-20T11:29:16Z</time>
      </trkpt>
      <trkpt lat="47.84923" lon="-0.92502">
        <ele>76.6</ele>
        <time>2020-12-20T11:29:17Z</time>
      </trkpt>
      <trkpt lat="47.84924" lon="-0.92507">
        <ele>76.6</ele>
        <time>2020-12-20T11:29:18Z</time>
      </trkpt>
      <trkpt lat="47.84925" lon="-0.92512">
        <ele>76.5</ele>
        <time>2020-12-20T11:29:19Z</time>
      </trkpt>
      <trkpt lat="47.84926" lon="-0.92517">
        <ele>76.4</ele>
        <time>2020-12-20T11:29:20Z</time>
      </trkpt>
      <trkpt lat="47.84927" lon="-0.92522">
        <ele>76.3</ele>
        <time>2020-12-20T11:29:21Z</time>
      </trkpt>
      <trkpt lat="47.84927" lon="-0.92528">
        <ele>76.3</ele>
        <time>2020-12-20T11:29:22Z</time>
      </trkpt>
      <trkpt lat="47.84928" lon="-0.92533">
        <ele>76.3</ele>
        <time>2020-12-20T11:29:23Z</time>
      </trkpt>
      <trkpt lat="47.84929" lon="-0.92538">
        <ele>76.2</ele>
        <time>2020-12-20T11:29:24Z</time>
      </trkpt>
      <trkpt lat="47.8493" lon="-0.92543">
        <ele>76.1</ele>
        <time>2020-12-20T11:29:25Z</time>
      </trkpt>
      <trkpt lat="47.84931" lon="-0.92549">
        <ele>76</ele>
        <time>2020-12-20T11:29:26Z</time>
      </trkpt>
      <trkpt lat="47.84931" lon="-0.92556">
        <ele>76</ele>
        <time>2020-12-20T11:29:27Z</time>
      </trkpt>
      <trkpt lat="47.84933" lon="-0.92562">
        <ele>75.9</ele>
        <time>2020-12-20T11:29:28Z</time>
      </trkpt>
      <trkpt lat="47.84934" lon="-0.92568">
        <ele>75.8</ele>
        <time>2020-12-20T11:29:29Z</time>
      </trkpt>
      <trkpt lat="47.84935" lon="-0.92574">
        <ele>75.7</ele>
        <time>2020-12-20T11:29:30Z</time>
      </trkpt>
      <trkpt lat="47.84936" lon="-0.9258">
        <ele>75.6</ele>
        <time>2020-12-20T11:29:31Z</time>
      </trkpt>
      <trkpt lat="47.84937" lon="-0.92586">
        <ele>75.5</ele>
        <time>2020-12-20T11:29:32Z</time>
      </trkpt>
      <trkpt lat="47.84938" lon="-0.92592">
        <ele>75.4</ele>
        <time>2020-12-20T11:29:33Z</time>
      </trkpt>
      <trkpt lat="47.84939" lon="-0.92598">
        <ele>75.3</ele>
        <time>2020-12-20T11:29:34Z</time>
      </trkpt>
      <trkpt lat="47.8494" lon="-0.92604">
        <ele>75.1</ele>
        <time>2020-12-20T11:29:35Z</time>
      </trkpt>
      <trkpt lat="47.84941" lon="-0.92609">
        <ele>75</ele>
        <time>2020-12-20T11:29:36Z</time>
      </trkpt>
      <trkpt lat="47.84942" lon="-0.92615">
        <ele>74.9</ele>
        <time>2020-12-20T11:29:37Z</time>
      </trkpt>
      <trkpt lat="47.84943" lon="-0.92622">
        <ele>74.8</ele>
        <time>2020-12-20T11:29:38Z</time>
      </trkpt>
      <trkpt lat="47.84945" lon="-0.92627">
        <ele>74.6</ele>
        <time>2020-12-20T11:29:39Z</time>
      </trkpt>
      <trkpt lat="47.84946" lon="-0.92634">
        <ele>74.5</ele>
        <time>2020-12-20T11:29:40Z</time>
      </trkpt>
      <trkpt lat="47.84948" lon="-0.9264">
        <ele>74.3</ele>
        <time>2020-12-20T11:29:41Z</time>
      </trkpt>
      <trkpt lat="47.84949" lon="-0.92646">
        <ele>74.2</ele>
        <time>2020-12-20T11:29:42Z</time>
      </trkpt>
      <trkpt lat="47.8495" lon="-0.92651">
        <ele>74.1</ele>
        <time>2020-12-20T11:29:43Z</time>
      </trkpt>
      <trkpt lat="47.84951" lon="-0.92657">
        <ele>74</ele>
        <time>2020-12-20T11:29:44Z</time>
      </trkpt>
      <trkpt lat="47.84952" lon="-0.92663">
        <ele>73.9</ele>
        <time>2020-12-20T11:29:45Z</time>
      </trkpt>
      <trkpt lat="47.84954" lon="-0.9267">
        <ele>73.8</ele>
        <time>2020-12-20T11:29:46Z</time>
      </trkpt>
      <trkpt lat="47.84955" lon="-0.92676">
        <ele>73.8</ele>
        <time>2020-12-20T11:29:47Z</time>
      </trkpt>
      <trkpt lat="47.84957" lon="-0.92682">
        <ele>73.7</ele>
        <time>2020-12-20T11:29:48Z</time>
      </trkpt>
      <trkpt lat="47.84958" lon="-0.92688">
        <ele>73.6</ele>
        <time>2020-12-20T11:29:49Z</time>
      </trkpt>
      <trkpt lat="47.84959" lon="-0.92694">
        <ele>73.6</ele>
        <time>2020-12-20T11:29:50Z</time>
      </trkpt>
      <trkpt lat="47.8496" lon="-0.927">
        <ele>73.6</ele>
        <time>2020-12-20T11:29:51Z</time>
      </trkpt>
      <trkpt lat="47.84961" lon="-0.92706">
        <ele>73.6</ele>
        <time>2020-12-20T11:29:52Z</time>
      </trkpt>
      <trkpt lat="47.84962" lon="-0.92712">
        <ele>73.6</ele>
        <time>2020-12-20T11:29:53Z</time>
      </trkpt>
      <trkpt lat="47.84963" lon="-0.92718">
        <ele>73.6</ele>
        <time>2020-12-20T11:29:54Z</time>
      </trkpt>
      <trkpt lat="47.84964" lon="-0.92724">
        <ele>73.6</ele>
        <time>2020-12-20T11:29:55Z</time>
      </trkpt>
      <trkpt lat="47.84966" lon="-0.92729">
        <ele>73.5</ele>
        <time>2020-12-20T11:29:56Z</time>
      </trkpt>
      <trkpt lat="47.84967" lon="-0.92735">
        <ele>73.5</ele>
        <time>2020-12-20T11:29:57Z</time>
      </trkpt>
      <trkpt lat="47.84968" lon="-0.9274">
        <ele>73.5</ele>
        <time>2020-12-20T11:29:58Z</time>
      </trkpt>
      <trkpt lat="47.8497" lon="-0.92746">
        <ele>73.4</ele>
        <time>2020-12-20T11:29:59Z</time>
      </trkpt>
      <trkpt lat="47.84971" lon="-0.92751">
        <ele>73.4</ele>
        <time>2020-12-20T11:30:00Z</time>
      </trkpt>
      <trkpt lat="47.84971" lon="-0.92757">
        <ele>73.4</ele>
        <time>2020-12-20T11:30:01Z</time>
      </trkpt>
      <trkpt lat="47.84972" lon="-0.92762">
        <ele>73.4</ele>
        <time>2020-12-20T11:30:02Z</time>
      </trkpt>
      <trkpt lat="47.84974" lon="-0.92768">
        <ele>73.4</ele>
        <time>2020-12-20T11:30:03Z</time>
      </trkpt>
      <trkpt lat="47.84975" lon="-0.92774">
        <ele>73.4</ele>
        <time>2020-12-20T11:30:04Z</time>
      </trkpt>
      <trkpt lat="47.84975" lon="-0.9278">
        <ele>73.5</ele>
        <time>2020-12-20T11:30:05Z</time>
      </trkpt>
      <trkpt lat="47.84976" lon="-0.92787">
        <ele>73.5</ele>
        <time>2020-12-20T11:30:06Z</time>
      </trkpt>
      <trkpt lat="47.84977" lon="-0.92793">
        <ele>73.5</ele>
        <time>2020-12-20T11:30:07Z</time>
      </trkpt>
      <trkpt lat="47.84978" lon="-0.928">
        <ele>73.5</ele>
        <time>2020-12-20T11:30:08Z</time>
      </trkpt>
      <trkpt lat="47.84978" lon="-0.92807">
        <ele>73.6</ele>
        <time>2020-12-20T11:30:09Z</time>
      </trkpt>
      <trkpt lat="47.84979" lon="-0.92815">
        <ele>73.6</ele>
        <time>2020-12-20T11:30:10Z</time>
      </trkpt>
      <trkpt lat="47.8498" lon="-0.92823">
        <ele>73.6</ele>
        <time>2020-12-20T11:30:11Z</time>
      </trkpt>
      <trkpt lat="47.8498" lon="-0.92831">
        <ele>73.7</ele>
        <time>2020-12-20T11:30:12Z</time>
      </trkpt>
      <trkpt lat="47.8498" lon="-0.92839">
        <ele>73.8</ele>
        <time>2020-12-20T11:30:13Z</time>
      </trkpt>
      <trkpt lat="47.8498" lon="-0.92846">
        <ele>73.8</ele>
        <time>2020-12-20T11:30:14Z</time>
      </trkpt>
      <trkpt lat="47.84981" lon="-0.92854">
        <ele>73.8</ele>
        <time>2020-12-20T11:30:15Z</time>
      </trkpt>
      <trkpt lat="47.84981" lon="-0.92861">
        <ele>73.9</ele>
        <time>2020-12-20T11:30:16Z</time>
      </trkpt>
      <trkpt lat="47.84982" lon="-0.92867">
        <ele>73.9</ele>
        <time>2020-12-20T11:30:17Z</time>
      </trkpt>
      <trkpt lat="47.84982" lon="-0.92874">
        <ele>73.9</ele>
        <time>2020-12-20T11:30:18Z</time>
      </trkpt>
      <trkpt lat="47.84982" lon="-0.9288">
        <ele>74</ele>
        <time>2020-12-20T11:30:19Z</time>
      </trkpt>
      <trkpt lat="47.84982" lon="-0.92886">
        <ele>74</ele>
        <time>2020-12-20T11:30:20Z</time>
      </trkpt>
      <trkpt lat="47.84981" lon="-0.92893">
        <ele>74.1</ele>
        <time>2020-12-20T11:30:21Z</time>
      </trkpt>
      <trkpt lat="47.84981" lon="-0.92899">
        <ele>74.1</ele>
        <time>2020-12-20T11:30:22Z</time>
      </trkpt>
      <trkpt lat="47.84981" lon="-0.92905">
        <ele>74.2</ele>
        <time>2020-12-20T11:30:23Z</time>
      </trkpt>
      <trkpt lat="47.8498" lon="-0.92912">
        <ele>74.2</ele>
        <time>2020-12-20T11:30:24Z</time>
      </trkpt>
      <trkpt lat="47.84979" lon="-0.92918">
        <ele>74.2</ele>
        <time>2020-12-20T11:30:25Z</time>
      </trkpt>
      <trkpt lat="47.84978" lon="-0.92924">
        <ele>74</ele>
        <time>2020-12-20T11:30:26Z</time>
      </trkpt>
      <trkpt lat="47.84977" lon="-0.9293">
        <ele>73.8</ele>
        <time>2020-12-20T11:30:27Z</time>
      </trkpt>
      <trkpt lat="47.84977" lon="-0.92935">
        <ele>73.6</ele>
        <time>2020-12-20T11:30:28Z</time>
      </trkpt>
      <trkpt lat="47.84976" lon="-0.92942">
        <ele>73.3</ele>
        <time>2020-12-20T11:30:29Z</time>
      </trkpt>
      <trkpt lat="47.84975" lon="-0.92948">
        <ele>73.1</ele>
        <time>2020-12-20T11:30:30Z</time>
      </trkpt>
      <trkpt lat="47.84973" lon="-0.92956">
        <ele>72.9</ele>
        <time>2020-12-20T11:30:31Z</time>
      </trkpt>
      <trkpt lat="47.84973" lon="-0.92962">
        <ele>72.7</ele>
        <time>2020-12-20T11:30:32Z</time>
      </trkpt>
      <trkpt lat="47.84972" lon="-0.92969">
        <ele>72.5</ele>
        <time>2020-12-20T11:30:33Z</time>
      </trkpt>
      <trkpt lat="47.84971" lon="-0.92977">
        <ele>72.2</ele>
        <time>2020-12-20T11:30:34Z</time>
      </trkpt>
      <trkpt lat="47.84969" lon="-0.92985">
        <ele>72</ele>
        <time>2020-12-20T11:30:35Z</time>
      </trkpt>
      <trkpt lat="47.84968" lon="-0.92994">
        <ele>71.7</ele>
        <time>2020-12-20T11:30:36Z</time>
      </trkpt>
      <trkpt lat="47.84966" lon="-0.93003">
        <ele>71.6</ele>
        <time>2020-12-20T11:30:37Z</time>
      </trkpt>
      <trkpt lat="47.84966" lon="-0.93011">
        <ele>71.4</ele>
        <time>2020-12-20T11:30:38Z</time>
      </trkpt>
      <trkpt lat="47.84966" lon="-0.93018">
        <ele>71.2</ele>
        <time>2020-12-20T11:30:39Z</time>
      </trkpt>
      <trkpt lat="47.84965" lon="-0.93025">
        <ele>71.1</ele>
        <time>2020-12-20T11:30:40Z</time>
      </trkpt>
      <trkpt lat="47.84965" lon="-0.93031">
        <ele>71</ele>
        <time>2020-12-20T11:30:41Z</time>
      </trkpt>
      <trkpt lat="47.84964" lon="-0.93038">
        <ele>70.9</ele>
        <time>2020-12-20T11:30:42Z</time>
      </trkpt>
      <trkpt lat="47.84964" lon="-0.93045">
        <ele>70.7</ele>
        <time>2020-12-20T11:30:43Z</time>
      </trkpt>
      <trkpt lat="47.84966" lon="-0.93052">
        <ele>70.5</ele>
        <time>2020-12-20T11:30:44Z</time>
      </trkpt>
      <trkpt lat="47.84966" lon="-0.9306">
        <ele>70.3</ele>
        <time>2020-12-20T11:30:45Z</time>
      </trkpt>
      <trkpt lat="47.84965" lon="-0.93069">
        <ele>70.2</ele>
        <time>2020-12-20T11:30:46Z</time>
      </trkpt>
      <trkpt lat="47.84966" lon="-0.93077">
        <ele>70</ele>
        <time>2020-12-20T11:30:47Z</time>
      </trkpt>
      <trkpt lat="47.84966" lon="-0.93085">
        <ele>69.8</ele>
        <time>2020-12-20T11:30:48Z</time>
      </trkpt>
      <trkpt lat="47.84965" lon="-0.93092">
        <ele>69.6</ele>
        <time>2020-12-20T11:30:49Z</time>
      </trkpt>
      <trkpt lat="47.84964" lon="-0.93098">
        <ele>69.5</ele>
        <time>2020-12-20T11:30:50Z</time>
      </trkpt>
      <trkpt lat="47.84961" lon="-0.93104">
        <ele>69.5</ele>
        <time>2020-12-20T11:30:51Z</time>
      </trkpt>
      <trkpt lat="47.8496" lon="-0.93112">
        <ele>69.3</ele>
        <time>2020-12-20T11:30:52Z</time>
      </trkpt>
      <trkpt lat="47.84959" lon="-0.93121">
        <ele>69.1</ele>
        <time>2020-12-20T11:30:53Z</time>
      </trkpt>
      <trkpt lat="47.8496" lon="-0.93128">
        <ele>68.9</ele>
        <time>2020-12-20T11:30:54Z</time>
      </trkpt>
      <trkpt lat="47.84958" lon="-0.93137">
        <ele>68.7</ele>
        <time>2020-12-20T11:30:55Z</time>
      </trkpt>
      <trkpt lat="47.84957" lon="-0.93145">
        <ele>68.5</ele>
        <time>2020-12-20T11:30:56Z</time>
      </trkpt>
      <trkpt lat="47.84955" lon="-0.93152">
        <ele>68.4</ele>
        <time>2020-12-20T11:30:57Z</time>
      </trkpt>
      <trkpt lat="47.84955" lon="-0.93159">
        <ele>68.2</ele>
        <time>2020-12-20T11:30:58Z</time>
      </trkpt>
      <trkpt lat="47.84955" lon="-0.93165">
        <ele>68</ele>
        <time>2020-12-20T11:30:59Z</time>
      </trkpt>
      <trkpt lat="47.84954" lon="-0.93172">
        <ele>67.8</ele>
        <time>2020-12-20T11:31:00Z</time>
      </trkpt>
      <trkpt lat="47.84952" lon="-0.9318">
        <ele>67.5</ele>
        <time>2020-12-20T11:31:01Z</time>
      </trkpt>
      <trkpt lat="47.84948" lon="-0.9319">
        <ele>67.2</ele>
        <time>2020-12-20T11:31:02Z</time>
      </trkpt>
      <trkpt lat="47.84944" lon="-0.932">
        <ele>66.9</ele>
        <time>2020-12-20T11:31:03Z</time>
      </trkpt>
      <trkpt lat="47.84944" lon="-0.93207">
        <ele>66.7</ele>
        <time>2020-12-20T11:31:04Z</time>
      </trkpt>
      <trkpt lat="47.84943" lon="-0.93214">
        <ele>66.5</ele>
        <time>2020-12-20T11:31:05Z</time>
      </trkpt>
      <trkpt lat="47.8494" lon="-0.93221">
        <ele>66.3</ele>
        <time>2020-12-20T11:31:06Z</time>
      </trkpt>
      <trkpt lat="47.84939" lon="-0.93226">
        <ele>66.2</ele>
        <time>2020-12-20T11:31:07Z</time>
      </trkpt>
      <trkpt lat="47.84937" lon="-0.93233">
        <ele>66</ele>
        <time>2020-12-20T11:31:08Z</time>
      </trkpt>
      <trkpt lat="47.84934" lon="-0.93241">
        <ele>65.8</ele>
        <time>2020-12-20T11:31:09Z</time>
      </trkpt>
      <trkpt lat="47.84932" lon="-0.93249">
        <ele>65.7</ele>
        <time>2020-12-20T11:31:10Z</time>
      </trkpt>
      <trkpt lat="47.8493" lon="-0.93257">
        <ele>65.5</ele>
        <time>2020-12-20T11:31:11Z</time>
      </trkpt>
      <trkpt lat="47.84927" lon="-0.93267">
        <ele>65.3</ele>
        <time>2020-12-20T11:31:12Z</time>
      </trkpt>
      <trkpt lat="47.84924" lon="-0.93276">
        <ele>65.2</ele>
        <time>2020-12-20T11:31:13Z</time>
      </trkpt>
      <trkpt lat="47.84922" lon="-0.93284">
        <ele>65.1</ele>
        <time>2020-12-20T11:31:14Z</time>
      </trkpt>
      <trkpt lat="47.84919" lon="-0.93292">
        <ele>64.9</ele>
        <time>2020-12-20T11:31:15Z</time>
      </trkpt>
      <trkpt lat="47.84917" lon="-0.93301">
        <ele>64.8</ele>
        <time>2020-12-20T11:31:16Z</time>
      </trkpt>
      <trkpt lat="47.84914" lon="-0.9331">
        <ele>64.6</ele>
        <time>2020-12-20T11:31:17Z</time>
      </trkpt>
      <trkpt lat="47.84913" lon="-0.93317">
        <ele>64.5</ele>
        <time>2020-12-20T11:31:18Z</time>
      </trkpt>
      <trkpt lat="47.84912" lon="-0.93324">
        <ele>64.3</ele>
        <time>2020-12-20T11:31:19Z</time>
      </trkpt>
      <trkpt lat="47.84911" lon="-0.93331">
        <ele>64.2</ele>
        <time>2020-12-20T11:31:20Z</time>
      </trkpt>
      <trkpt lat="47.84911" lon="-0.93337">
        <ele>64</ele>
        <time>2020-12-20T11:31:21Z</time>
      </trkpt>
      <trkpt lat="47.84911" lon="-0.93345">
        <ele>63.8</ele>
        <time>2020-12-20T11:31:22Z</time>
      </trkpt>
      <trkpt lat="47.8491" lon="-0.93351">
        <ele>63.7</ele>
        <time>2020-12-20T11:31:23Z</time>
      </trkpt>
      <trkpt lat="47.84909" lon="-0.93357">
        <ele>63.6</ele>
        <time>2020-12-20T11:31:24Z</time>
      </trkpt>
      <trkpt lat="47.84908" lon="-0.93362">
        <ele>63.5</ele>
        <time>2020-12-20T11:31:25Z</time>
      </trkpt>
      <trkpt lat="47.84906" lon="-0.93368">
        <ele>63.4</ele>
        <time>2020-12-20T11:31:26Z</time>
      </trkpt>
      <trkpt lat="47.84906" lon="-0.93375">
        <ele>63.2</ele>
        <time>2020-12-20T11:31:27Z</time>
      </trkpt>
      <trkpt lat="47.84905" lon="-0.93383">
        <ele>63</ele>
        <time>2020-12-20T11:31:28Z</time>
      </trkpt>
      <trkpt lat="47.84904" lon="-0.93391">
        <ele>62.8</ele>
        <time>2020-12-20T11:31:29Z</time>
      </trkpt>
      <trkpt lat="47.84903" lon="-0.93399">
        <ele>62.6</ele>
        <time>2020-12-20T11:31:30Z</time>
      </trkpt>
      <trkpt lat="47.84902" lon="-0.93406">
        <ele>62.5</ele>
        <time>2020-12-20T11:31:31Z</time>
      </trkpt>
      <trkpt lat="47.84902" lon="-0.93414">
        <ele>62.2</ele>
        <time>2020-12-20T11:31:32Z</time>
      </trkpt>
      <trkpt lat="47.84901" lon="-0.93422">
        <ele>62.1</ele>
        <time>2020-12-20T11:31:33Z</time>
      </trkpt>
      <trkpt lat="47.849" lon="-0.93431">
        <ele>61.9</ele>
        <time>2020-12-20T11:31:34Z</time>
      </trkpt>
      <trkpt lat="47.84899" lon="-0.93439">
        <ele>61.7</ele>
        <time>2020-12-20T11:31:35Z</time>
      </trkpt>
      <trkpt lat="47.84898" lon="-0.93447">
        <ele>61.6</ele>
        <time>2020-12-20T11:31:36Z</time>
      </trkpt>
      <trkpt lat="47.84898" lon="-0.93454">
        <ele>61.4</ele>
        <time>2020-12-20T11:31:37Z</time>
      </trkpt>
      <trkpt lat="47.84897" lon="-0.93461">
        <ele>61.3</ele>
        <time>2020-12-20T11:31:38Z</time>
      </trkpt>
      <trkpt lat="47.84896" lon="-0.93468">
        <ele>61.2</ele>
        <time>2020-12-20T11:31:39Z</time>
      </trkpt>
      <trkpt lat="47.84895" lon="-0.93476">
        <ele>61</ele>
        <time>2020-12-20T11:31:40Z</time>
      </trkpt>
      <trkpt lat="47.84894" lon="-0.93483">
        <ele>60.9</ele>
        <time>2020-12-20T11:31:41Z</time>
      </trkpt>
      <trkpt lat="47.84894" lon="-0.9349">
        <ele>60.8</ele>
        <time>2020-12-20T11:31:42Z</time>
      </trkpt>
      <trkpt lat="47.84894" lon="-0.93497">
        <ele>60.6</ele>
        <time>2020-12-20T11:31:43Z</time>
      </trkpt>
      <trkpt lat="47.84893" lon="-0.93504">
        <ele>60.6</ele>
        <time>2020-12-20T11:31:44Z</time>
      </trkpt>
      <trkpt lat="47.84893" lon="-0.93511">
        <ele>60.7</ele>
        <time>2020-12-20T11:31:45Z</time>
      </trkpt>
      <trkpt lat="47.84893" lon="-0.93518">
        <ele>60.8</ele>
        <time>2020-12-20T11:31:46Z</time>
      </trkpt>
      <trkpt lat="47.84893" lon="-0.93524">
        <ele>60.9</ele>
        <time>2020-12-20T11:31:47Z</time>
      </trkpt>
      <trkpt lat="47.84892" lon="-0.93532">
        <ele>61</ele>
        <time>2020-12-20T11:31:48Z</time>
      </trkpt>
      <trkpt lat="47.84892" lon="-0.93538">
        <ele>61.1</ele>
        <time>2020-12-20T11:31:49Z</time>
      </trkpt>
      <trkpt lat="47.84892" lon="-0.93544">
        <ele>61.2</ele>
        <time>2020-12-20T11:31:50Z</time>
      </trkpt>
      <trkpt lat="47.84891" lon="-0.93551">
        <ele>61.3</ele>
        <time>2020-12-20T11:31:51Z</time>
      </trkpt>
      <trkpt lat="47.84891" lon="-0.93558">
        <ele>61.4</ele>
        <time>2020-12-20T11:31:52Z</time>
      </trkpt>
      <trkpt lat="47.84891" lon="-0.93566">
        <ele>61.5</ele>
        <time>2020-12-20T11:31:53Z</time>
      </trkpt>
      <trkpt lat="47.84891" lon="-0.93574">
        <ele>61.6</ele>
        <time>2020-12-20T11:31:54Z</time>
      </trkpt>
      <trkpt lat="47.84889" lon="-0.93581">
        <ele>61.6</ele>
        <time>2020-12-20T11:31:55Z</time>
      </trkpt>
      <trkpt lat="47.84888" lon="-0.93587">
        <ele>61.5</ele>
        <time>2020-12-20T11:31:56Z</time>
      </trkpt>
      <trkpt lat="47.84886" lon="-0.93594">
        <ele>61.3</ele>
        <time>2020-12-20T11:31:57Z</time>
      </trkpt>
      <trkpt lat="47.84886" lon="-0.93601">
        <ele>61.1</ele>
        <time>2020-12-20T11:31:58Z</time>
      </trkpt>
      <trkpt lat="47.84884" lon="-0.93608">
        <ele>60.8</ele>
        <time>2020-12-20T11:31:59Z</time>
      </trkpt>
      <trkpt lat="47.84882" lon="-0.93615">
        <ele>60.6</ele>
        <time>2020-12-20T11:32:00Z</time>
      </trkpt>
      <trkpt lat="47.8488" lon="-0.93622">
        <ele>60.4</ele>
        <time>2020-12-20T11:32:01Z</time>
      </trkpt>
      <trkpt lat="47.84878" lon="-0.9363">
        <ele>60.1</ele>
        <time>2020-12-20T11:32:02Z</time>
      </trkpt>
      <trkpt lat="47.84876" lon="-0.93637">
        <ele>59.9</ele>
        <time>2020-12-20T11:32:03Z</time>
      </trkpt>
      <trkpt lat="47.84874" lon="-0.93646">
        <ele>59.6</ele>
        <time>2020-12-20T11:32:04Z</time>
      </trkpt>
      <trkpt lat="47.84871" lon="-0.93654">
        <ele>59.4</ele>
        <time>2020-12-20T11:32:05Z</time>
      </trkpt>
      <trkpt lat="47.84868" lon="-0.93663">
        <ele>59.1</ele>
        <time>2020-12-20T11:32:06Z</time>
      </trkpt>
      <trkpt lat="47.84865" lon="-0.9367">
        <ele>58.9</ele>
        <time>2020-12-20T11:32:07Z</time>
      </trkpt>
      <trkpt lat="47.84862" lon="-0.93677">
        <ele>58.6</ele>
        <time>2020-12-20T11:32:08Z</time>
      </trkpt>
      <trkpt lat="47.8486" lon="-0.93684">
        <ele>58.4</ele>
        <time>2020-12-20T11:32:09Z</time>
      </trkpt>
      <trkpt lat="47.84857" lon="-0.93691">
        <ele>58.1</ele>
        <time>2020-12-20T11:32:10Z</time>
      </trkpt>
      <trkpt lat="47.84854" lon="-0.93699">
        <ele>57.8</ele>
        <time>2020-12-20T11:32:11Z</time>
      </trkpt>
      <trkpt lat="47.84851" lon="-0.93706">
        <ele>57.6</ele>
        <time>2020-12-20T11:32:12Z</time>
      </trkpt>
      <trkpt lat="47.84848" lon="-0.93713">
        <ele>57.3</ele>
        <time>2020-12-20T11:32:13Z</time>
      </trkpt>
      <trkpt lat="47.84844" lon="-0.93719">
        <ele>57.1</ele>
        <time>2020-12-20T11:32:14Z</time>
      </trkpt>
      <trkpt lat="47.84841" lon="-0.93725">
        <ele>56.9</ele>
        <time>2020-12-20T11:32:15Z</time>
      </trkpt>
      <trkpt lat="47.84838" lon="-0.9373">
        <ele>56.7</ele>
        <time>2020-12-20T11:32:16Z</time>
      </trkpt>
      <trkpt lat="47.84834" lon="-0.93735">
        <ele>56.5</ele>
        <time>2020-12-20T11:32:17Z</time>
      </trkpt>
      <trkpt lat="47.84831" lon="-0.93739">
        <ele>56.4</ele>
        <time>2020-12-20T11:32:18Z</time>
      </trkpt>
      <trkpt lat="47.84827" lon="-0.93742">
        <ele>56.3</ele>
        <time>2020-12-20T11:32:19Z</time>
      </trkpt>
      <trkpt lat="47.84822" lon="-0.93745">
        <ele>56.2</ele>
        <time>2020-12-20T11:32:20Z</time>
      </trkpt>
      <trkpt lat="47.84817" lon="-0.93747">
        <ele>56.1</ele>
        <time>2020-12-20T11:32:21Z</time>
      </trkpt>
      <trkpt lat="47.84812" lon="-0.93749">
        <ele>56</ele>
        <time>2020-12-20T11:32:22Z</time>
      </trkpt>
      <trkpt lat="47.84806" lon="-0.9375">
        <ele>56</ele>
        <time>2020-12-20T11:32:23Z</time>
      </trkpt>
      <trkpt lat="47.848" lon="-0.93752">
        <ele>55.9</ele>
        <time>2020-12-20T11:32:24Z</time>
      </trkpt>
      <trkpt lat="47.84795" lon="-0.93754">
        <ele>55.9</ele>
        <time>2020-12-20T11:32:25Z</time>
      </trkpt>
      <trkpt lat="47.84789" lon="-0.93755">
        <ele>55.8</ele>
        <time>2020-12-20T11:32:26Z</time>
      </trkpt>
      <trkpt lat="47.84783" lon="-0.93757">
        <ele>55.7</ele>
        <time>2020-12-20T11:32:27Z</time>
      </trkpt>
      <trkpt lat="47.84778" lon="-0.93758">
        <ele>55.7</ele>
        <time>2020-12-20T11:32:28Z</time>
      </trkpt>
      <trkpt lat="47.84772" lon="-0.9376">
        <ele>55.6</ele>
        <time>2020-12-20T11:32:29Z</time>
      </trkpt>
      <trkpt lat="47.84767" lon="-0.93761">
        <ele>55.5</ele>
        <time>2020-12-20T11:32:30Z</time>
      </trkpt>
      <trkpt lat="47.84762" lon="-0.93763">
        <ele>55.4</ele>
        <time>2020-12-20T11:32:31Z</time>
      </trkpt>
      <trkpt lat="47.84757" lon="-0.93765">
        <ele>55.3</ele>
        <time>2020-12-20T11:32:32Z</time>
      </trkpt>
      <trkpt lat="47.84752" lon="-0.93767">
        <ele>55.2</ele>
        <time>2020-12-20T11:32:33Z</time>
      </trkpt>
      <trkpt lat="47.84747" lon="-0.93769">
        <ele>55.1</ele>
        <time>2020-12-20T11:32:34Z</time>
      </trkpt>
      <trkpt lat="47.84742" lon="-0.93771">
        <ele>55</ele>
        <time>2020-12-20T11:32:35Z</time>
      </trkpt>
      <trkpt lat="47.84736" lon="-0.93772">
        <ele>54.9</ele>
        <time>2020-12-20T11:32:36Z</time>
      </trkpt>
      <trkpt lat="47.84731" lon="-0.93773">
        <ele>54.9</ele>
        <time>2020-12-20T11:32:37Z</time>
      </trkpt>
      <trkpt lat="47.84726" lon="-0.93773">
        <ele>54.8</ele>
        <time>2020-12-20T11:32:38Z</time>
      </trkpt>
      <trkpt lat="47.84721" lon="-0.93773">
        <ele>54.8</ele>
        <time>2020-12-20T11:32:39Z</time>
      </trkpt>
      <trkpt lat="47.84717" lon="-0.93773">
        <ele>54.8</ele>
        <time>2020-12-20T11:32:40Z</time>
      </trkpt>
      <trkpt lat="47.84712" lon="-0.93773">
        <ele>54.8</ele>
        <time>2020-12-20T11:32:41Z</time>
      </trkpt>
      <trkpt lat="47.84708" lon="-0.93773">
        <ele>54.8</ele>
        <time>2020-12-20T11:32:42Z</time>
      </trkpt>
      <trkpt lat="47.84704" lon="-0.93773">
        <ele>54.8</ele>
        <time>2020-12-20T11:32:43Z</time>
      </trkpt>
      <trkpt lat="47.847" lon="-0.93772">
        <ele>54.8</ele>
        <time>2020-12-20T11:32:44Z</time>
      </trkpt>
      <trkpt lat="47.84696" lon="-0.93772">
        <ele>54.8</ele>
        <time>2020-12-20T11:32:45Z</time>
      </trkpt>
      <trkpt lat="47.84692" lon="-0.93772">
        <ele>54.8</ele>
        <time>2020-12-20T11:32:46Z</time>
      </trkpt>
      <trkpt lat="47.84689" lon="-0.93772">
        <ele>54.8</ele>
        <time>2020-12-20T11:32:47Z</time>
      </trkpt>
      <trkpt lat="47.84685" lon="-0.93773">
        <ele>54.8</ele>
        <time>2020-12-20T11:32:48Z</time>
      </trkpt>
      <trkpt lat="47.84682" lon="-0.93775">
        <ele>54.7</ele>
        <time>2020-12-20T11:32:49Z</time>
      </trkpt>
      <trkpt lat="47.84681" lon="-0.93778">
        <ele>54.7</ele>
        <time>2020-12-20T11:32:50Z</time>
      </trkpt>
      <trkpt lat="47.8468" lon="-0.93782">
        <ele>54.6</ele>
        <time>2020-12-20T11:32:51Z</time>
      </trkpt>
      <trkpt lat="47.84679" lon="-0.93788">
        <ele>54.5</ele>
        <time>2020-12-20T11:32:52Z</time>
      </trkpt>
      <trkpt lat="47.84679" lon="-0.93796">
        <ele>54.4</ele>
        <time>2020-12-20T11:32:53Z</time>
      </trkpt>
      <trkpt lat="47.8468" lon="-0.93805">
        <ele>54.2</ele>
        <time>2020-12-20T11:32:54Z</time>
      </trkpt>
      <trkpt lat="47.8468" lon="-0.93815">
        <ele>54</ele>
        <time>2020-12-20T11:32:55Z</time>
      </trkpt>
      <trkpt lat="47.84681" lon="-0.93824">
        <ele>53.8</ele>
        <time>2020-12-20T11:32:56Z</time>
      </trkpt>
      <trkpt lat="47.84681" lon="-0.93832">
        <ele>53.7</ele>
        <time>2020-12-20T11:32:57Z</time>
      </trkpt>
      <trkpt lat="47.84682" lon="-0.93842">
        <ele>53.8</ele>
        <time>2020-12-20T11:32:58Z</time>
      </trkpt>
      <trkpt lat="47.84682" lon="-0.93851">
        <ele>53.9</ele>
        <time>2020-12-20T11:32:59Z</time>
      </trkpt>
      <trkpt lat="47.84683" lon="-0.9386">
        <ele>54</ele>
        <time>2020-12-20T11:33:00Z</time>
      </trkpt>
      <trkpt lat="47.84683" lon="-0.93869">
        <ele>54.1</ele>
        <time>2020-12-20T11:33:01Z</time>
      </trkpt>
      <trkpt lat="47.84683" lon="-0.93878">
        <ele>54.3</ele>
        <time>2020-12-20T11:33:02Z</time>
      </trkpt>
      <trkpt lat="47.84684" lon="-0.93888">
        <ele>54.4</ele>
        <time>2020-12-20T11:33:03Z</time>
      </trkpt>
      <trkpt lat="47.84684" lon="-0.93897">
        <ele>54.5</ele>
        <time>2020-12-20T11:33:04Z</time>
      </trkpt>
      <trkpt lat="47.84684" lon="-0.93907">
        <ele>54.6</ele>
        <time>2020-12-20T11:33:05Z</time>
      </trkpt>
      <trkpt lat="47.84685" lon="-0.93917">
        <ele>54.7</ele>
        <time>2020-12-20T11:33:06Z</time>
      </trkpt>
      <trkpt lat="47.84685" lon="-0.93926">
        <ele>54.4</ele>
        <time>2020-12-20T11:33:07Z</time>
      </trkpt>
      <trkpt lat="47.84685" lon="-0.93936">
        <ele>54.1</ele>
        <time>2020-12-20T11:33:08Z</time>
      </trkpt>
      <trkpt lat="47.84685" lon="-0.93945">
        <ele>53.9</ele>
        <time>2020-12-20T11:33:09Z</time>
      </trkpt>
      <trkpt lat="47.84685" lon="-0.93953">
        <ele>53.7</ele>
        <time>2020-12-20T11:33:10Z</time>
      </trkpt>
      <trkpt lat="47.84686" lon="-0.93962">
        <ele>53.4</ele>
        <time>2020-12-20T11:33:11Z</time>
      </trkpt>
      <trkpt lat="47.84686" lon="-0.9397">
        <ele>53.1</ele>
        <time>2020-12-20T11:33:12Z</time>
      </trkpt>
      <trkpt lat="47.84688" lon="-0.93978">
        <ele>52.8</ele>
        <time>2020-12-20T11:33:13Z</time>
      </trkpt>
      <trkpt lat="47.8469" lon="-0.93985">
        <ele>52.5</ele>
        <time>2020-12-20T11:33:14Z</time>
      </trkpt>
      <trkpt lat="47.84692" lon="-0.93993">
        <ele>52.3</ele>
        <time>2020-12-20T11:33:15Z</time>
      </trkpt>
      <trkpt lat="47.84693" lon="-0.94001">
        <ele>52</ele>
        <time>2020-12-20T11:33:16Z</time>
      </trkpt>
      <trkpt lat="47.84693" lon="-0.94008">
        <ele>52</ele>
        <time>2020-12-20T11:33:17Z</time>
      </trkpt>
      <trkpt lat="47.84691" lon="-0.94014">
        <ele>51.9</ele>
        <time>2020-12-20T11:33:18Z</time>
      </trkpt>
      <trkpt lat="47.84688" lon="-0.94018">
        <ele>52</ele>
        <time>2020-12-20T11:33:19Z</time>
      </trkpt>
      <trkpt lat="47.84685" lon="-0.9402">
        <ele>52</ele>
        <time>2020-12-20T11:33:20Z</time>
      </trkpt>
      <trkpt lat="47.8468" lon="-0.94019">
        <ele>52.2</ele>
        <time>2020-12-20T11:33:21Z</time>
      </trkpt>
      <trkpt lat="47.84674" lon="-0.94019">
        <ele>52.3</ele>
        <time>2020-12-20T11:33:22Z</time>
      </trkpt>
      <trkpt lat="47.84668" lon="-0.94019">
        <ele>52.5</ele>
        <time>2020-12-20T11:33:23Z</time>
      </trkpt>
      <trkpt lat="47.84661" lon="-0.94019">
        <ele>52.5</ele>
        <time>2020-12-20T11:33:24Z</time>
      </trkpt>
      <trkpt lat="47.84654" lon="-0.9402">
        <ele>52.4</ele>
        <time>2020-12-20T11:33:25Z</time>
      </trkpt>
      <trkpt lat="47.84648" lon="-0.9402">
        <ele>52.3</ele>
        <time>2020-12-20T11:33:26Z</time>
      </trkpt>
      <trkpt lat="47.84641" lon="-0.94019">
        <ele>52.3</ele>
        <time>2020-12-20T11:33:27Z</time>
      </trkpt>
      <trkpt lat="47.84635" lon="-0.94019">
        <ele>52.3</ele>
        <time>2020-12-20T11:33:28Z</time>
      </trkpt>
      <trkpt lat="47.84629" lon="-0.94018">
        <ele>52.2</ele>
        <time>2020-12-20T11:33:29Z</time>
      </trkpt>
      <trkpt lat="47.84623" lon="-0.94017">
        <ele>52.2</ele>
        <time>2020-12-20T11:33:30Z</time>
      </trkpt>
      <trkpt lat="47.84616" lon="-0.94016">
        <ele>52.1</ele>
        <time>2020-12-20T11:33:31Z</time>
      </trkpt>
      <trkpt lat="47.8461" lon="-0.94016">
        <ele>52.1</ele>
        <time>2020-12-20T11:33:32Z</time>
      </trkpt>
      <trkpt lat="47.84604" lon="-0.94015">
        <ele>52</ele>
        <time>2020-12-20T11:33:33Z</time>
      </trkpt>
      <trkpt lat="47.84598" lon="-0.94014">
        <ele>52</ele>
        <time>2020-12-20T11:33:34Z</time>
      </trkpt>
      <trkpt lat="47.84591" lon="-0.94014">
        <ele>51.9</ele>
        <time>2020-12-20T11:33:35Z</time>
      </trkpt>
      <trkpt lat="47.84585" lon="-0.94014">
        <ele>51.8</ele>
        <time>2020-12-20T11:33:36Z</time>
      </trkpt>
      <trkpt lat="47.84579" lon="-0.94012">
        <ele>51.9</ele>
        <time>2020-12-20T11:33:37Z</time>
      </trkpt>
      <trkpt lat="47.84573" lon="-0.94011">
        <ele>52</ele>
        <time>2020-12-20T11:33:38Z</time>
      </trkpt>
      <trkpt lat="47.84568" lon="-0.9401">
        <ele>52.1</ele>
        <time>2020-12-20T11:33:39Z</time>
      </trkpt>
      <trkpt lat="47.84562" lon="-0.94009">
        <ele>52.2</ele>
        <time>2020-12-20T11:33:40Z</time>
      </trkpt>
      <trkpt lat="47.84557" lon="-0.94008">
        <ele>52.3</ele>
        <time>2020-12-20T11:33:41Z</time>
      </trkpt>
      <trkpt lat="47.84552" lon="-0.94006">
        <ele>52.4</ele>
        <time>2020-12-20T11:33:42Z</time>
      </trkpt>
      <trkpt lat="47.84546" lon="-0.94005">
        <ele>52.4</ele>
        <time>2020-12-20T11:33:43Z</time>
      </trkpt>
      <trkpt lat="47.84541" lon="-0.94004">
        <ele>52.5</ele>
        <time>2020-12-20T11:33:44Z</time>
      </trkpt>
      <trkpt lat="47.84536" lon="-0.94002">
        <ele>52.6</ele>
        <time>2020-12-20T11:33:45Z</time>
      </trkpt>
      <trkpt lat="47.84531" lon="-0.94001">
        <ele>52.6</ele>
        <time>2020-12-20T11:33:46Z</time>
      </trkpt>
      <trkpt lat="47.84526" lon="-0.93999">
        <ele>52.7</ele>
        <time>2020-12-20T11:33:47Z</time>
      </trkpt>
      <trkpt lat="47.8452" lon="-0.93998">
        <ele>52.8</ele>
        <time>2020-12-20T11:33:48Z</time>
      </trkpt>
      <trkpt lat="47.84516" lon="-0.93996">
        <ele>52.9</ele>
        <time>2020-12-20T11:33:49Z</time>
      </trkpt>
      <trkpt lat="47.84511" lon="-0.93995">
        <ele>52.9</ele>
        <time>2020-12-20T11:33:50Z</time>
      </trkpt>
      <trkpt lat="47.84507" lon="-0.93994">
        <ele>53</ele>
        <time>2020-12-20T11:33:51Z</time>
      </trkpt>
      <trkpt lat="47.84502" lon="-0.93992">
        <ele>53.1</ele>
        <time>2020-12-20T11:33:52Z</time>
      </trkpt>
      <trkpt lat="47.84497" lon="-0.93991">
        <ele>53.1</ele>
        <time>2020-12-20T11:33:53Z</time>
      </trkpt>
      <trkpt lat="47.84493" lon="-0.9399">
        <ele>53.2</ele>
        <time>2020-12-20T11:33:54Z</time>
      </trkpt>
      <trkpt lat="47.84489" lon="-0.93989">
        <ele>53.3</ele>
        <time>2020-12-20T11:33:55Z</time>
      </trkpt>
      <trkpt lat="47.84485" lon="-0.93987">
        <ele>53.4</ele>
        <time>2020-12-20T11:33:56Z</time>
      </trkpt>
      <trkpt lat="47.84481" lon="-0.93985">
        <ele>53.4</ele>
        <time>2020-12-20T11:33:57Z</time>
      </trkpt>
      <trkpt lat="47.84477" lon="-0.93984">
        <ele>53.5</ele>
        <time>2020-12-20T11:33:58Z</time>
      </trkpt>
      <trkpt lat="47.84474" lon="-0.93982">
        <ele>53.6</ele>
        <time>2020-12-20T11:33:59Z</time>
      </trkpt>
      <trkpt lat="47.84471" lon="-0.9398">
        <ele>53.7</ele>
        <time>2020-12-20T11:34:00Z</time>
      </trkpt>
      <trkpt lat="47.84467" lon="-0.93979">
        <ele>53.7</ele>
        <time>2020-12-20T11:34:01Z</time>
      </trkpt>
      <trkpt lat="47.84464" lon="-0.93977">
        <ele>53.8</ele>
        <time>2020-12-20T11:34:02Z</time>
      </trkpt>
      <trkpt lat="47.84461" lon="-0.93976">
        <ele>53.9</ele>
        <time>2020-12-20T11:34:03Z</time>
      </trkpt>
      <trkpt lat="47.84457" lon="-0.93975">
        <ele>54</ele>
        <time>2020-12-20T11:34:04Z</time>
      </trkpt>
      <trkpt lat="47.84454" lon="-0.93974">
        <ele>54</ele>
        <time>2020-12-20T11:34:05Z</time>
      </trkpt>
      <trkpt lat="47.8445" lon="-0.93973">
        <ele>54.1</ele>
        <time>2020-12-20T11:34:06Z</time>
      </trkpt>
      <trkpt lat="47.84446" lon="-0.93972">
        <ele>54.2</ele>
        <time>2020-12-20T11:34:07Z</time>
      </trkpt>
      <trkpt lat="47.84443" lon="-0.93971">
        <ele>54.3</ele>
        <time>2020-12-20T11:34:08Z</time>
      </trkpt>
      <trkpt lat="47.84439" lon="-0.9397">
        <ele>54.4</ele>
        <time>2020-12-20T11:34:09Z</time>
      </trkpt>
      <trkpt lat="47.84435" lon="-0.9397">
        <ele>54.4</ele>
        <time>2020-12-20T11:34:10Z</time>
      </trkpt>
      <trkpt lat="47.84431" lon="-0.9397">
        <ele>54.5</ele>
        <time>2020-12-20T11:34:11Z</time>
      </trkpt>
      <trkpt lat="47.84426" lon="-0.93971">
        <ele>54.5</ele>
        <time>2020-12-20T11:34:12Z</time>
      </trkpt>
      <trkpt lat="47.84421" lon="-0.93972">
        <ele>54.6</ele>
        <time>2020-12-20T11:34:13Z</time>
      </trkpt>
      <trkpt lat="47.84415" lon="-0.93973">
        <ele>54.7</ele>
        <time>2020-12-20T11:34:14Z</time>
      </trkpt>
      <trkpt lat="47.8441" lon="-0.93976">
        <ele>54.6</ele>
        <time>2020-12-20T11:34:15Z</time>
      </trkpt>
      <trkpt lat="47.84406" lon="-0.93979">
        <ele>54.6</ele>
        <time>2020-12-20T11:34:16Z</time>
      </trkpt>
      <trkpt lat="47.84403" lon="-0.93983">
        <ele>54.5</ele>
        <time>2020-12-20T11:34:17Z</time>
      </trkpt>
      <trkpt lat="47.84399" lon="-0.93987">
        <ele>54.5</ele>
        <time>2020-12-20T11:34:18Z</time>
      </trkpt>
      <trkpt lat="47.84395" lon="-0.93992">
        <ele>54.4</ele>
        <time>2020-12-20T11:34:19Z</time>
      </trkpt>
      <trkpt lat="47.84391" lon="-0.93997">
        <ele>54.4</ele>
        <time>2020-12-20T11:34:20Z</time>
      </trkpt>
      <trkpt lat="47.84386" lon="-0.94002">
        <ele>54.3</ele>
        <time>2020-12-20T11:34:21Z</time>
      </trkpt>
      <trkpt lat="47.84382" lon="-0.94008">
        <ele>54.2</ele>
        <time>2020-12-20T11:34:22Z</time>
      </trkpt>
      <trkpt lat="47.84379" lon="-0.94013">
        <ele>54.1</ele>
        <time>2020-12-20T11:34:23Z</time>
      </trkpt>
      <trkpt lat="47.84376" lon="-0.94019">
        <ele>53.9</ele>
        <time>2020-12-20T11:34:24Z</time>
      </trkpt>
      <trkpt lat="47.84373" lon="-0.94024">
        <ele>53.8</ele>
        <time>2020-12-20T11:34:25Z</time>
      </trkpt>
      <trkpt lat="47.84369" lon="-0.9403">
        <ele>53.6</ele>
        <time>2020-12-20T11:34:26Z</time>
      </trkpt>
      <trkpt lat="47.84366" lon="-0.94036">
        <ele>53.5</ele>
        <time>2020-12-20T11:34:27Z</time>
      </trkpt>
      <trkpt lat="47.84363" lon="-0.94041">
        <ele>53.3</ele>
        <time>2020-12-20T11:34:28Z</time>
      </trkpt>
      <trkpt lat="47.84359" lon="-0.94046">
        <ele>53.2</ele>
        <time>2020-12-20T11:34:29Z</time>
      </trkpt>
      <trkpt lat="47.84356" lon="-0.9405">
        <ele>53.1</ele>
        <time>2020-12-20T11:34:30Z</time>
      </trkpt>
      <trkpt lat="47.84353" lon="-0.94056">
        <ele>52.9</ele>
        <time>2020-12-20T11:34:31Z</time>
      </trkpt>
      <trkpt lat="47.8435" lon="-0.94061">
        <ele>52.8</ele>
        <time>2020-12-20T11:34:32Z</time>
      </trkpt>
      <trkpt lat="47.84347" lon="-0.94066">
        <ele>52.6</ele>
        <time>2020-12-20T11:34:33Z</time>
      </trkpt>
      <trkpt lat="47.84344" lon="-0.94071">
        <ele>52.4</ele>
        <time>2020-12-20T11:34:34Z</time>
      </trkpt>
      <trkpt lat="47.84342" lon="-0.94075">
        <ele>52.3</ele>
        <time>2020-12-20T11:34:35Z</time>
      </trkpt>
      <trkpt lat="47.84339" lon="-0.94079">
        <ele>52.2</ele>
        <time>2020-12-20T11:34:36Z</time>
      </trkpt>
      <trkpt lat="47.84336" lon="-0.94083">
        <ele>52</ele>
        <time>2020-12-20T11:34:37Z</time>
      </trkpt>
      <trkpt lat="47.84334" lon="-0.94086">
        <ele>52</ele>
        <time>2020-12-20T11:34:38Z</time>
      </trkpt>
      <trkpt lat="47.84332" lon="-0.94087">
        <ele>52</ele>
        <time>2020-12-20T11:34:39Z</time>
      </trkpt>
      <trkpt lat="47.84329" lon="-0.94085">
        <ele>52.2</ele>
        <time>2020-12-20T11:34:40Z</time>
      </trkpt>
      <trkpt lat="47.84326" lon="-0.94081">
        <ele>52.4</ele>
        <time>2020-12-20T11:34:41Z</time>
      </trkpt>
      <trkpt lat="47.84322" lon="-0.94076">
        <ele>52.8</ele>
        <time>2020-12-20T11:34:42Z</time>
      </trkpt>
      <trkpt lat="47.84319" lon="-0.94071">
        <ele>53</ele>
        <time>2020-12-20T11:34:43Z</time>
      </trkpt>
      <trkpt lat="47.84317" lon="-0.94065">
        <ele>53.3</ele>
        <time>2020-12-20T11:34:44Z</time>
      </trkpt>
      <trkpt lat="47.84314" lon="-0.94059">
        <ele>53.5</ele>
        <time>2020-12-20T11:34:45Z</time>
      </trkpt>
      <trkpt lat="47.84311" lon="-0.94053">
        <ele>53.8</ele>
        <time>2020-12-20T11:34:46Z</time>
      </trkpt>
      <trkpt lat="47.84308" lon="-0.94048">
        <ele>54</ele>
        <time>2020-12-20T11:34:47Z</time>
      </trkpt>
      <trkpt lat="47.84306" lon="-0.94042">
        <ele>54.1</ele>
        <time>2020-12-20T11:34:48Z</time>
      </trkpt>
      <trkpt lat="47.84304" lon="-0.94036">
        <ele>54.3</ele>
        <time>2020-12-20T11:34:49Z</time>
      </trkpt>
      <trkpt lat="47.84301" lon="-0.94031">
        <ele>54.5</ele>
        <time>2020-12-20T11:34:50Z</time>
      </trkpt>
      <trkpt lat="47.84298" lon="-0.94025">
        <ele>54.6</ele>
        <time>2020-12-20T11:34:51Z</time>
      </trkpt>
      <trkpt lat="47.84296" lon="-0.94019">
        <ele>54.7</ele>
        <time>2020-12-20T11:34:52Z</time>
      </trkpt>
      <trkpt lat="47.84293" lon="-0.94014">
        <ele>54.8</ele>
        <time>2020-12-20T11:34:53Z</time>
      </trkpt>
      <trkpt lat="47.84291" lon="-0.94008">
        <ele>54.9</ele>
        <time>2020-12-20T11:34:54Z</time>
      </trkpt>
      <trkpt lat="47.84289" lon="-0.94002">
        <ele>55</ele>
        <time>2020-12-20T11:34:55Z</time>
      </trkpt>
      <trkpt lat="47.84287" lon="-0.93996">
        <ele>55</ele>
        <time>2020-12-20T11:34:56Z</time>
      </trkpt>
      <trkpt lat="47.84285" lon="-0.9399">
        <ele>55.1</ele>
        <time>2020-12-20T11:34:57Z</time>
      </trkpt>
      <trkpt lat="47.84283" lon="-0.93984">
        <ele>55.2</ele>
        <time>2020-12-20T11:34:58Z</time>
      </trkpt>
      <trkpt lat="47.84281" lon="-0.93979">
        <ele>55.3</ele>
        <time>2020-12-20T11:34:59Z</time>
      </trkpt>
      <trkpt lat="47.84279" lon="-0.93974">
        <ele>55.3</ele>
        <time>2020-12-20T11:35:00Z</time>
      </trkpt>
      <trkpt lat="47.84278" lon="-0.93968">
        <ele>55.4</ele>
        <time>2020-12-20T11:35:01Z</time>
      </trkpt>
      <trkpt lat="47.84276" lon="-0.93962">
        <ele>55.5</ele>
        <time>2020-12-20T11:35:02Z</time>
      </trkpt>
      <trkpt lat="47.84274" lon="-0.93956">
        <ele>55.5</ele>
        <time>2020-12-20T11:35:03Z</time>
      </trkpt>
      <trkpt lat="47.84273" lon="-0.93951">
        <ele>55.6</ele>
        <time>2020-12-20T11:35:04Z</time>
      </trkpt>
      <trkpt lat="47.84271" lon="-0.93946">
        <ele>55.6</ele>
        <time>2020-12-20T11:35:05Z</time>
      </trkpt>
      <trkpt lat="47.84268" lon="-0.93941">
        <ele>55.7</ele>
        <time>2020-12-20T11:35:06Z</time>
      </trkpt>
      <trkpt lat="47.84266" lon="-0.93936">
        <ele>55.8</ele>
        <time>2020-12-20T11:35:07Z</time>
      </trkpt>
      <trkpt lat="47.84263" lon="-0.93931">
        <ele>55.8</ele>
        <time>2020-12-20T11:35:08Z</time>
      </trkpt>
      <trkpt lat="47.84261" lon="-0.93926">
        <ele>55.9</ele>
        <time>2020-12-20T11:35:09Z</time>
      </trkpt>
      <trkpt lat="47.84259" lon="-0.9392">
        <ele>56</ele>
        <time>2020-12-20T11:35:10Z</time>
      </trkpt>
      <trkpt lat="47.84257" lon="-0.93915">
        <ele>56</ele>
        <time>2020-12-20T11:35:11Z</time>
      </trkpt>
      <trkpt lat="47.84255" lon="-0.9391">
        <ele>56.2</ele>
        <time>2020-12-20T11:35:12Z</time>
      </trkpt>
      <trkpt lat="47.84253" lon="-0.93905">
        <ele>56.3</ele>
        <time>2020-12-20T11:35:13Z</time>
      </trkpt>
      <trkpt lat="47.84251" lon="-0.939">
        <ele>56.4</ele>
        <time>2020-12-20T11:35:14Z</time>
      </trkpt>
      <trkpt lat="47.84249" lon="-0.93895">
        <ele>56.5</ele>
        <time>2020-12-20T11:35:15Z</time>
      </trkpt>
      <trkpt lat="47.84247" lon="-0.9389">
        <ele>56.6</ele>
        <time>2020-12-20T11:35:16Z</time>
      </trkpt>
      <trkpt lat="47.84245" lon="-0.93884">
        <ele>56.8</ele>
        <time>2020-12-20T11:35:17Z</time>
      </trkpt>
      <trkpt lat="47.84244" lon="-0.93879">
        <ele>56.9</ele>
        <time>2020-12-20T11:35:18Z</time>
      </trkpt>
      <trkpt lat="47.84242" lon="-0.93874">
        <ele>57</ele>
        <time>2020-12-20T11:35:19Z</time>
      </trkpt>
      <trkpt lat="47.84241" lon="-0.93868">
        <ele>57.1</ele>
        <time>2020-12-20T11:35:20Z</time>
      </trkpt>
      <trkpt lat="47.8424" lon="-0.93863">
        <ele>57.2</ele>
        <time>2020-12-20T11:35:21Z</time>
      </trkpt>
      <trkpt lat="47.84238" lon="-0.93857">
        <ele>57.3</ele>
        <time>2020-12-20T11:35:22Z</time>
      </trkpt>
      <trkpt lat="47.84237" lon="-0.93852">
        <ele>57.4</ele>
        <time>2020-12-20T11:35:23Z</time>
      </trkpt>
      <trkpt lat="47.84236" lon="-0.93846">
        <ele>57.6</ele>
        <time>2020-12-20T11:35:24Z</time>
      </trkpt>
      <trkpt lat="47.84235" lon="-0.93841">
        <ele>57.7</ele>
        <time>2020-12-20T11:35:25Z</time>
      </trkpt>
      <trkpt lat="47.84234" lon="-0.93836">
        <ele>57.8</ele>
        <time>2020-12-20T11:35:26Z</time>
      </trkpt>
      <trkpt lat="47.84233" lon="-0.9383">
        <ele>57.9</ele>
        <time>2020-12-20T11:35:27Z</time>
      </trkpt>
      <trkpt lat="47.84232" lon="-0.93825">
        <ele>57.9</ele>
        <time>2020-12-20T11:35:28Z</time>
      </trkpt>
      <trkpt lat="47.84231" lon="-0.9382">
        <ele>58</ele>
        <time>2020-12-20T11:35:29Z</time>
      </trkpt>
      <trkpt lat="47.8423" lon="-0.93814">
        <ele>58.1</ele>
        <time>2020-12-20T11:35:30Z</time>
      </trkpt>
      <trkpt lat="47.8423" lon="-0.93809">
        <ele>58.2</ele>
        <time>2020-12-20T11:35:31Z</time>
      </trkpt>
      <trkpt lat="47.84229" lon="-0.93804">
        <ele>58.3</ele>
        <time>2020-12-20T11:35:32Z</time>
      </trkpt>
      <trkpt lat="47.84228" lon="-0.93799">
        <ele>58.3</ele>
        <time>2020-12-20T11:35:33Z</time>
      </trkpt>
      <trkpt lat="47.84227" lon="-0.93793">
        <ele>58.4</ele>
        <time>2020-12-20T11:35:34Z</time>
      </trkpt>
      <trkpt lat="47.84226" lon="-0.93788">
        <ele>58.5</ele>
        <time>2020-12-20T11:35:35Z</time>
      </trkpt>
      <trkpt lat="47.84225" lon="-0.93782">
        <ele>58.6</ele>
        <time>2020-12-20T11:35:36Z</time>
      </trkpt>
      <trkpt lat="47.84225" lon="-0.93777">
        <ele>58.6</ele>
        <time>2020-12-20T11:35:37Z</time>
      </trkpt>
      <trkpt lat="47.84224" lon="-0.93771">
        <ele>58.7</ele>
        <time>2020-12-20T11:35:38Z</time>
      </trkpt>
      <trkpt lat="47.84223" lon="-0.93765">
        <ele>58.8</ele>
        <time>2020-12-20T11:35:39Z</time>
      </trkpt>
      <trkpt lat="47.84223" lon="-0.9376">
        <ele>58.9</ele>
        <time>2020-12-20T11:35:40Z</time>
      </trkpt>
      <trkpt lat="47.84222" lon="-0.93754">
        <ele>58.9</ele>
        <time>2020-12-20T11:35:41Z</time>
      </trkpt>
      <trkpt lat="47.84222" lon="-0.93748">
        <ele>59</ele>
        <time>2020-12-20T11:35:42Z</time>
      </trkpt>
      <trkpt lat="47.84222" lon="-0.93743">
        <ele>59</ele>
        <time>2020-12-20T11:35:43Z</time>
      </trkpt>
      <trkpt lat="47.84221" lon="-0.93737">
        <ele>59.1</ele>
        <time>2020-12-20T11:35:44Z</time>
      </trkpt>
      <trkpt lat="47.84221" lon="-0.93732">
        <ele>59.1</ele>
        <time>2020-12-20T11:35:45Z</time>
      </trkpt>
      <trkpt lat="47.84221" lon="-0.93726">
        <ele>59.1</ele>
        <time>2020-12-20T11:35:46Z</time>
      </trkpt>
      <trkpt lat="47.84221" lon="-0.93721">
        <ele>59.2</ele>
        <time>2020-12-20T11:35:47Z</time>
      </trkpt>
      <trkpt lat="47.84221" lon="-0.93715">
        <ele>59.2</ele>
        <time>2020-12-20T11:35:48Z</time>
      </trkpt>
      <trkpt lat="47.84221" lon="-0.9371">
        <ele>59.3</ele>
        <time>2020-12-20T11:35:49Z</time>
      </trkpt>
      <trkpt lat="47.84221" lon="-0.93705">
        <ele>59.3</ele>
        <time>2020-12-20T11:35:50Z</time>
      </trkpt>
      <trkpt lat="47.84221" lon="-0.937">
        <ele>59.3</ele>
        <time>2020-12-20T11:35:51Z</time>
      </trkpt>
      <trkpt lat="47.84221" lon="-0.93695">
        <ele>59.4</ele>
        <time>2020-12-20T11:35:52Z</time>
      </trkpt>
      <trkpt lat="47.84221" lon="-0.93691">
        <ele>59.4</ele>
        <time>2020-12-20T11:35:53Z</time>
      </trkpt>
      <trkpt lat="47.84221" lon="-0.93687">
        <ele>59.4</ele>
        <time>2020-12-20T11:35:54Z</time>
      </trkpt>
      <trkpt lat="47.84221" lon="-0.93683">
        <ele>59.5</ele>
        <time>2020-12-20T11:35:55Z</time>
      </trkpt>
      <trkpt lat="47.8422" lon="-0.93679">
        <ele>59.5</ele>
        <time>2020-12-20T11:35:56Z</time>
      </trkpt>
      <trkpt lat="47.84218" lon="-0.93677">
        <ele>59.4</ele>
        <time>2020-12-20T11:35:57Z</time>
      </trkpt>
      <trkpt lat="47.84215" lon="-0.93676">
        <ele>59.3</ele>
        <time>2020-12-20T11:35:58Z</time>
      </trkpt>
      <trkpt lat="47.84211" lon="-0.93676">
        <ele>59.1</ele>
        <time>2020-12-20T11:35:59Z</time>
      </trkpt>
      <trkpt lat="47.84206" lon="-0.93676">
        <ele>58.8</ele>
        <time>2020-12-20T11:36:00Z</time>
      </trkpt>
      <trkpt lat="47.84201" lon="-0.93677">
        <ele>58.6</ele>
        <time>2020-12-20T11:36:01Z</time>
      </trkpt>
      <trkpt lat="47.84198" lon="-0.93677">
        <ele>58.5</ele>
        <time>2020-12-20T11:36:02Z</time>
      </trkpt>
      <trkpt lat="47.84193" lon="-0.93677">
        <ele>58.2</ele>
        <time>2020-12-20T11:36:03Z</time>
      </trkpt>
      <trkpt lat="47.84188" lon="-0.93677">
        <ele>58</ele>
        <time>2020-12-20T11:36:04Z</time>
      </trkpt>
      <trkpt lat="47.84185" lon="-0.93678">
        <ele>57.9</ele>
        <time>2020-12-20T11:36:05Z</time>
      </trkpt>
      <trkpt lat="47.8418" lon="-0.93678">
        <ele>57.6</ele>
        <time>2020-12-20T11:36:06Z</time>
      </trkpt>
      <trkpt lat="47.84177" lon="-0.93678">
        <ele>57.5</ele>
        <time>2020-12-20T11:36:07Z</time>
      </trkpt>
      <trkpt lat="47.84173" lon="-0.93678">
        <ele>57.3</ele>
        <time>2020-12-20T11:36:08Z</time>
      </trkpt>
      <trkpt lat="47.84168" lon="-0.93678">
        <ele>57.1</ele>
        <time>2020-12-20T11:36:09Z</time>
      </trkpt>
      <trkpt lat="47.84164" lon="-0.93678">
        <ele>57</ele>
        <time>2020-12-20T11:36:10Z</time>
      </trkpt>
      <trkpt lat="47.84158" lon="-0.93676">
        <ele>56.9</ele>
        <time>2020-12-20T11:36:11Z</time>
      </trkpt>
      <trkpt lat="47.84154" lon="-0.93673">
        <ele>56.8</ele>
        <time>2020-12-20T11:36:12Z</time>
      </trkpt>
      <trkpt lat="47.8415" lon="-0.93668">
        <ele>56.8</ele>
        <time>2020-12-20T11:36:13Z</time>
      </trkpt>
      <trkpt lat="47.84147" lon="-0.93664">
        <ele>56.8</ele>
        <time>2020-12-20T11:36:14Z</time>
      </trkpt>
      <trkpt lat="47.84145" lon="-0.9366">
        <ele>56.9</ele>
        <time>2020-12-20T11:36:15Z</time>
      </trkpt>
      <trkpt lat="47.84142" lon="-0.93655">
        <ele>56.9</ele>
        <time>2020-12-20T11:36:16Z</time>
      </trkpt>
      <trkpt lat="47.8414" lon="-0.93649">
        <ele>57</ele>
        <time>2020-12-20T11:36:17Z</time>
      </trkpt>
      <trkpt lat="47.84137" lon="-0.93644">
        <ele>57.1</ele>
        <time>2020-12-20T11:36:18Z</time>
      </trkpt>
      <trkpt lat="47.84136" lon="-0.93638">
        <ele>57.2</ele>
        <time>2020-12-20T11:36:19Z</time>
      </trkpt>
      <trkpt lat="47.84133" lon="-0.93634">
        <ele>57.2</ele>
        <time>2020-12-20T11:36:20Z</time>
      </trkpt>
      <trkpt lat="47.8413" lon="-0.93632">
        <ele>57.2</ele>
        <time>2020-12-20T11:36:21Z</time>
      </trkpt>
      <trkpt lat="47.84126" lon="-0.93632">
        <ele>57.1</ele>
        <time>2020-12-20T11:36:22Z</time>
      </trkpt>
      <trkpt lat="47.84123" lon="-0.93634">
        <ele>57.1</ele>
        <time>2020-12-20T11:36:23Z</time>
      </trkpt>
      <trkpt lat="47.84119" lon="-0.93638">
        <ele>56.9</ele>
        <time>2020-12-20T11:36:24Z</time>
      </trkpt>
      <trkpt lat="47.84115" lon="-0.93649">
        <ele>56.7</ele>
        <time>2020-12-20T11:36:26Z</time>
      </trkpt>
      <trkpt lat="47.84114" lon="-0.93656">
        <ele>56.5</ele>
        <time>2020-12-20T11:36:27Z</time>
      </trkpt>
      <trkpt lat="47.84113" lon="-0.93663">
        <ele>56.4</ele>
        <time>2020-12-20T11:36:28Z</time>
      </trkpt>
      <trkpt lat="47.84112" lon="-0.93671">
        <ele>56.3</ele>
        <time>2020-12-20T11:36:29Z</time>
      </trkpt>
      <trkpt lat="47.84112" lon="-0.93679">
        <ele>56.2</ele>
        <time>2020-12-20T11:36:30Z</time>
      </trkpt>
      <trkpt lat="47.84112" lon="-0.93686">
        <ele>56.2</ele>
        <time>2020-12-20T11:36:31Z</time>
      </trkpt>
      <trkpt lat="47.84111" lon="-0.93694">
        <ele>56.1</ele>
        <time>2020-12-20T11:36:32Z</time>
      </trkpt>
      <trkpt lat="47.8411" lon="-0.93701">
        <ele>56</ele>
        <time>2020-12-20T11:36:33Z</time>
      </trkpt>
      <trkpt lat="47.84109" lon="-0.93709">
        <ele>56</ele>
        <time>2020-12-20T11:36:34Z</time>
      </trkpt>
      <trkpt lat="47.84108" lon="-0.93716">
        <ele>55.9</ele>
        <time>2020-12-20T11:36:35Z</time>
      </trkpt>
      <trkpt lat="47.84108" lon="-0.93723">
        <ele>55.8</ele>
        <time>2020-12-20T11:36:36Z</time>
      </trkpt>
      <trkpt lat="47.84107" lon="-0.93731">
        <ele>55.7</ele>
        <time>2020-12-20T11:36:37Z</time>
      </trkpt>
      <trkpt lat="47.84106" lon="-0.93739">
        <ele>55.6</ele>
        <time>2020-12-20T11:36:38Z</time>
      </trkpt>
      <trkpt lat="47.84106" lon="-0.93746">
        <ele>55.6</ele>
        <time>2020-12-20T11:36:39Z</time>
      </trkpt>
      <trkpt lat="47.84105" lon="-0.93754">
        <ele>55.5</ele>
        <time>2020-12-20T11:36:40Z</time>
      </trkpt>
      <trkpt lat="47.84105" lon="-0.93762">
        <ele>55.5</ele>
        <time>2020-12-20T11:36:41Z</time>
      </trkpt>
      <trkpt lat="47.84105" lon="-0.9377">
        <ele>55.5</ele>
        <time>2020-12-20T11:36:42Z</time>
      </trkpt>
      <trkpt lat="47.84105" lon="-0.93778">
        <ele>55.5</ele>
        <time>2020-12-20T11:36:43Z</time>
      </trkpt>
      <trkpt lat="47.84104" lon="-0.93786">
        <ele>55.5</ele>
        <time>2020-12-20T11:36:44Z</time>
      </trkpt>
      <trkpt lat="47.84103" lon="-0.93795">
        <ele>55.5</ele>
        <time>2020-12-20T11:36:45Z</time>
      </trkpt>
      <trkpt lat="47.84103" lon="-0.93803">
        <ele>55.5</ele>
        <time>2020-12-20T11:36:46Z</time>
      </trkpt>
      <trkpt lat="47.84102" lon="-0.93811">
        <ele>55.4</ele>
        <time>2020-12-20T11:36:47Z</time>
      </trkpt>
      <trkpt lat="47.84102" lon="-0.93819">
        <ele>55.4</ele>
        <time>2020-12-20T11:36:48Z</time>
      </trkpt>
      <trkpt lat="47.84103" lon="-0.93826">
        <ele>55.5</ele>
        <time>2020-12-20T11:36:49Z</time>
      </trkpt>
      <trkpt lat="47.84103" lon="-0.93834">
        <ele>55.5</ele>
        <time>2020-12-20T11:36:50Z</time>
      </trkpt>
      <trkpt lat="47.84103" lon="-0.93842">
        <ele>55.5</ele>
        <time>2020-12-20T11:36:51Z</time>
      </trkpt>
      <trkpt lat="47.84103" lon="-0.9385">
        <ele>55.6</ele>
        <time>2020-12-20T11:36:52Z</time>
      </trkpt>
      <trkpt lat="47.84103" lon="-0.93858">
        <ele>55.6</ele>
        <time>2020-12-20T11:36:53Z</time>
      </trkpt>
      <trkpt lat="47.84102" lon="-0.93866">
        <ele>55.7</ele>
        <time>2020-12-20T11:36:54Z</time>
      </trkpt>
      <trkpt lat="47.84102" lon="-0.93874">
        <ele>55.7</ele>
        <time>2020-12-20T11:36:55Z</time>
      </trkpt>
      <trkpt lat="47.84102" lon="-0.93881">
        <ele>55.8</ele>
        <time>2020-12-20T11:36:56Z</time>
      </trkpt>
      <trkpt lat="47.84101" lon="-0.93889">
        <ele>55.8</ele>
        <time>2020-12-20T11:36:57Z</time>
      </trkpt>
      <trkpt lat="47.84101" lon="-0.93897">
        <ele>55.9</ele>
        <time>2020-12-20T11:36:58Z</time>
      </trkpt>
      <trkpt lat="47.841" lon="-0.93905">
        <ele>55.9</ele>
        <time>2020-12-20T11:36:59Z</time>
      </trkpt>
      <trkpt lat="47.841" lon="-0.93913">
        <ele>56</ele>
        <time>2020-12-20T11:37:00Z</time>
      </trkpt>
      <trkpt lat="47.84099" lon="-0.9392">
        <ele>56</ele>
        <time>2020-12-20T11:37:01Z</time>
      </trkpt>
      <trkpt lat="47.84099" lon="-0.93928">
        <ele>56</ele>
        <time>2020-12-20T11:37:02Z</time>
      </trkpt>
      <trkpt lat="47.84098" lon="-0.93935">
        <ele>56</ele>
        <time>2020-12-20T11:37:03Z</time>
      </trkpt>
      <trkpt lat="47.84098" lon="-0.93942">
        <ele>56.1</ele>
        <time>2020-12-20T11:37:04Z</time>
      </trkpt>
      <trkpt lat="47.84097" lon="-0.9395">
        <ele>56.1</ele>
        <time>2020-12-20T11:37:05Z</time>
      </trkpt>
      <trkpt lat="47.84097" lon="-0.93958">
        <ele>56.1</ele>
        <time>2020-12-20T11:37:06Z</time>
      </trkpt>
      <trkpt lat="47.84096" lon="-0.93965">
        <ele>56.1</ele>
        <time>2020-12-20T11:37:07Z</time>
      </trkpt>
      <trkpt lat="47.84096" lon="-0.93973">
        <ele>56.1</ele>
        <time>2020-12-20T11:37:08Z</time>
      </trkpt>
      <trkpt lat="47.84095" lon="-0.9398">
        <ele>56.1</ele>
        <time>2020-12-20T11:37:09Z</time>
      </trkpt>
      <trkpt lat="47.84095" lon="-0.93988">
        <ele>56.1</ele>
        <time>2020-12-20T11:37:10Z</time>
      </trkpt>
      <trkpt lat="47.84095" lon="-0.93995">
        <ele>56.1</ele>
        <time>2020-12-20T11:37:11Z</time>
      </trkpt>
      <trkpt lat="47.84094" lon="-0.94003">
        <ele>56.1</ele>
        <time>2020-12-20T11:37:12Z</time>
      </trkpt>
      <trkpt lat="47.84094" lon="-0.9401">
        <ele>56.1</ele>
        <time>2020-12-20T11:37:13Z</time>
      </trkpt>
      <trkpt lat="47.84093" lon="-0.94017">
        <ele>56.1</ele>
        <time>2020-12-20T11:37:14Z</time>
      </trkpt>
      <trkpt lat="47.84093" lon="-0.94025">
        <ele>56.1</ele>
        <time>2020-12-20T11:37:15Z</time>
      </trkpt>
      <trkpt lat="47.84093" lon="-0.94032">
        <ele>56.1</ele>
        <time>2020-12-20T11:37:16Z</time>
      </trkpt>
      <trkpt lat="47.84093" lon="-0.9404">
        <ele>56.1</ele>
        <time>2020-12-20T11:37:17Z</time>
      </trkpt>
      <trkpt lat="47.84092" lon="-0.94047">
        <ele>56</ele>
        <time>2020-12-20T11:37:18Z</time>
      </trkpt>
      <trkpt lat="47.84092" lon="-0.94054">
        <ele>56</ele>
        <time>2020-12-20T11:37:19Z</time>
      </trkpt>
      <trkpt lat="47.84092" lon="-0.94062">
        <ele>56</ele>
        <time>2020-12-20T11:37:20Z</time>
      </trkpt>
      <trkpt lat="47.84091" lon="-0.94069">
        <ele>56</ele>
        <time>2020-12-20T11:37:21Z</time>
      </trkpt>
      <trkpt lat="47.84091" lon="-0.94076">
        <ele>56</ele>
        <time>2020-12-20T11:37:22Z</time>
      </trkpt>
      <trkpt lat="47.8409" lon="-0.94084">
        <ele>56</ele>
        <time>2020-12-20T11:37:23Z</time>
      </trkpt>
      <trkpt lat="47.8409" lon="-0.94091">
        <ele>55.9</ele>
        <time>2020-12-20T11:37:24Z</time>
      </trkpt>
      <trkpt lat="47.8409" lon="-0.94098">
        <ele>55.8</ele>
        <time>2020-12-20T11:37:25Z</time>
      </trkpt>
      <trkpt lat="47.84089" lon="-0.94105">
        <ele>55.7</ele>
        <time>2020-12-20T11:37:26Z</time>
      </trkpt>
      <trkpt lat="47.84089" lon="-0.94112">
        <ele>55.6</ele>
        <time>2020-12-20T11:37:27Z</time>
      </trkpt>
      <trkpt lat="47.84088" lon="-0.9412">
        <ele>55.5</ele>
        <time>2020-12-20T11:37:28Z</time>
      </trkpt>
      <trkpt lat="47.84088" lon="-0.94127">
        <ele>55.4</ele>
        <time>2020-12-20T11:37:29Z</time>
      </trkpt>
      <trkpt lat="47.84087" lon="-0.94134">
        <ele>55.3</ele>
        <time>2020-12-20T11:37:30Z</time>
      </trkpt>
      <trkpt lat="47.84086" lon="-0.94142">
        <ele>55.3</ele>
        <time>2020-12-20T11:37:31Z</time>
      </trkpt>
      <trkpt lat="47.84085" lon="-0.94149">
        <ele>55.2</ele>
        <time>2020-12-20T11:37:32Z</time>
      </trkpt>
      <trkpt lat="47.84084" lon="-0.94156">
        <ele>55.1</ele>
        <time>2020-12-20T11:37:33Z</time>
      </trkpt>
      <trkpt lat="47.84084" lon="-0.94163">
        <ele>55</ele>
        <time>2020-12-20T11:37:34Z</time>
      </trkpt>
      <trkpt lat="47.84084" lon="-0.9417">
        <ele>55</ele>
        <time>2020-12-20T11:37:35Z</time>
      </trkpt>
      <trkpt lat="47.84083" lon="-0.94178">
        <ele>55</ele>
        <time>2020-12-20T11:37:36Z</time>
      </trkpt>
      <trkpt lat="47.84083" lon="-0.94185">
        <ele>55</ele>
        <time>2020-12-20T11:37:37Z</time>
      </trkpt>
      <trkpt lat="47.84084" lon="-0.94192">
        <ele>55</ele>
        <time>2020-12-20T11:37:38Z</time>
      </trkpt>
      <trkpt lat="47.84083" lon="-0.942">
        <ele>55</ele>
        <time>2020-12-20T11:37:39Z</time>
      </trkpt>
      <trkpt lat="47.84082" lon="-0.94208">
        <ele>55</ele>
        <time>2020-12-20T11:37:40Z</time>
      </trkpt>
      <trkpt lat="47.84082" lon="-0.94216">
        <ele>55</ele>
        <time>2020-12-20T11:37:41Z</time>
      </trkpt>
      <trkpt lat="47.84081" lon="-0.94223">
        <ele>55</ele>
        <time>2020-12-20T11:37:42Z</time>
      </trkpt>
      <trkpt lat="47.8408" lon="-0.9423">
        <ele>55</ele>
        <time>2020-12-20T11:37:43Z</time>
      </trkpt>
      <trkpt lat="47.8408" lon="-0.94238">
        <ele>55</ele>
        <time>2020-12-20T11:37:44Z</time>
      </trkpt>
      <trkpt lat="47.8408" lon="-0.94245">
        <ele>55</ele>
        <time>2020-12-20T11:37:45Z</time>
      </trkpt>
      <trkpt lat="47.8408" lon="-0.94252">
        <ele>55</ele>
        <time>2020-12-20T11:37:46Z</time>
      </trkpt>
      <trkpt lat="47.84079" lon="-0.94259">
        <ele>55</ele>
        <time>2020-12-20T11:37:47Z</time>
      </trkpt>
      <trkpt lat="47.84079" lon="-0.94266">
        <ele>55</ele>
        <time>2020-12-20T11:37:48Z</time>
      </trkpt>
      <trkpt lat="47.84078" lon="-0.94273">
        <ele>55</ele>
        <time>2020-12-20T11:37:49Z</time>
      </trkpt>
      <trkpt lat="47.84078" lon="-0.9428">
        <ele>55</ele>
        <time>2020-12-20T11:37:50Z</time>
      </trkpt>
      <trkpt lat="47.84077" lon="-0.94288">
        <ele>55</ele>
        <time>2020-12-20T11:37:51Z</time>
      </trkpt>
      <trkpt lat="47.84076" lon="-0.94295">
        <ele>55</ele>
        <time>2020-12-20T11:37:52Z</time>
      </trkpt>
      <trkpt lat="47.84076" lon="-0.94302">
        <ele>55</ele>
        <time>2020-12-20T11:37:53Z</time>
      </trkpt>
      <trkpt lat="47.84076" lon="-0.94309">
        <ele>55</ele>
        <time>2020-12-20T11:37:54Z</time>
      </trkpt>
      <trkpt lat="47.84075" lon="-0.94315">
        <ele>55</ele>
        <time>2020-12-20T11:37:55Z</time>
      </trkpt>
      <trkpt lat="47.84075" lon="-0.94322">
        <ele>55</ele>
        <time>2020-12-20T11:37:56Z</time>
      </trkpt>
      <trkpt lat="47.84075" lon="-0.94336">
        <ele>55</ele>
        <time>2020-12-20T11:37:58Z</time>
      </trkpt>
      <trkpt lat="47.84075" lon="-0.94342">
        <ele>54.9</ele>
        <time>2020-12-20T11:37:59Z</time>
      </trkpt>
      <trkpt lat="47.84075" lon="-0.94349">
        <ele>54.8</ele>
        <time>2020-12-20T11:38:00Z</time>
      </trkpt>
      <trkpt lat="47.84074" lon="-0.94356">
        <ele>54.7</ele>
        <time>2020-12-20T11:38:01Z</time>
      </trkpt>
      <trkpt lat="47.84074" lon="-0.94363">
        <ele>54.6</ele>
        <time>2020-12-20T11:38:02Z</time>
      </trkpt>
      <trkpt lat="47.84074" lon="-0.94371">
        <ele>54.5</ele>
        <time>2020-12-20T11:38:03Z</time>
      </trkpt>
      <trkpt lat="47.84074" lon="-0.94376">
        <ele>54.5</ele>
        <time>2020-12-20T11:38:04Z</time>
      </trkpt>
      <trkpt lat="47.84073" lon="-0.94383">
        <ele>54.4</ele>
        <time>2020-12-20T11:38:05Z</time>
      </trkpt>
      <trkpt lat="47.84073" lon="-0.94389">
        <ele>54.3</ele>
        <time>2020-12-20T11:38:06Z</time>
      </trkpt>
      <trkpt lat="47.84073" lon="-0.94396">
        <ele>54.2</ele>
        <time>2020-12-20T11:38:07Z</time>
      </trkpt>
      <trkpt lat="47.84072" lon="-0.9441">
        <ele>54.1</ele>
        <time>2020-12-20T11:38:09Z</time>
      </trkpt>
      <trkpt lat="47.84072" lon="-0.94417">
        <ele>54</ele>
        <time>2020-12-20T11:38:10Z</time>
      </trkpt>
      <trkpt lat="47.84071" lon="-0.94424">
        <ele>54.1</ele>
        <time>2020-12-20T11:38:11Z</time>
      </trkpt>
      <trkpt lat="47.8407" lon="-0.9443">
        <ele>54.1</ele>
        <time>2020-12-20T11:38:12Z</time>
      </trkpt>
      <trkpt lat="47.8407" lon="-0.94436">
        <ele>54.2</ele>
        <time>2020-12-20T11:38:13Z</time>
      </trkpt>
      <trkpt lat="47.8407" lon="-0.94443">
        <ele>54.2</ele>
        <time>2020-12-20T11:38:14Z</time>
      </trkpt>
      <trkpt lat="47.8407" lon="-0.9445">
        <ele>54.3</ele>
        <time>2020-12-20T11:38:15Z</time>
      </trkpt>
      <trkpt lat="47.84069" lon="-0.94457">
        <ele>54.3</ele>
        <time>2020-12-20T11:38:16Z</time>
      </trkpt>
      <trkpt lat="47.84069" lon="-0.94464">
        <ele>54.4</ele>
        <time>2020-12-20T11:38:17Z</time>
      </trkpt>
      <trkpt lat="47.84068" lon="-0.94471">
        <ele>54.4</ele>
        <time>2020-12-20T11:38:18Z</time>
      </trkpt>
      <trkpt lat="47.84068" lon="-0.94478">
        <ele>54.5</ele>
        <time>2020-12-20T11:38:19Z</time>
      </trkpt>
      <trkpt lat="47.84067" lon="-0.94485">
        <ele>54.5</ele>
        <time>2020-12-20T11:38:20Z</time>
      </trkpt>
      <trkpt lat="47.84066" lon="-0.94492">
        <ele>54.5</ele>
        <time>2020-12-20T11:38:21Z</time>
      </trkpt>
      <trkpt lat="47.84064" lon="-0.94498">
        <ele>54.5</ele>
        <time>2020-12-20T11:38:22Z</time>
      </trkpt>
      <trkpt lat="47.84063" lon="-0.94504">
        <ele>54.5</ele>
        <time>2020-12-20T11:38:23Z</time>
      </trkpt>
      <trkpt lat="47.84062" lon="-0.9451">
        <ele>54.4</ele>
        <time>2020-12-20T11:38:24Z</time>
      </trkpt>
      <trkpt lat="47.8406" lon="-0.94515">
        <ele>54.3</ele>
        <time>2020-12-20T11:38:25Z</time>
      </trkpt>
      <trkpt lat="47.84058" lon="-0.94522">
        <ele>54.1</ele>
        <time>2020-12-20T11:38:26Z</time>
      </trkpt>
      <trkpt lat="47.84057" lon="-0.94528">
        <ele>54</ele>
        <time>2020-12-20T11:38:27Z</time>
      </trkpt>
      <trkpt lat="47.84055" lon="-0.94535">
        <ele>53.9</ele>
        <time>2020-12-20T11:38:28Z</time>
      </trkpt>
      <trkpt lat="47.84055" lon="-0.94544">
        <ele>53.8</ele>
        <time>2020-12-20T11:38:29Z</time>
      </trkpt>
      <trkpt lat="47.84055" lon="-0.94553">
        <ele>53.7</ele>
        <time>2020-12-20T11:38:30Z</time>
      </trkpt>
      <trkpt lat="47.84055" lon="-0.94561">
        <ele>53.6</ele>
        <time>2020-12-20T11:38:31Z</time>
      </trkpt>
      <trkpt lat="47.84054" lon="-0.94569">
        <ele>53.5</ele>
        <time>2020-12-20T11:38:32Z</time>
      </trkpt>
      <trkpt lat="47.84054" lon="-0.94578">
        <ele>53.4</ele>
        <time>2020-12-20T11:38:33Z</time>
      </trkpt>
      <trkpt lat="47.84053" lon="-0.94586">
        <ele>53.2</ele>
        <time>2020-12-20T11:38:34Z</time>
      </trkpt>
      <trkpt lat="47.84053" lon="-0.94595">
        <ele>53</ele>
        <time>2020-12-20T11:38:35Z</time>
      </trkpt>
      <trkpt lat="47.84052" lon="-0.94604">
        <ele>52.8</ele>
        <time>2020-12-20T11:38:36Z</time>
      </trkpt>
      <trkpt lat="47.84052" lon="-0.94613">
        <ele>52.7</ele>
        <time>2020-12-20T11:38:37Z</time>
      </trkpt>
      <trkpt lat="47.84052" lon="-0.94622">
        <ele>52.5</ele>
        <time>2020-12-20T11:38:38Z</time>
      </trkpt>
      <trkpt lat="47.84051" lon="-0.94631">
        <ele>52.3</ele>
        <time>2020-12-20T11:38:39Z</time>
      </trkpt>
      <trkpt lat="47.84051" lon="-0.9464">
        <ele>52.1</ele>
        <time>2020-12-20T11:38:40Z</time>
      </trkpt>
      <trkpt lat="47.84051" lon="-0.94649">
        <ele>52</ele>
        <time>2020-12-20T11:38:41Z</time>
      </trkpt>
      <trkpt lat="47.8405" lon="-0.94658">
        <ele>51.8</ele>
        <time>2020-12-20T11:38:42Z</time>
      </trkpt>
      <trkpt lat="47.8405" lon="-0.94667">
        <ele>51.6</ele>
        <time>2020-12-20T11:38:43Z</time>
      </trkpt>
      <trkpt lat="47.8405" lon="-0.94676">
        <ele>51.6</ele>
        <time>2020-12-20T11:38:44Z</time>
      </trkpt>
      <trkpt lat="47.8405" lon="-0.94685">
        <ele>51.6</ele>
        <time>2020-12-20T11:38:45Z</time>
      </trkpt>
      <trkpt lat="47.8405" lon="-0.94694">
        <ele>51.6</ele>
        <time>2020-12-20T11:38:46Z</time>
      </trkpt>
      <trkpt lat="47.84049" lon="-0.94703">
        <ele>51.6</ele>
        <time>2020-12-20T11:38:47Z</time>
      </trkpt>
      <trkpt lat="47.84049" lon="-0.94711">
        <ele>51.6</ele>
        <time>2020-12-20T11:38:48Z</time>
      </trkpt>
      <trkpt lat="47.84049" lon="-0.9472">
        <ele>51.6</ele>
        <time>2020-12-20T11:38:49Z</time>
      </trkpt>
      <trkpt lat="47.84049" lon="-0.94728">
        <ele>51.6</ele>
        <time>2020-12-20T11:38:50Z</time>
      </trkpt>
      <trkpt lat="47.84049" lon="-0.94736">
        <ele>51.6</ele>
        <time>2020-12-20T11:38:51Z</time>
      </trkpt>
      <trkpt lat="47.84049" lon="-0.94744">
        <ele>51.6</ele>
        <time>2020-12-20T11:38:52Z</time>
      </trkpt>
      <trkpt lat="47.84048" lon="-0.94753">
        <ele>51.6</ele>
        <time>2020-12-20T11:38:53Z</time>
      </trkpt>
      <trkpt lat="47.84048" lon="-0.94761">
        <ele>51.5</ele>
        <time>2020-12-20T11:38:54Z</time>
      </trkpt>
      <trkpt lat="47.84048" lon="-0.94769">
        <ele>51.5</ele>
        <time>2020-12-20T11:38:55Z</time>
      </trkpt>
      <trkpt lat="47.84048" lon="-0.94778">
        <ele>51.4</ele>
        <time>2020-12-20T11:38:56Z</time>
      </trkpt>
      <trkpt lat="47.84047" lon="-0.94786">
        <ele>51.4</ele>
        <time>2020-12-20T11:38:57Z</time>
      </trkpt>
      <trkpt lat="47.84047" lon="-0.94794">
        <ele>51.3</ele>
        <time>2020-12-20T11:38:58Z</time>
      </trkpt>
      <trkpt lat="47.84046" lon="-0.94803">
        <ele>51.3</ele>
        <time>2020-12-20T11:38:59Z</time>
      </trkpt>
      <trkpt lat="47.84045" lon="-0.94811">
        <ele>51.2</ele>
        <time>2020-12-20T11:39:00Z</time>
      </trkpt>
      <trkpt lat="47.84044" lon="-0.94818">
        <ele>51.1</ele>
        <time>2020-12-20T11:39:01Z</time>
      </trkpt>
      <trkpt lat="47.84043" lon="-0.94824">
        <ele>51.1</ele>
        <time>2020-12-20T11:39:02Z</time>
      </trkpt>
      <trkpt lat="47.84042" lon="-0.9483">
        <ele>51</ele>
        <time>2020-12-20T11:39:03Z</time>
      </trkpt>
      <trkpt lat="47.84041" lon="-0.94836">
        <ele>51</ele>
        <time>2020-12-20T11:39:04Z</time>
      </trkpt>
      <trkpt lat="47.84041" lon="-0.94843">
        <ele>50.9</ele>
        <time>2020-12-20T11:39:05Z</time>
      </trkpt>
      <trkpt lat="47.84041" lon="-0.9485">
        <ele>50.9</ele>
        <time>2020-12-20T11:39:06Z</time>
      </trkpt>
      <trkpt lat="47.8404" lon="-0.94857">
        <ele>50.8</ele>
        <time>2020-12-20T11:39:07Z</time>
      </trkpt>
      <trkpt lat="47.84039" lon="-0.94864">
        <ele>50.8</ele>
        <time>2020-12-20T11:39:08Z</time>
      </trkpt>
      <trkpt lat="47.84038" lon="-0.94871">
        <ele>50.7</ele>
        <time>2020-12-20T11:39:09Z</time>
      </trkpt>
      <trkpt lat="47.84036" lon="-0.94878">
        <ele>50.6</ele>
        <time>2020-12-20T11:39:10Z</time>
      </trkpt>
      <trkpt lat="47.84035" lon="-0.94886">
        <ele>50.6</ele>
        <time>2020-12-20T11:39:11Z</time>
      </trkpt>
      <trkpt lat="47.84034" lon="-0.94894">
        <ele>50.5</ele>
        <time>2020-12-20T11:39:12Z</time>
      </trkpt>
      <trkpt lat="47.84033" lon="-0.94902">
        <ele>50.5</ele>
        <time>2020-12-20T11:39:13Z</time>
      </trkpt>
      <trkpt lat="47.84031" lon="-0.94909">
        <ele>50.4</ele>
        <time>2020-12-20T11:39:14Z</time>
      </trkpt>
      <trkpt lat="47.8403" lon="-0.94916">
        <ele>50.4</ele>
        <time>2020-12-20T11:39:15Z</time>
      </trkpt>
      <trkpt lat="47.84031" lon="-0.94922">
        <ele>50.4</ele>
        <time>2020-12-20T11:39:16Z</time>
      </trkpt>
      <trkpt lat="47.84033" lon="-0.94928">
        <ele>50.5</ele>
        <time>2020-12-20T11:39:17Z</time>
      </trkpt>
      <trkpt lat="47.84034" lon="-0.94931">
        <ele>50.5</ele>
        <time>2020-12-20T11:39:18Z</time>
      </trkpt>
      <trkpt lat="47.84034" lon="-0.94933">
        <ele>50.5</ele>
        <time>2020-12-20T11:39:19Z</time>
      </trkpt>
      <trkpt lat="47.84034" lon="-0.94937">
        <ele>50.6</ele>
        <time>2020-12-20T11:39:20Z</time>
      </trkpt>
      <trkpt lat="47.84035" lon="-0.94943">
        <ele>50.6</ele>
        <time>2020-12-20T11:39:21Z</time>
      </trkpt>
      <trkpt lat="47.84035" lon="-0.94949">
        <ele>50.6</ele>
        <time>2020-12-20T11:39:22Z</time>
      </trkpt>
      <trkpt lat="47.84035" lon="-0.94955">
        <ele>50.7</ele>
        <time>2020-12-20T11:39:23Z</time>
      </trkpt>
      <trkpt lat="47.84036" lon="-0.94961">
        <ele>50.7</ele>
        <time>2020-12-20T11:39:24Z</time>
      </trkpt>
      <trkpt lat="47.84036" lon="-0.94968">
        <ele>50.8</ele>
        <time>2020-12-20T11:39:25Z</time>
      </trkpt>
      <trkpt lat="47.84035" lon="-0.94975">
        <ele>50.8</ele>
        <time>2020-12-20T11:39:26Z</time>
      </trkpt>
      <trkpt lat="47.84034" lon="-0.94983">
        <ele>50.9</ele>
        <time>2020-12-20T11:39:27Z</time>
      </trkpt>
      <trkpt lat="47.84034" lon="-0.94991">
        <ele>50.9</ele>
        <time>2020-12-20T11:39:28Z</time>
      </trkpt>
      <trkpt lat="47.84034" lon="-0.94999">
        <ele>51</ele>
        <time>2020-12-20T11:39:29Z</time>
      </trkpt>
      <trkpt lat="47.84033" lon="-0.95008">
        <ele>50.9</ele>
        <time>2020-12-20T11:39:30Z</time>
      </trkpt>
      <trkpt lat="47.84033" lon="-0.95016">
        <ele>50.9</ele>
        <time>2020-12-20T11:39:31Z</time>
      </trkpt>
      <trkpt lat="47.84032" lon="-0.95025">
        <ele>50.8</ele>
        <time>2020-12-20T11:39:32Z</time>
      </trkpt>
      <trkpt lat="47.8403" lon="-0.95034">
        <ele>50.7</ele>
        <time>2020-12-20T11:39:33Z</time>
      </trkpt>
      <trkpt lat="47.8403" lon="-0.95043">
        <ele>50.7</ele>
        <time>2020-12-20T11:39:34Z</time>
      </trkpt>
      <trkpt lat="47.84029" lon="-0.95053">
        <ele>50.6</ele>
        <time>2020-12-20T11:39:35Z</time>
      </trkpt>
      <trkpt lat="47.84029" lon="-0.95062">
        <ele>50.5</ele>
        <time>2020-12-20T11:39:36Z</time>
      </trkpt>
      <trkpt lat="47.84029" lon="-0.9507">
        <ele>50.5</ele>
        <time>2020-12-20T11:39:37Z</time>
      </trkpt>
      <trkpt lat="47.84028" lon="-0.95079">
        <ele>50.4</ele>
        <time>2020-12-20T11:39:38Z</time>
      </trkpt>
      <trkpt lat="47.84026" lon="-0.95087">
        <ele>50.2</ele>
        <time>2020-12-20T11:39:39Z</time>
      </trkpt>
      <trkpt lat="47.84024" lon="-0.95096">
        <ele>50</ele>
        <time>2020-12-20T11:39:40Z</time>
      </trkpt>
      <trkpt lat="47.84023" lon="-0.95106">
        <ele>49.8</ele>
        <time>2020-12-20T11:39:41Z</time>
      </trkpt>
      <trkpt lat="47.84023" lon="-0.95114">
        <ele>49.6</ele>
        <time>2020-12-20T11:39:42Z</time>
      </trkpt>
      <trkpt lat="47.84023" lon="-0.95123">
        <ele>49.5</ele>
        <time>2020-12-20T11:39:43Z</time>
      </trkpt>
      <trkpt lat="47.84021" lon="-0.95131">
        <ele>49.3</ele>
        <time>2020-12-20T11:39:44Z</time>
      </trkpt>
      <trkpt lat="47.8402" lon="-0.9514">
        <ele>49</ele>
        <time>2020-12-20T11:39:45Z</time>
      </trkpt>
      <trkpt lat="47.8402" lon="-0.95148">
        <ele>48.9</ele>
        <time>2020-12-20T11:39:46Z</time>
      </trkpt>
      <trkpt lat="47.84019" lon="-0.95157">
        <ele>48.7</ele>
        <time>2020-12-20T11:39:47Z</time>
      </trkpt>
      <trkpt lat="47.84019" lon="-0.95166">
        <ele>48.5</ele>
        <time>2020-12-20T11:39:48Z</time>
      </trkpt>
      <trkpt lat="47.84018" lon="-0.95174">
        <ele>48.2</ele>
        <time>2020-12-20T11:39:49Z</time>
      </trkpt>
      <trkpt lat="47.84018" lon="-0.95183">
        <ele>47.8</ele>
        <time>2020-12-20T11:39:50Z</time>
      </trkpt>
      <trkpt lat="47.84018" lon="-0.9519">
        <ele>47.6</ele>
        <time>2020-12-20T11:39:51Z</time>
      </trkpt>
      <trkpt lat="47.84017" lon="-0.95198">
        <ele>47.3</ele>
        <time>2020-12-20T11:39:52Z</time>
      </trkpt>
      <trkpt lat="47.84016" lon="-0.95207">
        <ele>46.9</ele>
        <time>2020-12-20T11:39:53Z</time>
      </trkpt>
      <trkpt lat="47.84016" lon="-0.95215">
        <ele>46.6</ele>
        <time>2020-12-20T11:39:54Z</time>
      </trkpt>
      <trkpt lat="47.84016" lon="-0.95225">
        <ele>46.3</ele>
        <time>2020-12-20T11:39:55Z</time>
      </trkpt>
      <trkpt lat="47.84015" lon="-0.95234">
        <ele>45.9</ele>
        <time>2020-12-20T11:39:56Z</time>
      </trkpt>
      <trkpt lat="47.84014" lon="-0.95243">
        <ele>45.6</ele>
        <time>2020-12-20T11:39:57Z</time>
      </trkpt>
      <trkpt lat="47.84014" lon="-0.95252">
        <ele>45.3</ele>
        <time>2020-12-20T11:39:58Z</time>
      </trkpt>
      <trkpt lat="47.84013" lon="-0.95261">
        <ele>45</ele>
        <time>2020-12-20T11:39:59Z</time>
      </trkpt>
      <trkpt lat="47.84012" lon="-0.95269">
        <ele>44.7</ele>
        <time>2020-12-20T11:40:00Z</time>
      </trkpt>
      <trkpt lat="47.8401" lon="-0.95277">
        <ele>44.5</ele>
        <time>2020-12-20T11:40:01Z</time>
      </trkpt>
      <trkpt lat="47.84009" lon="-0.95285">
        <ele>44.2</ele>
        <time>2020-12-20T11:40:02Z</time>
      </trkpt>
      <trkpt lat="47.84008" lon="-0.95293">
        <ele>44</ele>
        <time>2020-12-20T11:40:03Z</time>
      </trkpt>
      <trkpt lat="47.84007" lon="-0.95302">
        <ele>43.8</ele>
        <time>2020-12-20T11:40:04Z</time>
      </trkpt>
      <trkpt lat="47.84006" lon="-0.95311">
        <ele>43.5</ele>
        <time>2020-12-20T11:40:05Z</time>
      </trkpt>
      <trkpt lat="47.84006" lon="-0.9532">
        <ele>43.3</ele>
        <time>2020-12-20T11:40:06Z</time>
      </trkpt>
      <trkpt lat="47.84005" lon="-0.9533">
        <ele>43</ele>
        <time>2020-12-20T11:40:07Z</time>
      </trkpt>
      <trkpt lat="47.84006" lon="-0.95339">
        <ele>42.8</ele>
        <time>2020-12-20T11:40:08Z</time>
      </trkpt>
      <trkpt lat="47.84005" lon="-0.95347">
        <ele>42.6</ele>
        <time>2020-12-20T11:40:09Z</time>
      </trkpt>
      <trkpt lat="47.84005" lon="-0.95355">
        <ele>42.4</ele>
        <time>2020-12-20T11:40:10Z</time>
      </trkpt>
      <trkpt lat="47.84004" lon="-0.95362">
        <ele>42.3</ele>
        <time>2020-12-20T11:40:11Z</time>
      </trkpt>
      <trkpt lat="47.84002" lon="-0.95371">
        <ele>42.1</ele>
        <time>2020-12-20T11:40:12Z</time>
      </trkpt>
      <trkpt lat="47.84001" lon="-0.9538">
        <ele>41.9</ele>
        <time>2020-12-20T11:40:13Z</time>
      </trkpt>
      <trkpt lat="47.83999" lon="-0.95389">
        <ele>41.6</ele>
        <time>2020-12-20T11:40:14Z</time>
      </trkpt>
      <trkpt lat="47.83998" lon="-0.95398">
        <ele>41.4</ele>
        <time>2020-12-20T11:40:15Z</time>
      </trkpt>
      <trkpt lat="47.83997" lon="-0.95407">
        <ele>41.1</ele>
        <time>2020-12-20T11:40:16Z</time>
      </trkpt>
      <trkpt lat="47.83995" lon="-0.95415">
        <ele>40.9</ele>
        <time>2020-12-20T11:40:17Z</time>
      </trkpt>
      <trkpt lat="47.83993" lon="-0.95423">
        <ele>40.8</ele>
        <time>2020-12-20T11:40:18Z</time>
      </trkpt>
      <trkpt lat="47.83991" lon="-0.95431">
        <ele>40.8</ele>
        <time>2020-12-20T11:40:19Z</time>
      </trkpt>
      <trkpt lat="47.83989" lon="-0.95439">
        <ele>40.8</ele>
        <time>2020-12-20T11:40:20Z</time>
      </trkpt>
      <trkpt lat="47.83987" lon="-0.95447">
        <ele>40.8</ele>
        <time>2020-12-20T11:40:21Z</time>
      </trkpt>
      <trkpt lat="47.83986" lon="-0.95455">
        <ele>40.8</ele>
        <time>2020-12-20T11:40:22Z</time>
      </trkpt>
      <trkpt lat="47.83984" lon="-0.95463">
        <ele>40.8</ele>
        <time>2020-12-20T11:40:23Z</time>
      </trkpt>
      <trkpt lat="47.83983" lon="-0.9547">
        <ele>40.9</ele>
        <time>2020-12-20T11:40:24Z</time>
      </trkpt>
      <trkpt lat="47.83981" lon="-0.95478">
        <ele>40.9</ele>
        <time>2020-12-20T11:40:25Z</time>
      </trkpt>
      <trkpt lat="47.83979" lon="-0.95484">
        <ele>40.9</ele>
        <time>2020-12-20T11:40:26Z</time>
      </trkpt>
      <trkpt lat="47.83977" lon="-0.95491">
        <ele>40.9</ele>
        <time>2020-12-20T11:40:27Z</time>
      </trkpt>
      <trkpt lat="47.83975" lon="-0.95498">
        <ele>41</ele>
        <time>2020-12-20T11:40:28Z</time>
      </trkpt>
      <trkpt lat="47.83973" lon="-0.95505">
        <ele>41.1</ele>
        <time>2020-12-20T11:40:29Z</time>
      </trkpt>
      <trkpt lat="47.83971" lon="-0.95512">
        <ele>41.2</ele>
        <time>2020-12-20T11:40:30Z</time>
      </trkpt>
      <trkpt lat="47.83969" lon="-0.9552">
        <ele>41.4</ele>
        <time>2020-12-20T11:40:31Z</time>
      </trkpt>
      <trkpt lat="47.83967" lon="-0.95527">
        <ele>41.6</ele>
        <time>2020-12-20T11:40:32Z</time>
      </trkpt>
      <trkpt lat="47.83967" lon="-0.95535">
        <ele>41.8</ele>
        <time>2020-12-20T11:40:33Z</time>
      </trkpt>
      <trkpt lat="47.83966" lon="-0.95542">
        <ele>41.9</ele>
        <time>2020-12-20T11:40:34Z</time>
      </trkpt>
      <trkpt lat="47.83964" lon="-0.9555">
        <ele>42.1</ele>
        <time>2020-12-20T11:40:35Z</time>
      </trkpt>
      <trkpt lat="47.83963" lon="-0.95557">
        <ele>42.3</ele>
        <time>2020-12-20T11:40:36Z</time>
      </trkpt>
      <trkpt lat="47.83961" lon="-0.95564">
        <ele>42.5</ele>
        <time>2020-12-20T11:40:37Z</time>
      </trkpt>
      <trkpt lat="47.83961" lon="-0.95571">
        <ele>42.6</ele>
        <time>2020-12-20T11:40:38Z</time>
      </trkpt>
      <trkpt lat="47.8396" lon="-0.95577">
        <ele>42.8</ele>
        <time>2020-12-20T11:40:39Z</time>
      </trkpt>
      <trkpt lat="47.83959" lon="-0.95583">
        <ele>43</ele>
        <time>2020-12-20T11:40:40Z</time>
      </trkpt>
      <trkpt lat="47.83959" lon="-0.95589">
        <ele>43</ele>
        <time>2020-12-20T11:40:41Z</time>
      </trkpt>
      <trkpt lat="47.83957" lon="-0.95596">
        <ele>43.1</ele>
        <time>2020-12-20T11:40:42Z</time>
      </trkpt>
      <trkpt lat="47.83957" lon="-0.95601">
        <ele>43.1</ele>
        <time>2020-12-20T11:40:43Z</time>
      </trkpt>
      <trkpt lat="47.83957" lon="-0.95607">
        <ele>43.2</ele>
        <time>2020-12-20T11:40:44Z</time>
      </trkpt>
      <trkpt lat="47.83955" lon="-0.95613">
        <ele>43.2</ele>
        <time>2020-12-20T11:40:45Z</time>
      </trkpt>
      <trkpt lat="47.83954" lon="-0.95619">
        <ele>43.3</ele>
        <time>2020-12-20T11:40:46Z</time>
      </trkpt>
      <trkpt lat="47.83953" lon="-0.95627">
        <ele>43.4</ele>
        <time>2020-12-20T11:40:47Z</time>
      </trkpt>
      <trkpt lat="47.83951" lon="-0.95635">
        <ele>43.4</ele>
        <time>2020-12-20T11:40:48Z</time>
      </trkpt>
      <trkpt lat="47.8395" lon="-0.95641">
        <ele>43.5</ele>
        <time>2020-12-20T11:40:49Z</time>
      </trkpt>
      <trkpt lat="47.83949" lon="-0.95646">
        <ele>43.5</ele>
        <time>2020-12-20T11:40:50Z</time>
      </trkpt>
      <trkpt lat="47.83948" lon="-0.95651">
        <ele>43.6</ele>
        <time>2020-12-20T11:40:51Z</time>
      </trkpt>
      <trkpt lat="47.83945" lon="-0.95658">
        <ele>43.6</ele>
        <time>2020-12-20T11:40:52Z</time>
      </trkpt>
      <trkpt lat="47.83942" lon="-0.95665">
        <ele>43.7</ele>
        <time>2020-12-20T11:40:53Z</time>
      </trkpt>
      <trkpt lat="47.8394" lon="-0.95671">
        <ele>43.8</ele>
        <time>2020-12-20T11:40:54Z</time>
      </trkpt>
      <trkpt lat="47.83938" lon="-0.95676">
        <ele>43.9</ele>
        <time>2020-12-20T11:40:55Z</time>
      </trkpt>
      <trkpt lat="47.83937" lon="-0.95681">
        <ele>44.1</ele>
        <time>2020-12-20T11:40:56Z</time>
      </trkpt>
      <trkpt lat="47.83936" lon="-0.95687">
        <ele>44.2</ele>
        <time>2020-12-20T11:40:57Z</time>
      </trkpt>
      <trkpt lat="47.83934" lon="-0.95692">
        <ele>44.3</ele>
        <time>2020-12-20T11:40:58Z</time>
      </trkpt>
      <trkpt lat="47.83932" lon="-0.95697">
        <ele>44.5</ele>
        <time>2020-12-20T11:40:59Z</time>
      </trkpt>
      <trkpt lat="47.8393" lon="-0.95701">
        <ele>44.6</ele>
        <time>2020-12-20T11:41:00Z</time>
      </trkpt>
      <trkpt lat="47.83928" lon="-0.95705">
        <ele>44.7</ele>
        <time>2020-12-20T11:41:01Z</time>
      </trkpt>
      <trkpt lat="47.83926" lon="-0.95709">
        <ele>44.8</ele>
        <time>2020-12-20T11:41:02Z</time>
      </trkpt>
      <trkpt lat="47.83925" lon="-0.95713">
        <ele>45</ele>
        <time>2020-12-20T11:41:03Z</time>
      </trkpt>
      <trkpt lat="47.83923" lon="-0.95717">
        <ele>45.1</ele>
        <time>2020-12-20T11:41:04Z</time>
      </trkpt>
      <trkpt lat="47.83921" lon="-0.95722">
        <ele>45.2</ele>
        <time>2020-12-20T11:41:05Z</time>
      </trkpt>
      <trkpt lat="47.83919" lon="-0.95728">
        <ele>45.4</ele>
        <time>2020-12-20T11:41:06Z</time>
      </trkpt>
      <trkpt lat="47.83917" lon="-0.95733">
        <ele>45.6</ele>
        <time>2020-12-20T11:41:07Z</time>
      </trkpt>
      <trkpt lat="47.83915" lon="-0.95738">
        <ele>45.8</ele>
        <time>2020-12-20T11:41:08Z</time>
      </trkpt>
      <trkpt lat="47.83913" lon="-0.95743">
        <ele>45.9</ele>
        <time>2020-12-20T11:41:09Z</time>
      </trkpt>
      <trkpt lat="47.83911" lon="-0.95747">
        <ele>46.1</ele>
        <time>2020-12-20T11:41:10Z</time>
      </trkpt>
      <trkpt lat="47.83909" lon="-0.95752">
        <ele>46.2</ele>
        <time>2020-12-20T11:41:11Z</time>
      </trkpt>
      <trkpt lat="47.83906" lon="-0.95758">
        <ele>46.4</ele>
        <time>2020-12-20T11:41:12Z</time>
      </trkpt>
      <trkpt lat="47.83904" lon="-0.95763">
        <ele>46.6</ele>
        <time>2020-12-20T11:41:13Z</time>
      </trkpt>
      <trkpt lat="47.83901" lon="-0.95768">
        <ele>46.8</ele>
        <time>2020-12-20T11:41:14Z</time>
      </trkpt>
      <trkpt lat="47.83898" lon="-0.95774">
        <ele>47</ele>
        <time>2020-12-20T11:41:15Z</time>
      </trkpt>
      <trkpt lat="47.83896" lon="-0.95779">
        <ele>47.1</ele>
        <time>2020-12-20T11:41:16Z</time>
      </trkpt>
      <trkpt lat="47.83894" lon="-0.95785">
        <ele>47.3</ele>
        <time>2020-12-20T11:41:17Z</time>
      </trkpt>
      <trkpt lat="47.83891" lon="-0.9579">
        <ele>47.4</ele>
        <time>2020-12-20T11:41:18Z</time>
      </trkpt>
      <trkpt lat="47.83889" lon="-0.95794">
        <ele>47.5</ele>
        <time>2020-12-20T11:41:19Z</time>
      </trkpt>
      <trkpt lat="47.83887" lon="-0.95799">
        <ele>47.7</ele>
        <time>2020-12-20T11:41:20Z</time>
      </trkpt>
      <trkpt lat="47.83885" lon="-0.95804">
        <ele>47.8</ele>
        <time>2020-12-20T11:41:21Z</time>
      </trkpt>
      <trkpt lat="47.83883" lon="-0.95809">
        <ele>47.9</ele>
        <time>2020-12-20T11:41:22Z</time>
      </trkpt>
      <trkpt lat="47.83881" lon="-0.95814">
        <ele>48.1</ele>
        <time>2020-12-20T11:41:23Z</time>
      </trkpt>
      <trkpt lat="47.83879" lon="-0.9582">
        <ele>48.2</ele>
        <time>2020-12-20T11:41:24Z</time>
      </trkpt>
      <trkpt lat="47.83876" lon="-0.95825">
        <ele>48.3</ele>
        <time>2020-12-20T11:41:25Z</time>
      </trkpt>
      <trkpt lat="47.83873" lon="-0.95831">
        <ele>48.5</ele>
        <time>2020-12-20T11:41:26Z</time>
      </trkpt>
      <trkpt lat="47.83871" lon="-0.95836">
        <ele>48.7</ele>
        <time>2020-12-20T11:41:27Z</time>
      </trkpt>
      <trkpt lat="47.83868" lon="-0.95841">
        <ele>48.9</ele>
        <time>2020-12-20T11:41:28Z</time>
      </trkpt>
      <trkpt lat="47.83866" lon="-0.95846">
        <ele>49.2</ele>
        <time>2020-12-20T11:41:29Z</time>
      </trkpt>
      <trkpt lat="47.83864" lon="-0.95851">
        <ele>49.4</ele>
        <time>2020-12-20T11:41:30Z</time>
      </trkpt>
      <trkpt lat="47.83862" lon="-0.95856">
        <ele>49.7</ele>
        <time>2020-12-20T11:41:31Z</time>
      </trkpt>
      <trkpt lat="47.8386" lon="-0.95861">
        <ele>49.9</ele>
        <time>2020-12-20T11:41:32Z</time>
      </trkpt>
      <trkpt lat="47.83858" lon="-0.95865">
        <ele>50.1</ele>
        <time>2020-12-20T11:41:33Z</time>
      </trkpt>
      <trkpt lat="47.83855" lon="-0.95871">
        <ele>50.4</ele>
        <time>2020-12-20T11:41:34Z</time>
      </trkpt>
      <trkpt lat="47.83852" lon="-0.95876">
        <ele>50.7</ele>
        <time>2020-12-20T11:41:35Z</time>
      </trkpt>
      <trkpt lat="47.83849" lon="-0.95881">
        <ele>51</ele>
        <time>2020-12-20T11:41:36Z</time>
      </trkpt>
      <trkpt lat="47.83846" lon="-0.95886">
        <ele>51.3</ele>
        <time>2020-12-20T11:41:37Z</time>
      </trkpt>
      <trkpt lat="47.83844" lon="-0.95891">
        <ele>51.6</ele>
        <time>2020-12-20T11:41:38Z</time>
      </trkpt>
      <trkpt lat="47.83841" lon="-0.95896">
        <ele>51.8</ele>
        <time>2020-12-20T11:41:39Z</time>
      </trkpt>
      <trkpt lat="47.83838" lon="-0.95901">
        <ele>52.1</ele>
        <time>2020-12-20T11:41:40Z</time>
      </trkpt>
      <trkpt lat="47.83836" lon="-0.95905">
        <ele>52.4</ele>
        <time>2020-12-20T11:41:41Z</time>
      </trkpt>
      <trkpt lat="47.83833" lon="-0.9591">
        <ele>52.7</ele>
        <time>2020-12-20T11:41:42Z</time>
      </trkpt>
      <trkpt lat="47.8383" lon="-0.95916">
        <ele>52.9</ele>
        <time>2020-12-20T11:41:43Z</time>
      </trkpt>
      <trkpt lat="47.83827" lon="-0.95921">
        <ele>53</ele>
        <time>2020-12-20T11:41:44Z</time>
      </trkpt>
      <trkpt lat="47.83825" lon="-0.95926">
        <ele>53</ele>
        <time>2020-12-20T11:41:45Z</time>
      </trkpt>
      <trkpt lat="47.83823" lon="-0.95931">
        <ele>53</ele>
        <time>2020-12-20T11:41:46Z</time>
      </trkpt>
      <trkpt lat="47.83821" lon="-0.95937">
        <ele>53.1</ele>
        <time>2020-12-20T11:41:47Z</time>
      </trkpt>
      <trkpt lat="47.83818" lon="-0.95942">
        <ele>53.1</ele>
        <time>2020-12-20T11:41:48Z</time>
      </trkpt>
      <trkpt lat="47.83815" lon="-0.95947">
        <ele>53.1</ele>
        <time>2020-12-20T11:41:49Z</time>
      </trkpt>
      <trkpt lat="47.83812" lon="-0.95952">
        <ele>53.2</ele>
        <time>2020-12-20T11:41:50Z</time>
      </trkpt>
      <trkpt lat="47.8381" lon="-0.95957">
        <ele>53.2</ele>
        <time>2020-12-20T11:41:51Z</time>
      </trkpt>
      <trkpt lat="47.83808" lon="-0.95962">
        <ele>53.2</ele>
        <time>2020-12-20T11:41:52Z</time>
      </trkpt>
      <trkpt lat="47.83805" lon="-0.95966">
        <ele>53.3</ele>
        <time>2020-12-20T11:41:53Z</time>
      </trkpt>
      <trkpt lat="47.83803" lon="-0.95971">
        <ele>53.3</ele>
        <time>2020-12-20T11:41:54Z</time>
      </trkpt>
      <trkpt lat="47.838" lon="-0.95976">
        <ele>53.3</ele>
        <time>2020-12-20T11:41:55Z</time>
      </trkpt>
      <trkpt lat="47.83797" lon="-0.95981">
        <ele>53.3</ele>
        <time>2020-12-20T11:41:56Z</time>
      </trkpt>
      <trkpt lat="47.83794" lon="-0.95986">
        <ele>53.4</ele>
        <time>2020-12-20T11:41:57Z</time>
      </trkpt>
      <trkpt lat="47.83792" lon="-0.95991">
        <ele>53.4</ele>
        <time>2020-12-20T11:41:58Z</time>
      </trkpt>
      <trkpt lat="47.83791" lon="-0.95994">
        <ele>53.4</ele>
        <time>2020-12-20T11:41:59Z</time>
      </trkpt>
      <trkpt lat="47.8379" lon="-0.95999">
        <ele>53.5</ele>
        <time>2020-12-20T11:42:00Z</time>
      </trkpt>
      <trkpt lat="47.83788" lon="-0.96004">
        <ele>53.6</ele>
        <time>2020-12-20T11:42:01Z</time>
      </trkpt>
      <trkpt lat="47.83786" lon="-0.96008">
        <ele>53.6</ele>
        <time>2020-12-20T11:42:02Z</time>
      </trkpt>
      <trkpt lat="47.83783" lon="-0.96014">
        <ele>53.7</ele>
        <time>2020-12-20T11:42:03Z</time>
      </trkpt>
      <trkpt lat="47.8378" lon="-0.9602">
        <ele>53.8</ele>
        <time>2020-12-20T11:42:04Z</time>
      </trkpt>
      <trkpt lat="47.83777" lon="-0.96025">
        <ele>53.9</ele>
        <time>2020-12-20T11:42:05Z</time>
      </trkpt>
      <trkpt lat="47.83776" lon="-0.96029">
        <ele>54</ele>
        <time>2020-12-20T11:42:06Z</time>
      </trkpt>
      <trkpt lat="47.83775" lon="-0.96035">
        <ele>54.1</ele>
        <time>2020-12-20T11:42:07Z</time>
      </trkpt>
      <trkpt lat="47.83773" lon="-0.96041">
        <ele>54.3</ele>
        <time>2020-12-20T11:42:08Z</time>
      </trkpt>
      <trkpt lat="47.83772" lon="-0.96048">
        <ele>54.4</ele>
        <time>2020-12-20T11:42:09Z</time>
      </trkpt>
      <trkpt lat="47.8377" lon="-0.96053">
        <ele>54.5</ele>
        <time>2020-12-20T11:42:10Z</time>
      </trkpt>
      <trkpt lat="47.83768" lon="-0.96059">
        <ele>54.6</ele>
        <time>2020-12-20T11:42:11Z</time>
      </trkpt>
      <trkpt lat="47.83766" lon="-0.96064">
        <ele>54.7</ele>
        <time>2020-12-20T11:42:12Z</time>
      </trkpt>
      <trkpt lat="47.83763" lon="-0.9607">
        <ele>54.8</ele>
        <time>2020-12-20T11:42:13Z</time>
      </trkpt>
      <trkpt lat="47.8376" lon="-0.96074">
        <ele>54.9</ele>
        <time>2020-12-20T11:42:14Z</time>
      </trkpt>
      <trkpt lat="47.83757" lon="-0.96079">
        <ele>55</ele>
        <time>2020-12-20T11:42:15Z</time>
      </trkpt>
      <trkpt lat="47.83754" lon="-0.96084">
        <ele>55.1</ele>
        <time>2020-12-20T11:42:16Z</time>
      </trkpt>
      <trkpt lat="47.83752" lon="-0.96088">
        <ele>55.1</ele>
        <time>2020-12-20T11:42:17Z</time>
      </trkpt>
      <trkpt lat="47.83749" lon="-0.96092">
        <ele>55.2</ele>
        <time>2020-12-20T11:42:18Z</time>
      </trkpt>
      <trkpt lat="47.83746" lon="-0.96097">
        <ele>55.2</ele>
        <time>2020-12-20T11:42:19Z</time>
      </trkpt>
      <trkpt lat="47.83743" lon="-0.96101">
        <ele>55.2</ele>
        <time>2020-12-20T11:42:20Z</time>
      </trkpt>
      <trkpt lat="47.83741" lon="-0.96106">
        <ele>55.2</ele>
        <time>2020-12-20T11:42:21Z</time>
      </trkpt>
      <trkpt lat="47.83739" lon="-0.9611">
        <ele>55.2</ele>
        <time>2020-12-20T11:42:22Z</time>
      </trkpt>
      <trkpt lat="47.83737" lon="-0.96116">
        <ele>55.3</ele>
        <time>2020-12-20T11:42:23Z</time>
      </trkpt>
      <trkpt lat="47.83735" lon="-0.9612">
        <ele>55.3</ele>
        <time>2020-12-20T11:42:24Z</time>
      </trkpt>
      <trkpt lat="47.83733" lon="-0.96125">
        <ele>55.3</ele>
        <time>2020-12-20T11:42:25Z</time>
      </trkpt>
      <trkpt lat="47.8373" lon="-0.96131">
        <ele>55.3</ele>
        <time>2020-12-20T11:42:26Z</time>
      </trkpt>
      <trkpt lat="47.83727" lon="-0.96136">
        <ele>55.3</ele>
        <time>2020-12-20T11:42:27Z</time>
      </trkpt>
      <trkpt lat="47.83725" lon="-0.9614">
        <ele>55.3</ele>
        <time>2020-12-20T11:42:28Z</time>
      </trkpt>
      <trkpt lat="47.83723" lon="-0.96145">
        <ele>55.3</ele>
        <time>2020-12-20T11:42:29Z</time>
      </trkpt>
      <trkpt lat="47.8372" lon="-0.96149">
        <ele>55.2</ele>
        <time>2020-12-20T11:42:30Z</time>
      </trkpt>
      <trkpt lat="47.83717" lon="-0.96154">
        <ele>55.2</ele>
        <time>2020-12-20T11:42:31Z</time>
      </trkpt>
      <trkpt lat="47.83714" lon="-0.96158">
        <ele>55.1</ele>
        <time>2020-12-20T11:42:32Z</time>
      </trkpt>
      <trkpt lat="47.83712" lon="-0.96164">
        <ele>55.1</ele>
        <time>2020-12-20T11:42:33Z</time>
      </trkpt>
      <trkpt lat="47.83709" lon="-0.96169">
        <ele>55.1</ele>
        <time>2020-12-20T11:42:34Z</time>
      </trkpt>
      <trkpt lat="47.83707" lon="-0.96174">
        <ele>55.1</ele>
        <time>2020-12-20T11:42:35Z</time>
      </trkpt>
      <trkpt lat="47.83705" lon="-0.96178">
        <ele>55.1</ele>
        <time>2020-12-20T11:42:36Z</time>
      </trkpt>
      <trkpt lat="47.83703" lon="-0.96183">
        <ele>55.1</ele>
        <time>2020-12-20T11:42:37Z</time>
      </trkpt>
      <trkpt lat="47.83702" lon="-0.96188">
        <ele>55.2</ele>
        <time>2020-12-20T11:42:38Z</time>
      </trkpt>
      <trkpt lat="47.83699" lon="-0.96193">
        <ele>55.2</ele>
        <time>2020-12-20T11:42:39Z</time>
      </trkpt>
      <trkpt lat="47.83697" lon="-0.96199">
        <ele>55.2</ele>
        <time>2020-12-20T11:42:40Z</time>
      </trkpt>
      <trkpt lat="47.83695" lon="-0.96204">
        <ele>55.3</ele>
        <time>2020-12-20T11:42:41Z</time>
      </trkpt>
      <trkpt lat="47.83693" lon="-0.96208">
        <ele>55.3</ele>
        <time>2020-12-20T11:42:42Z</time>
      </trkpt>
      <trkpt lat="47.83691" lon="-0.96213">
        <ele>55.3</ele>
        <time>2020-12-20T11:42:43Z</time>
      </trkpt>
      <trkpt lat="47.83689" lon="-0.96217">
        <ele>55.3</ele>
        <time>2020-12-20T11:42:44Z</time>
      </trkpt>
      <trkpt lat="47.83687" lon="-0.96223">
        <ele>55.3</ele>
        <time>2020-12-20T11:42:45Z</time>
      </trkpt>
      <trkpt lat="47.83685" lon="-0.96228">
        <ele>55.4</ele>
        <time>2020-12-20T11:42:46Z</time>
      </trkpt>
      <trkpt lat="47.83684" lon="-0.96233">
        <ele>55.4</ele>
        <time>2020-12-20T11:42:47Z</time>
      </trkpt>
      <trkpt lat="47.83682" lon="-0.96239">
        <ele>55.5</ele>
        <time>2020-12-20T11:42:48Z</time>
      </trkpt>
      <trkpt lat="47.8368" lon="-0.96245">
        <ele>55.5</ele>
        <time>2020-12-20T11:42:49Z</time>
      </trkpt>
      <trkpt lat="47.83678" lon="-0.9625">
        <ele>55.5</ele>
        <time>2020-12-20T11:42:50Z</time>
      </trkpt>
      <trkpt lat="47.83676" lon="-0.96254">
        <ele>55.5</ele>
        <time>2020-12-20T11:42:51Z</time>
      </trkpt>
      <trkpt lat="47.83674" lon="-0.9626">
        <ele>55.6</ele>
        <time>2020-12-20T11:42:52Z</time>
      </trkpt>
      <trkpt lat="47.83672" lon="-0.96265">
        <ele>55.6</ele>
        <time>2020-12-20T11:42:53Z</time>
      </trkpt>
      <trkpt lat="47.8367" lon="-0.9627">
        <ele>55.6</ele>
        <time>2020-12-20T11:42:54Z</time>
      </trkpt>
      <trkpt lat="47.83668" lon="-0.96274">
        <ele>55.6</ele>
        <time>2020-12-20T11:42:55Z</time>
      </trkpt>
      <trkpt lat="47.83667" lon="-0.96278">
        <ele>55.7</ele>
        <time>2020-12-20T11:42:56Z</time>
      </trkpt>
      <trkpt lat="47.83665" lon="-0.96283">
        <ele>55.8</ele>
        <time>2020-12-20T11:42:57Z</time>
      </trkpt>
      <trkpt lat="47.83663" lon="-0.96287">
        <ele>55.9</ele>
        <time>2020-12-20T11:42:58Z</time>
      </trkpt>
      <trkpt lat="47.83661" lon="-0.96291">
        <ele>56</ele>
        <time>2020-12-20T11:42:59Z</time>
      </trkpt>
      <trkpt lat="47.8366" lon="-0.96296">
        <ele>56.1</ele>
        <time>2020-12-20T11:43:00Z</time>
      </trkpt>
      <trkpt lat="47.83658" lon="-0.963">
        <ele>56.1</ele>
        <time>2020-12-20T11:43:01Z</time>
      </trkpt>
      <trkpt lat="47.83657" lon="-0.96304">
        <ele>56.2</ele>
        <time>2020-12-20T11:43:02Z</time>
      </trkpt>
      <trkpt lat="47.83656" lon="-0.96309">
        <ele>56.3</ele>
        <time>2020-12-20T11:43:03Z</time>
      </trkpt>
      <trkpt lat="47.83656" lon="-0.96313">
        <ele>56.4</ele>
        <time>2020-12-20T11:43:04Z</time>
      </trkpt>
      <trkpt lat="47.83654" lon="-0.96317">
        <ele>56.5</ele>
        <time>2020-12-20T11:43:05Z</time>
      </trkpt>
      <trkpt lat="47.83652" lon="-0.9632">
        <ele>56.5</ele>
        <time>2020-12-20T11:43:06Z</time>
      </trkpt>
      <trkpt lat="47.83651" lon="-0.96323">
        <ele>56.6</ele>
        <time>2020-12-20T11:43:07Z</time>
      </trkpt>
      <trkpt lat="47.83649" lon="-0.96326">
        <ele>56.6</ele>
        <time>2020-12-20T11:43:08Z</time>
      </trkpt>
      <trkpt lat="47.83647" lon="-0.9633">
        <ele>56.7</ele>
        <time>2020-12-20T11:43:09Z</time>
      </trkpt>
      <trkpt lat="47.83645" lon="-0.96333">
        <ele>56.7</ele>
        <time>2020-12-20T11:43:10Z</time>
      </trkpt>
      <trkpt lat="47.83642" lon="-0.96336">
        <ele>56.8</ele>
        <time>2020-12-20T11:43:11Z</time>
      </trkpt>
      <trkpt lat="47.8364" lon="-0.9634">
        <ele>56.9</ele>
        <time>2020-12-20T11:43:12Z</time>
      </trkpt>
      <trkpt lat="47.83638" lon="-0.96345">
        <ele>57</ele>
        <time>2020-12-20T11:43:13Z</time>
      </trkpt>
      <trkpt lat="47.83637" lon="-0.96351">
        <ele>57.2</ele>
        <time>2020-12-20T11:43:14Z</time>
      </trkpt>
      <trkpt lat="47.83635" lon="-0.96357">
        <ele>57.4</ele>
        <time>2020-12-20T11:43:15Z</time>
      </trkpt>
      <trkpt lat="47.83634" lon="-0.96363">
        <ele>57.5</ele>
        <time>2020-12-20T11:43:16Z</time>
      </trkpt>
      <trkpt lat="47.83632" lon="-0.96368">
        <ele>57.7</ele>
        <time>2020-12-20T11:43:17Z</time>
      </trkpt>
      <trkpt lat="47.8363" lon="-0.96372">
        <ele>57.7</ele>
        <time>2020-12-20T11:43:18Z</time>
      </trkpt>
      <trkpt lat="47.83628" lon="-0.96377">
        <ele>57.9</ele>
        <time>2020-12-20T11:43:19Z</time>
      </trkpt>
      <trkpt lat="47.83626" lon="-0.96381">
        <ele>57.9</ele>
        <time>2020-12-20T11:43:20Z</time>
      </trkpt>
      <trkpt lat="47.83624" lon="-0.96386">
        <ele>58.1</ele>
        <time>2020-12-20T11:43:21Z</time>
      </trkpt>
      <trkpt lat="47.83622" lon="-0.96391">
        <ele>58.2</ele>
        <time>2020-12-20T11:43:22Z</time>
      </trkpt>
      <trkpt lat="47.8362" lon="-0.96396">
        <ele>58.3</ele>
        <time>2020-12-20T11:43:23Z</time>
      </trkpt>
      <trkpt lat="47.83618" lon="-0.96401">
        <ele>58.4</ele>
        <time>2020-12-20T11:43:24Z</time>
      </trkpt>
      <trkpt lat="47.83616" lon="-0.96406">
        <ele>58.5</ele>
        <time>2020-12-20T11:43:25Z</time>
      </trkpt>
      <trkpt lat="47.83615" lon="-0.96411">
        <ele>58.6</ele>
        <time>2020-12-20T11:43:26Z</time>
      </trkpt>
      <trkpt lat="47.83614" lon="-0.96417">
        <ele>58.7</ele>
        <time>2020-12-20T11:43:27Z</time>
      </trkpt>
      <trkpt lat="47.83612" lon="-0.96422">
        <ele>58.8</ele>
        <time>2020-12-20T11:43:28Z</time>
      </trkpt>
      <trkpt lat="47.8361" lon="-0.96428">
        <ele>59</ele>
        <time>2020-12-20T11:43:29Z</time>
      </trkpt>
      <trkpt lat="47.83608" lon="-0.96433">
        <ele>59</ele>
        <time>2020-12-20T11:43:30Z</time>
      </trkpt>
      <trkpt lat="47.83606" lon="-0.96438">
        <ele>59.1</ele>
        <time>2020-12-20T11:43:31Z</time>
      </trkpt>
      <trkpt lat="47.83605" lon="-0.96444">
        <ele>59.3</ele>
        <time>2020-12-20T11:43:32Z</time>
      </trkpt>
      <trkpt lat="47.83604" lon="-0.9645">
        <ele>59.4</ele>
        <time>2020-12-20T11:43:33Z</time>
      </trkpt>
      <trkpt lat="47.83603" lon="-0.96457">
        <ele>59.6</ele>
        <time>2020-12-20T11:43:34Z</time>
      </trkpt>
      <trkpt lat="47.83602" lon="-0.96464">
        <ele>59.7</ele>
        <time>2020-12-20T11:43:35Z</time>
      </trkpt>
      <trkpt lat="47.836" lon="-0.9647">
        <ele>59.8</ele>
        <time>2020-12-20T11:43:36Z</time>
      </trkpt>
      <trkpt lat="47.83598" lon="-0.96475">
        <ele>59.9</ele>
        <time>2020-12-20T11:43:37Z</time>
      </trkpt>
      <trkpt lat="47.83597" lon="-0.96481">
        <ele>60</ele>
        <time>2020-12-20T11:43:38Z</time>
      </trkpt>
      <trkpt lat="47.83595" lon="-0.96487">
        <ele>60.1</ele>
        <time>2020-12-20T11:43:39Z</time>
      </trkpt>
      <trkpt lat="47.83593" lon="-0.96493">
        <ele>60.2</ele>
        <time>2020-12-20T11:43:40Z</time>
      </trkpt>
      <trkpt lat="47.83591" lon="-0.96499">
        <ele>60.3</ele>
        <time>2020-12-20T11:43:41Z</time>
      </trkpt>
      <trkpt lat="47.83589" lon="-0.96505">
        <ele>60.6</ele>
        <time>2020-12-20T11:43:42Z</time>
      </trkpt>
      <trkpt lat="47.83587" lon="-0.96511">
        <ele>60.9</ele>
        <time>2020-12-20T11:43:43Z</time>
      </trkpt>
      <trkpt lat="47.83585" lon="-0.96516">
        <ele>61.2</ele>
        <time>2020-12-20T11:43:44Z</time>
      </trkpt>
      <trkpt lat="47.83583" lon="-0.96522">
        <ele>61.6</ele>
        <time>2020-12-20T11:43:45Z</time>
      </trkpt>
      <trkpt lat="47.83581" lon="-0.96527">
        <ele>61.8</ele>
        <time>2020-12-20T11:43:46Z</time>
      </trkpt>
      <trkpt lat="47.83578" lon="-0.96533">
        <ele>62.1</ele>
        <time>2020-12-20T11:43:47Z</time>
      </trkpt>
      <trkpt lat="47.83576" lon="-0.96539">
        <ele>62.5</ele>
        <time>2020-12-20T11:43:48Z</time>
      </trkpt>
      <trkpt lat="47.83574" lon="-0.96544">
        <ele>62.7</ele>
        <time>2020-12-20T11:43:49Z</time>
      </trkpt>
      <trkpt lat="47.83572" lon="-0.96549">
        <ele>63</ele>
        <time>2020-12-20T11:43:50Z</time>
      </trkpt>
      <trkpt lat="47.83569" lon="-0.96555">
        <ele>63.2</ele>
        <time>2020-12-20T11:43:51Z</time>
      </trkpt>
      <trkpt lat="47.83567" lon="-0.9656">
        <ele>63.4</ele>
        <time>2020-12-20T11:43:52Z</time>
      </trkpt>
      <trkpt lat="47.83565" lon="-0.96565">
        <ele>63.7</ele>
        <time>2020-12-20T11:43:53Z</time>
      </trkpt>
      <trkpt lat="47.83563" lon="-0.9657">
        <ele>63.9</ele>
        <time>2020-12-20T11:43:54Z</time>
      </trkpt>
      <trkpt lat="47.83561" lon="-0.96576">
        <ele>64.2</ele>
        <time>2020-12-20T11:43:55Z</time>
      </trkpt>
      <trkpt lat="47.83559" lon="-0.96581">
        <ele>64.4</ele>
        <time>2020-12-20T11:43:56Z</time>
      </trkpt>
      <trkpt lat="47.83558" lon="-0.96587">
        <ele>64.6</ele>
        <time>2020-12-20T11:43:57Z</time>
      </trkpt>
      <trkpt lat="47.83556" lon="-0.96592">
        <ele>64.6</ele>
        <time>2020-12-20T11:43:58Z</time>
      </trkpt>
      <trkpt lat="47.83554" lon="-0.96598">
        <ele>64.6</ele>
        <time>2020-12-20T11:43:59Z</time>
      </trkpt>
      <trkpt lat="47.83552" lon="-0.96603">
        <ele>64.6</ele>
        <time>2020-12-20T11:44:00Z</time>
      </trkpt>
      <trkpt lat="47.83549" lon="-0.96609">
        <ele>64.6</ele>
        <time>2020-12-20T11:44:01Z</time>
      </trkpt>
      <trkpt lat="47.83548" lon="-0.96614">
        <ele>64.7</ele>
        <time>2020-12-20T11:44:02Z</time>
      </trkpt>
      <trkpt lat="47.83546" lon="-0.9662">
        <ele>64.8</ele>
        <time>2020-12-20T11:44:03Z</time>
      </trkpt>
      <trkpt lat="47.83545" lon="-0.96626">
        <ele>64.9</ele>
        <time>2020-12-20T11:44:04Z</time>
      </trkpt>
      <trkpt lat="47.83543" lon="-0.96632">
        <ele>65</ele>
        <time>2020-12-20T11:44:05Z</time>
      </trkpt>
      <trkpt lat="47.83542" lon="-0.96637">
        <ele>65.1</ele>
        <time>2020-12-20T11:44:06Z</time>
      </trkpt>
      <trkpt lat="47.83539" lon="-0.96642">
        <ele>65.2</ele>
        <time>2020-12-20T11:44:07Z</time>
      </trkpt>
      <trkpt lat="47.83536" lon="-0.96646">
        <ele>65.2</ele>
        <time>2020-12-20T11:44:08Z</time>
      </trkpt>
      <trkpt lat="47.83534" lon="-0.96651">
        <ele>65.3</ele>
        <time>2020-12-20T11:44:09Z</time>
      </trkpt>
      <trkpt lat="47.83532" lon="-0.96658">
        <ele>65.5</ele>
        <time>2020-12-20T11:44:10Z</time>
      </trkpt>
      <trkpt lat="47.83531" lon="-0.96664">
        <ele>65.7</ele>
        <time>2020-12-20T11:44:11Z</time>
      </trkpt>
      <trkpt lat="47.8353" lon="-0.9667">
        <ele>65.7</ele>
        <time>2020-12-20T11:44:12Z</time>
      </trkpt>
      <trkpt lat="47.83529" lon="-0.96675">
        <ele>65.7</ele>
        <time>2020-12-20T11:44:13Z</time>
      </trkpt>
      <trkpt lat="47.83527" lon="-0.96679">
        <ele>65.6</ele>
        <time>2020-12-20T11:44:14Z</time>
      </trkpt>
      <trkpt lat="47.83526" lon="-0.96682">
        <ele>65.6</ele>
        <time>2020-12-20T11:44:15Z</time>
      </trkpt>
      <trkpt lat="47.83525" lon="-0.96684">
        <ele>65.5</ele>
        <time>2020-12-20T11:44:16Z</time>
      </trkpt>
      <trkpt lat="47.83524" lon="-0.96688">
        <ele>65.5</ele>
        <time>2020-12-20T11:44:17Z</time>
      </trkpt>
      <trkpt lat="47.83523" lon="-0.96693">
        <ele>65.5</ele>
        <time>2020-12-20T11:44:18Z</time>
      </trkpt>
      <trkpt lat="47.83523" lon="-0.96698">
        <ele>65.4</ele>
        <time>2020-12-20T11:44:19Z</time>
      </trkpt>
      <trkpt lat="47.83523" lon="-0.96703">
        <ele>65.4</ele>
        <time>2020-12-20T11:44:20Z</time>
      </trkpt>
      <trkpt lat="47.83521" lon="-0.96709">
        <ele>65.4</ele>
        <time>2020-12-20T11:44:21Z</time>
      </trkpt>
      <trkpt lat="47.83519" lon="-0.96715">
        <ele>65.3</ele>
        <time>2020-12-20T11:44:22Z</time>
      </trkpt>
      <trkpt lat="47.83517" lon="-0.9672">
        <ele>65.3</ele>
        <time>2020-12-20T11:44:23Z</time>
      </trkpt>
      <trkpt lat="47.83516" lon="-0.96725">
        <ele>65.2</ele>
        <time>2020-12-20T11:44:24Z</time>
      </trkpt>
      <trkpt lat="47.83514" lon="-0.9673">
        <ele>65.2</ele>
        <time>2020-12-20T11:44:25Z</time>
      </trkpt>
      <trkpt lat="47.83511" lon="-0.96736">
        <ele>65.2</ele>
        <time>2020-12-20T11:44:26Z</time>
      </trkpt>
      <trkpt lat="47.83509" lon="-0.96742">
        <ele>65.1</ele>
        <time>2020-12-20T11:44:27Z</time>
      </trkpt>
      <trkpt lat="47.83508" lon="-0.96747">
        <ele>65.1</ele>
        <time>2020-12-20T11:44:28Z</time>
      </trkpt>
      <trkpt lat="47.83506" lon="-0.96753">
        <ele>65</ele>
        <time>2020-12-20T11:44:29Z</time>
      </trkpt>
      <trkpt lat="47.83503" lon="-0.96758">
        <ele>64.8</ele>
        <time>2020-12-20T11:44:30Z</time>
      </trkpt>
      <trkpt lat="47.83501" lon="-0.96763">
        <ele>64.7</ele>
        <time>2020-12-20T11:44:31Z</time>
      </trkpt>
      <trkpt lat="47.83499" lon="-0.96768">
        <ele>64.6</ele>
        <time>2020-12-20T11:44:32Z</time>
      </trkpt>
      <trkpt lat="47.83497" lon="-0.96773">
        <ele>64.5</ele>
        <time>2020-12-20T11:44:33Z</time>
      </trkpt>
      <trkpt lat="47.83495" lon="-0.96778">
        <ele>64.4</ele>
        <time>2020-12-20T11:44:34Z</time>
      </trkpt>
      <trkpt lat="47.83492" lon="-0.96783">
        <ele>64.3</ele>
        <time>2020-12-20T11:44:35Z</time>
      </trkpt>
      <trkpt lat="47.83489" lon="-0.96787">
        <ele>64.3</ele>
        <time>2020-12-20T11:44:36Z</time>
      </trkpt>
      <trkpt lat="47.83487" lon="-0.96792">
        <ele>64.2</ele>
        <time>2020-12-20T11:44:37Z</time>
      </trkpt>
      <trkpt lat="47.83485" lon="-0.96797">
        <ele>64.2</ele>
        <time>2020-12-20T11:44:38Z</time>
      </trkpt>
      <trkpt lat="47.83482" lon="-0.96802">
        <ele>64.1</ele>
        <time>2020-12-20T11:44:39Z</time>
      </trkpt>
      <trkpt lat="47.8348" lon="-0.96807">
        <ele>64</ele>
        <time>2020-12-20T11:44:40Z</time>
      </trkpt>
      <trkpt lat="47.83478" lon="-0.96812">
        <ele>64</ele>
        <time>2020-12-20T11:44:41Z</time>
      </trkpt>
      <trkpt lat="47.83475" lon="-0.96817">
        <ele>63.9</ele>
        <time>2020-12-20T11:44:42Z</time>
      </trkpt>
      <trkpt lat="47.83473" lon="-0.96822">
        <ele>63.9</ele>
        <time>2020-12-20T11:44:43Z</time>
      </trkpt>
      <trkpt lat="47.83472" lon="-0.96828">
        <ele>63.8</ele>
        <time>2020-12-20T11:44:44Z</time>
      </trkpt>
      <trkpt lat="47.83471" lon="-0.96834">
        <ele>63.7</ele>
        <time>2020-12-20T11:44:45Z</time>
      </trkpt>
      <trkpt lat="47.83469" lon="-0.9684">
        <ele>63.8</ele>
        <time>2020-12-20T11:44:46Z</time>
      </trkpt>
      <trkpt lat="47.83468" lon="-0.96846">
        <ele>63.9</ele>
        <time>2020-12-20T11:44:47Z</time>
      </trkpt>
      <trkpt lat="47.83467" lon="-0.96851">
        <ele>64</ele>
        <time>2020-12-20T11:44:48Z</time>
      </trkpt>
      <trkpt lat="47.83465" lon="-0.96857">
        <ele>64.1</ele>
        <time>2020-12-20T11:44:49Z</time>
      </trkpt>
      <trkpt lat="47.83464" lon="-0.96862">
        <ele>64.2</ele>
        <time>2020-12-20T11:44:50Z</time>
      </trkpt>
      <trkpt lat="47.83463" lon="-0.96868">
        <ele>64.3</ele>
        <time>2020-12-20T11:44:51Z</time>
      </trkpt>
      <trkpt lat="47.83461" lon="-0.96873">
        <ele>64.4</ele>
        <time>2020-12-20T11:44:52Z</time>
      </trkpt>
      <trkpt lat="47.83459" lon="-0.96878">
        <ele>64.5</ele>
        <time>2020-12-20T11:44:53Z</time>
      </trkpt>
      <trkpt lat="47.83457" lon="-0.96884">
        <ele>64.7</ele>
        <time>2020-12-20T11:44:54Z</time>
      </trkpt>
      <trkpt lat="47.83455" lon="-0.96889">
        <ele>64.8</ele>
        <time>2020-12-20T11:44:55Z</time>
      </trkpt>
      <trkpt lat="47.83452" lon="-0.96894">
        <ele>65</ele>
        <time>2020-12-20T11:44:56Z</time>
      </trkpt>
      <trkpt lat="47.8345" lon="-0.969">
        <ele>65.2</ele>
        <time>2020-12-20T11:44:57Z</time>
      </trkpt>
      <trkpt lat="47.83449" lon="-0.96906">
        <ele>65.3</ele>
        <time>2020-12-20T11:44:58Z</time>
      </trkpt>
      <trkpt lat="47.83448" lon="-0.96912">
        <ele>65.4</ele>
        <time>2020-12-20T11:44:59Z</time>
      </trkpt>
      <trkpt lat="47.83446" lon="-0.96918">
        <ele>65.6</ele>
        <time>2020-12-20T11:45:00Z</time>
      </trkpt>
      <trkpt lat="47.83445" lon="-0.96923">
        <ele>65.7</ele>
        <time>2020-12-20T11:45:01Z</time>
      </trkpt>
      <trkpt lat="47.83444" lon="-0.96928">
        <ele>65.8</ele>
        <time>2020-12-20T11:45:02Z</time>
      </trkpt>
      <trkpt lat="47.83443" lon="-0.96933">
        <ele>65.9</ele>
        <time>2020-12-20T11:45:03Z</time>
      </trkpt>
      <trkpt lat="47.83441" lon="-0.9694">
        <ele>66.1</ele>
        <time>2020-12-20T11:45:04Z</time>
      </trkpt>
      <trkpt lat="47.83439" lon="-0.96945">
        <ele>66.3</ele>
        <time>2020-12-20T11:45:05Z</time>
      </trkpt>
      <trkpt lat="47.83439" lon="-0.96951">
        <ele>66.3</ele>
        <time>2020-12-20T11:45:06Z</time>
      </trkpt>
      <trkpt lat="47.83437" lon="-0.96956">
        <ele>66.5</ele>
        <time>2020-12-20T11:45:07Z</time>
      </trkpt>
      <trkpt lat="47.83435" lon="-0.96962">
        <ele>66.7</ele>
        <time>2020-12-20T11:45:08Z</time>
      </trkpt>
      <trkpt lat="47.83433" lon="-0.96966">
        <ele>66.8</ele>
        <time>2020-12-20T11:45:09Z</time>
      </trkpt>
      <trkpt lat="47.83431" lon="-0.96972">
        <ele>67</ele>
        <time>2020-12-20T11:45:10Z</time>
      </trkpt>
      <trkpt lat="47.83429" lon="-0.96977">
        <ele>67.1</ele>
        <time>2020-12-20T11:45:11Z</time>
      </trkpt>
      <trkpt lat="47.83428" lon="-0.96982">
        <ele>67.2</ele>
        <time>2020-12-20T11:45:12Z</time>
      </trkpt>
      <trkpt lat="47.83426" lon="-0.96988">
        <ele>67.4</ele>
        <time>2020-12-20T11:45:13Z</time>
      </trkpt>
      <trkpt lat="47.83424" lon="-0.96993">
        <ele>67.6</ele>
        <time>2020-12-20T11:45:14Z</time>
      </trkpt>
      <trkpt lat="47.83422" lon="-0.96998">
        <ele>67.7</ele>
        <time>2020-12-20T11:45:15Z</time>
      </trkpt>
      <trkpt lat="47.8342" lon="-0.97002">
        <ele>67.8</ele>
        <time>2020-12-20T11:45:16Z</time>
      </trkpt>
      <trkpt lat="47.83417" lon="-0.97007">
        <ele>68</ele>
        <time>2020-12-20T11:45:17Z</time>
      </trkpt>
      <trkpt lat="47.83414" lon="-0.97012">
        <ele>67.9</ele>
        <time>2020-12-20T11:45:18Z</time>
      </trkpt>
      <trkpt lat="47.83411" lon="-0.97017">
        <ele>67.8</ele>
        <time>2020-12-20T11:45:19Z</time>
      </trkpt>
      <trkpt lat="47.83408" lon="-0.97022">
        <ele>67.8</ele>
        <time>2020-12-20T11:45:20Z</time>
      </trkpt>
      <trkpt lat="47.83405" lon="-0.97027">
        <ele>67.7</ele>
        <time>2020-12-20T11:45:21Z</time>
      </trkpt>
      <trkpt lat="47.83402" lon="-0.97033">
        <ele>67.7</ele>
        <time>2020-12-20T11:45:22Z</time>
      </trkpt>
      <trkpt lat="47.83399" lon="-0.97039">
        <ele>67.7</ele>
        <time>2020-12-20T11:45:23Z</time>
      </trkpt>
      <trkpt lat="47.83397" lon="-0.97044">
        <ele>67.7</ele>
        <time>2020-12-20T11:45:24Z</time>
      </trkpt>
      <trkpt lat="47.83395" lon="-0.9705">
        <ele>67.7</ele>
        <time>2020-12-20T11:45:25Z</time>
      </trkpt>
      <trkpt lat="47.83392" lon="-0.97057">
        <ele>67.7</ele>
        <time>2020-12-20T11:45:26Z</time>
      </trkpt>
      <trkpt lat="47.8339" lon="-0.97064">
        <ele>67.8</ele>
        <time>2020-12-20T11:45:27Z</time>
      </trkpt>
      <trkpt lat="47.83388" lon="-0.9707">
        <ele>67.8</ele>
        <time>2020-12-20T11:45:28Z</time>
      </trkpt>
      <trkpt lat="47.83386" lon="-0.97077">
        <ele>67.9</ele>
        <time>2020-12-20T11:45:29Z</time>
      </trkpt>
      <trkpt lat="47.83384" lon="-0.97083">
        <ele>68</ele>
        <time>2020-12-20T11:45:30Z</time>
      </trkpt>
      <trkpt lat="47.83383" lon="-0.97089">
        <ele>67.9</ele>
        <time>2020-12-20T11:45:31Z</time>
      </trkpt>
      <trkpt lat="47.83381" lon="-0.97097">
        <ele>67.7</ele>
        <time>2020-12-20T11:45:32Z</time>
      </trkpt>
      <trkpt lat="47.83379" lon="-0.97104">
        <ele>67.5</ele>
        <time>2020-12-20T11:45:33Z</time>
      </trkpt>
      <trkpt lat="47.83378" lon="-0.97111">
        <ele>67.3</ele>
        <time>2020-12-20T11:45:34Z</time>
      </trkpt>
      <trkpt lat="47.83377" lon="-0.97118">
        <ele>67.2</ele>
        <time>2020-12-20T11:45:35Z</time>
      </trkpt>
      <trkpt lat="47.83376" lon="-0.97124">
        <ele>67</ele>
        <time>2020-12-20T11:45:36Z</time>
      </trkpt>
      <trkpt lat="47.83375" lon="-0.97131">
        <ele>66.9</ele>
        <time>2020-12-20T11:45:37Z</time>
      </trkpt>
      <trkpt lat="47.83374" lon="-0.97138">
        <ele>66.7</ele>
        <time>2020-12-20T11:45:38Z</time>
      </trkpt>
      <trkpt lat="47.83374" lon="-0.97145">
        <ele>66.5</ele>
        <time>2020-12-20T11:45:39Z</time>
      </trkpt>
      <trkpt lat="47.83373" lon="-0.97151">
        <ele>66.4</ele>
        <time>2020-12-20T11:45:40Z</time>
      </trkpt>
      <trkpt lat="47.83373" lon="-0.97158">
        <ele>66.2</ele>
        <time>2020-12-20T11:45:41Z</time>
      </trkpt>
      <trkpt lat="47.83372" lon="-0.97166">
        <ele>66</ele>
        <time>2020-12-20T11:45:42Z</time>
      </trkpt>
      <trkpt lat="47.8337" lon="-0.97173">
        <ele>66</ele>
        <time>2020-12-20T11:45:43Z</time>
      </trkpt>
      <trkpt lat="47.83368" lon="-0.9718">
        <ele>66.1</ele>
        <time>2020-12-20T11:45:44Z</time>
      </trkpt>
      <trkpt lat="47.83366" lon="-0.97186">
        <ele>66.1</ele>
        <time>2020-12-20T11:45:45Z</time>
      </trkpt>
      <trkpt lat="47.83365" lon="-0.97192">
        <ele>66.1</ele>
        <time>2020-12-20T11:45:46Z</time>
      </trkpt>
      <trkpt lat="47.83365" lon="-0.97197">
        <ele>66.1</ele>
        <time>2020-12-20T11:45:47Z</time>
      </trkpt>
      <trkpt lat="47.83363" lon="-0.97201">
        <ele>66.1</ele>
        <time>2020-12-20T11:45:48Z</time>
      </trkpt>
      <trkpt lat="47.83363" lon="-0.97205">
        <ele>66.2</ele>
        <time>2020-12-20T11:45:49Z</time>
      </trkpt>
      <trkpt lat="47.83363" lon="-0.97208">
        <ele>66.2</ele>
        <time>2020-12-20T11:45:50Z</time>
      </trkpt>
      <trkpt lat="47.83363" lon="-0.97213">
        <ele>66.2</ele>
        <time>2020-12-20T11:45:51Z</time>
      </trkpt>
      <trkpt lat="47.83362" lon="-0.97219">
        <ele>66.2</ele>
        <time>2020-12-20T11:45:52Z</time>
      </trkpt>
      <trkpt lat="47.83362" lon="-0.97224">
        <ele>66.2</ele>
        <time>2020-12-20T11:45:53Z</time>
      </trkpt>
      <trkpt lat="47.83361" lon="-0.9723">
        <ele>66.3</ele>
        <time>2020-12-20T11:45:54Z</time>
      </trkpt>
      <trkpt lat="47.8336" lon="-0.97235">
        <ele>66.3</ele>
        <time>2020-12-20T11:45:55Z</time>
      </trkpt>
      <trkpt lat="47.83359" lon="-0.9724">
        <ele>66.3</ele>
        <time>2020-12-20T11:45:56Z</time>
      </trkpt>
      <trkpt lat="47.83359" lon="-0.97246">
        <ele>66.3</ele>
        <time>2020-12-20T11:45:57Z</time>
      </trkpt>
      <trkpt lat="47.83359" lon="-0.97252">
        <ele>66.3</ele>
        <time>2020-12-20T11:45:58Z</time>
      </trkpt>
      <trkpt lat="47.83358" lon="-0.97258">
        <ele>66.2</ele>
        <time>2020-12-20T11:45:59Z</time>
      </trkpt>
      <trkpt lat="47.83356" lon="-0.97264">
        <ele>66.1</ele>
        <time>2020-12-20T11:46:00Z</time>
      </trkpt>
      <trkpt lat="47.83355" lon="-0.9727">
        <ele>66.1</ele>
        <time>2020-12-20T11:46:01Z</time>
      </trkpt>
      <trkpt lat="47.83354" lon="-0.97277">
        <ele>66</ele>
        <time>2020-12-20T11:46:02Z</time>
      </trkpt>
      <trkpt lat="47.83353" lon="-0.97284">
        <ele>65.9</ele>
        <time>2020-12-20T11:46:03Z</time>
      </trkpt>
      <trkpt lat="47.83352" lon="-0.9729">
        <ele>65.9</ele>
        <time>2020-12-20T11:46:04Z</time>
      </trkpt>
      <trkpt lat="47.83351" lon="-0.97297">
        <ele>65.8</ele>
        <time>2020-12-20T11:46:05Z</time>
      </trkpt>
      <trkpt lat="47.8335" lon="-0.97304">
        <ele>65.7</ele>
        <time>2020-12-20T11:46:06Z</time>
      </trkpt>
      <trkpt lat="47.83349" lon="-0.97311">
        <ele>65.6</ele>
        <time>2020-12-20T11:46:07Z</time>
      </trkpt>
      <trkpt lat="47.83348" lon="-0.97318">
        <ele>65.5</ele>
        <time>2020-12-20T11:46:08Z</time>
      </trkpt>
      <trkpt lat="47.83347" lon="-0.97325">
        <ele>65.4</ele>
        <time>2020-12-20T11:46:09Z</time>
      </trkpt>
      <trkpt lat="47.83347" lon="-0.97332">
        <ele>65.3</ele>
        <time>2020-12-20T11:46:10Z</time>
      </trkpt>
      <trkpt lat="47.83345" lon="-0.9734">
        <ele>65.2</ele>
        <time>2020-12-20T11:46:11Z</time>
      </trkpt>
      <trkpt lat="47.83345" lon="-0.97347">
        <ele>65.1</ele>
        <time>2020-12-20T11:46:12Z</time>
      </trkpt>
      <trkpt lat="47.83344" lon="-0.97355">
        <ele>65</ele>
        <time>2020-12-20T11:46:13Z</time>
      </trkpt>
      <trkpt lat="47.83344" lon="-0.97362">
        <ele>64.9</ele>
        <time>2020-12-20T11:46:14Z</time>
      </trkpt>
      <trkpt lat="47.83343" lon="-0.9737">
        <ele>64.8</ele>
        <time>2020-12-20T11:46:15Z</time>
      </trkpt>
      <trkpt lat="47.83342" lon="-0.97377">
        <ele>64.7</ele>
        <time>2020-12-20T11:46:16Z</time>
      </trkpt>
      <trkpt lat="47.83342" lon="-0.97384">
        <ele>64.6</ele>
        <time>2020-12-20T11:46:17Z</time>
      </trkpt>
      <trkpt lat="47.83342" lon="-0.9739">
        <ele>64.5</ele>
        <time>2020-12-20T11:46:18Z</time>
      </trkpt>
      <trkpt lat="47.83342" lon="-0.97396">
        <ele>64.5</ele>
        <time>2020-12-20T11:46:19Z</time>
      </trkpt>
      <trkpt lat="47.83341" lon="-0.97403">
        <ele>64.3</ele>
        <time>2020-12-20T11:46:20Z</time>
      </trkpt>
      <trkpt lat="47.83341" lon="-0.97408">
        <ele>64.3</ele>
        <time>2020-12-20T11:46:21Z</time>
      </trkpt>
      <trkpt lat="47.8334" lon="-0.97414">
        <ele>64.2</ele>
        <time>2020-12-20T11:46:22Z</time>
      </trkpt>
      <trkpt lat="47.8334" lon="-0.9742">
        <ele>64.1</ele>
        <time>2020-12-20T11:46:23Z</time>
      </trkpt>
      <trkpt lat="47.8334" lon="-0.97427">
        <ele>64</ele>
        <time>2020-12-20T11:46:24Z</time>
      </trkpt>
      <trkpt lat="47.8334" lon="-0.97433">
        <ele>64</ele>
        <time>2020-12-20T11:46:25Z</time>
      </trkpt>
      <trkpt lat="47.8334" lon="-0.9744">
        <ele>63.9</ele>
        <time>2020-12-20T11:46:26Z</time>
      </trkpt>
      <trkpt lat="47.83341" lon="-0.97448">
        <ele>63.8</ele>
        <time>2020-12-20T11:46:27Z</time>
      </trkpt>
      <trkpt lat="47.83341" lon="-0.97456">
        <ele>63.7</ele>
        <time>2020-12-20T11:46:28Z</time>
      </trkpt>
      <trkpt lat="47.83341" lon="-0.97463">
        <ele>63.6</ele>
        <time>2020-12-20T11:46:29Z</time>
      </trkpt>
      <trkpt lat="47.8334" lon="-0.9747">
        <ele>63.5</ele>
        <time>2020-12-20T11:46:30Z</time>
      </trkpt>
      <trkpt lat="47.83341" lon="-0.97477">
        <ele>63.5</ele>
        <time>2020-12-20T11:46:31Z</time>
      </trkpt>
      <trkpt lat="47.8334" lon="-0.97485">
        <ele>63.3</ele>
        <time>2020-12-20T11:46:32Z</time>
      </trkpt>
      <trkpt lat="47.83339" lon="-0.97492">
        <ele>63.2</ele>
        <time>2020-12-20T11:46:33Z</time>
      </trkpt>
      <trkpt lat="47.83339" lon="-0.97499">
        <ele>63.1</ele>
        <time>2020-12-20T11:46:34Z</time>
      </trkpt>
      <trkpt lat="47.83339" lon="-0.97506">
        <ele>63.1</ele>
        <time>2020-12-20T11:46:35Z</time>
      </trkpt>
      <trkpt lat="47.83339" lon="-0.97514">
        <ele>63</ele>
        <time>2020-12-20T11:46:36Z</time>
      </trkpt>
      <trkpt lat="47.8334" lon="-0.97522">
        <ele>62.9</ele>
        <time>2020-12-20T11:46:37Z</time>
      </trkpt>
      <trkpt lat="47.83339" lon="-0.97529">
        <ele>62.8</ele>
        <time>2020-12-20T11:46:38Z</time>
      </trkpt>
      <trkpt lat="47.83339" lon="-0.97536">
        <ele>62.7</ele>
        <time>2020-12-20T11:46:39Z</time>
      </trkpt>
      <trkpt lat="47.83338" lon="-0.97542">
        <ele>62.6</ele>
        <time>2020-12-20T11:46:40Z</time>
      </trkpt>
      <trkpt lat="47.83338" lon="-0.97549">
        <ele>62.5</ele>
        <time>2020-12-20T11:46:41Z</time>
      </trkpt>
      <trkpt lat="47.83339" lon="-0.97557">
        <ele>62.4</ele>
        <time>2020-12-20T11:46:42Z</time>
      </trkpt>
      <trkpt lat="47.8334" lon="-0.97565">
        <ele>62.3</ele>
        <time>2020-12-20T11:46:43Z</time>
      </trkpt>
      <trkpt lat="47.83341" lon="-0.97573">
        <ele>62.2</ele>
        <time>2020-12-20T11:46:44Z</time>
      </trkpt>
      <trkpt lat="47.83342" lon="-0.97581">
        <ele>62.1</ele>
        <time>2020-12-20T11:46:45Z</time>
      </trkpt>
      <trkpt lat="47.83342" lon="-0.9759">
        <ele>62</ele>
        <time>2020-12-20T11:46:46Z</time>
      </trkpt>
      <trkpt lat="47.83342" lon="-0.97598">
        <ele>61.9</ele>
        <time>2020-12-20T11:46:47Z</time>
      </trkpt>
      <trkpt lat="47.83342" lon="-0.97606">
        <ele>61.8</ele>
        <time>2020-12-20T11:46:48Z</time>
      </trkpt>
      <trkpt lat="47.83341" lon="-0.97614">
        <ele>61.7</ele>
        <time>2020-12-20T11:46:49Z</time>
      </trkpt>
      <trkpt lat="47.8334" lon="-0.97622">
        <ele>61.6</ele>
        <time>2020-12-20T11:46:50Z</time>
      </trkpt>
      <trkpt lat="47.83339" lon="-0.97631">
        <ele>61.5</ele>
        <time>2020-12-20T11:46:51Z</time>
      </trkpt>
      <trkpt lat="47.8334" lon="-0.97638">
        <ele>61.4</ele>
        <time>2020-12-20T11:46:52Z</time>
      </trkpt>
      <trkpt lat="47.83341" lon="-0.97646">
        <ele>61.3</ele>
        <time>2020-12-20T11:46:53Z</time>
      </trkpt>
      <trkpt lat="47.83341" lon="-0.97655">
        <ele>61.2</ele>
        <time>2020-12-20T11:46:54Z</time>
      </trkpt>
      <trkpt lat="47.83342" lon="-0.97665">
        <ele>61.1</ele>
        <time>2020-12-20T11:46:55Z</time>
      </trkpt>
      <trkpt lat="47.83344" lon="-0.97673">
        <ele>61.1</ele>
        <time>2020-12-20T11:46:56Z</time>
      </trkpt>
      <trkpt lat="47.83347" lon="-0.9768">
        <ele>61.2</ele>
        <time>2020-12-20T11:46:57Z</time>
      </trkpt>
      <trkpt lat="47.83348" lon="-0.97689">
        <ele>61.2</ele>
        <time>2020-12-20T11:46:58Z</time>
      </trkpt>
      <trkpt lat="47.83348" lon="-0.97697">
        <ele>61.2</ele>
        <time>2020-12-20T11:46:59Z</time>
      </trkpt>
      <trkpt lat="47.8335" lon="-0.97705">
        <ele>61.2</ele>
        <time>2020-12-20T11:47:00Z</time>
      </trkpt>
      <trkpt lat="47.8335" lon="-0.97712">
        <ele>61.2</ele>
        <time>2020-12-20T11:47:01Z</time>
      </trkpt>
      <trkpt lat="47.8335" lon="-0.97719">
        <ele>61.2</ele>
        <time>2020-12-20T11:47:02Z</time>
      </trkpt>
      <trkpt lat="47.8335" lon="-0.97724">
        <ele>61.2</ele>
        <time>2020-12-20T11:47:03Z</time>
      </trkpt>
      <trkpt lat="47.8335" lon="-0.9773">
        <ele>61.2</ele>
        <time>2020-12-20T11:47:04Z</time>
      </trkpt>
      <trkpt lat="47.8335" lon="-0.97737">
        <ele>61.2</ele>
        <time>2020-12-20T11:47:05Z</time>
      </trkpt>
      <trkpt lat="47.83351" lon="-0.97744">
        <ele>61.2</ele>
        <time>2020-12-20T11:47:06Z</time>
      </trkpt>
      <trkpt lat="47.83353" lon="-0.97752">
        <ele>61.2</ele>
        <time>2020-12-20T11:47:07Z</time>
      </trkpt>
      <trkpt lat="47.83354" lon="-0.9776">
        <ele>61.3</ele>
        <time>2020-12-20T11:47:08Z</time>
      </trkpt>
      <trkpt lat="47.83355" lon="-0.97768">
        <ele>61.3</ele>
        <time>2020-12-20T11:47:09Z</time>
      </trkpt>
      <trkpt lat="47.83356" lon="-0.97776">
        <ele>61.4</ele>
        <time>2020-12-20T11:47:10Z</time>
      </trkpt>
      <trkpt lat="47.83356" lon="-0.97784">
        <ele>61.4</ele>
        <time>2020-12-20T11:47:11Z</time>
      </trkpt>
      <trkpt lat="47.83357" lon="-0.97791">
        <ele>61.4</ele>
        <time>2020-12-20T11:47:12Z</time>
      </trkpt>
      <trkpt lat="47.83357" lon="-0.97799">
        <ele>61.5</ele>
        <time>2020-12-20T11:47:13Z</time>
      </trkpt>
      <trkpt lat="47.83357" lon="-0.97807">
        <ele>61.5</ele>
        <time>2020-12-20T11:47:14Z</time>
      </trkpt>
      <trkpt lat="47.83357" lon="-0.97814">
        <ele>61.5</ele>
        <time>2020-12-20T11:47:15Z</time>
      </trkpt>
      <trkpt lat="47.83358" lon="-0.97822">
        <ele>61.6</ele>
        <time>2020-12-20T11:47:16Z</time>
      </trkpt>
      <trkpt lat="47.83358" lon="-0.97829">
        <ele>61.6</ele>
        <time>2020-12-20T11:47:17Z</time>
      </trkpt>
      <trkpt lat="47.83358" lon="-0.97836">
        <ele>61.6</ele>
        <time>2020-12-20T11:47:18Z</time>
      </trkpt>
      <trkpt lat="47.83359" lon="-0.97842">
        <ele>61.7</ele>
        <time>2020-12-20T11:47:19Z</time>
      </trkpt>
      <trkpt lat="47.83361" lon="-0.97849">
        <ele>61.9</ele>
        <time>2020-12-20T11:47:20Z</time>
      </trkpt>
      <trkpt lat="47.83362" lon="-0.97855">
        <ele>61.9</ele>
        <time>2020-12-20T11:47:21Z</time>
      </trkpt>
      <trkpt lat="47.83362" lon="-0.97863">
        <ele>62</ele>
        <time>2020-12-20T11:47:22Z</time>
      </trkpt>
      <trkpt lat="47.83363" lon="-0.97871">
        <ele>62.2</ele>
        <time>2020-12-20T11:47:23Z</time>
      </trkpt>
      <trkpt lat="47.83364" lon="-0.9788">
        <ele>62.3</ele>
        <time>2020-12-20T11:47:24Z</time>
      </trkpt>
      <trkpt lat="47.83365" lon="-0.97888">
        <ele>62.4</ele>
        <time>2020-12-20T11:47:25Z</time>
      </trkpt>
      <trkpt lat="47.83367" lon="-0.97897">
        <ele>62.6</ele>
        <time>2020-12-20T11:47:26Z</time>
      </trkpt>
      <trkpt lat="47.83367" lon="-0.97906">
        <ele>62.7</ele>
        <time>2020-12-20T11:47:27Z</time>
      </trkpt>
      <trkpt lat="47.83368" lon="-0.97914">
        <ele>62.8</ele>
        <time>2020-12-20T11:47:28Z</time>
      </trkpt>
      <trkpt lat="47.83369" lon="-0.97922">
        <ele>62.9</ele>
        <time>2020-12-20T11:47:29Z</time>
      </trkpt>
      <trkpt lat="47.83369" lon="-0.9793">
        <ele>62.9</ele>
        <time>2020-12-20T11:47:30Z</time>
      </trkpt>
      <trkpt lat="47.8337" lon="-0.97938">
        <ele>62.9</ele>
        <time>2020-12-20T11:47:31Z</time>
      </trkpt>
      <trkpt lat="47.83372" lon="-0.97946">
        <ele>62.9</ele>
        <time>2020-12-20T11:47:32Z</time>
      </trkpt>
      <trkpt lat="47.83372" lon="-0.97953">
        <ele>62.9</ele>
        <time>2020-12-20T11:47:33Z</time>
      </trkpt>
      <trkpt lat="47.83373" lon="-0.9796">
        <ele>63</ele>
        <time>2020-12-20T11:47:34Z</time>
      </trkpt>
      <trkpt lat="47.83373" lon="-0.97967">
        <ele>63</ele>
        <time>2020-12-20T11:47:35Z</time>
      </trkpt>
      <trkpt lat="47.83374" lon="-0.97975">
        <ele>63</ele>
        <time>2020-12-20T11:47:36Z</time>
      </trkpt>
      <trkpt lat="47.83375" lon="-0.97982">
        <ele>63</ele>
        <time>2020-12-20T11:47:37Z</time>
      </trkpt>
      <trkpt lat="47.83376" lon="-0.97989">
        <ele>63</ele>
        <time>2020-12-20T11:47:38Z</time>
      </trkpt>
      <trkpt lat="47.83377" lon="-0.97998">
        <ele>63</ele>
        <time>2020-12-20T11:47:39Z</time>
      </trkpt>
      <trkpt lat="47.83378" lon="-0.98006">
        <ele>63</ele>
        <time>2020-12-20T11:47:40Z</time>
      </trkpt>
      <trkpt lat="47.83379" lon="-0.98013">
        <ele>63</ele>
        <time>2020-12-20T11:47:41Z</time>
      </trkpt>
      <trkpt lat="47.8338" lon="-0.9802">
        <ele>63</ele>
        <time>2020-12-20T11:47:42Z</time>
      </trkpt>
      <trkpt lat="47.83383" lon="-0.98035">
        <ele>62.9</ele>
        <time>2020-12-20T11:47:44Z</time>
      </trkpt>
      <trkpt lat="47.83384" lon="-0.98043">
        <ele>62.9</ele>
        <time>2020-12-20T11:47:45Z</time>
      </trkpt>
      <trkpt lat="47.83385" lon="-0.98051">
        <ele>62.9</ele>
        <time>2020-12-20T11:47:46Z</time>
      </trkpt>
      <trkpt lat="47.83386" lon="-0.98058">
        <ele>62.8</ele>
        <time>2020-12-20T11:47:47Z</time>
      </trkpt>
      <trkpt lat="47.83387" lon="-0.98066">
        <ele>62.8</ele>
        <time>2020-12-20T11:47:48Z</time>
      </trkpt>
      <trkpt lat="47.83387" lon="-0.98073">
        <ele>62.7</ele>
        <time>2020-12-20T11:47:49Z</time>
      </trkpt>
      <trkpt lat="47.83387" lon="-0.98081">
        <ele>62.7</ele>
        <time>2020-12-20T11:47:50Z</time>
      </trkpt>
      <trkpt lat="47.83388" lon="-0.98089">
        <ele>62.5</ele>
        <time>2020-12-20T11:47:51Z</time>
      </trkpt>
      <trkpt lat="47.83388" lon="-0.98097">
        <ele>62.4</ele>
        <time>2020-12-20T11:47:52Z</time>
      </trkpt>
      <trkpt lat="47.83388" lon="-0.98105">
        <ele>62.2</ele>
        <time>2020-12-20T11:47:53Z</time>
      </trkpt>
      <trkpt lat="47.83388" lon="-0.98114">
        <ele>62</ele>
        <time>2020-12-20T11:47:54Z</time>
      </trkpt>
      <trkpt lat="47.83389" lon="-0.98122">
        <ele>61.9</ele>
        <time>2020-12-20T11:47:55Z</time>
      </trkpt>
      <trkpt lat="47.8339" lon="-0.98129">
        <ele>61.8</ele>
        <time>2020-12-20T11:47:56Z</time>
      </trkpt>
      <trkpt lat="47.8339" lon="-0.98137">
        <ele>61.6</ele>
        <time>2020-12-20T11:47:57Z</time>
      </trkpt>
      <trkpt lat="47.83391" lon="-0.98145">
        <ele>61.4</ele>
        <time>2020-12-20T11:47:58Z</time>
      </trkpt>
      <trkpt lat="47.83392" lon="-0.98153">
        <ele>61.3</ele>
        <time>2020-12-20T11:47:59Z</time>
      </trkpt>
      <trkpt lat="47.83391" lon="-0.98163">
        <ele>61.1</ele>
        <time>2020-12-20T11:48:00Z</time>
      </trkpt>
      <trkpt lat="47.83392" lon="-0.98173">
        <ele>60.9</ele>
        <time>2020-12-20T11:48:02Z</time>
      </trkpt>
      <trkpt lat="47.83393" lon="-0.98181">
        <ele>60.7</ele>
        <time>2020-12-20T11:48:03Z</time>
      </trkpt>
      <trkpt lat="47.83394" lon="-0.9819">
        <ele>60.5</ele>
        <time>2020-12-20T11:48:04Z</time>
      </trkpt>
      <trkpt lat="47.83396" lon="-0.98198">
        <ele>60.3</ele>
        <time>2020-12-20T11:48:05Z</time>
      </trkpt>
      <trkpt lat="47.83396" lon="-0.98206">
        <ele>60.2</ele>
        <time>2020-12-20T11:48:06Z</time>
      </trkpt>
      <trkpt lat="47.83396" lon="-0.98215">
        <ele>60</ele>
        <time>2020-12-20T11:48:07Z</time>
      </trkpt>
      <trkpt lat="47.83397" lon="-0.98223">
        <ele>59.8</ele>
        <time>2020-12-20T11:48:08Z</time>
      </trkpt>
      <trkpt lat="47.83398" lon="-0.98233">
        <ele>59.6</ele>
        <time>2020-12-20T11:48:09Z</time>
      </trkpt>
      <trkpt lat="47.83399" lon="-0.98241">
        <ele>59.4</ele>
        <time>2020-12-20T11:48:10Z</time>
      </trkpt>
      <trkpt lat="47.83399" lon="-0.98249">
        <ele>59.2</ele>
        <time>2020-12-20T11:48:11Z</time>
      </trkpt>
      <trkpt lat="47.83399" lon="-0.98258">
        <ele>59.1</ele>
        <time>2020-12-20T11:48:12Z</time>
      </trkpt>
      <trkpt lat="47.834" lon="-0.98266">
        <ele>58.9</ele>
        <time>2020-12-20T11:48:13Z</time>
      </trkpt>
      <trkpt lat="47.83401" lon="-0.98275">
        <ele>58.8</ele>
        <time>2020-12-20T11:48:14Z</time>
      </trkpt>
      <trkpt lat="47.83402" lon="-0.98283">
        <ele>58.6</ele>
        <time>2020-12-20T11:48:15Z</time>
      </trkpt>
      <trkpt lat="47.83402" lon="-0.98292">
        <ele>58.5</ele>
        <time>2020-12-20T11:48:16Z</time>
      </trkpt>
      <trkpt lat="47.83402" lon="-0.98301">
        <ele>58.3</ele>
        <time>2020-12-20T11:48:17Z</time>
      </trkpt>
      <trkpt lat="47.83401" lon="-0.98309">
        <ele>58.2</ele>
        <time>2020-12-20T11:48:18Z</time>
      </trkpt>
      <trkpt lat="47.83403" lon="-0.98315">
        <ele>58.1</ele>
        <time>2020-12-20T11:48:19Z</time>
      </trkpt>
      <trkpt lat="47.83405" lon="-0.98321">
        <ele>58</ele>
        <time>2020-12-20T11:48:20Z</time>
      </trkpt>
      <trkpt lat="47.83407" lon="-0.9833">
        <ele>57.9</ele>
        <time>2020-12-20T11:48:21Z</time>
      </trkpt>
      <trkpt lat="47.83408" lon="-0.98339">
        <ele>57.6</ele>
        <time>2020-12-20T11:48:22Z</time>
      </trkpt>
      <trkpt lat="47.8341" lon="-0.98348">
        <ele>57.2</ele>
        <time>2020-12-20T11:48:23Z</time>
      </trkpt>
      <trkpt lat="47.8341" lon="-0.98356">
        <ele>56.8</ele>
        <time>2020-12-20T11:48:24Z</time>
      </trkpt>
      <trkpt lat="47.8341" lon="-0.98364">
        <ele>56.4</ele>
        <time>2020-12-20T11:48:25Z</time>
      </trkpt>
      <trkpt lat="47.8341" lon="-0.98373">
        <ele>56</ele>
        <time>2020-12-20T11:48:26Z</time>
      </trkpt>
      <trkpt lat="47.8341" lon="-0.98382">
        <ele>55.5</ele>
        <time>2020-12-20T11:48:27Z</time>
      </trkpt>
      <trkpt lat="47.8341" lon="-0.98391">
        <ele>55.1</ele>
        <time>2020-12-20T11:48:28Z</time>
      </trkpt>
      <trkpt lat="47.83411" lon="-0.984">
        <ele>54.7</ele>
        <time>2020-12-20T11:48:29Z</time>
      </trkpt>
      <trkpt lat="47.83411" lon="-0.98408">
        <ele>54.3</ele>
        <time>2020-12-20T11:48:30Z</time>
      </trkpt>
      <trkpt lat="47.83412" lon="-0.98416">
        <ele>53.9</ele>
        <time>2020-12-20T11:48:31Z</time>
      </trkpt>
      <trkpt lat="47.83412" lon="-0.98425">
        <ele>53.8</ele>
        <time>2020-12-20T11:48:32Z</time>
      </trkpt>
      <trkpt lat="47.83412" lon="-0.98433">
        <ele>53.7</ele>
        <time>2020-12-20T11:48:33Z</time>
      </trkpt>
      <trkpt lat="47.83411" lon="-0.98442">
        <ele>53.5</ele>
        <time>2020-12-20T11:48:34Z</time>
      </trkpt>
      <trkpt lat="47.83411" lon="-0.9845">
        <ele>53.4</ele>
        <time>2020-12-20T11:48:35Z</time>
      </trkpt>
      <trkpt lat="47.83409" lon="-0.98458">
        <ele>53.2</ele>
        <time>2020-12-20T11:48:36Z</time>
      </trkpt>
      <trkpt lat="47.83407" lon="-0.98467">
        <ele>53</ele>
        <time>2020-12-20T11:48:37Z</time>
      </trkpt>
      <trkpt lat="47.83405" lon="-0.98474">
        <ele>52.7</ele>
        <time>2020-12-20T11:48:38Z</time>
      </trkpt>
      <trkpt lat="47.83402" lon="-0.98482">
        <ele>52.5</ele>
        <time>2020-12-20T11:48:39Z</time>
      </trkpt>
      <trkpt lat="47.83401" lon="-0.9849">
        <ele>52.2</ele>
        <time>2020-12-20T11:48:40Z</time>
      </trkpt>
      <trkpt lat="47.83399" lon="-0.98498">
        <ele>52</ele>
        <time>2020-12-20T11:48:41Z</time>
      </trkpt>
      <trkpt lat="47.83399" lon="-0.98507">
        <ele>52</ele>
        <time>2020-12-20T11:48:42Z</time>
      </trkpt>
      <trkpt lat="47.83399" lon="-0.98516">
        <ele>52.1</ele>
        <time>2020-12-20T11:48:43Z</time>
      </trkpt>
      <trkpt lat="47.83399" lon="-0.98525">
        <ele>52.2</ele>
        <time>2020-12-20T11:48:44Z</time>
      </trkpt>
      <trkpt lat="47.83399" lon="-0.98534">
        <ele>52.3</ele>
        <time>2020-12-20T11:48:45Z</time>
      </trkpt>
      <trkpt lat="47.83399" lon="-0.98542">
        <ele>52.3</ele>
        <time>2020-12-20T11:48:46Z</time>
      </trkpt>
      <trkpt lat="47.83399" lon="-0.98542">
        <ele>52.3</ele>
        <time>2020-12-20T11:48:47Z</time>
      </trkpt>
      <trkpt lat="47.83399" lon="-0.98542">
        <ele>52.3</ele>
        <time>2020-12-20T11:48:48Z</time>
      </trkpt>
      <trkpt lat="47.83399" lon="-0.98542">
        <ele>52.3</ele>
        <time>2020-12-20T11:48:49Z</time>
      </trkpt>
      <trkpt lat="47.83399" lon="-0.98542">
        <ele>52.3</ele>
        <time>2020-12-20T11:48:50Z</time>
      </trkpt>
      <trkpt lat="47.83403" lon="-0.98574">
        <ele>52.9</ele>
        <time>2020-12-20T11:48:51Z</time>
      </trkpt>
      <trkpt lat="47.83405" lon="-0.98583">
        <ele>53.2</ele>
        <time>2020-12-20T11:48:52Z</time>
      </trkpt>
      <trkpt lat="47.83407" lon="-0.98591">
        <ele>53.4</ele>
        <time>2020-12-20T11:48:53Z</time>
      </trkpt>
      <trkpt lat="47.83408" lon="-0.98598">
        <ele>53.5</ele>
        <time>2020-12-20T11:48:54Z</time>
      </trkpt>
      <trkpt lat="47.83408" lon="-0.98606">
        <ele>53.6</ele>
        <time>2020-12-20T11:48:55Z</time>
      </trkpt>
      <trkpt lat="47.83407" lon="-0.98614">
        <ele>53.6</ele>
        <time>2020-12-20T11:48:56Z</time>
      </trkpt>
      <trkpt lat="47.83407" lon="-0.98621">
        <ele>53.7</ele>
        <time>2020-12-20T11:48:57Z</time>
      </trkpt>
      <trkpt lat="47.83406" lon="-0.98627">
        <ele>53.7</ele>
        <time>2020-12-20T11:48:58Z</time>
      </trkpt>
      <trkpt lat="47.83406" lon="-0.98634">
        <ele>53.8</ele>
        <time>2020-12-20T11:48:59Z</time>
      </trkpt>
      <trkpt lat="47.83405" lon="-0.98641">
        <ele>53.8</ele>
        <time>2020-12-20T11:49:00Z</time>
      </trkpt>
      <trkpt lat="47.83405" lon="-0.98647">
        <ele>53.8</ele>
        <time>2020-12-20T11:49:01Z</time>
      </trkpt>
      <trkpt lat="47.83404" lon="-0.98652">
        <ele>53.8</ele>
        <time>2020-12-20T11:49:02Z</time>
      </trkpt>
      <trkpt lat="47.83403" lon="-0.98658">
        <ele>53.8</ele>
        <time>2020-12-20T11:49:03Z</time>
      </trkpt>
      <trkpt lat="47.83403" lon="-0.98663">
        <ele>53.8</ele>
        <time>2020-12-20T11:49:04Z</time>
      </trkpt>
      <trkpt lat="47.83402" lon="-0.9867">
        <ele>53.7</ele>
        <time>2020-12-20T11:49:05Z</time>
      </trkpt>
      <trkpt lat="47.83401" lon="-0.98676">
        <ele>53.6</ele>
        <time>2020-12-20T11:49:06Z</time>
      </trkpt>
      <trkpt lat="47.834" lon="-0.98683">
        <ele>53.4</ele>
        <time>2020-12-20T11:49:07Z</time>
      </trkpt>
      <trkpt lat="47.834" lon="-0.98691">
        <ele>53.4</ele>
        <time>2020-12-20T11:49:08Z</time>
      </trkpt>
      <trkpt lat="47.83399" lon="-0.98698">
        <ele>53.2</ele>
        <time>2020-12-20T11:49:09Z</time>
      </trkpt>
      <trkpt lat="47.83397" lon="-0.98705">
        <ele>53</ele>
        <time>2020-12-20T11:49:10Z</time>
      </trkpt>
      <trkpt lat="47.83397" lon="-0.98712">
        <ele>52.9</ele>
        <time>2020-12-20T11:49:11Z</time>
      </trkpt>
      <trkpt lat="47.83396" lon="-0.98719">
        <ele>52.8</ele>
        <time>2020-12-20T11:49:12Z</time>
      </trkpt>
      <trkpt lat="47.83395" lon="-0.98726">
        <ele>52.7</ele>
        <time>2020-12-20T11:49:13Z</time>
      </trkpt>
      <trkpt lat="47.83394" lon="-0.98733">
        <ele>52.5</ele>
        <time>2020-12-20T11:49:14Z</time>
      </trkpt>
      <trkpt lat="47.83393" lon="-0.9874">
        <ele>52.4</ele>
        <time>2020-12-20T11:49:15Z</time>
      </trkpt>
      <trkpt lat="47.83392" lon="-0.98747">
        <ele>52.2</ele>
        <time>2020-12-20T11:49:16Z</time>
      </trkpt>
      <trkpt lat="47.83391" lon="-0.98752">
        <ele>52.2</ele>
        <time>2020-12-20T11:49:17Z</time>
      </trkpt>
      <trkpt lat="47.8339" lon="-0.98759">
        <ele>52.1</ele>
        <time>2020-12-20T11:49:18Z</time>
      </trkpt>
      <trkpt lat="47.83388" lon="-0.98767">
        <ele>51.9</ele>
        <time>2020-12-20T11:49:19Z</time>
      </trkpt>
      <trkpt lat="47.83387" lon="-0.98773">
        <ele>51.9</ele>
        <time>2020-12-20T11:49:20Z</time>
      </trkpt>
      <trkpt lat="47.83386" lon="-0.98778">
        <ele>51.8</ele>
        <time>2020-12-20T11:49:21Z</time>
      </trkpt>
      <trkpt lat="47.83384" lon="-0.98787">
        <ele>51.6</ele>
        <time>2020-12-20T11:49:22Z</time>
      </trkpt>
      <trkpt lat="47.83383" lon="-0.98792">
        <ele>51.6</ele>
        <time>2020-12-20T11:49:23Z</time>
      </trkpt>
      <trkpt lat="47.83382" lon="-0.98799">
        <ele>51.5</ele>
        <time>2020-12-20T11:49:24Z</time>
      </trkpt>
      <trkpt lat="47.83381" lon="-0.98806">
        <ele>51.4</ele>
        <time>2020-12-20T11:49:25Z</time>
      </trkpt>
      <trkpt lat="47.83379" lon="-0.98812">
        <ele>51.3</ele>
        <time>2020-12-20T11:49:26Z</time>
      </trkpt>
      <trkpt lat="47.83378" lon="-0.98819">
        <ele>51.2</ele>
        <time>2020-12-20T11:49:27Z</time>
      </trkpt>
      <trkpt lat="47.83376" lon="-0.98826">
        <ele>51.1</ele>
        <time>2020-12-20T11:49:28Z</time>
      </trkpt>
      <trkpt lat="47.83375" lon="-0.98832">
        <ele>51</ele>
        <time>2020-12-20T11:49:29Z</time>
      </trkpt>
      <trkpt lat="47.83374" lon="-0.98837">
        <ele>50.9</ele>
        <time>2020-12-20T11:49:30Z</time>
      </trkpt>
      <trkpt lat="47.83373" lon="-0.98843">
        <ele>50.9</ele>
        <time>2020-12-20T11:49:31Z</time>
      </trkpt>
      <trkpt lat="47.83372" lon="-0.98849">
        <ele>50.8</ele>
        <time>2020-12-20T11:49:32Z</time>
      </trkpt>
      <trkpt lat="47.83371" lon="-0.98854">
        <ele>50.7</ele>
        <time>2020-12-20T11:49:33Z</time>
      </trkpt>
      <trkpt lat="47.83369" lon="-0.98859">
        <ele>50.6</ele>
        <time>2020-12-20T11:49:34Z</time>
      </trkpt>
      <trkpt lat="47.83367" lon="-0.98864">
        <ele>50.4</ele>
        <time>2020-12-20T11:49:35Z</time>
      </trkpt>
      <trkpt lat="47.83366" lon="-0.9887">
        <ele>50.4</ele>
        <time>2020-12-20T11:49:36Z</time>
      </trkpt>
      <trkpt lat="47.83364" lon="-0.98874">
        <ele>50.2</ele>
        <time>2020-12-20T11:49:37Z</time>
      </trkpt>
      <trkpt lat="47.83363" lon="-0.98878">
        <ele>50.1</ele>
        <time>2020-12-20T11:49:38Z</time>
      </trkpt>
      <trkpt lat="47.83362" lon="-0.98883">
        <ele>50.1</ele>
        <time>2020-12-20T11:49:39Z</time>
      </trkpt>
      <trkpt lat="47.83362" lon="-0.98887">
        <ele>50.1</ele>
        <time>2020-12-20T11:49:40Z</time>
      </trkpt>
      <trkpt lat="47.83361" lon="-0.98892">
        <ele>50</ele>
        <time>2020-12-20T11:49:41Z</time>
      </trkpt>
      <trkpt lat="47.8336" lon="-0.98897">
        <ele>49.9</ele>
        <time>2020-12-20T11:49:42Z</time>
      </trkpt>
      <trkpt lat="47.83359" lon="-0.989">
        <ele>49.8</ele>
        <time>2020-12-20T11:49:43Z</time>
      </trkpt>
      <trkpt lat="47.83357" lon="-0.98906">
        <ele>49.7</ele>
        <time>2020-12-20T11:49:44Z</time>
      </trkpt>
      <trkpt lat="47.83356" lon="-0.9891">
        <ele>49.6</ele>
        <time>2020-12-20T11:49:45Z</time>
      </trkpt>
      <trkpt lat="47.83355" lon="-0.98915">
        <ele>49.6</ele>
        <time>2020-12-20T11:49:46Z</time>
      </trkpt>
      <trkpt lat="47.83354" lon="-0.98921">
        <ele>49.4</ele>
        <time>2020-12-20T11:49:47Z</time>
      </trkpt>
      <trkpt lat="47.83353" lon="-0.98928">
        <ele>49.1</ele>
        <time>2020-12-20T11:49:48Z</time>
      </trkpt>
      <trkpt lat="47.83352" lon="-0.98935">
        <ele>48.9</ele>
        <time>2020-12-20T11:49:49Z</time>
      </trkpt>
      <trkpt lat="47.8335" lon="-0.98941">
        <ele>48.6</ele>
        <time>2020-12-20T11:49:50Z</time>
      </trkpt>
      <trkpt lat="47.83348" lon="-0.98947">
        <ele>48.3</ele>
        <time>2020-12-20T11:49:51Z</time>
      </trkpt>
      <trkpt lat="47.83347" lon="-0.98954">
        <ele>48</ele>
        <time>2020-12-20T11:49:52Z</time>
      </trkpt>
      <trkpt lat="47.83346" lon="-0.9896">
        <ele>47.8</ele>
        <time>2020-12-20T11:49:53Z</time>
      </trkpt>
      <trkpt lat="47.83344" lon="-0.98967">
        <ele>47.5</ele>
        <time>2020-12-20T11:49:54Z</time>
      </trkpt>
      <trkpt lat="47.83342" lon="-0.98973">
        <ele>47.2</ele>
        <time>2020-12-20T11:49:55Z</time>
      </trkpt>
      <trkpt lat="47.83341" lon="-0.9898">
        <ele>47</ele>
        <time>2020-12-20T11:49:56Z</time>
      </trkpt>
      <trkpt lat="47.8334" lon="-0.98987">
        <ele>46.7</ele>
        <time>2020-12-20T11:49:57Z</time>
      </trkpt>
      <trkpt lat="47.83339" lon="-0.98994">
        <ele>46.5</ele>
        <time>2020-12-20T11:49:58Z</time>
      </trkpt>
      <trkpt lat="47.83337" lon="-0.99">
        <ele>46.2</ele>
        <time>2020-12-20T11:49:59Z</time>
      </trkpt>
      <trkpt lat="47.83336" lon="-0.99007">
        <ele>46.1</ele>
        <time>2020-12-20T11:50:00Z</time>
      </trkpt>
      <trkpt lat="47.83334" lon="-0.99014">
        <ele>45.9</ele>
        <time>2020-12-20T11:50:01Z</time>
      </trkpt>
      <trkpt lat="47.83333" lon="-0.99022">
        <ele>45.7</ele>
        <time>2020-12-20T11:50:02Z</time>
      </trkpt>
      <trkpt lat="47.83331" lon="-0.9903">
        <ele>45.5</ele>
        <time>2020-12-20T11:50:03Z</time>
      </trkpt>
      <trkpt lat="47.83329" lon="-0.99037">
        <ele>45.3</ele>
        <time>2020-12-20T11:50:04Z</time>
      </trkpt>
      <trkpt lat="47.83328" lon="-0.99044">
        <ele>45.1</ele>
        <time>2020-12-20T11:50:05Z</time>
      </trkpt>
      <trkpt lat="47.83327" lon="-0.99049">
        <ele>45</ele>
        <time>2020-12-20T11:50:06Z</time>
      </trkpt>
      <trkpt lat="47.83326" lon="-0.99056">
        <ele>44.9</ele>
        <time>2020-12-20T11:50:07Z</time>
      </trkpt>
      <trkpt lat="47.83325" lon="-0.99065">
        <ele>44.8</ele>
        <time>2020-12-20T11:50:08Z</time>
      </trkpt>
      <trkpt lat="47.83323" lon="-0.99072">
        <ele>44.6</ele>
        <time>2020-12-20T11:50:09Z</time>
      </trkpt>
      <trkpt lat="47.83322" lon="-0.9908">
        <ele>44.5</ele>
        <time>2020-12-20T11:50:10Z</time>
      </trkpt>
      <trkpt lat="47.8332" lon="-0.99087">
        <ele>44.3</ele>
        <time>2020-12-20T11:50:11Z</time>
      </trkpt>
      <trkpt lat="47.83319" lon="-0.99094">
        <ele>44.2</ele>
        <time>2020-12-20T11:50:12Z</time>
      </trkpt>
      <trkpt lat="47.83317" lon="-0.99102">
        <ele>44</ele>
        <time>2020-12-20T11:50:13Z</time>
      </trkpt>
      <trkpt lat="47.83315" lon="-0.9911">
        <ele>43.8</ele>
        <time>2020-12-20T11:50:14Z</time>
      </trkpt>
      <trkpt lat="47.83314" lon="-0.99117">
        <ele>43.7</ele>
        <time>2020-12-20T11:50:15Z</time>
      </trkpt>
      <trkpt lat="47.83313" lon="-0.99123">
        <ele>43.7</ele>
        <time>2020-12-20T11:50:16Z</time>
      </trkpt>
      <trkpt lat="47.83311" lon="-0.99129">
        <ele>43.6</ele>
        <time>2020-12-20T11:50:17Z</time>
      </trkpt>
      <trkpt lat="47.8331" lon="-0.99135">
        <ele>43.5</ele>
        <time>2020-12-20T11:50:18Z</time>
      </trkpt>
      <trkpt lat="47.83308" lon="-0.99142">
        <ele>43.4</ele>
        <time>2020-12-20T11:50:19Z</time>
      </trkpt>
      <trkpt lat="47.83307" lon="-0.99148">
        <ele>43.4</ele>
        <time>2020-12-20T11:50:20Z</time>
      </trkpt>
      <trkpt lat="47.83306" lon="-0.99155">
        <ele>43.4</ele>
        <time>2020-12-20T11:50:21Z</time>
      </trkpt>
      <trkpt lat="47.83305" lon="-0.99162">
        <ele>43.4</ele>
        <time>2020-12-20T11:50:22Z</time>
      </trkpt>
      <trkpt lat="47.83303" lon="-0.99168">
        <ele>43.4</ele>
        <time>2020-12-20T11:50:23Z</time>
      </trkpt>
      <trkpt lat="47.83302" lon="-0.99176">
        <ele>43.9</ele>
        <time>2020-12-20T11:50:24Z</time>
      </trkpt>
      <trkpt lat="47.83301" lon="-0.99183">
        <ele>44.3</ele>
        <time>2020-12-20T11:50:25Z</time>
      </trkpt>
      <trkpt lat="47.833" lon="-0.9919">
        <ele>44.7</ele>
        <time>2020-12-20T11:50:26Z</time>
      </trkpt>
      <trkpt lat="47.83298" lon="-0.99196">
        <ele>45</ele>
        <time>2020-12-20T11:50:27Z</time>
      </trkpt>
      <trkpt lat="47.83297" lon="-0.99203">
        <ele>45.4</ele>
        <time>2020-12-20T11:50:28Z</time>
      </trkpt>
      <trkpt lat="47.83295" lon="-0.9921">
        <ele>45.8</ele>
        <time>2020-12-20T11:50:29Z</time>
      </trkpt>
      <trkpt lat="47.83293" lon="-0.99217">
        <ele>46.2</ele>
        <time>2020-12-20T11:50:30Z</time>
      </trkpt>
      <trkpt lat="47.83291" lon="-0.99224">
        <ele>46.6</ele>
        <time>2020-12-20T11:50:31Z</time>
      </trkpt>
      <trkpt lat="47.8329" lon="-0.99232">
        <ele>47</ele>
        <time>2020-12-20T11:50:32Z</time>
      </trkpt>
      <trkpt lat="47.83288" lon="-0.99239">
        <ele>47.4</ele>
        <time>2020-12-20T11:50:33Z</time>
      </trkpt>
      <trkpt lat="47.83287" lon="-0.99245">
        <ele>47.7</ele>
        <time>2020-12-20T11:50:34Z</time>
      </trkpt>
      <trkpt lat="47.83286" lon="-0.9925">
        <ele>48</ele>
        <time>2020-12-20T11:50:35Z</time>
      </trkpt>
      <trkpt lat="47.83286" lon="-0.99256">
        <ele>48.3</ele>
        <time>2020-12-20T11:50:36Z</time>
      </trkpt>
      <trkpt lat="47.83285" lon="-0.99262">
        <ele>48.5</ele>
        <time>2020-12-20T11:50:37Z</time>
      </trkpt>
      <trkpt lat="47.83283" lon="-0.99269">
        <ele>48.8</ele>
        <time>2020-12-20T11:50:38Z</time>
      </trkpt>
      <trkpt lat="47.8328" lon="-0.99276">
        <ele>49.1</ele>
        <time>2020-12-20T11:50:39Z</time>
      </trkpt>
      <trkpt lat="47.83278" lon="-0.99283">
        <ele>49.3</ele>
        <time>2020-12-20T11:50:40Z</time>
      </trkpt>
      <trkpt lat="47.83277" lon="-0.9929">
        <ele>49.6</ele>
        <time>2020-12-20T11:50:41Z</time>
      </trkpt>
      <trkpt lat="47.83276" lon="-0.99297">
        <ele>49.8</ele>
        <time>2020-12-20T11:50:42Z</time>
      </trkpt>
      <trkpt lat="47.83274" lon="-0.99305">
        <ele>50.1</ele>
        <time>2020-12-20T11:50:43Z</time>
      </trkpt>
      <trkpt lat="47.83272" lon="-0.99312">
        <ele>50.3</ele>
        <time>2020-12-20T11:50:44Z</time>
      </trkpt>
      <trkpt lat="47.83271" lon="-0.9932">
        <ele>50.5</ele>
        <time>2020-12-20T11:50:45Z</time>
      </trkpt>
      <trkpt lat="47.83269" lon="-0.99326">
        <ele>50.7</ele>
        <time>2020-12-20T11:50:46Z</time>
      </trkpt>
      <trkpt lat="47.83268" lon="-0.99333">
        <ele>50.9</ele>
        <time>2020-12-20T11:50:47Z</time>
      </trkpt>
      <trkpt lat="47.83266" lon="-0.99339">
        <ele>51</ele>
        <time>2020-12-20T11:50:48Z</time>
      </trkpt>
      <trkpt lat="47.83265" lon="-0.99345">
        <ele>51.1</ele>
        <time>2020-12-20T11:50:49Z</time>
      </trkpt>
      <trkpt lat="47.83263" lon="-0.99351">
        <ele>51.3</ele>
        <time>2020-12-20T11:50:50Z</time>
      </trkpt>
      <trkpt lat="47.83262" lon="-0.99358">
        <ele>51.5</ele>
        <time>2020-12-20T11:50:51Z</time>
      </trkpt>
      <trkpt lat="47.83261" lon="-0.99364">
        <ele>51.6</ele>
        <time>2020-12-20T11:50:52Z</time>
      </trkpt>
      <trkpt lat="47.8326" lon="-0.9937">
        <ele>51.8</ele>
        <time>2020-12-20T11:50:53Z</time>
      </trkpt>
      <trkpt lat="47.83259" lon="-0.99377">
        <ele>52</ele>
        <time>2020-12-20T11:50:54Z</time>
      </trkpt>
      <trkpt lat="47.83257" lon="-0.99383">
        <ele>52.1</ele>
        <time>2020-12-20T11:50:55Z</time>
      </trkpt>
      <trkpt lat="47.83255" lon="-0.99389">
        <ele>52.2</ele>
        <time>2020-12-20T11:50:56Z</time>
      </trkpt>
      <trkpt lat="47.83253" lon="-0.99395">
        <ele>52.4</ele>
        <time>2020-12-20T11:50:57Z</time>
      </trkpt>
      <trkpt lat="47.83252" lon="-0.99401">
        <ele>52.5</ele>
        <time>2020-12-20T11:50:58Z</time>
      </trkpt>
      <trkpt lat="47.8325" lon="-0.99407">
        <ele>52.7</ele>
        <time>2020-12-20T11:50:59Z</time>
      </trkpt>
      <trkpt lat="47.83248" lon="-0.99413">
        <ele>52.7</ele>
        <time>2020-12-20T11:51:00Z</time>
      </trkpt>
      <trkpt lat="47.83247" lon="-0.99419">
        <ele>52.8</ele>
        <time>2020-12-20T11:51:01Z</time>
      </trkpt>
      <trkpt lat="47.83245" lon="-0.99425">
        <ele>52.7</ele>
        <time>2020-12-20T11:51:02Z</time>
      </trkpt>
      <trkpt lat="47.83244" lon="-0.99431">
        <ele>52.8</ele>
        <time>2020-12-20T11:51:03Z</time>
      </trkpt>
      <trkpt lat="47.83243" lon="-0.99436">
        <ele>52.8</ele>
        <time>2020-12-20T11:51:04Z</time>
      </trkpt>
      <trkpt lat="47.83242" lon="-0.99442">
        <ele>52.9</ele>
        <time>2020-12-20T11:51:05Z</time>
      </trkpt>
      <trkpt lat="47.83241" lon="-0.99448">
        <ele>52.9</ele>
        <time>2020-12-20T11:51:06Z</time>
      </trkpt>
      <trkpt lat="47.8324" lon="-0.99453">
        <ele>53</ele>
        <time>2020-12-20T11:51:07Z</time>
      </trkpt>
      <trkpt lat="47.83238" lon="-0.99459">
        <ele>52.9</ele>
        <time>2020-12-20T11:51:08Z</time>
      </trkpt>
      <trkpt lat="47.83236" lon="-0.99465">
        <ele>52.9</ele>
        <time>2020-12-20T11:51:09Z</time>
      </trkpt>
      <trkpt lat="47.83235" lon="-0.99471">
        <ele>53</ele>
        <time>2020-12-20T11:51:10Z</time>
      </trkpt>
      <trkpt lat="47.83232" lon="-0.99477">
        <ele>52.9</ele>
        <time>2020-12-20T11:51:11Z</time>
      </trkpt>
      <trkpt lat="47.83231" lon="-0.99483">
        <ele>52.9</ele>
        <time>2020-12-20T11:51:12Z</time>
      </trkpt>
      <trkpt lat="47.8323" lon="-0.99489">
        <ele>53</ele>
        <time>2020-12-20T11:51:13Z</time>
      </trkpt>
      <trkpt lat="47.83228" lon="-0.99496">
        <ele>53</ele>
        <time>2020-12-20T11:51:14Z</time>
      </trkpt>
      <trkpt lat="47.83227" lon="-0.99502">
        <ele>53.2</ele>
        <time>2020-12-20T11:51:15Z</time>
      </trkpt>
      <trkpt lat="47.83225" lon="-0.99509">
        <ele>53.3</ele>
        <time>2020-12-20T11:51:16Z</time>
      </trkpt>
      <trkpt lat="47.83224" lon="-0.99515">
        <ele>53.5</ele>
        <time>2020-12-20T11:51:17Z</time>
      </trkpt>
      <trkpt lat="47.83222" lon="-0.99521">
        <ele>53.6</ele>
        <time>2020-12-20T11:51:18Z</time>
      </trkpt>
      <trkpt lat="47.83221" lon="-0.99527">
        <ele>53.7</ele>
        <time>2020-12-20T11:51:19Z</time>
      </trkpt>
      <trkpt lat="47.83219" lon="-0.99534">
        <ele>53.9</ele>
        <time>2020-12-20T11:51:20Z</time>
      </trkpt>
      <trkpt lat="47.83218" lon="-0.9954">
        <ele>54</ele>
        <time>2020-12-20T11:51:21Z</time>
      </trkpt>
      <trkpt lat="47.83217" lon="-0.99546">
        <ele>54.2</ele>
        <time>2020-12-20T11:51:22Z</time>
      </trkpt>
      <trkpt lat="47.83215" lon="-0.99551">
        <ele>54.3</ele>
        <time>2020-12-20T11:51:23Z</time>
      </trkpt>
      <trkpt lat="47.83213" lon="-0.99557">
        <ele>54.3</ele>
        <time>2020-12-20T11:51:24Z</time>
      </trkpt>
      <trkpt lat="47.83212" lon="-0.99564">
        <ele>54.5</ele>
        <time>2020-12-20T11:51:25Z</time>
      </trkpt>
      <trkpt lat="47.83211" lon="-0.9957">
        <ele>54.7</ele>
        <time>2020-12-20T11:51:26Z</time>
      </trkpt>
      <trkpt lat="47.8321" lon="-0.99577">
        <ele>54.9</ele>
        <time>2020-12-20T11:51:27Z</time>
      </trkpt>
      <trkpt lat="47.83209" lon="-0.99583">
        <ele>55</ele>
        <time>2020-12-20T11:51:28Z</time>
      </trkpt>
      <trkpt lat="47.83209" lon="-0.9959">
        <ele>55.2</ele>
        <time>2020-12-20T11:51:29Z</time>
      </trkpt>
      <trkpt lat="47.83207" lon="-0.99596">
        <ele>55.1</ele>
        <time>2020-12-20T11:51:30Z</time>
      </trkpt>
      <trkpt lat="47.83207" lon="-0.99603">
        <ele>55.2</ele>
        <time>2020-12-20T11:51:31Z</time>
      </trkpt>
      <trkpt lat="47.83206" lon="-0.99609">
        <ele>55.3</ele>
        <time>2020-12-20T11:51:32Z</time>
      </trkpt>
      <trkpt lat="47.83204" lon="-0.99616">
        <ele>55.2</ele>
        <time>2020-12-20T11:51:33Z</time>
      </trkpt>
      <trkpt lat="47.83203" lon="-0.99622">
        <ele>55.3</ele>
        <time>2020-12-20T11:51:34Z</time>
      </trkpt>
      <trkpt lat="47.83202" lon="-0.99628">
        <ele>55.3</ele>
        <time>2020-12-20T11:51:35Z</time>
      </trkpt>
      <trkpt lat="47.83201" lon="-0.99635">
        <ele>55.4</ele>
        <time>2020-12-20T11:51:36Z</time>
      </trkpt>
      <trkpt lat="47.83201" lon="-0.99642">
        <ele>55.5</ele>
        <time>2020-12-20T11:51:37Z</time>
      </trkpt>
      <trkpt lat="47.832" lon="-0.9965">
        <ele>55.6</ele>
        <time>2020-12-20T11:51:38Z</time>
      </trkpt>
      <trkpt lat="47.83198" lon="-0.99657">
        <ele>55.7</ele>
        <time>2020-12-20T11:51:39Z</time>
      </trkpt>
      <trkpt lat="47.83197" lon="-0.99663">
        <ele>55.7</ele>
        <time>2020-12-20T11:51:40Z</time>
      </trkpt>
      <trkpt lat="47.83196" lon="-0.99669">
        <ele>55.8</ele>
        <time>2020-12-20T11:51:41Z</time>
      </trkpt>
      <trkpt lat="47.83194" lon="-0.99675">
        <ele>55.9</ele>
        <time>2020-12-20T11:51:42Z</time>
      </trkpt>
      <trkpt lat="47.83193" lon="-0.99681">
        <ele>56.1</ele>
        <time>2020-12-20T11:51:43Z</time>
      </trkpt>
      <trkpt lat="47.83191" lon="-0.99687">
        <ele>56.2</ele>
        <time>2020-12-20T11:51:44Z</time>
      </trkpt>
      <trkpt lat="47.83189" lon="-0.99693">
        <ele>56.3</ele>
        <time>2020-12-20T11:51:45Z</time>
      </trkpt>
      <trkpt lat="47.83188" lon="-0.99699">
        <ele>56.4</ele>
        <time>2020-12-20T11:51:46Z</time>
      </trkpt>
      <trkpt lat="47.83186" lon="-0.99705">
        <ele>56.5</ele>
        <time>2020-12-20T11:51:47Z</time>
      </trkpt>
      <trkpt lat="47.83185" lon="-0.99711">
        <ele>56.7</ele>
        <time>2020-12-20T11:51:48Z</time>
      </trkpt>
      <trkpt lat="47.83183" lon="-0.99718">
        <ele>56.8</ele>
        <time>2020-12-20T11:51:49Z</time>
      </trkpt>
      <trkpt lat="47.83181" lon="-0.99724">
        <ele>56.9</ele>
        <time>2020-12-20T11:51:50Z</time>
      </trkpt>
      <trkpt lat="47.83178" lon="-0.9973">
        <ele>57</ele>
        <time>2020-12-20T11:51:51Z</time>
      </trkpt>
      <trkpt lat="47.83176" lon="-0.99737">
        <ele>57.1</ele>
        <time>2020-12-20T11:51:52Z</time>
      </trkpt>
      <trkpt lat="47.83175" lon="-0.99744">
        <ele>57.3</ele>
        <time>2020-12-20T11:51:53Z</time>
      </trkpt>
      <trkpt lat="47.83174" lon="-0.99751">
        <ele>57.4</ele>
        <time>2020-12-20T11:51:54Z</time>
      </trkpt>
      <trkpt lat="47.83172" lon="-0.99758">
        <ele>57.3</ele>
        <time>2020-12-20T11:51:55Z</time>
      </trkpt>
      <trkpt lat="47.83171" lon="-0.99765">
        <ele>57.3</ele>
        <time>2020-12-20T11:51:56Z</time>
      </trkpt>
      <trkpt lat="47.83169" lon="-0.99771">
        <ele>57.2</ele>
        <time>2020-12-20T11:51:57Z</time>
      </trkpt>
      <trkpt lat="47.83168" lon="-0.99777">
        <ele>57.1</ele>
        <time>2020-12-20T11:51:58Z</time>
      </trkpt>
      <trkpt lat="47.83167" lon="-0.99784">
        <ele>57</ele>
        <time>2020-12-20T11:51:59Z</time>
      </trkpt>
      <trkpt lat="47.83165" lon="-0.9979">
        <ele>56.8</ele>
        <time>2020-12-20T11:52:00Z</time>
      </trkpt>
      <trkpt lat="47.83163" lon="-0.99796">
        <ele>56.6</ele>
        <time>2020-12-20T11:52:01Z</time>
      </trkpt>
      <trkpt lat="47.83161" lon="-0.99802">
        <ele>56.4</ele>
        <time>2020-12-20T11:52:02Z</time>
      </trkpt>
      <trkpt lat="47.8316" lon="-0.99808">
        <ele>56.3</ele>
        <time>2020-12-20T11:52:03Z</time>
      </trkpt>
      <trkpt lat="47.83158" lon="-0.99814">
        <ele>56</ele>
        <time>2020-12-20T11:52:04Z</time>
      </trkpt>
      <trkpt lat="47.83156" lon="-0.99821">
        <ele>55.8</ele>
        <time>2020-12-20T11:52:05Z</time>
      </trkpt>
      <trkpt lat="47.83155" lon="-0.99828">
        <ele>55.7</ele>
        <time>2020-12-20T11:52:06Z</time>
      </trkpt>
      <trkpt lat="47.83154" lon="-0.99835">
        <ele>55.6</ele>
        <time>2020-12-20T11:52:07Z</time>
      </trkpt>
      <trkpt lat="47.83152" lon="-0.99842">
        <ele>55.5</ele>
        <time>2020-12-20T11:52:08Z</time>
      </trkpt>
      <trkpt lat="47.8315" lon="-0.99848">
        <ele>55.3</ele>
        <time>2020-12-20T11:52:09Z</time>
      </trkpt>
      <trkpt lat="47.8315" lon="-0.99853">
        <ele>55.3</ele>
        <time>2020-12-20T11:52:10Z</time>
      </trkpt>
      <trkpt lat="47.83149" lon="-0.99857">
        <ele>55.2</ele>
        <time>2020-12-20T11:52:11Z</time>
      </trkpt>
      <trkpt lat="47.83148" lon="-0.99864">
        <ele>55.1</ele>
        <time>2020-12-20T11:52:12Z</time>
      </trkpt>
      <trkpt lat="47.83148" lon="-0.99871">
        <ele>55.2</ele>
        <time>2020-12-20T11:52:13Z</time>
      </trkpt>
      <trkpt lat="47.83146" lon="-0.99879">
        <ele>55</ele>
        <time>2020-12-20T11:52:14Z</time>
      </trkpt>
      <trkpt lat="47.83144" lon="-0.99885">
        <ele>54.9</ele>
        <time>2020-12-20T11:52:15Z</time>
      </trkpt>
      <trkpt lat="47.83143" lon="-0.99891">
        <ele>54.8</ele>
        <time>2020-12-20T11:52:16Z</time>
      </trkpt>
      <trkpt lat="47.83142" lon="-0.99898">
        <ele>54.8</ele>
        <time>2020-12-20T11:52:17Z</time>
      </trkpt>
      <trkpt lat="47.8314" lon="-0.99904">
        <ele>54.7</ele>
        <time>2020-12-20T11:52:18Z</time>
      </trkpt>
      <trkpt lat="47.83138" lon="-0.9991">
        <ele>54.5</ele>
        <time>2020-12-20T11:52:19Z</time>
      </trkpt>
      <trkpt lat="47.83136" lon="-0.99917">
        <ele>54.4</ele>
        <time>2020-12-20T11:52:20Z</time>
      </trkpt>
      <trkpt lat="47.83134" lon="-0.99923">
        <ele>54.3</ele>
        <time>2020-12-20T11:52:21Z</time>
      </trkpt>
      <trkpt lat="47.83134" lon="-0.99929">
        <ele>54.4</ele>
        <time>2020-12-20T11:52:22Z</time>
      </trkpt>
      <trkpt lat="47.83134" lon="-0.9994">
        <ele>54.6</ele>
        <time>2020-12-20T11:52:23Z</time>
      </trkpt>
      <trkpt lat="47.83134" lon="-0.99946">
        <ele>54.7</ele>
        <time>2020-12-20T11:52:24Z</time>
      </trkpt>
      <trkpt lat="47.83135" lon="-0.99955">
        <ele>54.9</ele>
        <time>2020-12-20T11:52:25Z</time>
      </trkpt>
      <trkpt lat="47.83134" lon="-0.99963">
        <ele>54.9</ele>
        <time>2020-12-20T11:52:26Z</time>
      </trkpt>
      <trkpt lat="47.83133" lon="-0.99969">
        <ele>54.9</ele>
        <time>2020-12-20T11:52:27Z</time>
      </trkpt>
      <trkpt lat="47.83131" lon="-0.99975">
        <ele>54.8</ele>
        <time>2020-12-20T11:52:28Z</time>
      </trkpt>
      <trkpt lat="47.8313" lon="-0.9998">
        <ele>54.8</ele>
        <time>2020-12-20T11:52:29Z</time>
      </trkpt>
      <trkpt lat="47.83128" lon="-0.99986">
        <ele>54.6</ele>
        <time>2020-12-20T11:52:30Z</time>
      </trkpt>
      <trkpt lat="47.83127" lon="-0.99991">
        <ele>54.6</ele>
        <time>2020-12-20T11:52:31Z</time>
      </trkpt>
      <trkpt lat="47.83125" lon="-0.99996">
        <ele>54.5</ele>
        <time>2020-12-20T11:52:32Z</time>
      </trkpt>
      <trkpt lat="47.83123" lon="-1.00002">
        <ele>54.3</ele>
        <time>2020-12-20T11:52:33Z</time>
      </trkpt>
      <trkpt lat="47.83122" lon="-1.00007">
        <ele>54.2</ele>
        <time>2020-12-20T11:52:34Z</time>
      </trkpt>
      <trkpt lat="47.83121" lon="-1.00013">
        <ele>54.2</ele>
        <time>2020-12-20T11:52:35Z</time>
      </trkpt>
      <trkpt lat="47.83119" lon="-1.00019">
        <ele>54</ele>
        <time>2020-12-20T11:52:36Z</time>
      </trkpt>
      <trkpt lat="47.83118" lon="-1.00025">
        <ele>53.9</ele>
        <time>2020-12-20T11:52:37Z</time>
      </trkpt>
      <trkpt lat="47.83116" lon="-1.00032">
        <ele>53.7</ele>
        <time>2020-12-20T11:52:38Z</time>
      </trkpt>
      <trkpt lat="47.83115" lon="-1.00039">
        <ele>53.7</ele>
        <time>2020-12-20T11:52:39Z</time>
      </trkpt>
      <trkpt lat="47.83114" lon="-1.00046">
        <ele>53.6</ele>
        <time>2020-12-20T11:52:40Z</time>
      </trkpt>
      <trkpt lat="47.83112" lon="-1.00053">
        <ele>53.3</ele>
        <time>2020-12-20T11:52:41Z</time>
      </trkpt>
      <trkpt lat="47.83111" lon="-1.0006">
        <ele>53.2</ele>
        <time>2020-12-20T11:52:42Z</time>
      </trkpt>
      <trkpt lat="47.8311" lon="-1.00067">
        <ele>53.1</ele>
        <time>2020-12-20T11:52:43Z</time>
      </trkpt>
      <trkpt lat="47.83109" lon="-1.00073">
        <ele>53</ele>
        <time>2020-12-20T11:52:44Z</time>
      </trkpt>
      <trkpt lat="47.83107" lon="-1.00079">
        <ele>52.7</ele>
        <time>2020-12-20T11:52:45Z</time>
      </trkpt>
      <trkpt lat="47.83106" lon="-1.00086">
        <ele>52.5</ele>
        <time>2020-12-20T11:52:46Z</time>
      </trkpt>
      <trkpt lat="47.83105" lon="-1.00093">
        <ele>52.3</ele>
        <time>2020-12-20T11:52:47Z</time>
      </trkpt>
      <trkpt lat="47.83104" lon="-1.00101">
        <ele>52.2</ele>
        <time>2020-12-20T11:52:48Z</time>
      </trkpt>
      <trkpt lat="47.83102" lon="-1.00108">
        <ele>51.9</ele>
        <time>2020-12-20T11:52:49Z</time>
      </trkpt>
      <trkpt lat="47.83101" lon="-1.00114">
        <ele>51.7</ele>
        <time>2020-12-20T11:52:50Z</time>
      </trkpt>
      <trkpt lat="47.831" lon="-1.00121">
        <ele>51.6</ele>
        <time>2020-12-20T11:52:51Z</time>
      </trkpt>
      <trkpt lat="47.83098" lon="-1.00127">
        <ele>51.4</ele>
        <time>2020-12-20T11:52:52Z</time>
      </trkpt>
      <trkpt lat="47.83097" lon="-1.00134">
        <ele>51.2</ele>
        <time>2020-12-20T11:52:53Z</time>
      </trkpt>
      <trkpt lat="47.83095" lon="-1.0014">
        <ele>51</ele>
        <time>2020-12-20T11:52:54Z</time>
      </trkpt>
      <trkpt lat="47.83093" lon="-1.00146">
        <ele>50.8</ele>
        <time>2020-12-20T11:52:55Z</time>
      </trkpt>
      <trkpt lat="47.83092" lon="-1.00152">
        <ele>50.7</ele>
        <time>2020-12-20T11:52:56Z</time>
      </trkpt>
      <trkpt lat="47.8309" lon="-1.00158">
        <ele>50.6</ele>
        <time>2020-12-20T11:52:57Z</time>
      </trkpt>
      <trkpt lat="47.83089" lon="-1.00164">
        <ele>50.5</ele>
        <time>2020-12-20T11:52:58Z</time>
      </trkpt>
      <trkpt lat="47.83087" lon="-1.00171">
        <ele>50.4</ele>
        <time>2020-12-20T11:52:59Z</time>
      </trkpt>
      <trkpt lat="47.83086" lon="-1.00177">
        <ele>50.4</ele>
        <time>2020-12-20T11:53:00Z</time>
      </trkpt>
      <trkpt lat="47.83085" lon="-1.00183">
        <ele>50.3</ele>
        <time>2020-12-20T11:53:01Z</time>
      </trkpt>
      <trkpt lat="47.83083" lon="-1.00188">
        <ele>50.2</ele>
        <time>2020-12-20T11:53:02Z</time>
      </trkpt>
      <trkpt lat="47.83081" lon="-1.00194">
        <ele>50.3</ele>
        <time>2020-12-20T11:53:03Z</time>
      </trkpt>
      <trkpt lat="47.83079" lon="-1.002">
        <ele>50.3</ele>
        <time>2020-12-20T11:53:04Z</time>
      </trkpt>
      <trkpt lat="47.83078" lon="-1.00206">
        <ele>50.3</ele>
        <time>2020-12-20T11:53:05Z</time>
      </trkpt>
      <trkpt lat="47.83076" lon="-1.00212">
        <ele>50.4</ele>
        <time>2020-12-20T11:53:06Z</time>
      </trkpt>
      <trkpt lat="47.83074" lon="-1.00218">
        <ele>50.4</ele>
        <time>2020-12-20T11:53:07Z</time>
      </trkpt>
      <trkpt lat="47.83072" lon="-1.00224">
        <ele>50.5</ele>
        <time>2020-12-20T11:53:08Z</time>
      </trkpt>
      <trkpt lat="47.83071" lon="-1.00231">
        <ele>50.6</ele>
        <time>2020-12-20T11:53:09Z</time>
      </trkpt>
      <trkpt lat="47.83069" lon="-1.00237">
        <ele>50.6</ele>
        <time>2020-12-20T11:53:10Z</time>
      </trkpt>
      <trkpt lat="47.83068" lon="-1.00244">
        <ele>50.7</ele>
        <time>2020-12-20T11:53:11Z</time>
      </trkpt>
      <trkpt lat="47.83067" lon="-1.0025">
        <ele>50.8</ele>
        <time>2020-12-20T11:53:12Z</time>
      </trkpt>
      <trkpt lat="47.83067" lon="-1.00257">
        <ele>50.9</ele>
        <time>2020-12-20T11:53:13Z</time>
      </trkpt>
      <trkpt lat="47.83065" lon="-1.00264">
        <ele>50.9</ele>
        <time>2020-12-20T11:53:14Z</time>
      </trkpt>
      <trkpt lat="47.83064" lon="-1.0027">
        <ele>51</ele>
        <time>2020-12-20T11:53:15Z</time>
      </trkpt>
      <trkpt lat="47.83064" lon="-1.00277">
        <ele>51.1</ele>
        <time>2020-12-20T11:53:16Z</time>
      </trkpt>
      <trkpt lat="47.83063" lon="-1.00283">
        <ele>51.2</ele>
        <time>2020-12-20T11:53:17Z</time>
      </trkpt>
      <trkpt lat="47.83062" lon="-1.00289">
        <ele>51.2</ele>
        <time>2020-12-20T11:53:18Z</time>
      </trkpt>
      <trkpt lat="47.83061" lon="-1.00296">
        <ele>51.3</ele>
        <time>2020-12-20T11:53:19Z</time>
      </trkpt>
      <trkpt lat="47.83059" lon="-1.00302">
        <ele>51.3</ele>
        <time>2020-12-20T11:53:20Z</time>
      </trkpt>
      <trkpt lat="47.83058" lon="-1.00309">
        <ele>51.4</ele>
        <time>2020-12-20T11:53:21Z</time>
      </trkpt>
      <trkpt lat="47.83057" lon="-1.00315">
        <ele>51.5</ele>
        <time>2020-12-20T11:53:22Z</time>
      </trkpt>
      <trkpt lat="47.83055" lon="-1.00322">
        <ele>51.5</ele>
        <time>2020-12-20T11:53:23Z</time>
      </trkpt>
      <trkpt lat="47.83055" lon="-1.00327">
        <ele>51.6</ele>
        <time>2020-12-20T11:53:24Z</time>
      </trkpt>
      <trkpt lat="47.83053" lon="-1.00333">
        <ele>51.6</ele>
        <time>2020-12-20T11:53:25Z</time>
      </trkpt>
      <trkpt lat="47.83052" lon="-1.00339">
        <ele>51.7</ele>
        <time>2020-12-20T11:53:26Z</time>
      </trkpt>
      <trkpt lat="47.83051" lon="-1.00345">
        <ele>51.7</ele>
        <time>2020-12-20T11:53:27Z</time>
      </trkpt>
      <trkpt lat="47.8305" lon="-1.00351">
        <ele>51.8</ele>
        <time>2020-12-20T11:53:28Z</time>
      </trkpt>
      <trkpt lat="47.83049" lon="-1.00357">
        <ele>51.8</ele>
        <time>2020-12-20T11:53:29Z</time>
      </trkpt>
      <trkpt lat="47.83048" lon="-1.00362">
        <ele>51.9</ele>
        <time>2020-12-20T11:53:30Z</time>
      </trkpt>
      <trkpt lat="47.83047" lon="-1.00368">
        <ele>51.9</ele>
        <time>2020-12-20T11:53:31Z</time>
      </trkpt>
      <trkpt lat="47.83046" lon="-1.00374">
        <ele>52</ele>
        <time>2020-12-20T11:53:32Z</time>
      </trkpt>
      <trkpt lat="47.83044" lon="-1.0038">
        <ele>52.1</ele>
        <time>2020-12-20T11:53:33Z</time>
      </trkpt>
      <trkpt lat="47.83043" lon="-1.00385">
        <ele>52.1</ele>
        <time>2020-12-20T11:53:34Z</time>
      </trkpt>
      <trkpt lat="47.83042" lon="-1.00391">
        <ele>52.2</ele>
        <time>2020-12-20T11:53:35Z</time>
      </trkpt>
      <trkpt lat="47.8304" lon="-1.00397">
        <ele>52.3</ele>
        <time>2020-12-20T11:53:36Z</time>
      </trkpt>
      <trkpt lat="47.83039" lon="-1.00401">
        <ele>52.3</ele>
        <time>2020-12-20T11:53:37Z</time>
      </trkpt>
      <trkpt lat="47.83038" lon="-1.00408">
        <ele>52.4</ele>
        <time>2020-12-20T11:53:38Z</time>
      </trkpt>
      <trkpt lat="47.83037" lon="-1.00413">
        <ele>52.5</ele>
        <time>2020-12-20T11:53:39Z</time>
      </trkpt>
      <trkpt lat="47.83036" lon="-1.00419">
        <ele>52.6</ele>
        <time>2020-12-20T11:53:40Z</time>
      </trkpt>
      <trkpt lat="47.83035" lon="-1.00425">
        <ele>52.6</ele>
        <time>2020-12-20T11:53:41Z</time>
      </trkpt>
      <trkpt lat="47.83034" lon="-1.00431">
        <ele>52.7</ele>
        <time>2020-12-20T11:53:42Z</time>
      </trkpt>
      <trkpt lat="47.83033" lon="-1.00437">
        <ele>52.8</ele>
        <time>2020-12-20T11:53:43Z</time>
      </trkpt>
      <trkpt lat="47.83032" lon="-1.00442">
        <ele>52.8</ele>
        <time>2020-12-20T11:53:44Z</time>
      </trkpt>
      <trkpt lat="47.83031" lon="-1.00448">
        <ele>52.9</ele>
        <time>2020-12-20T11:53:45Z</time>
      </trkpt>
      <trkpt lat="47.83029" lon="-1.00453">
        <ele>52.9</ele>
        <time>2020-12-20T11:53:46Z</time>
      </trkpt>
      <trkpt lat="47.83028" lon="-1.00458">
        <ele>53</ele>
        <time>2020-12-20T11:53:47Z</time>
      </trkpt>
      <trkpt lat="47.83027" lon="-1.00464">
        <ele>53.1</ele>
        <time>2020-12-20T11:53:48Z</time>
      </trkpt>
      <trkpt lat="47.83026" lon="-1.0047">
        <ele>53.1</ele>
        <time>2020-12-20T11:53:49Z</time>
      </trkpt>
      <trkpt lat="47.83025" lon="-1.00476">
        <ele>53.2</ele>
        <time>2020-12-20T11:53:50Z</time>
      </trkpt>
      <trkpt lat="47.83024" lon="-1.00481">
        <ele>53.3</ele>
        <time>2020-12-20T11:53:51Z</time>
      </trkpt>
      <trkpt lat="47.83022" lon="-1.00487">
        <ele>53.4</ele>
        <time>2020-12-20T11:53:52Z</time>
      </trkpt>
      <trkpt lat="47.83021" lon="-1.00493">
        <ele>53.4</ele>
        <time>2020-12-20T11:53:53Z</time>
      </trkpt>
      <trkpt lat="47.83019" lon="-1.005">
        <ele>53.5</ele>
        <time>2020-12-20T11:53:54Z</time>
      </trkpt>
      <trkpt lat="47.83018" lon="-1.00506">
        <ele>53.5</ele>
        <time>2020-12-20T11:53:55Z</time>
      </trkpt>
      <trkpt lat="47.83017" lon="-1.0051">
        <ele>53.5</ele>
        <time>2020-12-20T11:53:56Z</time>
      </trkpt>
      <trkpt lat="47.83016" lon="-1.00516">
        <ele>53.5</ele>
        <time>2020-12-20T11:53:57Z</time>
      </trkpt>
      <trkpt lat="47.83014" lon="-1.00521">
        <ele>53.5</ele>
        <time>2020-12-20T11:53:58Z</time>
      </trkpt>
      <trkpt lat="47.83013" lon="-1.00527">
        <ele>53.5</ele>
        <time>2020-12-20T11:53:59Z</time>
      </trkpt>
      <trkpt lat="47.83012" lon="-1.00533">
        <ele>53.4</ele>
        <time>2020-12-20T11:54:00Z</time>
      </trkpt>
      <trkpt lat="47.83011" lon="-1.00538">
        <ele>53.4</ele>
        <time>2020-12-20T11:54:01Z</time>
      </trkpt>
      <trkpt lat="47.8301" lon="-1.00544">
        <ele>53.4</ele>
        <time>2020-12-20T11:54:02Z</time>
      </trkpt>
      <trkpt lat="47.83009" lon="-1.00549">
        <ele>53.3</ele>
        <time>2020-12-20T11:54:03Z</time>
      </trkpt>
      <trkpt lat="47.83008" lon="-1.00555">
        <ele>53.3</ele>
        <time>2020-12-20T11:54:04Z</time>
      </trkpt>
      <trkpt lat="47.83007" lon="-1.00561">
        <ele>53.2</ele>
        <time>2020-12-20T11:54:05Z</time>
      </trkpt>
      <trkpt lat="47.83006" lon="-1.00566">
        <ele>53.2</ele>
        <time>2020-12-20T11:54:06Z</time>
      </trkpt>
      <trkpt lat="47.83004" lon="-1.00572">
        <ele>53.1</ele>
        <time>2020-12-20T11:54:07Z</time>
      </trkpt>
      <trkpt lat="47.83003" lon="-1.00578">
        <ele>53.1</ele>
        <time>2020-12-20T11:54:08Z</time>
      </trkpt>
      <trkpt lat="47.83002" lon="-1.00583">
        <ele>53</ele>
        <time>2020-12-20T11:54:09Z</time>
      </trkpt>
      <trkpt lat="47.83001" lon="-1.00588">
        <ele>52.9</ele>
        <time>2020-12-20T11:54:10Z</time>
      </trkpt>
      <trkpt lat="47.82999" lon="-1.00594">
        <ele>52.9</ele>
        <time>2020-12-20T11:54:11Z</time>
      </trkpt>
      <trkpt lat="47.82998" lon="-1.00599">
        <ele>52.8</ele>
        <time>2020-12-20T11:54:12Z</time>
      </trkpt>
      <trkpt lat="47.82997" lon="-1.00605">
        <ele>52.7</ele>
        <time>2020-12-20T11:54:13Z</time>
      </trkpt>
      <trkpt lat="47.82996" lon="-1.0061">
        <ele>52.7</ele>
        <time>2020-12-20T11:54:14Z</time>
      </trkpt>
      <trkpt lat="47.82994" lon="-1.00616">
        <ele>52.6</ele>
        <time>2020-12-20T11:54:15Z</time>
      </trkpt>
      <trkpt lat="47.82993" lon="-1.00621">
        <ele>52.5</ele>
        <time>2020-12-20T11:54:16Z</time>
      </trkpt>
      <trkpt lat="47.82992" lon="-1.00627">
        <ele>52.5</ele>
        <time>2020-12-20T11:54:17Z</time>
      </trkpt>
      <trkpt lat="47.82991" lon="-1.00633">
        <ele>52.4</ele>
        <time>2020-12-20T11:54:18Z</time>
      </trkpt>
      <trkpt lat="47.8299" lon="-1.00639">
        <ele>52.3</ele>
        <time>2020-12-20T11:54:19Z</time>
      </trkpt>
      <trkpt lat="47.82989" lon="-1.00645">
        <ele>52.3</ele>
        <time>2020-12-20T11:54:20Z</time>
      </trkpt>
      <trkpt lat="47.82988" lon="-1.0065">
        <ele>52.2</ele>
        <time>2020-12-20T11:54:21Z</time>
      </trkpt>
      <trkpt lat="47.82987" lon="-1.00656">
        <ele>52.1</ele>
        <time>2020-12-20T11:54:22Z</time>
      </trkpt>
      <trkpt lat="47.82986" lon="-1.00662">
        <ele>52.1</ele>
        <time>2020-12-20T11:54:23Z</time>
      </trkpt>
      <trkpt lat="47.82985" lon="-1.00668">
        <ele>52</ele>
        <time>2020-12-20T11:54:24Z</time>
      </trkpt>
      <trkpt lat="47.82984" lon="-1.00675">
        <ele>52.2</ele>
        <time>2020-12-20T11:54:25Z</time>
      </trkpt>
      <trkpt lat="47.82983" lon="-1.0068">
        <ele>52.3</ele>
        <time>2020-12-20T11:54:26Z</time>
      </trkpt>
      <trkpt lat="47.82982" lon="-1.00686">
        <ele>52.4</ele>
        <time>2020-12-20T11:54:27Z</time>
      </trkpt>
      <trkpt lat="47.82981" lon="-1.00692">
        <ele>52.5</ele>
        <time>2020-12-20T11:54:28Z</time>
      </trkpt>
      <trkpt lat="47.82981" lon="-1.00697">
        <ele>52.6</ele>
        <time>2020-12-20T11:54:29Z</time>
      </trkpt>
      <trkpt lat="47.8298" lon="-1.00702">
        <ele>52.7</ele>
        <time>2020-12-20T11:54:30Z</time>
      </trkpt>
      <trkpt lat="47.82979" lon="-1.00709">
        <ele>52.9</ele>
        <time>2020-12-20T11:54:31Z</time>
      </trkpt>
      <trkpt lat="47.82978" lon="-1.00714">
        <ele>53</ele>
        <time>2020-12-20T11:54:32Z</time>
      </trkpt>
      <trkpt lat="47.82977" lon="-1.00721">
        <ele>53.1</ele>
        <time>2020-12-20T11:54:33Z</time>
      </trkpt>
      <trkpt lat="47.82977" lon="-1.00726">
        <ele>53.2</ele>
        <time>2020-12-20T11:54:34Z</time>
      </trkpt>
      <trkpt lat="47.82976" lon="-1.00731">
        <ele>53.3</ele>
        <time>2020-12-20T11:54:35Z</time>
      </trkpt>
      <trkpt lat="47.82975" lon="-1.00738">
        <ele>53.5</ele>
        <time>2020-12-20T11:54:36Z</time>
      </trkpt>
      <trkpt lat="47.82975" lon="-1.00743">
        <ele>53.6</ele>
        <time>2020-12-20T11:54:37Z</time>
      </trkpt>
      <trkpt lat="47.82974" lon="-1.0075">
        <ele>53.7</ele>
        <time>2020-12-20T11:54:38Z</time>
      </trkpt>
      <trkpt lat="47.82974" lon="-1.00755">
        <ele>53.7</ele>
        <time>2020-12-20T11:54:39Z</time>
      </trkpt>
      <trkpt lat="47.82973" lon="-1.0076">
        <ele>53.8</ele>
        <time>2020-12-20T11:54:40Z</time>
      </trkpt>
      <trkpt lat="47.82972" lon="-1.00764">
        <ele>53.8</ele>
        <time>2020-12-20T11:54:41Z</time>
      </trkpt>
      <trkpt lat="47.82971" lon="-1.0077">
        <ele>53.9</ele>
        <time>2020-12-20T11:54:42Z</time>
      </trkpt>
      <trkpt lat="47.82971" lon="-1.00775">
        <ele>54</ele>
        <time>2020-12-20T11:54:43Z</time>
      </trkpt>
      <trkpt lat="47.8297" lon="-1.00779">
        <ele>54</ele>
        <time>2020-12-20T11:54:44Z</time>
      </trkpt>
      <trkpt lat="47.82969" lon="-1.00784">
        <ele>54</ele>
        <time>2020-12-20T11:54:45Z</time>
      </trkpt>
      <trkpt lat="47.82968" lon="-1.00791">
        <ele>54.1</ele>
        <time>2020-12-20T11:54:46Z</time>
      </trkpt>
      <trkpt lat="47.82968" lon="-1.00795">
        <ele>54.2</ele>
        <time>2020-12-20T11:54:47Z</time>
      </trkpt>
      <trkpt lat="47.82968" lon="-1.008">
        <ele>54.2</ele>
        <time>2020-12-20T11:54:48Z</time>
      </trkpt>
      <trkpt lat="47.82967" lon="-1.00805">
        <ele>54.3</ele>
        <time>2020-12-20T11:54:49Z</time>
      </trkpt>
      <trkpt lat="47.82967" lon="-1.00809">
        <ele>54.3</ele>
        <time>2020-12-20T11:54:50Z</time>
      </trkpt>
      <trkpt lat="47.82966" lon="-1.00814">
        <ele>54.4</ele>
        <time>2020-12-20T11:54:51Z</time>
      </trkpt>
      <trkpt lat="47.82966" lon="-1.00818">
        <ele>54.4</ele>
        <time>2020-12-20T11:54:52Z</time>
      </trkpt>
      <trkpt lat="47.82966" lon="-1.00823">
        <ele>54.5</ele>
        <time>2020-12-20T11:54:53Z</time>
      </trkpt>
      <trkpt lat="47.82966" lon="-1.00827">
        <ele>54.5</ele>
        <time>2020-12-20T11:54:54Z</time>
      </trkpt>
      <trkpt lat="47.82965" lon="-1.00832">
        <ele>54.6</ele>
        <time>2020-12-20T11:54:55Z</time>
      </trkpt>
      <trkpt lat="47.82965" lon="-1.00837">
        <ele>54.6</ele>
        <time>2020-12-20T11:54:56Z</time>
      </trkpt>
      <trkpt lat="47.82965" lon="-1.00842">
        <ele>54.7</ele>
        <time>2020-12-20T11:54:57Z</time>
      </trkpt>
      <trkpt lat="47.82964" lon="-1.00847">
        <ele>54.8</ele>
        <time>2020-12-20T11:54:58Z</time>
      </trkpt>
      <trkpt lat="47.82964" lon="-1.00853">
        <ele>54.9</ele>
        <time>2020-12-20T11:54:59Z</time>
      </trkpt>
      <trkpt lat="47.82964" lon="-1.00858">
        <ele>55</ele>
        <time>2020-12-20T11:55:00Z</time>
      </trkpt>
      <trkpt lat="47.82963" lon="-1.00862">
        <ele>55.1</ele>
        <time>2020-12-20T11:55:01Z</time>
      </trkpt>
      <trkpt lat="47.82962" lon="-1.00867">
        <ele>55.1</ele>
        <time>2020-12-20T11:55:02Z</time>
      </trkpt>
      <trkpt lat="47.82962" lon="-1.00871">
        <ele>55.2</ele>
        <time>2020-12-20T11:55:03Z</time>
      </trkpt>
      <trkpt lat="47.82961" lon="-1.00876">
        <ele>55.3</ele>
        <time>2020-12-20T11:55:04Z</time>
      </trkpt>
      <trkpt lat="47.82961" lon="-1.00881">
        <ele>55.4</ele>
        <time>2020-12-20T11:55:05Z</time>
      </trkpt>
      <trkpt lat="47.82961" lon="-1.00886">
        <ele>55.5</ele>
        <time>2020-12-20T11:55:06Z</time>
      </trkpt>
      <trkpt lat="47.82961" lon="-1.0089">
        <ele>55.5</ele>
        <time>2020-12-20T11:55:07Z</time>
      </trkpt>
      <trkpt lat="47.82961" lon="-1.00895">
        <ele>55.6</ele>
        <time>2020-12-20T11:55:08Z</time>
      </trkpt>
      <trkpt lat="47.8296" lon="-1.009">
        <ele>55.7</ele>
        <time>2020-12-20T11:55:09Z</time>
      </trkpt>
      <trkpt lat="47.8296" lon="-1.00906">
        <ele>55.8</ele>
        <time>2020-12-20T11:55:10Z</time>
      </trkpt>
      <trkpt lat="47.8296" lon="-1.00912">
        <ele>55.9</ele>
        <time>2020-12-20T11:55:11Z</time>
      </trkpt>
      <trkpt lat="47.8296" lon="-1.00916">
        <ele>56</ele>
        <time>2020-12-20T11:55:12Z</time>
      </trkpt>
      <trkpt lat="47.82959" lon="-1.00921">
        <ele>56.1</ele>
        <time>2020-12-20T11:55:13Z</time>
      </trkpt>
      <trkpt lat="47.82959" lon="-1.00926">
        <ele>56.1</ele>
        <time>2020-12-20T11:55:14Z</time>
      </trkpt>
      <trkpt lat="47.82959" lon="-1.00931">
        <ele>56.2</ele>
        <time>2020-12-20T11:55:15Z</time>
      </trkpt>
      <trkpt lat="47.82959" lon="-1.00936">
        <ele>56.2</ele>
        <time>2020-12-20T11:55:16Z</time>
      </trkpt>
      <trkpt lat="47.82959" lon="-1.00941">
        <ele>56.3</ele>
        <time>2020-12-20T11:55:17Z</time>
      </trkpt>
      <trkpt lat="47.82959" lon="-1.00946">
        <ele>56.4</ele>
        <time>2020-12-20T11:55:18Z</time>
      </trkpt>
      <trkpt lat="47.82959" lon="-1.00951">
        <ele>56.4</ele>
        <time>2020-12-20T11:55:19Z</time>
      </trkpt>
      <trkpt lat="47.82959" lon="-1.00956">
        <ele>56.5</ele>
        <time>2020-12-20T11:55:20Z</time>
      </trkpt>
      <trkpt lat="47.82959" lon="-1.00961">
        <ele>56.5</ele>
        <time>2020-12-20T11:55:21Z</time>
      </trkpt>
      <trkpt lat="47.82959" lon="-1.00967">
        <ele>56.6</ele>
        <time>2020-12-20T11:55:22Z</time>
      </trkpt>
      <trkpt lat="47.82959" lon="-1.00972">
        <ele>56.7</ele>
        <time>2020-12-20T11:55:23Z</time>
      </trkpt>
      <trkpt lat="47.82959" lon="-1.00977">
        <ele>56.7</ele>
        <time>2020-12-20T11:55:24Z</time>
      </trkpt>
      <trkpt lat="47.82958" lon="-1.00981">
        <ele>56.8</ele>
        <time>2020-12-20T11:55:25Z</time>
      </trkpt>
      <trkpt lat="47.82958" lon="-1.00986">
        <ele>56.8</ele>
        <time>2020-12-20T11:55:26Z</time>
      </trkpt>
      <trkpt lat="47.82958" lon="-1.0099">
        <ele>56.9</ele>
        <time>2020-12-20T11:55:27Z</time>
      </trkpt>
      <trkpt lat="47.82958" lon="-1.00995">
        <ele>56.9</ele>
        <time>2020-12-20T11:55:28Z</time>
      </trkpt>
      <trkpt lat="47.82958" lon="-1.01001">
        <ele>57</ele>
        <time>2020-12-20T11:55:29Z</time>
      </trkpt>
      <trkpt lat="47.82958" lon="-1.01006">
        <ele>57.1</ele>
        <time>2020-12-20T11:55:30Z</time>
      </trkpt>
      <trkpt lat="47.82958" lon="-1.01011">
        <ele>57.1</ele>
        <time>2020-12-20T11:55:31Z</time>
      </trkpt>
      <trkpt lat="47.82957" lon="-1.01016">
        <ele>57.2</ele>
        <time>2020-12-20T11:55:32Z</time>
      </trkpt>
      <trkpt lat="47.82957" lon="-1.01021">
        <ele>57.3</ele>
        <time>2020-12-20T11:55:33Z</time>
      </trkpt>
      <trkpt lat="47.82957" lon="-1.01026">
        <ele>57.3</ele>
        <time>2020-12-20T11:55:34Z</time>
      </trkpt>
      <trkpt lat="47.82957" lon="-1.01031">
        <ele>57.4</ele>
        <time>2020-12-20T11:55:35Z</time>
      </trkpt>
      <trkpt lat="47.82957" lon="-1.01036">
        <ele>57.4</ele>
        <time>2020-12-20T11:55:36Z</time>
      </trkpt>
      <trkpt lat="47.82957" lon="-1.0104">
        <ele>57.5</ele>
        <time>2020-12-20T11:55:37Z</time>
      </trkpt>
      <trkpt lat="47.82958" lon="-1.01046">
        <ele>57.6</ele>
        <time>2020-12-20T11:55:38Z</time>
      </trkpt>
      <trkpt lat="47.82958" lon="-1.01051">
        <ele>57.6</ele>
        <time>2020-12-20T11:55:39Z</time>
      </trkpt>
      <trkpt lat="47.82958" lon="-1.01056">
        <ele>57.7</ele>
        <time>2020-12-20T11:55:40Z</time>
      </trkpt>
      <trkpt lat="47.82958" lon="-1.01061">
        <ele>57.7</ele>
        <time>2020-12-20T11:55:41Z</time>
      </trkpt>
      <trkpt lat="47.82958" lon="-1.01066">
        <ele>57.8</ele>
        <time>2020-12-20T11:55:42Z</time>
      </trkpt>
      <trkpt lat="47.82958" lon="-1.01071">
        <ele>57.9</ele>
        <time>2020-12-20T11:55:43Z</time>
      </trkpt>
      <trkpt lat="47.82958" lon="-1.01076">
        <ele>57.9</ele>
        <time>2020-12-20T11:55:44Z</time>
      </trkpt>
      <trkpt lat="47.82958" lon="-1.01081">
        <ele>58</ele>
        <time>2020-12-20T11:55:45Z</time>
      </trkpt>
      <trkpt lat="47.82958" lon="-1.01086">
        <ele>58</ele>
        <time>2020-12-20T11:55:46Z</time>
      </trkpt>
      <trkpt lat="47.82958" lon="-1.01091">
        <ele>58.1</ele>
        <time>2020-12-20T11:55:47Z</time>
      </trkpt>
      <trkpt lat="47.82958" lon="-1.01096">
        <ele>58.2</ele>
        <time>2020-12-20T11:55:48Z</time>
      </trkpt>
      <trkpt lat="47.82958" lon="-1.01101">
        <ele>58.2</ele>
        <time>2020-12-20T11:55:49Z</time>
      </trkpt>
      <trkpt lat="47.82957" lon="-1.01105">
        <ele>58.3</ele>
        <time>2020-12-20T11:55:50Z</time>
      </trkpt>
      <trkpt lat="47.82957" lon="-1.0111">
        <ele>58.3</ele>
        <time>2020-12-20T11:55:51Z</time>
      </trkpt>
      <trkpt lat="47.82957" lon="-1.01116">
        <ele>58.4</ele>
        <time>2020-12-20T11:55:52Z</time>
      </trkpt>
      <trkpt lat="47.82957" lon="-1.01121">
        <ele>58.5</ele>
        <time>2020-12-20T11:55:53Z</time>
      </trkpt>
      <trkpt lat="47.82957" lon="-1.01126">
        <ele>58.5</ele>
        <time>2020-12-20T11:55:54Z</time>
      </trkpt>
      <trkpt lat="47.82957" lon="-1.0113">
        <ele>58.6</ele>
        <time>2020-12-20T11:55:55Z</time>
      </trkpt>
      <trkpt lat="47.82957" lon="-1.01135">
        <ele>58.6</ele>
        <time>2020-12-20T11:55:56Z</time>
      </trkpt>
      <trkpt lat="47.82957" lon="-1.0114">
        <ele>58.7</ele>
        <time>2020-12-20T11:55:57Z</time>
      </trkpt>
      <trkpt lat="47.82957" lon="-1.01144">
        <ele>58.7</ele>
        <time>2020-12-20T11:55:58Z</time>
      </trkpt>
      <trkpt lat="47.82957" lon="-1.01149">
        <ele>58.8</ele>
        <time>2020-12-20T11:55:59Z</time>
      </trkpt>
      <trkpt lat="47.82957" lon="-1.01154">
        <ele>58.8</ele>
        <time>2020-12-20T11:56:00Z</time>
      </trkpt>
      <trkpt lat="47.82957" lon="-1.01159">
        <ele>58.9</ele>
        <time>2020-12-20T11:56:01Z</time>
      </trkpt>
      <trkpt lat="47.82957" lon="-1.01163">
        <ele>59</ele>
        <time>2020-12-20T11:56:02Z</time>
      </trkpt>
      <trkpt lat="47.82957" lon="-1.01168">
        <ele>59</ele>
        <time>2020-12-20T11:56:03Z</time>
      </trkpt>
      <trkpt lat="47.82957" lon="-1.01171">
        <ele>59.1</ele>
        <time>2020-12-20T11:56:04Z</time>
      </trkpt>
      <trkpt lat="47.82957" lon="-1.01176">
        <ele>59.2</ele>
        <time>2020-12-20T11:56:05Z</time>
      </trkpt>
      <trkpt lat="47.82956" lon="-1.01181">
        <ele>59.3</ele>
        <time>2020-12-20T11:56:06Z</time>
      </trkpt>
      <trkpt lat="47.82956" lon="-1.01187">
        <ele>59.5</ele>
        <time>2020-12-20T11:56:07Z</time>
      </trkpt>
      <trkpt lat="47.82956" lon="-1.01192">
        <ele>59.6</ele>
        <time>2020-12-20T11:56:08Z</time>
      </trkpt>
      <trkpt lat="47.82956" lon="-1.01196">
        <ele>59.7</ele>
        <time>2020-12-20T11:56:09Z</time>
      </trkpt>
      <trkpt lat="47.82956" lon="-1.01201">
        <ele>59.8</ele>
        <time>2020-12-20T11:56:10Z</time>
      </trkpt>
      <trkpt lat="47.82956" lon="-1.01205">
        <ele>59.9</ele>
        <time>2020-12-20T11:56:11Z</time>
      </trkpt>
      <trkpt lat="47.82957" lon="-1.0121">
        <ele>60</ele>
        <time>2020-12-20T11:56:12Z</time>
      </trkpt>
      <trkpt lat="47.82957" lon="-1.01215">
        <ele>60.2</ele>
        <time>2020-12-20T11:56:13Z</time>
      </trkpt>
      <trkpt lat="47.82957" lon="-1.0122">
        <ele>60.3</ele>
        <time>2020-12-20T11:56:14Z</time>
      </trkpt>
      <trkpt lat="47.82956" lon="-1.01224">
        <ele>60.4</ele>
        <time>2020-12-20T11:56:15Z</time>
      </trkpt>
      <trkpt lat="47.82956" lon="-1.01229">
        <ele>60.5</ele>
        <time>2020-12-20T11:56:16Z</time>
      </trkpt>
      <trkpt lat="47.82956" lon="-1.01233">
        <ele>60.6</ele>
        <time>2020-12-20T11:56:17Z</time>
      </trkpt>
      <trkpt lat="47.82956" lon="-1.01239">
        <ele>60.7</ele>
        <time>2020-12-20T11:56:18Z</time>
      </trkpt>
      <trkpt lat="47.82956" lon="-1.01244">
        <ele>60.9</ele>
        <time>2020-12-20T11:56:19Z</time>
      </trkpt>
      <trkpt lat="47.82956" lon="-1.01248">
        <ele>61</ele>
        <time>2020-12-20T11:56:20Z</time>
      </trkpt>
      <trkpt lat="47.82956" lon="-1.01253">
        <ele>61.1</ele>
        <time>2020-12-20T11:56:21Z</time>
      </trkpt>
      <trkpt lat="47.82956" lon="-1.01258">
        <ele>61.4</ele>
        <time>2020-12-20T11:56:22Z</time>
      </trkpt>
      <trkpt lat="47.82956" lon="-1.01263">
        <ele>61.6</ele>
        <time>2020-12-20T11:56:23Z</time>
      </trkpt>
      <trkpt lat="47.82956" lon="-1.01268">
        <ele>61.8</ele>
        <time>2020-12-20T11:56:24Z</time>
      </trkpt>
      <trkpt lat="47.82955" lon="-1.01273">
        <ele>62.1</ele>
        <time>2020-12-20T11:56:25Z</time>
      </trkpt>
      <trkpt lat="47.82955" lon="-1.01278">
        <ele>62.3</ele>
        <time>2020-12-20T11:56:26Z</time>
      </trkpt>
      <trkpt lat="47.82955" lon="-1.01282">
        <ele>62.5</ele>
        <time>2020-12-20T11:56:27Z</time>
      </trkpt>
      <trkpt lat="47.82955" lon="-1.01287">
        <ele>62.7</ele>
        <time>2020-12-20T11:56:28Z</time>
      </trkpt>
      <trkpt lat="47.82954" lon="-1.01292">
        <ele>62.9</ele>
        <time>2020-12-20T11:56:29Z</time>
      </trkpt>
      <trkpt lat="47.82954" lon="-1.01296">
        <ele>63.1</ele>
        <time>2020-12-20T11:56:30Z</time>
      </trkpt>
      <trkpt lat="47.82954" lon="-1.01301">
        <ele>63.3</ele>
        <time>2020-12-20T11:56:31Z</time>
      </trkpt>
      <trkpt lat="47.82954" lon="-1.01306">
        <ele>63.5</ele>
        <time>2020-12-20T11:56:32Z</time>
      </trkpt>
      <trkpt lat="47.82954" lon="-1.0131">
        <ele>63.7</ele>
        <time>2020-12-20T11:56:33Z</time>
      </trkpt>
      <trkpt lat="47.82954" lon="-1.01316">
        <ele>64</ele>
        <time>2020-12-20T11:56:34Z</time>
      </trkpt>
      <trkpt lat="47.82954" lon="-1.0132">
        <ele>64.2</ele>
        <time>2020-12-20T11:56:35Z</time>
      </trkpt>
      <trkpt lat="47.82955" lon="-1.01325">
        <ele>64.5</ele>
        <time>2020-12-20T11:56:36Z</time>
      </trkpt>
      <trkpt lat="47.82955" lon="-1.01329">
        <ele>64.6</ele>
        <time>2020-12-20T11:56:37Z</time>
      </trkpt>
      <trkpt lat="47.82955" lon="-1.01332">
        <ele>64.8</ele>
        <time>2020-12-20T11:56:38Z</time>
      </trkpt>
      <trkpt lat="47.82956" lon="-1.01337">
        <ele>65</ele>
        <time>2020-12-20T11:56:39Z</time>
      </trkpt>
      <trkpt lat="47.82956" lon="-1.01342">
        <ele>65.1</ele>
        <time>2020-12-20T11:56:40Z</time>
      </trkpt>
      <trkpt lat="47.82956" lon="-1.01346">
        <ele>65.3</ele>
        <time>2020-12-20T11:56:41Z</time>
      </trkpt>
      <trkpt lat="47.82957" lon="-1.01351">
        <ele>65.5</ele>
        <time>2020-12-20T11:56:42Z</time>
      </trkpt>
      <trkpt lat="47.82957" lon="-1.01355">
        <ele>65.6</ele>
        <time>2020-12-20T11:56:43Z</time>
      </trkpt>
      <trkpt lat="47.82957" lon="-1.0136">
        <ele>65.7</ele>
        <time>2020-12-20T11:56:44Z</time>
      </trkpt>
      <trkpt lat="47.82958" lon="-1.01364">
        <ele>65.9</ele>
        <time>2020-12-20T11:56:45Z</time>
      </trkpt>
      <trkpt lat="47.82958" lon="-1.01368">
        <ele>66</ele>
        <time>2020-12-20T11:56:46Z</time>
      </trkpt>
      <trkpt lat="47.82959" lon="-1.01371">
        <ele>66.2</ele>
        <time>2020-12-20T11:56:47Z</time>
      </trkpt>
      <trkpt lat="47.82959" lon="-1.01375">
        <ele>66.3</ele>
        <time>2020-12-20T11:56:48Z</time>
      </trkpt>
      <trkpt lat="47.82959" lon="-1.01379">
        <ele>66.4</ele>
        <time>2020-12-20T11:56:49Z</time>
      </trkpt>
      <trkpt lat="47.82959" lon="-1.01384">
        <ele>66.6</ele>
        <time>2020-12-20T11:56:50Z</time>
      </trkpt>
      <trkpt lat="47.82959" lon="-1.01388">
        <ele>66.7</ele>
        <time>2020-12-20T11:56:51Z</time>
      </trkpt>
      <trkpt lat="47.82959" lon="-1.01392">
        <ele>66.8</ele>
        <time>2020-12-20T11:56:52Z</time>
      </trkpt>
      <trkpt lat="47.82958" lon="-1.01398">
        <ele>66.9</ele>
        <time>2020-12-20T11:56:53Z</time>
      </trkpt>
      <trkpt lat="47.82958" lon="-1.01402">
        <ele>67</ele>
        <time>2020-12-20T11:56:54Z</time>
      </trkpt>
      <trkpt lat="47.82958" lon="-1.01407">
        <ele>67.2</ele>
        <time>2020-12-20T11:56:55Z</time>
      </trkpt>
      <trkpt lat="47.82958" lon="-1.01411">
        <ele>67.3</ele>
        <time>2020-12-20T11:56:56Z</time>
      </trkpt>
      <trkpt lat="47.82958" lon="-1.01415">
        <ele>67.4</ele>
        <time>2020-12-20T11:56:57Z</time>
      </trkpt>
      <trkpt lat="47.82958" lon="-1.0142">
        <ele>67.5</ele>
        <time>2020-12-20T11:56:58Z</time>
      </trkpt>
      <trkpt lat="47.82957" lon="-1.01426">
        <ele>67.6</ele>
        <time>2020-12-20T11:56:59Z</time>
      </trkpt>
      <trkpt lat="47.82957" lon="-1.01431">
        <ele>67.7</ele>
        <time>2020-12-20T11:57:00Z</time>
      </trkpt>
      <trkpt lat="47.82957" lon="-1.01436">
        <ele>67.8</ele>
        <time>2020-12-20T11:57:01Z</time>
      </trkpt>
      <trkpt lat="47.82957" lon="-1.01442">
        <ele>67.9</ele>
        <time>2020-12-20T11:57:02Z</time>
      </trkpt>
      <trkpt lat="47.82956" lon="-1.01447">
        <ele>67.9</ele>
        <time>2020-12-20T11:57:03Z</time>
      </trkpt>
      <trkpt lat="47.82956" lon="-1.01452">
        <ele>68</ele>
        <time>2020-12-20T11:57:04Z</time>
      </trkpt>
      <trkpt lat="47.82956" lon="-1.01457">
        <ele>68.1</ele>
        <time>2020-12-20T11:57:05Z</time>
      </trkpt>
      <trkpt lat="47.82955" lon="-1.01462">
        <ele>68.1</ele>
        <time>2020-12-20T11:57:06Z</time>
      </trkpt>
      <trkpt lat="47.82955" lon="-1.01467">
        <ele>68.2</ele>
        <time>2020-12-20T11:57:07Z</time>
      </trkpt>
      <trkpt lat="47.82956" lon="-1.01472">
        <ele>68.4</ele>
        <time>2020-12-20T11:57:08Z</time>
      </trkpt>
      <trkpt lat="47.82956" lon="-1.01476">
        <ele>68.4</ele>
        <time>2020-12-20T11:57:09Z</time>
      </trkpt>
      <trkpt lat="47.82956" lon="-1.01482">
        <ele>68.6</ele>
        <time>2020-12-20T11:57:10Z</time>
      </trkpt>
      <trkpt lat="47.82957" lon="-1.01487">
        <ele>68.7</ele>
        <time>2020-12-20T11:57:11Z</time>
      </trkpt>
      <trkpt lat="47.82956" lon="-1.01493">
        <ele>68.8</ele>
        <time>2020-12-20T11:57:12Z</time>
      </trkpt>
      <trkpt lat="47.82955" lon="-1.015">
        <ele>68.8</ele>
        <time>2020-12-20T11:57:13Z</time>
      </trkpt>
      <trkpt lat="47.82954" lon="-1.01505">
        <ele>68.7</ele>
        <time>2020-12-20T11:57:14Z</time>
      </trkpt>
      <trkpt lat="47.82953" lon="-1.01511">
        <ele>68.5</ele>
        <time>2020-12-20T11:57:15Z</time>
      </trkpt>
      <trkpt lat="47.82953" lon="-1.01514">
        <ele>68.5</ele>
        <time>2020-12-20T11:57:16Z</time>
      </trkpt>
      <trkpt lat="47.82953" lon="-1.01517">
        <ele>68.4</ele>
        <time>2020-12-20T11:57:17Z</time>
      </trkpt>
      <trkpt lat="47.82953" lon="-1.01521">
        <ele>68.3</ele>
        <time>2020-12-20T11:57:18Z</time>
      </trkpt>
      <trkpt lat="47.82953" lon="-1.01525">
        <ele>68.2</ele>
        <time>2020-12-20T11:57:19Z</time>
      </trkpt>
      <trkpt lat="47.82951" lon="-1.0153">
        <ele>68.1</ele>
        <time>2020-12-20T11:57:20Z</time>
      </trkpt>
      <trkpt lat="47.82949" lon="-1.01536">
        <ele>67.9</ele>
        <time>2020-12-20T11:57:21Z</time>
      </trkpt>
      <trkpt lat="47.82947" lon="-1.01542">
        <ele>67.7</ele>
        <time>2020-12-20T11:57:22Z</time>
      </trkpt>
      <trkpt lat="47.82948" lon="-1.01547">
        <ele>67.7</ele>
        <time>2020-12-20T11:57:23Z</time>
      </trkpt>
      <trkpt lat="47.82949" lon="-1.01552">
        <ele>67.6</ele>
        <time>2020-12-20T11:57:24Z</time>
      </trkpt>
      <trkpt lat="47.8295" lon="-1.01557">
        <ele>67.5</ele>
        <time>2020-12-20T11:57:25Z</time>
      </trkpt>
      <trkpt lat="47.8295" lon="-1.01561">
        <ele>67.4</ele>
        <time>2020-12-20T11:57:26Z</time>
      </trkpt>
      <trkpt lat="47.8295" lon="-1.01565">
        <ele>67.4</ele>
        <time>2020-12-20T11:57:27Z</time>
      </trkpt>
      <trkpt lat="47.82949" lon="-1.01569">
        <ele>67.3</ele>
        <time>2020-12-20T11:57:28Z</time>
      </trkpt>
      <trkpt lat="47.82948" lon="-1.01573">
        <ele>67.2</ele>
        <time>2020-12-20T11:57:29Z</time>
      </trkpt>
      <trkpt lat="47.82948" lon="-1.01577">
        <ele>67.1</ele>
        <time>2020-12-20T11:57:30Z</time>
      </trkpt>
      <trkpt lat="47.82948" lon="-1.01581">
        <ele>67</ele>
        <time>2020-12-20T11:57:31Z</time>
      </trkpt>
      <trkpt lat="47.82949" lon="-1.01585">
        <ele>67</ele>
        <time>2020-12-20T11:57:32Z</time>
      </trkpt>
      <trkpt lat="47.82949" lon="-1.01589">
        <ele>67</ele>
        <time>2020-12-20T11:57:33Z</time>
      </trkpt>
      <trkpt lat="47.82949" lon="-1.01593">
        <ele>67</ele>
        <time>2020-12-20T11:57:34Z</time>
      </trkpt>
      <trkpt lat="47.82949" lon="-1.01597">
        <ele>67.1</ele>
        <time>2020-12-20T11:57:35Z</time>
      </trkpt>
      <trkpt lat="47.82949" lon="-1.01602">
        <ele>67.1</ele>
        <time>2020-12-20T11:57:36Z</time>
      </trkpt>
      <trkpt lat="47.82949" lon="-1.01604">
        <ele>67.1</ele>
        <time>2020-12-20T11:57:37Z</time>
      </trkpt>
      <trkpt lat="47.82949" lon="-1.01608">
        <ele>67.1</ele>
        <time>2020-12-20T11:57:38Z</time>
      </trkpt>
      <trkpt lat="47.82948" lon="-1.01611">
        <ele>67.1</ele>
        <time>2020-12-20T11:57:39Z</time>
      </trkpt>
      <trkpt lat="47.82948" lon="-1.01614">
        <ele>67.1</ele>
        <time>2020-12-20T11:57:40Z</time>
      </trkpt>
      <trkpt lat="47.82948" lon="-1.01619">
        <ele>67.2</ele>
        <time>2020-12-20T11:57:41Z</time>
      </trkpt>
      <trkpt lat="47.82948" lon="-1.01622">
        <ele>67.2</ele>
        <time>2020-12-20T11:57:42Z</time>
      </trkpt>
      <trkpt lat="47.82949" lon="-1.01626">
        <ele>67.2</ele>
        <time>2020-12-20T11:57:43Z</time>
      </trkpt>
      <trkpt lat="47.82949" lon="-1.0163">
        <ele>67.2</ele>
        <time>2020-12-20T11:57:44Z</time>
      </trkpt>
      <trkpt lat="47.82949" lon="-1.01635">
        <ele>67.2</ele>
        <time>2020-12-20T11:57:45Z</time>
      </trkpt>
      <trkpt lat="47.82949" lon="-1.0164">
        <ele>67.3</ele>
        <time>2020-12-20T11:57:46Z</time>
      </trkpt>
      <trkpt lat="47.82949" lon="-1.01645">
        <ele>67.3</ele>
        <time>2020-12-20T11:57:47Z</time>
      </trkpt>
      <trkpt lat="47.82949" lon="-1.01651">
        <ele>67.3</ele>
        <time>2020-12-20T11:57:48Z</time>
      </trkpt>
      <trkpt lat="47.82949" lon="-1.01658">
        <ele>67.3</ele>
        <time>2020-12-20T11:57:49Z</time>
      </trkpt>
      <trkpt lat="47.82949" lon="-1.01665">
        <ele>67.4</ele>
        <time>2020-12-20T11:57:50Z</time>
      </trkpt>
      <trkpt lat="47.82949" lon="-1.0167">
        <ele>67.5</ele>
        <time>2020-12-20T11:57:51Z</time>
      </trkpt>
      <trkpt lat="47.82949" lon="-1.01676">
        <ele>67.6</ele>
        <time>2020-12-20T11:57:52Z</time>
      </trkpt>
      <trkpt lat="47.82949" lon="-1.01682">
        <ele>67.7</ele>
        <time>2020-12-20T11:57:53Z</time>
      </trkpt>
      <trkpt lat="47.8295" lon="-1.01689">
        <ele>67.8</ele>
        <time>2020-12-20T11:57:54Z</time>
      </trkpt>
      <trkpt lat="47.8295" lon="-1.01696">
        <ele>68</ele>
        <time>2020-12-20T11:57:55Z</time>
      </trkpt>
      <trkpt lat="47.8295" lon="-1.01702">
        <ele>68.1</ele>
        <time>2020-12-20T11:57:56Z</time>
      </trkpt>
      <trkpt lat="47.82951" lon="-1.01708">
        <ele>68.2</ele>
        <time>2020-12-20T11:57:57Z</time>
      </trkpt>
      <trkpt lat="47.82951" lon="-1.01713">
        <ele>68.3</ele>
        <time>2020-12-20T11:57:58Z</time>
      </trkpt>
      <trkpt lat="47.8295" lon="-1.01719">
        <ele>68.4</ele>
        <time>2020-12-20T11:57:59Z</time>
      </trkpt>
      <trkpt lat="47.82951" lon="-1.01725">
        <ele>68.5</ele>
        <time>2020-12-20T11:58:00Z</time>
      </trkpt>
      <trkpt lat="47.82951" lon="-1.01732">
        <ele>68.7</ele>
        <time>2020-12-20T11:58:01Z</time>
      </trkpt>
      <trkpt lat="47.82951" lon="-1.01737">
        <ele>68.8</ele>
        <time>2020-12-20T11:58:02Z</time>
      </trkpt>
      <trkpt lat="47.8295" lon="-1.01743">
        <ele>68.9</ele>
        <time>2020-12-20T11:58:03Z</time>
      </trkpt>
      <trkpt lat="47.82949" lon="-1.01747">
        <ele>68.9</ele>
        <time>2020-12-20T11:58:04Z</time>
      </trkpt>
      <trkpt lat="47.82949" lon="-1.01751">
        <ele>69</ele>
        <time>2020-12-20T11:58:05Z</time>
      </trkpt>
      <trkpt lat="47.82949" lon="-1.01756">
        <ele>69</ele>
        <time>2020-12-20T11:58:06Z</time>
      </trkpt>
      <trkpt lat="47.82949" lon="-1.0176">
        <ele>69.1</ele>
        <time>2020-12-20T11:58:07Z</time>
      </trkpt>
      <trkpt lat="47.82949" lon="-1.01765">
        <ele>69.1</ele>
        <time>2020-12-20T11:58:08Z</time>
      </trkpt>
      <trkpt lat="47.82949" lon="-1.0177">
        <ele>69.1</ele>
        <time>2020-12-20T11:58:09Z</time>
      </trkpt>
      <trkpt lat="47.82949" lon="-1.01775">
        <ele>69.1</ele>
        <time>2020-12-20T11:58:10Z</time>
      </trkpt>
      <trkpt lat="47.82949" lon="-1.0178">
        <ele>69.2</ele>
        <time>2020-12-20T11:58:11Z</time>
      </trkpt>
      <trkpt lat="47.82949" lon="-1.01786">
        <ele>69.2</ele>
        <time>2020-12-20T11:58:12Z</time>
      </trkpt>
      <trkpt lat="47.82948" lon="-1.01791">
        <ele>69.2</ele>
        <time>2020-12-20T11:58:13Z</time>
      </trkpt>
      <trkpt lat="47.82948" lon="-1.01797">
        <ele>69.3</ele>
        <time>2020-12-20T11:58:14Z</time>
      </trkpt>
      <trkpt lat="47.82948" lon="-1.01803">
        <ele>69.3</ele>
        <time>2020-12-20T11:58:15Z</time>
      </trkpt>
      <trkpt lat="47.82949" lon="-1.01808">
        <ele>69.3</ele>
        <time>2020-12-20T11:58:16Z</time>
      </trkpt>
      <trkpt lat="47.82948" lon="-1.01813">
        <ele>69.4</ele>
        <time>2020-12-20T11:58:17Z</time>
      </trkpt>
      <trkpt lat="47.82947" lon="-1.01819">
        <ele>69.5</ele>
        <time>2020-12-20T11:58:18Z</time>
      </trkpt>
      <trkpt lat="47.82947" lon="-1.01824">
        <ele>69.5</ele>
        <time>2020-12-20T11:58:19Z</time>
      </trkpt>
      <trkpt lat="47.82948" lon="-1.01829">
        <ele>69.5</ele>
        <time>2020-12-20T11:58:20Z</time>
      </trkpt>
      <trkpt lat="47.82948" lon="-1.01833">
        <ele>69.5</ele>
        <time>2020-12-20T11:58:21Z</time>
      </trkpt>
      <trkpt lat="47.82948" lon="-1.01837">
        <ele>69.5</ele>
        <time>2020-12-20T11:58:22Z</time>
      </trkpt>
      <trkpt lat="47.82948" lon="-1.01842">
        <ele>69.6</ele>
        <time>2020-12-20T11:58:23Z</time>
      </trkpt>
      <trkpt lat="47.82948" lon="-1.01846">
        <ele>69.6</ele>
        <time>2020-12-20T11:58:24Z</time>
      </trkpt>
      <trkpt lat="47.82948" lon="-1.01851">
        <ele>69.6</ele>
        <time>2020-12-20T11:58:25Z</time>
      </trkpt>
      <trkpt lat="47.82948" lon="-1.01854">
        <ele>69.7</ele>
        <time>2020-12-20T11:58:26Z</time>
      </trkpt>
      <trkpt lat="47.82948" lon="-1.01859">
        <ele>69.7</ele>
        <time>2020-12-20T11:58:27Z</time>
      </trkpt>
      <trkpt lat="47.82947" lon="-1.01864">
        <ele>69.8</ele>
        <time>2020-12-20T11:58:28Z</time>
      </trkpt>
      <trkpt lat="47.82947" lon="-1.01868">
        <ele>69.8</ele>
        <time>2020-12-20T11:58:29Z</time>
      </trkpt>
      <trkpt lat="47.82947" lon="-1.01872">
        <ele>69.8</ele>
        <time>2020-12-20T11:58:30Z</time>
      </trkpt>
      <trkpt lat="47.82947" lon="-1.01877">
        <ele>69.9</ele>
        <time>2020-12-20T11:58:31Z</time>
      </trkpt>
      <trkpt lat="47.82947" lon="-1.01882">
        <ele>69.9</ele>
        <time>2020-12-20T11:58:32Z</time>
      </trkpt>
      <trkpt lat="47.82946" lon="-1.01887">
        <ele>70</ele>
        <time>2020-12-20T11:58:33Z</time>
      </trkpt>
      <trkpt lat="47.82946" lon="-1.01892">
        <ele>70</ele>
        <time>2020-12-20T11:58:34Z</time>
      </trkpt>
      <trkpt lat="47.82946" lon="-1.01897">
        <ele>70.1</ele>
        <time>2020-12-20T11:58:35Z</time>
      </trkpt>
      <trkpt lat="47.82945" lon="-1.01902">
        <ele>70.2</ele>
        <time>2020-12-20T11:58:36Z</time>
      </trkpt>
      <trkpt lat="47.82945" lon="-1.01906">
        <ele>70.2</ele>
        <time>2020-12-20T11:58:37Z</time>
      </trkpt>
      <trkpt lat="47.82944" lon="-1.01911">
        <ele>70.3</ele>
        <time>2020-12-20T11:58:38Z</time>
      </trkpt>
      <trkpt lat="47.82944" lon="-1.01915">
        <ele>70.3</ele>
        <time>2020-12-20T11:58:39Z</time>
      </trkpt>
      <trkpt lat="47.82944" lon="-1.01919">
        <ele>70.4</ele>
        <time>2020-12-20T11:58:40Z</time>
      </trkpt>
      <trkpt lat="47.82944" lon="-1.01922">
        <ele>70.4</ele>
        <time>2020-12-20T11:58:41Z</time>
      </trkpt>
      <trkpt lat="47.82945" lon="-1.01925">
        <ele>70.3</ele>
        <time>2020-12-20T11:58:42Z</time>
      </trkpt>
      <trkpt lat="47.82945" lon="-1.01928">
        <ele>70.3</ele>
        <time>2020-12-20T11:58:43Z</time>
      </trkpt>
      <trkpt lat="47.82945" lon="-1.01932">
        <ele>70.4</ele>
        <time>2020-12-20T11:58:44Z</time>
      </trkpt>
      <trkpt lat="47.82945" lon="-1.01936">
        <ele>70.4</ele>
        <time>2020-12-20T11:58:45Z</time>
      </trkpt>
      <trkpt lat="47.82945" lon="-1.01941">
        <ele>70.4</ele>
        <time>2020-12-20T11:58:46Z</time>
      </trkpt>
      <trkpt lat="47.82945" lon="-1.01946">
        <ele>70.4</ele>
        <time>2020-12-20T11:58:47Z</time>
      </trkpt>
      <trkpt lat="47.82945" lon="-1.0195">
        <ele>70.4</ele>
        <time>2020-12-20T11:58:48Z</time>
      </trkpt>
      <trkpt lat="47.82945" lon="-1.01955">
        <ele>70.5</ele>
        <time>2020-12-20T11:58:49Z</time>
      </trkpt>
      <trkpt lat="47.82945" lon="-1.0196">
        <ele>70.5</ele>
        <time>2020-12-20T11:58:50Z</time>
      </trkpt>
      <trkpt lat="47.82945" lon="-1.01964">
        <ele>70.5</ele>
        <time>2020-12-20T11:58:51Z</time>
      </trkpt>
      <trkpt lat="47.82946" lon="-1.01969">
        <ele>70.5</ele>
        <time>2020-12-20T11:58:52Z</time>
      </trkpt>
      <trkpt lat="47.82946" lon="-1.01974">
        <ele>70.5</ele>
        <time>2020-12-20T11:58:53Z</time>
      </trkpt>
      <trkpt lat="47.82946" lon="-1.0198">
        <ele>70.5</ele>
        <time>2020-12-20T11:58:54Z</time>
      </trkpt>
      <trkpt lat="47.82947" lon="-1.01985">
        <ele>70.5</ele>
        <time>2020-12-20T11:58:55Z</time>
      </trkpt>
      <trkpt lat="47.82947" lon="-1.0199">
        <ele>70.5</ele>
        <time>2020-12-20T11:58:56Z</time>
      </trkpt>
      <trkpt lat="47.82947" lon="-1.01996">
        <ele>70.5</ele>
        <time>2020-12-20T11:58:57Z</time>
      </trkpt>
      <trkpt lat="47.82947" lon="-1.02002">
        <ele>70.5</ele>
        <time>2020-12-20T11:58:58Z</time>
      </trkpt>
      <trkpt lat="47.82946" lon="-1.02007">
        <ele>70.6</ele>
        <time>2020-12-20T11:58:59Z</time>
      </trkpt>
      <trkpt lat="47.82946" lon="-1.02013">
        <ele>70.5</ele>
        <time>2020-12-20T11:59:00Z</time>
      </trkpt>
      <trkpt lat="47.82946" lon="-1.02018">
        <ele>70.5</ele>
        <time>2020-12-20T11:59:01Z</time>
      </trkpt>
      <trkpt lat="47.82946" lon="-1.02024">
        <ele>70.5</ele>
        <time>2020-12-20T11:59:02Z</time>
      </trkpt>
      <trkpt lat="47.82946" lon="-1.0203">
        <ele>70.5</ele>
        <time>2020-12-20T11:59:03Z</time>
      </trkpt>
      <trkpt lat="47.82946" lon="-1.02036">
        <ele>70.5</ele>
        <time>2020-12-20T11:59:04Z</time>
      </trkpt>
      <trkpt lat="47.82946" lon="-1.02042">
        <ele>70.4</ele>
        <time>2020-12-20T11:59:05Z</time>
      </trkpt>
      <trkpt lat="47.82946" lon="-1.02047">
        <ele>70.4</ele>
        <time>2020-12-20T11:59:06Z</time>
      </trkpt>
      <trkpt lat="47.82946" lon="-1.02053">
        <ele>70.4</ele>
        <time>2020-12-20T11:59:07Z</time>
      </trkpt>
      <trkpt lat="47.82946" lon="-1.02059">
        <ele>70.4</ele>
        <time>2020-12-20T11:59:08Z</time>
      </trkpt>
      <trkpt lat="47.82947" lon="-1.02065">
        <ele>70.3</ele>
        <time>2020-12-20T11:59:09Z</time>
      </trkpt>
      <trkpt lat="47.82947" lon="-1.02071">
        <ele>70.3</ele>
        <time>2020-12-20T11:59:10Z</time>
      </trkpt>
      <trkpt lat="47.82947" lon="-1.02077">
        <ele>70.3</ele>
        <time>2020-12-20T11:59:11Z</time>
      </trkpt>
      <trkpt lat="47.82946" lon="-1.02084">
        <ele>70.3</ele>
        <time>2020-12-20T11:59:12Z</time>
      </trkpt>
      <trkpt lat="47.82947" lon="-1.02089">
        <ele>70.2</ele>
        <time>2020-12-20T11:59:13Z</time>
      </trkpt>
      <trkpt lat="47.82947" lon="-1.02095">
        <ele>70.2</ele>
        <time>2020-12-20T11:59:14Z</time>
      </trkpt>
      <trkpt lat="47.82947" lon="-1.02101">
        <ele>70.1</ele>
        <time>2020-12-20T11:59:15Z</time>
      </trkpt>
      <trkpt lat="47.82947" lon="-1.02107">
        <ele>70.1</ele>
        <time>2020-12-20T11:59:16Z</time>
      </trkpt>
      <trkpt lat="47.82946" lon="-1.02111">
        <ele>70.1</ele>
        <time>2020-12-20T11:59:17Z</time>
      </trkpt>
      <trkpt lat="47.82946" lon="-1.02118">
        <ele>70</ele>
        <time>2020-12-20T11:59:18Z</time>
      </trkpt>
      <trkpt lat="47.82946" lon="-1.02124">
        <ele>70</ele>
        <time>2020-12-20T11:59:19Z</time>
      </trkpt>
      <trkpt lat="47.82946" lon="-1.02129">
        <ele>69.9</ele>
        <time>2020-12-20T11:59:20Z</time>
      </trkpt>
      <trkpt lat="47.82946" lon="-1.02136">
        <ele>69.9</ele>
        <time>2020-12-20T11:59:21Z</time>
      </trkpt>
      <trkpt lat="47.82946" lon="-1.02142">
        <ele>69.8</ele>
        <time>2020-12-20T11:59:22Z</time>
      </trkpt>
      <trkpt lat="47.82945" lon="-1.02148">
        <ele>69.8</ele>
        <time>2020-12-20T11:59:23Z</time>
      </trkpt>
      <trkpt lat="47.82945" lon="-1.02154">
        <ele>69.8</ele>
        <time>2020-12-20T11:59:24Z</time>
      </trkpt>
      <trkpt lat="47.82946" lon="-1.02159">
        <ele>69.7</ele>
        <time>2020-12-20T11:59:25Z</time>
      </trkpt>
      <trkpt lat="47.82946" lon="-1.02166">
        <ele>69.7</ele>
        <time>2020-12-20T11:59:26Z</time>
      </trkpt>
      <trkpt lat="47.82946" lon="-1.02171">
        <ele>69.6</ele>
        <time>2020-12-20T11:59:27Z</time>
      </trkpt>
      <trkpt lat="47.82945" lon="-1.02176">
        <ele>69.5</ele>
        <time>2020-12-20T11:59:28Z</time>
      </trkpt>
      <trkpt lat="47.82945" lon="-1.02182">
        <ele>69.5</ele>
        <time>2020-12-20T11:59:29Z</time>
      </trkpt>
      <trkpt lat="47.82945" lon="-1.02189">
        <ele>69.4</ele>
        <time>2020-12-20T11:59:30Z</time>
      </trkpt>
      <trkpt lat="47.82945" lon="-1.02195">
        <ele>69.3</ele>
        <time>2020-12-20T11:59:31Z</time>
      </trkpt>
      <trkpt lat="47.82945" lon="-1.02201">
        <ele>69.2</ele>
        <time>2020-12-20T11:59:32Z</time>
      </trkpt>
      <trkpt lat="47.82945" lon="-1.02206">
        <ele>69.2</ele>
        <time>2020-12-20T11:59:33Z</time>
      </trkpt>
      <trkpt lat="47.82945" lon="-1.02212">
        <ele>69.1</ele>
        <time>2020-12-20T11:59:34Z</time>
      </trkpt>
      <trkpt lat="47.82944" lon="-1.02218">
        <ele>69.1</ele>
        <time>2020-12-20T11:59:35Z</time>
      </trkpt>
      <trkpt lat="47.82944" lon="-1.02224">
        <ele>69</ele>
        <time>2020-12-20T11:59:36Z</time>
      </trkpt>
      <trkpt lat="47.82944" lon="-1.0223">
        <ele>68.9</ele>
        <time>2020-12-20T11:59:37Z</time>
      </trkpt>
      <trkpt lat="47.82944" lon="-1.02235">
        <ele>68.9</ele>
        <time>2020-12-20T11:59:38Z</time>
      </trkpt>
      <trkpt lat="47.82944" lon="-1.02241">
        <ele>68.8</ele>
        <time>2020-12-20T11:59:39Z</time>
      </trkpt>
      <trkpt lat="47.82944" lon="-1.02246">
        <ele>68.7</ele>
        <time>2020-12-20T11:59:40Z</time>
      </trkpt>
      <trkpt lat="47.82945" lon="-1.02252">
        <ele>68.7</ele>
        <time>2020-12-20T11:59:41Z</time>
      </trkpt>
      <trkpt lat="47.82945" lon="-1.02257">
        <ele>68.9</ele>
        <time>2020-12-20T11:59:42Z</time>
      </trkpt>
      <trkpt lat="47.82946" lon="-1.02262">
        <ele>69</ele>
        <time>2020-12-20T11:59:43Z</time>
      </trkpt>
      <trkpt lat="47.82945" lon="-1.02267">
        <ele>69.2</ele>
        <time>2020-12-20T11:59:44Z</time>
      </trkpt>
      <trkpt lat="47.82945" lon="-1.02272">
        <ele>69.4</ele>
        <time>2020-12-20T11:59:45Z</time>
      </trkpt>
      <trkpt lat="47.82945" lon="-1.02277">
        <ele>69.5</ele>
        <time>2020-12-20T11:59:46Z</time>
      </trkpt>
      <trkpt lat="47.82945" lon="-1.02283">
        <ele>69.7</ele>
        <time>2020-12-20T11:59:47Z</time>
      </trkpt>
      <trkpt lat="47.82945" lon="-1.0229">
        <ele>69.9</ele>
        <time>2020-12-20T11:59:48Z</time>
      </trkpt>
      <trkpt lat="47.82945" lon="-1.02297">
        <ele>70.2</ele>
        <time>2020-12-20T11:59:49Z</time>
      </trkpt>
      <trkpt lat="47.82945" lon="-1.02304">
        <ele>70.4</ele>
        <time>2020-12-20T11:59:50Z</time>
      </trkpt>
      <trkpt lat="47.82945" lon="-1.0231">
        <ele>70.6</ele>
        <time>2020-12-20T11:59:51Z</time>
      </trkpt>
      <trkpt lat="47.82945" lon="-1.02317">
        <ele>70.8</ele>
        <time>2020-12-20T11:59:52Z</time>
      </trkpt>
      <trkpt lat="47.82945" lon="-1.02323">
        <ele>71</ele>
        <time>2020-12-20T11:59:53Z</time>
      </trkpt>
      <trkpt lat="47.82945" lon="-1.02328">
        <ele>71.2</ele>
        <time>2020-12-20T11:59:54Z</time>
      </trkpt>
      <trkpt lat="47.82946" lon="-1.02333">
        <ele>71.3</ele>
        <time>2020-12-20T11:59:55Z</time>
      </trkpt>
      <trkpt lat="47.82946" lon="-1.0234">
        <ele>71.4</ele>
        <time>2020-12-20T11:59:56Z</time>
      </trkpt>
      <trkpt lat="47.82945" lon="-1.02348">
        <ele>71.4</ele>
        <time>2020-12-20T11:59:57Z</time>
      </trkpt>
      <trkpt lat="47.82945" lon="-1.02355">
        <ele>71.4</ele>
        <time>2020-12-20T11:59:58Z</time>
      </trkpt>
      <trkpt lat="47.82944" lon="-1.02363">
        <ele>71.4</ele>
        <time>2020-12-20T11:59:59Z</time>
      </trkpt>
      <trkpt lat="47.82944" lon="-1.0237">
        <ele>71.5</ele>
        <time>2020-12-20T12:00:00Z</time>
      </trkpt>
      <trkpt lat="47.82944" lon="-1.02377">
        <ele>71.5</ele>
        <time>2020-12-20T12:00:01Z</time>
      </trkpt>
      <trkpt lat="47.82944" lon="-1.02385">
        <ele>71.5</ele>
        <time>2020-12-20T12:00:02Z</time>
      </trkpt>
      <trkpt lat="47.82944" lon="-1.02392">
        <ele>71.6</ele>
        <time>2020-12-20T12:00:03Z</time>
      </trkpt>
      <trkpt lat="47.82944" lon="-1.02399">
        <ele>71.6</ele>
        <time>2020-12-20T12:00:04Z</time>
      </trkpt>
      <trkpt lat="47.82943" lon="-1.02406">
        <ele>71.6</ele>
        <time>2020-12-20T12:00:05Z</time>
      </trkpt>
      <trkpt lat="47.82944" lon="-1.02413">
        <ele>71.6</ele>
        <time>2020-12-20T12:00:06Z</time>
      </trkpt>
      <trkpt lat="47.82944" lon="-1.0242">
        <ele>71.7</ele>
        <time>2020-12-20T12:00:07Z</time>
      </trkpt>
      <trkpt lat="47.82944" lon="-1.02426">
        <ele>71.7</ele>
        <time>2020-12-20T12:00:08Z</time>
      </trkpt>
      <trkpt lat="47.82943" lon="-1.02432">
        <ele>71.7</ele>
        <time>2020-12-20T12:00:09Z</time>
      </trkpt>
      <trkpt lat="47.82943" lon="-1.02438">
        <ele>71.7</ele>
        <time>2020-12-20T12:00:10Z</time>
      </trkpt>
      <trkpt lat="47.82943" lon="-1.02444">
        <ele>71.7</ele>
        <time>2020-12-20T12:00:11Z</time>
      </trkpt>
      <trkpt lat="47.82943" lon="-1.0245">
        <ele>71.8</ele>
        <time>2020-12-20T12:00:12Z</time>
      </trkpt>
      <trkpt lat="47.82943" lon="-1.02455">
        <ele>71.8</ele>
        <time>2020-12-20T12:00:13Z</time>
      </trkpt>
      <trkpt lat="47.82943" lon="-1.02461">
        <ele>71.8</ele>
        <time>2020-12-20T12:00:14Z</time>
      </trkpt>
      <trkpt lat="47.82944" lon="-1.02467">
        <ele>71.9</ele>
        <time>2020-12-20T12:00:15Z</time>
      </trkpt>
      <trkpt lat="47.82944" lon="-1.02474">
        <ele>71.9</ele>
        <time>2020-12-20T12:00:16Z</time>
      </trkpt>
      <trkpt lat="47.82944" lon="-1.02479">
        <ele>71.9</ele>
        <time>2020-12-20T12:00:17Z</time>
      </trkpt>
      <trkpt lat="47.82943" lon="-1.02484">
        <ele>71.9</ele>
        <time>2020-12-20T12:00:18Z</time>
      </trkpt>
      <trkpt lat="47.82943" lon="-1.02489">
        <ele>71.9</ele>
        <time>2020-12-20T12:00:19Z</time>
      </trkpt>
      <trkpt lat="47.82943" lon="-1.02495">
        <ele>71.9</ele>
        <time>2020-12-20T12:00:20Z</time>
      </trkpt>
      <trkpt lat="47.82944" lon="-1.02501">
        <ele>72</ele>
        <time>2020-12-20T12:00:21Z</time>
      </trkpt>
      <trkpt lat="47.82944" lon="-1.02507">
        <ele>72.4</ele>
        <time>2020-12-20T12:00:22Z</time>
      </trkpt>
      <trkpt lat="47.82943" lon="-1.02514">
        <ele>72.9</ele>
        <time>2020-12-20T12:00:23Z</time>
      </trkpt>
      <trkpt lat="47.82943" lon="-1.02521">
        <ele>73.3</ele>
        <time>2020-12-20T12:00:24Z</time>
      </trkpt>
      <trkpt lat="47.82943" lon="-1.02528">
        <ele>73.8</ele>
        <time>2020-12-20T12:00:25Z</time>
      </trkpt>
      <trkpt lat="47.82943" lon="-1.02534">
        <ele>74.2</ele>
        <time>2020-12-20T12:00:26Z</time>
      </trkpt>
      <trkpt lat="47.82943" lon="-1.0254">
        <ele>74.5</ele>
        <time>2020-12-20T12:00:27Z</time>
      </trkpt>
      <trkpt lat="47.82942" lon="-1.02546">
        <ele>74.9</ele>
        <time>2020-12-20T12:00:28Z</time>
      </trkpt>
      <trkpt lat="47.82941" lon="-1.02553">
        <ele>75.4</ele>
        <time>2020-12-20T12:00:29Z</time>
      </trkpt>
      <trkpt lat="47.82941" lon="-1.02558">
        <ele>75.7</ele>
        <time>2020-12-20T12:00:30Z</time>
      </trkpt>
      <trkpt lat="47.8294" lon="-1.02564">
        <ele>76.1</ele>
        <time>2020-12-20T12:00:31Z</time>
      </trkpt>
      <trkpt lat="47.8294" lon="-1.02569">
        <ele>76.5</ele>
        <time>2020-12-20T12:00:32Z</time>
      </trkpt>
      <trkpt lat="47.82939" lon="-1.02574">
        <ele>76.8</ele>
        <time>2020-12-20T12:00:33Z</time>
      </trkpt>
      <trkpt lat="47.8294" lon="-1.02579">
        <ele>77.1</ele>
        <time>2020-12-20T12:00:34Z</time>
      </trkpt>
      <trkpt lat="47.82941" lon="-1.02584">
        <ele>77.4</ele>
        <time>2020-12-20T12:00:35Z</time>
      </trkpt>
      <trkpt lat="47.82941" lon="-1.02589">
        <ele>77.6</ele>
        <time>2020-12-20T12:00:36Z</time>
      </trkpt>
      <trkpt lat="47.82941" lon="-1.02594">
        <ele>77.7</ele>
        <time>2020-12-20T12:00:37Z</time>
      </trkpt>
      <trkpt lat="47.82941" lon="-1.02601">
        <ele>77.9</ele>
        <time>2020-12-20T12:00:38Z</time>
      </trkpt>
      <trkpt lat="47.82941" lon="-1.02607">
        <ele>78.1</ele>
        <time>2020-12-20T12:00:39Z</time>
      </trkpt>
      <trkpt lat="47.82942" lon="-1.02613">
        <ele>78.2</ele>
        <time>2020-12-20T12:00:40Z</time>
      </trkpt>
      <trkpt lat="47.82942" lon="-1.02618">
        <ele>78.4</ele>
        <time>2020-12-20T12:00:41Z</time>
      </trkpt>
      <trkpt lat="47.82941" lon="-1.02625">
        <ele>78.6</ele>
        <time>2020-12-20T12:00:42Z</time>
      </trkpt>
      <trkpt lat="47.82941" lon="-1.02631">
        <ele>78.7</ele>
        <time>2020-12-20T12:00:43Z</time>
      </trkpt>
      <trkpt lat="47.82941" lon="-1.02638">
        <ele>78.9</ele>
        <time>2020-12-20T12:00:44Z</time>
      </trkpt>
      <trkpt lat="47.82942" lon="-1.02644">
        <ele>79.1</ele>
        <time>2020-12-20T12:00:45Z</time>
      </trkpt>
      <trkpt lat="47.82942" lon="-1.02651">
        <ele>79.3</ele>
        <time>2020-12-20T12:00:46Z</time>
      </trkpt>
      <trkpt lat="47.82942" lon="-1.02657">
        <ele>79.4</ele>
        <time>2020-12-20T12:00:47Z</time>
      </trkpt>
      <trkpt lat="47.82941" lon="-1.02663">
        <ele>79.6</ele>
        <time>2020-12-20T12:00:48Z</time>
      </trkpt>
      <trkpt lat="47.82941" lon="-1.02669">
        <ele>79.7</ele>
        <time>2020-12-20T12:00:49Z</time>
      </trkpt>
      <trkpt lat="47.82942" lon="-1.02675">
        <ele>79.7</ele>
        <time>2020-12-20T12:00:50Z</time>
      </trkpt>
      <trkpt lat="47.82941" lon="-1.02681">
        <ele>79.6</ele>
        <time>2020-12-20T12:00:51Z</time>
      </trkpt>
      <trkpt lat="47.82941" lon="-1.02689">
        <ele>79.6</ele>
        <time>2020-12-20T12:00:52Z</time>
      </trkpt>
      <trkpt lat="47.8294" lon="-1.02696">
        <ele>79.6</ele>
        <time>2020-12-20T12:00:53Z</time>
      </trkpt>
      <trkpt lat="47.8294" lon="-1.02702">
        <ele>79.5</ele>
        <time>2020-12-20T12:00:54Z</time>
      </trkpt>
      <trkpt lat="47.82941" lon="-1.02706">
        <ele>79.5</ele>
        <time>2020-12-20T12:00:55Z</time>
      </trkpt>
      <trkpt lat="47.82942" lon="-1.02711">
        <ele>79.5</ele>
        <time>2020-12-20T12:00:56Z</time>
      </trkpt>
      <trkpt lat="47.82944" lon="-1.02717">
        <ele>79.5</ele>
        <time>2020-12-20T12:00:57Z</time>
      </trkpt>
      <trkpt lat="47.82945" lon="-1.02725">
        <ele>79.4</ele>
        <time>2020-12-20T12:00:58Z</time>
      </trkpt>
      <trkpt lat="47.82947" lon="-1.02731">
        <ele>79.4</ele>
        <time>2020-12-20T12:00:59Z</time>
      </trkpt>
      <trkpt lat="47.82946" lon="-1.02739">
        <ele>79.4</ele>
        <time>2020-12-20T12:01:00Z</time>
      </trkpt>
      <trkpt lat="47.82945" lon="-1.02746">
        <ele>79.4</ele>
        <time>2020-12-20T12:01:01Z</time>
      </trkpt>
      <trkpt lat="47.82945" lon="-1.02752">
        <ele>79.3</ele>
        <time>2020-12-20T12:01:02Z</time>
      </trkpt>
      <trkpt lat="47.82944" lon="-1.0276">
        <ele>79.3</ele>
        <time>2020-12-20T12:01:03Z</time>
      </trkpt>
      <trkpt lat="47.82944" lon="-1.02766">
        <ele>79.3</ele>
        <time>2020-12-20T12:01:04Z</time>
      </trkpt>
      <trkpt lat="47.82943" lon="-1.02773">
        <ele>79.2</ele>
        <time>2020-12-20T12:01:05Z</time>
      </trkpt>
      <trkpt lat="47.82944" lon="-1.02777">
        <ele>79.2</ele>
        <time>2020-12-20T12:01:06Z</time>
      </trkpt>
      <trkpt lat="47.82943" lon="-1.02782">
        <ele>79.2</ele>
        <time>2020-12-20T12:01:07Z</time>
      </trkpt>
      <trkpt lat="47.82943" lon="-1.02786">
        <ele>79.2</ele>
        <time>2020-12-20T12:01:08Z</time>
      </trkpt>
      <trkpt lat="47.82942" lon="-1.02791">
        <ele>79.2</ele>
        <time>2020-12-20T12:01:09Z</time>
      </trkpt>
      <trkpt lat="47.82941" lon="-1.02798">
        <ele>79.1</ele>
        <time>2020-12-20T12:01:10Z</time>
      </trkpt>
      <trkpt lat="47.82941" lon="-1.02803">
        <ele>79.1</ele>
        <time>2020-12-20T12:01:11Z</time>
      </trkpt>
      <trkpt lat="47.82941" lon="-1.02807">
        <ele>79.1</ele>
        <time>2020-12-20T12:01:12Z</time>
      </trkpt>
      <trkpt lat="47.82941" lon="-1.02812">
        <ele>79.1</ele>
        <time>2020-12-20T12:01:13Z</time>
      </trkpt>
      <trkpt lat="47.82941" lon="-1.02817">
        <ele>79.1</ele>
        <time>2020-12-20T12:01:14Z</time>
      </trkpt>
      <trkpt lat="47.82942" lon="-1.02821">
        <ele>79</ele>
        <time>2020-12-20T12:01:15Z</time>
      </trkpt>
      <trkpt lat="47.82942" lon="-1.02825">
        <ele>79</ele>
        <time>2020-12-20T12:01:16Z</time>
      </trkpt>
      <trkpt lat="47.82942" lon="-1.02829">
        <ele>79</ele>
        <time>2020-12-20T12:01:17Z</time>
      </trkpt>
      <trkpt lat="47.82942" lon="-1.02834">
        <ele>79</ele>
        <time>2020-12-20T12:01:18Z</time>
      </trkpt>
      <trkpt lat="47.82942" lon="-1.02839">
        <ele>78.7</ele>
        <time>2020-12-20T12:01:19Z</time>
      </trkpt>
      <trkpt lat="47.82942" lon="-1.02844">
        <ele>78.5</ele>
        <time>2020-12-20T12:01:20Z</time>
      </trkpt>
      <trkpt lat="47.82942" lon="-1.0285">
        <ele>78.2</ele>
        <time>2020-12-20T12:01:21Z</time>
      </trkpt>
      <trkpt lat="47.82941" lon="-1.02855">
        <ele>78</ele>
        <time>2020-12-20T12:01:22Z</time>
      </trkpt>
      <trkpt lat="47.82941" lon="-1.0286">
        <ele>77.8</ele>
        <time>2020-12-20T12:01:23Z</time>
      </trkpt>
      <trkpt lat="47.8294" lon="-1.02865">
        <ele>77.5</ele>
        <time>2020-12-20T12:01:24Z</time>
      </trkpt>
      <trkpt lat="47.82939" lon="-1.02871">
        <ele>77.3</ele>
        <time>2020-12-20T12:01:25Z</time>
      </trkpt>
      <trkpt lat="47.82939" lon="-1.02876">
        <ele>77.1</ele>
        <time>2020-12-20T12:01:26Z</time>
      </trkpt>
      <trkpt lat="47.82939" lon="-1.02882">
        <ele>76.8</ele>
        <time>2020-12-20T12:01:27Z</time>
      </trkpt>
      <trkpt lat="47.82939" lon="-1.02887">
        <ele>76.6</ele>
        <time>2020-12-20T12:01:28Z</time>
      </trkpt>
      <trkpt lat="47.82939" lon="-1.02893">
        <ele>76.3</ele>
        <time>2020-12-20T12:01:29Z</time>
      </trkpt>
      <trkpt lat="47.82939" lon="-1.02898">
        <ele>76</ele>
        <time>2020-12-20T12:01:30Z</time>
      </trkpt>
      <trkpt lat="47.8294" lon="-1.02903">
        <ele>75.8</ele>
        <time>2020-12-20T12:01:31Z</time>
      </trkpt>
      <trkpt lat="47.8294" lon="-1.02907">
        <ele>75.6</ele>
        <time>2020-12-20T12:01:32Z</time>
      </trkpt>
      <trkpt lat="47.8294" lon="-1.02911">
        <ele>75.4</ele>
        <time>2020-12-20T12:01:33Z</time>
      </trkpt>
      <trkpt lat="47.8294" lon="-1.02916">
        <ele>75.2</ele>
        <time>2020-12-20T12:01:34Z</time>
      </trkpt>
      <trkpt lat="47.82941" lon="-1.02919">
        <ele>75.1</ele>
        <time>2020-12-20T12:01:35Z</time>
      </trkpt>
      <trkpt lat="47.82941" lon="-1.02924">
        <ele>75.1</ele>
        <time>2020-12-20T12:01:36Z</time>
      </trkpt>
      <trkpt lat="47.82941" lon="-1.02929">
        <ele>75.1</ele>
        <time>2020-12-20T12:01:37Z</time>
      </trkpt>
      <trkpt lat="47.8294" lon="-1.02934">
        <ele>75.1</ele>
        <time>2020-12-20T12:01:38Z</time>
      </trkpt>
      <trkpt lat="47.8294" lon="-1.02939">
        <ele>75</ele>
        <time>2020-12-20T12:01:39Z</time>
      </trkpt>
      <trkpt lat="47.8294" lon="-1.02945">
        <ele>75</ele>
        <time>2020-12-20T12:01:40Z</time>
      </trkpt>
      <trkpt lat="47.8294" lon="-1.02949">
        <ele>75</ele>
        <time>2020-12-20T12:01:41Z</time>
      </trkpt>
      <trkpt lat="47.8294" lon="-1.02955">
        <ele>75</ele>
        <time>2020-12-20T12:01:42Z</time>
      </trkpt>
      <trkpt lat="47.82939" lon="-1.0296">
        <ele>75</ele>
        <time>2020-12-20T12:01:43Z</time>
      </trkpt>
      <trkpt lat="47.82938" lon="-1.02965">
        <ele>74.9</ele>
        <time>2020-12-20T12:01:44Z</time>
      </trkpt>
      <trkpt lat="47.82938" lon="-1.02971">
        <ele>74.9</ele>
        <time>2020-12-20T12:01:45Z</time>
      </trkpt>
      <trkpt lat="47.82938" lon="-1.02976">
        <ele>74.9</ele>
        <time>2020-12-20T12:01:46Z</time>
      </trkpt>
      <trkpt lat="47.82938" lon="-1.02981">
        <ele>74.9</ele>
        <time>2020-12-20T12:01:47Z</time>
      </trkpt>
      <trkpt lat="47.82939" lon="-1.02987">
        <ele>74.8</ele>
        <time>2020-12-20T12:01:48Z</time>
      </trkpt>
      <trkpt lat="47.82939" lon="-1.02993">
        <ele>74.8</ele>
        <time>2020-12-20T12:01:49Z</time>
      </trkpt>
      <trkpt lat="47.82939" lon="-1.02999">
        <ele>74.7</ele>
        <time>2020-12-20T12:01:50Z</time>
      </trkpt>
      <trkpt lat="47.82939" lon="-1.03005">
        <ele>74.7</ele>
        <time>2020-12-20T12:01:51Z</time>
      </trkpt>
      <trkpt lat="47.82939" lon="-1.0301">
        <ele>74.7</ele>
        <time>2020-12-20T12:01:52Z</time>
      </trkpt>
      <trkpt lat="47.82939" lon="-1.03016">
        <ele>74.6</ele>
        <time>2020-12-20T12:01:53Z</time>
      </trkpt>
      <trkpt lat="47.82939" lon="-1.03021">
        <ele>74.6</ele>
        <time>2020-12-20T12:01:54Z</time>
      </trkpt>
      <trkpt lat="47.82938" lon="-1.03027">
        <ele>74.6</ele>
        <time>2020-12-20T12:01:55Z</time>
      </trkpt>
      <trkpt lat="47.82938" lon="-1.03032">
        <ele>74.5</ele>
        <time>2020-12-20T12:01:56Z</time>
      </trkpt>
      <trkpt lat="47.82938" lon="-1.03039">
        <ele>74.5</ele>
        <time>2020-12-20T12:01:57Z</time>
      </trkpt>
      <trkpt lat="47.82938" lon="-1.03048">
        <ele>74.4</ele>
        <time>2020-12-20T12:01:58Z</time>
      </trkpt>
      <trkpt lat="47.82938" lon="-1.03053">
        <ele>74.4</ele>
        <time>2020-12-20T12:01:59Z</time>
      </trkpt>
      <trkpt lat="47.82936" lon="-1.03059">
        <ele>74.4</ele>
        <time>2020-12-20T12:02:00Z</time>
      </trkpt>
      <trkpt lat="47.82935" lon="-1.03064">
        <ele>74.4</ele>
        <time>2020-12-20T12:02:01Z</time>
      </trkpt>
      <trkpt lat="47.82936" lon="-1.03068">
        <ele>74.4</ele>
        <time>2020-12-20T12:02:02Z</time>
      </trkpt>
      <trkpt lat="47.82936" lon="-1.03073">
        <ele>74.4</ele>
        <time>2020-12-20T12:02:03Z</time>
      </trkpt>
      <trkpt lat="47.82936" lon="-1.03079">
        <ele>74.3</ele>
        <time>2020-12-20T12:02:04Z</time>
      </trkpt>
      <trkpt lat="47.82938" lon="-1.03085">
        <ele>74.2</ele>
        <time>2020-12-20T12:02:05Z</time>
      </trkpt>
      <trkpt lat="47.82939" lon="-1.03089">
        <ele>74.1</ele>
        <time>2020-12-20T12:02:06Z</time>
      </trkpt>
      <trkpt lat="47.82939" lon="-1.03091">
        <ele>74.1</ele>
        <time>2020-12-20T12:02:07Z</time>
      </trkpt>
      <trkpt lat="47.82939" lon="-1.03096">
        <ele>74</ele>
        <time>2020-12-20T12:02:08Z</time>
      </trkpt>
      <trkpt lat="47.82938" lon="-1.031">
        <ele>74</ele>
        <time>2020-12-20T12:02:09Z</time>
      </trkpt>
      <trkpt lat="47.82938" lon="-1.03105">
        <ele>74</ele>
        <time>2020-12-20T12:02:10Z</time>
      </trkpt>
      <trkpt lat="47.82938" lon="-1.03112">
        <ele>73.9</ele>
        <time>2020-12-20T12:02:11Z</time>
      </trkpt>
      <trkpt lat="47.82938" lon="-1.03119">
        <ele>73.8</ele>
        <time>2020-12-20T12:02:12Z</time>
      </trkpt>
      <trkpt lat="47.82939" lon="-1.03124">
        <ele>73.7</ele>
        <time>2020-12-20T12:02:13Z</time>
      </trkpt>
      <trkpt lat="47.82938" lon="-1.0313">
        <ele>73.7</ele>
        <time>2020-12-20T12:02:14Z</time>
      </trkpt>
      <trkpt lat="47.82938" lon="-1.03133">
        <ele>73.6</ele>
        <time>2020-12-20T12:02:15Z</time>
      </trkpt>
      <trkpt lat="47.82938" lon="-1.03136">
        <ele>73.6</ele>
        <time>2020-12-20T12:02:16Z</time>
      </trkpt>
      <trkpt lat="47.82938" lon="-1.0314">
        <ele>73.6</ele>
        <time>2020-12-20T12:02:17Z</time>
      </trkpt>
      <trkpt lat="47.82938" lon="-1.03145">
        <ele>73.5</ele>
        <time>2020-12-20T12:02:18Z</time>
      </trkpt>
      <trkpt lat="47.82938" lon="-1.03152">
        <ele>73.4</ele>
        <time>2020-12-20T12:02:19Z</time>
      </trkpt>
      <trkpt lat="47.82939" lon="-1.0316">
        <ele>73.3</ele>
        <time>2020-12-20T12:02:20Z</time>
      </trkpt>
      <trkpt lat="47.8294" lon="-1.03166">
        <ele>73.2</ele>
        <time>2020-12-20T12:02:21Z</time>
      </trkpt>
      <trkpt lat="47.82941" lon="-1.03172">
        <ele>73.2</ele>
        <time>2020-12-20T12:02:22Z</time>
      </trkpt>
      <trkpt lat="47.82941" lon="-1.03177">
        <ele>73.2</ele>
        <time>2020-12-20T12:02:23Z</time>
      </trkpt>
      <trkpt lat="47.82941" lon="-1.03181">
        <ele>73.3</ele>
        <time>2020-12-20T12:02:24Z</time>
      </trkpt>
      <trkpt lat="47.82941" lon="-1.03184">
        <ele>73.3</ele>
        <time>2020-12-20T12:02:25Z</time>
      </trkpt>
      <trkpt lat="47.8294" lon="-1.03189">
        <ele>73.4</ele>
        <time>2020-12-20T12:02:26Z</time>
      </trkpt>
      <trkpt lat="47.8294" lon="-1.03194">
        <ele>73.5</ele>
        <time>2020-12-20T12:02:27Z</time>
      </trkpt>
      <trkpt lat="47.8294" lon="-1.03199">
        <ele>73.5</ele>
        <time>2020-12-20T12:02:28Z</time>
      </trkpt>
      <trkpt lat="47.8294" lon="-1.03203">
        <ele>73.6</ele>
        <time>2020-12-20T12:02:29Z</time>
      </trkpt>
      <trkpt lat="47.8294" lon="-1.03209">
        <ele>73.7</ele>
        <time>2020-12-20T12:02:30Z</time>
      </trkpt>
      <trkpt lat="47.8294" lon="-1.03214">
        <ele>73.7</ele>
        <time>2020-12-20T12:02:31Z</time>
      </trkpt>
      <trkpt lat="47.8294" lon="-1.03219">
        <ele>73.8</ele>
        <time>2020-12-20T12:02:32Z</time>
      </trkpt>
      <trkpt lat="47.82941" lon="-1.03223">
        <ele>73.8</ele>
        <time>2020-12-20T12:02:33Z</time>
      </trkpt>
      <trkpt lat="47.82941" lon="-1.03226">
        <ele>73.8</ele>
        <time>2020-12-20T12:02:34Z</time>
      </trkpt>
      <trkpt lat="47.82942" lon="-1.03231">
        <ele>73.9</ele>
        <time>2020-12-20T12:02:35Z</time>
      </trkpt>
      <trkpt lat="47.82942" lon="-1.03236">
        <ele>73.9</ele>
        <time>2020-12-20T12:02:36Z</time>
      </trkpt>
      <trkpt lat="47.82942" lon="-1.03242">
        <ele>74</ele>
        <time>2020-12-20T12:02:37Z</time>
      </trkpt>
      <trkpt lat="47.82941" lon="-1.03248">
        <ele>74.1</ele>
        <time>2020-12-20T12:02:38Z</time>
      </trkpt>
      <trkpt lat="47.82941" lon="-1.03254">
        <ele>74.2</ele>
        <time>2020-12-20T12:02:39Z</time>
      </trkpt>
      <trkpt lat="47.82941" lon="-1.0326">
        <ele>74.4</ele>
        <time>2020-12-20T12:02:40Z</time>
      </trkpt>
      <trkpt lat="47.82941" lon="-1.03267">
        <ele>74.6</ele>
        <time>2020-12-20T12:02:41Z</time>
      </trkpt>
      <trkpt lat="47.82941" lon="-1.03274">
        <ele>74.8</ele>
        <time>2020-12-20T12:02:42Z</time>
      </trkpt>
      <trkpt lat="47.8294" lon="-1.0328">
        <ele>75</ele>
        <time>2020-12-20T12:02:43Z</time>
      </trkpt>
      <trkpt lat="47.82939" lon="-1.03286">
        <ele>75.2</ele>
        <time>2020-12-20T12:02:44Z</time>
      </trkpt>
      <trkpt lat="47.82939" lon="-1.03291">
        <ele>75.3</ele>
        <time>2020-12-20T12:02:45Z</time>
      </trkpt>
      <trkpt lat="47.82938" lon="-1.03296">
        <ele>75.5</ele>
        <time>2020-12-20T12:02:46Z</time>
      </trkpt>
      <trkpt lat="47.82938" lon="-1.03302">
        <ele>75.6</ele>
        <time>2020-12-20T12:02:47Z</time>
      </trkpt>
      <trkpt lat="47.82939" lon="-1.03308">
        <ele>75.8</ele>
        <time>2020-12-20T12:02:48Z</time>
      </trkpt>
      <trkpt lat="47.82938" lon="-1.03315">
        <ele>76</ele>
        <time>2020-12-20T12:02:49Z</time>
      </trkpt>
      <trkpt lat="47.82938" lon="-1.03322">
        <ele>76.2</ele>
        <time>2020-12-20T12:02:50Z</time>
      </trkpt>
      <trkpt lat="47.82938" lon="-1.03328">
        <ele>76.3</ele>
        <time>2020-12-20T12:02:51Z</time>
      </trkpt>
      <trkpt lat="47.82938" lon="-1.03334">
        <ele>76.5</ele>
        <time>2020-12-20T12:02:52Z</time>
      </trkpt>
      <trkpt lat="47.82938" lon="-1.0334">
        <ele>76.5</ele>
        <time>2020-12-20T12:02:53Z</time>
      </trkpt>
      <trkpt lat="47.82938" lon="-1.03347">
        <ele>76.6</ele>
        <time>2020-12-20T12:02:54Z</time>
      </trkpt>
      <trkpt lat="47.82938" lon="-1.03354">
        <ele>76.7</ele>
        <time>2020-12-20T12:02:55Z</time>
      </trkpt>
      <trkpt lat="47.82937" lon="-1.03361">
        <ele>76.8</ele>
        <time>2020-12-20T12:02:56Z</time>
      </trkpt>
      <trkpt lat="47.82937" lon="-1.03367">
        <ele>76.8</ele>
        <time>2020-12-20T12:02:57Z</time>
      </trkpt>
      <trkpt lat="47.82938" lon="-1.03373">
        <ele>76.8</ele>
        <time>2020-12-20T12:02:58Z</time>
      </trkpt>
      <trkpt lat="47.82938" lon="-1.03379">
        <ele>76.9</ele>
        <time>2020-12-20T12:02:59Z</time>
      </trkpt>
      <trkpt lat="47.82937" lon="-1.03385">
        <ele>77</ele>
        <time>2020-12-20T12:03:00Z</time>
      </trkpt>
      <trkpt lat="47.82936" lon="-1.03391">
        <ele>77.1</ele>
        <time>2020-12-20T12:03:01Z</time>
      </trkpt>
      <trkpt lat="47.82935" lon="-1.03397">
        <ele>77.2</ele>
        <time>2020-12-20T12:03:02Z</time>
      </trkpt>
      <trkpt lat="47.82935" lon="-1.03403">
        <ele>77.2</ele>
        <time>2020-12-20T12:03:03Z</time>
      </trkpt>
      <trkpt lat="47.82935" lon="-1.03408">
        <ele>77.3</ele>
        <time>2020-12-20T12:03:04Z</time>
      </trkpt>
      <trkpt lat="47.82935" lon="-1.03414">
        <ele>77.3</ele>
        <time>2020-12-20T12:03:05Z</time>
      </trkpt>
      <trkpt lat="47.82934" lon="-1.03419">
        <ele>77.4</ele>
        <time>2020-12-20T12:03:06Z</time>
      </trkpt>
      <trkpt lat="47.82934" lon="-1.03424">
        <ele>77.5</ele>
        <time>2020-12-20T12:03:07Z</time>
      </trkpt>
      <trkpt lat="47.82934" lon="-1.03428">
        <ele>77.5</ele>
        <time>2020-12-20T12:03:08Z</time>
      </trkpt>
      <trkpt lat="47.82934" lon="-1.03432">
        <ele>77.6</ele>
        <time>2020-12-20T12:03:09Z</time>
      </trkpt>
      <trkpt lat="47.82934" lon="-1.03437">
        <ele>77.6</ele>
        <time>2020-12-20T12:03:10Z</time>
      </trkpt>
      <trkpt lat="47.82934" lon="-1.03442">
        <ele>77.7</ele>
        <time>2020-12-20T12:03:11Z</time>
      </trkpt>
      <trkpt lat="47.82934" lon="-1.03447">
        <ele>77.7</ele>
        <time>2020-12-20T12:03:12Z</time>
      </trkpt>
      <trkpt lat="47.82934" lon="-1.03451">
        <ele>77.8</ele>
        <time>2020-12-20T12:03:13Z</time>
      </trkpt>
      <trkpt lat="47.82934" lon="-1.03456">
        <ele>77.8</ele>
        <time>2020-12-20T12:03:14Z</time>
      </trkpt>
      <trkpt lat="47.82935" lon="-1.03459">
        <ele>77.8</ele>
        <time>2020-12-20T12:03:15Z</time>
      </trkpt>
      <trkpt lat="47.82935" lon="-1.03463">
        <ele>77.9</ele>
        <time>2020-12-20T12:03:16Z</time>
      </trkpt>
      <trkpt lat="47.82936" lon="-1.03468">
        <ele>77.9</ele>
        <time>2020-12-20T12:03:17Z</time>
      </trkpt>
      <trkpt lat="47.82936" lon="-1.03473">
        <ele>78</ele>
        <time>2020-12-20T12:03:18Z</time>
      </trkpt>
      <trkpt lat="47.82936" lon="-1.03477">
        <ele>78</ele>
        <time>2020-12-20T12:03:19Z</time>
      </trkpt>
      <trkpt lat="47.82936" lon="-1.03482">
        <ele>78.1</ele>
        <time>2020-12-20T12:03:20Z</time>
      </trkpt>
      <trkpt lat="47.82936" lon="-1.03486">
        <ele>78.1</ele>
        <time>2020-12-20T12:03:21Z</time>
      </trkpt>
      <trkpt lat="47.82936" lon="-1.03492">
        <ele>78.2</ele>
        <time>2020-12-20T12:03:22Z</time>
      </trkpt>
      <trkpt lat="47.82937" lon="-1.03496">
        <ele>78.2</ele>
        <time>2020-12-20T12:03:23Z</time>
      </trkpt>
      <trkpt lat="47.82937" lon="-1.03502">
        <ele>78.3</ele>
        <time>2020-12-20T12:03:24Z</time>
      </trkpt>
      <trkpt lat="47.82937" lon="-1.03507">
        <ele>78.4</ele>
        <time>2020-12-20T12:03:25Z</time>
      </trkpt>
      <trkpt lat="47.82937" lon="-1.03513">
        <ele>78.5</ele>
        <time>2020-12-20T12:03:26Z</time>
      </trkpt>
      <trkpt lat="47.82936" lon="-1.0352">
        <ele>78.7</ele>
        <time>2020-12-20T12:03:27Z</time>
      </trkpt>
      <trkpt lat="47.82935" lon="-1.03526">
        <ele>78.9</ele>
        <time>2020-12-20T12:03:28Z</time>
      </trkpt>
      <trkpt lat="47.82935" lon="-1.03531">
        <ele>79</ele>
        <time>2020-12-20T12:03:29Z</time>
      </trkpt>
      <trkpt lat="47.82935" lon="-1.03536">
        <ele>79.1</ele>
        <time>2020-12-20T12:03:30Z</time>
      </trkpt>
      <trkpt lat="47.82935" lon="-1.03541">
        <ele>79.2</ele>
        <time>2020-12-20T12:03:31Z</time>
      </trkpt>
      <trkpt lat="47.82936" lon="-1.03546">
        <ele>79.2</ele>
        <time>2020-12-20T12:03:32Z</time>
      </trkpt>
      <trkpt lat="47.82935" lon="-1.03551">
        <ele>79.4</ele>
        <time>2020-12-20T12:03:33Z</time>
      </trkpt>
      <trkpt lat="47.82935" lon="-1.03555">
        <ele>79.4</ele>
        <time>2020-12-20T12:03:34Z</time>
      </trkpt>
      <trkpt lat="47.82935" lon="-1.03559">
        <ele>79.5</ele>
        <time>2020-12-20T12:03:35Z</time>
      </trkpt>
      <trkpt lat="47.82935" lon="-1.03565">
        <ele>79.6</ele>
        <time>2020-12-20T12:03:36Z</time>
      </trkpt>
      <trkpt lat="47.82935" lon="-1.03572">
        <ele>79.8</ele>
        <time>2020-12-20T12:03:37Z</time>
      </trkpt>
      <trkpt lat="47.82934" lon="-1.03578">
        <ele>79.9</ele>
        <time>2020-12-20T12:03:38Z</time>
      </trkpt>
      <trkpt lat="47.82934" lon="-1.03584">
        <ele>80</ele>
        <time>2020-12-20T12:03:39Z</time>
      </trkpt>
      <trkpt lat="47.82934" lon="-1.0359">
        <ele>80</ele>
        <time>2020-12-20T12:03:40Z</time>
      </trkpt>
      <trkpt lat="47.82934" lon="-1.03595">
        <ele>80</ele>
        <time>2020-12-20T12:03:41Z</time>
      </trkpt>
      <trkpt lat="47.82935" lon="-1.036">
        <ele>80</ele>
        <time>2020-12-20T12:03:42Z</time>
      </trkpt>
      <trkpt lat="47.82935" lon="-1.03605">
        <ele>80</ele>
        <time>2020-12-20T12:03:43Z</time>
      </trkpt>
      <trkpt lat="47.82934" lon="-1.0361">
        <ele>80</ele>
        <time>2020-12-20T12:03:44Z</time>
      </trkpt>
      <trkpt lat="47.82933" lon="-1.03616">
        <ele>80</ele>
        <time>2020-12-20T12:03:45Z</time>
      </trkpt>
      <trkpt lat="47.82932" lon="-1.03623">
        <ele>80</ele>
        <time>2020-12-20T12:03:46Z</time>
      </trkpt>
      <trkpt lat="47.82932" lon="-1.03628">
        <ele>80</ele>
        <time>2020-12-20T12:03:47Z</time>
      </trkpt>
      <trkpt lat="47.82931" lon="-1.03633">
        <ele>80</ele>
        <time>2020-12-20T12:03:48Z</time>
      </trkpt>
      <trkpt lat="47.82931" lon="-1.03638">
        <ele>80</ele>
        <time>2020-12-20T12:03:49Z</time>
      </trkpt>
      <trkpt lat="47.82931" lon="-1.03642">
        <ele>80</ele>
        <time>2020-12-20T12:03:50Z</time>
      </trkpt>
      <trkpt lat="47.82932" lon="-1.03647">
        <ele>80</ele>
        <time>2020-12-20T12:03:51Z</time>
      </trkpt>
      <trkpt lat="47.82931" lon="-1.03652">
        <ele>80</ele>
        <time>2020-12-20T12:03:52Z</time>
      </trkpt>
      <trkpt lat="47.82931" lon="-1.03657">
        <ele>80</ele>
        <time>2020-12-20T12:03:53Z</time>
      </trkpt>
      <trkpt lat="47.82931" lon="-1.03662">
        <ele>80</ele>
        <time>2020-12-20T12:03:54Z</time>
      </trkpt>
      <trkpt lat="47.82931" lon="-1.03668">
        <ele>80</ele>
        <time>2020-12-20T12:03:55Z</time>
      </trkpt>
      <trkpt lat="47.82931" lon="-1.03673">
        <ele>80.1</ele>
        <time>2020-12-20T12:03:56Z</time>
      </trkpt>
      <trkpt lat="47.82931" lon="-1.03678">
        <ele>80.2</ele>
        <time>2020-12-20T12:03:57Z</time>
      </trkpt>
      <trkpt lat="47.82931" lon="-1.03683">
        <ele>80.3</ele>
        <time>2020-12-20T12:03:58Z</time>
      </trkpt>
      <trkpt lat="47.82931" lon="-1.03689">
        <ele>80.4</ele>
        <time>2020-12-20T12:03:59Z</time>
      </trkpt>
      <trkpt lat="47.82932" lon="-1.03694">
        <ele>80.5</ele>
        <time>2020-12-20T12:04:00Z</time>
      </trkpt>
      <trkpt lat="47.82932" lon="-1.03699">
        <ele>80.6</ele>
        <time>2020-12-20T12:04:01Z</time>
      </trkpt>
      <trkpt lat="47.82932" lon="-1.0371">
        <ele>80.8</ele>
        <time>2020-12-20T12:04:03Z</time>
      </trkpt>
      <trkpt lat="47.82932" lon="-1.03715">
        <ele>80.9</ele>
        <time>2020-12-20T12:04:04Z</time>
      </trkpt>
      <trkpt lat="47.82932" lon="-1.0372">
        <ele>81</ele>
        <time>2020-12-20T12:04:05Z</time>
      </trkpt>
      <trkpt lat="47.82932" lon="-1.03725">
        <ele>81.1</ele>
        <time>2020-12-20T12:04:06Z</time>
      </trkpt>
      <trkpt lat="47.82932" lon="-1.03731">
        <ele>81.3</ele>
        <time>2020-12-20T12:04:07Z</time>
      </trkpt>
      <trkpt lat="47.82931" lon="-1.03736">
        <ele>81.4</ele>
        <time>2020-12-20T12:04:08Z</time>
      </trkpt>
      <trkpt lat="47.82931" lon="-1.03741">
        <ele>81.5</ele>
        <time>2020-12-20T12:04:09Z</time>
      </trkpt>
      <trkpt lat="47.82932" lon="-1.03747">
        <ele>81.6</ele>
        <time>2020-12-20T12:04:10Z</time>
      </trkpt>
      <trkpt lat="47.82932" lon="-1.03752">
        <ele>81.6</ele>
        <time>2020-12-20T12:04:11Z</time>
      </trkpt>
      <trkpt lat="47.82932" lon="-1.03757">
        <ele>81.6</ele>
        <time>2020-12-20T12:04:12Z</time>
      </trkpt>
      <trkpt lat="47.82932" lon="-1.03762">
        <ele>81.6</ele>
        <time>2020-12-20T12:04:13Z</time>
      </trkpt>
      <trkpt lat="47.82932" lon="-1.03767">
        <ele>81.5</ele>
        <time>2020-12-20T12:04:14Z</time>
      </trkpt>
      <trkpt lat="47.82932" lon="-1.03772">
        <ele>81.5</ele>
        <time>2020-12-20T12:04:15Z</time>
      </trkpt>
      <trkpt lat="47.82932" lon="-1.03777">
        <ele>81.5</ele>
        <time>2020-12-20T12:04:16Z</time>
      </trkpt>
      <trkpt lat="47.82931" lon="-1.03782">
        <ele>81.5</ele>
        <time>2020-12-20T12:04:17Z</time>
      </trkpt>
      <trkpt lat="47.82931" lon="-1.03786">
        <ele>81.4</ele>
        <time>2020-12-20T12:04:18Z</time>
      </trkpt>
      <trkpt lat="47.82931" lon="-1.0379">
        <ele>81.4</ele>
        <time>2020-12-20T12:04:19Z</time>
      </trkpt>
      <trkpt lat="47.8293" lon="-1.03794">
        <ele>81.4</ele>
        <time>2020-12-20T12:04:20Z</time>
      </trkpt>
      <trkpt lat="47.8293" lon="-1.038">
        <ele>81.4</ele>
        <time>2020-12-20T12:04:21Z</time>
      </trkpt>
      <trkpt lat="47.8293" lon="-1.03805">
        <ele>81.3</ele>
        <time>2020-12-20T12:04:22Z</time>
      </trkpt>
      <trkpt lat="47.8293" lon="-1.03809">
        <ele>81.3</ele>
        <time>2020-12-20T12:04:23Z</time>
      </trkpt>
      <trkpt lat="47.8293" lon="-1.03815">
        <ele>81.3</ele>
        <time>2020-12-20T12:04:24Z</time>
      </trkpt>
      <trkpt lat="47.8293" lon="-1.03821">
        <ele>81.2</ele>
        <time>2020-12-20T12:04:25Z</time>
      </trkpt>
      <trkpt lat="47.8293" lon="-1.03825">
        <ele>81.2</ele>
        <time>2020-12-20T12:04:26Z</time>
      </trkpt>
      <trkpt lat="47.8293" lon="-1.0383">
        <ele>81.2</ele>
        <time>2020-12-20T12:04:27Z</time>
      </trkpt>
      <trkpt lat="47.82929" lon="-1.03836">
        <ele>81.2</ele>
        <time>2020-12-20T12:04:28Z</time>
      </trkpt>
      <trkpt lat="47.82927" lon="-1.03842">
        <ele>81.4</ele>
        <time>2020-12-20T12:04:29Z</time>
      </trkpt>
      <trkpt lat="47.82927" lon="-1.03847">
        <ele>81.6</ele>
        <time>2020-12-20T12:04:30Z</time>
      </trkpt>
      <trkpt lat="47.82927" lon="-1.03852">
        <ele>81.7</ele>
        <time>2020-12-20T12:04:31Z</time>
      </trkpt>
      <trkpt lat="47.82928" lon="-1.03857">
        <ele>81.9</ele>
        <time>2020-12-20T12:04:32Z</time>
      </trkpt>
      <trkpt lat="47.82928" lon="-1.03863">
        <ele>82.1</ele>
        <time>2020-12-20T12:04:33Z</time>
      </trkpt>
      <trkpt lat="47.82927" lon="-1.03868">
        <ele>82.3</ele>
        <time>2020-12-20T12:04:34Z</time>
      </trkpt>
      <trkpt lat="47.82928" lon="-1.03873">
        <ele>82.4</ele>
        <time>2020-12-20T12:04:35Z</time>
      </trkpt>
      <trkpt lat="47.82928" lon="-1.03879">
        <ele>82.6</ele>
        <time>2020-12-20T12:04:36Z</time>
      </trkpt>
      <trkpt lat="47.82928" lon="-1.03884">
        <ele>82.8</ele>
        <time>2020-12-20T12:04:37Z</time>
      </trkpt>
      <trkpt lat="47.82928" lon="-1.03891">
        <ele>83</ele>
        <time>2020-12-20T12:04:38Z</time>
      </trkpt>
      <trkpt lat="47.82928" lon="-1.03898">
        <ele>83.3</ele>
        <time>2020-12-20T12:04:39Z</time>
      </trkpt>
      <trkpt lat="47.82927" lon="-1.03904">
        <ele>83.5</ele>
        <time>2020-12-20T12:04:40Z</time>
      </trkpt>
      <trkpt lat="47.82926" lon="-1.03908">
        <ele>83.6</ele>
        <time>2020-12-20T12:04:41Z</time>
      </trkpt>
      <trkpt lat="47.82925" lon="-1.03913">
        <ele>83.8</ele>
        <time>2020-12-20T12:04:42Z</time>
      </trkpt>
      <trkpt lat="47.82925" lon="-1.03918">
        <ele>83.9</ele>
        <time>2020-12-20T12:04:43Z</time>
      </trkpt>
      <trkpt lat="47.82925" lon="-1.03924">
        <ele>84.1</ele>
        <time>2020-12-20T12:04:44Z</time>
      </trkpt>
      <trkpt lat="47.82924" lon="-1.0393">
        <ele>84.3</ele>
        <time>2020-12-20T12:04:45Z</time>
      </trkpt>
      <trkpt lat="47.82924" lon="-1.03935">
        <ele>84.5</ele>
        <time>2020-12-20T12:04:46Z</time>
      </trkpt>
      <trkpt lat="47.82924" lon="-1.0394">
        <ele>84.7</ele>
        <time>2020-12-20T12:04:47Z</time>
      </trkpt>
      <trkpt lat="47.82923" lon="-1.03944">
        <ele>84.8</ele>
        <time>2020-12-20T12:04:48Z</time>
      </trkpt>
      <trkpt lat="47.82923" lon="-1.03948">
        <ele>85</ele>
        <time>2020-12-20T12:04:49Z</time>
      </trkpt>
      <trkpt lat="47.82923" lon="-1.03954">
        <ele>85.2</ele>
        <time>2020-12-20T12:04:50Z</time>
      </trkpt>
      <trkpt lat="47.82924" lon="-1.03959">
        <ele>85.3</ele>
        <time>2020-12-20T12:04:51Z</time>
      </trkpt>
      <trkpt lat="47.82923" lon="-1.03964">
        <ele>85.5</ele>
        <time>2020-12-20T12:04:52Z</time>
      </trkpt>
      <trkpt lat="47.82923" lon="-1.03969">
        <ele>85.7</ele>
        <time>2020-12-20T12:04:53Z</time>
      </trkpt>
      <trkpt lat="47.82922" lon="-1.03976">
        <ele>85.9</ele>
        <time>2020-12-20T12:04:54Z</time>
      </trkpt>
      <trkpt lat="47.82922" lon="-1.03981">
        <ele>86.1</ele>
        <time>2020-12-20T12:04:55Z</time>
      </trkpt>
      <trkpt lat="47.82922" lon="-1.03986">
        <ele>86.3</ele>
        <time>2020-12-20T12:04:56Z</time>
      </trkpt>
      <trkpt lat="47.82922" lon="-1.03991">
        <ele>86.4</ele>
        <time>2020-12-20T12:04:57Z</time>
      </trkpt>
      <trkpt lat="47.82922" lon="-1.03996">
        <ele>86.6</ele>
        <time>2020-12-20T12:04:58Z</time>
      </trkpt>
      <trkpt lat="47.82922" lon="-1.04002">
        <ele>86.8</ele>
        <time>2020-12-20T12:04:59Z</time>
      </trkpt>
      <trkpt lat="47.82921" lon="-1.04008">
        <ele>86.9</ele>
        <time>2020-12-20T12:05:00Z</time>
      </trkpt>
      <trkpt lat="47.82921" lon="-1.04015">
        <ele>87</ele>
        <time>2020-12-20T12:05:01Z</time>
      </trkpt>
      <trkpt lat="47.82921" lon="-1.04021">
        <ele>87</ele>
        <time>2020-12-20T12:05:02Z</time>
      </trkpt>
      <trkpt lat="47.82921" lon="-1.04028">
        <ele>87.1</ele>
        <time>2020-12-20T12:05:03Z</time>
      </trkpt>
      <trkpt lat="47.82921" lon="-1.04033">
        <ele>87.2</ele>
        <time>2020-12-20T12:05:04Z</time>
      </trkpt>
      <trkpt lat="47.82921" lon="-1.04038">
        <ele>87.2</ele>
        <time>2020-12-20T12:05:05Z</time>
      </trkpt>
      <trkpt lat="47.8292" lon="-1.04043">
        <ele>87.4</ele>
        <time>2020-12-20T12:05:06Z</time>
      </trkpt>
      <trkpt lat="47.8292" lon="-1.04049">
        <ele>87.4</ele>
        <time>2020-12-20T12:05:07Z</time>
      </trkpt>
      <trkpt lat="47.8292" lon="-1.04055">
        <ele>87.5</ele>
        <time>2020-12-20T12:05:08Z</time>
      </trkpt>
      <trkpt lat="47.82921" lon="-1.0406">
        <ele>87.5</ele>
        <time>2020-12-20T12:05:09Z</time>
      </trkpt>
      <trkpt lat="47.82921" lon="-1.04065">
        <ele>87.6</ele>
        <time>2020-12-20T12:05:10Z</time>
      </trkpt>
      <trkpt lat="47.82921" lon="-1.04071">
        <ele>87.6</ele>
        <time>2020-12-20T12:05:11Z</time>
      </trkpt>
      <trkpt lat="47.8292" lon="-1.04078">
        <ele>87.8</ele>
        <time>2020-12-20T12:05:12Z</time>
      </trkpt>
      <trkpt lat="47.82919" lon="-1.04085">
        <ele>87.9</ele>
        <time>2020-12-20T12:05:13Z</time>
      </trkpt>
      <trkpt lat="47.82919" lon="-1.04091">
        <ele>88</ele>
        <time>2020-12-20T12:05:14Z</time>
      </trkpt>
      <trkpt lat="47.82918" lon="-1.04099">
        <ele>88.1</ele>
        <time>2020-12-20T12:05:15Z</time>
      </trkpt>
      <trkpt lat="47.82917" lon="-1.04105">
        <ele>88.2</ele>
        <time>2020-12-20T12:05:16Z</time>
      </trkpt>
      <trkpt lat="47.82917" lon="-1.04112">
        <ele>88.3</ele>
        <time>2020-12-20T12:05:17Z</time>
      </trkpt>
      <trkpt lat="47.82917" lon="-1.04119">
        <ele>88.4</ele>
        <time>2020-12-20T12:05:18Z</time>
      </trkpt>
      <trkpt lat="47.82917" lon="-1.04123">
        <ele>88.5</ele>
        <time>2020-12-20T12:05:19Z</time>
      </trkpt>
      <trkpt lat="47.82918" lon="-1.0413">
        <ele>88.5</ele>
        <time>2020-12-20T12:05:20Z</time>
      </trkpt>
      <trkpt lat="47.82918" lon="-1.04137">
        <ele>88.6</ele>
        <time>2020-12-20T12:05:21Z</time>
      </trkpt>
      <trkpt lat="47.82916" lon="-1.04145">
        <ele>88.7</ele>
        <time>2020-12-20T12:05:22Z</time>
      </trkpt>
      <trkpt lat="47.82916" lon="-1.04151">
        <ele>88.8</ele>
        <time>2020-12-20T12:05:23Z</time>
      </trkpt>
      <trkpt lat="47.82916" lon="-1.04158">
        <ele>88.9</ele>
        <time>2020-12-20T12:05:24Z</time>
      </trkpt>
      <trkpt lat="47.82916" lon="-1.04164">
        <ele>89</ele>
        <time>2020-12-20T12:05:25Z</time>
      </trkpt>
      <trkpt lat="47.82916" lon="-1.04171">
        <ele>88.9</ele>
        <time>2020-12-20T12:05:26Z</time>
      </trkpt>
      <trkpt lat="47.82917" lon="-1.04177">
        <ele>88.7</ele>
        <time>2020-12-20T12:05:27Z</time>
      </trkpt>
      <trkpt lat="47.82918" lon="-1.04184">
        <ele>88.5</ele>
        <time>2020-12-20T12:05:28Z</time>
      </trkpt>
      <trkpt lat="47.82917" lon="-1.04191">
        <ele>88.4</ele>
        <time>2020-12-20T12:05:29Z</time>
      </trkpt>
      <trkpt lat="47.82914" lon="-1.04199">
        <ele>88.3</ele>
        <time>2020-12-20T12:05:30Z</time>
      </trkpt>
      <trkpt lat="47.82913" lon="-1.04205">
        <ele>88.1</ele>
        <time>2020-12-20T12:05:31Z</time>
      </trkpt>
      <trkpt lat="47.82911" lon="-1.04213">
        <ele>88</ele>
        <time>2020-12-20T12:05:32Z</time>
      </trkpt>
      <trkpt lat="47.8291" lon="-1.0422">
        <ele>87.9</ele>
        <time>2020-12-20T12:05:33Z</time>
      </trkpt>
      <trkpt lat="47.8291" lon="-1.04227">
        <ele>87.7</ele>
        <time>2020-12-20T12:05:34Z</time>
      </trkpt>
      <trkpt lat="47.82908" lon="-1.04233">
        <ele>87.6</ele>
        <time>2020-12-20T12:05:35Z</time>
      </trkpt>
      <trkpt lat="47.82907" lon="-1.0424">
        <ele>87.5</ele>
        <time>2020-12-20T12:05:36Z</time>
      </trkpt>
      <trkpt lat="47.82906" lon="-1.04246">
        <ele>87.3</ele>
        <time>2020-12-20T12:05:37Z</time>
      </trkpt>
      <trkpt lat="47.82905" lon="-1.04253">
        <ele>87.3</ele>
        <time>2020-12-20T12:05:38Z</time>
      </trkpt>
      <trkpt lat="47.82904" lon="-1.0426">
        <ele>87.3</ele>
        <time>2020-12-20T12:05:39Z</time>
      </trkpt>
      <trkpt lat="47.82902" lon="-1.04266">
        <ele>87.4</ele>
        <time>2020-12-20T12:05:40Z</time>
      </trkpt>
      <trkpt lat="47.82901" lon="-1.04271">
        <ele>87.4</ele>
        <time>2020-12-20T12:05:41Z</time>
      </trkpt>
      <trkpt lat="47.82901" lon="-1.04275">
        <ele>87.4</ele>
        <time>2020-12-20T12:05:42Z</time>
      </trkpt>
      <trkpt lat="47.82898" lon="-1.04281">
        <ele>87.5</ele>
        <time>2020-12-20T12:05:43Z</time>
      </trkpt>
      <trkpt lat="47.82897" lon="-1.04288">
        <ele>87.6</ele>
        <time>2020-12-20T12:05:44Z</time>
      </trkpt>
      <trkpt lat="47.82896" lon="-1.04294">
        <ele>87.6</ele>
        <time>2020-12-20T12:05:45Z</time>
      </trkpt>
      <trkpt lat="47.82895" lon="-1.04299">
        <ele>87.7</ele>
        <time>2020-12-20T12:05:46Z</time>
      </trkpt>
      <trkpt lat="47.82893" lon="-1.04306">
        <ele>87.8</ele>
        <time>2020-12-20T12:05:47Z</time>
      </trkpt>
      <trkpt lat="47.82889" lon="-1.04312">
        <ele>87.9</ele>
        <time>2020-12-20T12:05:48Z</time>
      </trkpt>
      <trkpt lat="47.82887" lon="-1.04318">
        <ele>88</ele>
        <time>2020-12-20T12:05:49Z</time>
      </trkpt>
      <trkpt lat="47.82884" lon="-1.04325">
        <ele>88.1</ele>
        <time>2020-12-20T12:05:50Z</time>
      </trkpt>
      <trkpt lat="47.82882" lon="-1.0433">
        <ele>88.2</ele>
        <time>2020-12-20T12:05:51Z</time>
      </trkpt>
      <trkpt lat="47.82882" lon="-1.04336">
        <ele>88.2</ele>
        <time>2020-12-20T12:05:52Z</time>
      </trkpt>
      <trkpt lat="47.82883" lon="-1.04344">
        <ele>88.2</ele>
        <time>2020-12-20T12:05:53Z</time>
      </trkpt>
      <trkpt lat="47.82883" lon="-1.0435">
        <ele>88.1</ele>
        <time>2020-12-20T12:05:54Z</time>
      </trkpt>
      <trkpt lat="47.82883" lon="-1.04355">
        <ele>88.1</ele>
        <time>2020-12-20T12:05:55Z</time>
      </trkpt>
      <trkpt lat="47.82882" lon="-1.0436">
        <ele>88.1</ele>
        <time>2020-12-20T12:05:56Z</time>
      </trkpt>
      <trkpt lat="47.82882" lon="-1.04365">
        <ele>88.1</ele>
        <time>2020-12-20T12:05:57Z</time>
      </trkpt>
      <trkpt lat="47.82881" lon="-1.04371">
        <ele>88.1</ele>
        <time>2020-12-20T12:05:58Z</time>
      </trkpt>
      <trkpt lat="47.8288" lon="-1.04378">
        <ele>88.1</ele>
        <time>2020-12-20T12:05:59Z</time>
      </trkpt>
      <trkpt lat="47.82879" lon="-1.04383">
        <ele>88.1</ele>
        <time>2020-12-20T12:06:00Z</time>
      </trkpt>
      <trkpt lat="47.82878" lon="-1.04389">
        <ele>88.1</ele>
        <time>2020-12-20T12:06:01Z</time>
      </trkpt>
      <trkpt lat="47.82877" lon="-1.04394">
        <ele>88.1</ele>
        <time>2020-12-20T12:06:02Z</time>
      </trkpt>
      <trkpt lat="47.82876" lon="-1.04399">
        <ele>88.1</ele>
        <time>2020-12-20T12:06:03Z</time>
      </trkpt>
      <trkpt lat="47.82875" lon="-1.04404">
        <ele>88.1</ele>
        <time>2020-12-20T12:06:04Z</time>
      </trkpt>
      <trkpt lat="47.82874" lon="-1.04409">
        <ele>88.1</ele>
        <time>2020-12-20T12:06:05Z</time>
      </trkpt>
      <trkpt lat="47.82873" lon="-1.04413">
        <ele>88.1</ele>
        <time>2020-12-20T12:06:06Z</time>
      </trkpt>
      <trkpt lat="47.82872" lon="-1.04417">
        <ele>88.1</ele>
        <time>2020-12-20T12:06:07Z</time>
      </trkpt>
      <trkpt lat="47.82871" lon="-1.04421">
        <ele>88</ele>
        <time>2020-12-20T12:06:08Z</time>
      </trkpt>
      <trkpt lat="47.82871" lon="-1.04426">
        <ele>87.9</ele>
        <time>2020-12-20T12:06:09Z</time>
      </trkpt>
      <trkpt lat="47.8287" lon="-1.0443">
        <ele>87.8</ele>
        <time>2020-12-20T12:06:10Z</time>
      </trkpt>
      <trkpt lat="47.82869" lon="-1.04434">
        <ele>87.7</ele>
        <time>2020-12-20T12:06:11Z</time>
      </trkpt>
      <trkpt lat="47.82869" lon="-1.04438">
        <ele>87.6</ele>
        <time>2020-12-20T12:06:12Z</time>
      </trkpt>
      <trkpt lat="47.82868" lon="-1.04441">
        <ele>87.6</ele>
        <time>2020-12-20T12:06:13Z</time>
      </trkpt>
      <trkpt lat="47.82867" lon="-1.04444">
        <ele>87.5</ele>
        <time>2020-12-20T12:06:14Z</time>
      </trkpt>
      <trkpt lat="47.82866" lon="-1.04448">
        <ele>87.5</ele>
        <time>2020-12-20T12:06:15Z</time>
      </trkpt>
      <trkpt lat="47.82865" lon="-1.04452">
        <ele>87.4</ele>
        <time>2020-12-20T12:06:16Z</time>
      </trkpt>
      <trkpt lat="47.82864" lon="-1.04456">
        <ele>87.3</ele>
        <time>2020-12-20T12:06:17Z</time>
      </trkpt>
      <trkpt lat="47.82864" lon="-1.04458">
        <ele>87.3</ele>
        <time>2020-12-20T12:06:18Z</time>
      </trkpt>
      <trkpt lat="47.82864" lon="-1.04461">
        <ele>87.2</ele>
        <time>2020-12-20T12:06:19Z</time>
      </trkpt>
      <trkpt lat="47.82864" lon="-1.04461">
        <ele>87.2</ele>
        <time>2020-12-20T12:07:40Z</time>
      </trkpt>
      <trkpt lat="47.82865" lon="-1.04462">
        <ele>87.2</ele>
        <time>2020-12-20T12:07:41Z</time>
      </trkpt>
      <trkpt lat="47.82867" lon="-1.04463">
        <ele>87.1</ele>
        <time>2020-12-20T12:07:42Z</time>
      </trkpt>
      <trkpt lat="47.82869" lon="-1.04463">
        <ele>87</ele>
        <time>2020-12-20T12:07:43Z</time>
      </trkpt>
      <trkpt lat="47.82871" lon="-1.04463">
        <ele>87</ele>
        <time>2020-12-20T12:07:44Z</time>
      </trkpt>
      <trkpt lat="47.82874" lon="-1.04463">
        <ele>86.9</ele>
        <time>2020-12-20T12:07:45Z</time>
      </trkpt>
      <trkpt lat="47.82878" lon="-1.04463">
        <ele>86.8</ele>
        <time>2020-12-20T12:07:46Z</time>
      </trkpt>
      <trkpt lat="47.82881" lon="-1.04463">
        <ele>86.7</ele>
        <time>2020-12-20T12:07:47Z</time>
      </trkpt>
      <trkpt lat="47.82884" lon="-1.04464">
        <ele>86.6</ele>
        <time>2020-12-20T12:07:48Z</time>
      </trkpt>
      <trkpt lat="47.82888" lon="-1.04464">
        <ele>86.6</ele>
        <time>2020-12-20T12:07:49Z</time>
      </trkpt>
      <trkpt lat="47.82893" lon="-1.04463">
        <ele>86.5</ele>
        <time>2020-12-20T12:07:50Z</time>
      </trkpt>
      <trkpt lat="47.82896" lon="-1.04463">
        <ele>86.4</ele>
        <time>2020-12-20T12:07:51Z</time>
      </trkpt>
      <trkpt lat="47.82901" lon="-1.04463">
        <ele>86.3</ele>
        <time>2020-12-20T12:07:52Z</time>
      </trkpt>
      <trkpt lat="47.82906" lon="-1.04463">
        <ele>86.1</ele>
        <time>2020-12-20T12:07:53Z</time>
      </trkpt>
      <trkpt lat="47.82913" lon="-1.04463">
        <ele>86</ele>
        <time>2020-12-20T12:07:54Z</time>
      </trkpt>
      <trkpt lat="47.82918" lon="-1.04463">
        <ele>85.8</ele>
        <time>2020-12-20T12:07:55Z</time>
      </trkpt>
      <trkpt lat="47.82925" lon="-1.04462">
        <ele>85.4</ele>
        <time>2020-12-20T12:07:56Z</time>
      </trkpt>
      <trkpt lat="47.8293" lon="-1.04461">
        <ele>85.1</ele>
        <time>2020-12-20T12:07:57Z</time>
      </trkpt>
      <trkpt lat="47.82936" lon="-1.0446">
        <ele>84.7</ele>
        <time>2020-12-20T12:07:58Z</time>
      </trkpt>
      <trkpt lat="47.82944" lon="-1.04459">
        <ele>84.2</ele>
        <time>2020-12-20T12:07:59Z</time>
      </trkpt>
      <trkpt lat="47.82951" lon="-1.04459">
        <ele>83.7</ele>
        <time>2020-12-20T12:08:00Z</time>
      </trkpt>
      <trkpt lat="47.82958" lon="-1.04458">
        <ele>83.3</ele>
        <time>2020-12-20T12:08:01Z</time>
      </trkpt>
      <trkpt lat="47.82965" lon="-1.04457">
        <ele>82.8</ele>
        <time>2020-12-20T12:08:02Z</time>
      </trkpt>
      <trkpt lat="47.82971" lon="-1.04457">
        <ele>82.4</ele>
        <time>2020-12-20T12:08:03Z</time>
      </trkpt>
      <trkpt lat="47.82978" lon="-1.04456">
        <ele>81.9</ele>
        <time>2020-12-20T12:08:04Z</time>
      </trkpt>
      <trkpt lat="47.82985" lon="-1.04456">
        <ele>81.5</ele>
        <time>2020-12-20T12:08:05Z</time>
      </trkpt>
      <trkpt lat="47.82991" lon="-1.04455">
        <ele>81.1</ele>
        <time>2020-12-20T12:08:06Z</time>
      </trkpt>
      <trkpt lat="47.82998" lon="-1.04455">
        <ele>80.6</ele>
        <time>2020-12-20T12:08:07Z</time>
      </trkpt>
      <trkpt lat="47.83004" lon="-1.04454">
        <ele>80.3</ele>
        <time>2020-12-20T12:08:08Z</time>
      </trkpt>
      <trkpt lat="47.83011" lon="-1.04453">
        <ele>80.1</ele>
        <time>2020-12-20T12:08:09Z</time>
      </trkpt>
      <trkpt lat="47.83016" lon="-1.04452">
        <ele>80</ele>
        <time>2020-12-20T12:08:10Z</time>
      </trkpt>
      <trkpt lat="47.83022" lon="-1.04452">
        <ele>79.8</ele>
        <time>2020-12-20T12:08:11Z</time>
      </trkpt>
      <trkpt lat="47.83029" lon="-1.04451">
        <ele>79.6</ele>
        <time>2020-12-20T12:08:12Z</time>
      </trkpt>
      <trkpt lat="47.83036" lon="-1.04451">
        <ele>79.4</ele>
        <time>2020-12-20T12:08:13Z</time>
      </trkpt>
      <trkpt lat="47.83043" lon="-1.0445">
        <ele>79.3</ele>
        <time>2020-12-20T12:08:14Z</time>
      </trkpt>
      <trkpt lat="47.83049" lon="-1.04449">
        <ele>79.1</ele>
        <time>2020-12-20T12:08:15Z</time>
      </trkpt>
      <trkpt lat="47.83056" lon="-1.04448">
        <ele>78.9</ele>
        <time>2020-12-20T12:08:16Z</time>
      </trkpt>
      <trkpt lat="47.83062" lon="-1.04447">
        <ele>78.8</ele>
        <time>2020-12-20T12:08:17Z</time>
      </trkpt>
      <trkpt lat="47.83068" lon="-1.04446">
        <ele>78.7</ele>
        <time>2020-12-20T12:08:18Z</time>
      </trkpt>
      <trkpt lat="47.83074" lon="-1.04445">
        <ele>78.5</ele>
        <time>2020-12-20T12:08:19Z</time>
      </trkpt>
      <trkpt lat="47.83081" lon="-1.04443">
        <ele>78.4</ele>
        <time>2020-12-20T12:08:20Z</time>
      </trkpt>
      <trkpt lat="47.83087" lon="-1.04442">
        <ele>78.2</ele>
        <time>2020-12-20T12:08:21Z</time>
      </trkpt>
      <trkpt lat="47.83093" lon="-1.0444">
        <ele>77.9</ele>
        <time>2020-12-20T12:08:22Z</time>
      </trkpt>
      <trkpt lat="47.83098" lon="-1.04438">
        <ele>77.7</ele>
        <time>2020-12-20T12:08:23Z</time>
      </trkpt>
      <trkpt lat="47.83106" lon="-1.04435">
        <ele>77.3</ele>
        <time>2020-12-20T12:08:24Z</time>
      </trkpt>
      <trkpt lat="47.83112" lon="-1.04432">
        <ele>77</ele>
        <time>2020-12-20T12:08:25Z</time>
      </trkpt>
      <trkpt lat="47.83119" lon="-1.04429">
        <ele>76.7</ele>
        <time>2020-12-20T12:08:26Z</time>
      </trkpt>
      <trkpt lat="47.83125" lon="-1.04426">
        <ele>76.4</ele>
        <time>2020-12-20T12:08:27Z</time>
      </trkpt>
      <trkpt lat="47.83131" lon="-1.04423">
        <ele>76.1</ele>
        <time>2020-12-20T12:08:28Z</time>
      </trkpt>
      <trkpt lat="47.83137" lon="-1.0442">
        <ele>75.8</ele>
        <time>2020-12-20T12:08:29Z</time>
      </trkpt>
      <trkpt lat="47.83144" lon="-1.04416">
        <ele>75.4</ele>
        <time>2020-12-20T12:08:30Z</time>
      </trkpt>
      <trkpt lat="47.83149" lon="-1.04413">
        <ele>75.1</ele>
        <time>2020-12-20T12:08:31Z</time>
      </trkpt>
      <trkpt lat="47.83155" lon="-1.04409">
        <ele>74.8</ele>
        <time>2020-12-20T12:08:32Z</time>
      </trkpt>
      <trkpt lat="47.83162" lon="-1.04405">
        <ele>74.4</ele>
        <time>2020-12-20T12:08:33Z</time>
      </trkpt>
      <trkpt lat="47.83169" lon="-1.04401">
        <ele>74.1</ele>
        <time>2020-12-20T12:08:34Z</time>
      </trkpt>
      <trkpt lat="47.83175" lon="-1.04398">
        <ele>74</ele>
        <time>2020-12-20T12:08:35Z</time>
      </trkpt>
      <trkpt lat="47.83182" lon="-1.04395">
        <ele>73.9</ele>
        <time>2020-12-20T12:08:36Z</time>
      </trkpt>
      <trkpt lat="47.83188" lon="-1.04391">
        <ele>73.8</ele>
        <time>2020-12-20T12:08:37Z</time>
      </trkpt>
      <trkpt lat="47.83195" lon="-1.04387">
        <ele>73.7</ele>
        <time>2020-12-20T12:08:38Z</time>
      </trkpt>
      <trkpt lat="47.83201" lon="-1.04384">
        <ele>73.6</ele>
        <time>2020-12-20T12:08:39Z</time>
      </trkpt>
      <trkpt lat="47.83207" lon="-1.0438">
        <ele>73.5</ele>
        <time>2020-12-20T12:08:40Z</time>
      </trkpt>
      <trkpt lat="47.83213" lon="-1.04376">
        <ele>73.4</ele>
        <time>2020-12-20T12:08:41Z</time>
      </trkpt>
      <trkpt lat="47.8322" lon="-1.04373">
        <ele>73.2</ele>
        <time>2020-12-20T12:08:42Z</time>
      </trkpt>
      <trkpt lat="47.83226" lon="-1.04369">
        <ele>73.1</ele>
        <time>2020-12-20T12:08:43Z</time>
      </trkpt>
      <trkpt lat="47.83232" lon="-1.04366">
        <ele>73</ele>
        <time>2020-12-20T12:08:44Z</time>
      </trkpt>
      <trkpt lat="47.83238" lon="-1.04362">
        <ele>72.9</ele>
        <time>2020-12-20T12:08:45Z</time>
      </trkpt>
      <trkpt lat="47.83243" lon="-1.04359">
        <ele>72.9</ele>
        <time>2020-12-20T12:08:46Z</time>
      </trkpt>
      <trkpt lat="47.83249" lon="-1.04356">
        <ele>72.8</ele>
        <time>2020-12-20T12:08:47Z</time>
      </trkpt>
      <trkpt lat="47.83256" lon="-1.04352">
        <ele>72.8</ele>
        <time>2020-12-20T12:08:48Z</time>
      </trkpt>
      <trkpt lat="47.83261" lon="-1.04349">
        <ele>72.8</ele>
        <time>2020-12-20T12:08:49Z</time>
      </trkpt>
      <trkpt lat="47.83268" lon="-1.04346">
        <ele>72.8</ele>
        <time>2020-12-20T12:08:50Z</time>
      </trkpt>
      <trkpt lat="47.83275" lon="-1.04343">
        <ele>72.8</ele>
        <time>2020-12-20T12:08:51Z</time>
      </trkpt>
      <trkpt lat="47.83281" lon="-1.0434">
        <ele>72.9</ele>
        <time>2020-12-20T12:08:52Z</time>
      </trkpt>
      <trkpt lat="47.83288" lon="-1.04336">
        <ele>73</ele>
        <time>2020-12-20T12:08:53Z</time>
      </trkpt>
      <trkpt lat="47.83294" lon="-1.04333">
        <ele>73</ele>
        <time>2020-12-20T12:08:54Z</time>
      </trkpt>
      <trkpt lat="47.83301" lon="-1.0433">
        <ele>73.1</ele>
        <time>2020-12-20T12:08:55Z</time>
      </trkpt>
      <trkpt lat="47.83306" lon="-1.04327">
        <ele>73.3</ele>
        <time>2020-12-20T12:08:56Z</time>
      </trkpt>
      <trkpt lat="47.83313" lon="-1.04323">
        <ele>73.5</ele>
        <time>2020-12-20T12:08:57Z</time>
      </trkpt>
      <trkpt lat="47.83318" lon="-1.0432">
        <ele>73.6</ele>
        <time>2020-12-20T12:08:58Z</time>
      </trkpt>
      <trkpt lat="47.83326" lon="-1.04316">
        <ele>73.8</ele>
        <time>2020-12-20T12:08:59Z</time>
      </trkpt>
      <trkpt lat="47.8333" lon="-1.04312">
        <ele>74</ele>
        <time>2020-12-20T12:09:00Z</time>
      </trkpt>
      <trkpt lat="47.83338" lon="-1.04308">
        <ele>74</ele>
        <time>2020-12-20T12:09:01Z</time>
      </trkpt>
      <trkpt lat="47.83344" lon="-1.04305">
        <ele>74</ele>
        <time>2020-12-20T12:09:02Z</time>
      </trkpt>
      <trkpt lat="47.8335" lon="-1.04301">
        <ele>74</ele>
        <time>2020-12-20T12:09:03Z</time>
      </trkpt>
      <trkpt lat="47.83359" lon="-1.04297">
        <ele>73.8</ele>
        <time>2020-12-20T12:09:04Z</time>
      </trkpt>
      <trkpt lat="47.83365" lon="-1.04294">
        <ele>73.7</ele>
        <time>2020-12-20T12:09:05Z</time>
      </trkpt>
      <trkpt lat="47.83371" lon="-1.04291">
        <ele>73.7</ele>
        <time>2020-12-20T12:09:06Z</time>
      </trkpt>
      <trkpt lat="47.83377" lon="-1.04288">
        <ele>73.6</ele>
        <time>2020-12-20T12:09:07Z</time>
      </trkpt>
      <trkpt lat="47.83384" lon="-1.04286">
        <ele>73.4</ele>
        <time>2020-12-20T12:09:08Z</time>
      </trkpt>
      <trkpt lat="47.83391" lon="-1.04283">
        <ele>73.3</ele>
        <time>2020-12-20T12:09:09Z</time>
      </trkpt>
      <trkpt lat="47.83398" lon="-1.04281">
        <ele>73.2</ele>
        <time>2020-12-20T12:09:10Z</time>
      </trkpt>
      <trkpt lat="47.83405" lon="-1.0428">
        <ele>73</ele>
        <time>2020-12-20T12:09:11Z</time>
      </trkpt>
      <trkpt lat="47.83413" lon="-1.04278">
        <ele>72.8</ele>
        <time>2020-12-20T12:09:12Z</time>
      </trkpt>
      <trkpt lat="47.83419" lon="-1.04278">
        <ele>72.6</ele>
        <time>2020-12-20T12:09:13Z</time>
      </trkpt>
      <trkpt lat="47.83426" lon="-1.04277">
        <ele>72.4</ele>
        <time>2020-12-20T12:09:14Z</time>
      </trkpt>
      <trkpt lat="47.83435" lon="-1.04277">
        <ele>72</ele>
        <time>2020-12-20T12:09:15Z</time>
      </trkpt>
      <trkpt lat="47.83441" lon="-1.04277">
        <ele>71.8</ele>
        <time>2020-12-20T12:09:16Z</time>
      </trkpt>
      <trkpt lat="47.8345" lon="-1.04277">
        <ele>71.5</ele>
        <time>2020-12-20T12:09:17Z</time>
      </trkpt>
      <trkpt lat="47.83457" lon="-1.04277">
        <ele>71.2</ele>
        <time>2020-12-20T12:09:18Z</time>
      </trkpt>
      <trkpt lat="47.83463" lon="-1.04277">
        <ele>71</ele>
        <time>2020-12-20T12:09:19Z</time>
      </trkpt>
      <trkpt lat="47.8347" lon="-1.04277">
        <ele>70.8</ele>
        <time>2020-12-20T12:09:20Z</time>
      </trkpt>
      <trkpt lat="47.83478" lon="-1.04277">
        <ele>70.5</ele>
        <time>2020-12-20T12:09:21Z</time>
      </trkpt>
      <trkpt lat="47.83484" lon="-1.04277">
        <ele>70.3</ele>
        <time>2020-12-20T12:09:22Z</time>
      </trkpt>
      <trkpt lat="47.83491" lon="-1.04277">
        <ele>70</ele>
        <time>2020-12-20T12:09:23Z</time>
      </trkpt>
      <trkpt lat="47.83497" lon="-1.04278">
        <ele>69.8</ele>
        <time>2020-12-20T12:09:24Z</time>
      </trkpt>
      <trkpt lat="47.83504" lon="-1.04278">
        <ele>69.7</ele>
        <time>2020-12-20T12:09:25Z</time>
      </trkpt>
      <trkpt lat="47.83512" lon="-1.04278">
        <ele>69.7</ele>
        <time>2020-12-20T12:09:26Z</time>
      </trkpt>
      <trkpt lat="47.83518" lon="-1.04278">
        <ele>69.7</ele>
        <time>2020-12-20T12:09:27Z</time>
      </trkpt>
      <trkpt lat="47.83525" lon="-1.04278">
        <ele>69.8</ele>
        <time>2020-12-20T12:09:28Z</time>
      </trkpt>
      <trkpt lat="47.8353" lon="-1.04278">
        <ele>69.8</ele>
        <time>2020-12-20T12:09:29Z</time>
      </trkpt>
      <trkpt lat="47.83537" lon="-1.04278">
        <ele>69.8</ele>
        <time>2020-12-20T12:09:30Z</time>
      </trkpt>
      <trkpt lat="47.8355" lon="-1.04278">
        <ele>69.9</ele>
        <time>2020-12-20T12:09:32Z</time>
      </trkpt>
      <trkpt lat="47.83557" lon="-1.04278">
        <ele>69.9</ele>
        <time>2020-12-20T12:09:33Z</time>
      </trkpt>
      <trkpt lat="47.83564" lon="-1.04278">
        <ele>69.9</ele>
        <time>2020-12-20T12:09:34Z</time>
      </trkpt>
      <trkpt lat="47.8357" lon="-1.04278">
        <ele>69.9</ele>
        <time>2020-12-20T12:09:35Z</time>
      </trkpt>
      <trkpt lat="47.83576" lon="-1.04279">
        <ele>70</ele>
        <time>2020-12-20T12:09:36Z</time>
      </trkpt>
      <trkpt lat="47.83582" lon="-1.04279">
        <ele>70</ele>
        <time>2020-12-20T12:09:37Z</time>
      </trkpt>
      <trkpt lat="47.83589" lon="-1.04279">
        <ele>70</ele>
        <time>2020-12-20T12:09:38Z</time>
      </trkpt>
      <trkpt lat="47.83595" lon="-1.04279">
        <ele>70</ele>
        <time>2020-12-20T12:09:39Z</time>
      </trkpt>
      <trkpt lat="47.83601" lon="-1.04279">
        <ele>70</ele>
        <time>2020-12-20T12:09:40Z</time>
      </trkpt>
      <trkpt lat="47.83607" lon="-1.0428">
        <ele>70</ele>
        <time>2020-12-20T12:09:41Z</time>
      </trkpt>
      <trkpt lat="47.83613" lon="-1.0428">
        <ele>70</ele>
        <time>2020-12-20T12:09:42Z</time>
      </trkpt>
      <trkpt lat="47.83619" lon="-1.04282">
        <ele>69.9</ele>
        <time>2020-12-20T12:09:43Z</time>
      </trkpt>
      <trkpt lat="47.83625" lon="-1.04283">
        <ele>69.9</ele>
        <time>2020-12-20T12:09:44Z</time>
      </trkpt>
      <trkpt lat="47.83631" lon="-1.04285">
        <ele>69.9</ele>
        <time>2020-12-20T12:09:45Z</time>
      </trkpt>
      <trkpt lat="47.83637" lon="-1.04287">
        <ele>69.8</ele>
        <time>2020-12-20T12:09:46Z</time>
      </trkpt>
      <trkpt lat="47.83642" lon="-1.04289">
        <ele>69.7</ele>
        <time>2020-12-20T12:09:47Z</time>
      </trkpt>
      <trkpt lat="47.83647" lon="-1.04292">
        <ele>69.6</ele>
        <time>2020-12-20T12:09:48Z</time>
      </trkpt>
      <trkpt lat="47.83652" lon="-1.04295">
        <ele>69.5</ele>
        <time>2020-12-20T12:09:49Z</time>
      </trkpt>
      <trkpt lat="47.83658" lon="-1.04298">
        <ele>69.3</ele>
        <time>2020-12-20T12:09:50Z</time>
      </trkpt>
      <trkpt lat="47.83663" lon="-1.04301">
        <ele>69.2</ele>
        <time>2020-12-20T12:09:51Z</time>
      </trkpt>
      <trkpt lat="47.83668" lon="-1.04305">
        <ele>69.1</ele>
        <time>2020-12-20T12:09:52Z</time>
      </trkpt>
      <trkpt lat="47.83673" lon="-1.04308">
        <ele>69.1</ele>
        <time>2020-12-20T12:09:53Z</time>
      </trkpt>
      <trkpt lat="47.83678" lon="-1.04311">
        <ele>69.1</ele>
        <time>2020-12-20T12:09:54Z</time>
      </trkpt>
      <trkpt lat="47.83682" lon="-1.04315">
        <ele>69</ele>
        <time>2020-12-20T12:09:55Z</time>
      </trkpt>
      <trkpt lat="47.83687" lon="-1.04318">
        <ele>69</ele>
        <time>2020-12-20T12:09:56Z</time>
      </trkpt>
      <trkpt lat="47.83692" lon="-1.04321">
        <ele>69.1</ele>
        <time>2020-12-20T12:09:57Z</time>
      </trkpt>
      <trkpt lat="47.83697" lon="-1.04324">
        <ele>69.1</ele>
        <time>2020-12-20T12:09:58Z</time>
      </trkpt>
      <trkpt lat="47.83701" lon="-1.04328">
        <ele>69</ele>
        <time>2020-12-20T12:09:59Z</time>
      </trkpt>
      <trkpt lat="47.83706" lon="-1.04331">
        <ele>69</ele>
        <time>2020-12-20T12:10:00Z</time>
      </trkpt>
      <trkpt lat="47.83711" lon="-1.04334">
        <ele>69.1</ele>
        <time>2020-12-20T12:10:01Z</time>
      </trkpt>
      <trkpt lat="47.83715" lon="-1.04337">
        <ele>69.1</ele>
        <time>2020-12-20T12:10:02Z</time>
      </trkpt>
      <trkpt lat="47.8372" lon="-1.0434">
        <ele>69.1</ele>
        <time>2020-12-20T12:10:03Z</time>
      </trkpt>
      <trkpt lat="47.83724" lon="-1.04343">
        <ele>69.1</ele>
        <time>2020-12-20T12:10:04Z</time>
      </trkpt>
      <trkpt lat="47.83729" lon="-1.04346">
        <ele>69.2</ele>
        <time>2020-12-20T12:10:05Z</time>
      </trkpt>
      <trkpt lat="47.83734" lon="-1.04349">
        <ele>69.2</ele>
        <time>2020-12-20T12:10:06Z</time>
      </trkpt>
      <trkpt lat="47.83739" lon="-1.04353">
        <ele>69.1</ele>
        <time>2020-12-20T12:10:07Z</time>
      </trkpt>
      <trkpt lat="47.83744" lon="-1.04356">
        <ele>69.1</ele>
        <time>2020-12-20T12:10:08Z</time>
      </trkpt>
      <trkpt lat="47.83748" lon="-1.04359">
        <ele>69.1</ele>
        <time>2020-12-20T12:10:09Z</time>
      </trkpt>
      <trkpt lat="47.83754" lon="-1.04362">
        <ele>68.9</ele>
        <time>2020-12-20T12:10:10Z</time>
      </trkpt>
      <trkpt lat="47.83761" lon="-1.04365">
        <ele>68.8</ele>
        <time>2020-12-20T12:10:11Z</time>
      </trkpt>
      <trkpt lat="47.83765" lon="-1.04367">
        <ele>68.6</ele>
        <time>2020-12-20T12:10:12Z</time>
      </trkpt>
      <trkpt lat="47.83772" lon="-1.04369">
        <ele>68.5</ele>
        <time>2020-12-20T12:10:13Z</time>
      </trkpt>
      <trkpt lat="47.83778" lon="-1.04371">
        <ele>68.3</ele>
        <time>2020-12-20T12:10:14Z</time>
      </trkpt>
      <trkpt lat="47.83785" lon="-1.04373">
        <ele>68.2</ele>
        <time>2020-12-20T12:10:15Z</time>
      </trkpt>
      <trkpt lat="47.83791" lon="-1.04374">
        <ele>68.1</ele>
        <time>2020-12-20T12:10:16Z</time>
      </trkpt>
      <trkpt lat="47.83798" lon="-1.04375">
        <ele>67.9</ele>
        <time>2020-12-20T12:10:17Z</time>
      </trkpt>
      <trkpt lat="47.83804" lon="-1.04376">
        <ele>67.8</ele>
        <time>2020-12-20T12:10:18Z</time>
      </trkpt>
      <trkpt lat="47.83811" lon="-1.04376">
        <ele>67.7</ele>
        <time>2020-12-20T12:10:19Z</time>
      </trkpt>
      <trkpt lat="47.83817" lon="-1.04377">
        <ele>67.6</ele>
        <time>2020-12-20T12:10:20Z</time>
      </trkpt>
      <trkpt lat="47.83823" lon="-1.04377">
        <ele>67.5</ele>
        <time>2020-12-20T12:10:21Z</time>
      </trkpt>
      <trkpt lat="47.83829" lon="-1.04378">
        <ele>67.4</ele>
        <time>2020-12-20T12:10:22Z</time>
      </trkpt>
      <trkpt lat="47.83835" lon="-1.04378">
        <ele>67.3</ele>
        <time>2020-12-20T12:10:23Z</time>
      </trkpt>
      <trkpt lat="47.83842" lon="-1.04377">
        <ele>67.3</ele>
        <time>2020-12-20T12:10:24Z</time>
      </trkpt>
      <trkpt lat="47.83846" lon="-1.04377">
        <ele>67.2</ele>
        <time>2020-12-20T12:10:25Z</time>
      </trkpt>
      <trkpt lat="47.83852" lon="-1.04377">
        <ele>67.2</ele>
        <time>2020-12-20T12:10:26Z</time>
      </trkpt>
      <trkpt lat="47.83859" lon="-1.04376">
        <ele>67.1</ele>
        <time>2020-12-20T12:10:27Z</time>
      </trkpt>
      <trkpt lat="47.83864" lon="-1.04376">
        <ele>67.1</ele>
        <time>2020-12-20T12:10:28Z</time>
      </trkpt>
      <trkpt lat="47.8387" lon="-1.04376">
        <ele>67</ele>
        <time>2020-12-20T12:10:29Z</time>
      </trkpt>
      <trkpt lat="47.83875" lon="-1.04377">
        <ele>66.9</ele>
        <time>2020-12-20T12:10:30Z</time>
      </trkpt>
      <trkpt lat="47.83882" lon="-1.04378">
        <ele>66.8</ele>
        <time>2020-12-20T12:10:31Z</time>
      </trkpt>
      <trkpt lat="47.83887" lon="-1.04379">
        <ele>66.7</ele>
        <time>2020-12-20T12:10:32Z</time>
      </trkpt>
      <trkpt lat="47.83893" lon="-1.04379">
        <ele>66.6</ele>
        <time>2020-12-20T12:10:33Z</time>
      </trkpt>
      <trkpt lat="47.83898" lon="-1.04379">
        <ele>66.6</ele>
        <time>2020-12-20T12:10:34Z</time>
      </trkpt>
      <trkpt lat="47.83905" lon="-1.0438">
        <ele>66.4</ele>
        <time>2020-12-20T12:10:35Z</time>
      </trkpt>
      <trkpt lat="47.8391" lon="-1.0438">
        <ele>66.4</ele>
        <time>2020-12-20T12:10:36Z</time>
      </trkpt>
      <trkpt lat="47.83915" lon="-1.0438">
        <ele>66.3</ele>
        <time>2020-12-20T12:10:37Z</time>
      </trkpt>
      <trkpt lat="47.83921" lon="-1.04381">
        <ele>66.2</ele>
        <time>2020-12-20T12:10:38Z</time>
      </trkpt>
      <trkpt lat="47.83926" lon="-1.04381">
        <ele>66.2</ele>
        <time>2020-12-20T12:10:39Z</time>
      </trkpt>
      <trkpt lat="47.83932" lon="-1.04381">
        <ele>66.1</ele>
        <time>2020-12-20T12:10:40Z</time>
      </trkpt>
      <trkpt lat="47.83938" lon="-1.04382">
        <ele>66</ele>
        <time>2020-12-20T12:10:41Z</time>
      </trkpt>
      <trkpt lat="47.83943" lon="-1.04382">
        <ele>65.9</ele>
        <time>2020-12-20T12:10:42Z</time>
      </trkpt>
      <trkpt lat="47.83949" lon="-1.04382">
        <ele>65.9</ele>
        <time>2020-12-20T12:10:43Z</time>
      </trkpt>
      <trkpt lat="47.83955" lon="-1.04382">
        <ele>65.8</ele>
        <time>2020-12-20T12:10:44Z</time>
      </trkpt>
      <trkpt lat="47.8396" lon="-1.04383">
        <ele>65.7</ele>
        <time>2020-12-20T12:10:45Z</time>
      </trkpt>
      <trkpt lat="47.83966" lon="-1.04383">
        <ele>65.6</ele>
        <time>2020-12-20T12:10:46Z</time>
      </trkpt>
      <trkpt lat="47.83973" lon="-1.04383">
        <ele>65.5</ele>
        <time>2020-12-20T12:10:47Z</time>
      </trkpt>
      <trkpt lat="47.83978" lon="-1.04384">
        <ele>65.4</ele>
        <time>2020-12-20T12:10:48Z</time>
      </trkpt>
      <trkpt lat="47.83984" lon="-1.04384">
        <ele>65.4</ele>
        <time>2020-12-20T12:10:49Z</time>
      </trkpt>
      <trkpt lat="47.83989" lon="-1.04385">
        <ele>65.3</ele>
        <time>2020-12-20T12:10:50Z</time>
      </trkpt>
      <trkpt lat="47.83993" lon="-1.04385">
        <ele>65.2</ele>
        <time>2020-12-20T12:10:51Z</time>
      </trkpt>
      <trkpt lat="47.83999" lon="-1.04385">
        <ele>65.2</ele>
        <time>2020-12-20T12:10:52Z</time>
      </trkpt>
      <trkpt lat="47.84004" lon="-1.04385">
        <ele>65.2</ele>
        <time>2020-12-20T12:10:53Z</time>
      </trkpt>
      <trkpt lat="47.8401" lon="-1.04386">
        <ele>65.3</ele>
        <time>2020-12-20T12:10:54Z</time>
      </trkpt>
      <trkpt lat="47.84016" lon="-1.04386">
        <ele>65.4</ele>
        <time>2020-12-20T12:10:55Z</time>
      </trkpt>
      <trkpt lat="47.8402" lon="-1.04386">
        <ele>65.4</ele>
        <time>2020-12-20T12:10:56Z</time>
      </trkpt>
      <trkpt lat="47.84026" lon="-1.04387">
        <ele>65.5</ele>
        <time>2020-12-20T12:10:57Z</time>
      </trkpt>
      <trkpt lat="47.84031" lon="-1.04387">
        <ele>65.6</ele>
        <time>2020-12-20T12:10:58Z</time>
      </trkpt>
      <trkpt lat="47.84036" lon="-1.04387">
        <ele>65.7</ele>
        <time>2020-12-20T12:10:59Z</time>
      </trkpt>
      <trkpt lat="47.84042" lon="-1.04388">
        <ele>65.7</ele>
        <time>2020-12-20T12:11:00Z</time>
      </trkpt>
      <trkpt lat="47.84047" lon="-1.04388">
        <ele>65.8</ele>
        <time>2020-12-20T12:11:01Z</time>
      </trkpt>
      <trkpt lat="47.84053" lon="-1.04388">
        <ele>65.9</ele>
        <time>2020-12-20T12:11:02Z</time>
      </trkpt>
      <trkpt lat="47.84058" lon="-1.04388">
        <ele>66</ele>
        <time>2020-12-20T12:11:03Z</time>
      </trkpt>
      <trkpt lat="47.84063" lon="-1.04389">
        <ele>66</ele>
        <time>2020-12-20T12:11:04Z</time>
      </trkpt>
      <trkpt lat="47.84068" lon="-1.04389">
        <ele>66.1</ele>
        <time>2020-12-20T12:11:05Z</time>
      </trkpt>
      <trkpt lat="47.84073" lon="-1.0439">
        <ele>66.1</ele>
        <time>2020-12-20T12:11:06Z</time>
      </trkpt>
      <trkpt lat="47.84078" lon="-1.0439">
        <ele>66.2</ele>
        <time>2020-12-20T12:11:07Z</time>
      </trkpt>
      <trkpt lat="47.84083" lon="-1.04391">
        <ele>66.2</ele>
        <time>2020-12-20T12:11:08Z</time>
      </trkpt>
      <trkpt lat="47.84088" lon="-1.04391">
        <ele>66.3</ele>
        <time>2020-12-20T12:11:09Z</time>
      </trkpt>
      <trkpt lat="47.84093" lon="-1.04391">
        <ele>66.4</ele>
        <time>2020-12-20T12:11:10Z</time>
      </trkpt>
      <trkpt lat="47.84098" lon="-1.04391">
        <ele>66.5</ele>
        <time>2020-12-20T12:11:11Z</time>
      </trkpt>
      <trkpt lat="47.84103" lon="-1.04391">
        <ele>66.6</ele>
        <time>2020-12-20T12:11:12Z</time>
      </trkpt>
      <trkpt lat="47.84109" lon="-1.04391">
        <ele>66.7</ele>
        <time>2020-12-20T12:11:13Z</time>
      </trkpt>
      <trkpt lat="47.84114" lon="-1.04391">
        <ele>66.8</ele>
        <time>2020-12-20T12:11:14Z</time>
      </trkpt>
      <trkpt lat="47.84119" lon="-1.0439">
        <ele>67</ele>
        <time>2020-12-20T12:11:15Z</time>
      </trkpt>
      <trkpt lat="47.84125" lon="-1.04389">
        <ele>67.2</ele>
        <time>2020-12-20T12:11:16Z</time>
      </trkpt>
      <trkpt lat="47.8413" lon="-1.04388">
        <ele>67.3</ele>
        <time>2020-12-20T12:11:17Z</time>
      </trkpt>
      <trkpt lat="47.84135" lon="-1.04387">
        <ele>67.5</ele>
        <time>2020-12-20T12:11:18Z</time>
      </trkpt>
      <trkpt lat="47.8414" lon="-1.04386">
        <ele>67.7</ele>
        <time>2020-12-20T12:11:19Z</time>
      </trkpt>
      <trkpt lat="47.84145" lon="-1.04385">
        <ele>67.8</ele>
        <time>2020-12-20T12:11:20Z</time>
      </trkpt>
      <trkpt lat="47.8415" lon="-1.04383">
        <ele>68.1</ele>
        <time>2020-12-20T12:11:21Z</time>
      </trkpt>
      <trkpt lat="47.84157" lon="-1.04381">
        <ele>68.4</ele>
        <time>2020-12-20T12:11:22Z</time>
      </trkpt>
      <trkpt lat="47.84162" lon="-1.0438">
        <ele>68.5</ele>
        <time>2020-12-20T12:11:23Z</time>
      </trkpt>
      <trkpt lat="47.84168" lon="-1.04379">
        <ele>68.7</ele>
        <time>2020-12-20T12:11:24Z</time>
      </trkpt>
      <trkpt lat="47.84174" lon="-1.04377">
        <ele>68.8</ele>
        <time>2020-12-20T12:11:25Z</time>
      </trkpt>
      <trkpt lat="47.84179" lon="-1.04375">
        <ele>68.9</ele>
        <time>2020-12-20T12:11:26Z</time>
      </trkpt>
      <trkpt lat="47.84185" lon="-1.04374">
        <ele>68.9</ele>
        <time>2020-12-20T12:11:27Z</time>
      </trkpt>
      <trkpt lat="47.8419" lon="-1.04372">
        <ele>68.9</ele>
        <time>2020-12-20T12:11:28Z</time>
      </trkpt>
      <trkpt lat="47.84196" lon="-1.04371">
        <ele>68.9</ele>
        <time>2020-12-20T12:11:29Z</time>
      </trkpt>
      <trkpt lat="47.842" lon="-1.04371">
        <ele>68.9</ele>
        <time>2020-12-20T12:11:30Z</time>
      </trkpt>
      <trkpt lat="47.84206" lon="-1.0437">
        <ele>68.9</ele>
        <time>2020-12-20T12:11:31Z</time>
      </trkpt>
      <trkpt lat="47.84212" lon="-1.04368">
        <ele>69</ele>
        <time>2020-12-20T12:11:32Z</time>
      </trkpt>
      <trkpt lat="47.84218" lon="-1.04366">
        <ele>69</ele>
        <time>2020-12-20T12:11:33Z</time>
      </trkpt>
      <trkpt lat="47.84224" lon="-1.04363">
        <ele>69.2</ele>
        <time>2020-12-20T12:11:34Z</time>
      </trkpt>
      <trkpt lat="47.84229" lon="-1.04361">
        <ele>69.3</ele>
        <time>2020-12-20T12:11:35Z</time>
      </trkpt>
      <trkpt lat="47.84235" lon="-1.04359">
        <ele>69.3</ele>
        <time>2020-12-20T12:11:36Z</time>
      </trkpt>
      <trkpt lat="47.8424" lon="-1.04358">
        <ele>69.3</ele>
        <time>2020-12-20T12:11:37Z</time>
      </trkpt>
      <trkpt lat="47.84245" lon="-1.04357">
        <ele>69.4</ele>
        <time>2020-12-20T12:11:38Z</time>
      </trkpt>
      <trkpt lat="47.8425" lon="-1.04356">
        <ele>69.4</ele>
        <time>2020-12-20T12:11:39Z</time>
      </trkpt>
      <trkpt lat="47.84255" lon="-1.04355">
        <ele>69.2</ele>
        <time>2020-12-20T12:11:40Z</time>
      </trkpt>
      <trkpt lat="47.8426" lon="-1.04354">
        <ele>68.9</ele>
        <time>2020-12-20T12:11:41Z</time>
      </trkpt>
      <trkpt lat="47.84265" lon="-1.04352">
        <ele>68.8</ele>
        <time>2020-12-20T12:11:42Z</time>
      </trkpt>
      <trkpt lat="47.84269" lon="-1.04351">
        <ele>68.6</ele>
        <time>2020-12-20T12:11:43Z</time>
      </trkpt>
      <trkpt lat="47.84274" lon="-1.04349">
        <ele>68.5</ele>
        <time>2020-12-20T12:11:44Z</time>
      </trkpt>
      <trkpt lat="47.84278" lon="-1.04347">
        <ele>68.4</ele>
        <time>2020-12-20T12:11:45Z</time>
      </trkpt>
      <trkpt lat="47.84283" lon="-1.04347">
        <ele>68.1</ele>
        <time>2020-12-20T12:11:46Z</time>
      </trkpt>
      <trkpt lat="47.84288" lon="-1.04347">
        <ele>67.8</ele>
        <time>2020-12-20T12:11:47Z</time>
      </trkpt>
      <trkpt lat="47.84293" lon="-1.04348">
        <ele>67.5</ele>
        <time>2020-12-20T12:11:48Z</time>
      </trkpt>
      <trkpt lat="47.84298" lon="-1.04349">
        <ele>67.1</ele>
        <time>2020-12-20T12:11:49Z</time>
      </trkpt>
      <trkpt lat="47.84303" lon="-1.04352">
        <ele>66.6</ele>
        <time>2020-12-20T12:11:50Z</time>
      </trkpt>
      <trkpt lat="47.84308" lon="-1.04357">
        <ele>66</ele>
        <time>2020-12-20T12:11:51Z</time>
      </trkpt>
      <trkpt lat="47.84313" lon="-1.04363">
        <ele>65.4</ele>
        <time>2020-12-20T12:11:52Z</time>
      </trkpt>
      <trkpt lat="47.84317" lon="-1.0437">
        <ele>64.7</ele>
        <time>2020-12-20T12:11:53Z</time>
      </trkpt>
      <trkpt lat="47.84322" lon="-1.04377">
        <ele>64</ele>
        <time>2020-12-20T12:11:54Z</time>
      </trkpt>
      <trkpt lat="47.84326" lon="-1.04385">
        <ele>63.3</ele>
        <time>2020-12-20T12:11:55Z</time>
      </trkpt>
      <trkpt lat="47.84329" lon="-1.04392">
        <ele>62.7</ele>
        <time>2020-12-20T12:11:56Z</time>
      </trkpt>
      <trkpt lat="47.84333" lon="-1.04403">
        <ele>61.8</ele>
        <time>2020-12-20T12:11:57Z</time>
      </trkpt>
      <trkpt lat="47.84336" lon="-1.0441">
        <ele>61.2</ele>
        <time>2020-12-20T12:11:58Z</time>
      </trkpt>
      <trkpt lat="47.8434" lon="-1.04419">
        <ele>60.5</ele>
        <time>2020-12-20T12:11:59Z</time>
      </trkpt>
      <trkpt lat="47.84343" lon="-1.04428">
        <ele>60</ele>
        <time>2020-12-20T12:12:00Z</time>
      </trkpt>
      <trkpt lat="47.84348" lon="-1.0444">
        <ele>59.4</ele>
        <time>2020-12-20T12:12:01Z</time>
      </trkpt>
      <trkpt lat="47.84351" lon="-1.04447">
        <ele>59</ele>
        <time>2020-12-20T12:12:02Z</time>
      </trkpt>
      <trkpt lat="47.84356" lon="-1.04459">
        <ele>58.4</ele>
        <time>2020-12-20T12:12:03Z</time>
      </trkpt>
      <trkpt lat="47.8436" lon="-1.04468">
        <ele>57.9</ele>
        <time>2020-12-20T12:12:04Z</time>
      </trkpt>
      <trkpt lat="47.84363" lon="-1.04477">
        <ele>57.6</ele>
        <time>2020-12-20T12:12:05Z</time>
      </trkpt>
      <trkpt lat="47.84368" lon="-1.04489">
        <ele>57</ele>
        <time>2020-12-20T12:12:06Z</time>
      </trkpt>
      <trkpt lat="47.84372" lon="-1.04499">
        <ele>56.6</ele>
        <time>2020-12-20T12:12:07Z</time>
      </trkpt>
      <trkpt lat="47.84375" lon="-1.04507">
        <ele>56.6</ele>
        <time>2020-12-20T12:12:08Z</time>
      </trkpt>
      <trkpt lat="47.84379" lon="-1.04517">
        <ele>56.6</ele>
        <time>2020-12-20T12:12:09Z</time>
      </trkpt>
      <trkpt lat="47.84383" lon="-1.04529">
        <ele>56.7</ele>
        <time>2020-12-20T12:12:10Z</time>
      </trkpt>
      <trkpt lat="47.84386" lon="-1.04537">
        <ele>56.8</ele>
        <time>2020-12-20T12:12:11Z</time>
      </trkpt>
      <trkpt lat="47.84391" lon="-1.04549">
        <ele>57</ele>
        <time>2020-12-20T12:12:12Z</time>
      </trkpt>
      <trkpt lat="47.84394" lon="-1.04558">
        <ele>57.1</ele>
        <time>2020-12-20T12:12:13Z</time>
      </trkpt>
      <trkpt lat="47.84397" lon="-1.04568">
        <ele>57.4</ele>
        <time>2020-12-20T12:12:14Z</time>
      </trkpt>
      <trkpt lat="47.84401" lon="-1.0458">
        <ele>57.7</ele>
        <time>2020-12-20T12:12:15Z</time>
      </trkpt>
      <trkpt lat="47.84405" lon="-1.04589">
        <ele>57.9</ele>
        <time>2020-12-20T12:12:16Z</time>
      </trkpt>
      <trkpt lat="47.84408" lon="-1.04596">
        <ele>57.9</ele>
        <time>2020-12-20T12:12:17Z</time>
      </trkpt>
      <trkpt lat="47.84411" lon="-1.04604">
        <ele>57.9</ele>
        <time>2020-12-20T12:12:18Z</time>
      </trkpt>
      <trkpt lat="47.84415" lon="-1.04615">
        <ele>58</ele>
        <time>2020-12-20T12:12:19Z</time>
      </trkpt>
      <trkpt lat="47.84419" lon="-1.04623">
        <ele>58</ele>
        <time>2020-12-20T12:12:20Z</time>
      </trkpt>
      <trkpt lat="47.84422" lon="-1.0463">
        <ele>58</ele>
        <time>2020-12-20T12:12:21Z</time>
      </trkpt>
      <trkpt lat="47.84425" lon="-1.04638">
        <ele>58</ele>
        <time>2020-12-20T12:12:22Z</time>
      </trkpt>
      <trkpt lat="47.84428" lon="-1.04647">
        <ele>58.1</ele>
        <time>2020-12-20T12:12:23Z</time>
      </trkpt>
      <trkpt lat="47.84431" lon="-1.04655">
        <ele>58.1</ele>
        <time>2020-12-20T12:12:24Z</time>
      </trkpt>
      <trkpt lat="47.84435" lon="-1.04665">
        <ele>58.2</ele>
        <time>2020-12-20T12:12:25Z</time>
      </trkpt>
      <trkpt lat="47.84438" lon="-1.04671">
        <ele>58.3</ele>
        <time>2020-12-20T12:12:26Z</time>
      </trkpt>
      <trkpt lat="47.84441" lon="-1.04678">
        <ele>58.5</ele>
        <time>2020-12-20T12:12:27Z</time>
      </trkpt>
      <trkpt lat="47.84444" lon="-1.04686">
        <ele>58.7</ele>
        <time>2020-12-20T12:12:28Z</time>
      </trkpt>
      <trkpt lat="47.84446" lon="-1.04691">
        <ele>58.8</ele>
        <time>2020-12-20T12:12:29Z</time>
      </trkpt>
      <trkpt lat="47.84449" lon="-1.04697">
        <ele>59</ele>
        <time>2020-12-20T12:12:30Z</time>
      </trkpt>
      <trkpt lat="47.84451" lon="-1.04704">
        <ele>59.1</ele>
        <time>2020-12-20T12:12:31Z</time>
      </trkpt>
      <trkpt lat="47.84454" lon="-1.04711">
        <ele>59.3</ele>
        <time>2020-12-20T12:12:32Z</time>
      </trkpt>
      <trkpt lat="47.84456" lon="-1.04715">
        <ele>59.4</ele>
        <time>2020-12-20T12:12:33Z</time>
      </trkpt>
      <trkpt lat="47.84459" lon="-1.04721">
        <ele>59.5</ele>
        <time>2020-12-20T12:12:34Z</time>
      </trkpt>
      <trkpt lat="47.84461" lon="-1.04725">
        <ele>59.6</ele>
        <time>2020-12-20T12:12:35Z</time>
      </trkpt>
      <trkpt lat="47.84463" lon="-1.0473">
        <ele>59.7</ele>
        <time>2020-12-20T12:12:36Z</time>
      </trkpt>
      <trkpt lat="47.84465" lon="-1.04736">
        <ele>59.8</ele>
        <time>2020-12-20T12:12:37Z</time>
      </trkpt>
      <trkpt lat="47.84468" lon="-1.04742">
        <ele>59.9</ele>
        <time>2020-12-20T12:12:38Z</time>
      </trkpt>
      <trkpt lat="47.84469" lon="-1.04746">
        <ele>59.9</ele>
        <time>2020-12-20T12:12:39Z</time>
      </trkpt>
      <trkpt lat="47.84471" lon="-1.0475">
        <ele>60</ele>
        <time>2020-12-20T12:12:40Z</time>
      </trkpt>
      <trkpt lat="47.84472" lon="-1.04756">
        <ele>60</ele>
        <time>2020-12-20T12:12:41Z</time>
      </trkpt>
      <trkpt lat="47.84474" lon="-1.04759">
        <ele>60</ele>
        <time>2020-12-20T12:12:42Z</time>
      </trkpt>
      <trkpt lat="47.84475" lon="-1.04764">
        <ele>60.1</ele>
        <time>2020-12-20T12:12:43Z</time>
      </trkpt>
      <trkpt lat="47.84477" lon="-1.04768">
        <ele>60.1</ele>
        <time>2020-12-20T12:12:44Z</time>
      </trkpt>
      <trkpt lat="47.84478" lon="-1.04772">
        <ele>60.1</ele>
        <time>2020-12-20T12:12:45Z</time>
      </trkpt>
      <trkpt lat="47.8448" lon="-1.04777">
        <ele>60.1</ele>
        <time>2020-12-20T12:12:46Z</time>
      </trkpt>
      <trkpt lat="47.84482" lon="-1.0478">
        <ele>60.1</ele>
        <time>2020-12-20T12:12:47Z</time>
      </trkpt>
      <trkpt lat="47.84484" lon="-1.04785">
        <ele>60.1</ele>
        <time>2020-12-20T12:12:48Z</time>
      </trkpt>
      <trkpt lat="47.84485" lon="-1.04789">
        <ele>60.1</ele>
        <time>2020-12-20T12:12:49Z</time>
      </trkpt>
      <trkpt lat="47.84486" lon="-1.04794">
        <ele>60.1</ele>
        <time>2020-12-20T12:12:50Z</time>
      </trkpt>
      <trkpt lat="47.84488" lon="-1.04799">
        <ele>60.1</ele>
        <time>2020-12-20T12:12:51Z</time>
      </trkpt>
      <trkpt lat="47.8449" lon="-1.04802">
        <ele>60.1</ele>
        <time>2020-12-20T12:12:52Z</time>
      </trkpt>
      <trkpt lat="47.84491" lon="-1.04807">
        <ele>60.1</ele>
        <time>2020-12-20T12:12:53Z</time>
      </trkpt>
      <trkpt lat="47.84492" lon="-1.04811">
        <ele>60.1</ele>
        <time>2020-12-20T12:12:54Z</time>
      </trkpt>
      <trkpt lat="47.84494" lon="-1.04815">
        <ele>60.1</ele>
        <time>2020-12-20T12:12:55Z</time>
      </trkpt>
      <trkpt lat="47.84496" lon="-1.0482">
        <ele>60</ele>
        <time>2020-12-20T12:12:56Z</time>
      </trkpt>
      <trkpt lat="47.84498" lon="-1.04824">
        <ele>60</ele>
        <time>2020-12-20T12:12:57Z</time>
      </trkpt>
      <trkpt lat="47.845" lon="-1.04829">
        <ele>60</ele>
        <time>2020-12-20T12:12:58Z</time>
      </trkpt>
      <trkpt lat="47.84501" lon="-1.04832">
        <ele>60</ele>
        <time>2020-12-20T12:12:59Z</time>
      </trkpt>
      <trkpt lat="47.84503" lon="-1.04836">
        <ele>60.2</ele>
        <time>2020-12-20T12:13:00Z</time>
      </trkpt>
      <trkpt lat="47.84505" lon="-1.04841">
        <ele>60.5</ele>
        <time>2020-12-20T12:13:01Z</time>
      </trkpt>
      <trkpt lat="47.84507" lon="-1.04846">
        <ele>60.8</ele>
        <time>2020-12-20T12:13:02Z</time>
      </trkpt>
      <trkpt lat="47.84508" lon="-1.0485">
        <ele>61</ele>
        <time>2020-12-20T12:13:03Z</time>
      </trkpt>
      <trkpt lat="47.8451" lon="-1.04855">
        <ele>61.2</ele>
        <time>2020-12-20T12:13:04Z</time>
      </trkpt>
      <trkpt lat="47.84512" lon="-1.04859">
        <ele>61.5</ele>
        <time>2020-12-20T12:13:05Z</time>
      </trkpt>
      <trkpt lat="47.84513" lon="-1.04863">
        <ele>61.7</ele>
        <time>2020-12-20T12:13:06Z</time>
      </trkpt>
      <trkpt lat="47.84515" lon="-1.04868">
        <ele>61.9</ele>
        <time>2020-12-20T12:13:07Z</time>
      </trkpt>
      <trkpt lat="47.84517" lon="-1.04872">
        <ele>62.2</ele>
        <time>2020-12-20T12:13:08Z</time>
      </trkpt>
      <trkpt lat="47.84518" lon="-1.04876">
        <ele>62.4</ele>
        <time>2020-12-20T12:13:09Z</time>
      </trkpt>
      <trkpt lat="47.8452" lon="-1.04879">
        <ele>62.5</ele>
        <time>2020-12-20T12:13:10Z</time>
      </trkpt>
      <trkpt lat="47.84521" lon="-1.04883">
        <ele>62.7</ele>
        <time>2020-12-20T12:13:11Z</time>
      </trkpt>
      <trkpt lat="47.84523" lon="-1.04887">
        <ele>63</ele>
        <time>2020-12-20T12:13:12Z</time>
      </trkpt>
      <trkpt lat="47.84525" lon="-1.04891">
        <ele>63.2</ele>
        <time>2020-12-20T12:13:13Z</time>
      </trkpt>
      <trkpt lat="47.84527" lon="-1.04894">
        <ele>63.3</ele>
        <time>2020-12-20T12:13:14Z</time>
      </trkpt>
      <trkpt lat="47.84528" lon="-1.04897">
        <ele>63.5</ele>
        <time>2020-12-20T12:13:15Z</time>
      </trkpt>
      <trkpt lat="47.8453" lon="-1.049">
        <ele>63.6</ele>
        <time>2020-12-20T12:13:16Z</time>
      </trkpt>
      <trkpt lat="47.84533" lon="-1.04903">
        <ele>63.8</ele>
        <time>2020-12-20T12:13:17Z</time>
      </trkpt>
      <trkpt lat="47.84534" lon="-1.04905">
        <ele>63.9</ele>
        <time>2020-12-20T12:13:18Z</time>
      </trkpt>
      <trkpt lat="47.84537" lon="-1.04908">
        <ele>64.1</ele>
        <time>2020-12-20T12:13:19Z</time>
      </trkpt>
      <trkpt lat="47.84539" lon="-1.0491">
        <ele>64.2</ele>
        <time>2020-12-20T12:13:20Z</time>
      </trkpt>
      <trkpt lat="47.84542" lon="-1.04913">
        <ele>64.4</ele>
        <time>2020-12-20T12:13:21Z</time>
      </trkpt>
      <trkpt lat="47.84544" lon="-1.04914">
        <ele>64.4</ele>
        <time>2020-12-20T12:13:22Z</time>
      </trkpt>
      <trkpt lat="47.84547" lon="-1.04917">
        <ele>64.6</ele>
        <time>2020-12-20T12:13:23Z</time>
      </trkpt>
      <trkpt lat="47.8455" lon="-1.04918">
        <ele>64.6</ele>
        <time>2020-12-20T12:13:24Z</time>
      </trkpt>
      <trkpt lat="47.84552" lon="-1.0492">
        <ele>64.7</ele>
        <time>2020-12-20T12:13:25Z</time>
      </trkpt>
      <trkpt lat="47.84555" lon="-1.04922">
        <ele>64.8</ele>
        <time>2020-12-20T12:13:26Z</time>
      </trkpt>
      <trkpt lat="47.84558" lon="-1.04923">
        <ele>64.9</ele>
        <time>2020-12-20T12:13:27Z</time>
      </trkpt>
      <trkpt lat="47.84561" lon="-1.04925">
        <ele>65</ele>
        <time>2020-12-20T12:13:28Z</time>
      </trkpt>
      <trkpt lat="47.84564" lon="-1.04927">
        <ele>65.1</ele>
        <time>2020-12-20T12:13:29Z</time>
      </trkpt>
      <trkpt lat="47.84567" lon="-1.04928">
        <ele>65.2</ele>
        <time>2020-12-20T12:13:30Z</time>
      </trkpt>
      <trkpt lat="47.8457" lon="-1.04929">
        <ele>65.3</ele>
        <time>2020-12-20T12:13:31Z</time>
      </trkpt>
      <trkpt lat="47.84574" lon="-1.04931">
        <ele>65.4</ele>
        <time>2020-12-20T12:13:32Z</time>
      </trkpt>
      <trkpt lat="47.84578" lon="-1.04932">
        <ele>65.5</ele>
        <time>2020-12-20T12:13:33Z</time>
      </trkpt>
      <trkpt lat="47.84581" lon="-1.04933">
        <ele>65.6</ele>
        <time>2020-12-20T12:13:34Z</time>
      </trkpt>
      <trkpt lat="47.84584" lon="-1.04934">
        <ele>65.6</ele>
        <time>2020-12-20T12:13:35Z</time>
      </trkpt>
      <trkpt lat="47.84587" lon="-1.04935">
        <ele>65.7</ele>
        <time>2020-12-20T12:13:36Z</time>
      </trkpt>
      <trkpt lat="47.84591" lon="-1.04936">
        <ele>65.7</ele>
        <time>2020-12-20T12:13:37Z</time>
      </trkpt>
      <trkpt lat="47.84595" lon="-1.04938">
        <ele>65.7</ele>
        <time>2020-12-20T12:13:38Z</time>
      </trkpt>
      <trkpt lat="47.84598" lon="-1.04939">
        <ele>65.8</ele>
        <time>2020-12-20T12:13:39Z</time>
      </trkpt>
      <trkpt lat="47.84602" lon="-1.0494">
        <ele>65.8</ele>
        <time>2020-12-20T12:13:40Z</time>
      </trkpt>
      <trkpt lat="47.84605" lon="-1.04941">
        <ele>65.8</ele>
        <time>2020-12-20T12:13:41Z</time>
      </trkpt>
      <trkpt lat="47.8461" lon="-1.04943">
        <ele>65.8</ele>
        <time>2020-12-20T12:13:42Z</time>
      </trkpt>
      <trkpt lat="47.84613" lon="-1.04944">
        <ele>65.9</ele>
        <time>2020-12-20T12:13:43Z</time>
      </trkpt>
      <trkpt lat="47.84616" lon="-1.04945">
        <ele>65.9</ele>
        <time>2020-12-20T12:13:44Z</time>
      </trkpt>
      <trkpt lat="47.8462" lon="-1.04946">
        <ele>65.9</ele>
        <time>2020-12-20T12:13:45Z</time>
      </trkpt>
      <trkpt lat="47.84624" lon="-1.04947">
        <ele>65.9</ele>
        <time>2020-12-20T12:13:46Z</time>
      </trkpt>
      <trkpt lat="47.84627" lon="-1.04948">
        <ele>65.9</ele>
        <time>2020-12-20T12:13:47Z</time>
      </trkpt>
      <trkpt lat="47.84631" lon="-1.04949">
        <ele>65.9</ele>
        <time>2020-12-20T12:13:48Z</time>
      </trkpt>
      <trkpt lat="47.84635" lon="-1.04951">
        <ele>66</ele>
        <time>2020-12-20T12:13:49Z</time>
      </trkpt>
      <trkpt lat="47.84638" lon="-1.04952">
        <ele>66</ele>
        <time>2020-12-20T12:13:50Z</time>
      </trkpt>
      <trkpt lat="47.84642" lon="-1.04954">
        <ele>66</ele>
        <time>2020-12-20T12:13:51Z</time>
      </trkpt>
      <trkpt lat="47.84646" lon="-1.04956">
        <ele>66.1</ele>
        <time>2020-12-20T12:13:52Z</time>
      </trkpt>
      <trkpt lat="47.84649" lon="-1.04958">
        <ele>66.1</ele>
        <time>2020-12-20T12:13:53Z</time>
      </trkpt>
      <trkpt lat="47.84653" lon="-1.04959">
        <ele>66.1</ele>
        <time>2020-12-20T12:13:54Z</time>
      </trkpt>
      <trkpt lat="47.84657" lon="-1.04961">
        <ele>66.1</ele>
        <time>2020-12-20T12:13:55Z</time>
      </trkpt>
      <trkpt lat="47.84661" lon="-1.04963">
        <ele>66.1</ele>
        <time>2020-12-20T12:13:56Z</time>
      </trkpt>
      <trkpt lat="47.84663" lon="-1.04963">
        <ele>66.1</ele>
        <time>2020-12-20T12:13:57Z</time>
      </trkpt>
      <trkpt lat="47.84667" lon="-1.04964">
        <ele>66.1</ele>
        <time>2020-12-20T12:13:58Z</time>
      </trkpt>
      <trkpt lat="47.84671" lon="-1.04965">
        <ele>66.2</ele>
        <time>2020-12-20T12:13:59Z</time>
      </trkpt>
      <trkpt lat="47.84675" lon="-1.04967">
        <ele>66.2</ele>
        <time>2020-12-20T12:14:00Z</time>
      </trkpt>
      <trkpt lat="47.84679" lon="-1.0497">
        <ele>66.3</ele>
        <time>2020-12-20T12:14:01Z</time>
      </trkpt>
      <trkpt lat="47.84683" lon="-1.04971">
        <ele>66.3</ele>
        <time>2020-12-20T12:14:02Z</time>
      </trkpt>
      <trkpt lat="47.84687" lon="-1.04973">
        <ele>66.4</ele>
        <time>2020-12-20T12:14:03Z</time>
      </trkpt>
      <trkpt lat="47.84692" lon="-1.04974">
        <ele>66.4</ele>
        <time>2020-12-20T12:14:04Z</time>
      </trkpt>
      <trkpt lat="47.84696" lon="-1.04976">
        <ele>66.4</ele>
        <time>2020-12-20T12:14:05Z</time>
      </trkpt>
      <trkpt lat="47.847" lon="-1.04977">
        <ele>66.4</ele>
        <time>2020-12-20T12:14:06Z</time>
      </trkpt>
      <trkpt lat="47.84703" lon="-1.04978">
        <ele>66.5</ele>
        <time>2020-12-20T12:14:07Z</time>
      </trkpt>
      <trkpt lat="47.84708" lon="-1.0498">
        <ele>66.5</ele>
        <time>2020-12-20T12:14:08Z</time>
      </trkpt>
      <trkpt lat="47.84712" lon="-1.04982">
        <ele>66.6</ele>
        <time>2020-12-20T12:14:09Z</time>
      </trkpt>
      <trkpt lat="47.84716" lon="-1.04983">
        <ele>66.6</ele>
        <time>2020-12-20T12:14:10Z</time>
      </trkpt>
      <trkpt lat="47.8472" lon="-1.04984">
        <ele>66.6</ele>
        <time>2020-12-20T12:14:11Z</time>
      </trkpt>
      <trkpt lat="47.84725" lon="-1.04986">
        <ele>66.7</ele>
        <time>2020-12-20T12:14:12Z</time>
      </trkpt>
      <trkpt lat="47.84729" lon="-1.04988">
        <ele>66.7</ele>
        <time>2020-12-20T12:14:13Z</time>
      </trkpt>
      <trkpt lat="47.84733" lon="-1.04989">
        <ele>66.7</ele>
        <time>2020-12-20T12:14:14Z</time>
      </trkpt>
      <trkpt lat="47.84737" lon="-1.04991">
        <ele>66.8</ele>
        <time>2020-12-20T12:14:15Z</time>
      </trkpt>
      <trkpt lat="47.84741" lon="-1.04993">
        <ele>66.8</ele>
        <time>2020-12-20T12:14:16Z</time>
      </trkpt>
      <trkpt lat="47.84746" lon="-1.04994">
        <ele>66.9</ele>
        <time>2020-12-20T12:14:17Z</time>
      </trkpt>
      <trkpt lat="47.8475" lon="-1.04996">
        <ele>66.9</ele>
        <time>2020-12-20T12:14:18Z</time>
      </trkpt>
      <trkpt lat="47.84754" lon="-1.04998">
        <ele>67</ele>
        <time>2020-12-20T12:14:19Z</time>
      </trkpt>
      <trkpt lat="47.84759" lon="-1.05">
        <ele>67.2</ele>
        <time>2020-12-20T12:14:20Z</time>
      </trkpt>
      <trkpt lat="47.84763" lon="-1.05001">
        <ele>67.3</ele>
        <time>2020-12-20T12:14:21Z</time>
      </trkpt>
      <trkpt lat="47.84768" lon="-1.05004">
        <ele>67.5</ele>
        <time>2020-12-20T12:14:22Z</time>
      </trkpt>
      <trkpt lat="47.84772" lon="-1.05005">
        <ele>67.6</ele>
        <time>2020-12-20T12:14:23Z</time>
      </trkpt>
      <trkpt lat="47.84777" lon="-1.05007">
        <ele>67.7</ele>
        <time>2020-12-20T12:14:24Z</time>
      </trkpt>
      <trkpt lat="47.8478" lon="-1.05008">
        <ele>67.8</ele>
        <time>2020-12-20T12:14:25Z</time>
      </trkpt>
      <trkpt lat="47.84785" lon="-1.0501">
        <ele>67.9</ele>
        <time>2020-12-20T12:14:26Z</time>
      </trkpt>
      <trkpt lat="47.8479" lon="-1.05012">
        <ele>68</ele>
        <time>2020-12-20T12:14:27Z</time>
      </trkpt>
      <trkpt lat="47.84797" lon="-1.05014">
        <ele>68.2</ele>
        <time>2020-12-20T12:14:29Z</time>
      </trkpt>
      <trkpt lat="47.84801" lon="-1.05016">
        <ele>68.3</ele>
        <time>2020-12-20T12:14:30Z</time>
      </trkpt>
      <trkpt lat="47.84806" lon="-1.05018">
        <ele>68.4</ele>
        <time>2020-12-20T12:14:31Z</time>
      </trkpt>
      <trkpt lat="47.84809" lon="-1.0502">
        <ele>68.5</ele>
        <time>2020-12-20T12:14:32Z</time>
      </trkpt>
      <trkpt lat="47.84814" lon="-1.05022">
        <ele>68.6</ele>
        <time>2020-12-20T12:14:33Z</time>
      </trkpt>
      <trkpt lat="47.84819" lon="-1.05025">
        <ele>68.7</ele>
        <time>2020-12-20T12:14:34Z</time>
      </trkpt>
      <trkpt lat="47.84823" lon="-1.05027">
        <ele>68.8</ele>
        <time>2020-12-20T12:14:35Z</time>
      </trkpt>
      <trkpt lat="47.84826" lon="-1.05029">
        <ele>68.9</ele>
        <time>2020-12-20T12:14:36Z</time>
      </trkpt>
      <trkpt lat="47.8483" lon="-1.05032">
        <ele>68.9</ele>
        <time>2020-12-20T12:14:37Z</time>
      </trkpt>
      <trkpt lat="47.84835" lon="-1.05035">
        <ele>69</ele>
        <time>2020-12-20T12:14:38Z</time>
      </trkpt>
      <trkpt lat="47.84838" lon="-1.05036">
        <ele>69</ele>
        <time>2020-12-20T12:14:39Z</time>
      </trkpt>
      <trkpt lat="47.84842" lon="-1.05039">
        <ele>69</ele>
        <time>2020-12-20T12:14:40Z</time>
      </trkpt>
      <trkpt lat="47.84846" lon="-1.05041">
        <ele>69.1</ele>
        <time>2020-12-20T12:14:41Z</time>
      </trkpt>
      <trkpt lat="47.84849" lon="-1.05044">
        <ele>69.1</ele>
        <time>2020-12-20T12:14:42Z</time>
      </trkpt>
      <trkpt lat="47.84853" lon="-1.05047">
        <ele>69.1</ele>
        <time>2020-12-20T12:14:43Z</time>
      </trkpt>
      <trkpt lat="47.84858" lon="-1.05049">
        <ele>69.2</ele>
        <time>2020-12-20T12:14:44Z</time>
      </trkpt>
      <trkpt lat="47.84862" lon="-1.05052">
        <ele>69.2</ele>
        <time>2020-12-20T12:14:45Z</time>
      </trkpt>
      <trkpt lat="47.84865" lon="-1.05054">
        <ele>69.2</ele>
        <time>2020-12-20T12:14:46Z</time>
      </trkpt>
      <trkpt lat="47.84869" lon="-1.05056">
        <ele>69.3</ele>
        <time>2020-12-20T12:14:47Z</time>
      </trkpt>
      <trkpt lat="47.84872" lon="-1.05059">
        <ele>69.3</ele>
        <time>2020-12-20T12:14:48Z</time>
      </trkpt>
      <trkpt lat="47.84876" lon="-1.05062">
        <ele>69.4</ele>
        <time>2020-12-20T12:14:49Z</time>
      </trkpt>
      <trkpt lat="47.84881" lon="-1.05065">
        <ele>69.4</ele>
        <time>2020-12-20T12:14:50Z</time>
      </trkpt>
      <trkpt lat="47.84886" lon="-1.05069">
        <ele>69.5</ele>
        <time>2020-12-20T12:14:51Z</time>
      </trkpt>
      <trkpt lat="47.84889" lon="-1.05071">
        <ele>69.6</ele>
        <time>2020-12-20T12:14:52Z</time>
      </trkpt>
      <trkpt lat="47.84894" lon="-1.05074">
        <ele>69.6</ele>
        <time>2020-12-20T12:14:53Z</time>
      </trkpt>
      <trkpt lat="47.84897" lon="-1.05076">
        <ele>69.7</ele>
        <time>2020-12-20T12:14:54Z</time>
      </trkpt>
      <trkpt lat="47.84901" lon="-1.05079">
        <ele>69.8</ele>
        <time>2020-12-20T12:14:55Z</time>
      </trkpt>
      <trkpt lat="47.84906" lon="-1.05082">
        <ele>69.9</ele>
        <time>2020-12-20T12:14:56Z</time>
      </trkpt>
      <trkpt lat="47.8491" lon="-1.05085">
        <ele>69.9</ele>
        <time>2020-12-20T12:14:57Z</time>
      </trkpt>
      <trkpt lat="47.84913" lon="-1.05087">
        <ele>70</ele>
        <time>2020-12-20T12:14:58Z</time>
      </trkpt>
      <trkpt lat="47.84918" lon="-1.0509">
        <ele>70</ele>
        <time>2020-12-20T12:14:59Z</time>
      </trkpt>
      <trkpt lat="47.84923" lon="-1.05094">
        <ele>69.9</ele>
        <time>2020-12-20T12:15:00Z</time>
      </trkpt>
      <trkpt lat="47.84928" lon="-1.05097">
        <ele>69.9</ele>
        <time>2020-12-20T12:15:01Z</time>
      </trkpt>
      <trkpt lat="47.84933" lon="-1.051">
        <ele>69.8</ele>
        <time>2020-12-20T12:15:02Z</time>
      </trkpt>
      <trkpt lat="47.84938" lon="-1.05103">
        <ele>69.7</ele>
        <time>2020-12-20T12:15:03Z</time>
      </trkpt>
      <trkpt lat="47.84942" lon="-1.05106">
        <ele>69.7</ele>
        <time>2020-12-20T12:15:04Z</time>
      </trkpt>
      <trkpt lat="47.84947" lon="-1.05109">
        <ele>69.6</ele>
        <time>2020-12-20T12:15:05Z</time>
      </trkpt>
      <trkpt lat="47.84953" lon="-1.05112">
        <ele>69.6</ele>
        <time>2020-12-20T12:15:06Z</time>
      </trkpt>
      <trkpt lat="47.84958" lon="-1.05114">
        <ele>69.5</ele>
        <time>2020-12-20T12:15:07Z</time>
      </trkpt>
      <trkpt lat="47.84963" lon="-1.05117">
        <ele>69.4</ele>
        <time>2020-12-20T12:15:08Z</time>
      </trkpt>
      <trkpt lat="47.84968" lon="-1.05118">
        <ele>69.4</ele>
        <time>2020-12-20T12:15:09Z</time>
      </trkpt>
      <trkpt lat="47.84973" lon="-1.05119">
        <ele>69.3</ele>
        <time>2020-12-20T12:15:10Z</time>
      </trkpt>
      <trkpt lat="47.84977" lon="-1.0512">
        <ele>69.3</ele>
        <time>2020-12-20T12:15:11Z</time>
      </trkpt>
      <trkpt lat="47.84983" lon="-1.0512">
        <ele>69.2</ele>
        <time>2020-12-20T12:15:12Z</time>
      </trkpt>
      <trkpt lat="47.84989" lon="-1.0512">
        <ele>69.1</ele>
        <time>2020-12-20T12:15:13Z</time>
      </trkpt>
      <trkpt lat="47.84995" lon="-1.0512">
        <ele>69.1</ele>
        <time>2020-12-20T12:15:14Z</time>
      </trkpt>
      <trkpt lat="47.85001" lon="-1.0512">
        <ele>69</ele>
        <time>2020-12-20T12:15:15Z</time>
      </trkpt>
      <trkpt lat="47.85006" lon="-1.0512">
        <ele>68.8</ele>
        <time>2020-12-20T12:15:16Z</time>
      </trkpt>
      <trkpt lat="47.85012" lon="-1.0512">
        <ele>68.6</ele>
        <time>2020-12-20T12:15:17Z</time>
      </trkpt>
      <trkpt lat="47.85018" lon="-1.05119">
        <ele>68.4</ele>
        <time>2020-12-20T12:15:18Z</time>
      </trkpt>
      <trkpt lat="47.85024" lon="-1.05119">
        <ele>68.1</ele>
        <time>2020-12-20T12:15:19Z</time>
      </trkpt>
      <trkpt lat="47.8503" lon="-1.05118">
        <ele>67.9</ele>
        <time>2020-12-20T12:15:20Z</time>
      </trkpt>
      <trkpt lat="47.85036" lon="-1.05118">
        <ele>67.7</ele>
        <time>2020-12-20T12:15:21Z</time>
      </trkpt>
      <trkpt lat="47.85042" lon="-1.05117">
        <ele>67.5</ele>
        <time>2020-12-20T12:15:22Z</time>
      </trkpt>
      <trkpt lat="47.85048" lon="-1.05117">
        <ele>67.3</ele>
        <time>2020-12-20T12:15:23Z</time>
      </trkpt>
      <trkpt lat="47.85054" lon="-1.05116">
        <ele>67.1</ele>
        <time>2020-12-20T12:15:24Z</time>
      </trkpt>
      <trkpt lat="47.85061" lon="-1.05115">
        <ele>66.8</ele>
        <time>2020-12-20T12:15:25Z</time>
      </trkpt>
      <trkpt lat="47.85067" lon="-1.05114">
        <ele>66.6</ele>
        <time>2020-12-20T12:15:26Z</time>
      </trkpt>
      <trkpt lat="47.85074" lon="-1.05114">
        <ele>66.3</ele>
        <time>2020-12-20T12:15:27Z</time>
      </trkpt>
      <trkpt lat="47.8508" lon="-1.05113">
        <ele>66.1</ele>
        <time>2020-12-20T12:15:28Z</time>
      </trkpt>
      <trkpt lat="47.85087" lon="-1.05112">
        <ele>65.9</ele>
        <time>2020-12-20T12:15:29Z</time>
      </trkpt>
      <trkpt lat="47.85093" lon="-1.05112">
        <ele>65.7</ele>
        <time>2020-12-20T12:15:30Z</time>
      </trkpt>
      <trkpt lat="47.85099" lon="-1.05111">
        <ele>65.4</ele>
        <time>2020-12-20T12:15:31Z</time>
      </trkpt>
      <trkpt lat="47.85106" lon="-1.05111">
        <ele>65.2</ele>
        <time>2020-12-20T12:15:32Z</time>
      </trkpt>
      <trkpt lat="47.85112" lon="-1.0511">
        <ele>65</ele>
        <time>2020-12-20T12:15:33Z</time>
      </trkpt>
      <trkpt lat="47.85118" lon="-1.05109">
        <ele>64.8</ele>
        <time>2020-12-20T12:15:34Z</time>
      </trkpt>
      <trkpt lat="47.85124" lon="-1.05109">
        <ele>64.5</ele>
        <time>2020-12-20T12:15:35Z</time>
      </trkpt>
      <trkpt lat="47.85131" lon="-1.05108">
        <ele>64.3</ele>
        <time>2020-12-20T12:15:36Z</time>
      </trkpt>
      <trkpt lat="47.85136" lon="-1.05108">
        <ele>64.1</ele>
        <time>2020-12-20T12:15:37Z</time>
      </trkpt>
      <trkpt lat="47.85142" lon="-1.05107">
        <ele>63.9</ele>
        <time>2020-12-20T12:15:38Z</time>
      </trkpt>
      <trkpt lat="47.85148" lon="-1.05107">
        <ele>63.7</ele>
        <time>2020-12-20T12:15:39Z</time>
      </trkpt>
      <trkpt lat="47.85155" lon="-1.05106">
        <ele>63.4</ele>
        <time>2020-12-20T12:15:40Z</time>
      </trkpt>
      <trkpt lat="47.85161" lon="-1.05106">
        <ele>63.2</ele>
        <time>2020-12-20T12:15:41Z</time>
      </trkpt>
      <trkpt lat="47.85167" lon="-1.05105">
        <ele>63</ele>
        <time>2020-12-20T12:15:42Z</time>
      </trkpt>
      <trkpt lat="47.85174" lon="-1.05105">
        <ele>63</ele>
        <time>2020-12-20T12:15:43Z</time>
      </trkpt>
      <trkpt lat="47.8518" lon="-1.05104">
        <ele>63</ele>
        <time>2020-12-20T12:15:44Z</time>
      </trkpt>
      <trkpt lat="47.85186" lon="-1.05103">
        <ele>62.9</ele>
        <time>2020-12-20T12:15:45Z</time>
      </trkpt>
      <trkpt lat="47.85193" lon="-1.05103">
        <ele>62.9</ele>
        <time>2020-12-20T12:15:46Z</time>
      </trkpt>
      <trkpt lat="47.85199" lon="-1.05102">
        <ele>62.9</ele>
        <time>2020-12-20T12:15:47Z</time>
      </trkpt>
      <trkpt lat="47.85206" lon="-1.05102">
        <ele>62.9</ele>
        <time>2020-12-20T12:15:48Z</time>
      </trkpt>
      <trkpt lat="47.85213" lon="-1.05101">
        <ele>62.9</ele>
        <time>2020-12-20T12:15:49Z</time>
      </trkpt>
      <trkpt lat="47.8522" lon="-1.05101">
        <ele>62.9</ele>
        <time>2020-12-20T12:15:50Z</time>
      </trkpt>
      <trkpt lat="47.85226" lon="-1.051">
        <ele>62.9</ele>
        <time>2020-12-20T12:15:51Z</time>
      </trkpt>
      <trkpt lat="47.85232" lon="-1.051">
        <ele>62.8</ele>
        <time>2020-12-20T12:15:52Z</time>
      </trkpt>
      <trkpt lat="47.85239" lon="-1.05099">
        <ele>62.8</ele>
        <time>2020-12-20T12:15:53Z</time>
      </trkpt>
      <trkpt lat="47.85245" lon="-1.05099">
        <ele>62.8</ele>
        <time>2020-12-20T12:15:54Z</time>
      </trkpt>
      <trkpt lat="47.85252" lon="-1.05098">
        <ele>62.8</ele>
        <time>2020-12-20T12:15:55Z</time>
      </trkpt>
      <trkpt lat="47.85258" lon="-1.05098">
        <ele>62.5</ele>
        <time>2020-12-20T12:15:56Z</time>
      </trkpt>
      <trkpt lat="47.85265" lon="-1.05097">
        <ele>62.3</ele>
        <time>2020-12-20T12:15:57Z</time>
      </trkpt>
      <trkpt lat="47.85271" lon="-1.05096">
        <ele>62.1</ele>
        <time>2020-12-20T12:15:58Z</time>
      </trkpt>
      <trkpt lat="47.85278" lon="-1.05096">
        <ele>61.8</ele>
        <time>2020-12-20T12:15:59Z</time>
      </trkpt>
      <trkpt lat="47.85283" lon="-1.05096">
        <ele>61.7</ele>
        <time>2020-12-20T12:16:00Z</time>
      </trkpt>
      <trkpt lat="47.85289" lon="-1.05095">
        <ele>61.5</ele>
        <time>2020-12-20T12:16:01Z</time>
      </trkpt>
      <trkpt lat="47.85295" lon="-1.05095">
        <ele>61.2</ele>
        <time>2020-12-20T12:16:02Z</time>
      </trkpt>
      <trkpt lat="47.85301" lon="-1.05095">
        <ele>61</ele>
        <time>2020-12-20T12:16:03Z</time>
      </trkpt>
      <trkpt lat="47.85308" lon="-1.05095">
        <ele>60.8</ele>
        <time>2020-12-20T12:16:04Z</time>
      </trkpt>
      <trkpt lat="47.85314" lon="-1.05096">
        <ele>60.5</ele>
        <time>2020-12-20T12:16:05Z</time>
      </trkpt>
      <trkpt lat="47.8532" lon="-1.05097">
        <ele>60.3</ele>
        <time>2020-12-20T12:16:06Z</time>
      </trkpt>
      <trkpt lat="47.85326" lon="-1.05098">
        <ele>60.1</ele>
        <time>2020-12-20T12:16:07Z</time>
      </trkpt>
      <trkpt lat="47.85332" lon="-1.05099">
        <ele>59.9</ele>
        <time>2020-12-20T12:16:08Z</time>
      </trkpt>
      <trkpt lat="47.85338" lon="-1.051">
        <ele>59.8</ele>
        <time>2020-12-20T12:16:09Z</time>
      </trkpt>
      <trkpt lat="47.85343" lon="-1.05101">
        <ele>59.8</ele>
        <time>2020-12-20T12:16:10Z</time>
      </trkpt>
      <trkpt lat="47.85349" lon="-1.05103">
        <ele>59.8</ele>
        <time>2020-12-20T12:16:11Z</time>
      </trkpt>
      <trkpt lat="47.85354" lon="-1.05105">
        <ele>59.8</ele>
        <time>2020-12-20T12:16:12Z</time>
      </trkpt>
      <trkpt lat="47.8536" lon="-1.05106">
        <ele>59.8</ele>
        <time>2020-12-20T12:16:13Z</time>
      </trkpt>
      <trkpt lat="47.85366" lon="-1.05108">
        <ele>59.8</ele>
        <time>2020-12-20T12:16:14Z</time>
      </trkpt>
      <trkpt lat="47.85372" lon="-1.05109">
        <ele>59.8</ele>
        <time>2020-12-20T12:16:15Z</time>
      </trkpt>
      <trkpt lat="47.85378" lon="-1.05111">
        <ele>59.8</ele>
        <time>2020-12-20T12:16:16Z</time>
      </trkpt>
      <trkpt lat="47.85384" lon="-1.05113">
        <ele>59.9</ele>
        <time>2020-12-20T12:16:17Z</time>
      </trkpt>
      <trkpt lat="47.8539" lon="-1.05114">
        <ele>59.9</ele>
        <time>2020-12-20T12:16:18Z</time>
      </trkpt>
      <trkpt lat="47.85395" lon="-1.05116">
        <ele>59.9</ele>
        <time>2020-12-20T12:16:19Z</time>
      </trkpt>
      <trkpt lat="47.85401" lon="-1.05117">
        <ele>59.9</ele>
        <time>2020-12-20T12:16:20Z</time>
      </trkpt>
      <trkpt lat="47.85407" lon="-1.05119">
        <ele>60</ele>
        <time>2020-12-20T12:16:21Z</time>
      </trkpt>
      <trkpt lat="47.85413" lon="-1.0512">
        <ele>60</ele>
        <time>2020-12-20T12:16:22Z</time>
      </trkpt>
      <trkpt lat="47.85419" lon="-1.05121">
        <ele>60</ele>
        <time>2020-12-20T12:16:23Z</time>
      </trkpt>
      <trkpt lat="47.85424" lon="-1.05122">
        <ele>60.1</ele>
        <time>2020-12-20T12:16:24Z</time>
      </trkpt>
      <trkpt lat="47.8543" lon="-1.05123">
        <ele>60.2</ele>
        <time>2020-12-20T12:16:25Z</time>
      </trkpt>
      <trkpt lat="47.85436" lon="-1.05123">
        <ele>60.2</ele>
        <time>2020-12-20T12:16:26Z</time>
      </trkpt>
      <trkpt lat="47.85442" lon="-1.05123">
        <ele>60.3</ele>
        <time>2020-12-20T12:16:27Z</time>
      </trkpt>
      <trkpt lat="47.85449" lon="-1.05124">
        <ele>60.4</ele>
        <time>2020-12-20T12:16:28Z</time>
      </trkpt>
      <trkpt lat="47.85453" lon="-1.05124">
        <ele>60.4</ele>
        <time>2020-12-20T12:16:29Z</time>
      </trkpt>
      <trkpt lat="47.85458" lon="-1.05123">
        <ele>60.5</ele>
        <time>2020-12-20T12:16:30Z</time>
      </trkpt>
      <trkpt lat="47.85464" lon="-1.05123">
        <ele>60.6</ele>
        <time>2020-12-20T12:16:31Z</time>
      </trkpt>
      <trkpt lat="47.85469" lon="-1.05123">
        <ele>60.6</ele>
        <time>2020-12-20T12:16:32Z</time>
      </trkpt>
      <trkpt lat="47.85475" lon="-1.05123">
        <ele>60.7</ele>
        <time>2020-12-20T12:16:33Z</time>
      </trkpt>
      <trkpt lat="47.8548" lon="-1.05123">
        <ele>60.8</ele>
        <time>2020-12-20T12:16:34Z</time>
      </trkpt>
      <trkpt lat="47.85486" lon="-1.05122">
        <ele>60.8</ele>
        <time>2020-12-20T12:16:35Z</time>
      </trkpt>
      <trkpt lat="47.85491" lon="-1.05122">
        <ele>60.9</ele>
        <time>2020-12-20T12:16:36Z</time>
      </trkpt>
      <trkpt lat="47.85496" lon="-1.05122">
        <ele>61</ele>
        <time>2020-12-20T12:16:37Z</time>
      </trkpt>
      <trkpt lat="47.85501" lon="-1.05122">
        <ele>61</ele>
        <time>2020-12-20T12:16:38Z</time>
      </trkpt>
      <trkpt lat="47.85506" lon="-1.05122">
        <ele>61</ele>
        <time>2020-12-20T12:16:39Z</time>
      </trkpt>
      <trkpt lat="47.85511" lon="-1.05122">
        <ele>61.1</ele>
        <time>2020-12-20T12:16:40Z</time>
      </trkpt>
      <trkpt lat="47.85517" lon="-1.05122">
        <ele>61.1</ele>
        <time>2020-12-20T12:16:41Z</time>
      </trkpt>
      <trkpt lat="47.85521" lon="-1.05122">
        <ele>61.1</ele>
        <time>2020-12-20T12:16:42Z</time>
      </trkpt>
      <trkpt lat="47.85526" lon="-1.05122">
        <ele>61.1</ele>
        <time>2020-12-20T12:16:43Z</time>
      </trkpt>
      <trkpt lat="47.85531" lon="-1.05122">
        <ele>61.2</ele>
        <time>2020-12-20T12:16:44Z</time>
      </trkpt>
      <trkpt lat="47.85536" lon="-1.05121">
        <ele>61.2</ele>
        <time>2020-12-20T12:16:45Z</time>
      </trkpt>
      <trkpt lat="47.85541" lon="-1.05121">
        <ele>61.2</ele>
        <time>2020-12-20T12:16:46Z</time>
      </trkpt>
      <trkpt lat="47.85545" lon="-1.05121">
        <ele>61.2</ele>
        <time>2020-12-20T12:16:47Z</time>
      </trkpt>
      <trkpt lat="47.8555" lon="-1.0512">
        <ele>61.3</ele>
        <time>2020-12-20T12:16:48Z</time>
      </trkpt>
      <trkpt lat="47.85555" lon="-1.0512">
        <ele>61.3</ele>
        <time>2020-12-20T12:16:49Z</time>
      </trkpt>
      <trkpt lat="47.85559" lon="-1.0512">
        <ele>61.3</ele>
        <time>2020-12-20T12:16:50Z</time>
      </trkpt>
      <trkpt lat="47.85564" lon="-1.0512">
        <ele>61.3</ele>
        <time>2020-12-20T12:16:51Z</time>
      </trkpt>
      <trkpt lat="47.85569" lon="-1.0512">
        <ele>61.4</ele>
        <time>2020-12-20T12:16:52Z</time>
      </trkpt>
      <trkpt lat="47.85574" lon="-1.0512">
        <ele>61.4</ele>
        <time>2020-12-20T12:16:53Z</time>
      </trkpt>
      <trkpt lat="47.85579" lon="-1.0512">
        <ele>61.4</ele>
        <time>2020-12-20T12:16:54Z</time>
      </trkpt>
      <trkpt lat="47.85584" lon="-1.0512">
        <ele>61.5</ele>
        <time>2020-12-20T12:16:55Z</time>
      </trkpt>
      <trkpt lat="47.85589" lon="-1.05119">
        <ele>61.6</ele>
        <time>2020-12-20T12:16:56Z</time>
      </trkpt>
      <trkpt lat="47.85593" lon="-1.05119">
        <ele>61.7</ele>
        <time>2020-12-20T12:16:57Z</time>
      </trkpt>
      <trkpt lat="47.85598" lon="-1.05119">
        <ele>61.8</ele>
        <time>2020-12-20T12:16:58Z</time>
      </trkpt>
      <trkpt lat="47.85603" lon="-1.05119">
        <ele>61.9</ele>
        <time>2020-12-20T12:16:59Z</time>
      </trkpt>
      <trkpt lat="47.85608" lon="-1.05119">
        <ele>62</ele>
        <time>2020-12-20T12:17:00Z</time>
      </trkpt>
      <trkpt lat="47.85613" lon="-1.0512">
        <ele>62.2</ele>
        <time>2020-12-20T12:17:01Z</time>
      </trkpt>
      <trkpt lat="47.85618" lon="-1.0512">
        <ele>62.3</ele>
        <time>2020-12-20T12:17:02Z</time>
      </trkpt>
      <trkpt lat="47.85623" lon="-1.0512">
        <ele>62.4</ele>
        <time>2020-12-20T12:17:03Z</time>
      </trkpt>
      <trkpt lat="47.85627" lon="-1.0512">
        <ele>62.5</ele>
        <time>2020-12-20T12:17:04Z</time>
      </trkpt>
      <trkpt lat="47.85632" lon="-1.0512">
        <ele>62.6</ele>
        <time>2020-12-20T12:17:05Z</time>
      </trkpt>
      <trkpt lat="47.85637" lon="-1.05121">
        <ele>62.7</ele>
        <time>2020-12-20T12:17:06Z</time>
      </trkpt>
      <trkpt lat="47.85641" lon="-1.05121">
        <ele>62.8</ele>
        <time>2020-12-20T12:17:07Z</time>
      </trkpt>
      <trkpt lat="47.85646" lon="-1.05122">
        <ele>63</ele>
        <time>2020-12-20T12:17:08Z</time>
      </trkpt>
      <trkpt lat="47.8565" lon="-1.05125">
        <ele>63.1</ele>
        <time>2020-12-20T12:17:09Z</time>
      </trkpt>
      <trkpt lat="47.85654" lon="-1.05128">
        <ele>63.2</ele>
        <time>2020-12-20T12:17:10Z</time>
      </trkpt>
      <trkpt lat="47.85657" lon="-1.05133">
        <ele>63.4</ele>
        <time>2020-12-20T12:17:11Z</time>
      </trkpt>
      <trkpt lat="47.85659" lon="-1.05139">
        <ele>63.5</ele>
        <time>2020-12-20T12:17:12Z</time>
      </trkpt>
      <trkpt lat="47.85661" lon="-1.05145">
        <ele>63.6</ele>
        <time>2020-12-20T12:17:13Z</time>
      </trkpt>
      <trkpt lat="47.85663" lon="-1.05151">
        <ele>63.7</ele>
        <time>2020-12-20T12:17:14Z</time>
      </trkpt>
      <trkpt lat="47.85664" lon="-1.05157">
        <ele>63.8</ele>
        <time>2020-12-20T12:17:15Z</time>
      </trkpt>
      <trkpt lat="47.85666" lon="-1.05165">
        <ele>64</ele>
        <time>2020-12-20T12:17:16Z</time>
      </trkpt>
      <trkpt lat="47.85667" lon="-1.05171">
        <ele>64.1</ele>
        <time>2020-12-20T12:17:17Z</time>
      </trkpt>
      <trkpt lat="47.85668" lon="-1.05177">
        <ele>64.2</ele>
        <time>2020-12-20T12:17:18Z</time>
      </trkpt>
      <trkpt lat="47.85668" lon="-1.05182">
        <ele>64.2</ele>
        <time>2020-12-20T12:17:19Z</time>
      </trkpt>
      <trkpt lat="47.85669" lon="-1.05188">
        <ele>64.3</ele>
        <time>2020-12-20T12:17:20Z</time>
      </trkpt>
      <trkpt lat="47.8567" lon="-1.05193">
        <ele>64.4</ele>
        <time>2020-12-20T12:17:21Z</time>
      </trkpt>
      <trkpt lat="47.85671" lon="-1.05199">
        <ele>64.6</ele>
        <time>2020-12-20T12:17:22Z</time>
      </trkpt>
      <trkpt lat="47.85672" lon="-1.05206">
        <ele>64.7</ele>
        <time>2020-12-20T12:17:23Z</time>
      </trkpt>
      <trkpt lat="47.85673" lon="-1.05211">
        <ele>64.8</ele>
        <time>2020-12-20T12:17:24Z</time>
      </trkpt>
      <trkpt lat="47.85673" lon="-1.05217">
        <ele>64.9</ele>
        <time>2020-12-20T12:17:25Z</time>
      </trkpt>
      <trkpt lat="47.85674" lon="-1.05223">
        <ele>65</ele>
        <time>2020-12-20T12:17:26Z</time>
      </trkpt>
      <trkpt lat="47.85675" lon="-1.05228">
        <ele>65.1</ele>
        <time>2020-12-20T12:17:27Z</time>
      </trkpt>
      <trkpt lat="47.85675" lon="-1.05233">
        <ele>65.2</ele>
        <time>2020-12-20T12:17:28Z</time>
      </trkpt>
      <trkpt lat="47.85676" lon="-1.05239">
        <ele>65.3</ele>
        <time>2020-12-20T12:17:29Z</time>
      </trkpt>
      <trkpt lat="47.85677" lon="-1.05245">
        <ele>65.4</ele>
        <time>2020-12-20T12:17:30Z</time>
      </trkpt>
      <trkpt lat="47.85677" lon="-1.0525">
        <ele>65.5</ele>
        <time>2020-12-20T12:17:31Z</time>
      </trkpt>
      <trkpt lat="47.85678" lon="-1.05256">
        <ele>65.7</ele>
        <time>2020-12-20T12:17:32Z</time>
      </trkpt>
      <trkpt lat="47.85678" lon="-1.0526">
        <ele>65.8</ele>
        <time>2020-12-20T12:17:33Z</time>
      </trkpt>
      <trkpt lat="47.85678" lon="-1.05265">
        <ele>65.9</ele>
        <time>2020-12-20T12:17:34Z</time>
      </trkpt>
      <trkpt lat="47.85678" lon="-1.0527">
        <ele>66</ele>
        <time>2020-12-20T12:17:35Z</time>
      </trkpt>
      <trkpt lat="47.85679" lon="-1.05275">
        <ele>66.1</ele>
        <time>2020-12-20T12:17:36Z</time>
      </trkpt>
      <trkpt lat="47.85679" lon="-1.0528">
        <ele>66.2</ele>
        <time>2020-12-20T12:17:37Z</time>
      </trkpt>
      <trkpt lat="47.85679" lon="-1.05285">
        <ele>66.3</ele>
        <time>2020-12-20T12:17:38Z</time>
      </trkpt>
      <trkpt lat="47.85679" lon="-1.0529">
        <ele>66.4</ele>
        <time>2020-12-20T12:17:39Z</time>
      </trkpt>
      <trkpt lat="47.85678" lon="-1.05295">
        <ele>66.5</ele>
        <time>2020-12-20T12:17:40Z</time>
      </trkpt>
      <trkpt lat="47.85678" lon="-1.05301">
        <ele>66.6</ele>
        <time>2020-12-20T12:17:41Z</time>
      </trkpt>
      <trkpt lat="47.85678" lon="-1.05306">
        <ele>66.7</ele>
        <time>2020-12-20T12:17:42Z</time>
      </trkpt>
      <trkpt lat="47.85678" lon="-1.05311">
        <ele>66.8</ele>
        <time>2020-12-20T12:17:43Z</time>
      </trkpt>
      <trkpt lat="47.85678" lon="-1.05316">
        <ele>66.9</ele>
        <time>2020-12-20T12:17:44Z</time>
      </trkpt>
      <trkpt lat="47.85678" lon="-1.0532">
        <ele>67</ele>
        <time>2020-12-20T12:17:45Z</time>
      </trkpt>
      <trkpt lat="47.85678" lon="-1.05325">
        <ele>67.1</ele>
        <time>2020-12-20T12:17:46Z</time>
      </trkpt>
      <trkpt lat="47.85678" lon="-1.0533">
        <ele>67.2</ele>
        <time>2020-12-20T12:17:47Z</time>
      </trkpt>
      <trkpt lat="47.85678" lon="-1.05335">
        <ele>67.3</ele>
        <time>2020-12-20T12:17:48Z</time>
      </trkpt>
      <trkpt lat="47.85677" lon="-1.0534">
        <ele>67.2</ele>
        <time>2020-12-20T12:17:49Z</time>
      </trkpt>
      <trkpt lat="47.85678" lon="-1.05345">
        <ele>67.3</ele>
        <time>2020-12-20T12:17:50Z</time>
      </trkpt>
      <trkpt lat="47.85678" lon="-1.05349">
        <ele>67.3</ele>
        <time>2020-12-20T12:17:51Z</time>
      </trkpt>
      <trkpt lat="47.85678" lon="-1.05354">
        <ele>67.3</ele>
        <time>2020-12-20T12:17:52Z</time>
      </trkpt>
      <trkpt lat="47.85678" lon="-1.05359">
        <ele>67.3</ele>
        <time>2020-12-20T12:17:53Z</time>
      </trkpt>
      <trkpt lat="47.85677" lon="-1.05363">
        <ele>67.2</ele>
        <time>2020-12-20T12:17:54Z</time>
      </trkpt>
      <trkpt lat="47.85677" lon="-1.05368">
        <ele>67.2</ele>
        <time>2020-12-20T12:17:55Z</time>
      </trkpt>
      <trkpt lat="47.85677" lon="-1.05373">
        <ele>67.2</ele>
        <time>2020-12-20T12:17:56Z</time>
      </trkpt>
      <trkpt lat="47.85677" lon="-1.05378">
        <ele>67.2</ele>
        <time>2020-12-20T12:17:57Z</time>
      </trkpt>
      <trkpt lat="47.85677" lon="-1.05382">
        <ele>67.2</ele>
        <time>2020-12-20T12:17:58Z</time>
      </trkpt>
      <trkpt lat="47.85677" lon="-1.05387">
        <ele>67.2</ele>
        <time>2020-12-20T12:17:59Z</time>
      </trkpt>
      <trkpt lat="47.85676" lon="-1.05392">
        <ele>67.2</ele>
        <time>2020-12-20T12:18:00Z</time>
      </trkpt>
      <trkpt lat="47.85676" lon="-1.05396">
        <ele>67.2</ele>
        <time>2020-12-20T12:18:01Z</time>
      </trkpt>
      <trkpt lat="47.85676" lon="-1.05401">
        <ele>67.2</ele>
        <time>2020-12-20T12:18:02Z</time>
      </trkpt>
      <trkpt lat="47.85676" lon="-1.05406">
        <ele>67.2</ele>
        <time>2020-12-20T12:18:03Z</time>
      </trkpt>
      <trkpt lat="47.85676" lon="-1.05411">
        <ele>67.2</ele>
        <time>2020-12-20T12:18:04Z</time>
      </trkpt>
      <trkpt lat="47.85676" lon="-1.05416">
        <ele>67.2</ele>
        <time>2020-12-20T12:18:05Z</time>
      </trkpt>
      <trkpt lat="47.85676" lon="-1.05421">
        <ele>67.2</ele>
        <time>2020-12-20T12:18:06Z</time>
      </trkpt>
      <trkpt lat="47.85675" lon="-1.05426">
        <ele>67.1</ele>
        <time>2020-12-20T12:18:07Z</time>
      </trkpt>
      <trkpt lat="47.85675" lon="-1.05431">
        <ele>67.1</ele>
        <time>2020-12-20T12:18:08Z</time>
      </trkpt>
      <trkpt lat="47.85675" lon="-1.05436">
        <ele>67</ele>
        <time>2020-12-20T12:18:09Z</time>
      </trkpt>
      <trkpt lat="47.85675" lon="-1.05441">
        <ele>67</ele>
        <time>2020-12-20T12:18:10Z</time>
      </trkpt>
      <trkpt lat="47.85675" lon="-1.05447">
        <ele>66.9</ele>
        <time>2020-12-20T12:18:11Z</time>
      </trkpt>
      <trkpt lat="47.85674" lon="-1.05453">
        <ele>66.9</ele>
        <time>2020-12-20T12:18:12Z</time>
      </trkpt>
      <trkpt lat="47.85674" lon="-1.05459">
        <ele>66.8</ele>
        <time>2020-12-20T12:18:13Z</time>
      </trkpt>
      <trkpt lat="47.85674" lon="-1.05464">
        <ele>66.8</ele>
        <time>2020-12-20T12:18:14Z</time>
      </trkpt>
      <trkpt lat="47.85674" lon="-1.0547">
        <ele>66.7</ele>
        <time>2020-12-20T12:18:15Z</time>
      </trkpt>
      <trkpt lat="47.85674" lon="-1.05477">
        <ele>66.6</ele>
        <time>2020-12-20T12:18:16Z</time>
      </trkpt>
      <trkpt lat="47.85673" lon="-1.05482">
        <ele>66.5</ele>
        <time>2020-12-20T12:18:17Z</time>
      </trkpt>
      <trkpt lat="47.85673" lon="-1.05488">
        <ele>66.5</ele>
        <time>2020-12-20T12:18:18Z</time>
      </trkpt>
      <trkpt lat="47.85673" lon="-1.05494">
        <ele>66.4</ele>
        <time>2020-12-20T12:18:19Z</time>
      </trkpt>
      <trkpt lat="47.85672" lon="-1.055">
        <ele>66.3</ele>
        <time>2020-12-20T12:18:20Z</time>
      </trkpt>
      <trkpt lat="47.85672" lon="-1.05506">
        <ele>66.4</ele>
        <time>2020-12-20T12:18:21Z</time>
      </trkpt>
      <trkpt lat="47.85671" lon="-1.05519">
        <ele>66.5</ele>
        <time>2020-12-20T12:18:23Z</time>
      </trkpt>
      <trkpt lat="47.8567" lon="-1.05526">
        <ele>66.5</ele>
        <time>2020-12-20T12:18:24Z</time>
      </trkpt>
      <trkpt lat="47.8567" lon="-1.05531">
        <ele>66.6</ele>
        <time>2020-12-20T12:18:25Z</time>
      </trkpt>
      <trkpt lat="47.8567" lon="-1.05538">
        <ele>66.6</ele>
        <time>2020-12-20T12:18:26Z</time>
      </trkpt>
      <trkpt lat="47.8567" lon="-1.05544">
        <ele>66.7</ele>
        <time>2020-12-20T12:18:27Z</time>
      </trkpt>
      <trkpt lat="47.85669" lon="-1.0555">
        <ele>66.7</ele>
        <time>2020-12-20T12:18:28Z</time>
      </trkpt>
      <trkpt lat="47.85669" lon="-1.05557">
        <ele>66.8</ele>
        <time>2020-12-20T12:18:29Z</time>
      </trkpt>
      <trkpt lat="47.85669" lon="-1.05563">
        <ele>66.9</ele>
        <time>2020-12-20T12:18:30Z</time>
      </trkpt>
      <trkpt lat="47.85668" lon="-1.0557">
        <ele>66.9</ele>
        <time>2020-12-20T12:18:31Z</time>
      </trkpt>
      <trkpt lat="47.85668" lon="-1.05576">
        <ele>67</ele>
        <time>2020-12-20T12:18:32Z</time>
      </trkpt>
      <trkpt lat="47.85668" lon="-1.05583">
        <ele>67.1</ele>
        <time>2020-12-20T12:18:33Z</time>
      </trkpt>
      <trkpt lat="47.85667" lon="-1.05589">
        <ele>67</ele>
        <time>2020-12-20T12:18:34Z</time>
      </trkpt>
      <trkpt lat="47.85667" lon="-1.05596">
        <ele>67</ele>
        <time>2020-12-20T12:18:35Z</time>
      </trkpt>
      <trkpt lat="47.85666" lon="-1.05603">
        <ele>67</ele>
        <time>2020-12-20T12:18:36Z</time>
      </trkpt>
      <trkpt lat="47.85666" lon="-1.05609">
        <ele>67</ele>
        <time>2020-12-20T12:18:37Z</time>
      </trkpt>
      <trkpt lat="47.85665" lon="-1.05616">
        <ele>66.9</ele>
        <time>2020-12-20T12:18:38Z</time>
      </trkpt>
      <trkpt lat="47.85665" lon="-1.05623">
        <ele>66.9</ele>
        <time>2020-12-20T12:18:39Z</time>
      </trkpt>
      <trkpt lat="47.85665" lon="-1.05629">
        <ele>66.9</ele>
        <time>2020-12-20T12:18:40Z</time>
      </trkpt>
      <trkpt lat="47.85664" lon="-1.05636">
        <ele>66.9</ele>
        <time>2020-12-20T12:18:41Z</time>
      </trkpt>
      <trkpt lat="47.85664" lon="-1.05642">
        <ele>66.9</ele>
        <time>2020-12-20T12:18:42Z</time>
      </trkpt>
      <trkpt lat="47.85664" lon="-1.05649">
        <ele>66.9</ele>
        <time>2020-12-20T12:18:43Z</time>
      </trkpt>
      <trkpt lat="47.85663" lon="-1.05655">
        <ele>66.9</ele>
        <time>2020-12-20T12:18:44Z</time>
      </trkpt>
      <trkpt lat="47.85663" lon="-1.05662">
        <ele>66.9</ele>
        <time>2020-12-20T12:18:45Z</time>
      </trkpt>
      <trkpt lat="47.85662" lon="-1.05668">
        <ele>66.9</ele>
        <time>2020-12-20T12:18:46Z</time>
      </trkpt>
      <trkpt lat="47.85662" lon="-1.05675">
        <ele>66.9</ele>
        <time>2020-12-20T12:18:47Z</time>
      </trkpt>
      <trkpt lat="47.85662" lon="-1.05681">
        <ele>66.9</ele>
        <time>2020-12-20T12:18:48Z</time>
      </trkpt>
      <trkpt lat="47.85662" lon="-1.05688">
        <ele>66.9</ele>
        <time>2020-12-20T12:18:49Z</time>
      </trkpt>
      <trkpt lat="47.85661" lon="-1.05694">
        <ele>66.8</ele>
        <time>2020-12-20T12:18:50Z</time>
      </trkpt>
      <trkpt lat="47.85661" lon="-1.05701">
        <ele>66.8</ele>
        <time>2020-12-20T12:18:51Z</time>
      </trkpt>
      <trkpt lat="47.85661" lon="-1.05707">
        <ele>66.8</ele>
        <time>2020-12-20T12:18:52Z</time>
      </trkpt>
      <trkpt lat="47.85661" lon="-1.05714">
        <ele>66.8</ele>
        <time>2020-12-20T12:18:53Z</time>
      </trkpt>
      <trkpt lat="47.8566" lon="-1.0572">
        <ele>66.8</ele>
        <time>2020-12-20T12:18:54Z</time>
      </trkpt>
      <trkpt lat="47.8566" lon="-1.05727">
        <ele>66.8</ele>
        <time>2020-12-20T12:18:55Z</time>
      </trkpt>
      <trkpt lat="47.85659" lon="-1.05733">
        <ele>66.7</ele>
        <time>2020-12-20T12:18:56Z</time>
      </trkpt>
      <trkpt lat="47.85659" lon="-1.0574">
        <ele>66.7</ele>
        <time>2020-12-20T12:18:57Z</time>
      </trkpt>
      <trkpt lat="47.85659" lon="-1.05746">
        <ele>66.7</ele>
        <time>2020-12-20T12:18:58Z</time>
      </trkpt>
      <trkpt lat="47.85659" lon="-1.05753">
        <ele>66.8</ele>
        <time>2020-12-20T12:18:59Z</time>
      </trkpt>
      <trkpt lat="47.85658" lon="-1.05759">
        <ele>66.8</ele>
        <time>2020-12-20T12:19:00Z</time>
      </trkpt>
      <trkpt lat="47.85658" lon="-1.05765">
        <ele>66.9</ele>
        <time>2020-12-20T12:19:01Z</time>
      </trkpt>
      <trkpt lat="47.85658" lon="-1.05772">
        <ele>67</ele>
        <time>2020-12-20T12:19:02Z</time>
      </trkpt>
      <trkpt lat="47.85658" lon="-1.05778">
        <ele>67.1</ele>
        <time>2020-12-20T12:19:03Z</time>
      </trkpt>
      <trkpt lat="47.85657" lon="-1.05785">
        <ele>67.1</ele>
        <time>2020-12-20T12:19:04Z</time>
      </trkpt>
      <trkpt lat="47.85657" lon="-1.05791">
        <ele>67.2</ele>
        <time>2020-12-20T12:19:05Z</time>
      </trkpt>
      <trkpt lat="47.85657" lon="-1.05797">
        <ele>67.3</ele>
        <time>2020-12-20T12:19:06Z</time>
      </trkpt>
      <trkpt lat="47.85656" lon="-1.05803">
        <ele>67.3</ele>
        <time>2020-12-20T12:19:07Z</time>
      </trkpt>
      <trkpt lat="47.85656" lon="-1.0581">
        <ele>67.4</ele>
        <time>2020-12-20T12:19:08Z</time>
      </trkpt>
      <trkpt lat="47.85656" lon="-1.05816">
        <ele>67.5</ele>
        <time>2020-12-20T12:19:09Z</time>
      </trkpt>
      <trkpt lat="47.85655" lon="-1.05822">
        <ele>67.6</ele>
        <time>2020-12-20T12:19:10Z</time>
      </trkpt>
      <trkpt lat="47.85655" lon="-1.05828">
        <ele>67.6</ele>
        <time>2020-12-20T12:19:11Z</time>
      </trkpt>
      <trkpt lat="47.85655" lon="-1.05834">
        <ele>67.7</ele>
        <time>2020-12-20T12:19:12Z</time>
      </trkpt>
      <trkpt lat="47.85655" lon="-1.05839">
        <ele>67.8</ele>
        <time>2020-12-20T12:19:13Z</time>
      </trkpt>
      <trkpt lat="47.85655" lon="-1.05845">
        <ele>67.9</ele>
        <time>2020-12-20T12:19:14Z</time>
      </trkpt>
      <trkpt lat="47.85655" lon="-1.05852">
        <ele>68</ele>
        <time>2020-12-20T12:19:15Z</time>
      </trkpt>
      <trkpt lat="47.85655" lon="-1.05858">
        <ele>68.1</ele>
        <time>2020-12-20T12:19:16Z</time>
      </trkpt>
      <trkpt lat="47.85655" lon="-1.05864">
        <ele>68.1</ele>
        <time>2020-12-20T12:19:17Z</time>
      </trkpt>
      <trkpt lat="47.85655" lon="-1.05872">
        <ele>68.2</ele>
        <time>2020-12-20T12:19:18Z</time>
      </trkpt>
      <trkpt lat="47.85655" lon="-1.05877">
        <ele>68.3</ele>
        <time>2020-12-20T12:19:19Z</time>
      </trkpt>
      <trkpt lat="47.85654" lon="-1.05884">
        <ele>68.4</ele>
        <time>2020-12-20T12:19:20Z</time>
      </trkpt>
      <trkpt lat="47.85655" lon="-1.0589">
        <ele>68.5</ele>
        <time>2020-12-20T12:19:21Z</time>
      </trkpt>
      <trkpt lat="47.85655" lon="-1.05897">
        <ele>68.6</ele>
        <time>2020-12-20T12:19:22Z</time>
      </trkpt>
      <trkpt lat="47.85655" lon="-1.05903">
        <ele>68.7</ele>
        <time>2020-12-20T12:19:23Z</time>
      </trkpt>
      <trkpt lat="47.85656" lon="-1.05909">
        <ele>68.8</ele>
        <time>2020-12-20T12:19:24Z</time>
      </trkpt>
      <trkpt lat="47.85657" lon="-1.05915">
        <ele>68.9</ele>
        <time>2020-12-20T12:19:25Z</time>
      </trkpt>
      <trkpt lat="47.85658" lon="-1.05922">
        <ele>68.9</ele>
        <time>2020-12-20T12:19:26Z</time>
      </trkpt>
      <trkpt lat="47.85659" lon="-1.05928">
        <ele>68.9</ele>
        <time>2020-12-20T12:19:27Z</time>
      </trkpt>
      <trkpt lat="47.8566" lon="-1.05933">
        <ele>69</ele>
        <time>2020-12-20T12:19:28Z</time>
      </trkpt>
      <trkpt lat="47.85662" lon="-1.05939">
        <ele>69</ele>
        <time>2020-12-20T12:19:29Z</time>
      </trkpt>
      <trkpt lat="47.85663" lon="-1.05945">
        <ele>69</ele>
        <time>2020-12-20T12:19:30Z</time>
      </trkpt>
      <trkpt lat="47.85664" lon="-1.0595">
        <ele>69</ele>
        <time>2020-12-20T12:19:31Z</time>
      </trkpt>
      <trkpt lat="47.85666" lon="-1.05956">
        <ele>69</ele>
        <time>2020-12-20T12:19:32Z</time>
      </trkpt>
      <trkpt lat="47.85667" lon="-1.05961">
        <ele>69</ele>
        <time>2020-12-20T12:19:33Z</time>
      </trkpt>
      <trkpt lat="47.85668" lon="-1.05966">
        <ele>69</ele>
        <time>2020-12-20T12:19:34Z</time>
      </trkpt>
      <trkpt lat="47.8567" lon="-1.05971">
        <ele>69</ele>
        <time>2020-12-20T12:19:35Z</time>
      </trkpt>
      <trkpt lat="47.85672" lon="-1.05976">
        <ele>69</ele>
        <time>2020-12-20T12:19:36Z</time>
      </trkpt>
      <trkpt lat="47.85674" lon="-1.05981">
        <ele>69</ele>
        <time>2020-12-20T12:19:37Z</time>
      </trkpt>
      <trkpt lat="47.85675" lon="-1.05985">
        <ele>69</ele>
        <time>2020-12-20T12:19:38Z</time>
      </trkpt>
      <trkpt lat="47.85677" lon="-1.0599">
        <ele>69</ele>
        <time>2020-12-20T12:19:39Z</time>
      </trkpt>
      <trkpt lat="47.85678" lon="-1.05995">
        <ele>69</ele>
        <time>2020-12-20T12:19:40Z</time>
      </trkpt>
      <trkpt lat="47.8568" lon="-1.05999">
        <ele>69</ele>
        <time>2020-12-20T12:19:41Z</time>
      </trkpt>
      <trkpt lat="47.85682" lon="-1.06004">
        <ele>69.1</ele>
        <time>2020-12-20T12:19:42Z</time>
      </trkpt>
      <trkpt lat="47.85683" lon="-1.06008">
        <ele>69.2</ele>
        <time>2020-12-20T12:19:43Z</time>
      </trkpt>
      <trkpt lat="47.85685" lon="-1.06012">
        <ele>69.3</ele>
        <time>2020-12-20T12:19:44Z</time>
      </trkpt>
      <trkpt lat="47.85687" lon="-1.06017">
        <ele>69.4</ele>
        <time>2020-12-20T12:19:45Z</time>
      </trkpt>
      <trkpt lat="47.85689" lon="-1.06021">
        <ele>69.5</ele>
        <time>2020-12-20T12:19:46Z</time>
      </trkpt>
      <trkpt lat="47.8569" lon="-1.06025">
        <ele>69.6</ele>
        <time>2020-12-20T12:19:47Z</time>
      </trkpt>
      <trkpt lat="47.85691" lon="-1.0603">
        <ele>69.7</ele>
        <time>2020-12-20T12:19:48Z</time>
      </trkpt>
      <trkpt lat="47.85693" lon="-1.06034">
        <ele>69.8</ele>
        <time>2020-12-20T12:19:49Z</time>
      </trkpt>
      <trkpt lat="47.85694" lon="-1.06038">
        <ele>69.9</ele>
        <time>2020-12-20T12:19:50Z</time>
      </trkpt>
      <trkpt lat="47.85696" lon="-1.06042">
        <ele>70</ele>
        <time>2020-12-20T12:19:51Z</time>
      </trkpt>
      <trkpt lat="47.85698" lon="-1.06047">
        <ele>70.1</ele>
        <time>2020-12-20T12:19:52Z</time>
      </trkpt>
      <trkpt lat="47.85699" lon="-1.06051">
        <ele>70.2</ele>
        <time>2020-12-20T12:19:53Z</time>
      </trkpt>
      <trkpt lat="47.857" lon="-1.06055">
        <ele>70.3</ele>
        <time>2020-12-20T12:19:54Z</time>
      </trkpt>
      <trkpt lat="47.85701" lon="-1.06059">
        <ele>70.4</ele>
        <time>2020-12-20T12:19:55Z</time>
      </trkpt>
      <trkpt lat="47.85703" lon="-1.06064">
        <ele>70.5</ele>
        <time>2020-12-20T12:19:56Z</time>
      </trkpt>
      <trkpt lat="47.85705" lon="-1.06068">
        <ele>70.6</ele>
        <time>2020-12-20T12:19:57Z</time>
      </trkpt>
      <trkpt lat="47.85706" lon="-1.06072">
        <ele>70.7</ele>
        <time>2020-12-20T12:19:58Z</time>
      </trkpt>
      <trkpt lat="47.85708" lon="-1.06077">
        <ele>70.8</ele>
        <time>2020-12-20T12:19:59Z</time>
      </trkpt>
      <trkpt lat="47.8571" lon="-1.06081">
        <ele>70.9</ele>
        <time>2020-12-20T12:20:00Z</time>
      </trkpt>
      <trkpt lat="47.85712" lon="-1.06086">
        <ele>71.1</ele>
        <time>2020-12-20T12:20:01Z</time>
      </trkpt>
      <trkpt lat="47.85715" lon="-1.06095">
        <ele>71.3</ele>
        <time>2020-12-20T12:20:03Z</time>
      </trkpt>
      <trkpt lat="47.85717" lon="-1.06099">
        <ele>71.4</ele>
        <time>2020-12-20T12:20:04Z</time>
      </trkpt>
      <trkpt lat="47.85719" lon="-1.06104">
        <ele>71.5</ele>
        <time>2020-12-20T12:20:05Z</time>
      </trkpt>
      <trkpt lat="47.85721" lon="-1.06109">
        <ele>71.6</ele>
        <time>2020-12-20T12:20:06Z</time>
      </trkpt>
      <trkpt lat="47.85722" lon="-1.06113">
        <ele>71.7</ele>
        <time>2020-12-20T12:20:07Z</time>
      </trkpt>
      <trkpt lat="47.85726" lon="-1.06121">
        <ele>71.9</ele>
        <time>2020-12-20T12:20:09Z</time>
      </trkpt>
      <trkpt lat="47.85727" lon="-1.06126">
        <ele>72</ele>
        <time>2020-12-20T12:20:10Z</time>
      </trkpt>
      <trkpt lat="47.85729" lon="-1.0613">
        <ele>72.1</ele>
        <time>2020-12-20T12:20:11Z</time>
      </trkpt>
      <trkpt lat="47.8573" lon="-1.06133">
        <ele>72.2</ele>
        <time>2020-12-20T12:20:12Z</time>
      </trkpt>
      <trkpt lat="47.85732" lon="-1.06138">
        <ele>72.3</ele>
        <time>2020-12-20T12:20:13Z</time>
      </trkpt>
      <trkpt lat="47.85733" lon="-1.06142">
        <ele>72.4</ele>
        <time>2020-12-20T12:20:14Z</time>
      </trkpt>
      <trkpt lat="47.85735" lon="-1.06146">
        <ele>72.5</ele>
        <time>2020-12-20T12:20:15Z</time>
      </trkpt>
      <trkpt lat="47.85738" lon="-1.06153">
        <ele>72.7</ele>
        <time>2020-12-20T12:20:17Z</time>
      </trkpt>
      <trkpt lat="47.85739" lon="-1.06157">
        <ele>72.8</ele>
        <time>2020-12-20T12:20:18Z</time>
      </trkpt>
      <trkpt lat="47.85741" lon="-1.06162">
        <ele>72.9</ele>
        <time>2020-12-20T12:20:19Z</time>
      </trkpt>
      <trkpt lat="47.85742" lon="-1.06165">
        <ele>73</ele>
        <time>2020-12-20T12:20:20Z</time>
      </trkpt>
      <trkpt lat="47.85744" lon="-1.06169">
        <ele>73</ele>
        <time>2020-12-20T12:20:21Z</time>
      </trkpt>
      <trkpt lat="47.85745" lon="-1.06173">
        <ele>73</ele>
        <time>2020-12-20T12:20:22Z</time>
      </trkpt>
      <trkpt lat="47.85746" lon="-1.06177">
        <ele>73</ele>
        <time>2020-12-20T12:20:23Z</time>
      </trkpt>
      <trkpt lat="47.85748" lon="-1.06181">
        <ele>73</ele>
        <time>2020-12-20T12:20:24Z</time>
      </trkpt>
      <trkpt lat="47.8575" lon="-1.06185">
        <ele>73</ele>
        <time>2020-12-20T12:20:25Z</time>
      </trkpt>
      <trkpt lat="47.85751" lon="-1.0619">
        <ele>73</ele>
        <time>2020-12-20T12:20:26Z</time>
      </trkpt>
      <trkpt lat="47.85752" lon="-1.06194">
        <ele>73</ele>
        <time>2020-12-20T12:20:27Z</time>
      </trkpt>
      <trkpt lat="47.85754" lon="-1.06198">
        <ele>73</ele>
        <time>2020-12-20T12:20:28Z</time>
      </trkpt>
      <trkpt lat="47.85755" lon="-1.06202">
        <ele>73.1</ele>
        <time>2020-12-20T12:20:29Z</time>
      </trkpt>
      <trkpt lat="47.85757" lon="-1.06206">
        <ele>73.1</ele>
        <time>2020-12-20T12:20:30Z</time>
      </trkpt>
      <trkpt lat="47.8576" lon="-1.06215">
        <ele>73.1</ele>
        <time>2020-12-20T12:20:32Z</time>
      </trkpt>
      <trkpt lat="47.85761" lon="-1.06219">
        <ele>73.1</ele>
        <time>2020-12-20T12:20:33Z</time>
      </trkpt>
      <trkpt lat="47.85763" lon="-1.06223">
        <ele>73.2</ele>
        <time>2020-12-20T12:20:34Z</time>
      </trkpt>
      <trkpt lat="47.85764" lon="-1.06228">
        <ele>73.2</ele>
        <time>2020-12-20T12:20:35Z</time>
      </trkpt>
      <trkpt lat="47.85766" lon="-1.06232">
        <ele>73.2</ele>
        <time>2020-12-20T12:20:36Z</time>
      </trkpt>
      <trkpt lat="47.85767" lon="-1.06236">
        <ele>73.2</ele>
        <time>2020-12-20T12:20:37Z</time>
      </trkpt>
      <trkpt lat="47.85769" lon="-1.0624">
        <ele>73.2</ele>
        <time>2020-12-20T12:20:38Z</time>
      </trkpt>
      <trkpt lat="47.85771" lon="-1.06245">
        <ele>73.3</ele>
        <time>2020-12-20T12:20:39Z</time>
      </trkpt>
      <trkpt lat="47.85772" lon="-1.06249">
        <ele>73.3</ele>
        <time>2020-12-20T12:20:40Z</time>
      </trkpt>
      <trkpt lat="47.85774" lon="-1.06254">
        <ele>73.4</ele>
        <time>2020-12-20T12:20:41Z</time>
      </trkpt>
      <trkpt lat="47.85776" lon="-1.06258">
        <ele>73.5</ele>
        <time>2020-12-20T12:20:42Z</time>
      </trkpt>
      <trkpt lat="47.85777" lon="-1.06263">
        <ele>73.6</ele>
        <time>2020-12-20T12:20:43Z</time>
      </trkpt>
      <trkpt lat="47.85779" lon="-1.06267">
        <ele>73.8</ele>
        <time>2020-12-20T12:20:44Z</time>
      </trkpt>
      <trkpt lat="47.85781" lon="-1.06272">
        <ele>73.9</ele>
        <time>2020-12-20T12:20:45Z</time>
      </trkpt>
      <trkpt lat="47.85782" lon="-1.06276">
        <ele>74</ele>
        <time>2020-12-20T12:20:46Z</time>
      </trkpt>
      <trkpt lat="47.85784" lon="-1.06281">
        <ele>74.2</ele>
        <time>2020-12-20T12:20:47Z</time>
      </trkpt>
      <trkpt lat="47.85785" lon="-1.06285">
        <ele>74.3</ele>
        <time>2020-12-20T12:20:48Z</time>
      </trkpt>
      <trkpt lat="47.85787" lon="-1.0629">
        <ele>74.4</ele>
        <time>2020-12-20T12:20:49Z</time>
      </trkpt>
      <trkpt lat="47.85789" lon="-1.06294">
        <ele>74.5</ele>
        <time>2020-12-20T12:20:50Z</time>
      </trkpt>
      <trkpt lat="47.8579" lon="-1.06299">
        <ele>74.7</ele>
        <time>2020-12-20T12:20:51Z</time>
      </trkpt>
      <trkpt lat="47.85792" lon="-1.06304">
        <ele>74.8</ele>
        <time>2020-12-20T12:20:52Z</time>
      </trkpt>
      <trkpt lat="47.85794" lon="-1.06308">
        <ele>74.9</ele>
        <time>2020-12-20T12:20:53Z</time>
      </trkpt>
      <trkpt lat="47.85795" lon="-1.06313">
        <ele>75.1</ele>
        <time>2020-12-20T12:20:54Z</time>
      </trkpt>
      <trkpt lat="47.85797" lon="-1.06317">
        <ele>75.2</ele>
        <time>2020-12-20T12:20:55Z</time>
      </trkpt>
      <trkpt lat="47.85799" lon="-1.06321">
        <ele>75.3</ele>
        <time>2020-12-20T12:20:56Z</time>
      </trkpt>
      <trkpt lat="47.858" lon="-1.06326">
        <ele>75.4</ele>
        <time>2020-12-20T12:20:57Z</time>
      </trkpt>
      <trkpt lat="47.85802" lon="-1.06331">
        <ele>75.6</ele>
        <time>2020-12-20T12:20:58Z</time>
      </trkpt>
      <trkpt lat="47.85803" lon="-1.06335">
        <ele>75.6</ele>
        <time>2020-12-20T12:20:59Z</time>
      </trkpt>
      <trkpt lat="47.85805" lon="-1.0634">
        <ele>75.6</ele>
        <time>2020-12-20T12:21:00Z</time>
      </trkpt>
      <trkpt lat="47.85807" lon="-1.06345">
        <ele>75.6</ele>
        <time>2020-12-20T12:21:01Z</time>
      </trkpt>
      <trkpt lat="47.85808" lon="-1.06349">
        <ele>75.6</ele>
        <time>2020-12-20T12:21:02Z</time>
      </trkpt>
      <trkpt lat="47.8581" lon="-1.06354">
        <ele>75.5</ele>
        <time>2020-12-20T12:21:03Z</time>
      </trkpt>
      <trkpt lat="47.85812" lon="-1.06358">
        <ele>75.5</ele>
        <time>2020-12-20T12:21:04Z</time>
      </trkpt>
      <trkpt lat="47.85814" lon="-1.06363">
        <ele>75.5</ele>
        <time>2020-12-20T12:21:05Z</time>
      </trkpt>
      <trkpt lat="47.85815" lon="-1.06367">
        <ele>75.5</ele>
        <time>2020-12-20T12:21:06Z</time>
      </trkpt>
      <trkpt lat="47.85817" lon="-1.06372">
        <ele>75.4</ele>
        <time>2020-12-20T12:21:07Z</time>
      </trkpt>
      <trkpt lat="47.85819" lon="-1.06377">
        <ele>75.4</ele>
        <time>2020-12-20T12:21:08Z</time>
      </trkpt>
      <trkpt lat="47.8582" lon="-1.06382">
        <ele>75.3</ele>
        <time>2020-12-20T12:21:09Z</time>
      </trkpt>
      <trkpt lat="47.85822" lon="-1.06387">
        <ele>75.3</ele>
        <time>2020-12-20T12:21:10Z</time>
      </trkpt>
      <trkpt lat="47.85823" lon="-1.06391">
        <ele>75.3</ele>
        <time>2020-12-20T12:21:11Z</time>
      </trkpt>
      <trkpt lat="47.85825" lon="-1.06396">
        <ele>75.2</ele>
        <time>2020-12-20T12:21:12Z</time>
      </trkpt>
      <trkpt lat="47.85827" lon="-1.06401">
        <ele>75.2</ele>
        <time>2020-12-20T12:21:13Z</time>
      </trkpt>
      <trkpt lat="47.85828" lon="-1.06406">
        <ele>75.1</ele>
        <time>2020-12-20T12:21:14Z</time>
      </trkpt>
      <trkpt lat="47.8583" lon="-1.0641">
        <ele>75.1</ele>
        <time>2020-12-20T12:21:15Z</time>
      </trkpt>
      <trkpt lat="47.85831" lon="-1.06415">
        <ele>75</ele>
        <time>2020-12-20T12:21:16Z</time>
      </trkpt>
      <trkpt lat="47.85833" lon="-1.0642">
        <ele>75.1</ele>
        <time>2020-12-20T12:21:17Z</time>
      </trkpt>
      <trkpt lat="47.85834" lon="-1.06425">
        <ele>75.2</ele>
        <time>2020-12-20T12:21:18Z</time>
      </trkpt>
      <trkpt lat="47.85835" lon="-1.0643">
        <ele>75.3</ele>
        <time>2020-12-20T12:21:19Z</time>
      </trkpt>
      <trkpt lat="47.85836" lon="-1.06435">
        <ele>75.4</ele>
        <time>2020-12-20T12:21:20Z</time>
      </trkpt>
      <trkpt lat="47.85838" lon="-1.06441">
        <ele>75.6</ele>
        <time>2020-12-20T12:21:21Z</time>
      </trkpt>
      <trkpt lat="47.85839" lon="-1.06446">
        <ele>75.7</ele>
        <time>2020-12-20T12:21:22Z</time>
      </trkpt>
      <trkpt lat="47.8584" lon="-1.06452">
        <ele>75.8</ele>
        <time>2020-12-20T12:21:23Z</time>
      </trkpt>
      <trkpt lat="47.85841" lon="-1.06457">
        <ele>75.9</ele>
        <time>2020-12-20T12:21:24Z</time>
      </trkpt>
      <trkpt lat="47.85842" lon="-1.06463">
        <ele>76.1</ele>
        <time>2020-12-20T12:21:25Z</time>
      </trkpt>
      <trkpt lat="47.85843" lon="-1.06468">
        <ele>76.2</ele>
        <time>2020-12-20T12:21:26Z</time>
      </trkpt>
      <trkpt lat="47.85844" lon="-1.06474">
        <ele>76.3</ele>
        <time>2020-12-20T12:21:27Z</time>
      </trkpt>
      <trkpt lat="47.85845" lon="-1.06479">
        <ele>76.4</ele>
        <time>2020-12-20T12:21:28Z</time>
      </trkpt>
      <trkpt lat="47.85846" lon="-1.06485">
        <ele>76.5</ele>
        <time>2020-12-20T12:21:29Z</time>
      </trkpt>
      <trkpt lat="47.85846" lon="-1.0649">
        <ele>76.6</ele>
        <time>2020-12-20T12:21:30Z</time>
      </trkpt>
      <trkpt lat="47.85847" lon="-1.06496">
        <ele>76.7</ele>
        <time>2020-12-20T12:21:31Z</time>
      </trkpt>
      <trkpt lat="47.85848" lon="-1.06502">
        <ele>76.8</ele>
        <time>2020-12-20T12:21:32Z</time>
      </trkpt>
      <trkpt lat="47.85849" lon="-1.06507">
        <ele>76.9</ele>
        <time>2020-12-20T12:21:33Z</time>
      </trkpt>
      <trkpt lat="47.8585" lon="-1.06514">
        <ele>76.9</ele>
        <time>2020-12-20T12:21:34Z</time>
      </trkpt>
      <trkpt lat="47.85851" lon="-1.06519">
        <ele>77</ele>
        <time>2020-12-20T12:21:35Z</time>
      </trkpt>
      <trkpt lat="47.85852" lon="-1.06525">
        <ele>77</ele>
        <time>2020-12-20T12:21:36Z</time>
      </trkpt>
      <trkpt lat="47.85853" lon="-1.06531">
        <ele>77</ele>
        <time>2020-12-20T12:21:37Z</time>
      </trkpt>
      <trkpt lat="47.85854" lon="-1.06537">
        <ele>77.1</ele>
        <time>2020-12-20T12:21:38Z</time>
      </trkpt>
      <trkpt lat="47.85855" lon="-1.06543">
        <ele>77.1</ele>
        <time>2020-12-20T12:21:39Z</time>
      </trkpt>
      <trkpt lat="47.85856" lon="-1.06549">
        <ele>77.2</ele>
        <time>2020-12-20T12:21:40Z</time>
      </trkpt>
      <trkpt lat="47.85857" lon="-1.06556">
        <ele>77.2</ele>
        <time>2020-12-20T12:21:41Z</time>
      </trkpt>
      <trkpt lat="47.85858" lon="-1.06563">
        <ele>77.2</ele>
        <time>2020-12-20T12:21:42Z</time>
      </trkpt>
      <trkpt lat="47.85859" lon="-1.06567">
        <ele>77.2</ele>
        <time>2020-12-20T12:21:43Z</time>
      </trkpt>
      <trkpt lat="47.8586" lon="-1.06572">
        <ele>77.3</ele>
        <time>2020-12-20T12:21:44Z</time>
      </trkpt>
      <trkpt lat="47.85861" lon="-1.06578">
        <ele>77.3</ele>
        <time>2020-12-20T12:21:45Z</time>
      </trkpt>
      <trkpt lat="47.85863" lon="-1.06584">
        <ele>77.3</ele>
        <time>2020-12-20T12:21:46Z</time>
      </trkpt>
      <trkpt lat="47.85864" lon="-1.06589">
        <ele>77.2</ele>
        <time>2020-12-20T12:21:47Z</time>
      </trkpt>
      <trkpt lat="47.85865" lon="-1.06595">
        <ele>77</ele>
        <time>2020-12-20T12:21:48Z</time>
      </trkpt>
      <trkpt lat="47.85866" lon="-1.06601">
        <ele>76.9</ele>
        <time>2020-12-20T12:21:49Z</time>
      </trkpt>
      <trkpt lat="47.85867" lon="-1.06607">
        <ele>76.7</ele>
        <time>2020-12-20T12:21:50Z</time>
      </trkpt>
      <trkpt lat="47.85868" lon="-1.06613">
        <ele>76.6</ele>
        <time>2020-12-20T12:21:51Z</time>
      </trkpt>
      <trkpt lat="47.85869" lon="-1.06619">
        <ele>76.5</ele>
        <time>2020-12-20T12:21:52Z</time>
      </trkpt>
      <trkpt lat="47.8587" lon="-1.06625">
        <ele>76.3</ele>
        <time>2020-12-20T12:21:53Z</time>
      </trkpt>
      <trkpt lat="47.85871" lon="-1.06631">
        <ele>76.2</ele>
        <time>2020-12-20T12:21:54Z</time>
      </trkpt>
      <trkpt lat="47.85872" lon="-1.06636">
        <ele>76.1</ele>
        <time>2020-12-20T12:21:55Z</time>
      </trkpt>
      <trkpt lat="47.85873" lon="-1.06642">
        <ele>76</ele>
        <time>2020-12-20T12:21:56Z</time>
      </trkpt>
      <trkpt lat="47.85874" lon="-1.06648">
        <ele>75.9</ele>
        <time>2020-12-20T12:21:57Z</time>
      </trkpt>
      <trkpt lat="47.85875" lon="-1.06654">
        <ele>75.7</ele>
        <time>2020-12-20T12:21:58Z</time>
      </trkpt>
      <trkpt lat="47.85876" lon="-1.0666">
        <ele>75.6</ele>
        <time>2020-12-20T12:21:59Z</time>
      </trkpt>
      <trkpt lat="47.85878" lon="-1.06665">
        <ele>75.5</ele>
        <time>2020-12-20T12:22:00Z</time>
      </trkpt>
      <trkpt lat="47.8588" lon="-1.06671">
        <ele>75.4</ele>
        <time>2020-12-20T12:22:01Z</time>
      </trkpt>
      <trkpt lat="47.85883" lon="-1.06676">
        <ele>75.3</ele>
        <time>2020-12-20T12:22:02Z</time>
      </trkpt>
      <trkpt lat="47.85886" lon="-1.06681">
        <ele>75.2</ele>
        <time>2020-12-20T12:22:03Z</time>
      </trkpt>
      <trkpt lat="47.85888" lon="-1.06687">
        <ele>75.1</ele>
        <time>2020-12-20T12:22:04Z</time>
      </trkpt>
      <trkpt lat="47.85891" lon="-1.06692">
        <ele>75</ele>
        <time>2020-12-20T12:22:05Z</time>
      </trkpt>
      <trkpt lat="47.85894" lon="-1.06696">
        <ele>74.9</ele>
        <time>2020-12-20T12:22:06Z</time>
      </trkpt>
      <trkpt lat="47.85897" lon="-1.06701">
        <ele>74.8</ele>
        <time>2020-12-20T12:22:07Z</time>
      </trkpt>
      <trkpt lat="47.859" lon="-1.06706">
        <ele>74.7</ele>
        <time>2020-12-20T12:22:08Z</time>
      </trkpt>
      <trkpt lat="47.85903" lon="-1.06711">
        <ele>74.6</ele>
        <time>2020-12-20T12:22:09Z</time>
      </trkpt>
      <trkpt lat="47.85906" lon="-1.06717">
        <ele>74.5</ele>
        <time>2020-12-20T12:22:10Z</time>
      </trkpt>
      <trkpt lat="47.85909" lon="-1.06721">
        <ele>74.4</ele>
        <time>2020-12-20T12:22:11Z</time>
      </trkpt>
      <trkpt lat="47.85912" lon="-1.06725">
        <ele>74.4</ele>
        <time>2020-12-20T12:22:12Z</time>
      </trkpt>
      <trkpt lat="47.85916" lon="-1.06729">
        <ele>74.3</ele>
        <time>2020-12-20T12:22:13Z</time>
      </trkpt>
      <trkpt lat="47.85919" lon="-1.06734">
        <ele>74.1</ele>
        <time>2020-12-20T12:22:14Z</time>
      </trkpt>
      <trkpt lat="47.85923" lon="-1.06738">
        <ele>74</ele>
        <time>2020-12-20T12:22:15Z</time>
      </trkpt>
      <trkpt lat="47.85926" lon="-1.06743">
        <ele>73.9</ele>
        <time>2020-12-20T12:22:16Z</time>
      </trkpt>
      <trkpt lat="47.8593" lon="-1.06748">
        <ele>73.7</ele>
        <time>2020-12-20T12:22:17Z</time>
      </trkpt>
      <trkpt lat="47.85933" lon="-1.06753">
        <ele>73.6</ele>
        <time>2020-12-20T12:22:18Z</time>
      </trkpt>
      <trkpt lat="47.85936" lon="-1.06757">
        <ele>73.5</ele>
        <time>2020-12-20T12:22:19Z</time>
      </trkpt>
      <trkpt lat="47.8594" lon="-1.06762">
        <ele>73.3</ele>
        <time>2020-12-20T12:22:20Z</time>
      </trkpt>
      <trkpt lat="47.85943" lon="-1.06767">
        <ele>73.2</ele>
        <time>2020-12-20T12:22:21Z</time>
      </trkpt>
      <trkpt lat="47.85947" lon="-1.06772">
        <ele>73</ele>
        <time>2020-12-20T12:22:22Z</time>
      </trkpt>
      <trkpt lat="47.85951" lon="-1.06777">
        <ele>72.9</ele>
        <time>2020-12-20T12:22:23Z</time>
      </trkpt>
      <trkpt lat="47.85954" lon="-1.06782">
        <ele>72.7</ele>
        <time>2020-12-20T12:22:24Z</time>
      </trkpt>
      <trkpt lat="47.85958" lon="-1.06787">
        <ele>72.6</ele>
        <time>2020-12-20T12:22:25Z</time>
      </trkpt>
      <trkpt lat="47.85962" lon="-1.06792">
        <ele>72.4</ele>
        <time>2020-12-20T12:22:26Z</time>
      </trkpt>
      <trkpt lat="47.85966" lon="-1.06797">
        <ele>72.3</ele>
        <time>2020-12-20T12:22:27Z</time>
      </trkpt>
      <trkpt lat="47.85969" lon="-1.06803">
        <ele>72.1</ele>
        <time>2020-12-20T12:22:28Z</time>
      </trkpt>
      <trkpt lat="47.85973" lon="-1.06808">
        <ele>72</ele>
        <time>2020-12-20T12:22:29Z</time>
      </trkpt>
      <trkpt lat="47.85976" lon="-1.06813">
        <ele>71.8</ele>
        <time>2020-12-20T12:22:30Z</time>
      </trkpt>
      <trkpt lat="47.8598" lon="-1.06818">
        <ele>71.7</ele>
        <time>2020-12-20T12:22:31Z</time>
      </trkpt>
      <trkpt lat="47.85984" lon="-1.06823">
        <ele>71.5</ele>
        <time>2020-12-20T12:22:32Z</time>
      </trkpt>
      <trkpt lat="47.85988" lon="-1.06829">
        <ele>71.3</ele>
        <time>2020-12-20T12:22:33Z</time>
      </trkpt>
      <trkpt lat="47.85992" lon="-1.06834">
        <ele>71.2</ele>
        <time>2020-12-20T12:22:34Z</time>
      </trkpt>
      <trkpt lat="47.85995" lon="-1.0684">
        <ele>71</ele>
        <time>2020-12-20T12:22:35Z</time>
      </trkpt>
      <trkpt lat="47.85999" lon="-1.06845">
        <ele>70.9</ele>
        <time>2020-12-20T12:22:36Z</time>
      </trkpt>
      <trkpt lat="47.86003" lon="-1.0685">
        <ele>70.7</ele>
        <time>2020-12-20T12:22:37Z</time>
      </trkpt>
      <trkpt lat="47.86007" lon="-1.06855">
        <ele>70.5</ele>
        <time>2020-12-20T12:22:38Z</time>
      </trkpt>
      <trkpt lat="47.86011" lon="-1.06861">
        <ele>70.4</ele>
        <time>2020-12-20T12:22:39Z</time>
      </trkpt>
      <trkpt lat="47.86015" lon="-1.06866">
        <ele>70.2</ele>
        <time>2020-12-20T12:22:40Z</time>
      </trkpt>
      <trkpt lat="47.86019" lon="-1.06872">
        <ele>70.1</ele>
        <time>2020-12-20T12:22:41Z</time>
      </trkpt>
      <trkpt lat="47.86024" lon="-1.06877">
        <ele>69.9</ele>
        <time>2020-12-20T12:22:42Z</time>
      </trkpt>
      <trkpt lat="47.86028" lon="-1.06883">
        <ele>69.8</ele>
        <time>2020-12-20T12:22:43Z</time>
      </trkpt>
      <trkpt lat="47.86032" lon="-1.06889">
        <ele>69.7</ele>
        <time>2020-12-20T12:22:44Z</time>
      </trkpt>
      <trkpt lat="47.86036" lon="-1.06895">
        <ele>69.6</ele>
        <time>2020-12-20T12:22:45Z</time>
      </trkpt>
      <trkpt lat="47.86041" lon="-1.06901">
        <ele>69.5</ele>
        <time>2020-12-20T12:22:46Z</time>
      </trkpt>
      <trkpt lat="47.86045" lon="-1.06908">
        <ele>69.5</ele>
        <time>2020-12-20T12:22:47Z</time>
      </trkpt>
      <trkpt lat="47.8605" lon="-1.06914">
        <ele>69.4</ele>
        <time>2020-12-20T12:22:48Z</time>
      </trkpt>
      <trkpt lat="47.86054" lon="-1.0692">
        <ele>69.4</ele>
        <time>2020-12-20T12:22:49Z</time>
      </trkpt>
      <trkpt lat="47.86059" lon="-1.06927">
        <ele>69.3</ele>
        <time>2020-12-20T12:22:50Z</time>
      </trkpt>
      <trkpt lat="47.86064" lon="-1.06934">
        <ele>69.2</ele>
        <time>2020-12-20T12:22:51Z</time>
      </trkpt>
      <trkpt lat="47.86069" lon="-1.06941">
        <ele>69.2</ele>
        <time>2020-12-20T12:22:52Z</time>
      </trkpt>
      <trkpt lat="47.86074" lon="-1.06948">
        <ele>69.1</ele>
        <time>2020-12-20T12:22:53Z</time>
      </trkpt>
      <trkpt lat="47.86079" lon="-1.06955">
        <ele>69.1</ele>
        <time>2020-12-20T12:22:54Z</time>
      </trkpt>
      <trkpt lat="47.86084" lon="-1.06962">
        <ele>69</ele>
        <time>2020-12-20T12:22:55Z</time>
      </trkpt>
      <trkpt lat="47.8609" lon="-1.06969">
        <ele>68.9</ele>
        <time>2020-12-20T12:22:56Z</time>
      </trkpt>
      <trkpt lat="47.86095" lon="-1.06976">
        <ele>68.8</ele>
        <time>2020-12-20T12:22:57Z</time>
      </trkpt>
      <trkpt lat="47.861" lon="-1.06984">
        <ele>68.7</ele>
        <time>2020-12-20T12:22:58Z</time>
      </trkpt>
      <trkpt lat="47.86106" lon="-1.06991">
        <ele>68.5</ele>
        <time>2020-12-20T12:22:59Z</time>
      </trkpt>
      <trkpt lat="47.86111" lon="-1.06998">
        <ele>68.4</ele>
        <time>2020-12-20T12:23:00Z</time>
      </trkpt>
      <trkpt lat="47.86116" lon="-1.07006">
        <ele>68.2</ele>
        <time>2020-12-20T12:23:01Z</time>
      </trkpt>
      <trkpt lat="47.86121" lon="-1.07013">
        <ele>68</ele>
        <time>2020-12-20T12:23:02Z</time>
      </trkpt>
      <trkpt lat="47.86125" lon="-1.07019">
        <ele>67.8</ele>
        <time>2020-12-20T12:23:03Z</time>
      </trkpt>
      <trkpt lat="47.8613" lon="-1.07026">
        <ele>67.5</ele>
        <time>2020-12-20T12:23:04Z</time>
      </trkpt>
      <trkpt lat="47.86136" lon="-1.07033">
        <ele>67.1</ele>
        <time>2020-12-20T12:23:05Z</time>
      </trkpt>
      <trkpt lat="47.86139" lon="-1.07038">
        <ele>66.9</ele>
        <time>2020-12-20T12:23:06Z</time>
      </trkpt>
      <trkpt lat="47.86144" lon="-1.07044">
        <ele>66.5</ele>
        <time>2020-12-20T12:23:07Z</time>
      </trkpt>
      <trkpt lat="47.86148" lon="-1.0705">
        <ele>66.2</ele>
        <time>2020-12-20T12:23:08Z</time>
      </trkpt>
      <trkpt lat="47.86151" lon="-1.07057">
        <ele>65.8</ele>
        <time>2020-12-20T12:23:09Z</time>
      </trkpt>
      <trkpt lat="47.86155" lon="-1.07064">
        <ele>65.4</ele>
        <time>2020-12-20T12:23:10Z</time>
      </trkpt>
      <trkpt lat="47.86158" lon="-1.07071">
        <ele>65</ele>
        <time>2020-12-20T12:23:11Z</time>
      </trkpt>
      <trkpt lat="47.8616" lon="-1.07078">
        <ele>64.7</ele>
        <time>2020-12-20T12:23:12Z</time>
      </trkpt>
      <trkpt lat="47.86163" lon="-1.07085">
        <ele>64.2</ele>
        <time>2020-12-20T12:23:13Z</time>
      </trkpt>
      <trkpt lat="47.86166" lon="-1.07092">
        <ele>63.9</ele>
        <time>2020-12-20T12:23:14Z</time>
      </trkpt>
      <trkpt lat="47.86168" lon="-1.07099">
        <ele>63.8</ele>
        <time>2020-12-20T12:23:15Z</time>
      </trkpt>
      <trkpt lat="47.86171" lon="-1.07106">
        <ele>63.7</ele>
        <time>2020-12-20T12:23:16Z</time>
      </trkpt>
      <trkpt lat="47.86173" lon="-1.07113">
        <ele>63.5</ele>
        <time>2020-12-20T12:23:17Z</time>
      </trkpt>
      <trkpt lat="47.86176" lon="-1.07119">
        <ele>63.4</ele>
        <time>2020-12-20T12:23:18Z</time>
      </trkpt>
      <trkpt lat="47.86178" lon="-1.07126">
        <ele>63.4</ele>
        <time>2020-12-20T12:23:19Z</time>
      </trkpt>
      <trkpt lat="47.86181" lon="-1.07132">
        <ele>63.3</ele>
        <time>2020-12-20T12:23:20Z</time>
      </trkpt>
      <trkpt lat="47.86184" lon="-1.07139">
        <ele>63.2</ele>
        <time>2020-12-20T12:23:21Z</time>
      </trkpt>
      <trkpt lat="47.86186" lon="-1.07145">
        <ele>63.1</ele>
        <time>2020-12-20T12:23:22Z</time>
      </trkpt>
      <trkpt lat="47.86189" lon="-1.07152">
        <ele>63.1</ele>
        <time>2020-12-20T12:23:23Z</time>
      </trkpt>
      <trkpt lat="47.86191" lon="-1.07158">
        <ele>63</ele>
        <time>2020-12-20T12:23:24Z</time>
      </trkpt>
      <trkpt lat="47.86193" lon="-1.07164">
        <ele>63</ele>
        <time>2020-12-20T12:23:25Z</time>
      </trkpt>
      <trkpt lat="47.86196" lon="-1.0717">
        <ele>63</ele>
        <time>2020-12-20T12:23:26Z</time>
      </trkpt>
      <trkpt lat="47.86198" lon="-1.07177">
        <ele>63.1</ele>
        <time>2020-12-20T12:23:27Z</time>
      </trkpt>
      <trkpt lat="47.86201" lon="-1.07183">
        <ele>63.1</ele>
        <time>2020-12-20T12:23:28Z</time>
      </trkpt>
      <trkpt lat="47.86203" lon="-1.07189">
        <ele>63.2</ele>
        <time>2020-12-20T12:23:29Z</time>
      </trkpt>
      <trkpt lat="47.86205" lon="-1.07195">
        <ele>63.2</ele>
        <time>2020-12-20T12:23:30Z</time>
      </trkpt>
      <trkpt lat="47.86208" lon="-1.07201">
        <ele>63.2</ele>
        <time>2020-12-20T12:23:31Z</time>
      </trkpt>
      <trkpt lat="47.86211" lon="-1.07207">
        <ele>63.2</ele>
        <time>2020-12-20T12:23:32Z</time>
      </trkpt>
      <trkpt lat="47.86213" lon="-1.07213">
        <ele>63.2</ele>
        <time>2020-12-20T12:23:33Z</time>
      </trkpt>
      <trkpt lat="47.86215" lon="-1.07219">
        <ele>63.3</ele>
        <time>2020-12-20T12:23:34Z</time>
      </trkpt>
      <trkpt lat="47.86218" lon="-1.07226">
        <ele>63.3</ele>
        <time>2020-12-20T12:23:35Z</time>
      </trkpt>
      <trkpt lat="47.8622" lon="-1.07232">
        <ele>63.3</ele>
        <time>2020-12-20T12:23:36Z</time>
      </trkpt>
      <trkpt lat="47.86223" lon="-1.07238">
        <ele>63.3</ele>
        <time>2020-12-20T12:23:37Z</time>
      </trkpt>
      <trkpt lat="47.86225" lon="-1.07245">
        <ele>63.3</ele>
        <time>2020-12-20T12:23:38Z</time>
      </trkpt>
      <trkpt lat="47.86227" lon="-1.07251">
        <ele>63.3</ele>
        <time>2020-12-20T12:23:39Z</time>
      </trkpt>
      <trkpt lat="47.8623" lon="-1.07258">
        <ele>63.2</ele>
        <time>2020-12-20T12:23:40Z</time>
      </trkpt>
      <trkpt lat="47.86233" lon="-1.07264">
        <ele>63.1</ele>
        <time>2020-12-20T12:23:41Z</time>
      </trkpt>
      <trkpt lat="47.86236" lon="-1.07271">
        <ele>63</ele>
        <time>2020-12-20T12:23:42Z</time>
      </trkpt>
      <trkpt lat="47.86238" lon="-1.07277">
        <ele>62.9</ele>
        <time>2020-12-20T12:23:43Z</time>
      </trkpt>
      <trkpt lat="47.86241" lon="-1.07284">
        <ele>62.8</ele>
        <time>2020-12-20T12:23:44Z</time>
      </trkpt>
      <trkpt lat="47.86243" lon="-1.0729">
        <ele>62.7</ele>
        <time>2020-12-20T12:23:45Z</time>
      </trkpt>
      <trkpt lat="47.86245" lon="-1.07297">
        <ele>62.6</ele>
        <time>2020-12-20T12:23:46Z</time>
      </trkpt>
      <trkpt lat="47.86247" lon="-1.07303">
        <ele>62.4</ele>
        <time>2020-12-20T12:23:47Z</time>
      </trkpt>
      <trkpt lat="47.86249" lon="-1.0731">
        <ele>62.3</ele>
        <time>2020-12-20T12:23:48Z</time>
      </trkpt>
      <trkpt lat="47.86252" lon="-1.07317">
        <ele>62.2</ele>
        <time>2020-12-20T12:23:49Z</time>
      </trkpt>
      <trkpt lat="47.86257" lon="-1.07329">
        <ele>62</ele>
        <time>2020-12-20T12:23:51Z</time>
      </trkpt>
      <trkpt lat="47.8626" lon="-1.07335">
        <ele>61.9</ele>
        <time>2020-12-20T12:23:52Z</time>
      </trkpt>
      <trkpt lat="47.86263" lon="-1.07343">
        <ele>61.9</ele>
        <time>2020-12-20T12:23:53Z</time>
      </trkpt>
      <trkpt lat="47.86265" lon="-1.07348">
        <ele>62</ele>
        <time>2020-12-20T12:23:54Z</time>
      </trkpt>
      <trkpt lat="47.86267" lon="-1.07355">
        <ele>62</ele>
        <time>2020-12-20T12:23:55Z</time>
      </trkpt>
      <trkpt lat="47.8627" lon="-1.07361">
        <ele>62</ele>
        <time>2020-12-20T12:23:56Z</time>
      </trkpt>
      <trkpt lat="47.86272" lon="-1.07366">
        <ele>62</ele>
        <time>2020-12-20T12:23:57Z</time>
      </trkpt>
      <trkpt lat="47.86274" lon="-1.07373">
        <ele>62.1</ele>
        <time>2020-12-20T12:23:58Z</time>
      </trkpt>
      <trkpt lat="47.86276" lon="-1.07379">
        <ele>62.1</ele>
        <time>2020-12-20T12:23:59Z</time>
      </trkpt>
      <trkpt lat="47.86279" lon="-1.07386">
        <ele>62.1</ele>
        <time>2020-12-20T12:24:00Z</time>
      </trkpt>
      <trkpt lat="47.86282" lon="-1.07393">
        <ele>62.1</ele>
        <time>2020-12-20T12:24:01Z</time>
      </trkpt>
      <trkpt lat="47.86285" lon="-1.07399">
        <ele>62</ele>
        <time>2020-12-20T12:24:02Z</time>
      </trkpt>
      <trkpt lat="47.86288" lon="-1.07406">
        <ele>62</ele>
        <time>2020-12-20T12:24:03Z</time>
      </trkpt>
      <trkpt lat="47.86291" lon="-1.07412">
        <ele>62</ele>
        <time>2020-12-20T12:24:04Z</time>
      </trkpt>
      <trkpt lat="47.86294" lon="-1.07421">
        <ele>62</ele>
        <time>2020-12-20T12:24:05Z</time>
      </trkpt>
      <trkpt lat="47.86297" lon="-1.07427">
        <ele>61.9</ele>
        <time>2020-12-20T12:24:06Z</time>
      </trkpt>
      <trkpt lat="47.86299" lon="-1.07434">
        <ele>61.9</ele>
        <time>2020-12-20T12:24:07Z</time>
      </trkpt>
      <trkpt lat="47.86302" lon="-1.0744">
        <ele>61.9</ele>
        <time>2020-12-20T12:24:08Z</time>
      </trkpt>
      <trkpt lat="47.86305" lon="-1.07448">
        <ele>61.9</ele>
        <time>2020-12-20T12:24:09Z</time>
      </trkpt>
      <trkpt lat="47.86308" lon="-1.07455">
        <ele>61.9</ele>
        <time>2020-12-20T12:24:10Z</time>
      </trkpt>
      <trkpt lat="47.8631" lon="-1.0746">
        <ele>61.9</ele>
        <time>2020-12-20T12:24:11Z</time>
      </trkpt>
      <trkpt lat="47.86313" lon="-1.07467">
        <ele>61.9</ele>
        <time>2020-12-20T12:24:12Z</time>
      </trkpt>
      <trkpt lat="47.86316" lon="-1.07476">
        <ele>62</ele>
        <time>2020-12-20T12:24:13Z</time>
      </trkpt>
      <trkpt lat="47.86318" lon="-1.07482">
        <ele>62</ele>
        <time>2020-12-20T12:24:14Z</time>
      </trkpt>
      <trkpt lat="47.86321" lon="-1.07491">
        <ele>62.1</ele>
        <time>2020-12-20T12:24:15Z</time>
      </trkpt>
      <trkpt lat="47.86322" lon="-1.07498">
        <ele>62.1</ele>
        <time>2020-12-20T12:24:16Z</time>
      </trkpt>
      <trkpt lat="47.86325" lon="-1.07505">
        <ele>62.1</ele>
        <time>2020-12-20T12:24:17Z</time>
      </trkpt>
      <trkpt lat="47.86327" lon="-1.07512">
        <ele>62.1</ele>
        <time>2020-12-20T12:24:18Z</time>
      </trkpt>
      <trkpt lat="47.8633" lon="-1.07519">
        <ele>62</ele>
        <time>2020-12-20T12:24:19Z</time>
      </trkpt>
      <trkpt lat="47.86332" lon="-1.07526">
        <ele>62</ele>
        <time>2020-12-20T12:24:20Z</time>
      </trkpt>
      <trkpt lat="47.86335" lon="-1.07534">
        <ele>62</ele>
        <time>2020-12-20T12:24:21Z</time>
      </trkpt>
      <trkpt lat="47.86337" lon="-1.07542">
        <ele>62</ele>
        <time>2020-12-20T12:24:22Z</time>
      </trkpt>
      <trkpt lat="47.86339" lon="-1.07547">
        <ele>62</ele>
        <time>2020-12-20T12:24:23Z</time>
      </trkpt>
      <trkpt lat="47.86342" lon="-1.07555">
        <ele>61.9</ele>
        <time>2020-12-20T12:24:24Z</time>
      </trkpt>
      <trkpt lat="47.86345" lon="-1.07561">
        <ele>61.9</ele>
        <time>2020-12-20T12:24:25Z</time>
      </trkpt>
      <trkpt lat="47.86348" lon="-1.07569">
        <ele>61.9</ele>
        <time>2020-12-20T12:24:26Z</time>
      </trkpt>
      <trkpt lat="47.8635" lon="-1.07575">
        <ele>61.8</ele>
        <time>2020-12-20T12:24:27Z</time>
      </trkpt>
      <trkpt lat="47.86353" lon="-1.07584">
        <ele>61.8</ele>
        <time>2020-12-20T12:24:28Z</time>
      </trkpt>
      <trkpt lat="47.86355" lon="-1.07589">
        <ele>61.7</ele>
        <time>2020-12-20T12:24:29Z</time>
      </trkpt>
      <trkpt lat="47.86358" lon="-1.07596">
        <ele>61.7</ele>
        <time>2020-12-20T12:24:30Z</time>
      </trkpt>
      <trkpt lat="47.86361" lon="-1.07605">
        <ele>61.6</ele>
        <time>2020-12-20T12:24:31Z</time>
      </trkpt>
      <trkpt lat="47.86363" lon="-1.0761">
        <ele>61.5</ele>
        <time>2020-12-20T12:24:32Z</time>
      </trkpt>
      <trkpt lat="47.86366" lon="-1.07617">
        <ele>61.4</ele>
        <time>2020-12-20T12:24:33Z</time>
      </trkpt>
      <trkpt lat="47.86369" lon="-1.07624">
        <ele>61.4</ele>
        <time>2020-12-20T12:24:34Z</time>
      </trkpt>
      <trkpt lat="47.86372" lon="-1.07632">
        <ele>61.3</ele>
        <time>2020-12-20T12:24:35Z</time>
      </trkpt>
      <trkpt lat="47.86374" lon="-1.07638">
        <ele>61.2</ele>
        <time>2020-12-20T12:24:36Z</time>
      </trkpt>
      <trkpt lat="47.86377" lon="-1.07647">
        <ele>61.1</ele>
        <time>2020-12-20T12:24:37Z</time>
      </trkpt>
      <trkpt lat="47.86379" lon="-1.07653">
        <ele>61</ele>
        <time>2020-12-20T12:24:38Z</time>
      </trkpt>
      <trkpt lat="47.86382" lon="-1.0766">
        <ele>60.9</ele>
        <time>2020-12-20T12:24:39Z</time>
      </trkpt>
      <trkpt lat="47.86385" lon="-1.07668">
        <ele>60.8</ele>
        <time>2020-12-20T12:24:40Z</time>
      </trkpt>
      <trkpt lat="47.86388" lon="-1.07675">
        <ele>60.7</ele>
        <time>2020-12-20T12:24:41Z</time>
      </trkpt>
      <trkpt lat="47.8639" lon="-1.0768">
        <ele>60.7</ele>
        <time>2020-12-20T12:24:42Z</time>
      </trkpt>
      <trkpt lat="47.86393" lon="-1.07687">
        <ele>60.7</ele>
        <time>2020-12-20T12:24:43Z</time>
      </trkpt>
      <trkpt lat="47.86396" lon="-1.07694">
        <ele>60.7</ele>
        <time>2020-12-20T12:24:44Z</time>
      </trkpt>
      <trkpt lat="47.86399" lon="-1.077">
        <ele>60.7</ele>
        <time>2020-12-20T12:24:45Z</time>
      </trkpt>
      <trkpt lat="47.86402" lon="-1.07707">
        <ele>60.7</ele>
        <time>2020-12-20T12:24:46Z</time>
      </trkpt>
      <trkpt lat="47.86404" lon="-1.07713">
        <ele>60.7</ele>
        <time>2020-12-20T12:24:47Z</time>
      </trkpt>
      <trkpt lat="47.86407" lon="-1.07722">
        <ele>60.7</ele>
        <time>2020-12-20T12:24:48Z</time>
      </trkpt>
      <trkpt lat="47.86409" lon="-1.07727">
        <ele>60.8</ele>
        <time>2020-12-20T12:24:49Z</time>
      </trkpt>
      <trkpt lat="47.86412" lon="-1.07735">
        <ele>60.8</ele>
        <time>2020-12-20T12:24:50Z</time>
      </trkpt>
      <trkpt lat="47.86414" lon="-1.0774">
        <ele>60.9</ele>
        <time>2020-12-20T12:24:51Z</time>
      </trkpt>
      <trkpt lat="47.86417" lon="-1.07747">
        <ele>61</ele>
        <time>2020-12-20T12:24:52Z</time>
      </trkpt>
      <trkpt lat="47.8642" lon="-1.07755">
        <ele>60.8</ele>
        <time>2020-12-20T12:24:53Z</time>
      </trkpt>
      <trkpt lat="47.86423" lon="-1.07761">
        <ele>60.6</ele>
        <time>2020-12-20T12:24:54Z</time>
      </trkpt>
      <trkpt lat="47.86426" lon="-1.07768">
        <ele>60.4</ele>
        <time>2020-12-20T12:24:55Z</time>
      </trkpt>
      <trkpt lat="47.86428" lon="-1.07775">
        <ele>60.2</ele>
        <time>2020-12-20T12:24:56Z</time>
      </trkpt>
      <trkpt lat="47.8643" lon="-1.07782">
        <ele>60</ele>
        <time>2020-12-20T12:24:57Z</time>
      </trkpt>
      <trkpt lat="47.86432" lon="-1.0779">
        <ele>59.8</ele>
        <time>2020-12-20T12:24:58Z</time>
      </trkpt>
      <trkpt lat="47.86434" lon="-1.07797">
        <ele>59.7</ele>
        <time>2020-12-20T12:24:59Z</time>
      </trkpt>
      <trkpt lat="47.86435" lon="-1.07803">
        <ele>59.6</ele>
        <time>2020-12-20T12:25:00Z</time>
      </trkpt>
      <trkpt lat="47.86437" lon="-1.07811">
        <ele>59.4</ele>
        <time>2020-12-20T12:25:01Z</time>
      </trkpt>
      <trkpt lat="47.86439" lon="-1.0782">
        <ele>59.2</ele>
        <time>2020-12-20T12:25:02Z</time>
      </trkpt>
      <trkpt lat="47.86439" lon="-1.07828">
        <ele>59.1</ele>
        <time>2020-12-20T12:25:03Z</time>
      </trkpt>
      <trkpt lat="47.86439" lon="-1.07835">
        <ele>59</ele>
        <time>2020-12-20T12:25:04Z</time>
      </trkpt>
      <trkpt lat="47.86439" lon="-1.07842">
        <ele>59.2</ele>
        <time>2020-12-20T12:25:05Z</time>
      </trkpt>
      <trkpt lat="47.8644" lon="-1.0785">
        <ele>59.3</ele>
        <time>2020-12-20T12:25:06Z</time>
      </trkpt>
      <trkpt lat="47.86441" lon="-1.07857">
        <ele>59.5</ele>
        <time>2020-12-20T12:25:07Z</time>
      </trkpt>
      <trkpt lat="47.86442" lon="-1.07864">
        <ele>59.6</ele>
        <time>2020-12-20T12:25:08Z</time>
      </trkpt>
      <trkpt lat="47.86442" lon="-1.0787">
        <ele>59.7</ele>
        <time>2020-12-20T12:25:09Z</time>
      </trkpt>
      <trkpt lat="47.86443" lon="-1.07879">
        <ele>59.9</ele>
        <time>2020-12-20T12:25:10Z</time>
      </trkpt>
      <trkpt lat="47.86443" lon="-1.07886">
        <ele>60.1</ele>
        <time>2020-12-20T12:25:11Z</time>
      </trkpt>
      <trkpt lat="47.86444" lon="-1.07893">
        <ele>60.2</ele>
        <time>2020-12-20T12:25:12Z</time>
      </trkpt>
      <trkpt lat="47.86444" lon="-1.07899">
        <ele>60.3</ele>
        <time>2020-12-20T12:25:13Z</time>
      </trkpt>
      <trkpt lat="47.86444" lon="-1.07906">
        <ele>60.5</ele>
        <time>2020-12-20T12:25:14Z</time>
      </trkpt>
      <trkpt lat="47.86445" lon="-1.07913">
        <ele>60.6</ele>
        <time>2020-12-20T12:25:15Z</time>
      </trkpt>
      <trkpt lat="47.86445" lon="-1.0792">
        <ele>60.7</ele>
        <time>2020-12-20T12:25:16Z</time>
      </trkpt>
      <trkpt lat="47.86446" lon="-1.07926">
        <ele>60.6</ele>
        <time>2020-12-20T12:25:17Z</time>
      </trkpt>
      <trkpt lat="47.86446" lon="-1.07933">
        <ele>60.6</ele>
        <time>2020-12-20T12:25:18Z</time>
      </trkpt>
      <trkpt lat="47.86447" lon="-1.0794">
        <ele>60.6</ele>
        <time>2020-12-20T12:25:19Z</time>
      </trkpt>
      <trkpt lat="47.86447" lon="-1.07947">
        <ele>60.6</ele>
        <time>2020-12-20T12:25:20Z</time>
      </trkpt>
      <trkpt lat="47.86448" lon="-1.07953">
        <ele>60.6</ele>
        <time>2020-12-20T12:25:21Z</time>
      </trkpt>
      <trkpt lat="47.86448" lon="-1.0796">
        <ele>60.6</ele>
        <time>2020-12-20T12:25:22Z</time>
      </trkpt>
      <trkpt lat="47.86449" lon="-1.07966">
        <ele>60.6</ele>
        <time>2020-12-20T12:25:23Z</time>
      </trkpt>
      <trkpt lat="47.86449" lon="-1.07973">
        <ele>60.6</ele>
        <time>2020-12-20T12:25:24Z</time>
      </trkpt>
      <trkpt lat="47.86449" lon="-1.0798">
        <ele>60.6</ele>
        <time>2020-12-20T12:25:25Z</time>
      </trkpt>
      <trkpt lat="47.8645" lon="-1.07986">
        <ele>60.6</ele>
        <time>2020-12-20T12:25:26Z</time>
      </trkpt>
      <trkpt lat="47.86451" lon="-1.07992">
        <ele>60.6</ele>
        <time>2020-12-20T12:25:27Z</time>
      </trkpt>
      <trkpt lat="47.86451" lon="-1.07999">
        <ele>60.6</ele>
        <time>2020-12-20T12:25:28Z</time>
      </trkpt>
      <trkpt lat="47.86452" lon="-1.08005">
        <ele>60.6</ele>
        <time>2020-12-20T12:25:29Z</time>
      </trkpt>
      <trkpt lat="47.86452" lon="-1.08012">
        <ele>60.7</ele>
        <time>2020-12-20T12:25:30Z</time>
      </trkpt>
      <trkpt lat="47.86453" lon="-1.08018">
        <ele>60.7</ele>
        <time>2020-12-20T12:25:31Z</time>
      </trkpt>
      <trkpt lat="47.86454" lon="-1.08025">
        <ele>60.7</ele>
        <time>2020-12-20T12:25:32Z</time>
      </trkpt>
      <trkpt lat="47.86455" lon="-1.08032">
        <ele>60.7</ele>
        <time>2020-12-20T12:25:33Z</time>
      </trkpt>
      <trkpt lat="47.86455" lon="-1.08038">
        <ele>60.8</ele>
        <time>2020-12-20T12:25:34Z</time>
      </trkpt>
      <trkpt lat="47.86456" lon="-1.08045">
        <ele>60.8</ele>
        <time>2020-12-20T12:25:35Z</time>
      </trkpt>
      <trkpt lat="47.86457" lon="-1.08052">
        <ele>60.8</ele>
        <time>2020-12-20T12:25:36Z</time>
      </trkpt>
      <trkpt lat="47.86458" lon="-1.08058">
        <ele>60.9</ele>
        <time>2020-12-20T12:25:37Z</time>
      </trkpt>
      <trkpt lat="47.86459" lon="-1.08065">
        <ele>60.9</ele>
        <time>2020-12-20T12:25:38Z</time>
      </trkpt>
      <trkpt lat="47.86459" lon="-1.0807">
        <ele>60.9</ele>
        <time>2020-12-20T12:25:39Z</time>
      </trkpt>
      <trkpt lat="47.8646" lon="-1.08077">
        <ele>60.9</ele>
        <time>2020-12-20T12:25:40Z</time>
      </trkpt>
      <trkpt lat="47.86461" lon="-1.08085">
        <ele>60.9</ele>
        <time>2020-12-20T12:25:41Z</time>
      </trkpt>
      <trkpt lat="47.86462" lon="-1.08092">
        <ele>60.9</ele>
        <time>2020-12-20T12:25:42Z</time>
      </trkpt>
      <trkpt lat="47.86462" lon="-1.08099">
        <ele>60.9</ele>
        <time>2020-12-20T12:25:43Z</time>
      </trkpt>
      <trkpt lat="47.86463" lon="-1.08104">
        <ele>60.9</ele>
        <time>2020-12-20T12:25:44Z</time>
      </trkpt>
      <trkpt lat="47.86464" lon="-1.08112">
        <ele>60.9</ele>
        <time>2020-12-20T12:25:45Z</time>
      </trkpt>
      <trkpt lat="47.86464" lon="-1.08119">
        <ele>60.9</ele>
        <time>2020-12-20T12:25:46Z</time>
      </trkpt>
      <trkpt lat="47.86465" lon="-1.08125">
        <ele>60.9</ele>
        <time>2020-12-20T12:25:47Z</time>
      </trkpt>
      <trkpt lat="47.86466" lon="-1.08132">
        <ele>60.9</ele>
        <time>2020-12-20T12:25:48Z</time>
      </trkpt>
      <trkpt lat="47.86466" lon="-1.08137">
        <ele>60.9</ele>
        <time>2020-12-20T12:25:49Z</time>
      </trkpt>
      <trkpt lat="47.86467" lon="-1.08144">
        <ele>60.9</ele>
        <time>2020-12-20T12:25:50Z</time>
      </trkpt>
      <trkpt lat="47.86468" lon="-1.08151">
        <ele>61</ele>
        <time>2020-12-20T12:25:51Z</time>
      </trkpt>
      <trkpt lat="47.86469" lon="-1.08158">
        <ele>61</ele>
        <time>2020-12-20T12:25:52Z</time>
      </trkpt>
      <trkpt lat="47.8647" lon="-1.08165">
        <ele>61</ele>
        <time>2020-12-20T12:25:53Z</time>
      </trkpt>
      <trkpt lat="47.86471" lon="-1.08171">
        <ele>61</ele>
        <time>2020-12-20T12:25:54Z</time>
      </trkpt>
      <trkpt lat="47.86471" lon="-1.08178">
        <ele>61</ele>
        <time>2020-12-20T12:25:55Z</time>
      </trkpt>
      <trkpt lat="47.86472" lon="-1.08185">
        <ele>61.1</ele>
        <time>2020-12-20T12:25:56Z</time>
      </trkpt>
      <trkpt lat="47.86473" lon="-1.08192">
        <ele>61.1</ele>
        <time>2020-12-20T12:25:57Z</time>
      </trkpt>
      <trkpt lat="47.86474" lon="-1.08199">
        <ele>61.1</ele>
        <time>2020-12-20T12:25:58Z</time>
      </trkpt>
      <trkpt lat="47.86474" lon="-1.08205">
        <ele>61.2</ele>
        <time>2020-12-20T12:25:59Z</time>
      </trkpt>
      <trkpt lat="47.86475" lon="-1.08212">
        <ele>61.2</ele>
        <time>2020-12-20T12:26:00Z</time>
      </trkpt>
      <trkpt lat="47.86476" lon="-1.08218">
        <ele>61.3</ele>
        <time>2020-12-20T12:26:01Z</time>
      </trkpt>
      <trkpt lat="47.86476" lon="-1.08225">
        <ele>61.3</ele>
        <time>2020-12-20T12:26:02Z</time>
      </trkpt>
      <trkpt lat="47.86477" lon="-1.08232">
        <ele>61.4</ele>
        <time>2020-12-20T12:26:03Z</time>
      </trkpt>
      <trkpt lat="47.86478" lon="-1.08239">
        <ele>61.4</ele>
        <time>2020-12-20T12:26:04Z</time>
      </trkpt>
      <trkpt lat="47.86479" lon="-1.08247">
        <ele>61.5</ele>
        <time>2020-12-20T12:26:05Z</time>
      </trkpt>
      <trkpt lat="47.8648" lon="-1.08254">
        <ele>61.5</ele>
        <time>2020-12-20T12:26:06Z</time>
      </trkpt>
      <trkpt lat="47.8648" lon="-1.08261">
        <ele>61.5</ele>
        <time>2020-12-20T12:26:07Z</time>
      </trkpt>
      <trkpt lat="47.86481" lon="-1.08268">
        <ele>61.5</ele>
        <time>2020-12-20T12:26:08Z</time>
      </trkpt>
      <trkpt lat="47.86482" lon="-1.08275">
        <ele>61.6</ele>
        <time>2020-12-20T12:26:09Z</time>
      </trkpt>
      <trkpt lat="47.86483" lon="-1.08282">
        <ele>61.6</ele>
        <time>2020-12-20T12:26:10Z</time>
      </trkpt>
      <trkpt lat="47.86484" lon="-1.08289">
        <ele>61.6</ele>
        <time>2020-12-20T12:26:11Z</time>
      </trkpt>
      <trkpt lat="47.86485" lon="-1.08296">
        <ele>61.6</ele>
        <time>2020-12-20T12:26:12Z</time>
      </trkpt>
      <trkpt lat="47.86486" lon="-1.08304">
        <ele>61.7</ele>
        <time>2020-12-20T12:26:13Z</time>
      </trkpt>
      <trkpt lat="47.86487" lon="-1.08311">
        <ele>61.7</ele>
        <time>2020-12-20T12:26:14Z</time>
      </trkpt>
      <trkpt lat="47.86487" lon="-1.08317">
        <ele>61.7</ele>
        <time>2020-12-20T12:26:15Z</time>
      </trkpt>
      <trkpt lat="47.86488" lon="-1.08326">
        <ele>61.7</ele>
        <time>2020-12-20T12:26:16Z</time>
      </trkpt>
      <trkpt lat="47.86489" lon="-1.08334">
        <ele>61.7</ele>
        <time>2020-12-20T12:26:17Z</time>
      </trkpt>
      <trkpt lat="47.8649" lon="-1.08341">
        <ele>61.9</ele>
        <time>2020-12-20T12:26:18Z</time>
      </trkpt>
      <trkpt lat="47.86491" lon="-1.08348">
        <ele>62</ele>
        <time>2020-12-20T12:26:19Z</time>
      </trkpt>
      <trkpt lat="47.86492" lon="-1.08356">
        <ele>62.2</ele>
        <time>2020-12-20T12:26:20Z</time>
      </trkpt>
      <trkpt lat="47.86492" lon="-1.08363">
        <ele>62.3</ele>
        <time>2020-12-20T12:26:21Z</time>
      </trkpt>
      <trkpt lat="47.86493" lon="-1.08371">
        <ele>62.4</ele>
        <time>2020-12-20T12:26:22Z</time>
      </trkpt>
      <trkpt lat="47.86494" lon="-1.08378">
        <ele>62.5</ele>
        <time>2020-12-20T12:26:23Z</time>
      </trkpt>
      <trkpt lat="47.86495" lon="-1.08384">
        <ele>62.6</ele>
        <time>2020-12-20T12:26:24Z</time>
      </trkpt>
      <trkpt lat="47.86496" lon="-1.08391">
        <ele>62.7</ele>
        <time>2020-12-20T12:26:25Z</time>
      </trkpt>
      <trkpt lat="47.86497" lon="-1.08398">
        <ele>62.8</ele>
        <time>2020-12-20T12:26:26Z</time>
      </trkpt>
      <trkpt lat="47.86497" lon="-1.08403">
        <ele>62.9</ele>
        <time>2020-12-20T12:26:27Z</time>
      </trkpt>
      <trkpt lat="47.86498" lon="-1.0841">
        <ele>62.9</ele>
        <time>2020-12-20T12:26:28Z</time>
      </trkpt>
      <trkpt lat="47.86498" lon="-1.08419">
        <ele>63</ele>
        <time>2020-12-20T12:26:29Z</time>
      </trkpt>
      <trkpt lat="47.86499" lon="-1.08426">
        <ele>62.9</ele>
        <time>2020-12-20T12:26:30Z</time>
      </trkpt>
      <trkpt lat="47.86499" lon="-1.08432">
        <ele>62.8</ele>
        <time>2020-12-20T12:26:31Z</time>
      </trkpt>
      <trkpt lat="47.86499" lon="-1.08438">
        <ele>62.8</ele>
        <time>2020-12-20T12:26:32Z</time>
      </trkpt>
      <trkpt lat="47.865" lon="-1.08445">
        <ele>62.7</ele>
        <time>2020-12-20T12:26:33Z</time>
      </trkpt>
      <trkpt lat="47.86501" lon="-1.08454">
        <ele>62.5</ele>
        <time>2020-12-20T12:26:34Z</time>
      </trkpt>
      <trkpt lat="47.86501" lon="-1.08461">
        <ele>62.4</ele>
        <time>2020-12-20T12:26:35Z</time>
      </trkpt>
      <trkpt lat="47.86502" lon="-1.08467">
        <ele>62.3</ele>
        <time>2020-12-20T12:26:36Z</time>
      </trkpt>
      <trkpt lat="47.86502" lon="-1.08476">
        <ele>62.2</ele>
        <time>2020-12-20T12:26:37Z</time>
      </trkpt>
      <trkpt lat="47.86502" lon="-1.08482">
        <ele>62.1</ele>
        <time>2020-12-20T12:26:38Z</time>
      </trkpt>
      <trkpt lat="47.86503" lon="-1.08491">
        <ele>61.9</ele>
        <time>2020-12-20T12:26:39Z</time>
      </trkpt>
      <trkpt lat="47.86503" lon="-1.08498">
        <ele>61.8</ele>
        <time>2020-12-20T12:26:40Z</time>
      </trkpt>
      <trkpt lat="47.86504" lon="-1.08504">
        <ele>61.6</ele>
        <time>2020-12-20T12:26:41Z</time>
      </trkpt>
      <trkpt lat="47.86504" lon="-1.08513">
        <ele>61.3</ele>
        <time>2020-12-20T12:26:42Z</time>
      </trkpt>
      <trkpt lat="47.86505" lon="-1.0852">
        <ele>61</ele>
        <time>2020-12-20T12:26:43Z</time>
      </trkpt>
      <trkpt lat="47.86505" lon="-1.08526">
        <ele>60.8</ele>
        <time>2020-12-20T12:26:44Z</time>
      </trkpt>
      <trkpt lat="47.86506" lon="-1.08532">
        <ele>60.5</ele>
        <time>2020-12-20T12:26:45Z</time>
      </trkpt>
      <trkpt lat="47.86506" lon="-1.0854">
        <ele>60.3</ele>
        <time>2020-12-20T12:26:46Z</time>
      </trkpt>
      <trkpt lat="47.86507" lon="-1.08547">
        <ele>60</ele>
        <time>2020-12-20T12:26:47Z</time>
      </trkpt>
      <trkpt lat="47.86507" lon="-1.08554">
        <ele>59.8</ele>
        <time>2020-12-20T12:26:48Z</time>
      </trkpt>
      <trkpt lat="47.86508" lon="-1.08561">
        <ele>59.5</ele>
        <time>2020-12-20T12:26:49Z</time>
      </trkpt>
      <trkpt lat="47.86508" lon="-1.08567">
        <ele>59.3</ele>
        <time>2020-12-20T12:26:50Z</time>
      </trkpt>
      <trkpt lat="47.86509" lon="-1.08574">
        <ele>59.1</ele>
        <time>2020-12-20T12:26:51Z</time>
      </trkpt>
      <trkpt lat="47.86509" lon="-1.08581">
        <ele>58.9</ele>
        <time>2020-12-20T12:26:52Z</time>
      </trkpt>
      <trkpt lat="47.8651" lon="-1.08587">
        <ele>58.7</ele>
        <time>2020-12-20T12:26:53Z</time>
      </trkpt>
      <trkpt lat="47.8651" lon="-1.08593">
        <ele>58.7</ele>
        <time>2020-12-20T12:26:54Z</time>
      </trkpt>
      <trkpt lat="47.86511" lon="-1.086">
        <ele>58.6</ele>
        <time>2020-12-20T12:26:55Z</time>
      </trkpt>
      <trkpt lat="47.86511" lon="-1.08606">
        <ele>58.5</ele>
        <time>2020-12-20T12:26:56Z</time>
      </trkpt>
      <trkpt lat="47.86512" lon="-1.08612">
        <ele>58.5</ele>
        <time>2020-12-20T12:26:57Z</time>
      </trkpt>
      <trkpt lat="47.86512" lon="-1.08617">
        <ele>58.4</ele>
        <time>2020-12-20T12:26:58Z</time>
      </trkpt>
      <trkpt lat="47.86513" lon="-1.08623">
        <ele>58.4</ele>
        <time>2020-12-20T12:26:59Z</time>
      </trkpt>
      <trkpt lat="47.86513" lon="-1.08628">
        <ele>58.3</ele>
        <time>2020-12-20T12:27:00Z</time>
      </trkpt>
      <trkpt lat="47.86513" lon="-1.08633">
        <ele>58.3</ele>
        <time>2020-12-20T12:27:01Z</time>
      </trkpt>
      <trkpt lat="47.86513" lon="-1.08638">
        <ele>58.2</ele>
        <time>2020-12-20T12:27:02Z</time>
      </trkpt>
      <trkpt lat="47.86513" lon="-1.08642">
        <ele>58.2</ele>
        <time>2020-12-20T12:27:03Z</time>
      </trkpt>
      <trkpt lat="47.86514" lon="-1.08648">
        <ele>58.1</ele>
        <time>2020-12-20T12:27:04Z</time>
      </trkpt>
      <trkpt lat="47.86514" lon="-1.08653">
        <ele>58.1</ele>
        <time>2020-12-20T12:27:05Z</time>
      </trkpt>
      <trkpt lat="47.86514" lon="-1.08658">
        <ele>58.1</ele>
        <time>2020-12-20T12:27:06Z</time>
      </trkpt>
      <trkpt lat="47.86515" lon="-1.08662">
        <ele>58</ele>
        <time>2020-12-20T12:27:07Z</time>
      </trkpt>
      <trkpt lat="47.86515" lon="-1.08668">
        <ele>58</ele>
        <time>2020-12-20T12:27:08Z</time>
      </trkpt>
      <trkpt lat="47.86516" lon="-1.08673">
        <ele>58.1</ele>
        <time>2020-12-20T12:27:09Z</time>
      </trkpt>
      <trkpt lat="47.86516" lon="-1.08677">
        <ele>58.1</ele>
        <time>2020-12-20T12:27:10Z</time>
      </trkpt>
      <trkpt lat="47.86516" lon="-1.08682">
        <ele>58.1</ele>
        <time>2020-12-20T12:27:11Z</time>
      </trkpt>
      <trkpt lat="47.86517" lon="-1.08687">
        <ele>58.2</ele>
        <time>2020-12-20T12:27:12Z</time>
      </trkpt>
      <trkpt lat="47.86517" lon="-1.08693">
        <ele>58.3</ele>
        <time>2020-12-20T12:27:13Z</time>
      </trkpt>
      <trkpt lat="47.86517" lon="-1.08699">
        <ele>58.3</ele>
        <time>2020-12-20T12:27:14Z</time>
      </trkpt>
      <trkpt lat="47.86518" lon="-1.08704">
        <ele>58.4</ele>
        <time>2020-12-20T12:27:15Z</time>
      </trkpt>
      <trkpt lat="47.86518" lon="-1.0871">
        <ele>58.4</ele>
        <time>2020-12-20T12:27:16Z</time>
      </trkpt>
      <trkpt lat="47.86519" lon="-1.08715">
        <ele>58.4</ele>
        <time>2020-12-20T12:27:17Z</time>
      </trkpt>
      <trkpt lat="47.86519" lon="-1.08721">
        <ele>58.5</ele>
        <time>2020-12-20T12:27:18Z</time>
      </trkpt>
      <trkpt lat="47.8652" lon="-1.08726">
        <ele>58.5</ele>
        <time>2020-12-20T12:27:19Z</time>
      </trkpt>
      <trkpt lat="47.8652" lon="-1.08731">
        <ele>58.6</ele>
        <time>2020-12-20T12:27:20Z</time>
      </trkpt>
      <trkpt lat="47.8652" lon="-1.08736">
        <ele>58.6</ele>
        <time>2020-12-20T12:27:21Z</time>
      </trkpt>
      <trkpt lat="47.8652" lon="-1.08741">
        <ele>58.7</ele>
        <time>2020-12-20T12:27:22Z</time>
      </trkpt>
      <trkpt lat="47.86521" lon="-1.08746">
        <ele>58.7</ele>
        <time>2020-12-20T12:27:23Z</time>
      </trkpt>
      <trkpt lat="47.86522" lon="-1.08751">
        <ele>58.8</ele>
        <time>2020-12-20T12:27:24Z</time>
      </trkpt>
      <trkpt lat="47.86522" lon="-1.08756">
        <ele>58.9</ele>
        <time>2020-12-20T12:27:25Z</time>
      </trkpt>
      <trkpt lat="47.86523" lon="-1.08763">
        <ele>59</ele>
        <time>2020-12-20T12:27:26Z</time>
      </trkpt>
      <trkpt lat="47.86523" lon="-1.08768">
        <ele>59.1</ele>
        <time>2020-12-20T12:27:27Z</time>
      </trkpt>
      <trkpt lat="47.86523" lon="-1.08773">
        <ele>59.2</ele>
        <time>2020-12-20T12:27:28Z</time>
      </trkpt>
      <trkpt lat="47.86523" lon="-1.08778">
        <ele>59.3</ele>
        <time>2020-12-20T12:27:29Z</time>
      </trkpt>
      <trkpt lat="47.86523" lon="-1.08783">
        <ele>59.4</ele>
        <time>2020-12-20T12:27:30Z</time>
      </trkpt>
      <trkpt lat="47.86524" lon="-1.08788">
        <ele>59.5</ele>
        <time>2020-12-20T12:27:31Z</time>
      </trkpt>
      <trkpt lat="47.86524" lon="-1.08793">
        <ele>59.6</ele>
        <time>2020-12-20T12:27:32Z</time>
      </trkpt>
      <trkpt lat="47.86524" lon="-1.08798">
        <ele>59.7</ele>
        <time>2020-12-20T12:27:33Z</time>
      </trkpt>
      <trkpt lat="47.86524" lon="-1.08803">
        <ele>59.8</ele>
        <time>2020-12-20T12:27:34Z</time>
      </trkpt>
      <trkpt lat="47.86525" lon="-1.08808">
        <ele>59.9</ele>
        <time>2020-12-20T12:27:35Z</time>
      </trkpt>
      <trkpt lat="47.86525" lon="-1.08812">
        <ele>60</ele>
        <time>2020-12-20T12:27:36Z</time>
      </trkpt>
      <trkpt lat="47.86525" lon="-1.08817">
        <ele>60.1</ele>
        <time>2020-12-20T12:27:37Z</time>
      </trkpt>
      <trkpt lat="47.86526" lon="-1.08822">
        <ele>60.1</ele>
        <time>2020-12-20T12:27:38Z</time>
      </trkpt>
      <trkpt lat="47.86526" lon="-1.08827">
        <ele>60.2</ele>
        <time>2020-12-20T12:27:39Z</time>
      </trkpt>
      <trkpt lat="47.86526" lon="-1.08832">
        <ele>60.3</ele>
        <time>2020-12-20T12:27:40Z</time>
      </trkpt>
      <trkpt lat="47.86526" lon="-1.08836">
        <ele>60.4</ele>
        <time>2020-12-20T12:27:41Z</time>
      </trkpt>
      <trkpt lat="47.86526" lon="-1.08841">
        <ele>60.3</ele>
        <time>2020-12-20T12:27:42Z</time>
      </trkpt>
      <trkpt lat="47.86527" lon="-1.08845">
        <ele>60.3</ele>
        <time>2020-12-20T12:27:43Z</time>
      </trkpt>
      <trkpt lat="47.86528" lon="-1.0885">
        <ele>60.3</ele>
        <time>2020-12-20T12:27:44Z</time>
      </trkpt>
      <trkpt lat="47.86528" lon="-1.08855">
        <ele>60.2</ele>
        <time>2020-12-20T12:27:45Z</time>
      </trkpt>
      <trkpt lat="47.86528" lon="-1.08859">
        <ele>60.2</ele>
        <time>2020-12-20T12:27:46Z</time>
      </trkpt>
      <trkpt lat="47.86529" lon="-1.08864">
        <ele>60.2</ele>
        <time>2020-12-20T12:27:47Z</time>
      </trkpt>
      <trkpt lat="47.86529" lon="-1.08869">
        <ele>60.2</ele>
        <time>2020-12-20T12:27:48Z</time>
      </trkpt>
      <trkpt lat="47.86529" lon="-1.08874">
        <ele>60.1</ele>
        <time>2020-12-20T12:27:49Z</time>
      </trkpt>
      <trkpt lat="47.86529" lon="-1.08879">
        <ele>60.1</ele>
        <time>2020-12-20T12:27:50Z</time>
      </trkpt>
      <trkpt lat="47.8653" lon="-1.08883">
        <ele>60.1</ele>
        <time>2020-12-20T12:27:51Z</time>
      </trkpt>
      <trkpt lat="47.8653" lon="-1.08889">
        <ele>60</ele>
        <time>2020-12-20T12:27:52Z</time>
      </trkpt>
      <trkpt lat="47.86531" lon="-1.08894">
        <ele>60</ele>
        <time>2020-12-20T12:27:53Z</time>
      </trkpt>
      <trkpt lat="47.86531" lon="-1.08899">
        <ele>60</ele>
        <time>2020-12-20T12:27:54Z</time>
      </trkpt>
      <trkpt lat="47.86531" lon="-1.08904">
        <ele>59.9</ele>
        <time>2020-12-20T12:27:55Z</time>
      </trkpt>
      <trkpt lat="47.86532" lon="-1.08909">
        <ele>59.9</ele>
        <time>2020-12-20T12:27:56Z</time>
      </trkpt>
      <trkpt lat="47.86532" lon="-1.08913">
        <ele>59.9</ele>
        <time>2020-12-20T12:27:57Z</time>
      </trkpt>
      <trkpt lat="47.86533" lon="-1.08919">
        <ele>59.9</ele>
        <time>2020-12-20T12:27:58Z</time>
      </trkpt>
      <trkpt lat="47.86533" lon="-1.08924">
        <ele>60</ele>
        <time>2020-12-20T12:27:59Z</time>
      </trkpt>
      <trkpt lat="47.86534" lon="-1.08928">
        <ele>60.1</ele>
        <time>2020-12-20T12:28:00Z</time>
      </trkpt>
      <trkpt lat="47.86534" lon="-1.08934">
        <ele>60.3</ele>
        <time>2020-12-20T12:28:01Z</time>
      </trkpt>
      <trkpt lat="47.86535" lon="-1.08939">
        <ele>60.4</ele>
        <time>2020-12-20T12:28:02Z</time>
      </trkpt>
      <trkpt lat="47.86535" lon="-1.08944">
        <ele>60.6</ele>
        <time>2020-12-20T12:28:03Z</time>
      </trkpt>
      <trkpt lat="47.86535" lon="-1.08949">
        <ele>60.7</ele>
        <time>2020-12-20T12:28:04Z</time>
      </trkpt>
      <trkpt lat="47.86536" lon="-1.08954">
        <ele>60.9</ele>
        <time>2020-12-20T12:28:05Z</time>
      </trkpt>
      <trkpt lat="47.86536" lon="-1.08959">
        <ele>61</ele>
        <time>2020-12-20T12:28:06Z</time>
      </trkpt>
      <trkpt lat="47.86536" lon="-1.08965">
        <ele>61.2</ele>
        <time>2020-12-20T12:28:07Z</time>
      </trkpt>
      <trkpt lat="47.86537" lon="-1.0897">
        <ele>61.3</ele>
        <time>2020-12-20T12:28:08Z</time>
      </trkpt>
      <trkpt lat="47.86537" lon="-1.08975">
        <ele>61.5</ele>
        <time>2020-12-20T12:28:09Z</time>
      </trkpt>
      <trkpt lat="47.86537" lon="-1.0898">
        <ele>61.6</ele>
        <time>2020-12-20T12:28:10Z</time>
      </trkpt>
      <trkpt lat="47.86538" lon="-1.08985">
        <ele>61.7</ele>
        <time>2020-12-20T12:28:11Z</time>
      </trkpt>
      <trkpt lat="47.86538" lon="-1.0899">
        <ele>61.9</ele>
        <time>2020-12-20T12:28:12Z</time>
      </trkpt>
      <trkpt lat="47.86538" lon="-1.08995">
        <ele>62</ele>
        <time>2020-12-20T12:28:13Z</time>
      </trkpt>
      <trkpt lat="47.86539" lon="-1.09">
        <ele>62.1</ele>
        <time>2020-12-20T12:28:14Z</time>
      </trkpt>
      <trkpt lat="47.86539" lon="-1.09005">
        <ele>62.2</ele>
        <time>2020-12-20T12:28:15Z</time>
      </trkpt>
      <trkpt lat="47.8654" lon="-1.0901">
        <ele>62.2</ele>
        <time>2020-12-20T12:28:16Z</time>
      </trkpt>
      <trkpt lat="47.8654" lon="-1.09015">
        <ele>62.3</ele>
        <time>2020-12-20T12:28:17Z</time>
      </trkpt>
      <trkpt lat="47.8654" lon="-1.0902">
        <ele>62.3</ele>
        <time>2020-12-20T12:28:18Z</time>
      </trkpt>
      <trkpt lat="47.86541" lon="-1.09025">
        <ele>62.3</ele>
        <time>2020-12-20T12:28:19Z</time>
      </trkpt>
      <trkpt lat="47.86541" lon="-1.0903">
        <ele>62.4</ele>
        <time>2020-12-20T12:28:20Z</time>
      </trkpt>
      <trkpt lat="47.86542" lon="-1.09035">
        <ele>62.4</ele>
        <time>2020-12-20T12:28:21Z</time>
      </trkpt>
      <trkpt lat="47.86542" lon="-1.0904">
        <ele>62.5</ele>
        <time>2020-12-20T12:28:22Z</time>
      </trkpt>
      <trkpt lat="47.86542" lon="-1.09045">
        <ele>62.5</ele>
        <time>2020-12-20T12:28:23Z</time>
      </trkpt>
      <trkpt lat="47.86543" lon="-1.0905">
        <ele>62.5</ele>
        <time>2020-12-20T12:28:24Z</time>
      </trkpt>
      <trkpt lat="47.86543" lon="-1.09055">
        <ele>62.6</ele>
        <time>2020-12-20T12:28:25Z</time>
      </trkpt>
      <trkpt lat="47.86544" lon="-1.09059">
        <ele>62.6</ele>
        <time>2020-12-20T12:28:26Z</time>
      </trkpt>
      <trkpt lat="47.86544" lon="-1.09065">
        <ele>62.7</ele>
        <time>2020-12-20T12:28:27Z</time>
      </trkpt>
      <trkpt lat="47.86544" lon="-1.0907">
        <ele>62.7</ele>
        <time>2020-12-20T12:28:28Z</time>
      </trkpt>
      <trkpt lat="47.86545" lon="-1.09075">
        <ele>62.7</ele>
        <time>2020-12-20T12:28:29Z</time>
      </trkpt>
      <trkpt lat="47.86545" lon="-1.0908">
        <ele>62.8</ele>
        <time>2020-12-20T12:28:30Z</time>
      </trkpt>
      <trkpt lat="47.86545" lon="-1.09085">
        <ele>62.9</ele>
        <time>2020-12-20T12:28:31Z</time>
      </trkpt>
      <trkpt lat="47.86546" lon="-1.09089">
        <ele>62.9</ele>
        <time>2020-12-20T12:28:32Z</time>
      </trkpt>
      <trkpt lat="47.86547" lon="-1.09093">
        <ele>63</ele>
        <time>2020-12-20T12:28:33Z</time>
      </trkpt>
      <trkpt lat="47.86548" lon="-1.09096">
        <ele>63</ele>
        <time>2020-12-20T12:28:34Z</time>
      </trkpt>
      <trkpt lat="47.86551" lon="-1.09099">
        <ele>62.9</ele>
        <time>2020-12-20T12:28:35Z</time>
      </trkpt>
      <trkpt lat="47.86553" lon="-1.09101">
        <ele>62.9</ele>
        <time>2020-12-20T12:28:36Z</time>
      </trkpt>
      <trkpt lat="47.86557" lon="-1.09102">
        <ele>62.7</ele>
        <time>2020-12-20T12:28:37Z</time>
      </trkpt>
      <trkpt lat="47.8656" lon="-1.09102">
        <ele>62.6</ele>
        <time>2020-12-20T12:28:38Z</time>
      </trkpt>
      <trkpt lat="47.86563" lon="-1.09101">
        <ele>62.4</ele>
        <time>2020-12-20T12:28:39Z</time>
      </trkpt>
      <trkpt lat="47.86567" lon="-1.09099">
        <ele>62.2</ele>
        <time>2020-12-20T12:28:40Z</time>
      </trkpt>
      <trkpt lat="47.86571" lon="-1.09097">
        <ele>61.9</ele>
        <time>2020-12-20T12:28:41Z</time>
      </trkpt>
      <trkpt lat="47.86574" lon="-1.09095">
        <ele>61.7</ele>
        <time>2020-12-20T12:28:42Z</time>
      </trkpt>
      <trkpt lat="47.86578" lon="-1.09093">
        <ele>61.5</ele>
        <time>2020-12-20T12:28:43Z</time>
      </trkpt>
      <trkpt lat="47.86582" lon="-1.09091">
        <ele>61.2</ele>
        <time>2020-12-20T12:28:44Z</time>
      </trkpt>
      <trkpt lat="47.86587" lon="-1.09088">
        <ele>61</ele>
        <time>2020-12-20T12:28:45Z</time>
      </trkpt>
      <trkpt lat="47.86592" lon="-1.09085">
        <ele>60.7</ele>
        <time>2020-12-20T12:28:46Z</time>
      </trkpt>
      <trkpt lat="47.86596" lon="-1.09083">
        <ele>60.5</ele>
        <time>2020-12-20T12:28:47Z</time>
      </trkpt>
      <trkpt lat="47.86601" lon="-1.0908">
        <ele>60.3</ele>
        <time>2020-12-20T12:28:48Z</time>
      </trkpt>
      <trkpt lat="47.86607" lon="-1.09077">
        <ele>60.1</ele>
        <time>2020-12-20T12:28:49Z</time>
      </trkpt>
      <trkpt lat="47.86612" lon="-1.09074">
        <ele>59.9</ele>
        <time>2020-12-20T12:28:50Z</time>
      </trkpt>
      <trkpt lat="47.86617" lon="-1.09072">
        <ele>59.7</ele>
        <time>2020-12-20T12:28:51Z</time>
      </trkpt>
      <trkpt lat="47.86622" lon="-1.09069">
        <ele>59.5</ele>
        <time>2020-12-20T12:28:52Z</time>
      </trkpt>
      <trkpt lat="47.86629" lon="-1.09065">
        <ele>59.3</ele>
        <time>2020-12-20T12:28:53Z</time>
      </trkpt>
      <trkpt lat="47.86635" lon="-1.09062">
        <ele>59</ele>
        <time>2020-12-20T12:28:54Z</time>
      </trkpt>
      <trkpt lat="47.86641" lon="-1.09059">
        <ele>58.8</ele>
        <time>2020-12-20T12:28:55Z</time>
      </trkpt>
      <trkpt lat="47.86646" lon="-1.09056">
        <ele>58.7</ele>
        <time>2020-12-20T12:28:56Z</time>
      </trkpt>
      <trkpt lat="47.86654" lon="-1.09051">
        <ele>58.4</ele>
        <time>2020-12-20T12:28:57Z</time>
      </trkpt>
      <trkpt lat="47.86659" lon="-1.09049">
        <ele>58.2</ele>
        <time>2020-12-20T12:28:58Z</time>
      </trkpt>
      <trkpt lat="47.86666" lon="-1.09044">
        <ele>58</ele>
        <time>2020-12-20T12:28:59Z</time>
      </trkpt>
      <trkpt lat="47.86672" lon="-1.09041">
        <ele>57.9</ele>
        <time>2020-12-20T12:29:00Z</time>
      </trkpt>
      <trkpt lat="47.86677" lon="-1.09038">
        <ele>57.9</ele>
        <time>2020-12-20T12:29:01Z</time>
      </trkpt>
      <trkpt lat="47.86684" lon="-1.09034">
        <ele>57.8</ele>
        <time>2020-12-20T12:29:02Z</time>
      </trkpt>
      <trkpt lat="47.8669" lon="-1.0903">
        <ele>57.7</ele>
        <time>2020-12-20T12:29:03Z</time>
      </trkpt>
      <trkpt lat="47.86696" lon="-1.09027">
        <ele>57.6</ele>
        <time>2020-12-20T12:29:04Z</time>
      </trkpt>
      <trkpt lat="47.86701" lon="-1.09024">
        <ele>57.6</ele>
        <time>2020-12-20T12:29:05Z</time>
      </trkpt>
      <trkpt lat="47.86706" lon="-1.09021">
        <ele>57.5</ele>
        <time>2020-12-20T12:29:06Z</time>
      </trkpt>
      <trkpt lat="47.86712" lon="-1.09018">
        <ele>57.5</ele>
        <time>2020-12-20T12:29:07Z</time>
      </trkpt>
      <trkpt lat="47.86716" lon="-1.09016">
        <ele>57.4</ele>
        <time>2020-12-20T12:29:08Z</time>
      </trkpt>
      <trkpt lat="47.8672" lon="-1.09014">
        <ele>57.4</ele>
        <time>2020-12-20T12:29:09Z</time>
      </trkpt>
      <trkpt lat="47.86724" lon="-1.09012">
        <ele>57.3</ele>
        <time>2020-12-20T12:29:10Z</time>
      </trkpt>
      <trkpt lat="47.8673" lon="-1.09009">
        <ele>57.2</ele>
        <time>2020-12-20T12:29:11Z</time>
      </trkpt>
      <trkpt lat="47.86734" lon="-1.09006">
        <ele>57.2</ele>
        <time>2020-12-20T12:29:12Z</time>
      </trkpt>
      <trkpt lat="47.86738" lon="-1.09004">
        <ele>57.1</ele>
        <time>2020-12-20T12:29:13Z</time>
      </trkpt>
      <trkpt lat="47.86742" lon="-1.09002">
        <ele>57.1</ele>
        <time>2020-12-20T12:29:14Z</time>
      </trkpt>
      <trkpt lat="47.86746" lon="-1.09">
        <ele>57</ele>
        <time>2020-12-20T12:29:15Z</time>
      </trkpt>
      <trkpt lat="47.8675" lon="-1.08997">
        <ele>57</ele>
        <time>2020-12-20T12:29:16Z</time>
      </trkpt>
      <trkpt lat="47.86754" lon="-1.08995">
        <ele>57</ele>
        <time>2020-12-20T12:29:17Z</time>
      </trkpt>
      <trkpt lat="47.86759" lon="-1.08993">
        <ele>57.1</ele>
        <time>2020-12-20T12:29:18Z</time>
      </trkpt>
      <trkpt lat="47.86763" lon="-1.0899">
        <ele>57.2</ele>
        <time>2020-12-20T12:29:19Z</time>
      </trkpt>
      <trkpt lat="47.86767" lon="-1.08988">
        <ele>57.3</ele>
        <time>2020-12-20T12:29:20Z</time>
      </trkpt>
      <trkpt lat="47.86771" lon="-1.08985">
        <ele>57.4</ele>
        <time>2020-12-20T12:29:21Z</time>
      </trkpt>
      <trkpt lat="47.86775" lon="-1.08983">
        <ele>57.5</ele>
        <time>2020-12-20T12:29:22Z</time>
      </trkpt>
      <trkpt lat="47.86779" lon="-1.0898">
        <ele>57.5</ele>
        <time>2020-12-20T12:29:23Z</time>
      </trkpt>
      <trkpt lat="47.86783" lon="-1.08979">
        <ele>57.6</ele>
        <time>2020-12-20T12:29:24Z</time>
      </trkpt>
      <trkpt lat="47.86787" lon="-1.08978">
        <ele>57.7</ele>
        <time>2020-12-20T12:29:25Z</time>
      </trkpt>
      <trkpt lat="47.8679" lon="-1.08978">
        <ele>57.8</ele>
        <time>2020-12-20T12:29:26Z</time>
      </trkpt>
      <trkpt lat="47.86794" lon="-1.0898">
        <ele>57.9</ele>
        <time>2020-12-20T12:29:27Z</time>
      </trkpt>
      <trkpt lat="47.86798" lon="-1.08984">
        <ele>58.1</ele>
        <time>2020-12-20T12:29:28Z</time>
      </trkpt>
      <trkpt lat="47.86801" lon="-1.0899">
        <ele>58.2</ele>
        <time>2020-12-20T12:29:29Z</time>
      </trkpt>
      <trkpt lat="47.86802" lon="-1.08996">
        <ele>58.2</ele>
        <time>2020-12-20T12:29:30Z</time>
      </trkpt>
      <trkpt lat="47.86802" lon="-1.09003">
        <ele>58.2</ele>
        <time>2020-12-20T12:29:31Z</time>
      </trkpt>
      <trkpt lat="47.86802" lon="-1.09009">
        <ele>58.2</ele>
        <time>2020-12-20T12:29:32Z</time>
      </trkpt>
      <trkpt lat="47.86802" lon="-1.09017">
        <ele>58.2</ele>
        <time>2020-12-20T12:29:33Z</time>
      </trkpt>
      <trkpt lat="47.86802" lon="-1.09024">
        <ele>58.2</ele>
        <time>2020-12-20T12:29:34Z</time>
      </trkpt>
      <trkpt lat="47.86802" lon="-1.0903">
        <ele>58.2</ele>
        <time>2020-12-20T12:29:35Z</time>
      </trkpt>
      <trkpt lat="47.86802" lon="-1.09037">
        <ele>58.2</ele>
        <time>2020-12-20T12:29:36Z</time>
      </trkpt>
      <trkpt lat="47.86803" lon="-1.09043">
        <ele>58.3</ele>
        <time>2020-12-20T12:29:37Z</time>
      </trkpt>
      <trkpt lat="47.86803" lon="-1.09049">
        <ele>58.3</ele>
        <time>2020-12-20T12:29:38Z</time>
      </trkpt>
      <trkpt lat="47.86803" lon="-1.09054">
        <ele>58.3</ele>
        <time>2020-12-20T12:29:39Z</time>
      </trkpt>
      <trkpt lat="47.86803" lon="-1.0906">
        <ele>58.3</ele>
        <time>2020-12-20T12:29:40Z</time>
      </trkpt>
      <trkpt lat="47.86803" lon="-1.09066">
        <ele>58.3</ele>
        <time>2020-12-20T12:29:41Z</time>
      </trkpt>
      <trkpt lat="47.86803" lon="-1.09072">
        <ele>58.3</ele>
        <time>2020-12-20T12:29:42Z</time>
      </trkpt>
      <trkpt lat="47.86804" lon="-1.09079">
        <ele>58.3</ele>
        <time>2020-12-20T12:29:43Z</time>
      </trkpt>
      <trkpt lat="47.86804" lon="-1.09085">
        <ele>58.3</ele>
        <time>2020-12-20T12:29:44Z</time>
      </trkpt>
      <trkpt lat="47.86804" lon="-1.0909">
        <ele>58.3</ele>
        <time>2020-12-20T12:29:45Z</time>
      </trkpt>
      <trkpt lat="47.86804" lon="-1.09096">
        <ele>58.2</ele>
        <time>2020-12-20T12:29:46Z</time>
      </trkpt>
      <trkpt lat="47.86804" lon="-1.09103">
        <ele>58.2</ele>
        <time>2020-12-20T12:29:47Z</time>
      </trkpt>
      <trkpt lat="47.86804" lon="-1.09107">
        <ele>58.2</ele>
        <time>2020-12-20T12:29:48Z</time>
      </trkpt>
      <trkpt lat="47.86804" lon="-1.09113">
        <ele>58.2</ele>
        <time>2020-12-20T12:29:49Z</time>
      </trkpt>
      <trkpt lat="47.86805" lon="-1.0912">
        <ele>58.2</ele>
        <time>2020-12-20T12:29:50Z</time>
      </trkpt>
      <trkpt lat="47.86805" lon="-1.09124">
        <ele>58.2</ele>
        <time>2020-12-20T12:29:51Z</time>
      </trkpt>
      <trkpt lat="47.86805" lon="-1.09131">
        <ele>58.1</ele>
        <time>2020-12-20T12:29:52Z</time>
      </trkpt>
      <trkpt lat="47.86805" lon="-1.09136">
        <ele>58.1</ele>
        <time>2020-12-20T12:29:53Z</time>
      </trkpt>
      <trkpt lat="47.86805" lon="-1.09142">
        <ele>58.1</ele>
        <time>2020-12-20T12:29:54Z</time>
      </trkpt>
      <trkpt lat="47.86806" lon="-1.09149">
        <ele>58.1</ele>
        <time>2020-12-20T12:29:55Z</time>
      </trkpt>
      <trkpt lat="47.86806" lon="-1.09154">
        <ele>58.1</ele>
        <time>2020-12-20T12:29:56Z</time>
      </trkpt>
      <trkpt lat="47.86806" lon="-1.0916">
        <ele>58</ele>
        <time>2020-12-20T12:29:57Z</time>
      </trkpt>
      <trkpt lat="47.86806" lon="-1.09166">
        <ele>58</ele>
        <time>2020-12-20T12:29:58Z</time>
      </trkpt>
      <trkpt lat="47.86806" lon="-1.09173">
        <ele>58</ele>
        <time>2020-12-20T12:29:59Z</time>
      </trkpt>
      <trkpt lat="47.86806" lon="-1.09179">
        <ele>58</ele>
        <time>2020-12-20T12:30:00Z</time>
      </trkpt>
      <trkpt lat="47.86806" lon="-1.09185">
        <ele>58</ele>
        <time>2020-12-20T12:30:01Z</time>
      </trkpt>
      <trkpt lat="47.86806" lon="-1.09191">
        <ele>58</ele>
        <time>2020-12-20T12:30:02Z</time>
      </trkpt>
      <trkpt lat="47.86807" lon="-1.09197">
        <ele>58.1</ele>
        <time>2020-12-20T12:30:03Z</time>
      </trkpt>
      <trkpt lat="47.86807" lon="-1.09203">
        <ele>58.1</ele>
        <time>2020-12-20T12:30:04Z</time>
      </trkpt>
      <trkpt lat="47.86807" lon="-1.0921">
        <ele>58.1</ele>
        <time>2020-12-20T12:30:05Z</time>
      </trkpt>
      <trkpt lat="47.86807" lon="-1.09214">
        <ele>58.1</ele>
        <time>2020-12-20T12:30:06Z</time>
      </trkpt>
      <trkpt lat="47.86808" lon="-1.0922">
        <ele>58.1</ele>
        <time>2020-12-20T12:30:07Z</time>
      </trkpt>
      <trkpt lat="47.86808" lon="-1.09226">
        <ele>58.1</ele>
        <time>2020-12-20T12:30:08Z</time>
      </trkpt>
      <trkpt lat="47.86808" lon="-1.09232">
        <ele>58.1</ele>
        <time>2020-12-20T12:30:09Z</time>
      </trkpt>
      <trkpt lat="47.86809" lon="-1.09237">
        <ele>58.1</ele>
        <time>2020-12-20T12:30:10Z</time>
      </trkpt>
      <trkpt lat="47.86809" lon="-1.09243">
        <ele>58.1</ele>
        <time>2020-12-20T12:30:11Z</time>
      </trkpt>
      <trkpt lat="47.86809" lon="-1.09249">
        <ele>58.1</ele>
        <time>2020-12-20T12:30:12Z</time>
      </trkpt>
      <trkpt lat="47.86809" lon="-1.09254">
        <ele>58.1</ele>
        <time>2020-12-20T12:30:13Z</time>
      </trkpt>
      <trkpt lat="47.8681" lon="-1.09261">
        <ele>58.2</ele>
        <time>2020-12-20T12:30:14Z</time>
      </trkpt>
      <trkpt lat="47.8681" lon="-1.09266">
        <ele>58.2</ele>
        <time>2020-12-20T12:30:15Z</time>
      </trkpt>
      <trkpt lat="47.8681" lon="-1.09271">
        <ele>58.2</ele>
        <time>2020-12-20T12:30:16Z</time>
      </trkpt>
      <trkpt lat="47.8681" lon="-1.09279">
        <ele>58.3</ele>
        <time>2020-12-20T12:30:17Z</time>
      </trkpt>
      <trkpt lat="47.86811" lon="-1.09283">
        <ele>58.3</ele>
        <time>2020-12-20T12:30:18Z</time>
      </trkpt>
      <trkpt lat="47.86811" lon="-1.0929">
        <ele>58.3</ele>
        <time>2020-12-20T12:30:19Z</time>
      </trkpt>
      <trkpt lat="47.86811" lon="-1.09296">
        <ele>58.3</ele>
        <time>2020-12-20T12:30:20Z</time>
      </trkpt>
      <trkpt lat="47.86811" lon="-1.09302">
        <ele>58.4</ele>
        <time>2020-12-20T12:30:21Z</time>
      </trkpt>
      <trkpt lat="47.86812" lon="-1.09308">
        <ele>58.4</ele>
        <time>2020-12-20T12:30:22Z</time>
      </trkpt>
      <trkpt lat="47.86812" lon="-1.09313">
        <ele>58.4</ele>
        <time>2020-12-20T12:30:23Z</time>
      </trkpt>
      <trkpt lat="47.86812" lon="-1.0932">
        <ele>58.4</ele>
        <time>2020-12-20T12:30:24Z</time>
      </trkpt>
      <trkpt lat="47.86812" lon="-1.09326">
        <ele>58.5</ele>
        <time>2020-12-20T12:30:25Z</time>
      </trkpt>
      <trkpt lat="47.86813" lon="-1.09332">
        <ele>58.5</ele>
        <time>2020-12-20T12:30:26Z</time>
      </trkpt>
      <trkpt lat="47.86813" lon="-1.09339">
        <ele>58.5</ele>
        <time>2020-12-20T12:30:27Z</time>
      </trkpt>
      <trkpt lat="47.86813" lon="-1.09345">
        <ele>58.4</ele>
        <time>2020-12-20T12:30:28Z</time>
      </trkpt>
      <trkpt lat="47.86814" lon="-1.09351">
        <ele>58.4</ele>
        <time>2020-12-20T12:30:29Z</time>
      </trkpt>
      <trkpt lat="47.86814" lon="-1.09357">
        <ele>58.3</ele>
        <time>2020-12-20T12:30:30Z</time>
      </trkpt>
      <trkpt lat="47.86814" lon="-1.09363">
        <ele>58.3</ele>
        <time>2020-12-20T12:30:31Z</time>
      </trkpt>
      <trkpt lat="47.86814" lon="-1.0937">
        <ele>58.2</ele>
        <time>2020-12-20T12:30:32Z</time>
      </trkpt>
      <trkpt lat="47.86814" lon="-1.09375">
        <ele>58.2</ele>
        <time>2020-12-20T12:30:33Z</time>
      </trkpt>
      <trkpt lat="47.86814" lon="-1.09382">
        <ele>58.1</ele>
        <time>2020-12-20T12:30:34Z</time>
      </trkpt>
      <trkpt lat="47.86815" lon="-1.09389">
        <ele>58</ele>
        <time>2020-12-20T12:30:35Z</time>
      </trkpt>
      <trkpt lat="47.86815" lon="-1.09394">
        <ele>58</ele>
        <time>2020-12-20T12:30:36Z</time>
      </trkpt>
      <trkpt lat="47.86816" lon="-1.094">
        <ele>58</ele>
        <time>2020-12-20T12:30:37Z</time>
      </trkpt>
      <trkpt lat="47.86816" lon="-1.09408">
        <ele>57.9</ele>
        <time>2020-12-20T12:30:38Z</time>
      </trkpt>
      <trkpt lat="47.86816" lon="-1.09413">
        <ele>57.8</ele>
        <time>2020-12-20T12:30:39Z</time>
      </trkpt>
      <trkpt lat="47.86817" lon="-1.0942">
        <ele>57.8</ele>
        <time>2020-12-20T12:30:40Z</time>
      </trkpt>
      <trkpt lat="47.86817" lon="-1.09425">
        <ele>57.8</ele>
        <time>2020-12-20T12:30:41Z</time>
      </trkpt>
      <trkpt lat="47.86818" lon="-1.09431">
        <ele>57.8</ele>
        <time>2020-12-20T12:30:42Z</time>
      </trkpt>
      <trkpt lat="47.86818" lon="-1.09439">
        <ele>57.9</ele>
        <time>2020-12-20T12:30:43Z</time>
      </trkpt>
      <trkpt lat="47.86819" lon="-1.09445">
        <ele>57.9</ele>
        <time>2020-12-20T12:30:44Z</time>
      </trkpt>
      <trkpt lat="47.86819" lon="-1.09451">
        <ele>57.9</ele>
        <time>2020-12-20T12:30:45Z</time>
      </trkpt>
      <trkpt lat="47.86819" lon="-1.09456">
        <ele>57.9</ele>
        <time>2020-12-20T12:30:46Z</time>
      </trkpt>
      <trkpt lat="47.8682" lon="-1.09462">
        <ele>57.9</ele>
        <time>2020-12-20T12:30:47Z</time>
      </trkpt>
      <trkpt lat="47.86821" lon="-1.09469">
        <ele>57.9</ele>
        <time>2020-12-20T12:30:48Z</time>
      </trkpt>
      <trkpt lat="47.86822" lon="-1.09475">
        <ele>58</ele>
        <time>2020-12-20T12:30:49Z</time>
      </trkpt>
      <trkpt lat="47.86822" lon="-1.09481">
        <ele>58</ele>
        <time>2020-12-20T12:30:50Z</time>
      </trkpt>
      <trkpt lat="47.86823" lon="-1.09486">
        <ele>58</ele>
        <time>2020-12-20T12:30:51Z</time>
      </trkpt>
      <trkpt lat="47.86823" lon="-1.09492">
        <ele>58</ele>
        <time>2020-12-20T12:30:52Z</time>
      </trkpt>
      <trkpt lat="47.86824" lon="-1.095">
        <ele>58</ele>
        <time>2020-12-20T12:30:53Z</time>
      </trkpt>
      <trkpt lat="47.86825" lon="-1.09506">
        <ele>58.1</ele>
        <time>2020-12-20T12:30:54Z</time>
      </trkpt>
      <trkpt lat="47.86825" lon="-1.0951">
        <ele>58.1</ele>
        <time>2020-12-20T12:30:55Z</time>
      </trkpt>
      <trkpt lat="47.86826" lon="-1.09516">
        <ele>58.2</ele>
        <time>2020-12-20T12:30:56Z</time>
      </trkpt>
      <trkpt lat="47.86827" lon="-1.09523">
        <ele>58.3</ele>
        <time>2020-12-20T12:30:57Z</time>
      </trkpt>
      <trkpt lat="47.86828" lon="-1.09529">
        <ele>58.4</ele>
        <time>2020-12-20T12:30:58Z</time>
      </trkpt>
      <trkpt lat="47.86829" lon="-1.09535">
        <ele>58.4</ele>
        <time>2020-12-20T12:30:59Z</time>
      </trkpt>
      <trkpt lat="47.8683" lon="-1.09541">
        <ele>58.5</ele>
        <time>2020-12-20T12:31:00Z</time>
      </trkpt>
      <trkpt lat="47.86831" lon="-1.09546">
        <ele>58.6</ele>
        <time>2020-12-20T12:31:01Z</time>
      </trkpt>
      <trkpt lat="47.86832" lon="-1.09552">
        <ele>58.6</ele>
        <time>2020-12-20T12:31:02Z</time>
      </trkpt>
      <trkpt lat="47.86833" lon="-1.09558">
        <ele>58.7</ele>
        <time>2020-12-20T12:31:03Z</time>
      </trkpt>
      <trkpt lat="47.86833" lon="-1.09564">
        <ele>58.8</ele>
        <time>2020-12-20T12:31:04Z</time>
      </trkpt>
      <trkpt lat="47.86834" lon="-1.0957">
        <ele>58.9</ele>
        <time>2020-12-20T12:31:05Z</time>
      </trkpt>
      <trkpt lat="47.86834" lon="-1.09577">
        <ele>59</ele>
        <time>2020-12-20T12:31:06Z</time>
      </trkpt>
      <trkpt lat="47.86835" lon="-1.09582">
        <ele>59.1</ele>
        <time>2020-12-20T12:31:07Z</time>
      </trkpt>
      <trkpt lat="47.86835" lon="-1.09588">
        <ele>59.1</ele>
        <time>2020-12-20T12:31:08Z</time>
      </trkpt>
      <trkpt lat="47.86836" lon="-1.09595">
        <ele>59.3</ele>
        <time>2020-12-20T12:31:09Z</time>
      </trkpt>
      <trkpt lat="47.86836" lon="-1.09601">
        <ele>59.3</ele>
        <time>2020-12-20T12:31:10Z</time>
      </trkpt>
      <trkpt lat="47.86836" lon="-1.09607">
        <ele>59.4</ele>
        <time>2020-12-20T12:31:11Z</time>
      </trkpt>
      <trkpt lat="47.86836" lon="-1.09611">
        <ele>59.4</ele>
        <time>2020-12-20T12:31:12Z</time>
      </trkpt>
      <trkpt lat="47.86837" lon="-1.09619">
        <ele>59.6</ele>
        <time>2020-12-20T12:31:13Z</time>
      </trkpt>
      <trkpt lat="47.86837" lon="-1.09624">
        <ele>59.6</ele>
        <time>2020-12-20T12:31:14Z</time>
      </trkpt>
      <trkpt lat="47.86837" lon="-1.0963">
        <ele>59.7</ele>
        <time>2020-12-20T12:31:15Z</time>
      </trkpt>
      <trkpt lat="47.86837" lon="-1.09636">
        <ele>59.8</ele>
        <time>2020-12-20T12:31:16Z</time>
      </trkpt>
      <trkpt lat="47.86837" lon="-1.09643">
        <ele>59.8</ele>
        <time>2020-12-20T12:31:17Z</time>
      </trkpt>
      <trkpt lat="47.86838" lon="-1.09648">
        <ele>59.9</ele>
        <time>2020-12-20T12:31:18Z</time>
      </trkpt>
      <trkpt lat="47.86838" lon="-1.09656">
        <ele>60</ele>
        <time>2020-12-20T12:31:19Z</time>
      </trkpt>
      <trkpt lat="47.86838" lon="-1.0966">
        <ele>60</ele>
        <time>2020-12-20T12:31:20Z</time>
      </trkpt>
      <trkpt lat="47.86839" lon="-1.09666">
        <ele>60.1</ele>
        <time>2020-12-20T12:31:21Z</time>
      </trkpt>
      <trkpt lat="47.8684" lon="-1.09672">
        <ele>60.1</ele>
        <time>2020-12-20T12:31:22Z</time>
      </trkpt>
      <trkpt lat="47.86841" lon="-1.09679">
        <ele>60.1</ele>
        <time>2020-12-20T12:31:23Z</time>
      </trkpt>
      <trkpt lat="47.86842" lon="-1.09684">
        <ele>60</ele>
        <time>2020-12-20T12:31:24Z</time>
      </trkpt>
      <trkpt lat="47.86843" lon="-1.0969">
        <ele>60</ele>
        <time>2020-12-20T12:31:25Z</time>
      </trkpt>
      <trkpt lat="47.86845" lon="-1.09695">
        <ele>60</ele>
        <time>2020-12-20T12:31:26Z</time>
      </trkpt>
      <trkpt lat="47.86846" lon="-1.09701">
        <ele>60</ele>
        <time>2020-12-20T12:31:27Z</time>
      </trkpt>
      <trkpt lat="47.86847" lon="-1.09707">
        <ele>60</ele>
        <time>2020-12-20T12:31:28Z</time>
      </trkpt>
      <trkpt lat="47.86849" lon="-1.09712">
        <ele>60</ele>
        <time>2020-12-20T12:31:29Z</time>
      </trkpt>
      <trkpt lat="47.86852" lon="-1.09723">
        <ele>60.1</ele>
        <time>2020-12-20T12:31:31Z</time>
      </trkpt>
      <trkpt lat="47.86854" lon="-1.0973">
        <ele>60.1</ele>
        <time>2020-12-20T12:31:32Z</time>
      </trkpt>
      <trkpt lat="47.86856" lon="-1.09734">
        <ele>60.2</ele>
        <time>2020-12-20T12:31:33Z</time>
      </trkpt>
      <trkpt lat="47.86858" lon="-1.0974">
        <ele>60.2</ele>
        <time>2020-12-20T12:31:34Z</time>
      </trkpt>
      <trkpt lat="47.8686" lon="-1.09746">
        <ele>60.3</ele>
        <time>2020-12-20T12:31:35Z</time>
      </trkpt>
      <trkpt lat="47.86862" lon="-1.0975">
        <ele>60.4</ele>
        <time>2020-12-20T12:31:36Z</time>
      </trkpt>
      <trkpt lat="47.86864" lon="-1.09755">
        <ele>60.5</ele>
        <time>2020-12-20T12:31:37Z</time>
      </trkpt>
      <trkpt lat="47.86865" lon="-1.0976">
        <ele>60.5</ele>
        <time>2020-12-20T12:31:38Z</time>
      </trkpt>
      <trkpt lat="47.86868" lon="-1.09766">
        <ele>60.7</ele>
        <time>2020-12-20T12:31:39Z</time>
      </trkpt>
      <trkpt lat="47.8687" lon="-1.0977">
        <ele>60.8</ele>
        <time>2020-12-20T12:31:40Z</time>
      </trkpt>
      <trkpt lat="47.86872" lon="-1.09775">
        <ele>60.9</ele>
        <time>2020-12-20T12:31:41Z</time>
      </trkpt>
      <trkpt lat="47.86874" lon="-1.09781">
        <ele>61</ele>
        <time>2020-12-20T12:31:42Z</time>
      </trkpt>
      <trkpt lat="47.86876" lon="-1.09788">
        <ele>61</ele>
        <time>2020-12-20T12:31:43Z</time>
      </trkpt>
      <trkpt lat="47.86877" lon="-1.09792">
        <ele>61.1</ele>
        <time>2020-12-20T12:31:44Z</time>
      </trkpt>
      <trkpt lat="47.86879" lon="-1.09797">
        <ele>61.1</ele>
        <time>2020-12-20T12:31:45Z</time>
      </trkpt>
      <trkpt lat="47.86881" lon="-1.09803">
        <ele>61.2</ele>
        <time>2020-12-20T12:31:46Z</time>
      </trkpt>
      <trkpt lat="47.86883" lon="-1.09809">
        <ele>61.2</ele>
        <time>2020-12-20T12:31:47Z</time>
      </trkpt>
      <trkpt lat="47.86884" lon="-1.09815">
        <ele>61.3</ele>
        <time>2020-12-20T12:31:48Z</time>
      </trkpt>
      <trkpt lat="47.86886" lon="-1.09821">
        <ele>61.3</ele>
        <time>2020-12-20T12:31:49Z</time>
      </trkpt>
      <trkpt lat="47.86887" lon="-1.09826">
        <ele>61.3</ele>
        <time>2020-12-20T12:31:50Z</time>
      </trkpt>
      <trkpt lat="47.86888" lon="-1.09832">
        <ele>61.3</ele>
        <time>2020-12-20T12:31:51Z</time>
      </trkpt>
      <trkpt lat="47.86889" lon="-1.09839">
        <ele>61.3</ele>
        <time>2020-12-20T12:31:52Z</time>
      </trkpt>
      <trkpt lat="47.86889" lon="-1.09845">
        <ele>61.2</ele>
        <time>2020-12-20T12:31:53Z</time>
      </trkpt>
      <trkpt lat="47.86889" lon="-1.09851">
        <ele>61.2</ele>
        <time>2020-12-20T12:31:54Z</time>
      </trkpt>
      <trkpt lat="47.86889" lon="-1.09857">
        <ele>61.1</ele>
        <time>2020-12-20T12:31:55Z</time>
      </trkpt>
      <trkpt lat="47.86889" lon="-1.09861">
        <ele>61.1</ele>
        <time>2020-12-20T12:31:56Z</time>
      </trkpt>
      <trkpt lat="47.86888" lon="-1.09869">
        <ele>61</ele>
        <time>2020-12-20T12:31:57Z</time>
      </trkpt>
      <trkpt lat="47.86888" lon="-1.09875">
        <ele>61</ele>
        <time>2020-12-20T12:31:58Z</time>
      </trkpt>
      <trkpt lat="47.86887" lon="-1.09881">
        <ele>60.9</ele>
        <time>2020-12-20T12:31:59Z</time>
      </trkpt>
      <trkpt lat="47.86887" lon="-1.09887">
        <ele>60.9</ele>
        <time>2020-12-20T12:32:00Z</time>
      </trkpt>
      <trkpt lat="47.86887" lon="-1.09895">
        <ele>60.8</ele>
        <time>2020-12-20T12:32:01Z</time>
      </trkpt>
      <trkpt lat="47.86887" lon="-1.09901">
        <ele>60.8</ele>
        <time>2020-12-20T12:32:02Z</time>
      </trkpt>
      <trkpt lat="47.86887" lon="-1.09908">
        <ele>60.7</ele>
        <time>2020-12-20T12:32:03Z</time>
      </trkpt>
      <trkpt lat="47.86887" lon="-1.09914">
        <ele>60.7</ele>
        <time>2020-12-20T12:32:04Z</time>
      </trkpt>
      <trkpt lat="47.86888" lon="-1.0992">
        <ele>60.6</ele>
        <time>2020-12-20T12:32:05Z</time>
      </trkpt>
      <trkpt lat="47.86888" lon="-1.09927">
        <ele>60.6</ele>
        <time>2020-12-20T12:32:06Z</time>
      </trkpt>
      <trkpt lat="47.86889" lon="-1.09933">
        <ele>60.5</ele>
        <time>2020-12-20T12:32:07Z</time>
      </trkpt>
      <trkpt lat="47.86889" lon="-1.0994">
        <ele>60.5</ele>
        <time>2020-12-20T12:32:08Z</time>
      </trkpt>
      <trkpt lat="47.8689" lon="-1.09946">
        <ele>60.4</ele>
        <time>2020-12-20T12:32:09Z</time>
      </trkpt>
      <trkpt lat="47.86891" lon="-1.09953">
        <ele>60.4</ele>
        <time>2020-12-20T12:32:10Z</time>
      </trkpt>
      <trkpt lat="47.86891" lon="-1.09959">
        <ele>60.3</ele>
        <time>2020-12-20T12:32:11Z</time>
      </trkpt>
      <trkpt lat="47.86892" lon="-1.09964">
        <ele>60.3</ele>
        <time>2020-12-20T12:32:12Z</time>
      </trkpt>
      <trkpt lat="47.86893" lon="-1.0997">
        <ele>60.3</ele>
        <time>2020-12-20T12:32:13Z</time>
      </trkpt>
      <trkpt lat="47.86894" lon="-1.09977">
        <ele>60.2</ele>
        <time>2020-12-20T12:32:14Z</time>
      </trkpt>
      <trkpt lat="47.86896" lon="-1.09983">
        <ele>60.2</ele>
        <time>2020-12-20T12:32:15Z</time>
      </trkpt>
      <trkpt lat="47.86897" lon="-1.09988">
        <ele>60.1</ele>
        <time>2020-12-20T12:32:16Z</time>
      </trkpt>
      <trkpt lat="47.86898" lon="-1.09994">
        <ele>60.1</ele>
        <time>2020-12-20T12:32:17Z</time>
      </trkpt>
      <trkpt lat="47.869" lon="-1.1">
        <ele>60</ele>
        <time>2020-12-20T12:32:18Z</time>
      </trkpt>
      <trkpt lat="47.86901" lon="-1.10006">
        <ele>60.1</ele>
        <time>2020-12-20T12:32:19Z</time>
      </trkpt>
      <trkpt lat="47.86903" lon="-1.10011">
        <ele>60.1</ele>
        <time>2020-12-20T12:32:20Z</time>
      </trkpt>
      <trkpt lat="47.86905" lon="-1.10017">
        <ele>60.2</ele>
        <time>2020-12-20T12:32:21Z</time>
      </trkpt>
      <trkpt lat="47.86906" lon="-1.10023">
        <ele>60.2</ele>
        <time>2020-12-20T12:32:22Z</time>
      </trkpt>
      <trkpt lat="47.86908" lon="-1.10029">
        <ele>60.3</ele>
        <time>2020-12-20T12:32:23Z</time>
      </trkpt>
      <trkpt lat="47.86909" lon="-1.10034">
        <ele>60.4</ele>
        <time>2020-12-20T12:32:24Z</time>
      </trkpt>
      <trkpt lat="47.8691" lon="-1.1004">
        <ele>60.4</ele>
        <time>2020-12-20T12:32:25Z</time>
      </trkpt>
      <trkpt lat="47.86912" lon="-1.10047">
        <ele>60.5</ele>
        <time>2020-12-20T12:32:26Z</time>
      </trkpt>
      <trkpt lat="47.86913" lon="-1.10051">
        <ele>60.6</ele>
        <time>2020-12-20T12:32:27Z</time>
      </trkpt>
      <trkpt lat="47.86915" lon="-1.10057">
        <ele>60.7</ele>
        <time>2020-12-20T12:32:28Z</time>
      </trkpt>
      <trkpt lat="47.86916" lon="-1.10062">
        <ele>60.7</ele>
        <time>2020-12-20T12:32:29Z</time>
      </trkpt>
      <trkpt lat="47.86918" lon="-1.10068">
        <ele>60.9</ele>
        <time>2020-12-20T12:32:30Z</time>
      </trkpt>
      <trkpt lat="47.86919" lon="-1.10073">
        <ele>61</ele>
        <time>2020-12-20T12:32:31Z</time>
      </trkpt>
      <trkpt lat="47.86921" lon="-1.10079">
        <ele>61.1</ele>
        <time>2020-12-20T12:32:32Z</time>
      </trkpt>
      <trkpt lat="47.86922" lon="-1.10083">
        <ele>61.2</ele>
        <time>2020-12-20T12:32:33Z</time>
      </trkpt>
      <trkpt lat="47.86924" lon="-1.10088">
        <ele>61.3</ele>
        <time>2020-12-20T12:32:34Z</time>
      </trkpt>
      <trkpt lat="47.86925" lon="-1.10093">
        <ele>61.3</ele>
        <time>2020-12-20T12:32:35Z</time>
      </trkpt>
      <trkpt lat="47.86927" lon="-1.10099">
        <ele>61.4</ele>
        <time>2020-12-20T12:32:36Z</time>
      </trkpt>
      <trkpt lat="47.86928" lon="-1.10103">
        <ele>61.4</ele>
        <time>2020-12-20T12:32:37Z</time>
      </trkpt>
      <trkpt lat="47.86929" lon="-1.10108">
        <ele>61.5</ele>
        <time>2020-12-20T12:32:38Z</time>
      </trkpt>
      <trkpt lat="47.8693" lon="-1.10113">
        <ele>61.5</ele>
        <time>2020-12-20T12:32:39Z</time>
      </trkpt>
      <trkpt lat="47.86932" lon="-1.10118">
        <ele>61.6</ele>
        <time>2020-12-20T12:32:40Z</time>
      </trkpt>
      <trkpt lat="47.86934" lon="-1.10123">
        <ele>61.7</ele>
        <time>2020-12-20T12:32:41Z</time>
      </trkpt>
      <trkpt lat="47.86935" lon="-1.10127">
        <ele>61.8</ele>
        <time>2020-12-20T12:32:42Z</time>
      </trkpt>
      <trkpt lat="47.86936" lon="-1.10132">
        <ele>61.8</ele>
        <time>2020-12-20T12:32:43Z</time>
      </trkpt>
      <trkpt lat="47.86938" lon="-1.10137">
        <ele>61.9</ele>
        <time>2020-12-20T12:32:44Z</time>
      </trkpt>
      <trkpt lat="47.86939" lon="-1.10141">
        <ele>62</ele>
        <time>2020-12-20T12:32:45Z</time>
      </trkpt>
      <trkpt lat="47.8694" lon="-1.10146">
        <ele>62.1</ele>
        <time>2020-12-20T12:32:46Z</time>
      </trkpt>
      <trkpt lat="47.86941" lon="-1.1015">
        <ele>62.1</ele>
        <time>2020-12-20T12:32:47Z</time>
      </trkpt>
      <trkpt lat="47.86943" lon="-1.10156">
        <ele>62.2</ele>
        <time>2020-12-20T12:32:48Z</time>
      </trkpt>
      <trkpt lat="47.86944" lon="-1.10161">
        <ele>62.3</ele>
        <time>2020-12-20T12:32:49Z</time>
      </trkpt>
      <trkpt lat="47.86946" lon="-1.10166">
        <ele>62.4</ele>
        <time>2020-12-20T12:32:50Z</time>
      </trkpt>
      <trkpt lat="47.86947" lon="-1.1017">
        <ele>62.5</ele>
        <time>2020-12-20T12:32:51Z</time>
      </trkpt>
      <trkpt lat="47.86948" lon="-1.10175">
        <ele>62.5</ele>
        <time>2020-12-20T12:32:52Z</time>
      </trkpt>
      <trkpt lat="47.8695" lon="-1.1018">
        <ele>62.7</ele>
        <time>2020-12-20T12:32:53Z</time>
      </trkpt>
      <trkpt lat="47.86951" lon="-1.10185">
        <ele>62.7</ele>
        <time>2020-12-20T12:32:54Z</time>
      </trkpt>
      <trkpt lat="47.86952" lon="-1.10189">
        <ele>62.8</ele>
        <time>2020-12-20T12:32:55Z</time>
      </trkpt>
      <trkpt lat="47.86953" lon="-1.10193">
        <ele>62.9</ele>
        <time>2020-12-20T12:32:56Z</time>
      </trkpt>
      <trkpt lat="47.86955" lon="-1.10199">
        <ele>63</ele>
        <time>2020-12-20T12:32:57Z</time>
      </trkpt>
      <trkpt lat="47.86956" lon="-1.10203">
        <ele>63.1</ele>
        <time>2020-12-20T12:32:58Z</time>
      </trkpt>
      <trkpt lat="47.86957" lon="-1.10207">
        <ele>63.2</ele>
        <time>2020-12-20T12:32:59Z</time>
      </trkpt>
      <trkpt lat="47.86958" lon="-1.10211">
        <ele>63.2</ele>
        <time>2020-12-20T12:33:00Z</time>
      </trkpt>
      <trkpt lat="47.86959" lon="-1.10217">
        <ele>63.3</ele>
        <time>2020-12-20T12:33:01Z</time>
      </trkpt>
      <trkpt lat="47.86959" lon="-1.1022">
        <ele>63.4</ele>
        <time>2020-12-20T12:33:02Z</time>
      </trkpt>
      <trkpt lat="47.8696" lon="-1.10225">
        <ele>63.4</ele>
        <time>2020-12-20T12:33:03Z</time>
      </trkpt>
      <trkpt lat="47.86961" lon="-1.10231">
        <ele>63.5</ele>
        <time>2020-12-20T12:33:04Z</time>
      </trkpt>
      <trkpt lat="47.86962" lon="-1.10235">
        <ele>63.6</ele>
        <time>2020-12-20T12:33:05Z</time>
      </trkpt>
      <trkpt lat="47.86962" lon="-1.10239">
        <ele>63.6</ele>
        <time>2020-12-20T12:33:06Z</time>
      </trkpt>
      <trkpt lat="47.86962" lon="-1.10246">
        <ele>63.7</ele>
        <time>2020-12-20T12:33:07Z</time>
      </trkpt>
      <trkpt lat="47.86962" lon="-1.1025">
        <ele>63.7</ele>
        <time>2020-12-20T12:33:08Z</time>
      </trkpt>
      <trkpt lat="47.86961" lon="-1.10256">
        <ele>63.7</ele>
        <time>2020-12-20T12:33:09Z</time>
      </trkpt>
      <trkpt lat="47.8696" lon="-1.1026">
        <ele>63.7</ele>
        <time>2020-12-20T12:33:10Z</time>
      </trkpt>
      <trkpt lat="47.8696" lon="-1.10265">
        <ele>63.8</ele>
        <time>2020-12-20T12:33:11Z</time>
      </trkpt>
      <trkpt lat="47.86959" lon="-1.10269">
        <ele>63.8</ele>
        <time>2020-12-20T12:33:12Z</time>
      </trkpt>
      <trkpt lat="47.86957" lon="-1.10274">
        <ele>63.7</ele>
        <time>2020-12-20T12:33:13Z</time>
      </trkpt>
      <trkpt lat="47.86956" lon="-1.10279">
        <ele>63.7</ele>
        <time>2020-12-20T12:33:14Z</time>
      </trkpt>
      <trkpt lat="47.86954" lon="-1.10285">
        <ele>63.7</ele>
        <time>2020-12-20T12:33:15Z</time>
      </trkpt>
      <trkpt lat="47.86952" lon="-1.10289">
        <ele>63.6</ele>
        <time>2020-12-20T12:33:16Z</time>
      </trkpt>
      <trkpt lat="47.8695" lon="-1.10295">
        <ele>63.5</ele>
        <time>2020-12-20T12:33:17Z</time>
      </trkpt>
      <trkpt lat="47.86948" lon="-1.10299">
        <ele>63.5</ele>
        <time>2020-12-20T12:33:18Z</time>
      </trkpt>
      <trkpt lat="47.86945" lon="-1.10304">
        <ele>63.3</ele>
        <time>2020-12-20T12:33:19Z</time>
      </trkpt>
      <trkpt lat="47.86942" lon="-1.1031">
        <ele>63.2</ele>
        <time>2020-12-20T12:33:20Z</time>
      </trkpt>
      <trkpt lat="47.8694" lon="-1.10314">
        <ele>63.2</ele>
        <time>2020-12-20T12:33:21Z</time>
      </trkpt>
      <trkpt lat="47.86938" lon="-1.10319">
        <ele>63.1</ele>
        <time>2020-12-20T12:33:22Z</time>
      </trkpt>
      <trkpt lat="47.86935" lon="-1.10324">
        <ele>63</ele>
        <time>2020-12-20T12:33:23Z</time>
      </trkpt>
      <trkpt lat="47.86932" lon="-1.10329">
        <ele>62.9</ele>
        <time>2020-12-20T12:33:24Z</time>
      </trkpt>
      <trkpt lat="47.8693" lon="-1.10333">
        <ele>62.8</ele>
        <time>2020-12-20T12:33:25Z</time>
      </trkpt>
      <trkpt lat="47.86928" lon="-1.10337">
        <ele>62.7</ele>
        <time>2020-12-20T12:33:26Z</time>
      </trkpt>
      <trkpt lat="47.86925" lon="-1.10342">
        <ele>62.5</ele>
        <time>2020-12-20T12:33:27Z</time>
      </trkpt>
      <trkpt lat="47.86923" lon="-1.10346">
        <ele>62.4</ele>
        <time>2020-12-20T12:33:28Z</time>
      </trkpt>
      <trkpt lat="47.86921" lon="-1.1035">
        <ele>62.2</ele>
        <time>2020-12-20T12:33:29Z</time>
      </trkpt>
      <trkpt lat="47.86919" lon="-1.10354">
        <ele>62.1</ele>
        <time>2020-12-20T12:33:30Z</time>
      </trkpt>
      <trkpt lat="47.86917" lon="-1.10358">
        <ele>62</ele>
        <time>2020-12-20T12:33:31Z</time>
      </trkpt>
      <trkpt lat="47.86915" lon="-1.10362">
        <ele>62</ele>
        <time>2020-12-20T12:33:32Z</time>
      </trkpt>
      <trkpt lat="47.86913" lon="-1.10367">
        <ele>62</ele>
        <time>2020-12-20T12:33:33Z</time>
      </trkpt>
      <trkpt lat="47.86912" lon="-1.1037">
        <ele>62</ele>
        <time>2020-12-20T12:33:34Z</time>
      </trkpt>
      <trkpt lat="47.8691" lon="-1.10376">
        <ele>62</ele>
        <time>2020-12-20T12:33:35Z</time>
      </trkpt>
      <trkpt lat="47.86909" lon="-1.10381">
        <ele>62</ele>
        <time>2020-12-20T12:33:36Z</time>
      </trkpt>
      <trkpt lat="47.86908" lon="-1.10388">
        <ele>62</ele>
        <time>2020-12-20T12:33:37Z</time>
      </trkpt>
      <trkpt lat="47.86908" lon="-1.10394">
        <ele>62</ele>
        <time>2020-12-20T12:33:38Z</time>
      </trkpt>
      <trkpt lat="47.86908" lon="-1.104">
        <ele>62</ele>
        <time>2020-12-20T12:33:39Z</time>
      </trkpt>
      <trkpt lat="47.86907" lon="-1.10406">
        <ele>62</ele>
        <time>2020-12-20T12:33:40Z</time>
      </trkpt>
      <trkpt lat="47.86908" lon="-1.10411">
        <ele>62</ele>
        <time>2020-12-20T12:33:41Z</time>
      </trkpt>
      <trkpt lat="47.86908" lon="-1.10418">
        <ele>62</ele>
        <time>2020-12-20T12:33:42Z</time>
      </trkpt>
      <trkpt lat="47.86908" lon="-1.10424">
        <ele>62</ele>
        <time>2020-12-20T12:33:43Z</time>
      </trkpt>
      <trkpt lat="47.86909" lon="-1.1043">
        <ele>62</ele>
        <time>2020-12-20T12:33:44Z</time>
      </trkpt>
      <trkpt lat="47.86909" lon="-1.10437">
        <ele>62</ele>
        <time>2020-12-20T12:33:45Z</time>
      </trkpt>
      <trkpt lat="47.86909" lon="-1.10442">
        <ele>62</ele>
        <time>2020-12-20T12:33:46Z</time>
      </trkpt>
      <trkpt lat="47.8691" lon="-1.10448">
        <ele>62</ele>
        <time>2020-12-20T12:33:47Z</time>
      </trkpt>
      <trkpt lat="47.8691" lon="-1.10455">
        <ele>62</ele>
        <time>2020-12-20T12:33:48Z</time>
      </trkpt>
      <trkpt lat="47.8691" lon="-1.1046">
        <ele>62</ele>
        <time>2020-12-20T12:33:49Z</time>
      </trkpt>
      <trkpt lat="47.86911" lon="-1.10468">
        <ele>62</ele>
        <time>2020-12-20T12:33:50Z</time>
      </trkpt>
      <trkpt lat="47.86912" lon="-1.10472">
        <ele>62</ele>
        <time>2020-12-20T12:33:51Z</time>
      </trkpt>
      <trkpt lat="47.86913" lon="-1.10479">
        <ele>62</ele>
        <time>2020-12-20T12:33:52Z</time>
      </trkpt>
      <trkpt lat="47.86913" lon="-1.10484">
        <ele>62</ele>
        <time>2020-12-20T12:33:53Z</time>
      </trkpt>
      <trkpt lat="47.86914" lon="-1.1049">
        <ele>62</ele>
        <time>2020-12-20T12:33:54Z</time>
      </trkpt>
      <trkpt lat="47.86915" lon="-1.10496">
        <ele>62</ele>
        <time>2020-12-20T12:33:55Z</time>
      </trkpt>
      <trkpt lat="47.86916" lon="-1.10502">
        <ele>62</ele>
        <time>2020-12-20T12:33:56Z</time>
      </trkpt>
      <trkpt lat="47.86916" lon="-1.10507">
        <ele>62</ele>
        <time>2020-12-20T12:33:57Z</time>
      </trkpt>
      <trkpt lat="47.86917" lon="-1.10513">
        <ele>62</ele>
        <time>2020-12-20T12:33:58Z</time>
      </trkpt>
      <trkpt lat="47.86919" lon="-1.10519">
        <ele>62.1</ele>
        <time>2020-12-20T12:33:59Z</time>
      </trkpt>
      <trkpt lat="47.8692" lon="-1.10524">
        <ele>62.2</ele>
        <time>2020-12-20T12:34:00Z</time>
      </trkpt>
      <trkpt lat="47.86921" lon="-1.1053">
        <ele>62.3</ele>
        <time>2020-12-20T12:34:01Z</time>
      </trkpt>
      <trkpt lat="47.86922" lon="-1.10537">
        <ele>62.3</ele>
        <time>2020-12-20T12:34:02Z</time>
      </trkpt>
      <trkpt lat="47.86923" lon="-1.10543">
        <ele>62.4</ele>
        <time>2020-12-20T12:34:03Z</time>
      </trkpt>
      <trkpt lat="47.86925" lon="-1.10548">
        <ele>62.5</ele>
        <time>2020-12-20T12:34:04Z</time>
      </trkpt>
      <trkpt lat="47.86926" lon="-1.10554">
        <ele>62.6</ele>
        <time>2020-12-20T12:34:05Z</time>
      </trkpt>
      <trkpt lat="47.86927" lon="-1.10559">
        <ele>62.6</ele>
        <time>2020-12-20T12:34:06Z</time>
      </trkpt>
      <trkpt lat="47.86928" lon="-1.10565">
        <ele>62.7</ele>
        <time>2020-12-20T12:34:07Z</time>
      </trkpt>
      <trkpt lat="47.86929" lon="-1.1057">
        <ele>62.7</ele>
        <time>2020-12-20T12:34:08Z</time>
      </trkpt>
      <trkpt lat="47.8693" lon="-1.10576">
        <ele>62.8</ele>
        <time>2020-12-20T12:34:09Z</time>
      </trkpt>
      <trkpt lat="47.86931" lon="-1.10581">
        <ele>62.9</ele>
        <time>2020-12-20T12:34:10Z</time>
      </trkpt>
      <trkpt lat="47.86932" lon="-1.10587">
        <ele>63</ele>
        <time>2020-12-20T12:34:11Z</time>
      </trkpt>
      <trkpt lat="47.86933" lon="-1.10593">
        <ele>63.2</ele>
        <time>2020-12-20T12:34:12Z</time>
      </trkpt>
      <trkpt lat="47.86934" lon="-1.10598">
        <ele>63.4</ele>
        <time>2020-12-20T12:34:13Z</time>
      </trkpt>
      <trkpt lat="47.86935" lon="-1.10604">
        <ele>63.5</ele>
        <time>2020-12-20T12:34:14Z</time>
      </trkpt>
      <trkpt lat="47.86936" lon="-1.1061">
        <ele>63.7</ele>
        <time>2020-12-20T12:34:15Z</time>
      </trkpt>
      <trkpt lat="47.86937" lon="-1.10614">
        <ele>63.9</ele>
        <time>2020-12-20T12:34:16Z</time>
      </trkpt>
      <trkpt lat="47.86938" lon="-1.1062">
        <ele>64</ele>
        <time>2020-12-20T12:34:17Z</time>
      </trkpt>
      <trkpt lat="47.86939" lon="-1.10626">
        <ele>64.2</ele>
        <time>2020-12-20T12:34:18Z</time>
      </trkpt>
      <trkpt lat="47.8694" lon="-1.10631">
        <ele>64.4</ele>
        <time>2020-12-20T12:34:19Z</time>
      </trkpt>
      <trkpt lat="47.86941" lon="-1.10637">
        <ele>64.6</ele>
        <time>2020-12-20T12:34:20Z</time>
      </trkpt>
      <trkpt lat="47.86942" lon="-1.10644">
        <ele>64.8</ele>
        <time>2020-12-20T12:34:21Z</time>
      </trkpt>
      <trkpt lat="47.86943" lon="-1.10649">
        <ele>64.9</ele>
        <time>2020-12-20T12:34:22Z</time>
      </trkpt>
      <trkpt lat="47.86944" lon="-1.10655">
        <ele>65.1</ele>
        <time>2020-12-20T12:34:23Z</time>
      </trkpt>
      <trkpt lat="47.86944" lon="-1.10661">
        <ele>65.2</ele>
        <time>2020-12-20T12:34:24Z</time>
      </trkpt>
      <trkpt lat="47.86945" lon="-1.10667">
        <ele>65.4</ele>
        <time>2020-12-20T12:34:25Z</time>
      </trkpt>
      <trkpt lat="47.86945" lon="-1.10672">
        <ele>65.3</ele>
        <time>2020-12-20T12:34:26Z</time>
      </trkpt>
      <trkpt lat="47.86946" lon="-1.10678">
        <ele>65.4</ele>
        <time>2020-12-20T12:34:27Z</time>
      </trkpt>
      <trkpt lat="47.86946" lon="-1.10683">
        <ele>65.3</ele>
        <time>2020-12-20T12:34:28Z</time>
      </trkpt>
      <trkpt lat="47.86946" lon="-1.10689">
        <ele>65.3</ele>
        <time>2020-12-20T12:34:29Z</time>
      </trkpt>
      <trkpt lat="47.86947" lon="-1.10694">
        <ele>65.4</ele>
        <time>2020-12-20T12:34:30Z</time>
      </trkpt>
      <trkpt lat="47.86947" lon="-1.10699">
        <ele>65.4</ele>
        <time>2020-12-20T12:34:31Z</time>
      </trkpt>
      <trkpt lat="47.86947" lon="-1.10706">
        <ele>65.3</ele>
        <time>2020-12-20T12:34:32Z</time>
      </trkpt>
      <trkpt lat="47.86947" lon="-1.10711">
        <ele>65.3</ele>
        <time>2020-12-20T12:34:33Z</time>
      </trkpt>
      <trkpt lat="47.86947" lon="-1.10722">
        <ele>65.3</ele>
        <time>2020-12-20T12:34:34Z</time>
      </trkpt>
      <trkpt lat="47.86947" lon="-1.10722">
        <ele>65.3</ele>
        <time>2020-12-20T12:34:35Z</time>
      </trkpt>
      <trkpt lat="47.86948" lon="-1.10727">
        <ele>65.3</ele>
        <time>2020-12-20T12:34:36Z</time>
      </trkpt>
      <trkpt lat="47.86948" lon="-1.10732">
        <ele>65.3</ele>
        <time>2020-12-20T12:34:37Z</time>
      </trkpt>
      <trkpt lat="47.86948" lon="-1.10738">
        <ele>65.3</ele>
        <time>2020-12-20T12:34:38Z</time>
      </trkpt>
      <trkpt lat="47.86948" lon="-1.10748">
        <ele>65.3</ele>
        <time>2020-12-20T12:34:39Z</time>
      </trkpt>
      <trkpt lat="47.86948" lon="-1.10748">
        <ele>65.3</ele>
        <time>2020-12-20T12:34:40Z</time>
      </trkpt>
      <trkpt lat="47.86949" lon="-1.10752">
        <ele>65.3</ele>
        <time>2020-12-20T12:34:41Z</time>
      </trkpt>
      <trkpt lat="47.86949" lon="-1.10757">
        <ele>65.4</ele>
        <time>2020-12-20T12:34:42Z</time>
      </trkpt>
      <trkpt lat="47.86949" lon="-1.10763">
        <ele>65.4</ele>
        <time>2020-12-20T12:34:43Z</time>
      </trkpt>
      <trkpt lat="47.86949" lon="-1.10768">
        <ele>65.5</ele>
        <time>2020-12-20T12:34:44Z</time>
      </trkpt>
      <trkpt lat="47.86949" lon="-1.10774">
        <ele>65.5</ele>
        <time>2020-12-20T12:34:45Z</time>
      </trkpt>
      <trkpt lat="47.86949" lon="-1.10779">
        <ele>65.5</ele>
        <time>2020-12-20T12:34:46Z</time>
      </trkpt>
      <trkpt lat="47.86949" lon="-1.10784">
        <ele>65.6</ele>
        <time>2020-12-20T12:34:47Z</time>
      </trkpt>
      <trkpt lat="47.8695" lon="-1.10789">
        <ele>65.7</ele>
        <time>2020-12-20T12:34:48Z</time>
      </trkpt>
      <trkpt lat="47.8695" lon="-1.10793">
        <ele>65.7</ele>
        <time>2020-12-20T12:34:49Z</time>
      </trkpt>
      <trkpt lat="47.8695" lon="-1.10798">
        <ele>65.7</ele>
        <time>2020-12-20T12:34:50Z</time>
      </trkpt>
      <trkpt lat="47.8695" lon="-1.10803">
        <ele>65.8</ele>
        <time>2020-12-20T12:34:51Z</time>
      </trkpt>
      <trkpt lat="47.86951" lon="-1.10809">
        <ele>65.9</ele>
        <time>2020-12-20T12:34:52Z</time>
      </trkpt>
      <trkpt lat="47.86951" lon="-1.10814">
        <ele>65.9</ele>
        <time>2020-12-20T12:34:53Z</time>
      </trkpt>
      <trkpt lat="47.86952" lon="-1.10819">
        <ele>66</ele>
        <time>2020-12-20T12:34:54Z</time>
      </trkpt>
      <trkpt lat="47.86952" lon="-1.10824">
        <ele>66.1</ele>
        <time>2020-12-20T12:34:55Z</time>
      </trkpt>
      <trkpt lat="47.86953" lon="-1.1083">
        <ele>66.2</ele>
        <time>2020-12-20T12:34:56Z</time>
      </trkpt>
      <trkpt lat="47.86953" lon="-1.10836">
        <ele>66.2</ele>
        <time>2020-12-20T12:34:57Z</time>
      </trkpt>
      <trkpt lat="47.86954" lon="-1.10841">
        <ele>66.2</ele>
        <time>2020-12-20T12:34:58Z</time>
      </trkpt>
      <trkpt lat="47.86954" lon="-1.10847">
        <ele>66.1</ele>
        <time>2020-12-20T12:34:59Z</time>
      </trkpt>
      <trkpt lat="47.86955" lon="-1.10852">
        <ele>66.2</ele>
        <time>2020-12-20T12:35:00Z</time>
      </trkpt>
      <trkpt lat="47.86957" lon="-1.10862">
        <ele>66.2</ele>
        <time>2020-12-20T12:35:01Z</time>
      </trkpt>
      <trkpt lat="47.86957" lon="-1.10862">
        <ele>66.2</ele>
        <time>2020-12-20T12:35:02Z</time>
      </trkpt>
      <trkpt lat="47.86957" lon="-1.10868">
        <ele>66.2</ele>
        <time>2020-12-20T12:35:03Z</time>
      </trkpt>
      <trkpt lat="47.86958" lon="-1.10873">
        <ele>66.2</ele>
        <time>2020-12-20T12:35:04Z</time>
      </trkpt>
      <trkpt lat="47.86958" lon="-1.10878">
        <ele>66.2</ele>
        <time>2020-12-20T12:35:05Z</time>
      </trkpt>
      <trkpt lat="47.86959" lon="-1.10883">
        <ele>66.2</ele>
        <time>2020-12-20T12:35:06Z</time>
      </trkpt>
      <trkpt lat="47.8696" lon="-1.10889">
        <ele>66.3</ele>
        <time>2020-12-20T12:35:07Z</time>
      </trkpt>
      <trkpt lat="47.86961" lon="-1.10894">
        <ele>66.3</ele>
        <time>2020-12-20T12:35:08Z</time>
      </trkpt>
      <trkpt lat="47.86962" lon="-1.10899">
        <ele>66.4</ele>
        <time>2020-12-20T12:35:09Z</time>
      </trkpt>
      <trkpt lat="47.86963" lon="-1.10905">
        <ele>66.4</ele>
        <time>2020-12-20T12:35:10Z</time>
      </trkpt>
      <trkpt lat="47.86964" lon="-1.1091">
        <ele>66.4</ele>
        <time>2020-12-20T12:35:11Z</time>
      </trkpt>
      <trkpt lat="47.86965" lon="-1.1092">
        <ele>66.5</ele>
        <time>2020-12-20T12:35:12Z</time>
      </trkpt>
      <trkpt lat="47.86965" lon="-1.1092">
        <ele>66.5</ele>
        <time>2020-12-20T12:35:13Z</time>
      </trkpt>
      <trkpt lat="47.86966" lon="-1.10926">
        <ele>66.6</ele>
        <time>2020-12-20T12:35:14Z</time>
      </trkpt>
      <trkpt lat="47.86967" lon="-1.10931">
        <ele>66.6</ele>
        <time>2020-12-20T12:35:15Z</time>
      </trkpt>
      <trkpt lat="47.86967" lon="-1.10937">
        <ele>66.6</ele>
        <time>2020-12-20T12:35:16Z</time>
      </trkpt>
      <trkpt lat="47.86968" lon="-1.10942">
        <ele>66.7</ele>
        <time>2020-12-20T12:35:17Z</time>
      </trkpt>
      <trkpt lat="47.8697" lon="-1.10953">
        <ele>66.8</ele>
        <time>2020-12-20T12:35:18Z</time>
      </trkpt>
      <trkpt lat="47.86971" lon="-1.10958">
        <ele>66.9</ele>
        <time>2020-12-20T12:35:19Z</time>
      </trkpt>
      <trkpt lat="47.86971" lon="-1.10963">
        <ele>66.9</ele>
        <time>2020-12-20T12:35:20Z</time>
      </trkpt>
      <trkpt lat="47.86972" lon="-1.10968">
        <ele>67</ele>
        <time>2020-12-20T12:35:21Z</time>
      </trkpt>
      <trkpt lat="47.86973" lon="-1.10974">
        <ele>67.1</ele>
        <time>2020-12-20T12:35:22Z</time>
      </trkpt>
      <trkpt lat="47.86974" lon="-1.10979">
        <ele>67.1</ele>
        <time>2020-12-20T12:35:23Z</time>
      </trkpt>
      <trkpt lat="47.86974" lon="-1.10983">
        <ele>67.1</ele>
        <time>2020-12-20T12:35:24Z</time>
      </trkpt>
      <trkpt lat="47.86975" lon="-1.10988">
        <ele>67.2</ele>
        <time>2020-12-20T12:35:25Z</time>
      </trkpt>
      <trkpt lat="47.86975" lon="-1.10993">
        <ele>67.2</ele>
        <time>2020-12-20T12:35:26Z</time>
      </trkpt>
      <trkpt lat="47.86975" lon="-1.10997">
        <ele>67.2</ele>
        <time>2020-12-20T12:35:27Z</time>
      </trkpt>
      <trkpt lat="47.86975" lon="-1.11001">
        <ele>67.2</ele>
        <time>2020-12-20T12:35:28Z</time>
      </trkpt>
      <trkpt lat="47.86974" lon="-1.11005">
        <ele>67.1</ele>
        <time>2020-12-20T12:35:29Z</time>
      </trkpt>
      <trkpt lat="47.86974" lon="-1.1101">
        <ele>67.2</ele>
        <time>2020-12-20T12:35:30Z</time>
      </trkpt>
      <trkpt lat="47.86974" lon="-1.11015">
        <ele>67.2</ele>
        <time>2020-12-20T12:35:31Z</time>
      </trkpt>
      <trkpt lat="47.86974" lon="-1.1102">
        <ele>67.2</ele>
        <time>2020-12-20T12:35:32Z</time>
      </trkpt>
      <trkpt lat="47.86974" lon="-1.11025">
        <ele>67.2</ele>
        <time>2020-12-20T12:35:33Z</time>
      </trkpt>
      <trkpt lat="47.86974" lon="-1.1103">
        <ele>67.2</ele>
        <time>2020-12-20T12:35:34Z</time>
      </trkpt>
      <trkpt lat="47.86974" lon="-1.1103">
        <ele>67.2</ele>
        <time>2020-12-20T12:35:35Z</time>
      </trkpt>
      <trkpt lat="47.86974" lon="-1.1104">
        <ele>67.3</ele>
        <time>2020-12-20T12:35:36Z</time>
      </trkpt>
      <trkpt lat="47.86974" lon="-1.11045">
        <ele>67.3</ele>
        <time>2020-12-20T12:35:37Z</time>
      </trkpt>
      <trkpt lat="47.86973" lon="-1.11051">
        <ele>67.3</ele>
        <time>2020-12-20T12:35:38Z</time>
      </trkpt>
      <trkpt lat="47.86973" lon="-1.11056">
        <ele>67.3</ele>
        <time>2020-12-20T12:35:39Z</time>
      </trkpt>
      <trkpt lat="47.86973" lon="-1.11061">
        <ele>67.3</ele>
        <time>2020-12-20T12:35:40Z</time>
      </trkpt>
      <trkpt lat="47.86973" lon="-1.11066">
        <ele>67.3</ele>
        <time>2020-12-20T12:35:41Z</time>
      </trkpt>
      <trkpt lat="47.86973" lon="-1.11071">
        <ele>67.3</ele>
        <time>2020-12-20T12:35:42Z</time>
      </trkpt>
      <trkpt lat="47.86973" lon="-1.11077">
        <ele>67.4</ele>
        <time>2020-12-20T12:35:43Z</time>
      </trkpt>
      <trkpt lat="47.86973" lon="-1.11082">
        <ele>67.4</ele>
        <time>2020-12-20T12:35:44Z</time>
      </trkpt>
      <trkpt lat="47.86973" lon="-1.11088">
        <ele>67.4</ele>
        <time>2020-12-20T12:35:45Z</time>
      </trkpt>
      <trkpt lat="47.86973" lon="-1.11093">
        <ele>67.4</ele>
        <time>2020-12-20T12:35:46Z</time>
      </trkpt>
      <trkpt lat="47.86973" lon="-1.11098">
        <ele>67.4</ele>
        <time>2020-12-20T12:35:47Z</time>
      </trkpt>
      <trkpt lat="47.86973" lon="-1.11103">
        <ele>67.4</ele>
        <time>2020-12-20T12:35:48Z</time>
      </trkpt>
      <trkpt lat="47.86974" lon="-1.11108">
        <ele>67.4</ele>
        <time>2020-12-20T12:35:49Z</time>
      </trkpt>
      <trkpt lat="47.86975" lon="-1.11113">
        <ele>67.5</ele>
        <time>2020-12-20T12:35:50Z</time>
      </trkpt>
      <trkpt lat="47.86975" lon="-1.11118">
        <ele>67.5</ele>
        <time>2020-12-20T12:35:51Z</time>
      </trkpt>
      <trkpt lat="47.86976" lon="-1.11123">
        <ele>67.6</ele>
        <time>2020-12-20T12:35:52Z</time>
      </trkpt>
      <trkpt lat="47.86977" lon="-1.11127">
        <ele>67.6</ele>
        <time>2020-12-20T12:35:53Z</time>
      </trkpt>
      <trkpt lat="47.86978" lon="-1.11133">
        <ele>67.7</ele>
        <time>2020-12-20T12:35:54Z</time>
      </trkpt>
      <trkpt lat="47.8698" lon="-1.11143">
        <ele>67.8</ele>
        <time>2020-12-20T12:35:56Z</time>
      </trkpt>
      <trkpt lat="47.8698" lon="-1.11143">
        <ele>67.8</ele>
        <time>2020-12-20T12:35:57Z</time>
      </trkpt>
      <trkpt lat="47.86982" lon="-1.11153">
        <ele>67.9</ele>
        <time>2020-12-20T12:35:58Z</time>
      </trkpt>
      <trkpt lat="47.86983" lon="-1.11159">
        <ele>68</ele>
        <time>2020-12-20T12:35:59Z</time>
      </trkpt>
      <trkpt lat="47.86984" lon="-1.11164">
        <ele>68</ele>
        <time>2020-12-20T12:36:00Z</time>
      </trkpt>
      <trkpt lat="47.86985" lon="-1.11169">
        <ele>68.1</ele>
        <time>2020-12-20T12:36:01Z</time>
      </trkpt>
      <trkpt lat="47.86987" lon="-1.11173">
        <ele>68.1</ele>
        <time>2020-12-20T12:36:02Z</time>
      </trkpt>
      <trkpt lat="47.86988" lon="-1.11178">
        <ele>68.1</ele>
        <time>2020-12-20T12:36:03Z</time>
      </trkpt>
      <trkpt lat="47.86989" lon="-1.11183">
        <ele>68</ele>
        <time>2020-12-20T12:36:04Z</time>
      </trkpt>
      <trkpt lat="47.86991" lon="-1.11189">
        <ele>68</ele>
        <time>2020-12-20T12:36:05Z</time>
      </trkpt>
      <trkpt lat="47.86992" lon="-1.11194">
        <ele>68</ele>
        <time>2020-12-20T12:36:06Z</time>
      </trkpt>
      <trkpt lat="47.86994" lon="-1.112">
        <ele>67.9</ele>
        <time>2020-12-20T12:36:07Z</time>
      </trkpt>
      <trkpt lat="47.86995" lon="-1.11205">
        <ele>67.9</ele>
        <time>2020-12-20T12:36:08Z</time>
      </trkpt>
      <trkpt lat="47.86997" lon="-1.1121">
        <ele>67.8</ele>
        <time>2020-12-20T12:36:09Z</time>
      </trkpt>
      <trkpt lat="47.86998" lon="-1.11215">
        <ele>67.8</ele>
        <time>2020-12-20T12:36:10Z</time>
      </trkpt>
      <trkpt lat="47.86999" lon="-1.1122">
        <ele>67.7</ele>
        <time>2020-12-20T12:36:11Z</time>
      </trkpt>
      <trkpt lat="47.87001" lon="-1.11225">
        <ele>67.7</ele>
        <time>2020-12-20T12:36:12Z</time>
      </trkpt>
      <trkpt lat="47.87001" lon="-1.11225">
        <ele>67.7</ele>
        <time>2020-12-20T12:36:13Z</time>
      </trkpt>
      <trkpt lat="47.87003" lon="-1.11235">
        <ele>67.5</ele>
        <time>2020-12-20T12:36:14Z</time>
      </trkpt>
      <trkpt lat="47.87005" lon="-1.1124">
        <ele>67.5</ele>
        <time>2020-12-20T12:36:15Z</time>
      </trkpt>
      <trkpt lat="47.87006" lon="-1.11245">
        <ele>67.5</ele>
        <time>2020-12-20T12:36:16Z</time>
      </trkpt>
      <trkpt lat="47.87008" lon="-1.1125">
        <ele>67.5</ele>
        <time>2020-12-20T12:36:17Z</time>
      </trkpt>
      <trkpt lat="47.87009" lon="-1.11255">
        <ele>67.4</ele>
        <time>2020-12-20T12:36:18Z</time>
      </trkpt>
      <trkpt lat="47.8701" lon="-1.1126">
        <ele>67.3</ele>
        <time>2020-12-20T12:36:19Z</time>
      </trkpt>
      <trkpt lat="47.87012" lon="-1.11265">
        <ele>67.3</ele>
        <time>2020-12-20T12:36:20Z</time>
      </trkpt>
      <trkpt lat="47.87013" lon="-1.1127">
        <ele>67.3</ele>
        <time>2020-12-20T12:36:21Z</time>
      </trkpt>
      <trkpt lat="47.87015" lon="-1.11275">
        <ele>67.2</ele>
        <time>2020-12-20T12:36:22Z</time>
      </trkpt>
      <trkpt lat="47.87016" lon="-1.11279">
        <ele>67.2</ele>
        <time>2020-12-20T12:36:23Z</time>
      </trkpt>
      <trkpt lat="47.87018" lon="-1.11283">
        <ele>67.2</ele>
        <time>2020-12-20T12:36:24Z</time>
      </trkpt>
      <trkpt lat="47.87019" lon="-1.11287">
        <ele>67.2</ele>
        <time>2020-12-20T12:36:25Z</time>
      </trkpt>
      <trkpt lat="47.87021" lon="-1.11291">
        <ele>67.2</ele>
        <time>2020-12-20T12:36:26Z</time>
      </trkpt>
      <trkpt lat="47.87023" lon="-1.11296">
        <ele>67.1</ele>
        <time>2020-12-20T12:36:27Z</time>
      </trkpt>
      <trkpt lat="47.87025" lon="-1.11299">
        <ele>67.1</ele>
        <time>2020-12-20T12:36:28Z</time>
      </trkpt>
      <trkpt lat="47.87027" lon="-1.11304">
        <ele>67.1</ele>
        <time>2020-12-20T12:36:29Z</time>
      </trkpt>
      <trkpt lat="47.87029" lon="-1.11308">
        <ele>67.1</ele>
        <time>2020-12-20T12:36:30Z</time>
      </trkpt>
      <trkpt lat="47.87031" lon="-1.11312">
        <ele>67.1</ele>
        <time>2020-12-20T12:36:31Z</time>
      </trkpt>
      <trkpt lat="47.87033" lon="-1.11316">
        <ele>67.1</ele>
        <time>2020-12-20T12:36:32Z</time>
      </trkpt>
      <trkpt lat="47.87036" lon="-1.1132">
        <ele>67.1</ele>
        <time>2020-12-20T12:36:33Z</time>
      </trkpt>
      <trkpt lat="47.87038" lon="-1.11324">
        <ele>67.1</ele>
        <time>2020-12-20T12:36:34Z</time>
      </trkpt>
      <trkpt lat="47.8704" lon="-1.11328">
        <ele>67.1</ele>
        <time>2020-12-20T12:36:35Z</time>
      </trkpt>
      <trkpt lat="47.87042" lon="-1.11333">
        <ele>67</ele>
        <time>2020-12-20T12:36:36Z</time>
      </trkpt>
      <trkpt lat="47.87045" lon="-1.11337">
        <ele>67.1</ele>
        <time>2020-12-20T12:36:37Z</time>
      </trkpt>
      <trkpt lat="47.87047" lon="-1.11341">
        <ele>67.2</ele>
        <time>2020-12-20T12:36:38Z</time>
      </trkpt>
      <trkpt lat="47.87049" lon="-1.11345">
        <ele>67.3</ele>
        <time>2020-12-20T12:36:39Z</time>
      </trkpt>
      <trkpt lat="47.87052" lon="-1.11349">
        <ele>67.4</ele>
        <time>2020-12-20T12:36:40Z</time>
      </trkpt>
      <trkpt lat="47.87054" lon="-1.11353">
        <ele>67.4</ele>
        <time>2020-12-20T12:36:41Z</time>
      </trkpt>
      <trkpt lat="47.87056" lon="-1.11357">
        <ele>67.5</ele>
        <time>2020-12-20T12:36:42Z</time>
      </trkpt>
      <trkpt lat="47.87059" lon="-1.11361">
        <ele>67.6</ele>
        <time>2020-12-20T12:36:43Z</time>
      </trkpt>
      <trkpt lat="47.87061" lon="-1.11365">
        <ele>67.6</ele>
        <time>2020-12-20T12:36:44Z</time>
      </trkpt>
      <trkpt lat="47.87063" lon="-1.11369">
        <ele>67.7</ele>
        <time>2020-12-20T12:36:45Z</time>
      </trkpt>
      <trkpt lat="47.87065" lon="-1.11373">
        <ele>67.7</ele>
        <time>2020-12-20T12:36:46Z</time>
      </trkpt>
      <trkpt lat="47.87068" lon="-1.11377">
        <ele>67.8</ele>
        <time>2020-12-20T12:36:47Z</time>
      </trkpt>
      <trkpt lat="47.8707" lon="-1.11382">
        <ele>67.9</ele>
        <time>2020-12-20T12:36:48Z</time>
      </trkpt>
      <trkpt lat="47.87072" lon="-1.11386">
        <ele>67.9</ele>
        <time>2020-12-20T12:36:49Z</time>
      </trkpt>
      <trkpt lat="47.87074" lon="-1.1139">
        <ele>67.9</ele>
        <time>2020-12-20T12:36:50Z</time>
      </trkpt>
      <trkpt lat="47.87077" lon="-1.11394">
        <ele>68</ele>
        <time>2020-12-20T12:36:51Z</time>
      </trkpt>
      <trkpt lat="47.87079" lon="-1.11398">
        <ele>68.1</ele>
        <time>2020-12-20T12:36:52Z</time>
      </trkpt>
      <trkpt lat="47.87082" lon="-1.11402">
        <ele>68.1</ele>
        <time>2020-12-20T12:36:53Z</time>
      </trkpt>
      <trkpt lat="47.87084" lon="-1.11406">
        <ele>68.2</ele>
        <time>2020-12-20T12:36:54Z</time>
      </trkpt>
      <trkpt lat="47.87086" lon="-1.11411">
        <ele>68.2</ele>
        <time>2020-12-20T12:36:55Z</time>
      </trkpt>
      <trkpt lat="47.87088" lon="-1.11415">
        <ele>68.3</ele>
        <time>2020-12-20T12:36:56Z</time>
      </trkpt>
      <trkpt lat="47.87091" lon="-1.11419">
        <ele>68.4</ele>
        <time>2020-12-20T12:36:57Z</time>
      </trkpt>
      <trkpt lat="47.87093" lon="-1.11423">
        <ele>68.5</ele>
        <time>2020-12-20T12:36:58Z</time>
      </trkpt>
      <trkpt lat="47.87096" lon="-1.11427">
        <ele>68.6</ele>
        <time>2020-12-20T12:36:59Z</time>
      </trkpt>
      <trkpt lat="47.87098" lon="-1.1143">
        <ele>68.7</ele>
        <time>2020-12-20T12:37:00Z</time>
      </trkpt>
      <trkpt lat="47.871" lon="-1.11435">
        <ele>68.7</ele>
        <time>2020-12-20T12:37:01Z</time>
      </trkpt>
      <trkpt lat="47.87102" lon="-1.11439">
        <ele>68.8</ele>
        <time>2020-12-20T12:37:02Z</time>
      </trkpt>
      <trkpt lat="47.87102" lon="-1.11439">
        <ele>68.8</ele>
        <time>2020-12-20T12:37:03Z</time>
      </trkpt>
      <trkpt lat="47.87107" lon="-1.11447">
        <ele>69</ele>
        <time>2020-12-20T12:37:04Z</time>
      </trkpt>
      <trkpt lat="47.87109" lon="-1.11452">
        <ele>69</ele>
        <time>2020-12-20T12:37:05Z</time>
      </trkpt>
      <trkpt lat="47.87112" lon="-1.11456">
        <ele>69.1</ele>
        <time>2020-12-20T12:37:06Z</time>
      </trkpt>
      <trkpt lat="47.87114" lon="-1.1146">
        <ele>69.1</ele>
        <time>2020-12-20T12:37:07Z</time>
      </trkpt>
      <trkpt lat="47.87116" lon="-1.11464">
        <ele>69.2</ele>
        <time>2020-12-20T12:37:08Z</time>
      </trkpt>
      <trkpt lat="47.87119" lon="-1.11468">
        <ele>69.3</ele>
        <time>2020-12-20T12:37:09Z</time>
      </trkpt>
      <trkpt lat="47.87121" lon="-1.11472">
        <ele>69.3</ele>
        <time>2020-12-20T12:37:10Z</time>
      </trkpt>
      <trkpt lat="47.87123" lon="-1.11476">
        <ele>69.3</ele>
        <time>2020-12-20T12:37:11Z</time>
      </trkpt>
      <trkpt lat="47.87125" lon="-1.1148">
        <ele>69.4</ele>
        <time>2020-12-20T12:37:12Z</time>
      </trkpt>
      <trkpt lat="47.8713" lon="-1.11489">
        <ele>69.4</ele>
        <time>2020-12-20T12:37:14Z</time>
      </trkpt>
      <trkpt lat="47.87132" lon="-1.11493">
        <ele>69.5</ele>
        <time>2020-12-20T12:37:15Z</time>
      </trkpt>
      <trkpt lat="47.87134" lon="-1.11497">
        <ele>69.5</ele>
        <time>2020-12-20T12:37:16Z</time>
      </trkpt>
      <trkpt lat="47.87137" lon="-1.11501">
        <ele>69.6</ele>
        <time>2020-12-20T12:37:17Z</time>
      </trkpt>
      <trkpt lat="47.87139" lon="-1.11505">
        <ele>69.6</ele>
        <time>2020-12-20T12:37:18Z</time>
      </trkpt>
      <trkpt lat="47.87141" lon="-1.11509">
        <ele>69.6</ele>
        <time>2020-12-20T12:37:19Z</time>
      </trkpt>
      <trkpt lat="47.87144" lon="-1.11513">
        <ele>69.6</ele>
        <time>2020-12-20T12:37:20Z</time>
      </trkpt>
      <trkpt lat="47.87146" lon="-1.11517">
        <ele>69.6</ele>
        <time>2020-12-20T12:37:21Z</time>
      </trkpt>
      <trkpt lat="47.87148" lon="-1.1152">
        <ele>69.6</ele>
        <time>2020-12-20T12:37:22Z</time>
      </trkpt>
      <trkpt lat="47.8715" lon="-1.11524">
        <ele>69.6</ele>
        <time>2020-12-20T12:37:23Z</time>
      </trkpt>
      <trkpt lat="47.87152" lon="-1.11528">
        <ele>69.6</ele>
        <time>2020-12-20T12:37:24Z</time>
      </trkpt>
      <trkpt lat="47.87154" lon="-1.11533">
        <ele>69.6</ele>
        <time>2020-12-20T12:37:25Z</time>
      </trkpt>
      <trkpt lat="47.87156" lon="-1.11537">
        <ele>69.6</ele>
        <time>2020-12-20T12:37:26Z</time>
      </trkpt>
      <trkpt lat="47.87159" lon="-1.11541">
        <ele>69.6</ele>
        <time>2020-12-20T12:37:27Z</time>
      </trkpt>
      <trkpt lat="47.8716" lon="-1.11545">
        <ele>69.6</ele>
        <time>2020-12-20T12:37:28Z</time>
      </trkpt>
      <trkpt lat="47.87162" lon="-1.1155">
        <ele>69.6</ele>
        <time>2020-12-20T12:37:29Z</time>
      </trkpt>
      <trkpt lat="47.87164" lon="-1.11554">
        <ele>69.6</ele>
        <time>2020-12-20T12:37:30Z</time>
      </trkpt>
      <trkpt lat="47.87167" lon="-1.11558">
        <ele>69.6</ele>
        <time>2020-12-20T12:37:31Z</time>
      </trkpt>
      <trkpt lat="47.87169" lon="-1.11563">
        <ele>69.6</ele>
        <time>2020-12-20T12:37:32Z</time>
      </trkpt>
      <trkpt lat="47.87171" lon="-1.11567">
        <ele>69.6</ele>
        <time>2020-12-20T12:37:33Z</time>
      </trkpt>
      <trkpt lat="47.87173" lon="-1.11571">
        <ele>69.6</ele>
        <time>2020-12-20T12:37:34Z</time>
      </trkpt>
      <trkpt lat="47.87175" lon="-1.11576">
        <ele>69.6</ele>
        <time>2020-12-20T12:37:35Z</time>
      </trkpt>
      <trkpt lat="47.87177" lon="-1.1158">
        <ele>69.6</ele>
        <time>2020-12-20T12:37:36Z</time>
      </trkpt>
      <trkpt lat="47.87179" lon="-1.11585">
        <ele>69.5</ele>
        <time>2020-12-20T12:37:37Z</time>
      </trkpt>
      <trkpt lat="47.87181" lon="-1.11589">
        <ele>69.5</ele>
        <time>2020-12-20T12:37:38Z</time>
      </trkpt>
      <trkpt lat="47.87183" lon="-1.11593">
        <ele>69.5</ele>
        <time>2020-12-20T12:37:39Z</time>
      </trkpt>
      <trkpt lat="47.87186" lon="-1.11597">
        <ele>69.6</ele>
        <time>2020-12-20T12:37:40Z</time>
      </trkpt>
      <trkpt lat="47.87188" lon="-1.116">
        <ele>69.6</ele>
        <time>2020-12-20T12:37:41Z</time>
      </trkpt>
      <trkpt lat="47.8719" lon="-1.11604">
        <ele>69.6</ele>
        <time>2020-12-20T12:37:42Z</time>
      </trkpt>
      <trkpt lat="47.87193" lon="-1.11608">
        <ele>69.6</ele>
        <time>2020-12-20T12:37:43Z</time>
      </trkpt>
      <trkpt lat="47.87195" lon="-1.11612">
        <ele>69.6</ele>
        <time>2020-12-20T12:37:44Z</time>
      </trkpt>
      <trkpt lat="47.87197" lon="-1.11615">
        <ele>69.6</ele>
        <time>2020-12-20T12:37:45Z</time>
      </trkpt>
      <trkpt lat="47.872" lon="-1.11619">
        <ele>69.6</ele>
        <time>2020-12-20T12:37:46Z</time>
      </trkpt>
      <trkpt lat="47.87202" lon="-1.11623">
        <ele>69.5</ele>
        <time>2020-12-20T12:37:47Z</time>
      </trkpt>
      <trkpt lat="47.87204" lon="-1.11627">
        <ele>69.5</ele>
        <time>2020-12-20T12:37:48Z</time>
      </trkpt>
      <trkpt lat="47.87207" lon="-1.11631">
        <ele>69.5</ele>
        <time>2020-12-20T12:37:49Z</time>
      </trkpt>
      <trkpt lat="47.8721" lon="-1.11634">
        <ele>69.5</ele>
        <time>2020-12-20T12:37:50Z</time>
      </trkpt>
      <trkpt lat="47.87212" lon="-1.11637">
        <ele>69.5</ele>
        <time>2020-12-20T12:37:51Z</time>
      </trkpt>
      <trkpt lat="47.87214" lon="-1.11641">
        <ele>69.5</ele>
        <time>2020-12-20T12:37:52Z</time>
      </trkpt>
      <trkpt lat="47.87217" lon="-1.11644">
        <ele>69.5</ele>
        <time>2020-12-20T12:37:53Z</time>
      </trkpt>
      <trkpt lat="47.8722" lon="-1.11648">
        <ele>69.5</ele>
        <time>2020-12-20T12:37:54Z</time>
      </trkpt>
      <trkpt lat="47.87222" lon="-1.11652">
        <ele>69.5</ele>
        <time>2020-12-20T12:37:55Z</time>
      </trkpt>
      <trkpt lat="47.87225" lon="-1.11655">
        <ele>69.5</ele>
        <time>2020-12-20T12:37:56Z</time>
      </trkpt>
      <trkpt lat="47.87228" lon="-1.11659">
        <ele>69.5</ele>
        <time>2020-12-20T12:37:57Z</time>
      </trkpt>
      <trkpt lat="47.8723" lon="-1.11663">
        <ele>69.4</ele>
        <time>2020-12-20T12:37:58Z</time>
      </trkpt>
      <trkpt lat="47.87232" lon="-1.11667">
        <ele>69.3</ele>
        <time>2020-12-20T12:37:59Z</time>
      </trkpt>
      <trkpt lat="47.87234" lon="-1.11671">
        <ele>69.4</ele>
        <time>2020-12-20T12:38:00Z</time>
      </trkpt>
      <trkpt lat="47.87236" lon="-1.11675">
        <ele>69.4</ele>
        <time>2020-12-20T12:38:01Z</time>
      </trkpt>
      <trkpt lat="47.87238" lon="-1.11679">
        <ele>69.4</ele>
        <time>2020-12-20T12:38:02Z</time>
      </trkpt>
      <trkpt lat="47.8724" lon="-1.11683">
        <ele>69.4</ele>
        <time>2020-12-20T12:38:03Z</time>
      </trkpt>
      <trkpt lat="47.87242" lon="-1.11687">
        <ele>69.5</ele>
        <time>2020-12-20T12:38:04Z</time>
      </trkpt>
      <trkpt lat="47.87244" lon="-1.11691">
        <ele>69.5</ele>
        <time>2020-12-20T12:38:05Z</time>
      </trkpt>
      <trkpt lat="47.87246" lon="-1.11695">
        <ele>69.5</ele>
        <time>2020-12-20T12:38:06Z</time>
      </trkpt>
      <trkpt lat="47.87248" lon="-1.11698">
        <ele>69.6</ele>
        <time>2020-12-20T12:38:07Z</time>
      </trkpt>
      <trkpt lat="47.87249" lon="-1.11702">
        <ele>69.5</ele>
        <time>2020-12-20T12:38:08Z</time>
      </trkpt>
      <trkpt lat="47.87251" lon="-1.11705">
        <ele>69.6</ele>
        <time>2020-12-20T12:38:09Z</time>
      </trkpt>
      <trkpt lat="47.87252" lon="-1.11709">
        <ele>69.5</ele>
        <time>2020-12-20T12:38:10Z</time>
      </trkpt>
      <trkpt lat="47.87253" lon="-1.11712">
        <ele>69.5</ele>
        <time>2020-12-20T12:38:11Z</time>
      </trkpt>
      <trkpt lat="47.87255" lon="-1.11715">
        <ele>69.5</ele>
        <time>2020-12-20T12:38:12Z</time>
      </trkpt>
      <trkpt lat="47.87256" lon="-1.11719">
        <ele>69.5</ele>
        <time>2020-12-20T12:38:13Z</time>
      </trkpt>
      <trkpt lat="47.87258" lon="-1.11722">
        <ele>69.5</ele>
        <time>2020-12-20T12:38:14Z</time>
      </trkpt>
      <trkpt lat="47.8726" lon="-1.11726">
        <ele>69.4</ele>
        <time>2020-12-20T12:38:15Z</time>
      </trkpt>
      <trkpt lat="47.87262" lon="-1.1173">
        <ele>69.4</ele>
        <time>2020-12-20T12:38:16Z</time>
      </trkpt>
      <trkpt lat="47.87264" lon="-1.11735">
        <ele>69.4</ele>
        <time>2020-12-20T12:38:17Z</time>
      </trkpt>
      <trkpt lat="47.87266" lon="-1.11739">
        <ele>69.3</ele>
        <time>2020-12-20T12:38:18Z</time>
      </trkpt>
      <trkpt lat="47.87268" lon="-1.11743">
        <ele>69.3</ele>
        <time>2020-12-20T12:38:19Z</time>
      </trkpt>
      <trkpt lat="47.8727" lon="-1.11747">
        <ele>69.3</ele>
        <time>2020-12-20T12:38:20Z</time>
      </trkpt>
      <trkpt lat="47.87272" lon="-1.11751">
        <ele>69.3</ele>
        <time>2020-12-20T12:38:21Z</time>
      </trkpt>
      <trkpt lat="47.87274" lon="-1.11755">
        <ele>69.2</ele>
        <time>2020-12-20T12:38:22Z</time>
      </trkpt>
      <trkpt lat="47.87275" lon="-1.11759">
        <ele>69.2</ele>
        <time>2020-12-20T12:38:23Z</time>
      </trkpt>
      <trkpt lat="47.87277" lon="-1.11763">
        <ele>69.2</ele>
        <time>2020-12-20T12:38:24Z</time>
      </trkpt>
      <trkpt lat="47.87279" lon="-1.11767">
        <ele>69.2</ele>
        <time>2020-12-20T12:38:25Z</time>
      </trkpt>
      <trkpt lat="47.87281" lon="-1.11772">
        <ele>69.2</ele>
        <time>2020-12-20T12:38:26Z</time>
      </trkpt>
      <trkpt lat="47.87283" lon="-1.11776">
        <ele>69.2</ele>
        <time>2020-12-20T12:38:27Z</time>
      </trkpt>
      <trkpt lat="47.87285" lon="-1.1178">
        <ele>69.2</ele>
        <time>2020-12-20T12:38:28Z</time>
      </trkpt>
      <trkpt lat="47.87287" lon="-1.11784">
        <ele>69.2</ele>
        <time>2020-12-20T12:38:29Z</time>
      </trkpt>
      <trkpt lat="47.87289" lon="-1.11788">
        <ele>69.2</ele>
        <time>2020-12-20T12:38:30Z</time>
      </trkpt>
      <trkpt lat="47.87291" lon="-1.11792">
        <ele>69.2</ele>
        <time>2020-12-20T12:38:31Z</time>
      </trkpt>
      <trkpt lat="47.87293" lon="-1.11796">
        <ele>69.2</ele>
        <time>2020-12-20T12:38:32Z</time>
      </trkpt>
      <trkpt lat="47.87295" lon="-1.11801">
        <ele>69.3</ele>
        <time>2020-12-20T12:38:33Z</time>
      </trkpt>
      <trkpt lat="47.87297" lon="-1.11805">
        <ele>69.3</ele>
        <time>2020-12-20T12:38:34Z</time>
      </trkpt>
      <trkpt lat="47.87299" lon="-1.11809">
        <ele>69.3</ele>
        <time>2020-12-20T12:38:35Z</time>
      </trkpt>
      <trkpt lat="47.87301" lon="-1.11813">
        <ele>69.3</ele>
        <time>2020-12-20T12:38:36Z</time>
      </trkpt>
      <trkpt lat="47.87303" lon="-1.11817">
        <ele>69.3</ele>
        <time>2020-12-20T12:38:37Z</time>
      </trkpt>
      <trkpt lat="47.87305" lon="-1.11821">
        <ele>69.4</ele>
        <time>2020-12-20T12:38:38Z</time>
      </trkpt>
      <trkpt lat="47.87307" lon="-1.11826">
        <ele>69.4</ele>
        <time>2020-12-20T12:38:39Z</time>
      </trkpt>
      <trkpt lat="47.87309" lon="-1.11829">
        <ele>69.4</ele>
        <time>2020-12-20T12:38:40Z</time>
      </trkpt>
      <trkpt lat="47.87311" lon="-1.11833">
        <ele>69.5</ele>
        <time>2020-12-20T12:38:41Z</time>
      </trkpt>
      <trkpt lat="47.87313" lon="-1.11838">
        <ele>69.4</ele>
        <time>2020-12-20T12:38:42Z</time>
      </trkpt>
      <trkpt lat="47.87315" lon="-1.11842">
        <ele>69.3</ele>
        <time>2020-12-20T12:38:43Z</time>
      </trkpt>
      <trkpt lat="47.87317" lon="-1.11846">
        <ele>69.3</ele>
        <time>2020-12-20T12:38:44Z</time>
      </trkpt>
      <trkpt lat="47.87319" lon="-1.11849">
        <ele>69.2</ele>
        <time>2020-12-20T12:38:45Z</time>
      </trkpt>
      <trkpt lat="47.87322" lon="-1.11853">
        <ele>69.2</ele>
        <time>2020-12-20T12:38:46Z</time>
      </trkpt>
      <trkpt lat="47.87324" lon="-1.11857">
        <ele>69.2</ele>
        <time>2020-12-20T12:38:47Z</time>
      </trkpt>
      <trkpt lat="47.87327" lon="-1.11861">
        <ele>69.2</ele>
        <time>2020-12-20T12:38:48Z</time>
      </trkpt>
      <trkpt lat="47.8733" lon="-1.11864">
        <ele>69.2</ele>
        <time>2020-12-20T12:38:49Z</time>
      </trkpt>
      <trkpt lat="47.87332" lon="-1.11868">
        <ele>69.1</ele>
        <time>2020-12-20T12:38:50Z</time>
      </trkpt>
      <trkpt lat="47.87335" lon="-1.11872">
        <ele>69.2</ele>
        <time>2020-12-20T12:38:51Z</time>
      </trkpt>
      <trkpt lat="47.87338" lon="-1.11875">
        <ele>69.3</ele>
        <time>2020-12-20T12:38:52Z</time>
      </trkpt>
      <trkpt lat="47.87341" lon="-1.11878">
        <ele>69.4</ele>
        <time>2020-12-20T12:38:53Z</time>
      </trkpt>
      <trkpt lat="47.87344" lon="-1.11882">
        <ele>69.4</ele>
        <time>2020-12-20T12:38:54Z</time>
      </trkpt>
      <trkpt lat="47.87346" lon="-1.11885">
        <ele>69.5</ele>
        <time>2020-12-20T12:38:55Z</time>
      </trkpt>
      <trkpt lat="47.87349" lon="-1.11889">
        <ele>69.6</ele>
        <time>2020-12-20T12:38:56Z</time>
      </trkpt>
      <trkpt lat="47.87352" lon="-1.11892">
        <ele>69.7</ele>
        <time>2020-12-20T12:38:57Z</time>
      </trkpt>
      <trkpt lat="47.87355" lon="-1.11896">
        <ele>69.9</ele>
        <time>2020-12-20T12:38:58Z</time>
      </trkpt>
      <trkpt lat="47.87358" lon="-1.11899">
        <ele>70</ele>
        <time>2020-12-20T12:38:59Z</time>
      </trkpt>
      <trkpt lat="47.8736" lon="-1.11902">
        <ele>70.1</ele>
        <time>2020-12-20T12:39:00Z</time>
      </trkpt>
      <trkpt lat="47.87363" lon="-1.11906">
        <ele>70.3</ele>
        <time>2020-12-20T12:39:01Z</time>
      </trkpt>
      <trkpt lat="47.87366" lon="-1.11908">
        <ele>70.4</ele>
        <time>2020-12-20T12:39:02Z</time>
      </trkpt>
      <trkpt lat="47.87369" lon="-1.11912">
        <ele>70.6</ele>
        <time>2020-12-20T12:39:03Z</time>
      </trkpt>
      <trkpt lat="47.87372" lon="-1.11915">
        <ele>70.8</ele>
        <time>2020-12-20T12:39:04Z</time>
      </trkpt>
      <trkpt lat="47.87374" lon="-1.11919">
        <ele>70.9</ele>
        <time>2020-12-20T12:39:05Z</time>
      </trkpt>
      <trkpt lat="47.87377" lon="-1.11922">
        <ele>71</ele>
        <time>2020-12-20T12:39:06Z</time>
      </trkpt>
      <trkpt lat="47.8738" lon="-1.11926">
        <ele>71.1</ele>
        <time>2020-12-20T12:39:07Z</time>
      </trkpt>
      <trkpt lat="47.87383" lon="-1.1193">
        <ele>71.2</ele>
        <time>2020-12-20T12:39:08Z</time>
      </trkpt>
      <trkpt lat="47.87386" lon="-1.11933">
        <ele>71.3</ele>
        <time>2020-12-20T12:39:09Z</time>
      </trkpt>
      <trkpt lat="47.87388" lon="-1.11937">
        <ele>71.3</ele>
        <time>2020-12-20T12:39:10Z</time>
      </trkpt>
      <trkpt lat="47.87391" lon="-1.1194">
        <ele>71.4</ele>
        <time>2020-12-20T12:39:11Z</time>
      </trkpt>
      <trkpt lat="47.87394" lon="-1.11944">
        <ele>71.5</ele>
        <time>2020-12-20T12:39:12Z</time>
      </trkpt>
      <trkpt lat="47.87396" lon="-1.11948">
        <ele>71.5</ele>
        <time>2020-12-20T12:39:13Z</time>
      </trkpt>
      <trkpt lat="47.87399" lon="-1.11952">
        <ele>71.5</ele>
        <time>2020-12-20T12:39:14Z</time>
      </trkpt>
      <trkpt lat="47.87402" lon="-1.11955">
        <ele>71.6</ele>
        <time>2020-12-20T12:39:15Z</time>
      </trkpt>
      <trkpt lat="47.87405" lon="-1.11959">
        <ele>71.7</ele>
        <time>2020-12-20T12:39:16Z</time>
      </trkpt>
      <trkpt lat="47.87408" lon="-1.11963">
        <ele>71.8</ele>
        <time>2020-12-20T12:39:17Z</time>
      </trkpt>
      <trkpt lat="47.87411" lon="-1.11967">
        <ele>71.8</ele>
        <time>2020-12-20T12:39:18Z</time>
      </trkpt>
      <trkpt lat="47.87413" lon="-1.11972">
        <ele>71.8</ele>
        <time>2020-12-20T12:39:19Z</time>
      </trkpt>
      <trkpt lat="47.87416" lon="-1.11976">
        <ele>71.8</ele>
        <time>2020-12-20T12:39:20Z</time>
      </trkpt>
      <trkpt lat="47.87419" lon="-1.1198">
        <ele>71.8</ele>
        <time>2020-12-20T12:39:21Z</time>
      </trkpt>
      <trkpt lat="47.87422" lon="-1.11984">
        <ele>71.7</ele>
        <time>2020-12-20T12:39:22Z</time>
      </trkpt>
      <trkpt lat="47.87425" lon="-1.11987">
        <ele>71.7</ele>
        <time>2020-12-20T12:39:23Z</time>
      </trkpt>
      <trkpt lat="47.87427" lon="-1.11991">
        <ele>71.7</ele>
        <time>2020-12-20T12:39:24Z</time>
      </trkpt>
      <trkpt lat="47.8743" lon="-1.11995">
        <ele>71.6</ele>
        <time>2020-12-20T12:39:25Z</time>
      </trkpt>
      <trkpt lat="47.87432" lon="-1.11998">
        <ele>71.6</ele>
        <time>2020-12-20T12:39:26Z</time>
      </trkpt>
      <trkpt lat="47.87435" lon="-1.12002">
        <ele>71.6</ele>
        <time>2020-12-20T12:39:27Z</time>
      </trkpt>
      <trkpt lat="47.87438" lon="-1.12006">
        <ele>71.6</ele>
        <time>2020-12-20T12:39:28Z</time>
      </trkpt>
      <trkpt lat="47.8744" lon="-1.1201">
        <ele>71.6</ele>
        <time>2020-12-20T12:39:29Z</time>
      </trkpt>
      <trkpt lat="47.87443" lon="-1.12014">
        <ele>71.7</ele>
        <time>2020-12-20T12:39:30Z</time>
      </trkpt>
      <trkpt lat="47.87446" lon="-1.12018">
        <ele>71.7</ele>
        <time>2020-12-20T12:39:31Z</time>
      </trkpt>
      <trkpt lat="47.87449" lon="-1.12022">
        <ele>71.7</ele>
        <time>2020-12-20T12:39:32Z</time>
      </trkpt>
      <trkpt lat="47.87452" lon="-1.12026">
        <ele>71.8</ele>
        <time>2020-12-20T12:39:33Z</time>
      </trkpt>
      <trkpt lat="47.87455" lon="-1.12031">
        <ele>71.8</ele>
        <time>2020-12-20T12:39:34Z</time>
      </trkpt>
      <trkpt lat="47.87459" lon="-1.12036">
        <ele>71.9</ele>
        <time>2020-12-20T12:39:35Z</time>
      </trkpt>
      <trkpt lat="47.87462" lon="-1.1204">
        <ele>71.9</ele>
        <time>2020-12-20T12:39:36Z</time>
      </trkpt>
      <trkpt lat="47.87466" lon="-1.12044">
        <ele>72</ele>
        <time>2020-12-20T12:39:37Z</time>
      </trkpt>
      <trkpt lat="47.87469" lon="-1.12049">
        <ele>72.1</ele>
        <time>2020-12-20T12:39:38Z</time>
      </trkpt>
      <trkpt lat="47.87472" lon="-1.12053">
        <ele>72.1</ele>
        <time>2020-12-20T12:39:39Z</time>
      </trkpt>
      <trkpt lat="47.87476" lon="-1.12057">
        <ele>72.3</ele>
        <time>2020-12-20T12:39:40Z</time>
      </trkpt>
      <trkpt lat="47.8748" lon="-1.12061">
        <ele>72.4</ele>
        <time>2020-12-20T12:39:41Z</time>
      </trkpt>
      <trkpt lat="47.87484" lon="-1.12065">
        <ele>72.5</ele>
        <time>2020-12-20T12:39:42Z</time>
      </trkpt>
      <trkpt lat="47.87488" lon="-1.12068">
        <ele>72.6</ele>
        <time>2020-12-20T12:39:43Z</time>
      </trkpt>
      <trkpt lat="47.87492" lon="-1.12071">
        <ele>72.8</ele>
        <time>2020-12-20T12:39:44Z</time>
      </trkpt>
      <trkpt lat="47.87496" lon="-1.12073">
        <ele>72.9</ele>
        <time>2020-12-20T12:39:45Z</time>
      </trkpt>
      <trkpt lat="47.87501" lon="-1.12075">
        <ele>73.1</ele>
        <time>2020-12-20T12:39:46Z</time>
      </trkpt>
      <trkpt lat="47.87505" lon="-1.12077">
        <ele>73.1</ele>
        <time>2020-12-20T12:39:47Z</time>
      </trkpt>
      <trkpt lat="47.87509" lon="-1.1208">
        <ele>73</ele>
        <time>2020-12-20T12:39:48Z</time>
      </trkpt>
      <trkpt lat="47.87512" lon="-1.12082">
        <ele>73</ele>
        <time>2020-12-20T12:39:49Z</time>
      </trkpt>
      <trkpt lat="47.87516" lon="-1.12085">
        <ele>72.9</ele>
        <time>2020-12-20T12:39:50Z</time>
      </trkpt>
      <trkpt lat="47.8752" lon="-1.12088">
        <ele>72.8</ele>
        <time>2020-12-20T12:39:51Z</time>
      </trkpt>
      <trkpt lat="47.87523" lon="-1.12091">
        <ele>72.7</ele>
        <time>2020-12-20T12:39:52Z</time>
      </trkpt>
      <trkpt lat="47.87527" lon="-1.12095">
        <ele>72.5</ele>
        <time>2020-12-20T12:39:53Z</time>
      </trkpt>
      <trkpt lat="47.87531" lon="-1.12099">
        <ele>72.4</ele>
        <time>2020-12-20T12:39:54Z</time>
      </trkpt>
      <trkpt lat="47.87535" lon="-1.12103">
        <ele>72.3</ele>
        <time>2020-12-20T12:39:55Z</time>
      </trkpt>
      <trkpt lat="47.87539" lon="-1.12108">
        <ele>72.1</ele>
        <time>2020-12-20T12:39:56Z</time>
      </trkpt>
      <trkpt lat="47.87542" lon="-1.12113">
        <ele>71.9</ele>
        <time>2020-12-20T12:39:57Z</time>
      </trkpt>
      <trkpt lat="47.87546" lon="-1.12117">
        <ele>71.8</ele>
        <time>2020-12-20T12:39:58Z</time>
      </trkpt>
      <trkpt lat="47.8755" lon="-1.12122">
        <ele>71.7</ele>
        <time>2020-12-20T12:39:59Z</time>
      </trkpt>
      <trkpt lat="47.87553" lon="-1.12126">
        <ele>71.6</ele>
        <time>2020-12-20T12:40:00Z</time>
      </trkpt>
      <trkpt lat="47.87556" lon="-1.1213">
        <ele>71.5</ele>
        <time>2020-12-20T12:40:01Z</time>
      </trkpt>
      <trkpt lat="47.8756" lon="-1.12134">
        <ele>71.4</ele>
        <time>2020-12-20T12:40:02Z</time>
      </trkpt>
      <trkpt lat="47.87563" lon="-1.12139">
        <ele>71.3</ele>
        <time>2020-12-20T12:40:03Z</time>
      </trkpt>
      <trkpt lat="47.87566" lon="-1.12143">
        <ele>71.3</ele>
        <time>2020-12-20T12:40:04Z</time>
      </trkpt>
      <trkpt lat="47.87568" lon="-1.12147">
        <ele>71.2</ele>
        <time>2020-12-20T12:40:05Z</time>
      </trkpt>
      <trkpt lat="47.87571" lon="-1.12151">
        <ele>71.1</ele>
        <time>2020-12-20T12:40:06Z</time>
      </trkpt>
      <trkpt lat="47.87574" lon="-1.12156">
        <ele>71.1</ele>
        <time>2020-12-20T12:40:07Z</time>
      </trkpt>
      <trkpt lat="47.87577" lon="-1.1216">
        <ele>71</ele>
        <time>2020-12-20T12:40:08Z</time>
      </trkpt>
      <trkpt lat="47.8758" lon="-1.12164">
        <ele>71</ele>
        <time>2020-12-20T12:40:09Z</time>
      </trkpt>
      <trkpt lat="47.87583" lon="-1.12169">
        <ele>70.9</ele>
        <time>2020-12-20T12:40:10Z</time>
      </trkpt>
      <trkpt lat="47.87585" lon="-1.12173">
        <ele>70.9</ele>
        <time>2020-12-20T12:40:11Z</time>
      </trkpt>
      <trkpt lat="47.87588" lon="-1.12178">
        <ele>71</ele>
        <time>2020-12-20T12:40:12Z</time>
      </trkpt>
      <trkpt lat="47.87591" lon="-1.12182">
        <ele>71.1</ele>
        <time>2020-12-20T12:40:13Z</time>
      </trkpt>
      <trkpt lat="47.87594" lon="-1.12187">
        <ele>71.1</ele>
        <time>2020-12-20T12:40:14Z</time>
      </trkpt>
      <trkpt lat="47.87597" lon="-1.12191">
        <ele>71.2</ele>
        <time>2020-12-20T12:40:15Z</time>
      </trkpt>
      <trkpt lat="47.87599" lon="-1.12196">
        <ele>71.2</ele>
        <time>2020-12-20T12:40:16Z</time>
      </trkpt>
      <trkpt lat="47.87603" lon="-1.122">
        <ele>71.3</ele>
        <time>2020-12-20T12:40:17Z</time>
      </trkpt>
      <trkpt lat="47.87606" lon="-1.12204">
        <ele>71.3</ele>
        <time>2020-12-20T12:40:18Z</time>
      </trkpt>
      <trkpt lat="47.87609" lon="-1.12208">
        <ele>71.4</ele>
        <time>2020-12-20T12:40:19Z</time>
      </trkpt>
      <trkpt lat="47.87611" lon="-1.12211">
        <ele>71.4</ele>
        <time>2020-12-20T12:40:20Z</time>
      </trkpt>
      <trkpt lat="47.87614" lon="-1.12216">
        <ele>71.4</ele>
        <time>2020-12-20T12:40:21Z</time>
      </trkpt>
      <trkpt lat="47.87617" lon="-1.1222">
        <ele>71.5</ele>
        <time>2020-12-20T12:40:22Z</time>
      </trkpt>
      <trkpt lat="47.8762" lon="-1.12223">
        <ele>71.6</ele>
        <time>2020-12-20T12:40:23Z</time>
      </trkpt>
      <trkpt lat="47.87623" lon="-1.12227">
        <ele>71.6</ele>
        <time>2020-12-20T12:40:24Z</time>
      </trkpt>
      <trkpt lat="47.87626" lon="-1.12231">
        <ele>71.6</ele>
        <time>2020-12-20T12:40:25Z</time>
      </trkpt>
      <trkpt lat="47.87629" lon="-1.12235">
        <ele>71.7</ele>
        <time>2020-12-20T12:40:26Z</time>
      </trkpt>
      <trkpt lat="47.87632" lon="-1.12238">
        <ele>71.7</ele>
        <time>2020-12-20T12:40:27Z</time>
      </trkpt>
      <trkpt lat="47.87635" lon="-1.12242">
        <ele>71.7</ele>
        <time>2020-12-20T12:40:28Z</time>
      </trkpt>
      <trkpt lat="47.87639" lon="-1.12245">
        <ele>71.8</ele>
        <time>2020-12-20T12:40:29Z</time>
      </trkpt>
      <trkpt lat="47.87641" lon="-1.12249">
        <ele>71.8</ele>
        <time>2020-12-20T12:40:30Z</time>
      </trkpt>
      <trkpt lat="47.87644" lon="-1.12253">
        <ele>71.8</ele>
        <time>2020-12-20T12:40:31Z</time>
      </trkpt>
      <trkpt lat="47.87647" lon="-1.12256">
        <ele>71.9</ele>
        <time>2020-12-20T12:40:32Z</time>
      </trkpt>
      <trkpt lat="47.8765" lon="-1.1226">
        <ele>72</ele>
        <time>2020-12-20T12:40:33Z</time>
      </trkpt>
      <trkpt lat="47.87653" lon="-1.12264">
        <ele>72</ele>
        <time>2020-12-20T12:40:34Z</time>
      </trkpt>
      <trkpt lat="47.87655" lon="-1.12268">
        <ele>72</ele>
        <time>2020-12-20T12:40:35Z</time>
      </trkpt>
      <trkpt lat="47.87658" lon="-1.12271">
        <ele>72.1</ele>
        <time>2020-12-20T12:40:36Z</time>
      </trkpt>
      <trkpt lat="47.87662" lon="-1.12274">
        <ele>72.2</ele>
        <time>2020-12-20T12:40:37Z</time>
      </trkpt>
      <trkpt lat="47.87665" lon="-1.12277">
        <ele>72.3</ele>
        <time>2020-12-20T12:40:38Z</time>
      </trkpt>
      <trkpt lat="47.87667" lon="-1.12281">
        <ele>72.3</ele>
        <time>2020-12-20T12:40:39Z</time>
      </trkpt>
      <trkpt lat="47.87671" lon="-1.12284">
        <ele>72.5</ele>
        <time>2020-12-20T12:40:40Z</time>
      </trkpt>
      <trkpt lat="47.87674" lon="-1.12287">
        <ele>72.6</ele>
        <time>2020-12-20T12:40:41Z</time>
      </trkpt>
      <trkpt lat="47.87677" lon="-1.12291">
        <ele>72.7</ele>
        <time>2020-12-20T12:40:42Z</time>
      </trkpt>
      <trkpt lat="47.8768" lon="-1.12295">
        <ele>72.8</ele>
        <time>2020-12-20T12:40:43Z</time>
      </trkpt>
      <trkpt lat="47.87683" lon="-1.12298">
        <ele>72.9</ele>
        <time>2020-12-20T12:40:44Z</time>
      </trkpt>
      <trkpt lat="47.87686" lon="-1.12302">
        <ele>73</ele>
        <time>2020-12-20T12:40:45Z</time>
      </trkpt>
      <trkpt lat="47.87689" lon="-1.12305">
        <ele>73.1</ele>
        <time>2020-12-20T12:40:46Z</time>
      </trkpt>
      <trkpt lat="47.87692" lon="-1.12309">
        <ele>73.2</ele>
        <time>2020-12-20T12:40:47Z</time>
      </trkpt>
      <trkpt lat="47.87695" lon="-1.12313">
        <ele>73.3</ele>
        <time>2020-12-20T12:40:48Z</time>
      </trkpt>
      <trkpt lat="47.87697" lon="-1.12316">
        <ele>73.3</ele>
        <time>2020-12-20T12:40:49Z</time>
      </trkpt>
      <trkpt lat="47.877" lon="-1.1232">
        <ele>73.4</ele>
        <time>2020-12-20T12:40:50Z</time>
      </trkpt>
      <trkpt lat="47.87703" lon="-1.12323">
        <ele>73.5</ele>
        <time>2020-12-20T12:40:51Z</time>
      </trkpt>
      <trkpt lat="47.87706" lon="-1.12327">
        <ele>73.5</ele>
        <time>2020-12-20T12:40:52Z</time>
      </trkpt>
      <trkpt lat="47.8771" lon="-1.1233">
        <ele>73.7</ele>
        <time>2020-12-20T12:40:53Z</time>
      </trkpt>
      <trkpt lat="47.87713" lon="-1.12334">
        <ele>73.8</ele>
        <time>2020-12-20T12:40:54Z</time>
      </trkpt>
      <trkpt lat="47.87716" lon="-1.12337">
        <ele>73.9</ele>
        <time>2020-12-20T12:40:55Z</time>
      </trkpt>
      <trkpt lat="47.87719" lon="-1.12341">
        <ele>74</ele>
        <time>2020-12-20T12:40:56Z</time>
      </trkpt>
      <trkpt lat="47.87722" lon="-1.12344">
        <ele>74.1</ele>
        <time>2020-12-20T12:40:57Z</time>
      </trkpt>
      <trkpt lat="47.87725" lon="-1.12348">
        <ele>74.2</ele>
        <time>2020-12-20T12:40:58Z</time>
      </trkpt>
      <trkpt lat="47.87728" lon="-1.12352">
        <ele>74.3</ele>
        <time>2020-12-20T12:40:59Z</time>
      </trkpt>
      <trkpt lat="47.87731" lon="-1.12355">
        <ele>74.4</ele>
        <time>2020-12-20T12:41:00Z</time>
      </trkpt>
      <trkpt lat="47.87734" lon="-1.12359">
        <ele>74.5</ele>
        <time>2020-12-20T12:41:01Z</time>
      </trkpt>
      <trkpt lat="47.87737" lon="-1.12362">
        <ele>74.6</ele>
        <time>2020-12-20T12:41:02Z</time>
      </trkpt>
      <trkpt lat="47.8774" lon="-1.12366">
        <ele>74.7</ele>
        <time>2020-12-20T12:41:03Z</time>
      </trkpt>
      <trkpt lat="47.87743" lon="-1.12369">
        <ele>74.8</ele>
        <time>2020-12-20T12:41:04Z</time>
      </trkpt>
      <trkpt lat="47.87746" lon="-1.12373">
        <ele>74.8</ele>
        <time>2020-12-20T12:41:05Z</time>
      </trkpt>
      <trkpt lat="47.87749" lon="-1.12376">
        <ele>74.9</ele>
        <time>2020-12-20T12:41:06Z</time>
      </trkpt>
      <trkpt lat="47.87752" lon="-1.1238">
        <ele>75</ele>
        <time>2020-12-20T12:41:07Z</time>
      </trkpt>
      <trkpt lat="47.87755" lon="-1.12383">
        <ele>75.2</ele>
        <time>2020-12-20T12:41:08Z</time>
      </trkpt>
      <trkpt lat="47.87758" lon="-1.12386">
        <ele>75.4</ele>
        <time>2020-12-20T12:41:09Z</time>
      </trkpt>
      <trkpt lat="47.87761" lon="-1.12389">
        <ele>75.5</ele>
        <time>2020-12-20T12:41:10Z</time>
      </trkpt>
      <trkpt lat="47.87764" lon="-1.12392">
        <ele>75.7</ele>
        <time>2020-12-20T12:41:11Z</time>
      </trkpt>
      <trkpt lat="47.87767" lon="-1.12396">
        <ele>75.9</ele>
        <time>2020-12-20T12:41:12Z</time>
      </trkpt>
      <trkpt lat="47.87769" lon="-1.12399">
        <ele>76</ele>
        <time>2020-12-20T12:41:13Z</time>
      </trkpt>
      <trkpt lat="47.87772" lon="-1.12402">
        <ele>76.2</ele>
        <time>2020-12-20T12:41:14Z</time>
      </trkpt>
      <trkpt lat="47.87775" lon="-1.12406">
        <ele>76.3</ele>
        <time>2020-12-20T12:41:15Z</time>
      </trkpt>
      <trkpt lat="47.87777" lon="-1.12409">
        <ele>76.4</ele>
        <time>2020-12-20T12:41:16Z</time>
      </trkpt>
      <trkpt lat="47.8778" lon="-1.12412">
        <ele>76.6</ele>
        <time>2020-12-20T12:41:17Z</time>
      </trkpt>
      <trkpt lat="47.87783" lon="-1.12415">
        <ele>76.8</ele>
        <time>2020-12-20T12:41:18Z</time>
      </trkpt>
      <trkpt lat="47.87785" lon="-1.12419">
        <ele>76.9</ele>
        <time>2020-12-20T12:41:19Z</time>
      </trkpt>
      <trkpt lat="47.87788" lon="-1.12423">
        <ele>77</ele>
        <time>2020-12-20T12:41:20Z</time>
      </trkpt>
      <trkpt lat="47.8779" lon="-1.12426">
        <ele>77.1</ele>
        <time>2020-12-20T12:41:21Z</time>
      </trkpt>
      <trkpt lat="47.87793" lon="-1.1243">
        <ele>77.3</ele>
        <time>2020-12-20T12:41:22Z</time>
      </trkpt>
      <trkpt lat="47.87796" lon="-1.12434">
        <ele>77.4</ele>
        <time>2020-12-20T12:41:23Z</time>
      </trkpt>
      <trkpt lat="47.87798" lon="-1.12437">
        <ele>77.5</ele>
        <time>2020-12-20T12:41:24Z</time>
      </trkpt>
      <trkpt lat="47.878" lon="-1.1244">
        <ele>77.6</ele>
        <time>2020-12-20T12:41:25Z</time>
      </trkpt>
      <trkpt lat="47.87803" lon="-1.12443">
        <ele>77.8</ele>
        <time>2020-12-20T12:41:26Z</time>
      </trkpt>
      <trkpt lat="47.87806" lon="-1.12446">
        <ele>78</ele>
        <time>2020-12-20T12:41:27Z</time>
      </trkpt>
      <trkpt lat="47.87808" lon="-1.1245">
        <ele>78.1</ele>
        <time>2020-12-20T12:41:28Z</time>
      </trkpt>
      <trkpt lat="47.8781" lon="-1.12453">
        <ele>78.2</ele>
        <time>2020-12-20T12:41:29Z</time>
      </trkpt>
      <trkpt lat="47.87813" lon="-1.12457">
        <ele>78.3</ele>
        <time>2020-12-20T12:41:30Z</time>
      </trkpt>
      <trkpt lat="47.87815" lon="-1.1246">
        <ele>78.4</ele>
        <time>2020-12-20T12:41:31Z</time>
      </trkpt>
      <trkpt lat="47.87818" lon="-1.12464">
        <ele>78.6</ele>
        <time>2020-12-20T12:41:32Z</time>
      </trkpt>
      <trkpt lat="47.8782" lon="-1.12467">
        <ele>78.7</ele>
        <time>2020-12-20T12:41:33Z</time>
      </trkpt>
      <trkpt lat="47.87822" lon="-1.12471">
        <ele>78.7</ele>
        <time>2020-12-20T12:41:34Z</time>
      </trkpt>
      <trkpt lat="47.87824" lon="-1.12475">
        <ele>78.8</ele>
        <time>2020-12-20T12:41:35Z</time>
      </trkpt>
      <trkpt lat="47.87826" lon="-1.12479">
        <ele>78.9</ele>
        <time>2020-12-20T12:41:36Z</time>
      </trkpt>
      <trkpt lat="47.87828" lon="-1.12482">
        <ele>79</ele>
        <time>2020-12-20T12:41:37Z</time>
      </trkpt>
      <trkpt lat="47.87829" lon="-1.12486">
        <ele>79</ele>
        <time>2020-12-20T12:41:38Z</time>
      </trkpt>
      <trkpt lat="47.87832" lon="-1.1249">
        <ele>79.1</ele>
        <time>2020-12-20T12:41:39Z</time>
      </trkpt>
      <trkpt lat="47.87834" lon="-1.12494">
        <ele>79.2</ele>
        <time>2020-12-20T12:41:40Z</time>
      </trkpt>
      <trkpt lat="47.87836" lon="-1.12498">
        <ele>79.2</ele>
        <time>2020-12-20T12:41:41Z</time>
      </trkpt>
      <trkpt lat="47.87838" lon="-1.12502">
        <ele>79.2</ele>
        <time>2020-12-20T12:41:42Z</time>
      </trkpt>
      <trkpt lat="47.8784" lon="-1.12507">
        <ele>79.2</ele>
        <time>2020-12-20T12:41:43Z</time>
      </trkpt>
      <trkpt lat="47.87842" lon="-1.12511">
        <ele>79.3</ele>
        <time>2020-12-20T12:41:44Z</time>
      </trkpt>
      <trkpt lat="47.87844" lon="-1.12515">
        <ele>79.3</ele>
        <time>2020-12-20T12:41:45Z</time>
      </trkpt>
      <trkpt lat="47.87846" lon="-1.12519">
        <ele>79.4</ele>
        <time>2020-12-20T12:41:46Z</time>
      </trkpt>
      <trkpt lat="47.87848" lon="-1.12523">
        <ele>79.4</ele>
        <time>2020-12-20T12:41:47Z</time>
      </trkpt>
      <trkpt lat="47.8785" lon="-1.12527">
        <ele>79.5</ele>
        <time>2020-12-20T12:41:48Z</time>
      </trkpt>
      <trkpt lat="47.87852" lon="-1.12531">
        <ele>79.5</ele>
        <time>2020-12-20T12:41:49Z</time>
      </trkpt>
      <trkpt lat="47.87854" lon="-1.12534">
        <ele>79.6</ele>
        <time>2020-12-20T12:41:50Z</time>
      </trkpt>
      <trkpt lat="47.87856" lon="-1.12537">
        <ele>79.7</ele>
        <time>2020-12-20T12:41:51Z</time>
      </trkpt>
      <trkpt lat="47.87858" lon="-1.12541">
        <ele>79.8</ele>
        <time>2020-12-20T12:41:52Z</time>
      </trkpt>
      <trkpt lat="47.87859" lon="-1.12545">
        <ele>79.8</ele>
        <time>2020-12-20T12:41:53Z</time>
      </trkpt>
      <trkpt lat="47.87861" lon="-1.1255">
        <ele>79.9</ele>
        <time>2020-12-20T12:41:54Z</time>
      </trkpt>
      <trkpt lat="47.87863" lon="-1.12554">
        <ele>79.9</ele>
        <time>2020-12-20T12:41:55Z</time>
      </trkpt>
      <trkpt lat="47.87864" lon="-1.12558">
        <ele>80</ele>
        <time>2020-12-20T12:41:56Z</time>
      </trkpt>
      <trkpt lat="47.87866" lon="-1.12562">
        <ele>80.1</ele>
        <time>2020-12-20T12:41:57Z</time>
      </trkpt>
      <trkpt lat="47.87867" lon="-1.12567">
        <ele>80.1</ele>
        <time>2020-12-20T12:41:58Z</time>
      </trkpt>
      <trkpt lat="47.87869" lon="-1.12571">
        <ele>80.2</ele>
        <time>2020-12-20T12:41:59Z</time>
      </trkpt>
      <trkpt lat="47.8787" lon="-1.12576">
        <ele>80.2</ele>
        <time>2020-12-20T12:42:00Z</time>
      </trkpt>
      <trkpt lat="47.87872" lon="-1.1258">
        <ele>80.3</ele>
        <time>2020-12-20T12:42:01Z</time>
      </trkpt>
      <trkpt lat="47.87873" lon="-1.12584">
        <ele>80.3</ele>
        <time>2020-12-20T12:42:02Z</time>
      </trkpt>
      <trkpt lat="47.87874" lon="-1.12588">
        <ele>80.4</ele>
        <time>2020-12-20T12:42:03Z</time>
      </trkpt>
      <trkpt lat="47.87876" lon="-1.12592">
        <ele>80.6</ele>
        <time>2020-12-20T12:42:04Z</time>
      </trkpt>
      <trkpt lat="47.87877" lon="-1.12596">
        <ele>80.7</ele>
        <time>2020-12-20T12:42:05Z</time>
      </trkpt>
      <trkpt lat="47.87878" lon="-1.126">
        <ele>80.8</ele>
        <time>2020-12-20T12:42:06Z</time>
      </trkpt>
      <trkpt lat="47.87879" lon="-1.12604">
        <ele>80.9</ele>
        <time>2020-12-20T12:42:07Z</time>
      </trkpt>
      <trkpt lat="47.8788" lon="-1.12608">
        <ele>81.1</ele>
        <time>2020-12-20T12:42:08Z</time>
      </trkpt>
      <trkpt lat="47.87881" lon="-1.12612">
        <ele>81.2</ele>
        <time>2020-12-20T12:42:09Z</time>
      </trkpt>
      <trkpt lat="47.87883" lon="-1.12617">
        <ele>81.3</ele>
        <time>2020-12-20T12:42:10Z</time>
      </trkpt>
      <trkpt lat="47.87883" lon="-1.12621">
        <ele>81.4</ele>
        <time>2020-12-20T12:42:11Z</time>
      </trkpt>
      <trkpt lat="47.87884" lon="-1.12625">
        <ele>81.5</ele>
        <time>2020-12-20T12:42:12Z</time>
      </trkpt>
      <trkpt lat="47.87885" lon="-1.12629">
        <ele>81.5</ele>
        <time>2020-12-20T12:42:13Z</time>
      </trkpt>
      <trkpt lat="47.87886" lon="-1.12632">
        <ele>81.6</ele>
        <time>2020-12-20T12:42:14Z</time>
      </trkpt>
      <trkpt lat="47.87887" lon="-1.12635">
        <ele>81.7</ele>
        <time>2020-12-20T12:42:15Z</time>
      </trkpt>
      <trkpt lat="47.87888" lon="-1.12638">
        <ele>81.8</ele>
        <time>2020-12-20T12:42:16Z</time>
      </trkpt>
      <trkpt lat="47.87889" lon="-1.12642">
        <ele>81.9</ele>
        <time>2020-12-20T12:42:17Z</time>
      </trkpt>
      <trkpt lat="47.8789" lon="-1.12645">
        <ele>82</ele>
        <time>2020-12-20T12:42:18Z</time>
      </trkpt>
      <trkpt lat="47.8789" lon="-1.12649">
        <ele>82</ele>
        <time>2020-12-20T12:42:19Z</time>
      </trkpt>
      <trkpt lat="47.87891" lon="-1.12652">
        <ele>82.1</ele>
        <time>2020-12-20T12:42:20Z</time>
      </trkpt>
      <trkpt lat="47.87891" lon="-1.12656">
        <ele>82.1</ele>
        <time>2020-12-20T12:42:21Z</time>
      </trkpt>
      <trkpt lat="47.87892" lon="-1.12659">
        <ele>82.2</ele>
        <time>2020-12-20T12:42:22Z</time>
      </trkpt>
      <trkpt lat="47.87893" lon="-1.12662">
        <ele>82.3</ele>
        <time>2020-12-20T12:42:23Z</time>
      </trkpt>
      <trkpt lat="47.87893" lon="-1.12665">
        <ele>82.3</ele>
        <time>2020-12-20T12:42:24Z</time>
      </trkpt>
      <trkpt lat="47.87894" lon="-1.12668">
        <ele>82.4</ele>
        <time>2020-12-20T12:42:25Z</time>
      </trkpt>
      <trkpt lat="47.87895" lon="-1.12671">
        <ele>82.5</ele>
        <time>2020-12-20T12:42:26Z</time>
      </trkpt>
      <trkpt lat="47.87896" lon="-1.12674">
        <ele>82.6</ele>
        <time>2020-12-20T12:42:27Z</time>
      </trkpt>
      <trkpt lat="47.87897" lon="-1.12677">
        <ele>82.8</ele>
        <time>2020-12-20T12:42:28Z</time>
      </trkpt>
      <trkpt lat="47.87898" lon="-1.12679">
        <ele>82.9</ele>
        <time>2020-12-20T12:42:29Z</time>
      </trkpt>
      <trkpt lat="47.87899" lon="-1.12682">
        <ele>83</ele>
        <time>2020-12-20T12:42:30Z</time>
      </trkpt>
      <trkpt lat="47.879" lon="-1.12685">
        <ele>83.2</ele>
        <time>2020-12-20T12:42:31Z</time>
      </trkpt>
      <trkpt lat="47.87901" lon="-1.12688">
        <ele>83.3</ele>
        <time>2020-12-20T12:42:32Z</time>
      </trkpt>
      <trkpt lat="47.87902" lon="-1.12692">
        <ele>83.4</ele>
        <time>2020-12-20T12:42:33Z</time>
      </trkpt>
      <trkpt lat="47.87903" lon="-1.12696">
        <ele>83.6</ele>
        <time>2020-12-20T12:42:34Z</time>
      </trkpt>
      <trkpt lat="47.87904" lon="-1.12699">
        <ele>83.7</ele>
        <time>2020-12-20T12:42:35Z</time>
      </trkpt>
      <trkpt lat="47.87904" lon="-1.12702">
        <ele>83.8</ele>
        <time>2020-12-20T12:42:36Z</time>
      </trkpt>
      <trkpt lat="47.87905" lon="-1.12706">
        <ele>84</ele>
        <time>2020-12-20T12:42:37Z</time>
      </trkpt>
      <trkpt lat="47.87906" lon="-1.1271">
        <ele>84.1</ele>
        <time>2020-12-20T12:42:38Z</time>
      </trkpt>
      <trkpt lat="47.87907" lon="-1.12714">
        <ele>84.3</ele>
        <time>2020-12-20T12:42:39Z</time>
      </trkpt>
      <trkpt lat="47.87908" lon="-1.12717">
        <ele>84.5</ele>
        <time>2020-12-20T12:42:40Z</time>
      </trkpt>
      <trkpt lat="47.87909" lon="-1.12721">
        <ele>84.6</ele>
        <time>2020-12-20T12:42:41Z</time>
      </trkpt>
      <trkpt lat="47.8791" lon="-1.12724">
        <ele>84.8</ele>
        <time>2020-12-20T12:42:42Z</time>
      </trkpt>
      <trkpt lat="47.87911" lon="-1.12728">
        <ele>85</ele>
        <time>2020-12-20T12:42:43Z</time>
      </trkpt>
      <trkpt lat="47.87912" lon="-1.12731">
        <ele>85.1</ele>
        <time>2020-12-20T12:42:44Z</time>
      </trkpt>
      <trkpt lat="47.87912" lon="-1.12735">
        <ele>85.2</ele>
        <time>2020-12-20T12:42:45Z</time>
      </trkpt>
      <trkpt lat="47.87913" lon="-1.12738">
        <ele>85.4</ele>
        <time>2020-12-20T12:42:46Z</time>
      </trkpt>
      <trkpt lat="47.87913" lon="-1.12742">
        <ele>85.5</ele>
        <time>2020-12-20T12:42:47Z</time>
      </trkpt>
      <trkpt lat="47.87914" lon="-1.12745">
        <ele>85.6</ele>
        <time>2020-12-20T12:42:48Z</time>
      </trkpt>
      <trkpt lat="47.87915" lon="-1.12749">
        <ele>85.8</ele>
        <time>2020-12-20T12:42:49Z</time>
      </trkpt>
      <trkpt lat="47.87916" lon="-1.12752">
        <ele>85.9</ele>
        <time>2020-12-20T12:42:50Z</time>
      </trkpt>
      <trkpt lat="47.87916" lon="-1.12756">
        <ele>85.8</ele>
        <time>2020-12-20T12:42:51Z</time>
      </trkpt>
      <trkpt lat="47.87917" lon="-1.12759">
        <ele>85.8</ele>
        <time>2020-12-20T12:42:52Z</time>
      </trkpt>
      <trkpt lat="47.87918" lon="-1.12762">
        <ele>85.7</ele>
        <time>2020-12-20T12:42:53Z</time>
      </trkpt>
      <trkpt lat="47.87918" lon="-1.12766">
        <ele>85.7</ele>
        <time>2020-12-20T12:42:54Z</time>
      </trkpt>
      <trkpt lat="47.87919" lon="-1.12769">
        <ele>85.6</ele>
        <time>2020-12-20T12:42:55Z</time>
      </trkpt>
      <trkpt lat="47.8792" lon="-1.12773">
        <ele>85.5</ele>
        <time>2020-12-20T12:42:56Z</time>
      </trkpt>
      <trkpt lat="47.8792" lon="-1.12776">
        <ele>85.5</ele>
        <time>2020-12-20T12:42:57Z</time>
      </trkpt>
      <trkpt lat="47.87921" lon="-1.1278">
        <ele>85.4</ele>
        <time>2020-12-20T12:42:58Z</time>
      </trkpt>
      <trkpt lat="47.87921" lon="-1.12783">
        <ele>85.3</ele>
        <time>2020-12-20T12:42:59Z</time>
      </trkpt>
      <trkpt lat="47.87921" lon="-1.12786">
        <ele>85.3</ele>
        <time>2020-12-20T12:43:00Z</time>
      </trkpt>
      <trkpt lat="47.87922" lon="-1.12788">
        <ele>85.2</ele>
        <time>2020-12-20T12:43:01Z</time>
      </trkpt>
      <trkpt lat="47.87922" lon="-1.1279">
        <ele>85.2</ele>
        <time>2020-12-20T12:43:02Z</time>
      </trkpt>
      <trkpt lat="47.87922" lon="-1.12792">
        <ele>85.2</ele>
        <time>2020-12-20T12:43:03Z</time>
      </trkpt>
      <trkpt lat="47.87924" lon="-1.12794">
        <ele>85.2</ele>
        <time>2020-12-20T12:43:04Z</time>
      </trkpt>
      <trkpt lat="47.87925" lon="-1.12796">
        <ele>85.2</ele>
        <time>2020-12-20T12:43:05Z</time>
      </trkpt>
      <trkpt lat="47.87927" lon="-1.12797">
        <ele>85.2</ele>
        <time>2020-12-20T12:43:06Z</time>
      </trkpt>
      <trkpt lat="47.8793" lon="-1.12798">
        <ele>85.3</ele>
        <time>2020-12-20T12:43:07Z</time>
      </trkpt>
      <trkpt lat="47.87932" lon="-1.12797">
        <ele>85.3</ele>
        <time>2020-12-20T12:43:08Z</time>
      </trkpt>
      <trkpt lat="47.87935" lon="-1.12796">
        <ele>85.5</ele>
        <time>2020-12-20T12:43:09Z</time>
      </trkpt>
      <trkpt lat="47.87937" lon="-1.12795">
        <ele>85.5</ele>
        <time>2020-12-20T12:43:10Z</time>
      </trkpt>
      <trkpt lat="47.87938" lon="-1.12793">
        <ele>85.6</ele>
        <time>2020-12-20T12:43:11Z</time>
      </trkpt>
      <trkpt lat="47.8794" lon="-1.12792">
        <ele>85.7</ele>
        <time>2020-12-20T12:43:12Z</time>
      </trkpt>
      <trkpt lat="47.87942" lon="-1.1279">
        <ele>85.8</ele>
        <time>2020-12-20T12:43:13Z</time>
      </trkpt>
      <trkpt lat="47.87944" lon="-1.12788">
        <ele>85.9</ele>
        <time>2020-12-20T12:43:14Z</time>
      </trkpt>
      <trkpt lat="47.87946" lon="-1.12786">
        <ele>86</ele>
        <time>2020-12-20T12:43:15Z</time>
      </trkpt>
      <trkpt lat="47.87947" lon="-1.12784">
        <ele>86.1</ele>
        <time>2020-12-20T12:43:16Z</time>
      </trkpt>
      <trkpt lat="47.87949" lon="-1.12781">
        <ele>86.2</ele>
        <time>2020-12-20T12:43:17Z</time>
      </trkpt>
      <trkpt lat="47.87951" lon="-1.12779">
        <ele>86.3</ele>
        <time>2020-12-20T12:43:18Z</time>
      </trkpt>
      <trkpt lat="47.87953" lon="-1.12778">
        <ele>86.3</ele>
        <time>2020-12-20T12:43:19Z</time>
      </trkpt>
      <trkpt lat="47.87955" lon="-1.12776">
        <ele>86.4</ele>
        <time>2020-12-20T12:43:20Z</time>
      </trkpt>
      <trkpt lat="47.87957" lon="-1.12775">
        <ele>86.5</ele>
        <time>2020-12-20T12:43:21Z</time>
      </trkpt>
      <trkpt lat="47.87959" lon="-1.12773">
        <ele>86.6</ele>
        <time>2020-12-20T12:43:22Z</time>
      </trkpt>
      <trkpt lat="47.87961" lon="-1.12771">
        <ele>86.7</ele>
        <time>2020-12-20T12:43:23Z</time>
      </trkpt>
      <trkpt lat="47.87963" lon="-1.12769">
        <ele>86.8</ele>
        <time>2020-12-20T12:43:24Z</time>
      </trkpt>
      <trkpt lat="47.87966" lon="-1.12767">
        <ele>86.9</ele>
        <time>2020-12-20T12:43:25Z</time>
      </trkpt>
      <trkpt lat="47.87968" lon="-1.12765">
        <ele>87</ele>
        <time>2020-12-20T12:43:26Z</time>
      </trkpt>
      <trkpt lat="47.8797" lon="-1.12764">
        <ele>87.1</ele>
        <time>2020-12-20T12:43:27Z</time>
      </trkpt>
      <trkpt lat="47.87971" lon="-1.12762">
        <ele>87.1</ele>
        <time>2020-12-20T12:43:28Z</time>
      </trkpt>
      <trkpt lat="47.87972" lon="-1.12759">
        <ele>87.2</ele>
        <time>2020-12-20T12:43:29Z</time>
      </trkpt>
      <trkpt lat="47.87972" lon="-1.12758">
        <ele>87.2</ele>
        <time>2020-12-20T12:43:30Z</time>
      </trkpt>
      <trkpt lat="47.87973" lon="-1.12756">
        <ele>87.3</ele>
        <time>2020-12-20T12:43:31Z</time>
      </trkpt>
      <trkpt lat="47.87973" lon="-1.12754">
        <ele>87.3</ele>
        <time>2020-12-20T12:43:32Z</time>
      </trkpt>
      <trkpt lat="47.87975" lon="-1.12752">
        <ele>87.4</ele>
        <time>2020-12-20T12:43:33Z</time>
      </trkpt>
      <trkpt lat="47.87976" lon="-1.1275">
        <ele>87.4</ele>
        <time>2020-12-20T12:43:34Z</time>
      </trkpt>
      <trkpt lat="47.87978" lon="-1.12748">
        <ele>87.5</ele>
        <time>2020-12-20T12:43:35Z</time>
      </trkpt>
      <trkpt lat="47.87979" lon="-1.12746">
        <ele>87.5</ele>
        <time>2020-12-20T12:43:36Z</time>
      </trkpt>
      <trkpt lat="47.87981" lon="-1.12744">
        <ele>87.6</ele>
        <time>2020-12-20T12:43:37Z</time>
      </trkpt>
      <trkpt lat="47.87982" lon="-1.12743">
        <ele>87.7</ele>
        <time>2020-12-20T12:43:38Z</time>
      </trkpt>
      <trkpt lat="47.87984" lon="-1.12741">
        <ele>87.7</ele>
        <time>2020-12-20T12:43:39Z</time>
      </trkpt>
      <trkpt lat="47.87986" lon="-1.12739">
        <ele>87.8</ele>
        <time>2020-12-20T12:43:40Z</time>
      </trkpt>
      <trkpt lat="47.87987" lon="-1.12737">
        <ele>87.9</ele>
        <time>2020-12-20T12:43:41Z</time>
      </trkpt>
      <trkpt lat="47.87989" lon="-1.12735">
        <ele>88</ele>
        <time>2020-12-20T12:43:42Z</time>
      </trkpt>
      <trkpt lat="47.8799" lon="-1.12733">
        <ele>88.1</ele>
        <time>2020-12-20T12:43:43Z</time>
      </trkpt>
      <trkpt lat="47.87991" lon="-1.12731">
        <ele>88.1</ele>
        <time>2020-12-20T12:43:44Z</time>
      </trkpt>
      <trkpt lat="47.87993" lon="-1.1273">
        <ele>88.2</ele>
        <time>2020-12-20T12:43:45Z</time>
      </trkpt>
      <trkpt lat="47.87993" lon="-1.1273">
        <ele>88.2</ele>
        <time>2020-12-20T12:43:46Z</time>
      </trkpt>
      <trkpt lat="47.87996" lon="-1.12727">
        <ele>88.4</ele>
        <time>2020-12-20T12:43:47Z</time>
      </trkpt>
      <trkpt lat="47.87997" lon="-1.12725">
        <ele>88.5</ele>
        <time>2020-12-20T12:43:48Z</time>
      </trkpt>
      <trkpt lat="47.87999" lon="-1.12724">
        <ele>88.6</ele>
        <time>2020-12-20T12:43:49Z</time>
      </trkpt>
      <trkpt lat="47.88" lon="-1.12723">
        <ele>88.6</ele>
        <time>2020-12-20T12:43:50Z</time>
      </trkpt>
      <trkpt lat="47.88002" lon="-1.12723">
        <ele>88.7</ele>
        <time>2020-12-20T12:43:51Z</time>
      </trkpt>
      <trkpt lat="47.88004" lon="-1.12722">
        <ele>88.8</ele>
        <time>2020-12-20T12:43:52Z</time>
      </trkpt>
      <trkpt lat="47.88005" lon="-1.12722">
        <ele>88.9</ele>
        <time>2020-12-20T12:43:53Z</time>
      </trkpt>
      <trkpt lat="47.88007" lon="-1.12722">
        <ele>89</ele>
        <time>2020-12-20T12:43:54Z</time>
      </trkpt>
      <trkpt lat="47.88009" lon="-1.12722">
        <ele>89</ele>
        <time>2020-12-20T12:43:55Z</time>
      </trkpt>
      <trkpt lat="47.88012" lon="-1.1272">
        <ele>89.2</ele>
        <time>2020-12-20T08:57:53Z</time>
      </trkpt>
      <trkpt lat="47.88012" lon="-1.1272">
        <ele>89.2</ele>
        <time>2020-12-20T08:57:53Z</time>
      </trkpt>
      <trkpt lat="47.88011" lon="-1.12715">
        <ele>89.3</ele>
        <time>2020-12-20T08:57:54Z</time>
      </trkpt>
      <trkpt lat="47.88012" lon="-1.12711">
        <ele>89.4</ele>
        <time>2020-12-20T08:57:55Z</time>
      </trkpt>
      <trkpt lat="47.88013" lon="-1.12707">
        <ele>89.5</ele>
        <time>2020-12-20T08:57:56Z</time>
      </trkpt>
      <trkpt lat="47.88017" lon="-1.12702">
        <ele>89.7</ele>
        <time>2020-12-20T08:57:57Z</time>
      </trkpt>
      <trkpt lat="47.8802" lon="-1.12698">
        <ele>89.9</ele>
        <time>2020-12-20T08:57:58Z</time>
      </trkpt>
      <trkpt lat="47.88024" lon="-1.12694">
        <ele>90.1</ele>
        <time>2020-12-20T08:57:59Z</time>
      </trkpt>
      <trkpt lat="47.88028" lon="-1.12691">
        <ele>90.3</ele>
        <time>2020-12-20T08:58:00Z</time>
      </trkpt>
      <trkpt lat="47.88033" lon="-1.12685">
        <ele>90.5</ele>
        <time>2020-12-20T08:58:01Z</time>
      </trkpt>
      <trkpt lat="47.88037" lon="-1.1268">
        <ele>90.7</ele>
        <time>2020-12-20T08:58:02Z</time>
      </trkpt>
      <trkpt lat="47.8804" lon="-1.12676">
        <ele>90.8</ele>
        <time>2020-12-20T08:58:03Z</time>
      </trkpt>
      <trkpt lat="47.88044" lon="-1.12671">
        <ele>91</ele>
        <time>2020-12-20T08:58:04Z</time>
      </trkpt>
      <trkpt lat="47.88048" lon="-1.12666">
        <ele>91.2</ele>
        <time>2020-12-20T08:58:05Z</time>
      </trkpt>
      <trkpt lat="47.88052" lon="-1.12662">
        <ele>91.3</ele>
        <time>2020-12-20T08:58:06Z</time>
      </trkpt>
      <trkpt lat="47.88056" lon="-1.12657">
        <ele>91.5</ele>
        <time>2020-12-20T08:58:07Z</time>
      </trkpt>
      <trkpt lat="47.8806" lon="-1.12651">
        <ele>91.7</ele>
        <time>2020-12-20T08:58:08Z</time>
      </trkpt>
      <trkpt lat="47.88064" lon="-1.12646">
        <ele>91.9</ele>
        <time>2020-12-20T08:58:09Z</time>
      </trkpt>
      <trkpt lat="47.88069" lon="-1.12641">
        <ele>92.2</ele>
        <time>2020-12-20T08:58:10Z</time>
      </trkpt>
      <trkpt lat="47.88073" lon="-1.12637">
        <ele>92.4</ele>
        <time>2020-12-20T08:58:11Z</time>
      </trkpt>
      <trkpt lat="47.88077" lon="-1.12632">
        <ele>92.6</ele>
        <time>2020-12-20T08:58:12Z</time>
      </trkpt>
      <trkpt lat="47.88081" lon="-1.12628">
        <ele>92.8</ele>
        <time>2020-12-20T08:58:13Z</time>
      </trkpt>
      <trkpt lat="47.88085" lon="-1.12622">
        <ele>93.1</ele>
        <time>2020-12-20T08:58:14Z</time>
      </trkpt>
      <trkpt lat="47.88088" lon="-1.12617">
        <ele>93.4</ele>
        <time>2020-12-20T08:58:15Z</time>
      </trkpt>
      <trkpt lat="47.88093" lon="-1.12611">
        <ele>93.7</ele>
        <time>2020-12-20T08:58:16Z</time>
      </trkpt>
      <trkpt lat="47.88097" lon="-1.12606">
        <ele>94</ele>
        <time>2020-12-20T08:58:17Z</time>
      </trkpt>
      <trkpt lat="47.88101" lon="-1.12602">
        <ele>94.2</ele>
        <time>2020-12-20T08:58:18Z</time>
      </trkpt>
      <trkpt lat="47.88105" lon="-1.126">
        <ele>94.4</ele>
        <time>2020-12-20T08:58:19Z</time>
      </trkpt>
      <trkpt lat="47.88109" lon="-1.12595">
        <ele>94.7</ele>
        <time>2020-12-20T08:58:20Z</time>
      </trkpt>
      <trkpt lat="47.88113" lon="-1.12591">
        <ele>94.9</ele>
        <time>2020-12-20T08:58:21Z</time>
      </trkpt>
      <trkpt lat="47.88118" lon="-1.12585">
        <ele>95.2</ele>
        <time>2020-12-20T08:58:22Z</time>
      </trkpt>
      <trkpt lat="47.88121" lon="-1.12581">
        <ele>95.4</ele>
        <time>2020-12-20T08:58:23Z</time>
      </trkpt>
      <trkpt lat="47.88125" lon="-1.12577">
        <ele>95.7</ele>
        <time>2020-12-20T08:58:24Z</time>
      </trkpt>
      <trkpt lat="47.88129" lon="-1.12571">
        <ele>96</ele>
        <time>2020-12-20T08:58:25Z</time>
      </trkpt>
      <trkpt lat="47.88134" lon="-1.12566">
        <ele>96.3</ele>
        <time>2020-12-20T08:58:26Z</time>
      </trkpt>
      <trkpt lat="47.88137" lon="-1.12562">
        <ele>96.5</ele>
        <time>2020-12-20T08:58:27Z</time>
      </trkpt>
      <trkpt lat="47.88141" lon="-1.12558">
        <ele>96.8</ele>
        <time>2020-12-20T08:58:28Z</time>
      </trkpt>
      <trkpt lat="47.88145" lon="-1.12553">
        <ele>97.1</ele>
        <time>2020-12-20T08:58:29Z</time>
      </trkpt>
      <trkpt lat="47.88149" lon="-1.12548">
        <ele>97.5</ele>
        <time>2020-12-20T08:58:30Z</time>
      </trkpt>
      <trkpt lat="47.88154" lon="-1.12542">
        <ele>97.9</ele>
        <time>2020-12-20T08:58:31Z</time>
      </trkpt>
      <trkpt lat="47.88158" lon="-1.12537">
        <ele>98.2</ele>
        <time>2020-12-20T08:58:32Z</time>
      </trkpt>
      <trkpt lat="47.88162" lon="-1.12533">
        <ele>98.6</ele>
        <time>2020-12-20T08:58:33Z</time>
      </trkpt>
      <trkpt lat="47.88166" lon="-1.12529">
        <ele>98.9</ele>
        <time>2020-12-20T08:58:34Z</time>
      </trkpt>
      <trkpt lat="47.88169" lon="-1.12525">
        <ele>99.2</ele>
        <time>2020-12-20T08:58:35Z</time>
      </trkpt>
      <trkpt lat="47.88173" lon="-1.12522">
        <ele>99.5</ele>
        <time>2020-12-20T08:58:36Z</time>
      </trkpt>
      <trkpt lat="47.88176" lon="-1.12519">
        <ele>99.7</ele>
        <time>2020-12-20T08:58:37Z</time>
      </trkpt>
      <trkpt lat="47.8818" lon="-1.12516">
        <ele>99.9</ele>
        <time>2020-12-20T08:58:38Z</time>
      </trkpt>
      <trkpt lat="47.88183" lon="-1.12513">
        <ele>100.2</ele>
        <time>2020-12-20T08:58:39Z</time>
      </trkpt>
      <trkpt lat="47.88185" lon="-1.1251">
        <ele>100.3</ele>
        <time>2020-12-20T08:58:40Z</time>
      </trkpt>
      <trkpt lat="47.88185" lon="-1.12506">
        <ele>100.5</ele>
        <time>2020-12-20T08:58:41Z</time>
      </trkpt>
      <trkpt lat="47.88185" lon="-1.12503">
        <ele>100.6</ele>
        <time>2020-12-20T08:58:42Z</time>
      </trkpt>
      <trkpt lat="47.88183" lon="-1.125">
        <ele>100.6</ele>
        <time>2020-12-20T08:58:43Z</time>
      </trkpt>
      <trkpt lat="47.88181" lon="-1.12496">
        <ele>100.6</ele>
        <time>2020-12-20T08:58:44Z</time>
      </trkpt>
      <trkpt lat="47.88179" lon="-1.12493">
        <ele>100.6</ele>
        <time>2020-12-20T08:58:45Z</time>
      </trkpt>
      <trkpt lat="47.88178" lon="-1.12489">
        <ele>100.7</ele>
        <time>2020-12-20T08:58:46Z</time>
      </trkpt>
      <trkpt lat="47.88176" lon="-1.12486">
        <ele>100.7</ele>
        <time>2020-12-20T08:58:47Z</time>
      </trkpt>
      <trkpt lat="47.88174" lon="-1.12483">
        <ele>100.7</ele>
        <time>2020-12-20T08:58:48Z</time>
      </trkpt>
      <trkpt lat="47.88173" lon="-1.1248">
        <ele>100.7</ele>
        <time>2020-12-20T08:58:49Z</time>
      </trkpt>
      <trkpt lat="47.88172" lon="-1.12475">
        <ele>100.8</ele>
        <time>2020-12-20T08:58:50Z</time>
      </trkpt>
      <trkpt lat="47.88173" lon="-1.1247">
        <ele>100.9</ele>
        <time>2020-12-20T08:58:51Z</time>
      </trkpt>
      <trkpt lat="47.88176" lon="-1.12466">
        <ele>101.2</ele>
        <time>2020-12-20T08:58:52Z</time>
      </trkpt>
      <trkpt lat="47.88178" lon="-1.12462">
        <ele>101.3</ele>
        <time>2020-12-20T08:58:53Z</time>
      </trkpt>
      <trkpt lat="47.88181" lon="-1.12458">
        <ele>101.5</ele>
        <time>2020-12-20T08:58:54Z</time>
      </trkpt>
      <trkpt lat="47.88183" lon="-1.12455">
        <ele>101.7</ele>
        <time>2020-12-20T08:58:55Z</time>
      </trkpt>
      <trkpt lat="47.88185" lon="-1.12452">
        <ele>101.8</ele>
        <time>2020-12-20T08:58:56Z</time>
      </trkpt>
      <trkpt lat="47.88188" lon="-1.12449">
        <ele>102</ele>
        <time>2020-12-20T08:58:57Z</time>
      </trkpt>
      <trkpt lat="47.88192" lon="-1.12445">
        <ele>102.2</ele>
        <time>2020-12-20T08:58:58Z</time>
      </trkpt>
      <trkpt lat="47.88194" lon="-1.1244">
        <ele>102.4</ele>
        <time>2020-12-20T08:58:59Z</time>
      </trkpt>
      <trkpt lat="47.88197" lon="-1.12435">
        <ele>102.7</ele>
        <time>2020-12-20T08:59:00Z</time>
      </trkpt>
      <trkpt lat="47.88198" lon="-1.1243">
        <ele>102.8</ele>
        <time>2020-12-20T08:59:01Z</time>
      </trkpt>
      <trkpt lat="47.88199" lon="-1.12425">
        <ele>103</ele>
        <time>2020-12-20T08:59:02Z</time>
      </trkpt>
      <trkpt lat="47.88198" lon="-1.12419">
        <ele>103.1</ele>
        <time>2020-12-20T08:59:03Z</time>
      </trkpt>
      <trkpt lat="47.88197" lon="-1.12416">
        <ele>103.1</ele>
        <time>2020-12-20T08:59:04Z</time>
      </trkpt>
      <trkpt lat="47.88196" lon="-1.12411">
        <ele>103.2</ele>
        <time>2020-12-20T08:59:05Z</time>
      </trkpt>
      <trkpt lat="47.88195" lon="-1.12406">
        <ele>103.3</ele>
        <time>2020-12-20T08:59:06Z</time>
      </trkpt>
      <trkpt lat="47.88195" lon="-1.12398">
        <ele>103.5</ele>
        <time>2020-12-20T08:59:07Z</time>
      </trkpt>
      <trkpt lat="47.88195" lon="-1.12391">
        <ele>103.6</ele>
        <time>2020-12-20T08:59:08Z</time>
      </trkpt>
      <trkpt lat="47.88194" lon="-1.12386">
        <ele>103.7</ele>
        <time>2020-12-20T08:59:09Z</time>
      </trkpt>
      <trkpt lat="47.88192" lon="-1.1238">
        <ele>103.8</ele>
        <time>2020-12-20T08:59:10Z</time>
      </trkpt>
      <trkpt lat="47.8819" lon="-1.12374">
        <ele>103.9</ele>
        <time>2020-12-20T08:59:11Z</time>
      </trkpt>
      <trkpt lat="47.88188" lon="-1.12368">
        <ele>103.9</ele>
        <time>2020-12-20T08:59:12Z</time>
      </trkpt>
      <trkpt lat="47.88186" lon="-1.12362">
        <ele>104</ele>
        <time>2020-12-20T08:59:13Z</time>
      </trkpt>
      <trkpt lat="47.88184" lon="-1.12355">
        <ele>104.1</ele>
        <time>2020-12-20T08:59:14Z</time>
      </trkpt>
      <trkpt lat="47.88183" lon="-1.12347">
        <ele>104.3</ele>
        <time>2020-12-20T08:59:15Z</time>
      </trkpt>
      <trkpt lat="47.8818" lon="-1.12338">
        <ele>104.4</ele>
        <time>2020-12-20T08:59:16Z</time>
      </trkpt>
      <trkpt lat="47.88177" lon="-1.12328">
        <ele>104.4</ele>
        <time>2020-12-20T08:59:17Z</time>
      </trkpt>
      <trkpt lat="47.88174" lon="-1.12317">
        <ele>104.2</ele>
        <time>2020-12-20T08:59:18Z</time>
      </trkpt>
      <trkpt lat="47.88173" lon="-1.12309">
        <ele>104.2</ele>
        <time>2020-12-20T08:59:19Z</time>
      </trkpt>
      <trkpt lat="47.8817" lon="-1.12301">
        <ele>104.1</ele>
        <time>2020-12-20T08:59:20Z</time>
      </trkpt>
      <trkpt lat="47.88168" lon="-1.12294">
        <ele>104</ele>
        <time>2020-12-20T08:59:21Z</time>
      </trkpt>
      <trkpt lat="47.88167" lon="-1.12288">
        <ele>104</ele>
        <time>2020-12-20T08:59:22Z</time>
      </trkpt>
      <trkpt lat="47.88166" lon="-1.12282">
        <ele>103.9</ele>
        <time>2020-12-20T08:59:23Z</time>
      </trkpt>
      <trkpt lat="47.88167" lon="-1.12275">
        <ele>104</ele>
        <time>2020-12-20T08:59:24Z</time>
      </trkpt>
      <trkpt lat="47.88166" lon="-1.12268">
        <ele>103.9</ele>
        <time>2020-12-20T08:59:25Z</time>
      </trkpt>
      <trkpt lat="47.88165" lon="-1.12262">
        <ele>103.9</ele>
        <time>2020-12-20T08:59:26Z</time>
      </trkpt>
      <trkpt lat="47.88166" lon="-1.12254">
        <ele>103.9</ele>
        <time>2020-12-20T08:59:27Z</time>
      </trkpt>
      <trkpt lat="47.88166" lon="-1.12248">
        <ele>104</ele>
        <time>2020-12-20T08:59:28Z</time>
      </trkpt>
      <trkpt lat="47.88165" lon="-1.12243">
        <ele>104.1</ele>
        <time>2020-12-20T08:59:29Z</time>
      </trkpt>
      <trkpt lat="47.88163" lon="-1.12237">
        <ele>104.2</ele>
        <time>2020-12-20T08:59:30Z</time>
      </trkpt>
      <trkpt lat="47.88164" lon="-1.12228">
        <ele>104.6</ele>
        <time>2020-12-20T08:59:31Z</time>
      </trkpt>
      <trkpt lat="47.88166" lon="-1.12217">
        <ele>105.1</ele>
        <time>2020-12-20T08:59:32Z</time>
      </trkpt>
      <trkpt lat="47.88168" lon="-1.12208">
        <ele>105.5</ele>
        <time>2020-12-20T08:59:33Z</time>
      </trkpt>
      <trkpt lat="47.88168" lon="-1.12202">
        <ele>105.7</ele>
        <time>2020-12-20T08:59:34Z</time>
      </trkpt>
      <trkpt lat="47.88168" lon="-1.12198">
        <ele>105.9</ele>
        <time>2020-12-20T08:59:35Z</time>
      </trkpt>
      <trkpt lat="47.88166" lon="-1.12194">
        <ele>106</ele>
        <time>2020-12-20T08:59:36Z</time>
      </trkpt>
      <trkpt lat="47.88164" lon="-1.12189">
        <ele>105.9</ele>
        <time>2020-12-20T08:59:37Z</time>
      </trkpt>
      <trkpt lat="47.88162" lon="-1.1218">
        <ele>106.1</ele>
        <time>2020-12-20T08:59:38Z</time>
      </trkpt>
      <trkpt lat="47.88161" lon="-1.12174">
        <ele>106.2</ele>
        <time>2020-12-20T08:59:39Z</time>
      </trkpt>
      <trkpt lat="47.8816" lon="-1.12169">
        <ele>106.3</ele>
        <time>2020-12-20T08:59:40Z</time>
      </trkpt>
      <trkpt lat="47.8816" lon="-1.12164">
        <ele>106.3</ele>
        <time>2020-12-20T08:59:41Z</time>
      </trkpt>
      <trkpt lat="47.88158" lon="-1.12157">
        <ele>106.1</ele>
        <time>2020-12-20T08:59:42Z</time>
      </trkpt>
      <trkpt lat="47.88159" lon="-1.12151">
        <ele>106.1</ele>
        <time>2020-12-20T08:59:43Z</time>
      </trkpt>
      <trkpt lat="47.88159" lon="-1.12145">
        <ele>106.1</ele>
        <time>2020-12-20T08:59:44Z</time>
      </trkpt>
      <trkpt lat="47.88158" lon="-1.1214">
        <ele>105.9</ele>
        <time>2020-12-20T08:59:45Z</time>
      </trkpt>
      <trkpt lat="47.88156" lon="-1.12135">
        <ele>105.7</ele>
        <time>2020-12-20T08:59:46Z</time>
      </trkpt>
      <trkpt lat="47.88154" lon="-1.12131">
        <ele>105.5</ele>
        <time>2020-12-20T08:59:47Z</time>
      </trkpt>
      <trkpt lat="47.8815" lon="-1.12125">
        <ele>105.1</ele>
        <time>2020-12-20T08:59:48Z</time>
      </trkpt>
      <trkpt lat="47.88147" lon="-1.12121">
        <ele>104.8</ele>
        <time>2020-12-20T08:59:49Z</time>
      </trkpt>
      <trkpt lat="47.88144" lon="-1.12117">
        <ele>104.6</ele>
        <time>2020-12-20T08:59:50Z</time>
      </trkpt>
      <trkpt lat="47.88142" lon="-1.12113">
        <ele>104.4</ele>
        <time>2020-12-20T08:59:51Z</time>
      </trkpt>
      <trkpt lat="47.88141" lon="-1.12108">
        <ele>104.3</ele>
        <time>2020-12-20T08:59:52Z</time>
      </trkpt>
      <trkpt lat="47.8814" lon="-1.12105">
        <ele>104.2</ele>
        <time>2020-12-20T08:59:53Z</time>
      </trkpt>
      <trkpt lat="47.88139" lon="-1.12101">
        <ele>104.1</ele>
        <time>2020-12-20T08:59:54Z</time>
      </trkpt>
      <trkpt lat="47.88138" lon="-1.12098">
        <ele>104</ele>
        <time>2020-12-20T08:59:55Z</time>
      </trkpt>
      <trkpt lat="47.88136" lon="-1.12093">
        <ele>103.8</ele>
        <time>2020-12-20T08:59:56Z</time>
      </trkpt>
      <trkpt lat="47.88135" lon="-1.12089">
        <ele>103.7</ele>
        <time>2020-12-20T08:59:57Z</time>
      </trkpt>
      <trkpt lat="47.88135" lon="-1.12085">
        <ele>103.7</ele>
        <time>2020-12-20T08:59:58Z</time>
      </trkpt>
      <trkpt lat="47.88135" lon="-1.12081">
        <ele>103.7</ele>
        <time>2020-12-20T08:59:59Z</time>
      </trkpt>
      <trkpt lat="47.88134" lon="-1.12077">
        <ele>103.7</ele>
        <time>2020-12-20T09:00:00Z</time>
      </trkpt>
      <trkpt lat="47.88133" lon="-1.12072">
        <ele>103.7</ele>
        <time>2020-12-20T09:00:01Z</time>
      </trkpt>
      <trkpt lat="47.88132" lon="-1.12068">
        <ele>103.7</ele>
        <time>2020-12-20T09:00:02Z</time>
      </trkpt>
      <trkpt lat="47.88131" lon="-1.12064">
        <ele>103.6</ele>
        <time>2020-12-20T09:00:03Z</time>
      </trkpt>
      <trkpt lat="47.88128" lon="-1.12058">
        <ele>103.5</ele>
        <time>2020-12-20T09:00:04Z</time>
      </trkpt>
      <trkpt lat="47.88127" lon="-1.1205">
        <ele>103.5</ele>
        <time>2020-12-20T09:00:05Z</time>
      </trkpt>
      <trkpt lat="47.88128" lon="-1.12045">
        <ele>103.6</ele>
        <time>2020-12-20T09:00:06Z</time>
      </trkpt>
      <trkpt lat="47.88128" lon="-1.1204">
        <ele>103.7</ele>
        <time>2020-12-20T09:00:07Z</time>
      </trkpt>
      <trkpt lat="47.88129" lon="-1.12033">
        <ele>103.8</ele>
        <time>2020-12-20T09:00:08Z</time>
      </trkpt>
      <trkpt lat="47.88129" lon="-1.12024">
        <ele>103.9</ele>
        <time>2020-12-20T09:00:09Z</time>
      </trkpt>
      <trkpt lat="47.88129" lon="-1.12016">
        <ele>104</ele>
        <time>2020-12-20T09:00:10Z</time>
      </trkpt>
      <trkpt lat="47.88126" lon="-1.12009">
        <ele>103.9</ele>
        <time>2020-12-20T09:00:11Z</time>
      </trkpt>
      <trkpt lat="47.88123" lon="-1.12006">
        <ele>103.8</ele>
        <time>2020-12-20T09:00:12Z</time>
      </trkpt>
      <trkpt lat="47.88118" lon="-1.12001">
        <ele>103.6</ele>
        <time>2020-12-20T09:00:13Z</time>
      </trkpt>
      <trkpt lat="47.88114" lon="-1.11997">
        <ele>103.5</ele>
        <time>2020-12-20T09:00:14Z</time>
      </trkpt>
      <trkpt lat="47.8811" lon="-1.11994">
        <ele>103.3</ele>
        <time>2020-12-20T09:00:15Z</time>
      </trkpt>
      <trkpt lat="47.88107" lon="-1.11993">
        <ele>103.1</ele>
        <time>2020-12-20T09:00:16Z</time>
      </trkpt>
      <trkpt lat="47.88105" lon="-1.11991">
        <ele>103.1</ele>
        <time>2020-12-20T09:00:17Z</time>
      </trkpt>
      <trkpt lat="47.88102" lon="-1.1199">
        <ele>102.9</ele>
        <time>2020-12-20T09:00:18Z</time>
      </trkpt>
      <trkpt lat="47.88097" lon="-1.11989">
        <ele>102.7</ele>
        <time>2020-12-20T09:00:19Z</time>
      </trkpt>
      <trkpt lat="47.88094" lon="-1.11992">
        <ele>102.6</ele>
        <time>2020-12-20T09:00:20Z</time>
      </trkpt>
      <trkpt lat="47.88092" lon="-1.11997">
        <ele>102.4</ele>
        <time>2020-12-20T09:00:21Z</time>
      </trkpt>
      <trkpt lat="47.88091" lon="-1.12001">
        <ele>102.3</ele>
        <time>2020-12-20T09:00:22Z</time>
      </trkpt>
      <trkpt lat="47.88091" lon="-1.12007">
        <ele>102.2</ele>
        <time>2020-12-20T09:00:23Z</time>
      </trkpt>
      <trkpt lat="47.88093" lon="-1.12012">
        <ele>102.2</ele>
        <time>2020-12-20T09:00:24Z</time>
      </trkpt>
      <trkpt lat="47.88095" lon="-1.12018">
        <ele>102.2</ele>
        <time>2020-12-20T09:00:25Z</time>
      </trkpt>
      <trkpt lat="47.88097" lon="-1.12023">
        <ele>102.2</ele>
        <time>2020-12-20T09:00:26Z</time>
      </trkpt>
      <trkpt lat="47.88099" lon="-1.12029">
        <ele>102.2</ele>
        <time>2020-12-20T09:00:27Z</time>
      </trkpt>
      <trkpt lat="47.88101" lon="-1.12035">
        <ele>102.2</ele>
        <time>2020-12-20T09:00:28Z</time>
      </trkpt>
      <trkpt lat="47.88102" lon="-1.1204">
        <ele>102.2</ele>
        <time>2020-12-20T09:00:29Z</time>
      </trkpt>
      <trkpt lat="47.88103" lon="-1.12045">
        <ele>102.1</ele>
        <time>2020-12-20T09:00:30Z</time>
      </trkpt>
      <trkpt lat="47.88104" lon="-1.12049">
        <ele>102.1</ele>
        <time>2020-12-20T09:00:31Z</time>
      </trkpt>
      <trkpt lat="47.88106" lon="-1.12054">
        <ele>102.1</ele>
        <time>2020-12-20T09:00:32Z</time>
      </trkpt>
      <trkpt lat="47.88107" lon="-1.1206">
        <ele>102.1</ele>
        <time>2020-12-20T09:00:33Z</time>
      </trkpt>
      <trkpt lat="47.88108" lon="-1.12064">
        <ele>102.1</ele>
        <time>2020-12-20T09:00:34Z</time>
      </trkpt>
      <trkpt lat="47.88109" lon="-1.12068">
        <ele>102.1</ele>
        <time>2020-12-20T09:00:35Z</time>
      </trkpt>
      <trkpt lat="47.8811" lon="-1.12072">
        <ele>102.1</ele>
        <time>2020-12-20T09:00:36Z</time>
      </trkpt>
      <trkpt lat="47.88111" lon="-1.12078">
        <ele>102.1</ele>
        <time>2020-12-20T09:00:37Z</time>
      </trkpt>
      <trkpt lat="47.88113" lon="-1.12083">
        <ele>102.1</ele>
        <time>2020-12-20T09:00:38Z</time>
      </trkpt>
      <trkpt lat="47.88114" lon="-1.12088">
        <ele>102.2</ele>
        <time>2020-12-20T09:00:39Z</time>
      </trkpt>
      <trkpt lat="47.88114" lon="-1.12092">
        <ele>102.2</ele>
        <time>2020-12-20T09:00:40Z</time>
      </trkpt>
      <trkpt lat="47.88114" lon="-1.12097">
        <ele>102.2</ele>
        <time>2020-12-20T09:00:41Z</time>
      </trkpt>
      <trkpt lat="47.88114" lon="-1.12103">
        <ele>102.1</ele>
        <time>2020-12-20T09:00:42Z</time>
      </trkpt>
      <trkpt lat="47.88113" lon="-1.12107">
        <ele>102.1</ele>
        <time>2020-12-20T09:00:43Z</time>
      </trkpt>
      <trkpt lat="47.88113" lon="-1.12112">
        <ele>102</ele>
        <time>2020-12-20T09:00:44Z</time>
      </trkpt>
      <trkpt lat="47.88114" lon="-1.12119">
        <ele>102.1</ele>
        <time>2020-12-20T09:00:45Z</time>
      </trkpt>
      <trkpt lat="47.88115" lon="-1.12125">
        <ele>102.2</ele>
        <time>2020-12-20T09:00:46Z</time>
      </trkpt>
      <trkpt lat="47.88117" lon="-1.12132">
        <ele>102.3</ele>
        <time>2020-12-20T09:00:47Z</time>
      </trkpt>
      <trkpt lat="47.88118" lon="-1.12139">
        <ele>102.4</ele>
        <time>2020-12-20T09:00:48Z</time>
      </trkpt>
      <trkpt lat="47.88119" lon="-1.12146">
        <ele>102.5</ele>
        <time>2020-12-20T09:00:49Z</time>
      </trkpt>
      <trkpt lat="47.8812" lon="-1.12152">
        <ele>102.5</ele>
        <time>2020-12-20T09:00:50Z</time>
      </trkpt>
      <trkpt lat="47.88122" lon="-1.12159">
        <ele>102.7</ele>
        <time>2020-12-20T09:00:51Z</time>
      </trkpt>
      <trkpt lat="47.88121" lon="-1.12166">
        <ele>102.6</ele>
        <time>2020-12-20T09:00:52Z</time>
      </trkpt>
      <trkpt lat="47.88122" lon="-1.12173">
        <ele>102.5</ele>
        <time>2020-12-20T09:00:53Z</time>
      </trkpt>
      <trkpt lat="47.88121" lon="-1.12178">
        <ele>102.3</ele>
        <time>2020-12-20T09:00:54Z</time>
      </trkpt>
      <trkpt lat="47.88121" lon="-1.12185">
        <ele>102.1</ele>
        <time>2020-12-20T09:00:55Z</time>
      </trkpt>
      <trkpt lat="47.88122" lon="-1.12192">
        <ele>102</ele>
        <time>2020-12-20T09:00:56Z</time>
      </trkpt>
      <trkpt lat="47.88122" lon="-1.122">
        <ele>101.7</ele>
        <time>2020-12-20T09:00:57Z</time>
      </trkpt>
      <trkpt lat="47.88123" lon="-1.12209">
        <ele>101.6</ele>
        <time>2020-12-20T09:00:58Z</time>
      </trkpt>
      <trkpt lat="47.88124" lon="-1.12217">
        <ele>101.4</ele>
        <time>2020-12-20T09:00:59Z</time>
      </trkpt>
      <trkpt lat="47.88125" lon="-1.12226">
        <ele>101.2</ele>
        <time>2020-12-20T09:01:00Z</time>
      </trkpt>
      <trkpt lat="47.88125" lon="-1.12235">
        <ele>101</ele>
        <time>2020-12-20T09:01:01Z</time>
      </trkpt>
      <trkpt lat="47.88125" lon="-1.12241">
        <ele>100.8</ele>
        <time>2020-12-20T09:01:02Z</time>
      </trkpt>
      <trkpt lat="47.88125" lon="-1.12248">
        <ele>100.6</ele>
        <time>2020-12-20T09:01:03Z</time>
      </trkpt>
      <trkpt lat="47.88126" lon="-1.12255">
        <ele>100.6</ele>
        <time>2020-12-20T09:01:04Z</time>
      </trkpt>
      <trkpt lat="47.88127" lon="-1.12262">
        <ele>100.6</ele>
        <time>2020-12-20T09:01:05Z</time>
      </trkpt>
      <trkpt lat="47.88127" lon="-1.12268">
        <ele>100.6</ele>
        <time>2020-12-20T09:01:06Z</time>
      </trkpt>
      <trkpt lat="47.88127" lon="-1.12274">
        <ele>100.5</ele>
        <time>2020-12-20T09:01:07Z</time>
      </trkpt>
      <trkpt lat="47.88127" lon="-1.1228">
        <ele>100.5</ele>
        <time>2020-12-20T09:01:08Z</time>
      </trkpt>
      <trkpt lat="47.88128" lon="-1.12287">
        <ele>100.5</ele>
        <time>2020-12-20T09:01:09Z</time>
      </trkpt>
      <trkpt lat="47.8813" lon="-1.12295">
        <ele>100.7</ele>
        <time>2020-12-20T09:01:10Z</time>
      </trkpt>
      <trkpt lat="47.88133" lon="-1.12303">
        <ele>100.9</ele>
        <time>2020-12-20T09:01:11Z</time>
      </trkpt>
      <trkpt lat="47.88136" lon="-1.12311">
        <ele>101.2</ele>
        <time>2020-12-20T09:01:12Z</time>
      </trkpt>
      <trkpt lat="47.88139" lon="-1.12319">
        <ele>101.4</ele>
        <time>2020-12-20T09:01:13Z</time>
      </trkpt>
      <trkpt lat="47.8814" lon="-1.12325">
        <ele>101.5</ele>
        <time>2020-12-20T09:01:14Z</time>
      </trkpt>
      <trkpt lat="47.88141" lon="-1.12332">
        <ele>101.5</ele>
        <time>2020-12-20T09:01:15Z</time>
      </trkpt>
      <trkpt lat="47.88144" lon="-1.12339">
        <ele>101.7</ele>
        <time>2020-12-20T09:01:16Z</time>
      </trkpt>
      <trkpt lat="47.88146" lon="-1.12347">
        <ele>101.7</ele>
        <time>2020-12-20T09:01:17Z</time>
      </trkpt>
      <trkpt lat="47.88148" lon="-1.12354">
        <ele>101.8</ele>
        <time>2020-12-20T09:01:18Z</time>
      </trkpt>
      <trkpt lat="47.8815" lon="-1.1236">
        <ele>101.8</ele>
        <time>2020-12-20T09:01:19Z</time>
      </trkpt>
      <trkpt lat="47.88152" lon="-1.12365">
        <ele>101.9</ele>
        <time>2020-12-20T09:01:20Z</time>
      </trkpt>
      <trkpt lat="47.88153" lon="-1.12372">
        <ele>101.8</ele>
        <time>2020-12-20T09:01:21Z</time>
      </trkpt>
      <trkpt lat="47.88154" lon="-1.12378">
        <ele>101.8</ele>
        <time>2020-12-20T09:01:22Z</time>
      </trkpt>
      <trkpt lat="47.88155" lon="-1.12384">
        <ele>101.7</ele>
        <time>2020-12-20T09:01:23Z</time>
      </trkpt>
      <trkpt lat="47.88157" lon="-1.12391">
        <ele>101.8</ele>
        <time>2020-12-20T09:01:24Z</time>
      </trkpt>
      <trkpt lat="47.88159" lon="-1.12397">
        <ele>101.8</ele>
        <time>2020-12-20T09:01:25Z</time>
      </trkpt>
      <trkpt lat="47.88161" lon="-1.12404">
        <ele>101.8</ele>
        <time>2020-12-20T09:01:26Z</time>
      </trkpt>
      <trkpt lat="47.88164" lon="-1.12411">
        <ele>101.9</ele>
        <time>2020-12-20T09:01:27Z</time>
      </trkpt>
      <trkpt lat="47.88167" lon="-1.12418">
        <ele>102</ele>
        <time>2020-12-20T09:01:28Z</time>
      </trkpt>
      <trkpt lat="47.88168" lon="-1.12425">
        <ele>101.8</ele>
        <time>2020-12-20T09:01:29Z</time>
      </trkpt>
      <trkpt lat="47.8817" lon="-1.12431">
        <ele>101.8</ele>
        <time>2020-12-20T09:01:30Z</time>
      </trkpt>
      <trkpt lat="47.88172" lon="-1.12436">
        <ele>101.7</ele>
        <time>2020-12-20T09:01:31Z</time>
      </trkpt>
      <trkpt lat="47.88174" lon="-1.12442">
        <ele>101.7</ele>
        <time>2020-12-20T09:01:32Z</time>
      </trkpt>
      <trkpt lat="47.88176" lon="-1.12448">
        <ele>101.6</ele>
        <time>2020-12-20T09:01:33Z</time>
      </trkpt>
      <trkpt lat="47.88178" lon="-1.12453">
        <ele>101.5</ele>
        <time>2020-12-20T09:01:34Z</time>
      </trkpt>
      <trkpt lat="47.8818" lon="-1.12459">
        <ele>101.5</ele>
        <time>2020-12-20T09:01:35Z</time>
      </trkpt>
      <trkpt lat="47.88181" lon="-1.12465">
        <ele>101.4</ele>
        <time>2020-12-20T09:01:36Z</time>
      </trkpt>
      <trkpt lat="47.88183" lon="-1.1247">
        <ele>101.3</ele>
        <time>2020-12-20T09:01:37Z</time>
      </trkpt>
      <trkpt lat="47.88183" lon="-1.12475">
        <ele>101.2</ele>
        <time>2020-12-20T09:01:38Z</time>
      </trkpt>
      <trkpt lat="47.88185" lon="-1.1248">
        <ele>101.1</ele>
        <time>2020-12-20T09:01:39Z</time>
      </trkpt>
      <trkpt lat="47.88185" lon="-1.12485">
        <ele>101</ele>
        <time>2020-12-20T09:01:40Z</time>
      </trkpt>
      <trkpt lat="47.88186" lon="-1.12489">
        <ele>101</ele>
        <time>2020-12-20T09:01:41Z</time>
      </trkpt>
      <trkpt lat="47.88186" lon="-1.12493">
        <ele>100.9</ele>
        <time>2020-12-20T09:01:42Z</time>
      </trkpt>
      <trkpt lat="47.88188" lon="-1.12497">
        <ele>100.8</ele>
        <time>2020-12-20T09:01:43Z</time>
      </trkpt>
      <trkpt lat="47.88188" lon="-1.12501">
        <ele>100.7</ele>
        <time>2020-12-20T09:01:44Z</time>
      </trkpt>
      <trkpt lat="47.88189" lon="-1.12503">
        <ele>100.7</ele>
        <time>2020-12-20T09:01:45Z</time>
      </trkpt>
      <trkpt lat="47.88191" lon="-1.12504">
        <ele>100.7</ele>
        <time>2020-12-20T09:01:46Z</time>
      </trkpt>
      <trkpt lat="47.88193" lon="-1.12503">
        <ele>100.9</ele>
        <time>2020-12-20T09:01:47Z</time>
      </trkpt>
      <trkpt lat="47.88195" lon="-1.12501">
        <ele>101</ele>
        <time>2020-12-20T09:01:48Z</time>
      </trkpt>
      <trkpt lat="47.88198" lon="-1.12497">
        <ele>101.2</ele>
        <time>2020-12-20T09:01:49Z</time>
      </trkpt>
      <trkpt lat="47.88201" lon="-1.12493">
        <ele>101.4</ele>
        <time>2020-12-20T09:01:50Z</time>
      </trkpt>
      <trkpt lat="47.88205" lon="-1.12488">
        <ele>101.7</ele>
        <time>2020-12-20T09:01:51Z</time>
      </trkpt>
      <trkpt lat="47.88209" lon="-1.12484">
        <ele>101.9</ele>
        <time>2020-12-20T09:01:52Z</time>
      </trkpt>
      <trkpt lat="47.88212" lon="-1.1248">
        <ele>102.1</ele>
        <time>2020-12-20T09:01:53Z</time>
      </trkpt>
      <trkpt lat="47.88216" lon="-1.12475">
        <ele>102.4</ele>
        <time>2020-12-20T09:01:54Z</time>
      </trkpt>
      <trkpt lat="47.8822" lon="-1.1247">
        <ele>102.6</ele>
        <time>2020-12-20T09:01:55Z</time>
      </trkpt>
      <trkpt lat="47.88224" lon="-1.12467">
        <ele>102.9</ele>
        <time>2020-12-20T09:01:56Z</time>
      </trkpt>
      <trkpt lat="47.88227" lon="-1.12464">
        <ele>103</ele>
        <time>2020-12-20T09:01:57Z</time>
      </trkpt>
      <trkpt lat="47.8823" lon="-1.12461">
        <ele>103.2</ele>
        <time>2020-12-20T09:01:58Z</time>
      </trkpt>
      <trkpt lat="47.88233" lon="-1.12457">
        <ele>103.4</ele>
        <time>2020-12-20T09:01:59Z</time>
      </trkpt>
      <trkpt lat="47.88237" lon="-1.12453">
        <ele>103.7</ele>
        <time>2020-12-20T09:02:00Z</time>
      </trkpt>
      <trkpt lat="47.8824" lon="-1.1245">
        <ele>103.8</ele>
        <time>2020-12-20T09:02:01Z</time>
      </trkpt>
      <trkpt lat="47.88244" lon="-1.12446">
        <ele>104.1</ele>
        <time>2020-12-20T09:02:03Z</time>
      </trkpt>
      <trkpt lat="47.88247" lon="-1.12442">
        <ele>104.3</ele>
        <time>2020-12-20T09:02:04Z</time>
      </trkpt>
      <trkpt lat="47.8825" lon="-1.12438">
        <ele>104.5</ele>
        <time>2020-12-20T09:02:05Z</time>
      </trkpt>
      <trkpt lat="47.88254" lon="-1.12433">
        <ele>104.6</ele>
        <time>2020-12-20T09:02:06Z</time>
      </trkpt>
      <trkpt lat="47.88259" lon="-1.12428">
        <ele>104.6</ele>
        <time>2020-12-20T09:02:07Z</time>
      </trkpt>
      <trkpt lat="47.88263" lon="-1.12423">
        <ele>104.7</ele>
        <time>2020-12-20T09:02:08Z</time>
      </trkpt>
      <trkpt lat="47.88267" lon="-1.12418">
        <ele>104.8</ele>
        <time>2020-12-20T09:02:09Z</time>
      </trkpt>
      <trkpt lat="47.88272" lon="-1.12414">
        <ele>104.8</ele>
        <time>2020-12-20T09:02:10Z</time>
      </trkpt>
      <trkpt lat="47.88277" lon="-1.12408">
        <ele>104.8</ele>
        <time>2020-12-20T09:02:11Z</time>
      </trkpt>
      <trkpt lat="47.88282" lon="-1.12403">
        <ele>104.8</ele>
        <time>2020-12-20T09:02:12Z</time>
      </trkpt>
      <trkpt lat="47.88288" lon="-1.12396">
        <ele>104.8</ele>
        <time>2020-12-20T09:02:13Z</time>
      </trkpt>
      <trkpt lat="47.88294" lon="-1.1239">
        <ele>104.8</ele>
        <time>2020-12-20T09:02:14Z</time>
      </trkpt>
      <trkpt lat="47.883" lon="-1.12385">
        <ele>104.7</ele>
        <time>2020-12-20T09:02:15Z</time>
      </trkpt>
      <trkpt lat="47.88305" lon="-1.1238">
        <ele>104.6</ele>
        <time>2020-12-20T09:02:16Z</time>
      </trkpt>
      <trkpt lat="47.88311" lon="-1.12375">
        <ele>104.5</ele>
        <time>2020-12-20T09:02:17Z</time>
      </trkpt>
      <trkpt lat="47.88316" lon="-1.12369">
        <ele>104.4</ele>
        <time>2020-12-20T09:02:18Z</time>
      </trkpt>
      <trkpt lat="47.88321" lon="-1.12362">
        <ele>104.3</ele>
        <time>2020-12-20T09:02:19Z</time>
      </trkpt>
      <trkpt lat="47.88326" lon="-1.12355">
        <ele>104.2</ele>
        <time>2020-12-20T09:02:20Z</time>
      </trkpt>
      <trkpt lat="47.88332" lon="-1.12348">
        <ele>104</ele>
        <time>2020-12-20T09:02:21Z</time>
      </trkpt>
      <trkpt lat="47.88339" lon="-1.1234">
        <ele>103.9</ele>
        <time>2020-12-20T09:02:22Z</time>
      </trkpt>
      <trkpt lat="47.88345" lon="-1.12332">
        <ele>103.7</ele>
        <time>2020-12-20T09:02:23Z</time>
      </trkpt>
      <trkpt lat="47.88351" lon="-1.12324">
        <ele>103.6</ele>
        <time>2020-12-20T09:02:24Z</time>
      </trkpt>
      <trkpt lat="47.88356" lon="-1.12318">
        <ele>103.5</ele>
        <time>2020-12-20T09:02:25Z</time>
      </trkpt>
      <trkpt lat="47.88362" lon="-1.12313">
        <ele>103.4</ele>
        <time>2020-12-20T09:02:26Z</time>
      </trkpt>
      <trkpt lat="47.88367" lon="-1.12308">
        <ele>103.3</ele>
        <time>2020-12-20T09:02:27Z</time>
      </trkpt>
      <trkpt lat="47.88373" lon="-1.12301">
        <ele>103.1</ele>
        <time>2020-12-20T09:02:28Z</time>
      </trkpt>
      <trkpt lat="47.8838" lon="-1.12294">
        <ele>102.8</ele>
        <time>2020-12-20T09:02:29Z</time>
      </trkpt>
      <trkpt lat="47.88386" lon="-1.1229">
        <ele>102.6</ele>
        <time>2020-12-20T09:02:30Z</time>
      </trkpt>
      <trkpt lat="47.88391" lon="-1.12284">
        <ele>102.4</ele>
        <time>2020-12-20T09:02:31Z</time>
      </trkpt>
      <trkpt lat="47.88397" lon="-1.12276">
        <ele>102.1</ele>
        <time>2020-12-20T09:02:32Z</time>
      </trkpt>
      <trkpt lat="47.88404" lon="-1.12268">
        <ele>101.8</ele>
        <time>2020-12-20T09:02:33Z</time>
      </trkpt>
      <trkpt lat="47.88409" lon="-1.12263">
        <ele>101.5</ele>
        <time>2020-12-20T09:02:34Z</time>
      </trkpt>
      <trkpt lat="47.88412" lon="-1.12257">
        <ele>101.3</ele>
        <time>2020-12-20T09:02:35Z</time>
      </trkpt>
      <trkpt lat="47.88416" lon="-1.12252">
        <ele>101.1</ele>
        <time>2020-12-20T09:02:36Z</time>
      </trkpt>
      <trkpt lat="47.88419" lon="-1.12242">
        <ele>100.9</ele>
        <time>2020-12-20T09:02:37Z</time>
      </trkpt>
      <trkpt lat="47.88418" lon="-1.12233">
        <ele>100.9</ele>
        <time>2020-12-20T09:02:38Z</time>
      </trkpt>
      <trkpt lat="47.88417" lon="-1.12223">
        <ele>101</ele>
        <time>2020-12-20T09:02:39Z</time>
      </trkpt>
      <trkpt lat="47.88416" lon="-1.12212">
        <ele>101</ele>
        <time>2020-12-20T09:02:40Z</time>
      </trkpt>
      <trkpt lat="47.88414" lon="-1.12204">
        <ele>101.1</ele>
        <time>2020-12-20T09:02:41Z</time>
      </trkpt>
      <trkpt lat="47.88411" lon="-1.12196">
        <ele>101.2</ele>
        <time>2020-12-20T09:02:42Z</time>
      </trkpt>
      <trkpt lat="47.88408" lon="-1.1219">
        <ele>101.3</ele>
        <time>2020-12-20T09:02:43Z</time>
      </trkpt>
      <trkpt lat="47.88405" lon="-1.12181">
        <ele>101.4</ele>
        <time>2020-12-20T09:02:44Z</time>
      </trkpt>
      <trkpt lat="47.88403" lon="-1.12171">
        <ele>101.5</ele>
        <time>2020-12-20T09:02:45Z</time>
      </trkpt>
      <trkpt lat="47.88401" lon="-1.12161">
        <ele>101.5</ele>
        <time>2020-12-20T09:02:46Z</time>
      </trkpt>
      <trkpt lat="47.884" lon="-1.12152">
        <ele>101.5</ele>
        <time>2020-12-20T09:02:47Z</time>
      </trkpt>
      <trkpt lat="47.88398" lon="-1.12142">
        <ele>101.5</ele>
        <time>2020-12-20T09:02:48Z</time>
      </trkpt>
      <trkpt lat="47.88397" lon="-1.12135">
        <ele>101.5</ele>
        <time>2020-12-20T09:02:49Z</time>
      </trkpt>
      <trkpt lat="47.88396" lon="-1.12127">
        <ele>101.5</ele>
        <time>2020-12-20T09:02:50Z</time>
      </trkpt>
      <trkpt lat="47.88395" lon="-1.12118">
        <ele>101.5</ele>
        <time>2020-12-20T09:02:51Z</time>
      </trkpt>
      <trkpt lat="47.88393" lon="-1.12109">
        <ele>101.5</ele>
        <time>2020-12-20T09:02:52Z</time>
      </trkpt>
      <trkpt lat="47.8839" lon="-1.12099">
        <ele>101.4</ele>
        <time>2020-12-20T09:02:53Z</time>
      </trkpt>
      <trkpt lat="47.88388" lon="-1.1209">
        <ele>101.4</ele>
        <time>2020-12-20T09:02:54Z</time>
      </trkpt>
      <trkpt lat="47.88386" lon="-1.12081">
        <ele>101.3</ele>
        <time>2020-12-20T09:02:55Z</time>
      </trkpt>
      <trkpt lat="47.88385" lon="-1.12072">
        <ele>101.1</ele>
        <time>2020-12-20T09:02:56Z</time>
      </trkpt>
      <trkpt lat="47.88383" lon="-1.12063">
        <ele>100.9</ele>
        <time>2020-12-20T09:02:57Z</time>
      </trkpt>
      <trkpt lat="47.8838" lon="-1.12052">
        <ele>100.7</ele>
        <time>2020-12-20T09:02:58Z</time>
      </trkpt>
      <trkpt lat="47.88377" lon="-1.12043">
        <ele>100.5</ele>
        <time>2020-12-20T09:02:59Z</time>
      </trkpt>
      <trkpt lat="47.88374" lon="-1.12032">
        <ele>100.3</ele>
        <time>2020-12-20T09:03:00Z</time>
      </trkpt>
      <trkpt lat="47.88372" lon="-1.12022">
        <ele>100.1</ele>
        <time>2020-12-20T09:03:01Z</time>
      </trkpt>
      <trkpt lat="47.88369" lon="-1.12012">
        <ele>99.9</ele>
        <time>2020-12-20T09:03:02Z</time>
      </trkpt>
      <trkpt lat="47.88368" lon="-1.12002">
        <ele>99.6</ele>
        <time>2020-12-20T09:03:03Z</time>
      </trkpt>
      <trkpt lat="47.88366" lon="-1.11991">
        <ele>99.8</ele>
        <time>2020-12-20T09:03:04Z</time>
      </trkpt>
      <trkpt lat="47.88365" lon="-1.11981">
        <ele>99.9</ele>
        <time>2020-12-20T09:03:05Z</time>
      </trkpt>
      <trkpt lat="47.88362" lon="-1.11972">
        <ele>100.1</ele>
        <time>2020-12-20T09:03:06Z</time>
      </trkpt>
      <trkpt lat="47.8836" lon="-1.11965">
        <ele>100.2</ele>
        <time>2020-12-20T09:03:07Z</time>
      </trkpt>
      <trkpt lat="47.88357" lon="-1.11955">
        <ele>100.4</ele>
        <time>2020-12-20T09:03:08Z</time>
      </trkpt>
      <trkpt lat="47.88354" lon="-1.11945">
        <ele>100.6</ele>
        <time>2020-12-20T09:03:09Z</time>
      </trkpt>
      <trkpt lat="47.88353" lon="-1.11937">
        <ele>100.7</ele>
        <time>2020-12-20T09:03:10Z</time>
      </trkpt>
      <trkpt lat="47.88352" lon="-1.11929">
        <ele>100.8</ele>
        <time>2020-12-20T09:03:11Z</time>
      </trkpt>
      <trkpt lat="47.88348" lon="-1.11922">
        <ele>100.9</ele>
        <time>2020-12-20T09:03:12Z</time>
      </trkpt>
      <trkpt lat="47.88343" lon="-1.11913">
        <ele>100.9</ele>
        <time>2020-12-20T09:03:13Z</time>
      </trkpt>
      <trkpt lat="47.8834" lon="-1.11902">
        <ele>100.7</ele>
        <time>2020-12-20T09:03:14Z</time>
      </trkpt>
      <trkpt lat="47.88338" lon="-1.11892">
        <ele>100.5</ele>
        <time>2020-12-20T09:03:15Z</time>
      </trkpt>
      <trkpt lat="47.88337" lon="-1.11879">
        <ele>100.2</ele>
        <time>2020-12-20T09:03:16Z</time>
      </trkpt>
      <trkpt lat="47.88335" lon="-1.11868">
        <ele>99.9</ele>
        <time>2020-12-20T09:03:17Z</time>
      </trkpt>
      <trkpt lat="47.88332" lon="-1.11858">
        <ele>99.6</ele>
        <time>2020-12-20T09:03:18Z</time>
      </trkpt>
      <trkpt lat="47.8833" lon="-1.11849">
        <ele>99.4</ele>
        <time>2020-12-20T09:03:19Z</time>
      </trkpt>
      <trkpt lat="47.88329" lon="-1.11842">
        <ele>99.3</ele>
        <time>2020-12-20T09:03:20Z</time>
      </trkpt>
      <trkpt lat="47.88327" lon="-1.11833">
        <ele>99.1</ele>
        <time>2020-12-20T09:03:21Z</time>
      </trkpt>
      <trkpt lat="47.88326" lon="-1.11823">
        <ele>98.8</ele>
        <time>2020-12-20T09:03:22Z</time>
      </trkpt>
      <trkpt lat="47.88324" lon="-1.11815">
        <ele>98.6</ele>
        <time>2020-12-20T09:03:23Z</time>
      </trkpt>
      <trkpt lat="47.88322" lon="-1.11806">
        <ele>98.4</ele>
        <time>2020-12-20T09:03:24Z</time>
      </trkpt>
      <trkpt lat="47.8832" lon="-1.11798">
        <ele>98.2</ele>
        <time>2020-12-20T09:03:25Z</time>
      </trkpt>
      <trkpt lat="47.88318" lon="-1.1179">
        <ele>98</ele>
        <time>2020-12-20T09:03:26Z</time>
      </trkpt>
      <trkpt lat="47.88316" lon="-1.11781">
        <ele>97.8</ele>
        <time>2020-12-20T09:03:27Z</time>
      </trkpt>
      <trkpt lat="47.88315" lon="-1.1177">
        <ele>97.5</ele>
        <time>2020-12-20T09:03:28Z</time>
      </trkpt>
      <trkpt lat="47.88313" lon="-1.1176">
        <ele>97.3</ele>
        <time>2020-12-20T09:03:29Z</time>
      </trkpt>
      <trkpt lat="47.88311" lon="-1.1175">
        <ele>97</ele>
        <time>2020-12-20T09:03:30Z</time>
      </trkpt>
      <trkpt lat="47.88309" lon="-1.11739">
        <ele>96.3</ele>
        <time>2020-12-20T09:03:31Z</time>
      </trkpt>
      <trkpt lat="47.88307" lon="-1.11729">
        <ele>95.7</ele>
        <time>2020-12-20T09:03:32Z</time>
      </trkpt>
      <trkpt lat="47.88306" lon="-1.11719">
        <ele>95.1</ele>
        <time>2020-12-20T09:03:33Z</time>
      </trkpt>
      <trkpt lat="47.88305" lon="-1.11709">
        <ele>94.5</ele>
        <time>2020-12-20T09:03:34Z</time>
      </trkpt>
      <trkpt lat="47.88302" lon="-1.11699">
        <ele>94</ele>
        <time>2020-12-20T09:03:35Z</time>
      </trkpt>
      <trkpt lat="47.88299" lon="-1.11689">
        <ele>93.5</ele>
        <time>2020-12-20T09:03:36Z</time>
      </trkpt>
      <trkpt lat="47.88298" lon="-1.1168">
        <ele>93</ele>
        <time>2020-12-20T09:03:37Z</time>
      </trkpt>
      <trkpt lat="47.88296" lon="-1.11671">
        <ele>92.6</ele>
        <time>2020-12-20T09:03:38Z</time>
      </trkpt>
      <trkpt lat="47.88295" lon="-1.11662">
        <ele>92.3</ele>
        <time>2020-12-20T09:03:39Z</time>
      </trkpt>
      <trkpt lat="47.88294" lon="-1.11653">
        <ele>92.1</ele>
        <time>2020-12-20T09:03:40Z</time>
      </trkpt>
      <trkpt lat="47.88292" lon="-1.11644">
        <ele>91.9</ele>
        <time>2020-12-20T09:03:41Z</time>
      </trkpt>
      <trkpt lat="47.88291" lon="-1.11635">
        <ele>91.8</ele>
        <time>2020-12-20T09:03:42Z</time>
      </trkpt>
      <trkpt lat="47.88289" lon="-1.11626">
        <ele>91.6</ele>
        <time>2020-12-20T09:03:43Z</time>
      </trkpt>
      <trkpt lat="47.88287" lon="-1.11617">
        <ele>91.5</ele>
        <time>2020-12-20T09:03:44Z</time>
      </trkpt>
      <trkpt lat="47.88285" lon="-1.11608">
        <ele>91.3</ele>
        <time>2020-12-20T09:03:45Z</time>
      </trkpt>
      <trkpt lat="47.88284" lon="-1.116">
        <ele>91.2</ele>
        <time>2020-12-20T09:03:46Z</time>
      </trkpt>
      <trkpt lat="47.88282" lon="-1.11591">
        <ele>91</ele>
        <time>2020-12-20T09:03:47Z</time>
      </trkpt>
      <trkpt lat="47.8828" lon="-1.11582">
        <ele>90.9</ele>
        <time>2020-12-20T09:03:48Z</time>
      </trkpt>
      <trkpt lat="47.88278" lon="-1.11574">
        <ele>91.2</ele>
        <time>2020-12-20T09:03:49Z</time>
      </trkpt>
      <trkpt lat="47.88276" lon="-1.11566">
        <ele>91.4</ele>
        <time>2020-12-20T09:03:50Z</time>
      </trkpt>
      <trkpt lat="47.88275" lon="-1.11557">
        <ele>91.6</ele>
        <time>2020-12-20T09:03:51Z</time>
      </trkpt>
      <trkpt lat="47.88273" lon="-1.11549">
        <ele>91.9</ele>
        <time>2020-12-20T09:03:52Z</time>
      </trkpt>
      <trkpt lat="47.88271" lon="-1.11541">
        <ele>92.1</ele>
        <time>2020-12-20T09:03:53Z</time>
      </trkpt>
      <trkpt lat="47.88269" lon="-1.11532">
        <ele>92.4</ele>
        <time>2020-12-20T09:03:54Z</time>
      </trkpt>
      <trkpt lat="47.88268" lon="-1.11524">
        <ele>92.6</ele>
        <time>2020-12-20T09:03:55Z</time>
      </trkpt>
      <trkpt lat="47.88266" lon="-1.11516">
        <ele>92.9</ele>
        <time>2020-12-20T09:03:56Z</time>
      </trkpt>
      <trkpt lat="47.88265" lon="-1.11507">
        <ele>93.1</ele>
        <time>2020-12-20T09:03:57Z</time>
      </trkpt>
      <trkpt lat="47.88263" lon="-1.11499">
        <ele>93.4</ele>
        <time>2020-12-20T09:03:58Z</time>
      </trkpt>
      <trkpt lat="47.88262" lon="-1.11491">
        <ele>93.5</ele>
        <time>2020-12-20T09:03:59Z</time>
      </trkpt>
      <trkpt lat="47.8826" lon="-1.11483">
        <ele>93.7</ele>
        <time>2020-12-20T09:04:00Z</time>
      </trkpt>
      <trkpt lat="47.88259" lon="-1.11474">
        <ele>93.8</ele>
        <time>2020-12-20T09:04:01Z</time>
      </trkpt>
      <trkpt lat="47.88257" lon="-1.11466">
        <ele>94</ele>
        <time>2020-12-20T09:04:02Z</time>
      </trkpt>
      <trkpt lat="47.88255" lon="-1.11458">
        <ele>94.2</ele>
        <time>2020-12-20T09:04:03Z</time>
      </trkpt>
      <trkpt lat="47.88254" lon="-1.11451">
        <ele>94.4</ele>
        <time>2020-12-20T09:04:04Z</time>
      </trkpt>
      <trkpt lat="47.88252" lon="-1.11443">
        <ele>94.6</ele>
        <time>2020-12-20T09:04:05Z</time>
      </trkpt>
      <trkpt lat="47.8825" lon="-1.11435">
        <ele>94.8</ele>
        <time>2020-12-20T09:04:06Z</time>
      </trkpt>
      <trkpt lat="47.88248" lon="-1.11427">
        <ele>94.9</ele>
        <time>2020-12-20T09:04:07Z</time>
      </trkpt>
      <trkpt lat="47.88247" lon="-1.1142">
        <ele>95</ele>
        <time>2020-12-20T09:04:08Z</time>
      </trkpt>
      <trkpt lat="47.88245" lon="-1.11412">
        <ele>95.1</ele>
        <time>2020-12-20T09:04:09Z</time>
      </trkpt>
      <trkpt lat="47.88244" lon="-1.11404">
        <ele>95.1</ele>
        <time>2020-12-20T09:04:10Z</time>
      </trkpt>
      <trkpt lat="47.88242" lon="-1.11396">
        <ele>95.1</ele>
        <time>2020-12-20T09:04:11Z</time>
      </trkpt>
      <trkpt lat="47.8824" lon="-1.11388">
        <ele>95.2</ele>
        <time>2020-12-20T09:04:12Z</time>
      </trkpt>
      <trkpt lat="47.88238" lon="-1.1138">
        <ele>95.2</ele>
        <time>2020-12-20T09:04:13Z</time>
      </trkpt>
      <trkpt lat="47.88237" lon="-1.11372">
        <ele>95.2</ele>
        <time>2020-12-20T09:04:14Z</time>
      </trkpt>
      <trkpt lat="47.88235" lon="-1.11364">
        <ele>95.3</ele>
        <time>2020-12-20T09:04:15Z</time>
      </trkpt>
      <trkpt lat="47.88233" lon="-1.11357">
        <ele>95.4</ele>
        <time>2020-12-20T09:04:16Z</time>
      </trkpt>
      <trkpt lat="47.88231" lon="-1.11349">
        <ele>95.4</ele>
        <time>2020-12-20T09:04:17Z</time>
      </trkpt>
      <trkpt lat="47.8823" lon="-1.11341">
        <ele>95.5</ele>
        <time>2020-12-20T09:04:18Z</time>
      </trkpt>
      <trkpt lat="47.88228" lon="-1.11333">
        <ele>95.5</ele>
        <time>2020-12-20T09:04:19Z</time>
      </trkpt>
      <trkpt lat="47.88226" lon="-1.11325">
        <ele>95.5</ele>
        <time>2020-12-20T09:04:20Z</time>
      </trkpt>
      <trkpt lat="47.88224" lon="-1.11317">
        <ele>95.6</ele>
        <time>2020-12-20T09:04:21Z</time>
      </trkpt>
      <trkpt lat="47.88223" lon="-1.11309">
        <ele>95.6</ele>
        <time>2020-12-20T09:04:22Z</time>
      </trkpt>
      <trkpt lat="47.88221" lon="-1.11299">
        <ele>95.6</ele>
        <time>2020-12-20T09:04:23Z</time>
      </trkpt>
      <trkpt lat="47.88219" lon="-1.11292">
        <ele>95.6</ele>
        <time>2020-12-20T09:04:24Z</time>
      </trkpt>
      <trkpt lat="47.88217" lon="-1.11284">
        <ele>95.6</ele>
        <time>2020-12-20T09:04:25Z</time>
      </trkpt>
      <trkpt lat="47.88215" lon="-1.11274">
        <ele>95.5</ele>
        <time>2020-12-20T09:04:26Z</time>
      </trkpt>
      <trkpt lat="47.88213" lon="-1.11266">
        <ele>95.5</ele>
        <time>2020-12-20T09:04:27Z</time>
      </trkpt>
      <trkpt lat="47.88212" lon="-1.11259">
        <ele>95.5</ele>
        <time>2020-12-20T09:04:28Z</time>
      </trkpt>
      <trkpt lat="47.88211" lon="-1.11251">
        <ele>95.5</ele>
        <time>2020-12-20T09:04:29Z</time>
      </trkpt>
      <trkpt lat="47.8821" lon="-1.11243">
        <ele>95.4</ele>
        <time>2020-12-20T09:04:30Z</time>
      </trkpt>
      <trkpt lat="47.8821" lon="-1.11235">
        <ele>95.4</ele>
        <time>2020-12-20T09:04:31Z</time>
      </trkpt>
      <trkpt lat="47.88213" lon="-1.11227">
        <ele>95.3</ele>
        <time>2020-12-20T09:04:32Z</time>
      </trkpt>
      <trkpt lat="47.88217" lon="-1.11221">
        <ele>95.2</ele>
        <time>2020-12-20T09:04:33Z</time>
      </trkpt>
      <trkpt lat="47.88221" lon="-1.11215">
        <ele>95.1</ele>
        <time>2020-12-20T09:04:34Z</time>
      </trkpt>
      <trkpt lat="47.88226" lon="-1.11211">
        <ele>95</ele>
        <time>2020-12-20T09:04:35Z</time>
      </trkpt>
      <trkpt lat="47.88232" lon="-1.11205">
        <ele>94.8</ele>
        <time>2020-12-20T09:04:36Z</time>
      </trkpt>
      <trkpt lat="47.88238" lon="-1.112">
        <ele>94.6</ele>
        <time>2020-12-20T09:04:37Z</time>
      </trkpt>
      <trkpt lat="47.88242" lon="-1.11196">
        <ele>94.5</ele>
        <time>2020-12-20T09:04:38Z</time>
      </trkpt>
      <trkpt lat="47.88249" lon="-1.11191">
        <ele>94.3</ele>
        <time>2020-12-20T09:04:39Z</time>
      </trkpt>
      <trkpt lat="47.88253" lon="-1.11187">
        <ele>94.1</ele>
        <time>2020-12-20T09:04:40Z</time>
      </trkpt>
      <trkpt lat="47.88258" lon="-1.11182">
        <ele>93.9</ele>
        <time>2020-12-20T09:04:41Z</time>
      </trkpt>
      <trkpt lat="47.88264" lon="-1.11177">
        <ele>93.6</ele>
        <time>2020-12-20T09:04:42Z</time>
      </trkpt>
      <trkpt lat="47.88269" lon="-1.11171">
        <ele>93.4</ele>
        <time>2020-12-20T09:04:43Z</time>
      </trkpt>
      <trkpt lat="47.88275" lon="-1.11165">
        <ele>93.1</ele>
        <time>2020-12-20T09:04:44Z</time>
      </trkpt>
      <trkpt lat="47.88281" lon="-1.11159">
        <ele>93</ele>
        <time>2020-12-20T09:04:45Z</time>
      </trkpt>
      <trkpt lat="47.88286" lon="-1.11153">
        <ele>92.9</ele>
        <time>2020-12-20T09:04:46Z</time>
      </trkpt>
      <trkpt lat="47.88292" lon="-1.11147">
        <ele>92.7</ele>
        <time>2020-12-20T09:04:47Z</time>
      </trkpt>
      <trkpt lat="47.88297" lon="-1.1114">
        <ele>92.6</ele>
        <time>2020-12-20T09:04:48Z</time>
      </trkpt>
      <trkpt lat="47.88303" lon="-1.11134">
        <ele>92.5</ele>
        <time>2020-12-20T09:04:49Z</time>
      </trkpt>
      <trkpt lat="47.88309" lon="-1.11127">
        <ele>92.4</ele>
        <time>2020-12-20T09:04:50Z</time>
      </trkpt>
      <trkpt lat="47.88314" lon="-1.11121">
        <ele>92.2</ele>
        <time>2020-12-20T09:04:51Z</time>
      </trkpt>
      <trkpt lat="47.8832" lon="-1.11114">
        <ele>92.1</ele>
        <time>2020-12-20T09:04:52Z</time>
      </trkpt>
      <trkpt lat="47.88326" lon="-1.11105">
        <ele>92</ele>
        <time>2020-12-20T09:04:53Z</time>
      </trkpt>
      <trkpt lat="47.88332" lon="-1.11098">
        <ele>91.9</ele>
        <time>2020-12-20T09:04:54Z</time>
      </trkpt>
      <trkpt lat="47.88337" lon="-1.11091">
        <ele>91.8</ele>
        <time>2020-12-20T09:04:55Z</time>
      </trkpt>
      <trkpt lat="47.88342" lon="-1.11084">
        <ele>91.8</ele>
        <time>2020-12-20T09:04:56Z</time>
      </trkpt>
      <trkpt lat="47.88347" lon="-1.11076">
        <ele>91.7</ele>
        <time>2020-12-20T09:04:57Z</time>
      </trkpt>
      <trkpt lat="47.88352" lon="-1.11069">
        <ele>91.6</ele>
        <time>2020-12-20T09:04:58Z</time>
      </trkpt>
      <trkpt lat="47.88357" lon="-1.11061">
        <ele>91.4</ele>
        <time>2020-12-20T09:04:59Z</time>
      </trkpt>
      <trkpt lat="47.88361" lon="-1.11054">
        <ele>91.3</ele>
        <time>2020-12-20T09:05:00Z</time>
      </trkpt>
      <trkpt lat="47.88367" lon="-1.11044">
        <ele>91.2</ele>
        <time>2020-12-20T09:05:01Z</time>
      </trkpt>
      <trkpt lat="47.88371" lon="-1.11036">
        <ele>91.1</ele>
        <time>2020-12-20T09:05:02Z</time>
      </trkpt>
      <trkpt lat="47.88374" lon="-1.11029">
        <ele>91</ele>
        <time>2020-12-20T09:05:03Z</time>
      </trkpt>
      <trkpt lat="47.88378" lon="-1.1102">
        <ele>90.9</ele>
        <time>2020-12-20T09:05:04Z</time>
      </trkpt>
      <trkpt lat="47.88382" lon="-1.1101">
        <ele>90.8</ele>
        <time>2020-12-20T09:05:05Z</time>
      </trkpt>
      <trkpt lat="47.88386" lon="-1.11001">
        <ele>90.7</ele>
        <time>2020-12-20T09:05:06Z</time>
      </trkpt>
      <trkpt lat="47.88391" lon="-1.10991">
        <ele>90.8</ele>
        <time>2020-12-20T09:05:07Z</time>
      </trkpt>
      <trkpt lat="47.88394" lon="-1.10982">
        <ele>90.8</ele>
        <time>2020-12-20T09:05:08Z</time>
      </trkpt>
      <trkpt lat="47.88398" lon="-1.10974">
        <ele>90.8</ele>
        <time>2020-12-20T09:05:09Z</time>
      </trkpt>
      <trkpt lat="47.88403" lon="-1.10966">
        <ele>90.8</ele>
        <time>2020-12-20T09:05:10Z</time>
      </trkpt>
      <trkpt lat="47.88408" lon="-1.10959">
        <ele>90.8</ele>
        <time>2020-12-20T09:05:11Z</time>
      </trkpt>
      <trkpt lat="47.88414" lon="-1.10952">
        <ele>90.7</ele>
        <time>2020-12-20T09:05:12Z</time>
      </trkpt>
      <trkpt lat="47.88419" lon="-1.10945">
        <ele>90.6</ele>
        <time>2020-12-20T09:05:13Z</time>
      </trkpt>
      <trkpt lat="47.88424" lon="-1.1094">
        <ele>90.5</ele>
        <time>2020-12-20T09:05:14Z</time>
      </trkpt>
      <trkpt lat="47.8843" lon="-1.10932">
        <ele>90.4</ele>
        <time>2020-12-20T09:05:15Z</time>
      </trkpt>
      <trkpt lat="47.88436" lon="-1.10926">
        <ele>90.3</ele>
        <time>2020-12-20T09:05:16Z</time>
      </trkpt>
      <trkpt lat="47.88441" lon="-1.10921">
        <ele>90.1</ele>
        <time>2020-12-20T09:05:17Z</time>
      </trkpt>
      <trkpt lat="47.88447" lon="-1.10913">
        <ele>89.9</ele>
        <time>2020-12-20T09:05:18Z</time>
      </trkpt>
      <trkpt lat="47.88453" lon="-1.10906">
        <ele>89.7</ele>
        <time>2020-12-20T09:05:19Z</time>
      </trkpt>
      <trkpt lat="47.88458" lon="-1.109">
        <ele>89.5</ele>
        <time>2020-12-20T09:05:20Z</time>
      </trkpt>
      <trkpt lat="47.88463" lon="-1.10895">
        <ele>89.3</ele>
        <time>2020-12-20T09:05:21Z</time>
      </trkpt>
      <trkpt lat="47.8847" lon="-1.10889">
        <ele>89.1</ele>
        <time>2020-12-20T09:05:22Z</time>
      </trkpt>
      <trkpt lat="47.88476" lon="-1.10883">
        <ele>88.9</ele>
        <time>2020-12-20T09:05:23Z</time>
      </trkpt>
      <trkpt lat="47.88482" lon="-1.10877">
        <ele>88.6</ele>
        <time>2020-12-20T09:05:24Z</time>
      </trkpt>
      <trkpt lat="47.88488" lon="-1.10872">
        <ele>88.4</ele>
        <time>2020-12-20T09:05:25Z</time>
      </trkpt>
      <trkpt lat="47.88494" lon="-1.10868">
        <ele>88.2</ele>
        <time>2020-12-20T09:05:26Z</time>
      </trkpt>
      <trkpt lat="47.88501" lon="-1.10864">
        <ele>88</ele>
        <time>2020-12-20T09:05:27Z</time>
      </trkpt>
      <trkpt lat="47.88508" lon="-1.1086">
        <ele>88</ele>
        <time>2020-12-20T09:05:28Z</time>
      </trkpt>
      <trkpt lat="47.88513" lon="-1.10858">
        <ele>88</ele>
        <time>2020-12-20T09:05:29Z</time>
      </trkpt>
      <trkpt lat="47.88521" lon="-1.10854">
        <ele>88</ele>
        <time>2020-12-20T09:05:30Z</time>
      </trkpt>
      <trkpt lat="47.88527" lon="-1.10851">
        <ele>88</ele>
        <time>2020-12-20T09:05:31Z</time>
      </trkpt>
      <trkpt lat="47.88533" lon="-1.10847">
        <ele>88.1</ele>
        <time>2020-12-20T09:05:32Z</time>
      </trkpt>
      <trkpt lat="47.8854" lon="-1.10843">
        <ele>88.3</ele>
        <time>2020-12-20T09:05:33Z</time>
      </trkpt>
      <trkpt lat="47.88547" lon="-1.10839">
        <ele>88.4</ele>
        <time>2020-12-20T09:05:34Z</time>
      </trkpt>
      <trkpt lat="47.88553" lon="-1.10836">
        <ele>88.6</ele>
        <time>2020-12-20T09:05:35Z</time>
      </trkpt>
      <trkpt lat="47.8856" lon="-1.10832">
        <ele>88.7</ele>
        <time>2020-12-20T09:05:36Z</time>
      </trkpt>
      <trkpt lat="47.88568" lon="-1.10827">
        <ele>88.9</ele>
        <time>2020-12-20T09:05:37Z</time>
      </trkpt>
      <trkpt lat="47.88575" lon="-1.10824">
        <ele>89</ele>
        <time>2020-12-20T09:05:38Z</time>
      </trkpt>
      <trkpt lat="47.88581" lon="-1.1082">
        <ele>89.1</ele>
        <time>2020-12-20T09:05:39Z</time>
      </trkpt>
      <trkpt lat="47.88588" lon="-1.10816">
        <ele>89.2</ele>
        <time>2020-12-20T09:05:40Z</time>
      </trkpt>
      <trkpt lat="47.88594" lon="-1.10813">
        <ele>89.2</ele>
        <time>2020-12-20T09:05:41Z</time>
      </trkpt>
      <trkpt lat="47.886" lon="-1.1081">
        <ele>89.3</ele>
        <time>2020-12-20T09:05:42Z</time>
      </trkpt>
      <trkpt lat="47.88606" lon="-1.10807">
        <ele>89.3</ele>
        <time>2020-12-20T09:05:43Z</time>
      </trkpt>
      <trkpt lat="47.88614" lon="-1.10803">
        <ele>89.4</ele>
        <time>2020-12-20T09:05:44Z</time>
      </trkpt>
      <trkpt lat="47.88621" lon="-1.10801">
        <ele>89.4</ele>
        <time>2020-12-20T09:05:45Z</time>
      </trkpt>
      <trkpt lat="47.88628" lon="-1.10799">
        <ele>89.4</ele>
        <time>2020-12-20T09:05:46Z</time>
      </trkpt>
      <trkpt lat="47.88634" lon="-1.10798">
        <ele>89.4</ele>
        <time>2020-12-20T09:05:47Z</time>
      </trkpt>
      <trkpt lat="47.88642" lon="-1.10796">
        <ele>89.4</ele>
        <time>2020-12-20T09:05:48Z</time>
      </trkpt>
      <trkpt lat="47.88649" lon="-1.10796">
        <ele>89.4</ele>
        <time>2020-12-20T09:05:49Z</time>
      </trkpt>
      <trkpt lat="47.88655" lon="-1.10796">
        <ele>89.4</ele>
        <time>2020-12-20T09:05:50Z</time>
      </trkpt>
      <trkpt lat="47.88661" lon="-1.10797">
        <ele>89.4</ele>
        <time>2020-12-20T09:05:51Z</time>
      </trkpt>
      <trkpt lat="47.8867" lon="-1.10798">
        <ele>89.4</ele>
        <time>2020-12-20T09:05:52Z</time>
      </trkpt>
      <trkpt lat="47.88676" lon="-1.108">
        <ele>89.3</ele>
        <time>2020-12-20T09:05:53Z</time>
      </trkpt>
      <trkpt lat="47.88683" lon="-1.10802">
        <ele>89.2</ele>
        <time>2020-12-20T09:05:54Z</time>
      </trkpt>
      <trkpt lat="47.88688" lon="-1.10805">
        <ele>89.1</ele>
        <time>2020-12-20T09:05:55Z</time>
      </trkpt>
      <trkpt lat="47.88696" lon="-1.10808">
        <ele>89</ele>
        <time>2020-12-20T09:05:56Z</time>
      </trkpt>
      <trkpt lat="47.88702" lon="-1.10812">
        <ele>88.8</ele>
        <time>2020-12-20T09:05:57Z</time>
      </trkpt>
      <trkpt lat="47.8871" lon="-1.10817">
        <ele>88.7</ele>
        <time>2020-12-20T09:05:58Z</time>
      </trkpt>
      <trkpt lat="47.88715" lon="-1.10821">
        <ele>88.6</ele>
        <time>2020-12-20T09:05:59Z</time>
      </trkpt>
      <trkpt lat="47.88722" lon="-1.10825">
        <ele>88.4</ele>
        <time>2020-12-20T09:06:00Z</time>
      </trkpt>
      <trkpt lat="47.8873" lon="-1.10829">
        <ele>88.3</ele>
        <time>2020-12-20T09:06:01Z</time>
      </trkpt>
      <trkpt lat="47.88737" lon="-1.10832">
        <ele>88.2</ele>
        <time>2020-12-20T09:06:02Z</time>
      </trkpt>
      <trkpt lat="47.88742" lon="-1.10834">
        <ele>88.1</ele>
        <time>2020-12-20T09:06:03Z</time>
      </trkpt>
      <trkpt lat="47.88749" lon="-1.10837">
        <ele>87.9</ele>
        <time>2020-12-20T09:06:04Z</time>
      </trkpt>
      <trkpt lat="47.88757" lon="-1.10839">
        <ele>87.7</ele>
        <time>2020-12-20T09:06:05Z</time>
      </trkpt>
      <trkpt lat="47.88764" lon="-1.1084">
        <ele>87.5</ele>
        <time>2020-12-20T09:06:06Z</time>
      </trkpt>
      <trkpt lat="47.8877" lon="-1.10841">
        <ele>87.3</ele>
        <time>2020-12-20T09:06:07Z</time>
      </trkpt>
      <trkpt lat="47.88777" lon="-1.10841">
        <ele>87.1</ele>
        <time>2020-12-20T09:06:08Z</time>
      </trkpt>
      <trkpt lat="47.88784" lon="-1.10841">
        <ele>87</ele>
        <time>2020-12-20T09:06:09Z</time>
      </trkpt>
      <trkpt lat="47.88791" lon="-1.1084">
        <ele>86.8</ele>
        <time>2020-12-20T09:06:10Z</time>
      </trkpt>
      <trkpt lat="47.88798" lon="-1.10839">
        <ele>86.7</ele>
        <time>2020-12-20T09:06:11Z</time>
      </trkpt>
      <trkpt lat="47.88803" lon="-1.10838">
        <ele>86.6</ele>
        <time>2020-12-20T09:06:12Z</time>
      </trkpt>
      <trkpt lat="47.88811" lon="-1.10837">
        <ele>86.4</ele>
        <time>2020-12-20T09:06:13Z</time>
      </trkpt>
      <trkpt lat="47.88819" lon="-1.10836">
        <ele>86.3</ele>
        <time>2020-12-20T09:06:14Z</time>
      </trkpt>
      <trkpt lat="47.88827" lon="-1.10835">
        <ele>86.1</ele>
        <time>2020-12-20T09:06:15Z</time>
      </trkpt>
      <trkpt lat="47.88835" lon="-1.10834">
        <ele>85.9</ele>
        <time>2020-12-20T09:06:16Z</time>
      </trkpt>
      <trkpt lat="47.88841" lon="-1.10833">
        <ele>85.5</ele>
        <time>2020-12-20T09:06:17Z</time>
      </trkpt>
      <trkpt lat="47.88851" lon="-1.10831">
        <ele>84.9</ele>
        <time>2020-12-20T09:06:18Z</time>
      </trkpt>
      <trkpt lat="47.88858" lon="-1.10829">
        <ele>84.5</ele>
        <time>2020-12-20T09:06:19Z</time>
      </trkpt>
      <trkpt lat="47.88866" lon="-1.10828">
        <ele>84</ele>
        <time>2020-12-20T09:06:20Z</time>
      </trkpt>
      <trkpt lat="47.88876" lon="-1.10826">
        <ele>83.3</ele>
        <time>2020-12-20T09:06:21Z</time>
      </trkpt>
      <trkpt lat="47.88885" lon="-1.10825">
        <ele>82.7</ele>
        <time>2020-12-20T09:06:22Z</time>
      </trkpt>
      <trkpt lat="47.88892" lon="-1.10825">
        <ele>82.3</ele>
        <time>2020-12-20T09:06:23Z</time>
      </trkpt>
      <trkpt lat="47.88902" lon="-1.10826">
        <ele>81.7</ele>
        <time>2020-12-20T09:06:24Z</time>
      </trkpt>
      <trkpt lat="47.8891" lon="-1.10828">
        <ele>81.2</ele>
        <time>2020-12-20T09:06:25Z</time>
      </trkpt>
      <trkpt lat="47.88918" lon="-1.10831">
        <ele>80.8</ele>
        <time>2020-12-20T09:06:26Z</time>
      </trkpt>
      <trkpt lat="47.88927" lon="-1.10836">
        <ele>80.2</ele>
        <time>2020-12-20T09:06:27Z</time>
      </trkpt>
      <trkpt lat="47.88935" lon="-1.10841">
        <ele>79.6</ele>
        <time>2020-12-20T09:06:28Z</time>
      </trkpt>
      <trkpt lat="47.88943" lon="-1.10846">
        <ele>79</ele>
        <time>2020-12-20T09:06:29Z</time>
      </trkpt>
      <trkpt lat="47.88952" lon="-1.10852">
        <ele>78.2</ele>
        <time>2020-12-20T09:06:30Z</time>
      </trkpt>
      <trkpt lat="47.88961" lon="-1.10859">
        <ele>77.5</ele>
        <time>2020-12-20T09:06:31Z</time>
      </trkpt>
      <trkpt lat="47.88969" lon="-1.10865">
        <ele>76.9</ele>
        <time>2020-12-20T09:06:32Z</time>
      </trkpt>
      <trkpt lat="47.88976" lon="-1.1087">
        <ele>76.3</ele>
        <time>2020-12-20T09:06:33Z</time>
      </trkpt>
      <trkpt lat="47.88984" lon="-1.10875">
        <ele>75.7</ele>
        <time>2020-12-20T09:06:34Z</time>
      </trkpt>
      <trkpt lat="47.88993" lon="-1.10882">
        <ele>74.9</ele>
        <time>2020-12-20T09:06:35Z</time>
      </trkpt>
      <trkpt lat="47.89001" lon="-1.10887">
        <ele>74.3</ele>
        <time>2020-12-20T09:06:36Z</time>
      </trkpt>
      <trkpt lat="47.89007" lon="-1.10891">
        <ele>74.2</ele>
        <time>2020-12-20T09:06:37Z</time>
      </trkpt>
      <trkpt lat="47.89015" lon="-1.10897">
        <ele>74</ele>
        <time>2020-12-20T09:06:38Z</time>
      </trkpt>
      <trkpt lat="47.89023" lon="-1.10902">
        <ele>73.9</ele>
        <time>2020-12-20T09:06:39Z</time>
      </trkpt>
      <trkpt lat="47.89031" lon="-1.10908">
        <ele>73.7</ele>
        <time>2020-12-20T09:06:40Z</time>
      </trkpt>
      <trkpt lat="47.89039" lon="-1.10913">
        <ele>73.6</ele>
        <time>2020-12-20T09:06:41Z</time>
      </trkpt>
      <trkpt lat="47.89047" lon="-1.10918">
        <ele>73.5</ele>
        <time>2020-12-20T09:06:42Z</time>
      </trkpt>
      <trkpt lat="47.89055" lon="-1.10922">
        <ele>73.4</ele>
        <time>2020-12-20T09:06:43Z</time>
      </trkpt>
      <trkpt lat="47.89063" lon="-1.10925">
        <ele>73.3</ele>
        <time>2020-12-20T09:06:44Z</time>
      </trkpt>
      <trkpt lat="47.89072" lon="-1.10926">
        <ele>73.2</ele>
        <time>2020-12-20T09:06:45Z</time>
      </trkpt>
      <trkpt lat="47.8908" lon="-1.10926">
        <ele>73.2</ele>
        <time>2020-12-20T09:06:46Z</time>
      </trkpt>
      <trkpt lat="47.89089" lon="-1.10925">
        <ele>73.2</ele>
        <time>2020-12-20T09:06:47Z</time>
      </trkpt>
      <trkpt lat="47.89097" lon="-1.10923">
        <ele>73.2</ele>
        <time>2020-12-20T09:06:48Z</time>
      </trkpt>
      <trkpt lat="47.89106" lon="-1.10921">
        <ele>73.3</ele>
        <time>2020-12-20T09:06:49Z</time>
      </trkpt>
      <trkpt lat="47.89114" lon="-1.10917">
        <ele>73.4</ele>
        <time>2020-12-20T09:06:50Z</time>
      </trkpt>
      <trkpt lat="47.89122" lon="-1.10915">
        <ele>73.5</ele>
        <time>2020-12-20T09:06:51Z</time>
      </trkpt>
      <trkpt lat="47.8913" lon="-1.10912">
        <ele>73.5</ele>
        <time>2020-12-20T09:06:52Z</time>
      </trkpt>
      <trkpt lat="47.89138" lon="-1.10909">
        <ele>73.6</ele>
        <time>2020-12-20T09:06:53Z</time>
      </trkpt>
      <trkpt lat="47.89146" lon="-1.10906">
        <ele>73.7</ele>
        <time>2020-12-20T09:06:54Z</time>
      </trkpt>
      <trkpt lat="47.89154" lon="-1.10903">
        <ele>73.7</ele>
        <time>2020-12-20T09:06:55Z</time>
      </trkpt>
      <trkpt lat="47.89162" lon="-1.109">
        <ele>73.8</ele>
        <time>2020-12-20T09:06:56Z</time>
      </trkpt>
      <trkpt lat="47.8917" lon="-1.10897">
        <ele>73.8</ele>
        <time>2020-12-20T09:06:57Z</time>
      </trkpt>
      <trkpt lat="47.89179" lon="-1.10895">
        <ele>73.9</ele>
        <time>2020-12-20T09:06:58Z</time>
      </trkpt>
      <trkpt lat="47.89187" lon="-1.10892">
        <ele>73.9</ele>
        <time>2020-12-20T09:06:59Z</time>
      </trkpt>
      <trkpt lat="47.89194" lon="-1.1089">
        <ele>74</ele>
        <time>2020-12-20T09:07:00Z</time>
      </trkpt>
      <trkpt lat="47.89202" lon="-1.10887">
        <ele>74.1</ele>
        <time>2020-12-20T09:07:01Z</time>
      </trkpt>
      <trkpt lat="47.8921" lon="-1.10884">
        <ele>74.1</ele>
        <time>2020-12-20T09:07:02Z</time>
      </trkpt>
      <trkpt lat="47.89218" lon="-1.10881">
        <ele>74.2</ele>
        <time>2020-12-20T09:07:03Z</time>
      </trkpt>
      <trkpt lat="47.89226" lon="-1.10879">
        <ele>74.3</ele>
        <time>2020-12-20T09:07:04Z</time>
      </trkpt>
      <trkpt lat="47.89233" lon="-1.10876">
        <ele>74.3</ele>
        <time>2020-12-20T09:07:05Z</time>
      </trkpt>
      <trkpt lat="47.89241" lon="-1.10874">
        <ele>74.4</ele>
        <time>2020-12-20T09:07:06Z</time>
      </trkpt>
      <trkpt lat="47.89248" lon="-1.10872">
        <ele>74.4</ele>
        <time>2020-12-20T09:07:07Z</time>
      </trkpt>
      <trkpt lat="47.89256" lon="-1.10869">
        <ele>74.5</ele>
        <time>2020-12-20T09:07:08Z</time>
      </trkpt>
      <trkpt lat="47.89264" lon="-1.10868">
        <ele>74.5</ele>
        <time>2020-12-20T09:07:09Z</time>
      </trkpt>
      <trkpt lat="47.89271" lon="-1.10865">
        <ele>74.5</ele>
        <time>2020-12-20T09:07:10Z</time>
      </trkpt>
      <trkpt lat="47.89278" lon="-1.10863">
        <ele>74.5</ele>
        <time>2020-12-20T09:07:11Z</time>
      </trkpt>
      <trkpt lat="47.89285" lon="-1.10861">
        <ele>74.5</ele>
        <time>2020-12-20T09:07:12Z</time>
      </trkpt>
      <trkpt lat="47.89291" lon="-1.10859">
        <ele>74.5</ele>
        <time>2020-12-20T09:07:13Z</time>
      </trkpt>
      <trkpt lat="47.89298" lon="-1.10857">
        <ele>74.4</ele>
        <time>2020-12-20T09:07:14Z</time>
      </trkpt>
      <trkpt lat="47.89304" lon="-1.10855">
        <ele>74.4</ele>
        <time>2020-12-20T09:07:15Z</time>
      </trkpt>
      <trkpt lat="47.8931" lon="-1.10853">
        <ele>74.4</ele>
        <time>2020-12-20T09:07:16Z</time>
      </trkpt>
      <trkpt lat="47.89316" lon="-1.10851">
        <ele>74.4</ele>
        <time>2020-12-20T09:07:17Z</time>
      </trkpt>
      <trkpt lat="47.89322" lon="-1.10849">
        <ele>74.4</ele>
        <time>2020-12-20T09:07:18Z</time>
      </trkpt>
      <trkpt lat="47.89328" lon="-1.10847">
        <ele>74.3</ele>
        <time>2020-12-20T09:07:19Z</time>
      </trkpt>
      <trkpt lat="47.89333" lon="-1.10844">
        <ele>74.3</ele>
        <time>2020-12-20T09:07:20Z</time>
      </trkpt>
      <trkpt lat="47.89336" lon="-1.1084">
        <ele>74.1</ele>
        <time>2020-12-20T09:07:21Z</time>
      </trkpt>
      <trkpt lat="47.89336" lon="-1.10836">
        <ele>74</ele>
        <time>2020-12-20T09:07:22Z</time>
      </trkpt>
      <trkpt lat="47.89333" lon="-1.10829">
        <ele>73.9</ele>
        <time>2020-12-20T09:07:23Z</time>
      </trkpt>
      <trkpt lat="47.89331" lon="-1.1082">
        <ele>73.8</ele>
        <time>2020-12-20T09:07:24Z</time>
      </trkpt>
      <trkpt lat="47.89329" lon="-1.10809">
        <ele>73.7</ele>
        <time>2020-12-20T09:07:25Z</time>
      </trkpt>
      <trkpt lat="47.89327" lon="-1.108">
        <ele>73.6</ele>
        <time>2020-12-20T09:07:26Z</time>
      </trkpt>
      <trkpt lat="47.89325" lon="-1.10789">
        <ele>73.4</ele>
        <time>2020-12-20T09:07:27Z</time>
      </trkpt>
      <trkpt lat="47.89324" lon="-1.10779">
        <ele>73.3</ele>
        <time>2020-12-20T09:07:28Z</time>
      </trkpt>
      <trkpt lat="47.89323" lon="-1.10769">
        <ele>73.1</ele>
        <time>2020-12-20T09:07:29Z</time>
      </trkpt>
      <trkpt lat="47.89321" lon="-1.10759">
        <ele>73</ele>
        <time>2020-12-20T09:07:30Z</time>
      </trkpt>
      <trkpt lat="47.8932" lon="-1.10749">
        <ele>72.8</ele>
        <time>2020-12-20T09:07:31Z</time>
      </trkpt>
      <trkpt lat="47.89318" lon="-1.10738">
        <ele>72.6</ele>
        <time>2020-12-20T09:07:32Z</time>
      </trkpt>
      <trkpt lat="47.89317" lon="-1.10729">
        <ele>72.5</ele>
        <time>2020-12-20T09:07:33Z</time>
      </trkpt>
      <trkpt lat="47.89316" lon="-1.10719">
        <ele>72.3</ele>
        <time>2020-12-20T09:07:34Z</time>
      </trkpt>
      <trkpt lat="47.89314" lon="-1.1071">
        <ele>72.2</ele>
        <time>2020-12-20T09:07:35Z</time>
      </trkpt>
      <trkpt lat="47.89313" lon="-1.107">
        <ele>72</ele>
        <time>2020-12-20T09:07:36Z</time>
      </trkpt>
      <trkpt lat="47.89312" lon="-1.10691">
        <ele>71.9</ele>
        <time>2020-12-20T09:07:37Z</time>
      </trkpt>
      <trkpt lat="47.89311" lon="-1.10681">
        <ele>71.7</ele>
        <time>2020-12-20T09:07:38Z</time>
      </trkpt>
      <trkpt lat="47.8931" lon="-1.10671">
        <ele>71.5</ele>
        <time>2020-12-20T09:07:39Z</time>
      </trkpt>
      <trkpt lat="47.89309" lon="-1.10661">
        <ele>71.3</ele>
        <time>2020-12-20T09:07:40Z</time>
      </trkpt>
      <trkpt lat="47.89308" lon="-1.10652">
        <ele>71.2</ele>
        <time>2020-12-20T09:07:41Z</time>
      </trkpt>
      <trkpt lat="47.89306" lon="-1.10643">
        <ele>71.1</ele>
        <time>2020-12-20T09:07:42Z</time>
      </trkpt>
      <trkpt lat="47.89305" lon="-1.10633">
        <ele>70.9</ele>
        <time>2020-12-20T09:07:43Z</time>
      </trkpt>
      <trkpt lat="47.89304" lon="-1.10623">
        <ele>70.8</ele>
        <time>2020-12-20T09:07:44Z</time>
      </trkpt>
      <trkpt lat="47.89303" lon="-1.10614">
        <ele>70.6</ele>
        <time>2020-12-20T09:07:45Z</time>
      </trkpt>
      <trkpt lat="47.89302" lon="-1.10604">
        <ele>70.5</ele>
        <time>2020-12-20T09:07:46Z</time>
      </trkpt>
      <trkpt lat="47.893" lon="-1.10594">
        <ele>70.3</ele>
        <time>2020-12-20T09:07:47Z</time>
      </trkpt>
      <trkpt lat="47.89299" lon="-1.10584">
        <ele>70.2</ele>
        <time>2020-12-20T09:07:48Z</time>
      </trkpt>
      <trkpt lat="47.89297" lon="-1.10575">
        <ele>70.3</ele>
        <time>2020-12-20T09:07:49Z</time>
      </trkpt>
      <trkpt lat="47.89296" lon="-1.10565">
        <ele>70.4</ele>
        <time>2020-12-20T09:07:50Z</time>
      </trkpt>
      <trkpt lat="47.89294" lon="-1.10555">
        <ele>70.6</ele>
        <time>2020-12-20T09:07:51Z</time>
      </trkpt>
      <trkpt lat="47.89292" lon="-1.10546">
        <ele>70.7</ele>
        <time>2020-12-20T09:07:52Z</time>
      </trkpt>
      <trkpt lat="47.8929" lon="-1.10537">
        <ele>70.8</ele>
        <time>2020-12-20T09:07:53Z</time>
      </trkpt>
      <trkpt lat="47.89288" lon="-1.10528">
        <ele>70.9</ele>
        <time>2020-12-20T09:07:54Z</time>
      </trkpt>
      <trkpt lat="47.89286" lon="-1.10518">
        <ele>71.1</ele>
        <time>2020-12-20T09:07:55Z</time>
      </trkpt>
      <trkpt lat="47.89284" lon="-1.10508">
        <ele>71.3</ele>
        <time>2020-12-20T09:07:56Z</time>
      </trkpt>
      <trkpt lat="47.89281" lon="-1.10499">
        <ele>71.4</ele>
        <time>2020-12-20T09:07:57Z</time>
      </trkpt>
      <trkpt lat="47.89279" lon="-1.1049">
        <ele>71.4</ele>
        <time>2020-12-20T09:07:58Z</time>
      </trkpt>
      <trkpt lat="47.89277" lon="-1.1048">
        <ele>71.5</ele>
        <time>2020-12-20T09:07:59Z</time>
      </trkpt>
      <trkpt lat="47.89275" lon="-1.10471">
        <ele>71.5</ele>
        <time>2020-12-20T09:08:00Z</time>
      </trkpt>
      <trkpt lat="47.89273" lon="-1.10462">
        <ele>71.6</ele>
        <time>2020-12-20T09:08:01Z</time>
      </trkpt>
      <trkpt lat="47.8927" lon="-1.10453">
        <ele>71.7</ele>
        <time>2020-12-20T09:08:02Z</time>
      </trkpt>
      <trkpt lat="47.89268" lon="-1.10444">
        <ele>71.7</ele>
        <time>2020-12-20T09:08:03Z</time>
      </trkpt>
      <trkpt lat="47.89266" lon="-1.10436">
        <ele>71.8</ele>
        <time>2020-12-20T09:08:04Z</time>
      </trkpt>
      <trkpt lat="47.89264" lon="-1.10427">
        <ele>71.9</ele>
        <time>2020-12-20T09:08:05Z</time>
      </trkpt>
      <trkpt lat="47.89262" lon="-1.10419">
        <ele>72</ele>
        <time>2020-12-20T09:08:06Z</time>
      </trkpt>
      <trkpt lat="47.8926" lon="-1.10411">
        <ele>72.1</ele>
        <time>2020-12-20T09:08:07Z</time>
      </trkpt>
      <trkpt lat="47.89259" lon="-1.10402">
        <ele>72.1</ele>
        <time>2020-12-20T09:08:08Z</time>
      </trkpt>
      <trkpt lat="47.89256" lon="-1.10393">
        <ele>72.2</ele>
        <time>2020-12-20T09:08:09Z</time>
      </trkpt>
      <trkpt lat="47.89255" lon="-1.10385">
        <ele>72.3</ele>
        <time>2020-12-20T09:08:10Z</time>
      </trkpt>
      <trkpt lat="47.89253" lon="-1.10377">
        <ele>72.4</ele>
        <time>2020-12-20T09:08:11Z</time>
      </trkpt>
      <trkpt lat="47.89251" lon="-1.10369">
        <ele>72.6</ele>
        <time>2020-12-20T09:08:12Z</time>
      </trkpt>
      <trkpt lat="47.89249" lon="-1.1036">
        <ele>72.7</ele>
        <time>2020-12-20T09:08:13Z</time>
      </trkpt>
      <trkpt lat="47.89247" lon="-1.10352">
        <ele>72.8</ele>
        <time>2020-12-20T09:08:14Z</time>
      </trkpt>
      <trkpt lat="47.89245" lon="-1.10344">
        <ele>72.9</ele>
        <time>2020-12-20T09:08:15Z</time>
      </trkpt>
      <trkpt lat="47.89243" lon="-1.10336">
        <ele>73.1</ele>
        <time>2020-12-20T09:08:16Z</time>
      </trkpt>
      <trkpt lat="47.89242" lon="-1.10329">
        <ele>73.1</ele>
        <time>2020-12-20T09:08:17Z</time>
      </trkpt>
      <trkpt lat="47.8924" lon="-1.10321">
        <ele>73.3</ele>
        <time>2020-12-20T09:08:18Z</time>
      </trkpt>
      <trkpt lat="47.89239" lon="-1.10313">
        <ele>73.4</ele>
        <time>2020-12-20T09:08:19Z</time>
      </trkpt>
      <trkpt lat="47.89237" lon="-1.10306">
        <ele>73.5</ele>
        <time>2020-12-20T09:08:20Z</time>
      </trkpt>
      <trkpt lat="47.89236" lon="-1.10298">
        <ele>73.6</ele>
        <time>2020-12-20T09:08:21Z</time>
      </trkpt>
      <trkpt lat="47.89234" lon="-1.1029">
        <ele>73.7</ele>
        <time>2020-12-20T09:08:22Z</time>
      </trkpt>
      <trkpt lat="47.89233" lon="-1.10283">
        <ele>73.8</ele>
        <time>2020-12-20T09:08:23Z</time>
      </trkpt>
      <trkpt lat="47.89231" lon="-1.10276">
        <ele>73.9</ele>
        <time>2020-12-20T09:08:24Z</time>
      </trkpt>
      <trkpt lat="47.8923" lon="-1.10269">
        <ele>74</ele>
        <time>2020-12-20T09:08:25Z</time>
      </trkpt>
      <trkpt lat="47.89229" lon="-1.10262">
        <ele>74.1</ele>
        <time>2020-12-20T09:08:26Z</time>
      </trkpt>
      <trkpt lat="47.89227" lon="-1.10254">
        <ele>74.2</ele>
        <time>2020-12-20T09:08:27Z</time>
      </trkpt>
      <trkpt lat="47.89226" lon="-1.10247">
        <ele>74.4</ele>
        <time>2020-12-20T09:08:28Z</time>
      </trkpt>
      <trkpt lat="47.89224" lon="-1.10239">
        <ele>74.6</ele>
        <time>2020-12-20T09:08:29Z</time>
      </trkpt>
      <trkpt lat="47.89222" lon="-1.10232">
        <ele>74.8</ele>
        <time>2020-12-20T09:08:30Z</time>
      </trkpt>
      <trkpt lat="47.89221" lon="-1.10225">
        <ele>75.1</ele>
        <time>2020-12-20T09:08:31Z</time>
      </trkpt>
      <trkpt lat="47.89219" lon="-1.10218">
        <ele>75.3</ele>
        <time>2020-12-20T09:08:32Z</time>
      </trkpt>
      <trkpt lat="47.89217" lon="-1.10211">
        <ele>75.5</ele>
        <time>2020-12-20T09:08:33Z</time>
      </trkpt>
      <trkpt lat="47.89215" lon="-1.10204">
        <ele>75.8</ele>
        <time>2020-12-20T09:08:34Z</time>
      </trkpt>
      <trkpt lat="47.89213" lon="-1.10197">
        <ele>76</ele>
        <time>2020-12-20T09:08:35Z</time>
      </trkpt>
      <trkpt lat="47.89211" lon="-1.1019">
        <ele>76.2</ele>
        <time>2020-12-20T09:08:36Z</time>
      </trkpt>
      <trkpt lat="47.89209" lon="-1.10184">
        <ele>76.5</ele>
        <time>2020-12-20T09:08:37Z</time>
      </trkpt>
      <trkpt lat="47.89207" lon="-1.10177">
        <ele>76.7</ele>
        <time>2020-12-20T09:08:38Z</time>
      </trkpt>
      <trkpt lat="47.89206" lon="-1.1017">
        <ele>77</ele>
        <time>2020-12-20T09:08:39Z</time>
      </trkpt>
      <trkpt lat="47.89204" lon="-1.10163">
        <ele>77.1</ele>
        <time>2020-12-20T09:08:40Z</time>
      </trkpt>
      <trkpt lat="47.89202" lon="-1.10156">
        <ele>77.3</ele>
        <time>2020-12-20T09:08:41Z</time>
      </trkpt>
      <trkpt lat="47.89201" lon="-1.10149">
        <ele>77.4</ele>
        <time>2020-12-20T09:08:42Z</time>
      </trkpt>
      <trkpt lat="47.89199" lon="-1.10143">
        <ele>77.5</ele>
        <time>2020-12-20T09:08:43Z</time>
      </trkpt>
      <trkpt lat="47.89197" lon="-1.10136">
        <ele>77.6</ele>
        <time>2020-12-20T09:08:44Z</time>
      </trkpt>
      <trkpt lat="47.89196" lon="-1.1013">
        <ele>77.7</ele>
        <time>2020-12-20T09:08:45Z</time>
      </trkpt>
      <trkpt lat="47.89194" lon="-1.10123">
        <ele>77.9</ele>
        <time>2020-12-20T09:08:46Z</time>
      </trkpt>
      <trkpt lat="47.89192" lon="-1.10116">
        <ele>78</ele>
        <time>2020-12-20T09:08:47Z</time>
      </trkpt>
      <trkpt lat="47.8919" lon="-1.10109">
        <ele>78.1</ele>
        <time>2020-12-20T09:08:48Z</time>
      </trkpt>
      <trkpt lat="47.89189" lon="-1.10103">
        <ele>78.2</ele>
        <time>2020-12-20T09:08:49Z</time>
      </trkpt>
      <trkpt lat="47.89187" lon="-1.10096">
        <ele>78.4</ele>
        <time>2020-12-20T09:08:50Z</time>
      </trkpt>
      <trkpt lat="47.89186" lon="-1.10089">
        <ele>78.5</ele>
        <time>2020-12-20T09:08:51Z</time>
      </trkpt>
      <trkpt lat="47.89184" lon="-1.10082">
        <ele>78.6</ele>
        <time>2020-12-20T09:08:52Z</time>
      </trkpt>
      <trkpt lat="47.89183" lon="-1.10075">
        <ele>78.5</ele>
        <time>2020-12-20T09:08:53Z</time>
      </trkpt>
      <trkpt lat="47.89181" lon="-1.10069">
        <ele>78.5</ele>
        <time>2020-12-20T09:08:54Z</time>
      </trkpt>
      <trkpt lat="47.89179" lon="-1.10062">
        <ele>78.4</ele>
        <time>2020-12-20T09:08:55Z</time>
      </trkpt>
      <trkpt lat="47.89178" lon="-1.10055">
        <ele>78.4</ele>
        <time>2020-12-20T09:08:56Z</time>
      </trkpt>
      <trkpt lat="47.89176" lon="-1.10048">
        <ele>78.4</ele>
        <time>2020-12-20T09:08:57Z</time>
      </trkpt>
      <trkpt lat="47.89174" lon="-1.10041">
        <ele>78.3</ele>
        <time>2020-12-20T09:08:58Z</time>
      </trkpt>
      <trkpt lat="47.89173" lon="-1.10034">
        <ele>78.3</ele>
        <time>2020-12-20T09:08:59Z</time>
      </trkpt>
      <trkpt lat="47.89171" lon="-1.10027">
        <ele>78.2</ele>
        <time>2020-12-20T09:09:00Z</time>
      </trkpt>
      <trkpt lat="47.89169" lon="-1.1002">
        <ele>78.2</ele>
        <time>2020-12-20T09:09:01Z</time>
      </trkpt>
      <trkpt lat="47.89167" lon="-1.10012">
        <ele>78.1</ele>
        <time>2020-12-20T09:09:02Z</time>
      </trkpt>
      <trkpt lat="47.89165" lon="-1.10005">
        <ele>78.1</ele>
        <time>2020-12-20T09:09:03Z</time>
      </trkpt>
      <trkpt lat="47.89163" lon="-1.09997">
        <ele>78.1</ele>
        <time>2020-12-20T09:09:04Z</time>
      </trkpt>
      <trkpt lat="47.89161" lon="-1.09989">
        <ele>77.9</ele>
        <time>2020-12-20T09:09:05Z</time>
      </trkpt>
      <trkpt lat="47.89159" lon="-1.09981">
        <ele>77.8</ele>
        <time>2020-12-20T09:09:06Z</time>
      </trkpt>
      <trkpt lat="47.89157" lon="-1.09973">
        <ele>77.7</ele>
        <time>2020-12-20T09:09:07Z</time>
      </trkpt>
      <trkpt lat="47.89155" lon="-1.09965">
        <ele>77.5</ele>
        <time>2020-12-20T09:09:08Z</time>
      </trkpt>
      <trkpt lat="47.89153" lon="-1.09957">
        <ele>77.4</ele>
        <time>2020-12-20T09:09:09Z</time>
      </trkpt>
      <trkpt lat="47.89151" lon="-1.09949">
        <ele>77.2</ele>
        <time>2020-12-20T09:09:10Z</time>
      </trkpt>
      <trkpt lat="47.89148" lon="-1.0994">
        <ele>77.1</ele>
        <time>2020-12-20T09:09:11Z</time>
      </trkpt>
      <trkpt lat="47.89146" lon="-1.09932">
        <ele>76.9</ele>
        <time>2020-12-20T09:09:12Z</time>
      </trkpt>
      <trkpt lat="47.89144" lon="-1.09923">
        <ele>76.7</ele>
        <time>2020-12-20T09:09:13Z</time>
      </trkpt>
      <trkpt lat="47.89142" lon="-1.09914">
        <ele>76.5</ele>
        <time>2020-12-20T09:09:14Z</time>
      </trkpt>
      <trkpt lat="47.8914" lon="-1.09905">
        <ele>76.4</ele>
        <time>2020-12-20T09:09:15Z</time>
      </trkpt>
      <trkpt lat="47.89138" lon="-1.09897">
        <ele>76.2</ele>
        <time>2020-12-20T09:09:16Z</time>
      </trkpt>
      <trkpt lat="47.89136" lon="-1.09888">
        <ele>76</ele>
        <time>2020-12-20T09:09:17Z</time>
      </trkpt>
      <trkpt lat="47.89133" lon="-1.09879">
        <ele>75.9</ele>
        <time>2020-12-20T09:09:18Z</time>
      </trkpt>
      <trkpt lat="47.89131" lon="-1.09871">
        <ele>75.8</ele>
        <time>2020-12-20T09:09:19Z</time>
      </trkpt>
      <trkpt lat="47.89129" lon="-1.09862">
        <ele>75.6</ele>
        <time>2020-12-20T09:09:20Z</time>
      </trkpt>
      <trkpt lat="47.89126" lon="-1.09854">
        <ele>75.5</ele>
        <time>2020-12-20T09:09:21Z</time>
      </trkpt>
      <trkpt lat="47.89124" lon="-1.09846">
        <ele>75.3</ele>
        <time>2020-12-20T09:09:22Z</time>
      </trkpt>
      <trkpt lat="47.89122" lon="-1.09837">
        <ele>75.2</ele>
        <time>2020-12-20T09:09:23Z</time>
      </trkpt>
      <trkpt lat="47.89119" lon="-1.09828">
        <ele>75</ele>
        <time>2020-12-20T09:09:24Z</time>
      </trkpt>
      <trkpt lat="47.89117" lon="-1.09819">
        <ele>74.8</ele>
        <time>2020-12-20T09:09:25Z</time>
      </trkpt>
      <trkpt lat="47.89114" lon="-1.0981">
        <ele>74.7</ele>
        <time>2020-12-20T09:09:26Z</time>
      </trkpt>
      <trkpt lat="47.89112" lon="-1.098">
        <ele>74.5</ele>
        <time>2020-12-20T09:09:27Z</time>
      </trkpt>
      <trkpt lat="47.89109" lon="-1.09791">
        <ele>74.4</ele>
        <time>2020-12-20T09:09:28Z</time>
      </trkpt>
      <trkpt lat="47.89107" lon="-1.09782">
        <ele>74.2</ele>
        <time>2020-12-20T09:09:29Z</time>
      </trkpt>
      <trkpt lat="47.89104" lon="-1.09773">
        <ele>74.1</ele>
        <time>2020-12-20T09:09:30Z</time>
      </trkpt>
      <trkpt lat="47.89102" lon="-1.09764">
        <ele>73.9</ele>
        <time>2020-12-20T09:09:31Z</time>
      </trkpt>
      <trkpt lat="47.89099" lon="-1.09755">
        <ele>73.7</ele>
        <time>2020-12-20T09:09:32Z</time>
      </trkpt>
      <trkpt lat="47.89096" lon="-1.09746">
        <ele>73.6</ele>
        <time>2020-12-20T09:09:33Z</time>
      </trkpt>
      <trkpt lat="47.89094" lon="-1.09737">
        <ele>73.5</ele>
        <time>2020-12-20T09:09:34Z</time>
      </trkpt>
      <trkpt lat="47.89091" lon="-1.09728">
        <ele>73.4</ele>
        <time>2020-12-20T09:09:35Z</time>
      </trkpt>
      <trkpt lat="47.89089" lon="-1.09719">
        <ele>73.2</ele>
        <time>2020-12-20T09:09:36Z</time>
      </trkpt>
      <trkpt lat="47.89086" lon="-1.09709">
        <ele>73</ele>
        <time>2020-12-20T09:09:37Z</time>
      </trkpt>
      <trkpt lat="47.89084" lon="-1.097">
        <ele>72.8</ele>
        <time>2020-12-20T09:09:38Z</time>
      </trkpt>
      <trkpt lat="47.89081" lon="-1.09691">
        <ele>72.6</ele>
        <time>2020-12-20T09:09:39Z</time>
      </trkpt>
      <trkpt lat="47.89078" lon="-1.09682">
        <ele>72.4</ele>
        <time>2020-12-20T09:09:40Z</time>
      </trkpt>
      <trkpt lat="47.89075" lon="-1.09673">
        <ele>72.3</ele>
        <time>2020-12-20T09:09:41Z</time>
      </trkpt>
      <trkpt lat="47.89073" lon="-1.09663">
        <ele>72</ele>
        <time>2020-12-20T09:09:42Z</time>
      </trkpt>
      <trkpt lat="47.8907" lon="-1.09654">
        <ele>71.9</ele>
        <time>2020-12-20T09:09:43Z</time>
      </trkpt>
      <trkpt lat="47.89068" lon="-1.09644">
        <ele>71.7</ele>
        <time>2020-12-20T09:09:44Z</time>
      </trkpt>
      <trkpt lat="47.89065" lon="-1.09635">
        <ele>71.5</ele>
        <time>2020-12-20T09:09:45Z</time>
      </trkpt>
      <trkpt lat="47.89062" lon="-1.09625">
        <ele>71.4</ele>
        <time>2020-12-20T09:09:46Z</time>
      </trkpt>
      <trkpt lat="47.89059" lon="-1.09616">
        <ele>71.3</ele>
        <time>2020-12-20T09:09:47Z</time>
      </trkpt>
      <trkpt lat="47.89057" lon="-1.09607">
        <ele>71.1</ele>
        <time>2020-12-20T09:09:48Z</time>
      </trkpt>
      <trkpt lat="47.89054" lon="-1.09598">
        <ele>71</ele>
        <time>2020-12-20T09:09:49Z</time>
      </trkpt>
      <trkpt lat="47.89052" lon="-1.09589">
        <ele>70.9</ele>
        <time>2020-12-20T09:09:50Z</time>
      </trkpt>
      <trkpt lat="47.8905" lon="-1.09579">
        <ele>70.8</ele>
        <time>2020-12-20T09:09:51Z</time>
      </trkpt>
      <trkpt lat="47.89047" lon="-1.09571">
        <ele>70.9</ele>
        <time>2020-12-20T09:09:52Z</time>
      </trkpt>
      <trkpt lat="47.89045" lon="-1.09563">
        <ele>70.9</ele>
        <time>2020-12-20T09:09:53Z</time>
      </trkpt>
      <trkpt lat="47.89043" lon="-1.09555">
        <ele>71</ele>
        <time>2020-12-20T09:09:54Z</time>
      </trkpt>
      <trkpt lat="47.89041" lon="-1.09547">
        <ele>71</ele>
        <time>2020-12-20T09:09:55Z</time>
      </trkpt>
      <trkpt lat="47.89039" lon="-1.09538">
        <ele>71.1</ele>
        <time>2020-12-20T09:09:56Z</time>
      </trkpt>
      <trkpt lat="47.89037" lon="-1.0953">
        <ele>71.1</ele>
        <time>2020-12-20T09:09:57Z</time>
      </trkpt>
      <trkpt lat="47.89035" lon="-1.09522">
        <ele>71.2</ele>
        <time>2020-12-20T09:09:58Z</time>
      </trkpt>
      <trkpt lat="47.89033" lon="-1.09513">
        <ele>71.2</ele>
        <time>2020-12-20T09:09:59Z</time>
      </trkpt>
      <trkpt lat="47.89031" lon="-1.09505">
        <ele>71.3</ele>
        <time>2020-12-20T09:10:00Z</time>
      </trkpt>
      <trkpt lat="47.89029" lon="-1.09497">
        <ele>71.4</ele>
        <time>2020-12-20T09:10:01Z</time>
      </trkpt>
      <trkpt lat="47.89027" lon="-1.09489">
        <ele>71.7</ele>
        <time>2020-12-20T09:10:02Z</time>
      </trkpt>
      <trkpt lat="47.89024" lon="-1.09481">
        <ele>72</ele>
        <time>2020-12-20T09:10:03Z</time>
      </trkpt>
      <trkpt lat="47.89022" lon="-1.09474">
        <ele>72.3</ele>
        <time>2020-12-20T09:10:04Z</time>
      </trkpt>
      <trkpt lat="47.8902" lon="-1.09467">
        <ele>72.6</ele>
        <time>2020-12-20T09:10:05Z</time>
      </trkpt>
      <trkpt lat="47.89018" lon="-1.09459">
        <ele>73</ele>
        <time>2020-12-20T09:10:06Z</time>
      </trkpt>
      <trkpt lat="47.89015" lon="-1.09452">
        <ele>73.4</ele>
        <time>2020-12-20T09:10:07Z</time>
      </trkpt>
      <trkpt lat="47.89013" lon="-1.09445">
        <ele>73.8</ele>
        <time>2020-12-20T09:10:08Z</time>
      </trkpt>
      <trkpt lat="47.89011" lon="-1.09438">
        <ele>74.2</ele>
        <time>2020-12-20T09:10:09Z</time>
      </trkpt>
      <trkpt lat="47.89008" lon="-1.09431">
        <ele>74.7</ele>
        <time>2020-12-20T09:10:10Z</time>
      </trkpt>
      <trkpt lat="47.89005" lon="-1.09425">
        <ele>75.2</ele>
        <time>2020-12-20T09:10:11Z</time>
      </trkpt>
      <trkpt lat="47.89002" lon="-1.09419">
        <ele>75.7</ele>
        <time>2020-12-20T09:10:12Z</time>
      </trkpt>
      <trkpt lat="47.88999" lon="-1.09412">
        <ele>76.1</ele>
        <time>2020-12-20T09:10:13Z</time>
      </trkpt>
      <trkpt lat="47.88995" lon="-1.09407">
        <ele>76.3</ele>
        <time>2020-12-20T09:10:14Z</time>
      </trkpt>
      <trkpt lat="47.88992" lon="-1.09401">
        <ele>76.5</ele>
        <time>2020-12-20T09:10:15Z</time>
      </trkpt>
      <trkpt lat="47.88989" lon="-1.09395">
        <ele>76.7</ele>
        <time>2020-12-20T09:10:16Z</time>
      </trkpt>
      <trkpt lat="47.88985" lon="-1.09391">
        <ele>77</ele>
        <time>2020-12-20T09:10:17Z</time>
      </trkpt>
      <trkpt lat="47.88982" lon="-1.09386">
        <ele>77.2</ele>
        <time>2020-12-20T09:10:18Z</time>
      </trkpt>
      <trkpt lat="47.88979" lon="-1.09382">
        <ele>77.4</ele>
        <time>2020-12-20T09:10:19Z</time>
      </trkpt>
      <trkpt lat="47.88976" lon="-1.09378">
        <ele>77.6</ele>
        <time>2020-12-20T09:10:20Z</time>
      </trkpt>
      <trkpt lat="47.88973" lon="-1.09374">
        <ele>77.8</ele>
        <time>2020-12-20T09:10:21Z</time>
      </trkpt>
      <trkpt lat="47.88971" lon="-1.0937">
        <ele>78</ele>
        <time>2020-12-20T09:10:22Z</time>
      </trkpt>
      <trkpt lat="47.88968" lon="-1.09366">
        <ele>78.2</ele>
        <time>2020-12-20T09:10:23Z</time>
      </trkpt>
      <trkpt lat="47.88965" lon="-1.09363">
        <ele>78.4</ele>
        <time>2020-12-20T09:10:24Z</time>
      </trkpt>
      <trkpt lat="47.88962" lon="-1.09359">
        <ele>78.7</ele>
        <time>2020-12-20T09:10:25Z</time>
      </trkpt>
      <trkpt lat="47.88959" lon="-1.09356">
        <ele>78.9</ele>
        <time>2020-12-20T09:10:26Z</time>
      </trkpt>
      <trkpt lat="47.88956" lon="-1.09353">
        <ele>79.2</ele>
        <time>2020-12-20T09:10:27Z</time>
      </trkpt>
      <trkpt lat="47.88954" lon="-1.09349">
        <ele>79.4</ele>
        <time>2020-12-20T09:10:28Z</time>
      </trkpt>
      <trkpt lat="47.88951" lon="-1.09346">
        <ele>79.6</ele>
        <time>2020-12-20T09:10:29Z</time>
      </trkpt>
      <trkpt lat="47.88949" lon="-1.09343">
        <ele>79.8</ele>
        <time>2020-12-20T09:10:30Z</time>
      </trkpt>
      <trkpt lat="47.88947" lon="-1.0934">
        <ele>80</ele>
        <time>2020-12-20T09:10:31Z</time>
      </trkpt>
      <trkpt lat="47.88944" lon="-1.09338">
        <ele>80.2</ele>
        <time>2020-12-20T09:10:32Z</time>
      </trkpt>
      <trkpt lat="47.88942" lon="-1.09335">
        <ele>80.4</ele>
        <time>2020-12-20T09:10:33Z</time>
      </trkpt>
      <trkpt lat="47.88939" lon="-1.09333">
        <ele>80.7</ele>
        <time>2020-12-20T09:10:34Z</time>
      </trkpt>
      <trkpt lat="47.88937" lon="-1.0933">
        <ele>80.7</ele>
        <time>2020-12-20T09:10:35Z</time>
      </trkpt>
      <trkpt lat="47.88934" lon="-1.09328">
        <ele>80.9</ele>
        <time>2020-12-20T09:10:36Z</time>
      </trkpt>
      <trkpt lat="47.88932" lon="-1.09325">
        <ele>81</ele>
        <time>2020-12-20T09:10:37Z</time>
      </trkpt>
      <trkpt lat="47.8893" lon="-1.09322">
        <ele>81</ele>
        <time>2020-12-20T09:10:38Z</time>
      </trkpt>
      <trkpt lat="47.88927" lon="-1.09319">
        <ele>81.2</ele>
        <time>2020-12-20T09:10:39Z</time>
      </trkpt>
      <trkpt lat="47.88925" lon="-1.09317">
        <ele>81.3</ele>
        <time>2020-12-20T09:10:40Z</time>
      </trkpt>
      <trkpt lat="47.88923" lon="-1.09314">
        <ele>81.4</ele>
        <time>2020-12-20T09:10:41Z</time>
      </trkpt>
      <trkpt lat="47.8892" lon="-1.09311">
        <ele>81.5</ele>
        <time>2020-12-20T09:10:42Z</time>
      </trkpt>
      <trkpt lat="47.88918" lon="-1.09308">
        <ele>81.6</ele>
        <time>2020-12-20T09:10:43Z</time>
      </trkpt>
      <trkpt lat="47.88916" lon="-1.09305">
        <ele>81.7</ele>
        <time>2020-12-20T09:10:44Z</time>
      </trkpt>
      <trkpt lat="47.88913" lon="-1.09303">
        <ele>81.9</ele>
        <time>2020-12-20T09:10:45Z</time>
      </trkpt>
      <trkpt lat="47.88911" lon="-1.093">
        <ele>81.9</ele>
        <time>2020-12-20T09:10:46Z</time>
      </trkpt>
      <trkpt lat="47.88908" lon="-1.09297">
        <ele>82.1</ele>
        <time>2020-12-20T09:10:47Z</time>
      </trkpt>
      <trkpt lat="47.88906" lon="-1.09293">
        <ele>82.2</ele>
        <time>2020-12-20T09:10:48Z</time>
      </trkpt>
      <trkpt lat="47.88903" lon="-1.0929">
        <ele>82.3</ele>
        <time>2020-12-20T09:10:49Z</time>
      </trkpt>
      <trkpt lat="47.88901" lon="-1.09287">
        <ele>82.4</ele>
        <time>2020-12-20T09:10:50Z</time>
      </trkpt>
      <trkpt lat="47.88899" lon="-1.09284">
        <ele>82.5</ele>
        <time>2020-12-20T09:10:51Z</time>
      </trkpt>
      <trkpt lat="47.88897" lon="-1.09281">
        <ele>82.6</ele>
        <time>2020-12-20T09:10:52Z</time>
      </trkpt>
      <trkpt lat="47.88895" lon="-1.09278">
        <ele>82.6</ele>
        <time>2020-12-20T09:10:53Z</time>
      </trkpt>
      <trkpt lat="47.88892" lon="-1.09275">
        <ele>82.8</ele>
        <time>2020-12-20T09:10:54Z</time>
      </trkpt>
      <trkpt lat="47.8889" lon="-1.09271">
        <ele>82.9</ele>
        <time>2020-12-20T09:10:55Z</time>
      </trkpt>
      <trkpt lat="47.88888" lon="-1.09268">
        <ele>82.9</ele>
        <time>2020-12-20T09:10:56Z</time>
      </trkpt>
      <trkpt lat="47.88885" lon="-1.09265">
        <ele>83.1</ele>
        <time>2020-12-20T09:10:57Z</time>
      </trkpt>
      <trkpt lat="47.88883" lon="-1.09261">
        <ele>83.2</ele>
        <time>2020-12-20T09:10:58Z</time>
      </trkpt>
      <trkpt lat="47.8888" lon="-1.09258">
        <ele>83.3</ele>
        <time>2020-12-20T09:10:59Z</time>
      </trkpt>
      <trkpt lat="47.88878" lon="-1.09254">
        <ele>83.4</ele>
        <time>2020-12-20T09:11:00Z</time>
      </trkpt>
      <trkpt lat="47.88876" lon="-1.0925">
        <ele>83.4</ele>
        <time>2020-12-20T09:11:01Z</time>
      </trkpt>
      <trkpt lat="47.88874" lon="-1.09246">
        <ele>83.5</ele>
        <time>2020-12-20T09:11:02Z</time>
      </trkpt>
      <trkpt lat="47.88872" lon="-1.09242">
        <ele>83.5</ele>
        <time>2020-12-20T09:11:03Z</time>
      </trkpt>
      <trkpt lat="47.8887" lon="-1.09238">
        <ele>83.6</ele>
        <time>2020-12-20T09:11:04Z</time>
      </trkpt>
      <trkpt lat="47.88868" lon="-1.09234">
        <ele>83.6</ele>
        <time>2020-12-20T09:11:05Z</time>
      </trkpt>
      <trkpt lat="47.88866" lon="-1.0923">
        <ele>83.7</ele>
        <time>2020-12-20T09:11:06Z</time>
      </trkpt>
      <trkpt lat="47.88864" lon="-1.09226">
        <ele>83.8</ele>
        <time>2020-12-20T09:11:07Z</time>
      </trkpt>
      <trkpt lat="47.88861" lon="-1.09221">
        <ele>83.9</ele>
        <time>2020-12-20T09:11:08Z</time>
      </trkpt>
      <trkpt lat="47.8886" lon="-1.09217">
        <ele>83.9</ele>
        <time>2020-12-20T09:11:09Z</time>
      </trkpt>
      <trkpt lat="47.88857" lon="-1.09213">
        <ele>84</ele>
        <time>2020-12-20T09:11:10Z</time>
      </trkpt>
      <trkpt lat="47.88855" lon="-1.09208">
        <ele>84.1</ele>
        <time>2020-12-20T09:11:11Z</time>
      </trkpt>
      <trkpt lat="47.88853" lon="-1.09203">
        <ele>84.1</ele>
        <time>2020-12-20T09:11:12Z</time>
      </trkpt>
      <trkpt lat="47.88851" lon="-1.09198">
        <ele>84.2</ele>
        <time>2020-12-20T09:11:13Z</time>
      </trkpt>
      <trkpt lat="47.88849" lon="-1.09193">
        <ele>84.2</ele>
        <time>2020-12-20T09:11:14Z</time>
      </trkpt>
      <trkpt lat="47.88847" lon="-1.09188">
        <ele>84.3</ele>
        <time>2020-12-20T09:11:15Z</time>
      </trkpt>
      <trkpt lat="47.88845" lon="-1.09183">
        <ele>84.4</ele>
        <time>2020-12-20T09:11:16Z</time>
      </trkpt>
      <trkpt lat="47.88843" lon="-1.09179">
        <ele>84.5</ele>
        <time>2020-12-20T09:11:17Z</time>
      </trkpt>
      <trkpt lat="47.8884" lon="-1.09174">
        <ele>84.6</ele>
        <time>2020-12-20T09:11:18Z</time>
      </trkpt>
      <trkpt lat="47.88838" lon="-1.09169">
        <ele>84.7</ele>
        <time>2020-12-20T09:11:19Z</time>
      </trkpt>
      <trkpt lat="47.88836" lon="-1.09164">
        <ele>84.8</ele>
        <time>2020-12-20T09:11:20Z</time>
      </trkpt>
      <trkpt lat="47.88833" lon="-1.09159">
        <ele>85</ele>
        <time>2020-12-20T09:11:21Z</time>
      </trkpt>
      <trkpt lat="47.88831" lon="-1.09154">
        <ele>85.1</ele>
        <time>2020-12-20T09:11:22Z</time>
      </trkpt>
      <trkpt lat="47.88829" lon="-1.09149">
        <ele>85.2</ele>
        <time>2020-12-20T09:11:23Z</time>
      </trkpt>
      <trkpt lat="47.88827" lon="-1.09144">
        <ele>85.3</ele>
        <time>2020-12-20T09:11:24Z</time>
      </trkpt>
      <trkpt lat="47.88825" lon="-1.09139">
        <ele>85.4</ele>
        <time>2020-12-20T09:11:25Z</time>
      </trkpt>
      <trkpt lat="47.88823" lon="-1.09134">
        <ele>85.5</ele>
        <time>2020-12-20T09:11:26Z</time>
      </trkpt>
      <trkpt lat="47.88821" lon="-1.09129">
        <ele>85.6</ele>
        <time>2020-12-20T09:11:27Z</time>
      </trkpt>
      <trkpt lat="47.88819" lon="-1.09124">
        <ele>85.7</ele>
        <time>2020-12-20T09:11:28Z</time>
      </trkpt>
      <trkpt lat="47.88816" lon="-1.0912">
        <ele>85.8</ele>
        <time>2020-12-20T09:11:29Z</time>
      </trkpt>
      <trkpt lat="47.88814" lon="-1.09115">
        <ele>85.9</ele>
        <time>2020-12-20T09:11:30Z</time>
      </trkpt>
      <trkpt lat="47.88812" lon="-1.0911">
        <ele>86</ele>
        <time>2020-12-20T09:11:31Z</time>
      </trkpt>
      <trkpt lat="47.8881" lon="-1.09105">
        <ele>86.1</ele>
        <time>2020-12-20T09:11:32Z</time>
      </trkpt>
      <trkpt lat="47.88808" lon="-1.091">
        <ele>86.2</ele>
        <time>2020-12-20T09:11:33Z</time>
      </trkpt>
      <trkpt lat="47.88806" lon="-1.09095">
        <ele>86.3</ele>
        <time>2020-12-20T09:11:34Z</time>
      </trkpt>
      <trkpt lat="47.88803" lon="-1.0909">
        <ele>86.5</ele>
        <time>2020-12-20T09:11:35Z</time>
      </trkpt>
      <trkpt lat="47.88801" lon="-1.09085">
        <ele>86.6</ele>
        <time>2020-12-20T09:11:36Z</time>
      </trkpt>
      <trkpt lat="47.88799" lon="-1.09081">
        <ele>86.7</ele>
        <time>2020-12-20T09:11:37Z</time>
      </trkpt>
      <trkpt lat="47.88797" lon="-1.09077">
        <ele>86.8</ele>
        <time>2020-12-20T09:11:38Z</time>
      </trkpt>
      <trkpt lat="47.88795" lon="-1.09072">
        <ele>86.9</ele>
        <time>2020-12-20T09:11:39Z</time>
      </trkpt>
      <trkpt lat="47.88793" lon="-1.09068">
        <ele>86.9</ele>
        <time>2020-12-20T09:11:40Z</time>
      </trkpt>
      <trkpt lat="47.88791" lon="-1.09063">
        <ele>87</ele>
        <time>2020-12-20T09:11:41Z</time>
      </trkpt>
      <trkpt lat="47.88789" lon="-1.09057">
        <ele>87.1</ele>
        <time>2020-12-20T09:11:42Z</time>
      </trkpt>
      <trkpt lat="47.88786" lon="-1.09052">
        <ele>87.2</ele>
        <time>2020-12-20T09:11:43Z</time>
      </trkpt>
      <trkpt lat="47.88784" lon="-1.09046">
        <ele>87.3</ele>
        <time>2020-12-20T09:11:44Z</time>
      </trkpt>
      <trkpt lat="47.88781" lon="-1.09041">
        <ele>87.4</ele>
        <time>2020-12-20T09:11:45Z</time>
      </trkpt>
      <trkpt lat="47.88779" lon="-1.09035">
        <ele>87.4</ele>
        <time>2020-12-20T09:11:46Z</time>
      </trkpt>
      <trkpt lat="47.88777" lon="-1.09029">
        <ele>87.5</ele>
        <time>2020-12-20T09:11:47Z</time>
      </trkpt>
      <trkpt lat="47.88774" lon="-1.09023">
        <ele>87.5</ele>
        <time>2020-12-20T09:11:48Z</time>
      </trkpt>
      <trkpt lat="47.88772" lon="-1.09017">
        <ele>87.6</ele>
        <time>2020-12-20T09:11:49Z</time>
      </trkpt>
      <trkpt lat="47.8877" lon="-1.09011">
        <ele>87.6</ele>
        <time>2020-12-20T09:11:50Z</time>
      </trkpt>
      <trkpt lat="47.88767" lon="-1.09004">
        <ele>87.6</ele>
        <time>2020-12-20T09:11:51Z</time>
      </trkpt>
      <trkpt lat="47.88764" lon="-1.08998">
        <ele>87.6</ele>
        <time>2020-12-20T09:11:52Z</time>
      </trkpt>
      <trkpt lat="47.88762" lon="-1.08991">
        <ele>87.5</ele>
        <time>2020-12-20T09:11:53Z</time>
      </trkpt>
      <trkpt lat="47.88759" lon="-1.08985">
        <ele>87.4</ele>
        <time>2020-12-20T09:11:54Z</time>
      </trkpt>
      <trkpt lat="47.88756" lon="-1.08978">
        <ele>87.3</ele>
        <time>2020-12-20T09:11:55Z</time>
      </trkpt>
      <trkpt lat="47.88754" lon="-1.08971">
        <ele>87.2</ele>
        <time>2020-12-20T09:11:56Z</time>
      </trkpt>
      <trkpt lat="47.88751" lon="-1.08963">
        <ele>87.1</ele>
        <time>2020-12-20T09:11:57Z</time>
      </trkpt>
      <trkpt lat="47.88749" lon="-1.08956">
        <ele>86.9</ele>
        <time>2020-12-20T09:11:58Z</time>
      </trkpt>
      <trkpt lat="47.88746" lon="-1.08949">
        <ele>86.7</ele>
        <time>2020-12-20T09:11:59Z</time>
      </trkpt>
      <trkpt lat="47.88743" lon="-1.08941">
        <ele>86.5</ele>
        <time>2020-12-20T09:12:00Z</time>
      </trkpt>
      <trkpt lat="47.8874" lon="-1.08933">
        <ele>86.3</ele>
        <time>2020-12-20T09:12:01Z</time>
      </trkpt>
      <trkpt lat="47.88738" lon="-1.08926">
        <ele>86.1</ele>
        <time>2020-12-20T09:12:02Z</time>
      </trkpt>
      <trkpt lat="47.88735" lon="-1.08918">
        <ele>85.9</ele>
        <time>2020-12-20T09:12:03Z</time>
      </trkpt>
      <trkpt lat="47.88731" lon="-1.0891">
        <ele>85.6</ele>
        <time>2020-12-20T09:12:04Z</time>
      </trkpt>
      <trkpt lat="47.88728" lon="-1.08902">
        <ele>85.3</ele>
        <time>2020-12-20T09:12:05Z</time>
      </trkpt>
      <trkpt lat="47.88725" lon="-1.08894">
        <ele>85</ele>
        <time>2020-12-20T09:12:06Z</time>
      </trkpt>
      <trkpt lat="47.88722" lon="-1.08886">
        <ele>84.7</ele>
        <time>2020-12-20T09:12:07Z</time>
      </trkpt>
      <trkpt lat="47.88719" lon="-1.08877">
        <ele>84.4</ele>
        <time>2020-12-20T09:12:08Z</time>
      </trkpt>
      <trkpt lat="47.88716" lon="-1.08869">
        <ele>84.1</ele>
        <time>2020-12-20T09:12:09Z</time>
      </trkpt>
      <trkpt lat="47.88712" lon="-1.0886">
        <ele>83.8</ele>
        <time>2020-12-20T09:12:10Z</time>
      </trkpt>
      <trkpt lat="47.88709" lon="-1.08852">
        <ele>83.6</ele>
        <time>2020-12-20T09:12:11Z</time>
      </trkpt>
      <trkpt lat="47.88706" lon="-1.08843">
        <ele>83.3</ele>
        <time>2020-12-20T09:12:12Z</time>
      </trkpt>
      <trkpt lat="47.88702" lon="-1.08834">
        <ele>83</ele>
        <time>2020-12-20T09:12:13Z</time>
      </trkpt>
      <trkpt lat="47.88699" lon="-1.08826">
        <ele>82.9</ele>
        <time>2020-12-20T09:12:14Z</time>
      </trkpt>
      <trkpt lat="47.88696" lon="-1.08817">
        <ele>82.7</ele>
        <time>2020-12-20T09:12:15Z</time>
      </trkpt>
      <trkpt lat="47.88692" lon="-1.08808">
        <ele>82.6</ele>
        <time>2020-12-20T09:12:16Z</time>
      </trkpt>
      <trkpt lat="47.88689" lon="-1.08799">
        <ele>82.5</ele>
        <time>2020-12-20T09:12:17Z</time>
      </trkpt>
      <trkpt lat="47.88685" lon="-1.08788">
        <ele>82.3</ele>
        <time>2020-12-20T09:12:18Z</time>
      </trkpt>
      <trkpt lat="47.88683" lon="-1.08781">
        <ele>82.2</ele>
        <time>2020-12-20T09:12:19Z</time>
      </trkpt>
      <trkpt lat="47.88679" lon="-1.08772">
        <ele>82.2</ele>
        <time>2020-12-20T09:12:20Z</time>
      </trkpt>
      <trkpt lat="47.88676" lon="-1.08763">
        <ele>82.1</ele>
        <time>2020-12-20T09:12:21Z</time>
      </trkpt>
      <trkpt lat="47.88673" lon="-1.08755">
        <ele>82</ele>
        <time>2020-12-20T09:12:22Z</time>
      </trkpt>
      <trkpt lat="47.88671" lon="-1.08746">
        <ele>81.9</ele>
        <time>2020-12-20T09:12:23Z</time>
      </trkpt>
      <trkpt lat="47.88667" lon="-1.08738">
        <ele>82</ele>
        <time>2020-12-20T09:12:24Z</time>
      </trkpt>
      <trkpt lat="47.88664" lon="-1.08729">
        <ele>82.1</ele>
        <time>2020-12-20T09:12:25Z</time>
      </trkpt>
      <trkpt lat="47.88661" lon="-1.0872">
        <ele>82.2</ele>
        <time>2020-12-20T09:12:26Z</time>
      </trkpt>
      <trkpt lat="47.88658" lon="-1.08711">
        <ele>82.4</ele>
        <time>2020-12-20T09:12:27Z</time>
      </trkpt>
      <trkpt lat="47.88655" lon="-1.08702">
        <ele>82.5</ele>
        <time>2020-12-20T09:12:28Z</time>
      </trkpt>
      <trkpt lat="47.88652" lon="-1.08694">
        <ele>82.6</ele>
        <time>2020-12-20T09:12:29Z</time>
      </trkpt>
      <trkpt lat="47.88649" lon="-1.08686">
        <ele>82.8</ele>
        <time>2020-12-20T09:12:30Z</time>
      </trkpt>
      <trkpt lat="47.88646" lon="-1.08678">
        <ele>83</ele>
        <time>2020-12-20T09:12:31Z</time>
      </trkpt>
      <trkpt lat="47.88643" lon="-1.0867">
        <ele>83.1</ele>
        <time>2020-12-20T09:12:32Z</time>
      </trkpt>
      <trkpt lat="47.8864" lon="-1.08663">
        <ele>83.3</ele>
        <time>2020-12-20T09:12:33Z</time>
      </trkpt>
      <trkpt lat="47.88637" lon="-1.08656">
        <ele>83.4</ele>
        <time>2020-12-20T09:12:34Z</time>
      </trkpt>
      <trkpt lat="47.88634" lon="-1.08649">
        <ele>83.6</ele>
        <time>2020-12-20T09:12:35Z</time>
      </trkpt>
      <trkpt lat="47.88632" lon="-1.08642">
        <ele>83.7</ele>
        <time>2020-12-20T09:12:36Z</time>
      </trkpt>
      <trkpt lat="47.88629" lon="-1.08636">
        <ele>83.8</ele>
        <time>2020-12-20T09:12:37Z</time>
      </trkpt>
      <trkpt lat="47.88626" lon="-1.08629">
        <ele>84</ele>
        <time>2020-12-20T09:12:38Z</time>
      </trkpt>
      <trkpt lat="47.88624" lon="-1.08623">
        <ele>84</ele>
        <time>2020-12-20T09:12:39Z</time>
      </trkpt>
      <trkpt lat="47.88621" lon="-1.08617">
        <ele>84.2</ele>
        <time>2020-12-20T09:12:40Z</time>
      </trkpt>
      <trkpt lat="47.88619" lon="-1.08611">
        <ele>84.3</ele>
        <time>2020-12-20T09:12:41Z</time>
      </trkpt>
      <trkpt lat="47.88617" lon="-1.08605">
        <ele>84.4</ele>
        <time>2020-12-20T09:12:42Z</time>
      </trkpt>
      <trkpt lat="47.88614" lon="-1.086">
        <ele>84.5</ele>
        <time>2020-12-20T09:12:43Z</time>
      </trkpt>
      <trkpt lat="47.88612" lon="-1.08594">
        <ele>84.6</ele>
        <time>2020-12-20T09:12:44Z</time>
      </trkpt>
      <trkpt lat="47.8861" lon="-1.08589">
        <ele>84.7</ele>
        <time>2020-12-20T09:12:45Z</time>
      </trkpt>
      <trkpt lat="47.88608" lon="-1.08583">
        <ele>84.8</ele>
        <time>2020-12-20T09:12:46Z</time>
      </trkpt>
      <trkpt lat="47.88605" lon="-1.08578">
        <ele>85</ele>
        <time>2020-12-20T09:12:47Z</time>
      </trkpt>
      <trkpt lat="47.88603" lon="-1.08573">
        <ele>85.1</ele>
        <time>2020-12-20T09:12:48Z</time>
      </trkpt>
      <trkpt lat="47.88601" lon="-1.08567">
        <ele>85.2</ele>
        <time>2020-12-20T09:12:49Z</time>
      </trkpt>
      <trkpt lat="47.88599" lon="-1.08562">
        <ele>85.3</ele>
        <time>2020-12-20T09:12:50Z</time>
      </trkpt>
      <trkpt lat="47.88597" lon="-1.08557">
        <ele>85.4</ele>
        <time>2020-12-20T09:12:51Z</time>
      </trkpt>
      <trkpt lat="47.88595" lon="-1.08551">
        <ele>85.5</ele>
        <time>2020-12-20T09:12:52Z</time>
      </trkpt>
      <trkpt lat="47.88593" lon="-1.08546">
        <ele>85.6</ele>
        <time>2020-12-20T09:12:53Z</time>
      </trkpt>
      <trkpt lat="47.88591" lon="-1.08541">
        <ele>85.7</ele>
        <time>2020-12-20T09:12:54Z</time>
      </trkpt>
      <trkpt lat="47.88589" lon="-1.08536">
        <ele>85.8</ele>
        <time>2020-12-20T09:12:55Z</time>
      </trkpt>
      <trkpt lat="47.88587" lon="-1.08531">
        <ele>85.9</ele>
        <time>2020-12-20T09:12:56Z</time>
      </trkpt>
      <trkpt lat="47.88585" lon="-1.08525">
        <ele>85.9</ele>
        <time>2020-12-20T09:12:57Z</time>
      </trkpt>
      <trkpt lat="47.88583" lon="-1.0852">
        <ele>86</ele>
        <time>2020-12-20T09:12:58Z</time>
      </trkpt>
      <trkpt lat="47.88581" lon="-1.08515">
        <ele>86.2</ele>
        <time>2020-12-20T09:12:59Z</time>
      </trkpt>
      <trkpt lat="47.88578" lon="-1.0851">
        <ele>86.4</ele>
        <time>2020-12-20T09:13:00Z</time>
      </trkpt>
      <trkpt lat="47.88576" lon="-1.08505">
        <ele>86.6</ele>
        <time>2020-12-20T09:13:01Z</time>
      </trkpt>
      <trkpt lat="47.88574" lon="-1.085">
        <ele>86.8</ele>
        <time>2020-12-20T09:13:02Z</time>
      </trkpt>
      <trkpt lat="47.88572" lon="-1.08495">
        <ele>87.1</ele>
        <time>2020-12-20T09:13:03Z</time>
      </trkpt>
      <trkpt lat="47.8857" lon="-1.0849">
        <ele>87.3</ele>
        <time>2020-12-20T09:13:04Z</time>
      </trkpt>
      <trkpt lat="47.88568" lon="-1.08485">
        <ele>87.6</ele>
        <time>2020-12-20T09:13:05Z</time>
      </trkpt>
      <trkpt lat="47.88565" lon="-1.0848">
        <ele>88</ele>
        <time>2020-12-20T09:13:06Z</time>
      </trkpt>
      <trkpt lat="47.88563" lon="-1.08475">
        <ele>88.2</ele>
        <time>2020-12-20T09:13:07Z</time>
      </trkpt>
      <trkpt lat="47.8856" lon="-1.0847">
        <ele>88.6</ele>
        <time>2020-12-20T09:13:08Z</time>
      </trkpt>
      <trkpt lat="47.88558" lon="-1.08464">
        <ele>88.9</ele>
        <time>2020-12-20T09:13:09Z</time>
      </trkpt>
      <trkpt lat="47.88556" lon="-1.08459">
        <ele>89.1</ele>
        <time>2020-12-20T09:13:10Z</time>
      </trkpt>
      <trkpt lat="47.88553" lon="-1.08454">
        <ele>89.5</ele>
        <time>2020-12-20T09:13:11Z</time>
      </trkpt>
      <trkpt lat="47.88551" lon="-1.08448">
        <ele>89.7</ele>
        <time>2020-12-20T09:13:12Z</time>
      </trkpt>
      <trkpt lat="47.88549" lon="-1.08443">
        <ele>90</ele>
        <time>2020-12-20T09:13:13Z</time>
      </trkpt>
      <trkpt lat="47.88547" lon="-1.08438">
        <ele>90.2</ele>
        <time>2020-12-20T09:13:14Z</time>
      </trkpt>
      <trkpt lat="47.88545" lon="-1.08434">
        <ele>90.4</ele>
        <time>2020-12-20T09:13:15Z</time>
      </trkpt>
      <trkpt lat="47.88543" lon="-1.08429">
        <ele>90.7</ele>
        <time>2020-12-20T09:13:16Z</time>
      </trkpt>
      <trkpt lat="47.8854" lon="-1.08424">
        <ele>91</ele>
        <time>2020-12-20T09:13:17Z</time>
      </trkpt>
      <trkpt lat="47.88538" lon="-1.08419">
        <ele>91.2</ele>
        <time>2020-12-20T09:13:18Z</time>
      </trkpt>
      <trkpt lat="47.88536" lon="-1.08414">
        <ele>91.4</ele>
        <time>2020-12-20T09:13:19Z</time>
      </trkpt>
      <trkpt lat="47.88534" lon="-1.08409">
        <ele>91.5</ele>
        <time>2020-12-20T09:13:20Z</time>
      </trkpt>
      <trkpt lat="47.88532" lon="-1.08404">
        <ele>91.6</ele>
        <time>2020-12-20T09:13:21Z</time>
      </trkpt>
      <trkpt lat="47.8853" lon="-1.08399">
        <ele>91.6</ele>
        <time>2020-12-20T09:13:22Z</time>
      </trkpt>
      <trkpt lat="47.88527" lon="-1.08394">
        <ele>91.8</ele>
        <time>2020-12-20T09:13:23Z</time>
      </trkpt>
      <trkpt lat="47.88525" lon="-1.08389">
        <ele>91.8</ele>
        <time>2020-12-20T09:13:24Z</time>
      </trkpt>
      <trkpt lat="47.88523" lon="-1.08383">
        <ele>91.9</ele>
        <time>2020-12-20T09:13:25Z</time>
      </trkpt>
      <trkpt lat="47.88521" lon="-1.08378">
        <ele>91.9</ele>
        <time>2020-12-20T09:13:26Z</time>
      </trkpt>
      <trkpt lat="47.88519" lon="-1.08372">
        <ele>91.9</ele>
        <time>2020-12-20T09:13:27Z</time>
      </trkpt>
      <trkpt lat="47.88516" lon="-1.08366">
        <ele>92</ele>
        <time>2020-12-20T09:13:28Z</time>
      </trkpt>
      <trkpt lat="47.88514" lon="-1.08359">
        <ele>92</ele>
        <time>2020-12-20T09:13:29Z</time>
      </trkpt>
      <trkpt lat="47.88512" lon="-1.08353">
        <ele>91.9</ele>
        <time>2020-12-20T09:13:30Z</time>
      </trkpt>
      <trkpt lat="47.88509" lon="-1.08347">
        <ele>92</ele>
        <time>2020-12-20T09:13:31Z</time>
      </trkpt>
      <trkpt lat="47.88507" lon="-1.0834">
        <ele>91.9</ele>
        <time>2020-12-20T09:13:32Z</time>
      </trkpt>
      <trkpt lat="47.88505" lon="-1.08333">
        <ele>91.8</ele>
        <time>2020-12-20T09:13:33Z</time>
      </trkpt>
      <trkpt lat="47.88502" lon="-1.08326">
        <ele>91.7</ele>
        <time>2020-12-20T09:13:34Z</time>
      </trkpt>
      <trkpt lat="47.885" lon="-1.08319">
        <ele>91.5</ele>
        <time>2020-12-20T09:13:35Z</time>
      </trkpt>
      <trkpt lat="47.88497" lon="-1.08311">
        <ele>91.2</ele>
        <time>2020-12-20T09:13:36Z</time>
      </trkpt>
      <trkpt lat="47.88495" lon="-1.08304">
        <ele>91</ele>
        <time>2020-12-20T09:13:37Z</time>
      </trkpt>
      <trkpt lat="47.88492" lon="-1.08296">
        <ele>90.8</ele>
        <time>2020-12-20T09:13:38Z</time>
      </trkpt>
      <trkpt lat="47.8849" lon="-1.08289">
        <ele>90.6</ele>
        <time>2020-12-20T09:13:39Z</time>
      </trkpt>
      <trkpt lat="47.88487" lon="-1.08282">
        <ele>90.4</ele>
        <time>2020-12-20T09:13:40Z</time>
      </trkpt>
      <trkpt lat="47.88485" lon="-1.08274">
        <ele>90.2</ele>
        <time>2020-12-20T09:13:41Z</time>
      </trkpt>
      <trkpt lat="47.88482" lon="-1.08266">
        <ele>90.1</ele>
        <time>2020-12-20T09:13:42Z</time>
      </trkpt>
      <trkpt lat="47.8848" lon="-1.08258">
        <ele>89.9</ele>
        <time>2020-12-20T09:13:43Z</time>
      </trkpt>
      <trkpt lat="47.88477" lon="-1.08249">
        <ele>89.8</ele>
        <time>2020-12-20T09:13:44Z</time>
      </trkpt>
      <trkpt lat="47.88475" lon="-1.08241">
        <ele>89.6</ele>
        <time>2020-12-20T09:13:45Z</time>
      </trkpt>
      <trkpt lat="47.88472" lon="-1.08233">
        <ele>89.5</ele>
        <time>2020-12-20T09:13:46Z</time>
      </trkpt>
      <trkpt lat="47.8847" lon="-1.08224">
        <ele>89.2</ele>
        <time>2020-12-20T09:13:47Z</time>
      </trkpt>
      <trkpt lat="47.88468" lon="-1.08216">
        <ele>89</ele>
        <time>2020-12-20T09:13:48Z</time>
      </trkpt>
      <trkpt lat="47.88466" lon="-1.08207">
        <ele>88.8</ele>
        <time>2020-12-20T09:13:49Z</time>
      </trkpt>
      <trkpt lat="47.88463" lon="-1.08199">
        <ele>88.6</ele>
        <time>2020-12-20T09:13:50Z</time>
      </trkpt>
      <trkpt lat="47.88461" lon="-1.0819">
        <ele>88.3</ele>
        <time>2020-12-20T09:13:51Z</time>
      </trkpt>
      <trkpt lat="47.88459" lon="-1.08182">
        <ele>88</ele>
        <time>2020-12-20T09:13:52Z</time>
      </trkpt>
      <trkpt lat="47.88457" lon="-1.08173">
        <ele>87.7</ele>
        <time>2020-12-20T09:13:53Z</time>
      </trkpt>
      <trkpt lat="47.88455" lon="-1.08165">
        <ele>87.5</ele>
        <time>2020-12-20T09:13:54Z</time>
      </trkpt>
      <trkpt lat="47.88453" lon="-1.08157">
        <ele>87.3</ele>
        <time>2020-12-20T09:13:55Z</time>
      </trkpt>
      <trkpt lat="47.88451" lon="-1.08149">
        <ele>87</ele>
        <time>2020-12-20T09:13:56Z</time>
      </trkpt>
      <trkpt lat="47.8845" lon="-1.0814">
        <ele>86.7</ele>
        <time>2020-12-20T09:13:57Z</time>
      </trkpt>
      <trkpt lat="47.88448" lon="-1.08132">
        <ele>86.4</ele>
        <time>2020-12-20T09:13:58Z</time>
      </trkpt>
      <trkpt lat="47.88446" lon="-1.08123">
        <ele>86.1</ele>
        <time>2020-12-20T09:13:59Z</time>
      </trkpt>
      <trkpt lat="47.88445" lon="-1.08114">
        <ele>85.8</ele>
        <time>2020-12-20T09:14:00Z</time>
      </trkpt>
      <trkpt lat="47.88443" lon="-1.08106">
        <ele>85.5</ele>
        <time>2020-12-20T09:14:01Z</time>
      </trkpt>
      <trkpt lat="47.88442" lon="-1.08097">
        <ele>85.1</ele>
        <time>2020-12-20T09:14:02Z</time>
      </trkpt>
      <trkpt lat="47.8844" lon="-1.08088">
        <ele>84.7</ele>
        <time>2020-12-20T09:14:03Z</time>
      </trkpt>
      <trkpt lat="47.88439" lon="-1.08079">
        <ele>84.4</ele>
        <time>2020-12-20T09:14:04Z</time>
      </trkpt>
      <trkpt lat="47.88438" lon="-1.0807">
        <ele>84</ele>
        <time>2020-12-20T09:14:05Z</time>
      </trkpt>
      <trkpt lat="47.88436" lon="-1.08061">
        <ele>83.6</ele>
        <time>2020-12-20T09:14:06Z</time>
      </trkpt>
      <trkpt lat="47.88435" lon="-1.08051">
        <ele>83.2</ele>
        <time>2020-12-20T09:14:07Z</time>
      </trkpt>
      <trkpt lat="47.88433" lon="-1.0804">
        <ele>82.7</ele>
        <time>2020-12-20T09:14:08Z</time>
      </trkpt>
      <trkpt lat="47.88432" lon="-1.08029">
        <ele>82.3</ele>
        <time>2020-12-20T09:14:09Z</time>
      </trkpt>
      <trkpt lat="47.88431" lon="-1.08018">
        <ele>81.9</ele>
        <time>2020-12-20T09:14:10Z</time>
      </trkpt>
      <trkpt lat="47.8843" lon="-1.08005">
        <ele>81.3</ele>
        <time>2020-12-20T09:14:11Z</time>
      </trkpt>
      <trkpt lat="47.8843" lon="-1.07992">
        <ele>80.9</ele>
        <time>2020-12-20T09:14:12Z</time>
      </trkpt>
      <trkpt lat="47.8843" lon="-1.07978">
        <ele>80.4</ele>
        <time>2020-12-20T09:14:13Z</time>
      </trkpt>
      <trkpt lat="47.88429" lon="-1.07964">
        <ele>79.9</ele>
        <time>2020-12-20T09:14:14Z</time>
      </trkpt>
      <trkpt lat="47.8843" lon="-1.07949">
        <ele>79.4</ele>
        <time>2020-12-20T09:14:15Z</time>
      </trkpt>
      <trkpt lat="47.8843" lon="-1.07934">
        <ele>78.9</ele>
        <time>2020-12-20T09:14:16Z</time>
      </trkpt>
      <trkpt lat="47.8843" lon="-1.07919">
        <ele>78.4</ele>
        <time>2020-12-20T09:14:17Z</time>
      </trkpt>
      <trkpt lat="47.88431" lon="-1.07903">
        <ele>77.7</ele>
        <time>2020-12-20T09:14:18Z</time>
      </trkpt>
      <trkpt lat="47.88431" lon="-1.07887">
        <ele>76.9</ele>
        <time>2020-12-20T09:14:19Z</time>
      </trkpt>
      <trkpt lat="47.88432" lon="-1.0787">
        <ele>76</ele>
        <time>2020-12-20T09:14:20Z</time>
      </trkpt>
      <trkpt lat="47.88433" lon="-1.07852">
        <ele>75.1</ele>
        <time>2020-12-20T09:14:21Z</time>
      </trkpt>
      <trkpt lat="47.88433" lon="-1.07835">
        <ele>74.3</ele>
        <time>2020-12-20T09:14:22Z</time>
      </trkpt>
      <trkpt lat="47.88434" lon="-1.07817">
        <ele>73.2</ele>
        <time>2020-12-20T09:14:23Z</time>
      </trkpt>
      <trkpt lat="47.88434" lon="-1.07799">
        <ele>72.1</ele>
        <time>2020-12-20T09:14:24Z</time>
      </trkpt>
      <trkpt lat="47.88434" lon="-1.0778">
        <ele>71</ele>
        <time>2020-12-20T09:14:25Z</time>
      </trkpt>
      <trkpt lat="47.88434" lon="-1.07762">
        <ele>69.9</ele>
        <time>2020-12-20T09:14:26Z</time>
      </trkpt>
      <trkpt lat="47.88435" lon="-1.07742">
        <ele>69.1</ele>
        <time>2020-12-20T09:14:27Z</time>
      </trkpt>
      <trkpt lat="47.88435" lon="-1.07723">
        <ele>68.8</ele>
        <time>2020-12-20T09:14:28Z</time>
      </trkpt>
      <trkpt lat="47.88435" lon="-1.07704">
        <ele>68.4</ele>
        <time>2020-12-20T09:14:29Z</time>
      </trkpt>
      <trkpt lat="47.88435" lon="-1.07684">
        <ele>68.1</ele>
        <time>2020-12-20T09:14:30Z</time>
      </trkpt>
      <trkpt lat="47.88435" lon="-1.07666">
        <ele>67.7</ele>
        <time>2020-12-20T09:14:31Z</time>
      </trkpt>
      <trkpt lat="47.88435" lon="-1.07647">
        <ele>66.8</ele>
        <time>2020-12-20T09:14:32Z</time>
      </trkpt>
      <trkpt lat="47.88435" lon="-1.07628">
        <ele>65.9</ele>
        <time>2020-12-20T09:14:33Z</time>
      </trkpt>
      <trkpt lat="47.88435" lon="-1.0761">
        <ele>65.1</ele>
        <time>2020-12-20T09:14:34Z</time>
      </trkpt>
      <trkpt lat="47.88435" lon="-1.07592">
        <ele>64.2</ele>
        <time>2020-12-20T09:14:35Z</time>
      </trkpt>
      <trkpt lat="47.88436" lon="-1.07575">
        <ele>63.5</ele>
        <time>2020-12-20T09:14:36Z</time>
      </trkpt>
      <trkpt lat="47.88436" lon="-1.07559">
        <ele>63.1</ele>
        <time>2020-12-20T09:14:37Z</time>
      </trkpt>
      <trkpt lat="47.88436" lon="-1.07542">
        <ele>62.7</ele>
        <time>2020-12-20T09:14:38Z</time>
      </trkpt>
      <trkpt lat="47.88436" lon="-1.07526">
        <ele>62.2</ele>
        <time>2020-12-20T09:14:39Z</time>
      </trkpt>
      <trkpt lat="47.88436" lon="-1.07511">
        <ele>61.8</ele>
        <time>2020-12-20T09:14:40Z</time>
      </trkpt>
      <trkpt lat="47.88436" lon="-1.07496">
        <ele>61.5</ele>
        <time>2020-12-20T09:14:41Z</time>
      </trkpt>
      <trkpt lat="47.88436" lon="-1.0748">
        <ele>61.1</ele>
        <time>2020-12-20T09:14:42Z</time>
      </trkpt>
      <trkpt lat="47.88437" lon="-1.07466">
        <ele>60.8</ele>
        <time>2020-12-20T09:14:43Z</time>
      </trkpt>
      <trkpt lat="47.88437" lon="-1.07451">
        <ele>60.5</ele>
        <time>2020-12-20T09:14:44Z</time>
      </trkpt>
      <trkpt lat="47.88437" lon="-1.07436">
        <ele>60.2</ele>
        <time>2020-12-20T09:14:45Z</time>
      </trkpt>
      <trkpt lat="47.88438" lon="-1.07422">
        <ele>59.9</ele>
        <time>2020-12-20T09:14:46Z</time>
      </trkpt>
      <trkpt lat="47.88438" lon="-1.07408">
        <ele>59.5</ele>
        <time>2020-12-20T09:14:47Z</time>
      </trkpt>
      <trkpt lat="47.88438" lon="-1.07394">
        <ele>59.1</ele>
        <time>2020-12-20T09:14:48Z</time>
      </trkpt>
      <trkpt lat="47.88438" lon="-1.0738">
        <ele>58.8</ele>
        <time>2020-12-20T09:14:49Z</time>
      </trkpt>
      <trkpt lat="47.88438" lon="-1.07366">
        <ele>58.4</ele>
        <time>2020-12-20T09:14:50Z</time>
      </trkpt>
      <trkpt lat="47.88438" lon="-1.07352">
        <ele>58</ele>
        <time>2020-12-20T09:14:51Z</time>
      </trkpt>
      <trkpt lat="47.88438" lon="-1.07337">
        <ele>57.6</ele>
        <time>2020-12-20T09:14:52Z</time>
      </trkpt>
      <trkpt lat="47.88438" lon="-1.07323">
        <ele>57.2</ele>
        <time>2020-12-20T09:14:53Z</time>
      </trkpt>
      <trkpt lat="47.88438" lon="-1.07309">
        <ele>56.9</ele>
        <time>2020-12-20T09:14:54Z</time>
      </trkpt>
      <trkpt lat="47.88438" lon="-1.07295">
        <ele>56.6</ele>
        <time>2020-12-20T09:14:55Z</time>
      </trkpt>
      <trkpt lat="47.88438" lon="-1.07282">
        <ele>56.3</ele>
        <time>2020-12-20T09:14:56Z</time>
      </trkpt>
      <trkpt lat="47.88438" lon="-1.07268">
        <ele>55.9</ele>
        <time>2020-12-20T09:14:57Z</time>
      </trkpt>
      <trkpt lat="47.88438" lon="-1.07254">
        <ele>55.6</ele>
        <time>2020-12-20T09:14:58Z</time>
      </trkpt>
      <trkpt lat="47.88438" lon="-1.07241">
        <ele>55.5</ele>
        <time>2020-12-20T09:14:59Z</time>
      </trkpt>
      <trkpt lat="47.88438" lon="-1.07228">
        <ele>55.6</ele>
        <time>2020-12-20T09:15:00Z</time>
      </trkpt>
      <trkpt lat="47.88438" lon="-1.07216">
        <ele>55.6</ele>
        <time>2020-12-20T09:15:01Z</time>
      </trkpt>
      <trkpt lat="47.88438" lon="-1.07204">
        <ele>55.6</ele>
        <time>2020-12-20T09:15:02Z</time>
      </trkpt>
      <trkpt lat="47.88438" lon="-1.07192">
        <ele>55.7</ele>
        <time>2020-12-20T09:15:03Z</time>
      </trkpt>
      <trkpt lat="47.88438" lon="-1.07181">
        <ele>55.7</ele>
        <time>2020-12-20T09:15:04Z</time>
      </trkpt>
      <trkpt lat="47.88438" lon="-1.07171">
        <ele>55.7</ele>
        <time>2020-12-20T09:15:05Z</time>
      </trkpt>
      <trkpt lat="47.88438" lon="-1.0716">
        <ele>55.8</ele>
        <time>2020-12-20T09:15:06Z</time>
      </trkpt>
      <trkpt lat="47.88438" lon="-1.07151">
        <ele>55.9</ele>
        <time>2020-12-20T09:15:07Z</time>
      </trkpt>
      <trkpt lat="47.88438" lon="-1.07141">
        <ele>56.1</ele>
        <time>2020-12-20T09:15:08Z</time>
      </trkpt>
      <trkpt lat="47.88438" lon="-1.07132">
        <ele>56.2</ele>
        <time>2020-12-20T09:15:09Z</time>
      </trkpt>
      <trkpt lat="47.88438" lon="-1.07124">
        <ele>56.3</ele>
        <time>2020-12-20T09:15:10Z</time>
      </trkpt>
      <trkpt lat="47.88438" lon="-1.07115">
        <ele>56.4</ele>
        <time>2020-12-20T09:15:11Z</time>
      </trkpt>
      <trkpt lat="47.88439" lon="-1.07107">
        <ele>56.5</ele>
        <time>2020-12-20T09:15:12Z</time>
      </trkpt>
      <trkpt lat="47.88438" lon="-1.07099">
        <ele>56.6</ele>
        <time>2020-12-20T09:15:13Z</time>
      </trkpt>
      <trkpt lat="47.88438" lon="-1.07092">
        <ele>56.7</ele>
        <time>2020-12-20T09:15:14Z</time>
      </trkpt>
      <trkpt lat="47.88438" lon="-1.07084">
        <ele>56.8</ele>
        <time>2020-12-20T09:15:15Z</time>
      </trkpt>
      <trkpt lat="47.88438" lon="-1.07077">
        <ele>57</ele>
        <time>2020-12-20T09:15:16Z</time>
      </trkpt>
      <trkpt lat="47.88438" lon="-1.0707">
        <ele>57.3</ele>
        <time>2020-12-20T09:15:17Z</time>
      </trkpt>
      <trkpt lat="47.88439" lon="-1.07063">
        <ele>57.6</ele>
        <time>2020-12-20T09:15:18Z</time>
      </trkpt>
      <trkpt lat="47.88439" lon="-1.07056">
        <ele>57.8</ele>
        <time>2020-12-20T09:15:19Z</time>
      </trkpt>
      <trkpt lat="47.88438" lon="-1.07049">
        <ele>58</ele>
        <time>2020-12-20T09:15:20Z</time>
      </trkpt>
      <trkpt lat="47.88438" lon="-1.07043">
        <ele>58.2</ele>
        <time>2020-12-20T09:15:21Z</time>
      </trkpt>
      <trkpt lat="47.88438" lon="-1.07036">
        <ele>58.5</ele>
        <time>2020-12-20T09:15:22Z</time>
      </trkpt>
      <trkpt lat="47.88437" lon="-1.0703">
        <ele>58.6</ele>
        <time>2020-12-20T09:15:23Z</time>
      </trkpt>
      <trkpt lat="47.88437" lon="-1.07025">
        <ele>58.8</ele>
        <time>2020-12-20T09:15:24Z</time>
      </trkpt>
      <trkpt lat="47.88437" lon="-1.07019">
        <ele>59</ele>
        <time>2020-12-20T09:15:25Z</time>
      </trkpt>
      <trkpt lat="47.88437" lon="-1.07013">
        <ele>59.2</ele>
        <time>2020-12-20T09:15:26Z</time>
      </trkpt>
      <trkpt lat="47.88437" lon="-1.07008">
        <ele>59.4</ele>
        <time>2020-12-20T09:15:27Z</time>
      </trkpt>
      <trkpt lat="47.88436" lon="-1.07003">
        <ele>59.5</ele>
        <time>2020-12-20T09:15:28Z</time>
      </trkpt>
      <trkpt lat="47.88436" lon="-1.06998">
        <ele>59.7</ele>
        <time>2020-12-20T09:15:29Z</time>
      </trkpt>
      <trkpt lat="47.88435" lon="-1.06993">
        <ele>60</ele>
        <time>2020-12-20T09:15:30Z</time>
      </trkpt>
      <trkpt lat="47.88435" lon="-1.06988">
        <ele>60.3</ele>
        <time>2020-12-20T09:15:31Z</time>
      </trkpt>
      <trkpt lat="47.88434" lon="-1.06983">
        <ele>60.5</ele>
        <time>2020-12-20T09:15:32Z</time>
      </trkpt>
      <trkpt lat="47.88434" lon="-1.06978">
        <ele>60.8</ele>
        <time>2020-12-20T09:15:33Z</time>
      </trkpt>
      <trkpt lat="47.88434" lon="-1.06974">
        <ele>61</ele>
        <time>2020-12-20T09:15:34Z</time>
      </trkpt>
      <trkpt lat="47.88433" lon="-1.0697">
        <ele>61.2</ele>
        <time>2020-12-20T09:15:35Z</time>
      </trkpt>
      <trkpt lat="47.88433" lon="-1.06966">
        <ele>61.4</ele>
        <time>2020-12-20T09:15:36Z</time>
      </trkpt>
      <trkpt lat="47.88432" lon="-1.06962">
        <ele>61.6</ele>
        <time>2020-12-20T09:15:37Z</time>
      </trkpt>
      <trkpt lat="47.88432" lon="-1.06957">
        <ele>61.9</ele>
        <time>2020-12-20T09:15:38Z</time>
      </trkpt>
      <trkpt lat="47.88431" lon="-1.06952">
        <ele>62.1</ele>
        <time>2020-12-20T09:15:39Z</time>
      </trkpt>
      <trkpt lat="47.8843" lon="-1.06947">
        <ele>62.3</ele>
        <time>2020-12-20T09:15:40Z</time>
      </trkpt>
      <trkpt lat="47.88429" lon="-1.06942">
        <ele>62.5</ele>
        <time>2020-12-20T09:15:41Z</time>
      </trkpt>
      <trkpt lat="47.88428" lon="-1.06937">
        <ele>62.7</ele>
        <time>2020-12-20T09:15:42Z</time>
      </trkpt>
      <trkpt lat="47.88427" lon="-1.06933">
        <ele>62.9</ele>
        <time>2020-12-20T09:15:43Z</time>
      </trkpt>
      <trkpt lat="47.88425" lon="-1.06928">
        <ele>63</ele>
        <time>2020-12-20T09:15:44Z</time>
      </trkpt>
      <trkpt lat="47.88424" lon="-1.06923">
        <ele>63.2</ele>
        <time>2020-12-20T09:15:45Z</time>
      </trkpt>
      <trkpt lat="47.88423" lon="-1.06919">
        <ele>63.4</ele>
        <time>2020-12-20T09:15:46Z</time>
      </trkpt>
      <trkpt lat="47.88422" lon="-1.06915">
        <ele>63.6</ele>
        <time>2020-12-20T09:15:47Z</time>
      </trkpt>
      <trkpt lat="47.8842" lon="-1.0691">
        <ele>63.8</ele>
        <time>2020-12-20T09:15:48Z</time>
      </trkpt>
      <trkpt lat="47.88419" lon="-1.06905">
        <ele>64</ele>
        <time>2020-12-20T09:15:49Z</time>
      </trkpt>
      <trkpt lat="47.88417" lon="-1.06901">
        <ele>64.2</ele>
        <time>2020-12-20T09:15:50Z</time>
      </trkpt>
      <trkpt lat="47.88416" lon="-1.06897">
        <ele>64.4</ele>
        <time>2020-12-20T09:15:51Z</time>
      </trkpt>
      <trkpt lat="47.88415" lon="-1.06894">
        <ele>64.6</ele>
        <time>2020-12-20T09:15:52Z</time>
      </trkpt>
      <trkpt lat="47.88413" lon="-1.0689">
        <ele>64.7</ele>
        <time>2020-12-20T09:15:53Z</time>
      </trkpt>
      <trkpt lat="47.88412" lon="-1.06887">
        <ele>64.9</ele>
        <time>2020-12-20T09:15:54Z</time>
      </trkpt>
      <trkpt lat="47.88411" lon="-1.06884">
        <ele>65.1</ele>
        <time>2020-12-20T09:15:55Z</time>
      </trkpt>
      <trkpt lat="47.88409" lon="-1.0688">
        <ele>65.3</ele>
        <time>2020-12-20T09:15:56Z</time>
      </trkpt>
      <trkpt lat="47.88408" lon="-1.06877">
        <ele>65.4</ele>
        <time>2020-12-20T09:15:57Z</time>
      </trkpt>
      <trkpt lat="47.88406" lon="-1.06873">
        <ele>65.6</ele>
        <time>2020-12-20T09:15:58Z</time>
      </trkpt>
      <trkpt lat="47.88404" lon="-1.06868">
        <ele>65.9</ele>
        <time>2020-12-20T09:15:59Z</time>
      </trkpt>
      <trkpt lat="47.88403" lon="-1.06865">
        <ele>66.1</ele>
        <time>2020-12-20T09:16:00Z</time>
      </trkpt>
      <trkpt lat="47.88403" lon="-1.06862">
        <ele>66.3</ele>
        <time>2020-12-20T09:16:01Z</time>
      </trkpt>
      <trkpt lat="47.88401" lon="-1.06859">
        <ele>66.4</ele>
        <time>2020-12-20T09:16:02Z</time>
      </trkpt>
      <trkpt lat="47.884" lon="-1.06855">
        <ele>66.6</ele>
        <time>2020-12-20T09:16:03Z</time>
      </trkpt>
      <trkpt lat="47.88399" lon="-1.06851">
        <ele>66.9</ele>
        <time>2020-12-20T09:16:04Z</time>
      </trkpt>
      <trkpt lat="47.88398" lon="-1.06849">
        <ele>67</ele>
        <time>2020-12-20T09:16:05Z</time>
      </trkpt>
      <trkpt lat="47.88396" lon="-1.06845">
        <ele>67.2</ele>
        <time>2020-12-20T09:16:06Z</time>
      </trkpt>
      <trkpt lat="47.88394" lon="-1.0684">
        <ele>67.4</ele>
        <time>2020-12-20T09:16:07Z</time>
      </trkpt>
      <trkpt lat="47.88392" lon="-1.06836">
        <ele>67.6</ele>
        <time>2020-12-20T09:16:08Z</time>
      </trkpt>
      <trkpt lat="47.88391" lon="-1.06832">
        <ele>67.9</ele>
        <time>2020-12-20T09:16:09Z</time>
      </trkpt>
      <trkpt lat="47.88389" lon="-1.06828">
        <ele>68.2</ele>
        <time>2020-12-20T09:16:10Z</time>
      </trkpt>
      <trkpt lat="47.88387" lon="-1.06823">
        <ele>68.7</ele>
        <time>2020-12-20T09:16:11Z</time>
      </trkpt>
      <trkpt lat="47.88385" lon="-1.06818">
        <ele>69.2</ele>
        <time>2020-12-20T09:16:12Z</time>
      </trkpt>
      <trkpt lat="47.88383" lon="-1.06814">
        <ele>69.5</ele>
        <time>2020-12-20T09:16:13Z</time>
      </trkpt>
      <trkpt lat="47.88381" lon="-1.0681">
        <ele>69.9</ele>
        <time>2020-12-20T09:16:14Z</time>
      </trkpt>
      <trkpt lat="47.88379" lon="-1.06806">
        <ele>70.3</ele>
        <time>2020-12-20T09:16:15Z</time>
      </trkpt>
      <trkpt lat="47.88378" lon="-1.06802">
        <ele>70.7</ele>
        <time>2020-12-20T09:16:16Z</time>
      </trkpt>
      <trkpt lat="47.88375" lon="-1.06798">
        <ele>71</ele>
        <time>2020-12-20T09:16:17Z</time>
      </trkpt>
      <trkpt lat="47.88373" lon="-1.06793">
        <ele>71.5</ele>
        <time>2020-12-20T09:16:18Z</time>
      </trkpt>
      <trkpt lat="47.8837" lon="-1.06789">
        <ele>71.9</ele>
        <time>2020-12-20T09:16:19Z</time>
      </trkpt>
      <trkpt lat="47.88368" lon="-1.06784">
        <ele>72.4</ele>
        <time>2020-12-20T09:16:20Z</time>
      </trkpt>
      <trkpt lat="47.88366" lon="-1.06779">
        <ele>73</ele>
        <time>2020-12-20T09:16:21Z</time>
      </trkpt>
      <trkpt lat="47.88363" lon="-1.06775">
        <ele>73.4</ele>
        <time>2020-12-20T09:16:22Z</time>
      </trkpt>
      <trkpt lat="47.88362" lon="-1.06771">
        <ele>73.8</ele>
        <time>2020-12-20T09:16:23Z</time>
      </trkpt>
      <trkpt lat="47.8836" lon="-1.06767">
        <ele>74.3</ele>
        <time>2020-12-20T09:16:24Z</time>
      </trkpt>
      <trkpt lat="47.88358" lon="-1.06764">
        <ele>74.6</ele>
        <time>2020-12-20T09:16:25Z</time>
      </trkpt>
      <trkpt lat="47.88356" lon="-1.0676">
        <ele>75</ele>
        <time>2020-12-20T09:16:26Z</time>
      </trkpt>
      <trkpt lat="47.88353" lon="-1.06755">
        <ele>75.6</ele>
        <time>2020-12-20T09:16:27Z</time>
      </trkpt>
      <trkpt lat="47.88351" lon="-1.0675">
        <ele>76.2</ele>
        <time>2020-12-20T09:16:28Z</time>
      </trkpt>
      <trkpt lat="47.88348" lon="-1.06746">
        <ele>76.5</ele>
        <time>2020-12-20T09:16:29Z</time>
      </trkpt>
      <trkpt lat="47.88346" lon="-1.06743">
        <ele>76.7</ele>
        <time>2020-12-20T09:16:30Z</time>
      </trkpt>
      <trkpt lat="47.88343" lon="-1.06738">
        <ele>77.1</ele>
        <time>2020-12-20T09:16:31Z</time>
      </trkpt>
      <trkpt lat="47.88339" lon="-1.06733">
        <ele>77.5</ele>
        <time>2020-12-20T09:16:32Z</time>
      </trkpt>
      <trkpt lat="47.88337" lon="-1.0673">
        <ele>77.7</ele>
        <time>2020-12-20T09:16:33Z</time>
      </trkpt>
      <trkpt lat="47.88336" lon="-1.06726">
        <ele>78</ele>
        <time>2020-12-20T09:16:34Z</time>
      </trkpt>
      <trkpt lat="47.88334" lon="-1.06723">
        <ele>78.3</ele>
        <time>2020-12-20T09:16:35Z</time>
      </trkpt>
      <trkpt lat="47.88333" lon="-1.0672">
        <ele>78.5</ele>
        <time>2020-12-20T09:16:36Z</time>
      </trkpt>
      <trkpt lat="47.8833" lon="-1.06715">
        <ele>78.8</ele>
        <time>2020-12-20T09:16:37Z</time>
      </trkpt>
      <trkpt lat="47.88328" lon="-1.06711">
        <ele>79.1</ele>
        <time>2020-12-20T09:16:38Z</time>
      </trkpt>
      <trkpt lat="47.88326" lon="-1.06708">
        <ele>79.3</ele>
        <time>2020-12-20T09:16:39Z</time>
      </trkpt>
      <trkpt lat="47.88325" lon="-1.06706">
        <ele>79.4</ele>
        <time>2020-12-20T09:16:40Z</time>
      </trkpt>
      <trkpt lat="47.88323" lon="-1.06703">
        <ele>79.6</ele>
        <time>2020-12-20T09:16:41Z</time>
      </trkpt>
      <trkpt lat="47.88321" lon="-1.06699">
        <ele>79.9</ele>
        <time>2020-12-20T09:16:42Z</time>
      </trkpt>
      <trkpt lat="47.88319" lon="-1.06694">
        <ele>80.2</ele>
        <time>2020-12-20T09:16:43Z</time>
      </trkpt>
      <trkpt lat="47.88316" lon="-1.06689">
        <ele>80.6</ele>
        <time>2020-12-20T09:16:44Z</time>
      </trkpt>
      <trkpt lat="47.88314" lon="-1.06685">
        <ele>80.8</ele>
        <time>2020-12-20T09:16:45Z</time>
      </trkpt>
      <trkpt lat="47.88311" lon="-1.06681">
        <ele>81</ele>
        <time>2020-12-20T09:16:46Z</time>
      </trkpt>
      <trkpt lat="47.88309" lon="-1.06677">
        <ele>81.3</ele>
        <time>2020-12-20T09:16:47Z</time>
      </trkpt>
      <trkpt lat="47.88306" lon="-1.06673">
        <ele>81.5</ele>
        <time>2020-12-20T09:16:48Z</time>
      </trkpt>
      <trkpt lat="47.88304" lon="-1.06669">
        <ele>81.8</ele>
        <time>2020-12-20T09:16:49Z</time>
      </trkpt>
      <trkpt lat="47.88301" lon="-1.06665">
        <ele>81.9</ele>
        <time>2020-12-20T09:16:50Z</time>
      </trkpt>
      <trkpt lat="47.88299" lon="-1.06661">
        <ele>81.9</ele>
        <time>2020-12-20T09:16:51Z</time>
      </trkpt>
      <trkpt lat="47.88296" lon="-1.06658">
        <ele>81.9</ele>
        <time>2020-12-20T09:16:52Z</time>
      </trkpt>
      <trkpt lat="47.88294" lon="-1.06653">
        <ele>81.9</ele>
        <time>2020-12-20T09:16:53Z</time>
      </trkpt>
      <trkpt lat="47.88291" lon="-1.06648">
        <ele>81.9</ele>
        <time>2020-12-20T09:16:54Z</time>
      </trkpt>
      <trkpt lat="47.8829" lon="-1.06644">
        <ele>82</ele>
        <time>2020-12-20T09:16:55Z</time>
      </trkpt>
      <trkpt lat="47.88288" lon="-1.0664">
        <ele>82</ele>
        <time>2020-12-20T09:16:56Z</time>
      </trkpt>
      <trkpt lat="47.88285" lon="-1.06636">
        <ele>82</ele>
        <time>2020-12-20T09:16:57Z</time>
      </trkpt>
      <trkpt lat="47.88283" lon="-1.06632">
        <ele>82</ele>
        <time>2020-12-20T09:16:58Z</time>
      </trkpt>
      <trkpt lat="47.8828" lon="-1.06627">
        <ele>82</ele>
        <time>2020-12-20T09:16:59Z</time>
      </trkpt>
      <trkpt lat="47.88277" lon="-1.06621">
        <ele>82.1</ele>
        <time>2020-12-20T09:17:00Z</time>
      </trkpt>
      <trkpt lat="47.88275" lon="-1.06617">
        <ele>82.1</ele>
        <time>2020-12-20T09:17:01Z</time>
      </trkpt>
      <trkpt lat="47.88273" lon="-1.06613">
        <ele>82.1</ele>
        <time>2020-12-20T09:17:02Z</time>
      </trkpt>
      <trkpt lat="47.88271" lon="-1.06609">
        <ele>82.1</ele>
        <time>2020-12-20T09:17:03Z</time>
      </trkpt>
      <trkpt lat="47.88269" lon="-1.06605">
        <ele>82.2</ele>
        <time>2020-12-20T09:17:04Z</time>
      </trkpt>
      <trkpt lat="47.88267" lon="-1.06602">
        <ele>82.2</ele>
        <time>2020-12-20T09:17:05Z</time>
      </trkpt>
      <trkpt lat="47.88266" lon="-1.06599">
        <ele>82.2</ele>
        <time>2020-12-20T09:17:06Z</time>
      </trkpt>
      <trkpt lat="47.88264" lon="-1.06597">
        <ele>82.2</ele>
        <time>2020-12-20T09:17:07Z</time>
      </trkpt>
      <trkpt lat="47.88262" lon="-1.06593">
        <ele>82.2</ele>
        <time>2020-12-20T09:17:08Z</time>
      </trkpt>
      <trkpt lat="47.88261" lon="-1.0659">
        <ele>82.2</ele>
        <time>2020-12-20T09:17:09Z</time>
      </trkpt>
      <trkpt lat="47.88259" lon="-1.06587">
        <ele>82.2</ele>
        <time>2020-12-20T09:17:10Z</time>
      </trkpt>
      <trkpt lat="47.88257" lon="-1.06584">
        <ele>82.2</ele>
        <time>2020-12-20T09:17:11Z</time>
      </trkpt>
      <trkpt lat="47.88255" lon="-1.06583">
        <ele>82.2</ele>
        <time>2020-12-20T09:17:12Z</time>
      </trkpt>
      <trkpt lat="47.88253" lon="-1.06582">
        <ele>82.1</ele>
        <time>2020-12-20T09:17:13Z</time>
      </trkpt>
      <trkpt lat="47.88251" lon="-1.06582">
        <ele>82.1</ele>
        <time>2020-12-20T09:17:14Z</time>
      </trkpt>
      <trkpt lat="47.88248" lon="-1.06582">
        <ele>82.1</ele>
        <time>2020-12-20T09:17:15Z</time>
      </trkpt>
      <trkpt lat="47.88246" lon="-1.06581">
        <ele>82.2</ele>
        <time>2020-12-20T09:17:16Z</time>
      </trkpt>
      <trkpt lat="47.88243" lon="-1.06581">
        <ele>82.4</ele>
        <time>2020-12-20T09:17:17Z</time>
      </trkpt>
      <trkpt lat="47.8824" lon="-1.06581">
        <ele>82.5</ele>
        <time>2020-12-20T09:17:18Z</time>
      </trkpt>
      <trkpt lat="47.88237" lon="-1.06581">
        <ele>82.7</ele>
        <time>2020-12-20T09:17:19Z</time>
      </trkpt>
      <trkpt lat="47.88235" lon="-1.06581">
        <ele>82.8</ele>
        <time>2020-12-20T09:17:20Z</time>
      </trkpt>
      <trkpt lat="47.88233" lon="-1.06581">
        <ele>82.8</ele>
        <time>2020-12-20T09:17:21Z</time>
      </trkpt>
      <trkpt lat="47.88229" lon="-1.0658">
        <ele>83</ele>
        <time>2020-12-20T09:17:22Z</time>
      </trkpt>
      <trkpt lat="47.88227" lon="-1.0658">
        <ele>83.1</ele>
        <time>2020-12-20T09:17:23Z</time>
      </trkpt>
      <trkpt lat="47.88225" lon="-1.06581">
        <ele>83.2</ele>
        <time>2020-12-20T09:17:24Z</time>
      </trkpt>
      <trkpt lat="47.88223" lon="-1.06581">
        <ele>83.3</ele>
        <time>2020-12-20T09:17:25Z</time>
      </trkpt>
      <trkpt lat="47.8822" lon="-1.06581">
        <ele>83.4</ele>
        <time>2020-12-20T09:17:26Z</time>
      </trkpt>
      <trkpt lat="47.88217" lon="-1.0658">
        <ele>83.6</ele>
        <time>2020-12-20T09:17:27Z</time>
      </trkpt>
      <trkpt lat="47.88214" lon="-1.06577">
        <ele>83.7</ele>
        <time>2020-12-20T09:17:28Z</time>
      </trkpt>
      <trkpt lat="47.88211" lon="-1.06574">
        <ele>83.8</ele>
        <time>2020-12-20T09:17:29Z</time>
      </trkpt>
      <trkpt lat="47.88208" lon="-1.06571">
        <ele>83.9</ele>
        <time>2020-12-20T09:17:30Z</time>
      </trkpt>
      <trkpt lat="47.88204" lon="-1.06568">
        <ele>84.1</ele>
        <time>2020-12-20T09:17:31Z</time>
      </trkpt>
      <trkpt lat="47.882" lon="-1.06565">
        <ele>84.2</ele>
        <time>2020-12-20T09:17:32Z</time>
      </trkpt>
      <trkpt lat="47.88196" lon="-1.06562">
        <ele>84.3</ele>
        <time>2020-12-20T09:17:33Z</time>
      </trkpt>
      <trkpt lat="47.88192" lon="-1.06558">
        <ele>84.3</ele>
        <time>2020-12-20T09:17:34Z</time>
      </trkpt>
      <trkpt lat="47.88188" lon="-1.06556">
        <ele>84.4</ele>
        <time>2020-12-20T09:17:35Z</time>
      </trkpt>
      <trkpt lat="47.88185" lon="-1.06554">
        <ele>84.5</ele>
        <time>2020-12-20T09:17:36Z</time>
      </trkpt>
      <trkpt lat="47.88182" lon="-1.06552">
        <ele>84.5</ele>
        <time>2020-12-20T09:17:37Z</time>
      </trkpt>
      <trkpt lat="47.88179" lon="-1.06552">
        <ele>84.6</ele>
        <time>2020-12-20T09:17:38Z</time>
      </trkpt>
      <trkpt lat="47.88176" lon="-1.06553">
        <ele>84.7</ele>
        <time>2020-12-20T09:17:39Z</time>
      </trkpt>
      <trkpt lat="47.88174" lon="-1.06555">
        <ele>84.8</ele>
        <time>2020-12-20T09:17:40Z</time>
      </trkpt>
      <trkpt lat="47.88171" lon="-1.06556">
        <ele>84.9</ele>
        <time>2020-12-20T09:17:41Z</time>
      </trkpt>
      <trkpt lat="47.88167" lon="-1.06557">
        <ele>85</ele>
        <time>2020-12-20T09:17:42Z</time>
      </trkpt>
      <trkpt lat="47.88163" lon="-1.06558">
        <ele>85.2</ele>
        <time>2020-12-20T09:17:43Z</time>
      </trkpt>
      <trkpt lat="47.88159" lon="-1.0656">
        <ele>85.4</ele>
        <time>2020-12-20T09:17:44Z</time>
      </trkpt>
      <trkpt lat="47.88155" lon="-1.06562">
        <ele>85.6</ele>
        <time>2020-12-20T09:17:45Z</time>
      </trkpt>
      <trkpt lat="47.88151" lon="-1.06564">
        <ele>85.8</ele>
        <time>2020-12-20T09:17:46Z</time>
      </trkpt>
      <trkpt lat="47.88146" lon="-1.06567">
        <ele>86</ele>
        <time>2020-12-20T09:17:47Z</time>
      </trkpt>
      <trkpt lat="47.88141" lon="-1.0657">
        <ele>86.2</ele>
        <time>2020-12-20T09:17:48Z</time>
      </trkpt>
      <trkpt lat="47.88137" lon="-1.06572">
        <ele>86.4</ele>
        <time>2020-12-20T09:17:49Z</time>
      </trkpt>
      <trkpt lat="47.88134" lon="-1.06574">
        <ele>86.5</ele>
        <time>2020-12-20T09:17:50Z</time>
      </trkpt>
      <trkpt lat="47.88131" lon="-1.06576">
        <ele>86.7</ele>
        <time>2020-12-20T09:17:51Z</time>
      </trkpt>
      <trkpt lat="47.88128" lon="-1.06578">
        <ele>86.8</ele>
        <time>2020-12-20T09:17:52Z</time>
      </trkpt>
      <trkpt lat="47.88125" lon="-1.06579">
        <ele>86.9</ele>
        <time>2020-12-20T09:17:53Z</time>
      </trkpt>
      <trkpt lat="47.88121" lon="-1.06581">
        <ele>87</ele>
        <time>2020-12-20T09:17:54Z</time>
      </trkpt>
      <trkpt lat="47.88116" lon="-1.06581">
        <ele>87.2</ele>
        <time>2020-12-20T09:17:55Z</time>
      </trkpt>
      <trkpt lat="47.88111" lon="-1.06582">
        <ele>87.3</ele>
        <time>2020-12-20T09:17:56Z</time>
      </trkpt>
      <trkpt lat="47.88108" lon="-1.06583">
        <ele>87.4</ele>
        <time>2020-12-20T09:17:57Z</time>
      </trkpt>
      <trkpt lat="47.88105" lon="-1.06583">
        <ele>87.5</ele>
        <time>2020-12-20T09:17:58Z</time>
      </trkpt>
      <trkpt lat="47.88101" lon="-1.06581">
        <ele>87.5</ele>
        <time>2020-12-20T09:17:59Z</time>
      </trkpt>
      <trkpt lat="47.88096" lon="-1.06577">
        <ele>87.6</ele>
        <time>2020-12-20T09:18:00Z</time>
      </trkpt>
      <trkpt lat="47.8809" lon="-1.06573">
        <ele>87.7</ele>
        <time>2020-12-20T09:18:01Z</time>
      </trkpt>
      <trkpt lat="47.88087" lon="-1.06572">
        <ele>87.8</ele>
        <time>2020-12-20T09:18:02Z</time>
      </trkpt>
      <trkpt lat="47.88085" lon="-1.06571">
        <ele>87.8</ele>
        <time>2020-12-20T09:18:03Z</time>
      </trkpt>
      <trkpt lat="47.88083" lon="-1.0657">
        <ele>87.8</ele>
        <time>2020-12-20T09:18:04Z</time>
      </trkpt>
      <trkpt lat="47.8808" lon="-1.06568">
        <ele>87.5</ele>
        <time>2020-12-20T09:18:05Z</time>
      </trkpt>
      <trkpt lat="47.88077" lon="-1.06566">
        <ele>87.2</ele>
        <time>2020-12-20T09:18:06Z</time>
      </trkpt>
      <trkpt lat="47.88073" lon="-1.06561">
        <ele>86.8</ele>
        <time>2020-12-20T09:18:07Z</time>
      </trkpt>
      <trkpt lat="47.88071" lon="-1.06558">
        <ele>86.6</ele>
        <time>2020-12-20T09:18:08Z</time>
      </trkpt>
      <trkpt lat="47.88069" lon="-1.06554">
        <ele>86.5</ele>
        <time>2020-12-20T09:18:09Z</time>
      </trkpt>
      <trkpt lat="47.88068" lon="-1.06551">
        <ele>86.4</ele>
        <time>2020-12-20T09:18:10Z</time>
      </trkpt>
      <trkpt lat="47.88069" lon="-1.06545">
        <ele>86.5</ele>
        <time>2020-12-20T09:18:11Z</time>
      </trkpt>
      <trkpt lat="47.88068" lon="-1.0654">
        <ele>86.4</ele>
        <time>2020-12-20T09:18:12Z</time>
      </trkpt>
      <trkpt lat="47.88067" lon="-1.06535">
        <ele>86.3</ele>
        <time>2020-12-20T09:18:13Z</time>
      </trkpt>
      <trkpt lat="47.88064" lon="-1.06529">
        <ele>86.2</ele>
        <time>2020-12-20T09:18:14Z</time>
      </trkpt>
      <trkpt lat="47.88061" lon="-1.06523">
        <ele>86</ele>
        <time>2020-12-20T09:18:15Z</time>
      </trkpt>
      <trkpt lat="47.88059" lon="-1.06521">
        <ele>85.9</ele>
        <time>2020-12-20T09:18:16Z</time>
      </trkpt>
      <trkpt lat="47.88056" lon="-1.06521">
        <ele>85.8</ele>
        <time>2020-12-20T09:18:17Z</time>
      </trkpt>
      <trkpt lat="47.88053" lon="-1.0652">
        <ele>85.6</ele>
        <time>2020-12-20T09:18:18Z</time>
      </trkpt>
      <trkpt lat="47.88049" lon="-1.06517">
        <ele>85.5</ele>
        <time>2020-12-20T09:18:19Z</time>
      </trkpt>
      <trkpt lat="47.88046" lon="-1.06512">
        <ele>85.4</ele>
        <time>2020-12-20T09:18:20Z</time>
      </trkpt>
      <trkpt lat="47.88043" lon="-1.06507">
        <ele>85.4</ele>
        <time>2020-12-20T09:18:21Z</time>
      </trkpt>
      <trkpt lat="47.8804" lon="-1.06502">
        <ele>85.4</ele>
        <time>2020-12-20T09:18:22Z</time>
      </trkpt>
      <trkpt lat="47.88037" lon="-1.06498">
        <ele>85.4</ele>
        <time>2020-12-20T09:18:23Z</time>
      </trkpt>
      <trkpt lat="47.88036" lon="-1.06496">
        <ele>85.4</ele>
        <time>2020-12-20T09:18:24Z</time>
      </trkpt>
      <trkpt lat="47.88034" lon="-1.06491">
        <ele>85.4</ele>
        <time>2020-12-20T09:18:25Z</time>
      </trkpt>
      <trkpt lat="47.88031" lon="-1.06487">
        <ele>85.4</ele>
        <time>2020-12-20T09:18:26Z</time>
      </trkpt>
      <trkpt lat="47.8803" lon="-1.06483">
        <ele>85.4</ele>
        <time>2020-12-20T09:18:27Z</time>
      </trkpt>
      <trkpt lat="47.8803" lon="-1.06479">
        <ele>85.5</ele>
        <time>2020-12-20T09:18:28Z</time>
      </trkpt>
      <trkpt lat="47.8803" lon="-1.06475">
        <ele>85.5</ele>
        <time>2020-12-20T09:18:29Z</time>
      </trkpt>
      <trkpt lat="47.88029" lon="-1.06471">
        <ele>85.6</ele>
        <time>2020-12-20T09:18:30Z</time>
      </trkpt>
      <trkpt lat="47.88027" lon="-1.06465">
        <ele>85.7</ele>
        <time>2020-12-20T09:18:31Z</time>
      </trkpt>
      <trkpt lat="47.88024" lon="-1.06459">
        <ele>85.8</ele>
        <time>2020-12-20T09:18:32Z</time>
      </trkpt>
      <trkpt lat="47.88022" lon="-1.06457">
        <ele>85.8</ele>
        <time>2020-12-20T09:18:33Z</time>
      </trkpt>
      <trkpt lat="47.8802" lon="-1.06457">
        <ele>85.8</ele>
        <time>2020-12-20T09:18:34Z</time>
      </trkpt>
      <trkpt lat="47.88018" lon="-1.06455">
        <ele>85.8</ele>
        <time>2020-12-20T09:18:35Z</time>
      </trkpt>
      <trkpt lat="47.88016" lon="-1.06455">
        <ele>85.8</ele>
        <time>2020-12-20T09:18:36Z</time>
      </trkpt>
      <trkpt lat="47.88011" lon="-1.06456">
        <ele>85.7</ele>
        <time>2020-12-20T09:18:37Z</time>
      </trkpt>
      <trkpt lat="47.88007" lon="-1.06457">
        <ele>85.6</ele>
        <time>2020-12-20T09:18:38Z</time>
      </trkpt>
      <trkpt lat="47.88003" lon="-1.0646">
        <ele>85.5</ele>
        <time>2020-12-20T09:18:39Z</time>
      </trkpt>
      <trkpt lat="47.87999" lon="-1.06462">
        <ele>85.3</ele>
        <time>2020-12-20T09:18:40Z</time>
      </trkpt>
      <trkpt lat="47.87995" lon="-1.06464">
        <ele>85.1</ele>
        <time>2020-12-20T09:18:41Z</time>
      </trkpt>
      <trkpt lat="47.87992" lon="-1.06466">
        <ele>84.8</ele>
        <time>2020-12-20T09:18:42Z</time>
      </trkpt>
      <trkpt lat="47.87988" lon="-1.06467">
        <ele>84.6</ele>
        <time>2020-12-20T09:18:43Z</time>
      </trkpt>
      <trkpt lat="47.87984" lon="-1.06469">
        <ele>84.3</ele>
        <time>2020-12-20T09:18:44Z</time>
      </trkpt>
      <trkpt lat="47.87979" lon="-1.06471">
        <ele>84</ele>
        <time>2020-12-20T09:18:45Z</time>
      </trkpt>
      <trkpt lat="47.87974" lon="-1.06473">
        <ele>83.7</ele>
        <time>2020-12-20T09:18:46Z</time>
      </trkpt>
      <trkpt lat="47.87969" lon="-1.06476">
        <ele>83.4</ele>
        <time>2020-12-20T09:18:47Z</time>
      </trkpt>
      <trkpt lat="47.87964" lon="-1.06479">
        <ele>83</ele>
        <time>2020-12-20T09:18:48Z</time>
      </trkpt>
      <trkpt lat="47.8796" lon="-1.06482">
        <ele>82.7</ele>
        <time>2020-12-20T09:18:49Z</time>
      </trkpt>
      <trkpt lat="47.87956" lon="-1.06485">
        <ele>82.4</ele>
        <time>2020-12-20T09:18:50Z</time>
      </trkpt>
      <trkpt lat="47.87951" lon="-1.06489">
        <ele>82</ele>
        <time>2020-12-20T09:18:51Z</time>
      </trkpt>
      <trkpt lat="47.87946" lon="-1.06493">
        <ele>81.7</ele>
        <time>2020-12-20T09:18:52Z</time>
      </trkpt>
      <trkpt lat="47.87939" lon="-1.06497">
        <ele>81.2</ele>
        <time>2020-12-20T09:18:53Z</time>
      </trkpt>
      <trkpt lat="47.87933" lon="-1.06501">
        <ele>80.7</ele>
        <time>2020-12-20T09:18:54Z</time>
      </trkpt>
      <trkpt lat="47.87926" lon="-1.06506">
        <ele>80.1</ele>
        <time>2020-12-20T09:18:55Z</time>
      </trkpt>
      <trkpt lat="47.87919" lon="-1.06511">
        <ele>79.5</ele>
        <time>2020-12-20T09:18:56Z</time>
      </trkpt>
      <trkpt lat="47.87913" lon="-1.06515">
        <ele>78.7</ele>
        <time>2020-12-20T09:18:57Z</time>
      </trkpt>
      <trkpt lat="47.87907" lon="-1.06517">
        <ele>77.9</ele>
        <time>2020-12-20T09:18:58Z</time>
      </trkpt>
      <trkpt lat="47.87902" lon="-1.06517">
        <ele>77.4</ele>
        <time>2020-12-20T09:18:59Z</time>
      </trkpt>
      <trkpt lat="47.87899" lon="-1.06515">
        <ele>77.2</ele>
        <time>2020-12-20T09:19:00Z</time>
      </trkpt>
      <trkpt lat="47.87897" lon="-1.06512">
        <ele>77.2</ele>
        <time>2020-12-20T09:19:01Z</time>
      </trkpt>
      <trkpt lat="47.87896" lon="-1.06507">
        <ele>77.3</ele>
        <time>2020-12-20T09:19:02Z</time>
      </trkpt>
      <trkpt lat="47.87895" lon="-1.06503">
        <ele>77.5</ele>
        <time>2020-12-20T09:19:03Z</time>
      </trkpt>
      <trkpt lat="47.87895" lon="-1.06497">
        <ele>77.8</ele>
        <time>2020-12-20T09:19:04Z</time>
      </trkpt>
      <trkpt lat="47.87894" lon="-1.06491">
        <ele>77.8</ele>
        <time>2020-12-20T09:19:05Z</time>
      </trkpt>
      <trkpt lat="47.87894" lon="-1.06484">
        <ele>78.1</ele>
        <time>2020-12-20T09:19:06Z</time>
      </trkpt>
      <trkpt lat="47.87894" lon="-1.06479">
        <ele>78.2</ele>
        <time>2020-12-20T09:19:07Z</time>
      </trkpt>
      <trkpt lat="47.87895" lon="-1.06474">
        <ele>78.5</ele>
        <time>2020-12-20T09:19:08Z</time>
      </trkpt>
      <trkpt lat="47.87894" lon="-1.06469">
        <ele>78.6</ele>
        <time>2020-12-20T09:19:09Z</time>
      </trkpt>
      <trkpt lat="47.87894" lon="-1.06464">
        <ele>78.7</ele>
        <time>2020-12-20T09:19:10Z</time>
      </trkpt>
      <trkpt lat="47.87895" lon="-1.06459">
        <ele>79</ele>
        <time>2020-12-20T09:19:11Z</time>
      </trkpt>
      <trkpt lat="47.87895" lon="-1.06454">
        <ele>79.2</ele>
        <time>2020-12-20T09:19:12Z</time>
      </trkpt>
      <trkpt lat="47.87896" lon="-1.0645">
        <ele>79.4</ele>
        <time>2020-12-20T09:19:13Z</time>
      </trkpt>
      <trkpt lat="47.87897" lon="-1.06445">
        <ele>79.7</ele>
        <time>2020-12-20T09:19:14Z</time>
      </trkpt>
      <trkpt lat="47.87898" lon="-1.0644">
        <ele>80</ele>
        <time>2020-12-20T09:19:15Z</time>
      </trkpt>
      <trkpt lat="47.87898" lon="-1.06435">
        <ele>80.1</ele>
        <time>2020-12-20T09:19:16Z</time>
      </trkpt>
      <trkpt lat="47.87898" lon="-1.06429">
        <ele>80.3</ele>
        <time>2020-12-20T09:19:17Z</time>
      </trkpt>
      <trkpt lat="47.87898" lon="-1.06424">
        <ele>80.5</ele>
        <time>2020-12-20T09:19:18Z</time>
      </trkpt>
      <trkpt lat="47.87898" lon="-1.06418">
        <ele>80.7</ele>
        <time>2020-12-20T09:19:19Z</time>
      </trkpt>
      <trkpt lat="47.87899" lon="-1.06414">
        <ele>80.9</ele>
        <time>2020-12-20T09:19:20Z</time>
      </trkpt>
      <trkpt lat="47.87899" lon="-1.0641">
        <ele>80.9</ele>
        <time>2020-12-20T09:19:21Z</time>
      </trkpt>
      <trkpt lat="47.879" lon="-1.06406">
        <ele>80.9</ele>
        <time>2020-12-20T09:19:22Z</time>
      </trkpt>
      <trkpt lat="47.87901" lon="-1.06402">
        <ele>81</ele>
        <time>2020-12-20T09:19:23Z</time>
      </trkpt>
      <trkpt lat="47.87902" lon="-1.06398">
        <ele>81.1</ele>
        <time>2020-12-20T09:19:24Z</time>
      </trkpt>
      <trkpt lat="47.87901" lon="-1.06393">
        <ele>81</ele>
        <time>2020-12-20T09:19:25Z</time>
      </trkpt>
      <trkpt lat="47.87901" lon="-1.06388">
        <ele>81</ele>
        <time>2020-12-20T09:19:26Z</time>
      </trkpt>
      <trkpt lat="47.87902" lon="-1.06383">
        <ele>81</ele>
        <time>2020-12-20T09:19:27Z</time>
      </trkpt>
      <trkpt lat="47.87903" lon="-1.06377">
        <ele>81.1</ele>
        <time>2020-12-20T09:19:28Z</time>
      </trkpt>
      <trkpt lat="47.87903" lon="-1.0637">
        <ele>81.1</ele>
        <time>2020-12-20T09:19:29Z</time>
      </trkpt>
      <trkpt lat="47.87903" lon="-1.06362">
        <ele>81</ele>
        <time>2020-12-20T09:19:30Z</time>
      </trkpt>
      <trkpt lat="47.87904" lon="-1.06358">
        <ele>81.1</ele>
        <time>2020-12-20T09:19:31Z</time>
      </trkpt>
      <trkpt lat="47.87905" lon="-1.06351">
        <ele>81.1</ele>
        <time>2020-12-20T09:19:32Z</time>
      </trkpt>
      <trkpt lat="47.87905" lon="-1.06346">
        <ele>81.1</ele>
        <time>2020-12-20T09:19:33Z</time>
      </trkpt>
      <trkpt lat="47.87905" lon="-1.0634">
        <ele>81.1</ele>
        <time>2020-12-20T09:19:34Z</time>
      </trkpt>
      <trkpt lat="47.87904" lon="-1.06336">
        <ele>81</ele>
        <time>2020-12-20T09:19:35Z</time>
      </trkpt>
      <trkpt lat="47.87904" lon="-1.0633">
        <ele>81</ele>
        <time>2020-12-20T09:19:36Z</time>
      </trkpt>
      <trkpt lat="47.87904" lon="-1.06325">
        <ele>81</ele>
        <time>2020-12-20T09:19:37Z</time>
      </trkpt>
      <trkpt lat="47.87903" lon="-1.06318">
        <ele>81</ele>
        <time>2020-12-20T09:19:38Z</time>
      </trkpt>
      <trkpt lat="47.87904" lon="-1.06311">
        <ele>81.2</ele>
        <time>2020-12-20T09:19:39Z</time>
      </trkpt>
      <trkpt lat="47.87905" lon="-1.06303">
        <ele>81.4</ele>
        <time>2020-12-20T09:19:40Z</time>
      </trkpt>
      <trkpt lat="47.87906" lon="-1.06298">
        <ele>81.5</ele>
        <time>2020-12-20T09:19:41Z</time>
      </trkpt>
      <trkpt lat="47.87907" lon="-1.06294">
        <ele>81.7</ele>
        <time>2020-12-20T09:19:42Z</time>
      </trkpt>
      <trkpt lat="47.87906" lon="-1.06288">
        <ele>81.6</ele>
        <time>2020-12-20T09:19:43Z</time>
      </trkpt>
      <trkpt lat="47.87905" lon="-1.06282">
        <ele>81.6</ele>
        <time>2020-12-20T09:19:44Z</time>
      </trkpt>
      <trkpt lat="47.87905" lon="-1.06277">
        <ele>81.7</ele>
        <time>2020-12-20T09:19:45Z</time>
      </trkpt>
      <trkpt lat="47.87907" lon="-1.06274">
        <ele>81.9</ele>
        <time>2020-12-20T09:19:46Z</time>
      </trkpt>
      <trkpt lat="47.87907" lon="-1.06267">
        <ele>82</ele>
        <time>2020-12-20T09:19:47Z</time>
      </trkpt>
      <trkpt lat="47.87908" lon="-1.06263">
        <ele>82.1</ele>
        <time>2020-12-20T09:19:48Z</time>
      </trkpt>
      <trkpt lat="47.87908" lon="-1.06258">
        <ele>82.2</ele>
        <time>2020-12-20T09:19:49Z</time>
      </trkpt>
      <trkpt lat="47.87909" lon="-1.06253">
        <ele>82.3</ele>
        <time>2020-12-20T09:19:50Z</time>
      </trkpt>
      <trkpt lat="47.87909" lon="-1.06248">
        <ele>82.4</ele>
        <time>2020-12-20T09:19:51Z</time>
      </trkpt>
      <trkpt lat="47.87909" lon="-1.06243">
        <ele>82.4</ele>
        <time>2020-12-20T09:19:52Z</time>
      </trkpt>
      <trkpt lat="47.87908" lon="-1.06238">
        <ele>82.4</ele>
        <time>2020-12-20T09:19:53Z</time>
      </trkpt>
      <trkpt lat="47.87908" lon="-1.06232">
        <ele>82.5</ele>
        <time>2020-12-20T09:19:54Z</time>
      </trkpt>
      <trkpt lat="47.87907" lon="-1.06227">
        <ele>82.4</ele>
        <time>2020-12-20T09:19:55Z</time>
      </trkpt>
      <trkpt lat="47.87907" lon="-1.06221">
        <ele>82.5</ele>
        <time>2020-12-20T09:19:56Z</time>
      </trkpt>
      <trkpt lat="47.87906" lon="-1.06214">
        <ele>82.5</ele>
        <time>2020-12-20T09:19:57Z</time>
      </trkpt>
      <trkpt lat="47.87905" lon="-1.06208">
        <ele>82.5</ele>
        <time>2020-12-20T09:19:58Z</time>
      </trkpt>
      <trkpt lat="47.87905" lon="-1.06202">
        <ele>82.5</ele>
        <time>2020-12-20T09:19:59Z</time>
      </trkpt>
      <trkpt lat="47.87906" lon="-1.06197">
        <ele>82.7</ele>
        <time>2020-12-20T09:20:00Z</time>
      </trkpt>
      <trkpt lat="47.87906" lon="-1.06191">
        <ele>82.7</ele>
        <time>2020-12-20T09:20:01Z</time>
      </trkpt>
      <trkpt lat="47.87905" lon="-1.06186">
        <ele>82.7</ele>
        <time>2020-12-20T09:20:02Z</time>
      </trkpt>
      <trkpt lat="47.87904" lon="-1.06179">
        <ele>82.7</ele>
        <time>2020-12-20T09:20:03Z</time>
      </trkpt>
      <trkpt lat="47.87904" lon="-1.06173">
        <ele>82.7</ele>
        <time>2020-12-20T09:20:04Z</time>
      </trkpt>
      <trkpt lat="47.87904" lon="-1.06167">
        <ele>82.8</ele>
        <time>2020-12-20T09:20:05Z</time>
      </trkpt>
      <trkpt lat="47.87904" lon="-1.06161">
        <ele>82.9</ele>
        <time>2020-12-20T09:20:06Z</time>
      </trkpt>
      <trkpt lat="47.87903" lon="-1.06154">
        <ele>82.9</ele>
        <time>2020-12-20T09:20:07Z</time>
      </trkpt>
      <trkpt lat="47.87903" lon="-1.06146">
        <ele>83.1</ele>
        <time>2020-12-20T09:20:08Z</time>
      </trkpt>
      <trkpt lat="47.87904" lon="-1.06141">
        <ele>83.3</ele>
        <time>2020-12-20T09:20:09Z</time>
      </trkpt>
      <trkpt lat="47.87903" lon="-1.06135">
        <ele>83.3</ele>
        <time>2020-12-20T09:20:10Z</time>
      </trkpt>
      <trkpt lat="47.87902" lon="-1.06128">
        <ele>83.4</ele>
        <time>2020-12-20T09:20:11Z</time>
      </trkpt>
      <trkpt lat="47.87901" lon="-1.06121">
        <ele>83.4</ele>
        <time>2020-12-20T09:20:12Z</time>
      </trkpt>
      <trkpt lat="47.87902" lon="-1.06115">
        <ele>83.6</ele>
        <time>2020-12-20T09:20:13Z</time>
      </trkpt>
      <trkpt lat="47.87901" lon="-1.06109">
        <ele>83.6</ele>
        <time>2020-12-20T09:20:14Z</time>
      </trkpt>
      <trkpt lat="47.879" lon="-1.06101">
        <ele>83.7</ele>
        <time>2020-12-20T09:20:15Z</time>
      </trkpt>
      <trkpt lat="47.87899" lon="-1.06093">
        <ele>83.7</ele>
        <time>2020-12-20T09:20:16Z</time>
      </trkpt>
      <trkpt lat="47.879" lon="-1.06086">
        <ele>83.9</ele>
        <time>2020-12-20T09:20:17Z</time>
      </trkpt>
      <trkpt lat="47.87901" lon="-1.06079">
        <ele>84.2</ele>
        <time>2020-12-20T09:20:18Z</time>
      </trkpt>
      <trkpt lat="47.879" lon="-1.06071">
        <ele>84.2</ele>
        <time>2020-12-20T09:20:19Z</time>
      </trkpt>
      <trkpt lat="47.87899" lon="-1.06063">
        <ele>84.2</ele>
        <time>2020-12-20T09:20:20Z</time>
      </trkpt>
      <trkpt lat="47.87899" lon="-1.06056">
        <ele>84.3</ele>
        <time>2020-12-20T09:20:21Z</time>
      </trkpt>
      <trkpt lat="47.87899" lon="-1.0605">
        <ele>84.3</ele>
        <time>2020-12-20T09:20:22Z</time>
      </trkpt>
      <trkpt lat="47.879" lon="-1.06044">
        <ele>84.6</ele>
        <time>2020-12-20T09:20:23Z</time>
      </trkpt>
      <trkpt lat="47.87901" lon="-1.06036">
        <ele>84.8</ele>
        <time>2020-12-20T09:20:24Z</time>
      </trkpt>
      <trkpt lat="47.87902" lon="-1.06026">
        <ele>85.1</ele>
        <time>2020-12-20T09:20:25Z</time>
      </trkpt>
      <trkpt lat="47.87904" lon="-1.06021">
        <ele>85.5</ele>
        <time>2020-12-20T09:20:26Z</time>
      </trkpt>
      <trkpt lat="47.87905" lon="-1.06016">
        <ele>85.8</ele>
        <time>2020-12-20T09:20:27Z</time>
      </trkpt>
      <trkpt lat="47.87907" lon="-1.06012">
        <ele>86.2</ele>
        <time>2020-12-20T09:20:28Z</time>
      </trkpt>
      <trkpt lat="47.87908" lon="-1.06008">
        <ele>86.4</ele>
        <time>2020-12-20T09:20:29Z</time>
      </trkpt>
      <trkpt lat="47.87909" lon="-1.06005">
        <ele>86.6</ele>
        <time>2020-12-20T09:20:30Z</time>
      </trkpt>
      <trkpt lat="47.87909" lon="-1.06001">
        <ele>86.7</ele>
        <time>2020-12-20T09:20:31Z</time>
      </trkpt>
      <trkpt lat="47.8791" lon="-1.05998">
        <ele>86.9</ele>
        <time>2020-12-20T09:20:32Z</time>
      </trkpt>
      <trkpt lat="47.8791" lon="-1.05994">
        <ele>86.9</ele>
        <time>2020-12-20T09:20:33Z</time>
      </trkpt>
      <trkpt lat="47.87909" lon="-1.05992">
        <ele>86.8</ele>
        <time>2020-12-20T09:20:34Z</time>
      </trkpt>
      <trkpt lat="47.87907" lon="-1.05989">
        <ele>86.5</ele>
        <time>2020-12-20T09:20:35Z</time>
      </trkpt>
      <trkpt lat="47.87905" lon="-1.05988">
        <ele>86.2</ele>
        <time>2020-12-20T09:20:36Z</time>
      </trkpt>
      <trkpt lat="47.87902" lon="-1.05989">
        <ele>85.6</ele>
        <time>2020-12-20T09:20:37Z</time>
      </trkpt>
      <trkpt lat="47.87897" lon="-1.0599">
        <ele>84.8</ele>
        <time>2020-12-20T09:20:38Z</time>
      </trkpt>
      <trkpt lat="47.87892" lon="-1.05993">
        <ele>83.9</ele>
        <time>2020-12-20T09:20:39Z</time>
      </trkpt>
      <trkpt lat="47.87886" lon="-1.05996">
        <ele>82.9</ele>
        <time>2020-12-20T09:20:40Z</time>
      </trkpt>
      <trkpt lat="47.87879" lon="-1.05999">
        <ele>81.7</ele>
        <time>2020-12-20T09:20:41Z</time>
      </trkpt>
      <trkpt lat="47.87872" lon="-1.06002">
        <ele>80.5</ele>
        <time>2020-12-20T09:20:42Z</time>
      </trkpt>
      <trkpt lat="47.87865" lon="-1.06006">
        <ele>79.4</ele>
        <time>2020-12-20T09:20:43Z</time>
      </trkpt>
      <trkpt lat="47.87857" lon="-1.06011">
        <ele>78.1</ele>
        <time>2020-12-20T09:20:44Z</time>
      </trkpt>
      <trkpt lat="47.87848" lon="-1.06016">
        <ele>76.7</ele>
        <time>2020-12-20T09:20:45Z</time>
      </trkpt>
      <trkpt lat="47.87839" lon="-1.06021">
        <ele>75.4</ele>
        <time>2020-12-20T09:20:46Z</time>
      </trkpt>
      <trkpt lat="47.87829" lon="-1.06025">
        <ele>74</ele>
        <time>2020-12-20T09:20:47Z</time>
      </trkpt>
      <trkpt lat="47.87819" lon="-1.06031">
        <ele>72.8</ele>
        <time>2020-12-20T09:20:48Z</time>
      </trkpt>
      <trkpt lat="47.87809" lon="-1.06036">
        <ele>71.5</ele>
        <time>2020-12-20T09:20:49Z</time>
      </trkpt>
      <trkpt lat="47.87799" lon="-1.06041">
        <ele>70.2</ele>
        <time>2020-12-20T09:20:50Z</time>
      </trkpt>
      <trkpt lat="47.87788" lon="-1.06045">
        <ele>68.8</ele>
        <time>2020-12-20T09:20:51Z</time>
      </trkpt>
      <trkpt lat="47.87775" lon="-1.06047">
        <ele>67</ele>
        <time>2020-12-20T09:20:52Z</time>
      </trkpt>
      <trkpt lat="47.87763" lon="-1.06048">
        <ele>65.4</ele>
        <time>2020-12-20T09:20:53Z</time>
      </trkpt>
      <trkpt lat="47.8775" lon="-1.06048">
        <ele>63.6</ele>
        <time>2020-12-20T09:20:54Z</time>
      </trkpt>
      <trkpt lat="47.87737" lon="-1.06048">
        <ele>62.4</ele>
        <time>2020-12-20T09:20:55Z</time>
      </trkpt>
      <trkpt lat="47.87723" lon="-1.06047">
        <ele>61.1</ele>
        <time>2020-12-20T09:20:56Z</time>
      </trkpt>
      <trkpt lat="47.8771" lon="-1.06047">
        <ele>59.9</ele>
        <time>2020-12-20T09:20:57Z</time>
      </trkpt>
      <trkpt lat="47.87695" lon="-1.06047">
        <ele>58.6</ele>
        <time>2020-12-20T09:20:58Z</time>
      </trkpt>
      <trkpt lat="47.87681" lon="-1.06047">
        <ele>57.3</ele>
        <time>2020-12-20T09:20:59Z</time>
      </trkpt>
      <trkpt lat="47.87667" lon="-1.06049">
        <ele>56</ele>
        <time>2020-12-20T09:21:00Z</time>
      </trkpt>
      <trkpt lat="47.87654" lon="-1.06052">
        <ele>55.5</ele>
        <time>2020-12-20T09:21:01Z</time>
      </trkpt>
      <trkpt lat="47.8764" lon="-1.06056">
        <ele>54.9</ele>
        <time>2020-12-20T09:21:02Z</time>
      </trkpt>
      <trkpt lat="47.87628" lon="-1.06061">
        <ele>54.5</ele>
        <time>2020-12-20T09:21:03Z</time>
      </trkpt>
      <trkpt lat="47.87615" lon="-1.06066">
        <ele>54</ele>
        <time>2020-12-20T09:21:04Z</time>
      </trkpt>
      <trkpt lat="47.87604" lon="-1.06072">
        <ele>53.6</ele>
        <time>2020-12-20T09:21:05Z</time>
      </trkpt>
      <trkpt lat="47.87593" lon="-1.06078">
        <ele>53.3</ele>
        <time>2020-12-20T09:21:06Z</time>
      </trkpt>
      <trkpt lat="47.87582" lon="-1.06083">
        <ele>53</ele>
        <time>2020-12-20T09:21:07Z</time>
      </trkpt>
      <trkpt lat="47.87571" lon="-1.06088">
        <ele>52.8</ele>
        <time>2020-12-20T09:21:08Z</time>
      </trkpt>
      <trkpt lat="47.87561" lon="-1.06093">
        <ele>52.6</ele>
        <time>2020-12-20T09:21:09Z</time>
      </trkpt>
      <trkpt lat="47.87552" lon="-1.06097">
        <ele>52.5</ele>
        <time>2020-12-20T09:21:10Z</time>
      </trkpt>
      <trkpt lat="47.87544" lon="-1.06102">
        <ele>52.4</ele>
        <time>2020-12-20T09:21:11Z</time>
      </trkpt>
      <trkpt lat="47.87535" lon="-1.06106">
        <ele>52.3</ele>
        <time>2020-12-20T09:21:12Z</time>
      </trkpt>
      <trkpt lat="47.87527" lon="-1.0611">
        <ele>52.2</ele>
        <time>2020-12-20T09:21:13Z</time>
      </trkpt>
      <trkpt lat="47.8752" lon="-1.06114">
        <ele>52.2</ele>
        <time>2020-12-20T09:21:14Z</time>
      </trkpt>
      <trkpt lat="47.87512" lon="-1.06118">
        <ele>52.1</ele>
        <time>2020-12-20T09:21:15Z</time>
      </trkpt>
      <trkpt lat="47.87505" lon="-1.06121">
        <ele>52</ele>
        <time>2020-12-20T09:21:16Z</time>
      </trkpt>
      <trkpt lat="47.87498" lon="-1.06124">
        <ele>52.1</ele>
        <time>2020-12-20T09:21:17Z</time>
      </trkpt>
      <trkpt lat="47.87491" lon="-1.06126">
        <ele>52.4</ele>
        <time>2020-12-20T09:21:18Z</time>
      </trkpt>
      <trkpt lat="47.87484" lon="-1.06127">
        <ele>52.8</ele>
        <time>2020-12-20T09:21:19Z</time>
      </trkpt>
      <trkpt lat="47.87477" lon="-1.06128">
        <ele>53.1</ele>
        <time>2020-12-20T09:21:20Z</time>
      </trkpt>
      <trkpt lat="47.8747" lon="-1.06129">
        <ele>53.4</ele>
        <time>2020-12-20T09:21:21Z</time>
      </trkpt>
      <trkpt lat="47.87464" lon="-1.06129">
        <ele>53.7</ele>
        <time>2020-12-20T09:21:22Z</time>
      </trkpt>
      <trkpt lat="47.87458" lon="-1.0613">
        <ele>54</ele>
        <time>2020-12-20T09:21:23Z</time>
      </trkpt>
      <trkpt lat="47.87453" lon="-1.0613">
        <ele>54.3</ele>
        <time>2020-12-20T09:21:24Z</time>
      </trkpt>
      <trkpt lat="47.87447" lon="-1.06131">
        <ele>54.5</ele>
        <time>2020-12-20T09:21:25Z</time>
      </trkpt>
      <trkpt lat="47.87443" lon="-1.06131">
        <ele>54.7</ele>
        <time>2020-12-20T09:21:26Z</time>
      </trkpt>
      <trkpt lat="47.87438" lon="-1.06132">
        <ele>55</ele>
        <time>2020-12-20T09:21:27Z</time>
      </trkpt>
      <trkpt lat="47.87434" lon="-1.06133">
        <ele>55.2</ele>
        <time>2020-12-20T09:21:28Z</time>
      </trkpt>
      <trkpt lat="47.8743" lon="-1.06134">
        <ele>55.4</ele>
        <time>2020-12-20T09:21:29Z</time>
      </trkpt>
      <trkpt lat="47.87426" lon="-1.06134">
        <ele>55.6</ele>
        <time>2020-12-20T09:21:30Z</time>
      </trkpt>
      <trkpt lat="47.87422" lon="-1.06135">
        <ele>55.7</ele>
        <time>2020-12-20T09:21:31Z</time>
      </trkpt>
      <trkpt lat="47.87419" lon="-1.06135">
        <ele>55.9</ele>
        <time>2020-12-20T09:21:32Z</time>
      </trkpt>
      <trkpt lat="47.87415" lon="-1.06136">
        <ele>56.2</ele>
        <time>2020-12-20T09:21:33Z</time>
      </trkpt>
      <trkpt lat="47.87412" lon="-1.06136">
        <ele>56.5</ele>
        <time>2020-12-20T09:21:34Z</time>
      </trkpt>
      <trkpt lat="47.87408" lon="-1.06136">
        <ele>56.9</ele>
        <time>2020-12-20T09:21:35Z</time>
      </trkpt>
      <trkpt lat="47.87405" lon="-1.06137">
        <ele>57.3</ele>
        <time>2020-12-20T09:21:36Z</time>
      </trkpt>
      <trkpt lat="47.87403" lon="-1.06137">
        <ele>57.5</ele>
        <time>2020-12-20T09:21:37Z</time>
      </trkpt>
      <trkpt lat="47.874" lon="-1.06138">
        <ele>57.8</ele>
        <time>2020-12-20T09:21:38Z</time>
      </trkpt>
      <trkpt lat="47.87397" lon="-1.06138">
        <ele>58.1</ele>
        <time>2020-12-20T09:21:39Z</time>
      </trkpt>
      <trkpt lat="47.87394" lon="-1.06138">
        <ele>58.4</ele>
        <time>2020-12-20T09:21:40Z</time>
      </trkpt>
      <trkpt lat="47.87392" lon="-1.06139">
        <ele>58.7</ele>
        <time>2020-12-20T09:21:41Z</time>
      </trkpt>
      <trkpt lat="47.87389" lon="-1.06139">
        <ele>59</ele>
        <time>2020-12-20T09:21:42Z</time>
      </trkpt>
      <trkpt lat="47.87386" lon="-1.0614">
        <ele>59.3</ele>
        <time>2020-12-20T09:21:43Z</time>
      </trkpt>
      <trkpt lat="47.87383" lon="-1.0614">
        <ele>59.6</ele>
        <time>2020-12-20T09:21:44Z</time>
      </trkpt>
      <trkpt lat="47.87381" lon="-1.0614">
        <ele>59.9</ele>
        <time>2020-12-20T09:21:45Z</time>
      </trkpt>
      <trkpt lat="47.87378" lon="-1.0614">
        <ele>60.2</ele>
        <time>2020-12-20T09:21:46Z</time>
      </trkpt>
      <trkpt lat="47.87376" lon="-1.06141">
        <ele>60.4</ele>
        <time>2020-12-20T09:21:47Z</time>
      </trkpt>
      <trkpt lat="47.87374" lon="-1.06141">
        <ele>60.6</ele>
        <time>2020-12-20T09:21:48Z</time>
      </trkpt>
      <trkpt lat="47.87371" lon="-1.06141">
        <ele>60.9</ele>
        <time>2020-12-20T09:21:49Z</time>
      </trkpt>
      <trkpt lat="47.87368" lon="-1.06142">
        <ele>61.3</ele>
        <time>2020-12-20T09:21:50Z</time>
      </trkpt>
      <trkpt lat="47.87365" lon="-1.06142">
        <ele>61.6</ele>
        <time>2020-12-20T09:21:51Z</time>
      </trkpt>
      <trkpt lat="47.87363" lon="-1.06142">
        <ele>61.8</ele>
        <time>2020-12-20T09:21:52Z</time>
      </trkpt>
      <trkpt lat="47.8736" lon="-1.06142">
        <ele>62.1</ele>
        <time>2020-12-20T09:21:53Z</time>
      </trkpt>
      <trkpt lat="47.87358" lon="-1.06143">
        <ele>62.3</ele>
        <time>2020-12-20T09:21:54Z</time>
      </trkpt>
      <trkpt lat="47.87355" lon="-1.06143">
        <ele>62.7</ele>
        <time>2020-12-20T09:21:55Z</time>
      </trkpt>
      <trkpt lat="47.87353" lon="-1.06143">
        <ele>62.9</ele>
        <time>2020-12-20T09:21:56Z</time>
      </trkpt>
      <trkpt lat="47.87351" lon="-1.06144">
        <ele>63.1</ele>
        <time>2020-12-20T09:21:57Z</time>
      </trkpt>
      <trkpt lat="47.87349" lon="-1.06144">
        <ele>63.3</ele>
        <time>2020-12-20T09:21:58Z</time>
      </trkpt>
      <trkpt lat="47.87346" lon="-1.06144">
        <ele>63.6</ele>
        <time>2020-12-20T09:21:59Z</time>
      </trkpt>
      <trkpt lat="47.87344" lon="-1.06144">
        <ele>63.8</ele>
        <time>2020-12-20T09:22:00Z</time>
      </trkpt>
      <trkpt lat="47.87342" lon="-1.06144">
        <ele>64.1</ele>
        <time>2020-12-20T09:22:01Z</time>
      </trkpt>
      <trkpt lat="47.87339" lon="-1.06145">
        <ele>64.4</ele>
        <time>2020-12-20T09:22:02Z</time>
      </trkpt>
      <trkpt lat="47.87337" lon="-1.06145">
        <ele>64.6</ele>
        <time>2020-12-20T09:22:03Z</time>
      </trkpt>
      <trkpt lat="47.87334" lon="-1.06146">
        <ele>64.9</ele>
        <time>2020-12-20T09:22:04Z</time>
      </trkpt>
      <trkpt lat="47.87331" lon="-1.06146">
        <ele>65.1</ele>
        <time>2020-12-20T09:22:05Z</time>
      </trkpt>
      <trkpt lat="47.87328" lon="-1.06146">
        <ele>65.2</ele>
        <time>2020-12-20T09:22:06Z</time>
      </trkpt>
      <trkpt lat="47.87324" lon="-1.06147">
        <ele>65.3</ele>
        <time>2020-12-20T09:22:07Z</time>
      </trkpt>
      <trkpt lat="47.87321" lon="-1.06147">
        <ele>65.4</ele>
        <time>2020-12-20T09:22:08Z</time>
      </trkpt>
      <trkpt lat="47.87318" lon="-1.06147">
        <ele>65.5</ele>
        <time>2020-12-20T09:22:09Z</time>
      </trkpt>
      <trkpt lat="47.87314" lon="-1.06147">
        <ele>65.6</ele>
        <time>2020-12-20T09:22:10Z</time>
      </trkpt>
      <trkpt lat="47.8731" lon="-1.06148">
        <ele>65.8</ele>
        <time>2020-12-20T09:22:11Z</time>
      </trkpt>
      <trkpt lat="47.87307" lon="-1.06148">
        <ele>65.9</ele>
        <time>2020-12-20T09:22:12Z</time>
      </trkpt>
      <trkpt lat="47.87303" lon="-1.06148">
        <ele>66</ele>
        <time>2020-12-20T09:22:13Z</time>
      </trkpt>
      <trkpt lat="47.87299" lon="-1.06149">
        <ele>66.1</ele>
        <time>2020-12-20T09:22:14Z</time>
      </trkpt>
      <trkpt lat="47.87295" lon="-1.06149">
        <ele>66.3</ele>
        <time>2020-12-20T09:22:15Z</time>
      </trkpt>
      <trkpt lat="47.87292" lon="-1.0615">
        <ele>66.4</ele>
        <time>2020-12-20T09:22:16Z</time>
      </trkpt>
      <trkpt lat="47.87288" lon="-1.0615">
        <ele>66.5</ele>
        <time>2020-12-20T09:22:17Z</time>
      </trkpt>
      <trkpt lat="47.87284" lon="-1.06151">
        <ele>66.7</ele>
        <time>2020-12-20T09:22:18Z</time>
      </trkpt>
      <trkpt lat="47.8728" lon="-1.06152">
        <ele>66.8</ele>
        <time>2020-12-20T09:22:19Z</time>
      </trkpt>
      <trkpt lat="47.87276" lon="-1.06152">
        <ele>66.9</ele>
        <time>2020-12-20T09:22:20Z</time>
      </trkpt>
      <trkpt lat="47.87271" lon="-1.06153">
        <ele>67.1</ele>
        <time>2020-12-20T09:22:21Z</time>
      </trkpt>
      <trkpt lat="47.87267" lon="-1.06153">
        <ele>67.3</ele>
        <time>2020-12-20T09:22:22Z</time>
      </trkpt>
      <trkpt lat="47.87262" lon="-1.06154">
        <ele>67.4</ele>
        <time>2020-12-20T09:22:23Z</time>
      </trkpt>
      <trkpt lat="47.87258" lon="-1.06155">
        <ele>67.6</ele>
        <time>2020-12-20T09:22:24Z</time>
      </trkpt>
      <trkpt lat="47.87253" lon="-1.06155">
        <ele>67.8</ele>
        <time>2020-12-20T09:22:25Z</time>
      </trkpt>
      <trkpt lat="47.87249" lon="-1.06155">
        <ele>67.9</ele>
        <time>2020-12-20T09:22:26Z</time>
      </trkpt>
      <trkpt lat="47.87244" lon="-1.06156">
        <ele>68</ele>
        <time>2020-12-20T09:22:27Z</time>
      </trkpt>
      <trkpt lat="47.8724" lon="-1.06156">
        <ele>68</ele>
        <time>2020-12-20T09:22:28Z</time>
      </trkpt>
      <trkpt lat="47.87235" lon="-1.06156">
        <ele>68.1</ele>
        <time>2020-12-20T09:22:29Z</time>
      </trkpt>
      <trkpt lat="47.87231" lon="-1.06157">
        <ele>68.1</ele>
        <time>2020-12-20T09:22:30Z</time>
      </trkpt>
      <trkpt lat="47.87227" lon="-1.06157">
        <ele>68.2</ele>
        <time>2020-12-20T09:22:31Z</time>
      </trkpt>
      <trkpt lat="47.87223" lon="-1.06156">
        <ele>68.2</ele>
        <time>2020-12-20T09:22:32Z</time>
      </trkpt>
      <trkpt lat="47.87218" lon="-1.06155">
        <ele>68.3</ele>
        <time>2020-12-20T09:22:33Z</time>
      </trkpt>
      <trkpt lat="47.87215" lon="-1.06153">
        <ele>68.3</ele>
        <time>2020-12-20T09:22:34Z</time>
      </trkpt>
      <trkpt lat="47.87211" lon="-1.06151">
        <ele>68.4</ele>
        <time>2020-12-20T09:22:35Z</time>
      </trkpt>
      <trkpt lat="47.87207" lon="-1.06149">
        <ele>68.4</ele>
        <time>2020-12-20T09:22:36Z</time>
      </trkpt>
      <trkpt lat="47.87203" lon="-1.06146">
        <ele>68.5</ele>
        <time>2020-12-20T09:22:37Z</time>
      </trkpt>
      <trkpt lat="47.87199" lon="-1.06143">
        <ele>68.5</ele>
        <time>2020-12-20T09:22:38Z</time>
      </trkpt>
      <trkpt lat="47.87195" lon="-1.0614">
        <ele>68.6</ele>
        <time>2020-12-20T09:22:39Z</time>
      </trkpt>
      <trkpt lat="47.87191" lon="-1.06137">
        <ele>68.6</ele>
        <time>2020-12-20T09:22:40Z</time>
      </trkpt>
      <trkpt lat="47.87187" lon="-1.06135">
        <ele>68.7</ele>
        <time>2020-12-20T09:22:41Z</time>
      </trkpt>
      <trkpt lat="47.87184" lon="-1.06132">
        <ele>68.7</ele>
        <time>2020-12-20T09:22:42Z</time>
      </trkpt>
      <trkpt lat="47.8718" lon="-1.06129">
        <ele>68.8</ele>
        <time>2020-12-20T09:22:43Z</time>
      </trkpt>
      <trkpt lat="47.87176" lon="-1.06126">
        <ele>68.8</ele>
        <time>2020-12-20T09:22:44Z</time>
      </trkpt>
      <trkpt lat="47.87173" lon="-1.06123">
        <ele>68.9</ele>
        <time>2020-12-20T09:22:45Z</time>
      </trkpt>
      <trkpt lat="47.87169" lon="-1.0612">
        <ele>69</ele>
        <time>2020-12-20T09:22:46Z</time>
      </trkpt>
      <trkpt lat="47.87165" lon="-1.06117">
        <ele>69</ele>
        <time>2020-12-20T09:22:47Z</time>
      </trkpt>
      <trkpt lat="47.87161" lon="-1.06115">
        <ele>69.1</ele>
        <time>2020-12-20T09:22:48Z</time>
      </trkpt>
      <trkpt lat="47.87157" lon="-1.06112">
        <ele>69.2</ele>
        <time>2020-12-20T09:22:49Z</time>
      </trkpt>
      <trkpt lat="47.87154" lon="-1.06109">
        <ele>69.2</ele>
        <time>2020-12-20T09:22:50Z</time>
      </trkpt>
      <trkpt lat="47.8715" lon="-1.06106">
        <ele>69.3</ele>
        <time>2020-12-20T09:22:51Z</time>
      </trkpt>
      <trkpt lat="47.87146" lon="-1.06103">
        <ele>69.4</ele>
        <time>2020-12-20T09:22:52Z</time>
      </trkpt>
      <trkpt lat="47.87142" lon="-1.061">
        <ele>69.4</ele>
        <time>2020-12-20T09:22:53Z</time>
      </trkpt>
      <trkpt lat="47.87139" lon="-1.06097">
        <ele>69.4</ele>
        <time>2020-12-20T09:22:54Z</time>
      </trkpt>
      <trkpt lat="47.87135" lon="-1.06094">
        <ele>69.5</ele>
        <time>2020-12-20T09:22:55Z</time>
      </trkpt>
      <trkpt lat="47.87131" lon="-1.06091">
        <ele>69.5</ele>
        <time>2020-12-20T09:22:56Z</time>
      </trkpt>
      <trkpt lat="47.87127" lon="-1.06088">
        <ele>69.5</ele>
        <time>2020-12-20T09:22:57Z</time>
      </trkpt>
      <trkpt lat="47.87123" lon="-1.06085">
        <ele>69.5</ele>
        <time>2020-12-20T09:22:58Z</time>
      </trkpt>
      <trkpt lat="47.87119" lon="-1.06083">
        <ele>69.6</ele>
        <time>2020-12-20T09:22:59Z</time>
      </trkpt>
      <trkpt lat="47.87116" lon="-1.0608">
        <ele>69.5</ele>
        <time>2020-12-20T09:23:00Z</time>
      </trkpt>
      <trkpt lat="47.87112" lon="-1.06078">
        <ele>69.5</ele>
        <time>2020-12-20T09:23:01Z</time>
      </trkpt>
      <trkpt lat="47.87109" lon="-1.06075">
        <ele>69.5</ele>
        <time>2020-12-20T09:23:02Z</time>
      </trkpt>
      <trkpt lat="47.87105" lon="-1.06073">
        <ele>69.5</ele>
        <time>2020-12-20T09:23:03Z</time>
      </trkpt>
      <trkpt lat="47.87102" lon="-1.06072">
        <ele>69.5</ele>
        <time>2020-12-20T09:23:04Z</time>
      </trkpt>
      <trkpt lat="47.87099" lon="-1.06071">
        <ele>69.5</ele>
        <time>2020-12-20T09:23:05Z</time>
      </trkpt>
      <trkpt lat="47.87097" lon="-1.06068">
        <ele>69.5</ele>
        <time>2020-12-20T09:23:06Z</time>
      </trkpt>
      <trkpt lat="47.87095" lon="-1.06065">
        <ele>69.4</ele>
        <time>2020-12-20T09:23:07Z</time>
      </trkpt>
      <trkpt lat="47.87094" lon="-1.0606">
        <ele>69.3</ele>
        <time>2020-12-20T09:23:08Z</time>
      </trkpt>
      <trkpt lat="47.87095" lon="-1.06055">
        <ele>69.2</ele>
        <time>2020-12-20T09:23:09Z</time>
      </trkpt>
      <trkpt lat="47.87096" lon="-1.06049">
        <ele>69</ele>
        <time>2020-12-20T09:23:10Z</time>
      </trkpt>
      <trkpt lat="47.87097" lon="-1.06041">
        <ele>68.8</ele>
        <time>2020-12-20T09:23:11Z</time>
      </trkpt>
      <trkpt lat="47.87098" lon="-1.06035">
        <ele>68.7</ele>
        <time>2020-12-20T09:23:12Z</time>
      </trkpt>
      <trkpt lat="47.87099" lon="-1.06028">
        <ele>68.5</ele>
        <time>2020-12-20T09:23:13Z</time>
      </trkpt>
      <trkpt lat="47.871" lon="-1.0602">
        <ele>68.3</ele>
        <time>2020-12-20T09:23:14Z</time>
      </trkpt>
      <trkpt lat="47.87102" lon="-1.06013">
        <ele>68.1</ele>
        <time>2020-12-20T09:23:15Z</time>
      </trkpt>
      <trkpt lat="47.87103" lon="-1.06005">
        <ele>67.9</ele>
        <time>2020-12-20T09:23:16Z</time>
      </trkpt>
      <trkpt lat="47.87104" lon="-1.05997">
        <ele>67.7</ele>
        <time>2020-12-20T09:23:17Z</time>
      </trkpt>
      <trkpt lat="47.87106" lon="-1.0599">
        <ele>67.7</ele>
        <time>2020-12-20T09:23:18Z</time>
      </trkpt>
      <trkpt lat="47.87107" lon="-1.05982">
        <ele>67.7</ele>
        <time>2020-12-20T09:23:19Z</time>
      </trkpt>
      <trkpt lat="47.87108" lon="-1.05974">
        <ele>67.6</ele>
        <time>2020-12-20T09:23:20Z</time>
      </trkpt>
      <trkpt lat="47.87109" lon="-1.05966">
        <ele>67.6</ele>
        <time>2020-12-20T09:23:21Z</time>
      </trkpt>
      <trkpt lat="47.8711" lon="-1.05957">
        <ele>67.5</ele>
        <time>2020-12-20T09:23:22Z</time>
      </trkpt>
      <trkpt lat="47.87112" lon="-1.05948">
        <ele>67.4</ele>
        <time>2020-12-20T09:23:23Z</time>
      </trkpt>
      <trkpt lat="47.87113" lon="-1.05939">
        <ele>67.4</ele>
        <time>2020-12-20T09:23:24Z</time>
      </trkpt>
      <trkpt lat="47.87115" lon="-1.0593">
        <ele>67.3</ele>
        <time>2020-12-20T09:23:25Z</time>
      </trkpt>
      <trkpt lat="47.87116" lon="-1.05921">
        <ele>67.2</ele>
        <time>2020-12-20T09:23:26Z</time>
      </trkpt>
      <trkpt lat="47.87118" lon="-1.05913">
        <ele>67.1</ele>
        <time>2020-12-20T09:23:27Z</time>
      </trkpt>
      <trkpt lat="47.87119" lon="-1.05904">
        <ele>67</ele>
        <time>2020-12-20T09:23:28Z</time>
      </trkpt>
      <trkpt lat="47.87121" lon="-1.05895">
        <ele>66.9</ele>
        <time>2020-12-20T09:23:29Z</time>
      </trkpt>
      <trkpt lat="47.87122" lon="-1.05886">
        <ele>66.8</ele>
        <time>2020-12-20T09:23:30Z</time>
      </trkpt>
      <trkpt lat="47.87124" lon="-1.05878">
        <ele>66.8</ele>
        <time>2020-12-20T09:23:31Z</time>
      </trkpt>
      <trkpt lat="47.87125" lon="-1.05869">
        <ele>66.7</ele>
        <time>2020-12-20T09:23:32Z</time>
      </trkpt>
      <trkpt lat="47.87127" lon="-1.0586">
        <ele>66.7</ele>
        <time>2020-12-20T09:23:33Z</time>
      </trkpt>
      <trkpt lat="47.87128" lon="-1.05851">
        <ele>66.6</ele>
        <time>2020-12-20T09:23:34Z</time>
      </trkpt>
      <trkpt lat="47.8713" lon="-1.05842">
        <ele>66.6</ele>
        <time>2020-12-20T09:23:35Z</time>
      </trkpt>
      <trkpt lat="47.87132" lon="-1.05833">
        <ele>66.6</ele>
        <time>2020-12-20T09:23:36Z</time>
      </trkpt>
      <trkpt lat="47.87133" lon="-1.05823">
        <ele>66.5</ele>
        <time>2020-12-20T09:23:37Z</time>
      </trkpt>
      <trkpt lat="47.87135" lon="-1.05814">
        <ele>66.5</ele>
        <time>2020-12-20T09:23:38Z</time>
      </trkpt>
      <trkpt lat="47.87137" lon="-1.05805">
        <ele>66.4</ele>
        <time>2020-12-20T09:23:39Z</time>
      </trkpt>
      <trkpt lat="47.87139" lon="-1.05796">
        <ele>66.4</ele>
        <time>2020-12-20T09:23:40Z</time>
      </trkpt>
      <trkpt lat="47.87141" lon="-1.05787">
        <ele>66.3</ele>
        <time>2020-12-20T09:23:41Z</time>
      </trkpt>
      <trkpt lat="47.87143" lon="-1.05778">
        <ele>66.2</ele>
        <time>2020-12-20T09:23:42Z</time>
      </trkpt>
      <trkpt lat="47.87145" lon="-1.05768">
        <ele>66.2</ele>
        <time>2020-12-20T09:23:43Z</time>
      </trkpt>
      <trkpt lat="47.87147" lon="-1.05759">
        <ele>66.1</ele>
        <time>2020-12-20T09:23:44Z</time>
      </trkpt>
      <trkpt lat="47.8715" lon="-1.0575">
        <ele>66</ele>
        <time>2020-12-20T09:23:45Z</time>
      </trkpt>
      <trkpt lat="47.87152" lon="-1.0574">
        <ele>65.6</ele>
        <time>2020-12-20T09:23:46Z</time>
      </trkpt>
      <trkpt lat="47.87154" lon="-1.05731">
        <ele>65.3</ele>
        <time>2020-12-20T09:23:47Z</time>
      </trkpt>
      <trkpt lat="47.87156" lon="-1.05721">
        <ele>65</ele>
        <time>2020-12-20T09:23:48Z</time>
      </trkpt>
      <trkpt lat="47.87158" lon="-1.05711">
        <ele>64.6</ele>
        <time>2020-12-20T09:23:49Z</time>
      </trkpt>
      <trkpt lat="47.8716" lon="-1.05702">
        <ele>64.3</ele>
        <time>2020-12-20T09:23:50Z</time>
      </trkpt>
      <trkpt lat="47.87163" lon="-1.05691">
        <ele>63.9</ele>
        <time>2020-12-20T09:23:51Z</time>
      </trkpt>
      <trkpt lat="47.87164" lon="-1.05681">
        <ele>63.5</ele>
        <time>2020-12-20T09:23:52Z</time>
      </trkpt>
      <trkpt lat="47.87167" lon="-1.05671">
        <ele>63.1</ele>
        <time>2020-12-20T09:23:53Z</time>
      </trkpt>
      <trkpt lat="47.87169" lon="-1.05661">
        <ele>62.6</ele>
        <time>2020-12-20T09:23:54Z</time>
      </trkpt>
      <trkpt lat="47.87171" lon="-1.0565">
        <ele>62</ele>
        <time>2020-12-20T09:23:55Z</time>
      </trkpt>
      <trkpt lat="47.87173" lon="-1.0564">
        <ele>61.4</ele>
        <time>2020-12-20T09:23:56Z</time>
      </trkpt>
      <trkpt lat="47.87175" lon="-1.05629">
        <ele>60.8</ele>
        <time>2020-12-20T09:23:57Z</time>
      </trkpt>
      <trkpt lat="47.87177" lon="-1.05618">
        <ele>60.3</ele>
        <time>2020-12-20T09:23:58Z</time>
      </trkpt>
      <trkpt lat="47.87179" lon="-1.05607">
        <ele>59.7</ele>
        <time>2020-12-20T09:23:59Z</time>
      </trkpt>
      <trkpt lat="47.8718" lon="-1.05596">
        <ele>59.2</ele>
        <time>2020-12-20T09:24:00Z</time>
      </trkpt>
      <trkpt lat="47.87181" lon="-1.05584">
        <ele>58.7</ele>
        <time>2020-12-20T09:24:01Z</time>
      </trkpt>
      <trkpt lat="47.87182" lon="-1.05574">
        <ele>58.4</ele>
        <time>2020-12-20T09:24:02Z</time>
      </trkpt>
      <trkpt lat="47.87183" lon="-1.05563">
        <ele>58.2</ele>
        <time>2020-12-20T09:24:03Z</time>
      </trkpt>
      <trkpt lat="47.87183" lon="-1.05552">
        <ele>57.9</ele>
        <time>2020-12-20T09:24:04Z</time>
      </trkpt>
      <trkpt lat="47.87184" lon="-1.05541">
        <ele>57.7</ele>
        <time>2020-12-20T09:24:05Z</time>
      </trkpt>
      <trkpt lat="47.87185" lon="-1.0553">
        <ele>57.4</ele>
        <time>2020-12-20T09:24:06Z</time>
      </trkpt>
      <trkpt lat="47.87185" lon="-1.05519">
        <ele>57.2</ele>
        <time>2020-12-20T09:24:07Z</time>
      </trkpt>
      <trkpt lat="47.87186" lon="-1.05506">
        <ele>56.9</ele>
        <time>2020-12-20T09:24:08Z</time>
      </trkpt>
      <trkpt lat="47.87187" lon="-1.05495">
        <ele>56.7</ele>
        <time>2020-12-20T09:24:09Z</time>
      </trkpt>
      <trkpt lat="47.87187" lon="-1.05486">
        <ele>56.7</ele>
        <time>2020-12-20T09:24:10Z</time>
      </trkpt>
      <trkpt lat="47.87188" lon="-1.05476">
        <ele>56.7</ele>
        <time>2020-12-20T09:24:11Z</time>
      </trkpt>
      <trkpt lat="47.87189" lon="-1.05463">
        <ele>56.6</ele>
        <time>2020-12-20T09:24:12Z</time>
      </trkpt>
      <trkpt lat="47.87189" lon="-1.05452">
        <ele>56.6</ele>
        <time>2020-12-20T09:24:13Z</time>
      </trkpt>
      <trkpt lat="47.8719" lon="-1.05441">
        <ele>56.5</ele>
        <time>2020-12-20T09:24:14Z</time>
      </trkpt>
      <trkpt lat="47.8719" lon="-1.05432">
        <ele>56.5</ele>
        <time>2020-12-20T09:24:15Z</time>
      </trkpt>
      <trkpt lat="47.87192" lon="-1.05418">
        <ele>56.4</ele>
        <time>2020-12-20T09:24:16Z</time>
      </trkpt>
      <trkpt lat="47.87192" lon="-1.05409">
        <ele>56.3</ele>
        <time>2020-12-20T09:24:17Z</time>
      </trkpt>
      <trkpt lat="47.87193" lon="-1.05397">
        <ele>56.2</ele>
        <time>2020-12-20T09:24:18Z</time>
      </trkpt>
      <trkpt lat="47.87194" lon="-1.05389">
        <ele>56.1</ele>
        <time>2020-12-20T09:24:19Z</time>
      </trkpt>
      <trkpt lat="47.87194" lon="-1.05378">
        <ele>56</ele>
        <time>2020-12-20T09:24:20Z</time>
      </trkpt>
      <trkpt lat="47.87195" lon="-1.05366">
        <ele>55.9</ele>
        <time>2020-12-20T09:24:21Z</time>
      </trkpt>
      <trkpt lat="47.87194" lon="-1.05356">
        <ele>55.9</ele>
        <time>2020-12-20T09:24:22Z</time>
      </trkpt>
      <trkpt lat="47.87193" lon="-1.05346">
        <ele>55.8</ele>
        <time>2020-12-20T09:24:23Z</time>
      </trkpt>
      <trkpt lat="47.87189" lon="-1.05337">
        <ele>56</ele>
        <time>2020-12-20T09:24:24Z</time>
      </trkpt>
      <trkpt lat="47.87184" lon="-1.05328">
        <ele>56.1</ele>
        <time>2020-12-20T09:24:25Z</time>
      </trkpt>
      <trkpt lat="47.87178" lon="-1.05322">
        <ele>56.2</ele>
        <time>2020-12-20T09:24:26Z</time>
      </trkpt>
      <trkpt lat="47.87171" lon="-1.05321">
        <ele>56.5</ele>
        <time>2020-12-20T09:24:27Z</time>
      </trkpt>
      <trkpt lat="47.87165" lon="-1.05324">
        <ele>56.7</ele>
        <time>2020-12-20T09:24:28Z</time>
      </trkpt>
      <trkpt lat="47.87158" lon="-1.05329">
        <ele>56.7</ele>
        <time>2020-12-20T09:24:29Z</time>
      </trkpt>
      <trkpt lat="47.87151" lon="-1.05333">
        <ele>56.6</ele>
        <time>2020-12-20T09:24:30Z</time>
      </trkpt>
      <trkpt lat="47.87145" lon="-1.05339">
        <ele>56.5</ele>
        <time>2020-12-20T09:24:31Z</time>
      </trkpt>
      <trkpt lat="47.87138" lon="-1.05344">
        <ele>56.4</ele>
        <time>2020-12-20T09:24:32Z</time>
      </trkpt>
      <trkpt lat="47.8713" lon="-1.0535">
        <ele>56.2</ele>
        <time>2020-12-20T09:24:33Z</time>
      </trkpt>
      <trkpt lat="47.87124" lon="-1.05354">
        <ele>56.1</ele>
        <time>2020-12-20T09:24:34Z</time>
      </trkpt>
      <trkpt lat="47.87118" lon="-1.05358">
        <ele>56</ele>
        <time>2020-12-20T09:24:35Z</time>
      </trkpt>
      <trkpt lat="47.87113" lon="-1.05362">
        <ele>55.9</ele>
        <time>2020-12-20T09:24:36Z</time>
      </trkpt>
      <trkpt lat="47.87109" lon="-1.05365">
        <ele>55.9</ele>
        <time>2020-12-20T09:24:37Z</time>
      </trkpt>
      <trkpt lat="47.87103" lon="-1.0537">
        <ele>55.8</ele>
        <time>2020-12-20T09:24:38Z</time>
      </trkpt>
      <trkpt lat="47.87097" lon="-1.05374">
        <ele>55.7</ele>
        <time>2020-12-20T09:24:39Z</time>
      </trkpt>
      <trkpt lat="47.87091" lon="-1.05378">
        <ele>55.7</ele>
        <time>2020-12-20T09:24:40Z</time>
      </trkpt>
      <trkpt lat="47.87085" lon="-1.05382">
        <ele>55.6</ele>
        <time>2020-12-20T09:24:41Z</time>
      </trkpt>
      <trkpt lat="47.87079" lon="-1.05386">
        <ele>55.5</ele>
        <time>2020-12-20T09:24:42Z</time>
      </trkpt>
      <trkpt lat="47.87073" lon="-1.0539">
        <ele>55.5</ele>
        <time>2020-12-20T09:24:43Z</time>
      </trkpt>
      <trkpt lat="47.87067" lon="-1.05394">
        <ele>55.4</ele>
        <time>2020-12-20T09:24:44Z</time>
      </trkpt>
      <trkpt lat="47.8706" lon="-1.05398">
        <ele>55.4</ele>
        <time>2020-12-20T09:24:45Z</time>
      </trkpt>
      <trkpt lat="47.87055" lon="-1.05402">
        <ele>55.4</ele>
        <time>2020-12-20T09:24:46Z</time>
      </trkpt>
      <trkpt lat="47.87049" lon="-1.05406">
        <ele>55.4</ele>
        <time>2020-12-20T09:24:47Z</time>
      </trkpt>
      <trkpt lat="47.87043" lon="-1.0541">
        <ele>55.4</ele>
        <time>2020-12-20T09:24:48Z</time>
      </trkpt>
      <trkpt lat="47.87037" lon="-1.05414">
        <ele>55.4</ele>
        <time>2020-12-20T09:24:49Z</time>
      </trkpt>
      <trkpt lat="47.8703" lon="-1.05419">
        <ele>55.4</ele>
        <time>2020-12-20T09:24:50Z</time>
      </trkpt>
      <trkpt lat="47.87024" lon="-1.05424">
        <ele>55.5</ele>
        <time>2020-12-20T09:24:51Z</time>
      </trkpt>
      <trkpt lat="47.87018" lon="-1.05428">
        <ele>55.6</ele>
        <time>2020-12-20T09:24:52Z</time>
      </trkpt>
      <trkpt lat="47.87013" lon="-1.05434">
        <ele>55.7</ele>
        <time>2020-12-20T09:24:53Z</time>
      </trkpt>
      <trkpt lat="47.87007" lon="-1.05439">
        <ele>55.8</ele>
        <time>2020-12-20T09:24:54Z</time>
      </trkpt>
      <trkpt lat="47.87001" lon="-1.05444">
        <ele>56</ele>
        <time>2020-12-20T09:24:55Z</time>
      </trkpt>
      <trkpt lat="47.86996" lon="-1.05449">
        <ele>56.1</ele>
        <time>2020-12-20T09:24:56Z</time>
      </trkpt>
      <trkpt lat="47.8699" lon="-1.05455">
        <ele>56.4</ele>
        <time>2020-12-20T09:24:57Z</time>
      </trkpt>
      <trkpt lat="47.86985" lon="-1.0546">
        <ele>56.6</ele>
        <time>2020-12-20T09:24:58Z</time>
      </trkpt>
      <trkpt lat="47.8698" lon="-1.05465">
        <ele>56.8</ele>
        <time>2020-12-20T09:24:59Z</time>
      </trkpt>
      <trkpt lat="47.86975" lon="-1.05471">
        <ele>57.1</ele>
        <time>2020-12-20T09:25:00Z</time>
      </trkpt>
      <trkpt lat="47.86969" lon="-1.05476">
        <ele>57.5</ele>
        <time>2020-12-20T09:25:01Z</time>
      </trkpt>
      <trkpt lat="47.86964" lon="-1.05481">
        <ele>57.8</ele>
        <time>2020-12-20T09:25:02Z</time>
      </trkpt>
      <trkpt lat="47.86959" lon="-1.05486">
        <ele>58.1</ele>
        <time>2020-12-20T09:25:03Z</time>
      </trkpt>
      <trkpt lat="47.86954" lon="-1.05491">
        <ele>58.5</ele>
        <time>2020-12-20T09:25:04Z</time>
      </trkpt>
      <trkpt lat="47.8695" lon="-1.05496">
        <ele>58.9</ele>
        <time>2020-12-20T09:25:05Z</time>
      </trkpt>
      <trkpt lat="47.86944" lon="-1.05501">
        <ele>59.3</ele>
        <time>2020-12-20T09:25:06Z</time>
      </trkpt>
      <trkpt lat="47.86939" lon="-1.05505">
        <ele>59.4</ele>
        <time>2020-12-20T09:25:07Z</time>
      </trkpt>
      <trkpt lat="47.86935" lon="-1.05509">
        <ele>59.5</ele>
        <time>2020-12-20T09:25:08Z</time>
      </trkpt>
      <trkpt lat="47.8693" lon="-1.05513">
        <ele>59.6</ele>
        <time>2020-12-20T09:25:09Z</time>
      </trkpt>
      <trkpt lat="47.86926" lon="-1.05518">
        <ele>59.6</ele>
        <time>2020-12-20T09:25:10Z</time>
      </trkpt>
      <trkpt lat="47.86921" lon="-1.05522">
        <ele>59.7</ele>
        <time>2020-12-20T09:25:11Z</time>
      </trkpt>
      <trkpt lat="47.86917" lon="-1.05526">
        <ele>59.7</ele>
        <time>2020-12-20T09:25:12Z</time>
      </trkpt>
      <trkpt lat="47.86912" lon="-1.05532">
        <ele>59.4</ele>
        <time>2020-12-20T09:25:13Z</time>
      </trkpt>
      <trkpt lat="47.86907" lon="-1.05537">
        <ele>59.2</ele>
        <time>2020-12-20T09:25:14Z</time>
      </trkpt>
      <trkpt lat="47.86902" lon="-1.05542">
        <ele>59</ele>
        <time>2020-12-20T09:25:15Z</time>
      </trkpt>
      <trkpt lat="47.86897" lon="-1.05547">
        <ele>58.8</ele>
        <time>2020-12-20T09:25:16Z</time>
      </trkpt>
      <trkpt lat="47.86892" lon="-1.05552">
        <ele>58.6</ele>
        <time>2020-12-20T09:25:17Z</time>
      </trkpt>
      <trkpt lat="47.86888" lon="-1.05557">
        <ele>58.4</ele>
        <time>2020-12-20T09:25:18Z</time>
      </trkpt>
      <trkpt lat="47.86883" lon="-1.05562">
        <ele>58.2</ele>
        <time>2020-12-20T09:25:19Z</time>
      </trkpt>
      <trkpt lat="47.86878" lon="-1.05567">
        <ele>58.1</ele>
        <time>2020-12-20T09:25:20Z</time>
      </trkpt>
      <trkpt lat="47.86871" lon="-1.05572">
        <ele>57.9</ele>
        <time>2020-12-20T09:25:21Z</time>
      </trkpt>
      <trkpt lat="47.86865" lon="-1.05577">
        <ele>57.7</ele>
        <time>2020-12-20T09:25:22Z</time>
      </trkpt>
      <trkpt lat="47.8686" lon="-1.05581">
        <ele>57.6</ele>
        <time>2020-12-20T09:25:23Z</time>
      </trkpt>
      <trkpt lat="47.86854" lon="-1.05586">
        <ele>57.5</ele>
        <time>2020-12-20T09:25:24Z</time>
      </trkpt>
      <trkpt lat="47.86849" lon="-1.0559">
        <ele>57.5</ele>
        <time>2020-12-20T09:25:25Z</time>
      </trkpt>
      <trkpt lat="47.86843" lon="-1.05594">
        <ele>57.4</ele>
        <time>2020-12-20T09:25:26Z</time>
      </trkpt>
      <trkpt lat="47.86838" lon="-1.05599">
        <ele>57.3</ele>
        <time>2020-12-20T09:25:27Z</time>
      </trkpt>
      <trkpt lat="47.86832" lon="-1.05603">
        <ele>57.2</ele>
        <time>2020-12-20T09:25:28Z</time>
      </trkpt>
      <trkpt lat="47.86827" lon="-1.05607">
        <ele>57.2</ele>
        <time>2020-12-20T09:25:29Z</time>
      </trkpt>
      <trkpt lat="47.86822" lon="-1.05611">
        <ele>57.1</ele>
        <time>2020-12-20T09:25:30Z</time>
      </trkpt>
      <trkpt lat="47.86817" lon="-1.05615">
        <ele>57.1</ele>
        <time>2020-12-20T09:25:31Z</time>
      </trkpt>
      <trkpt lat="47.86812" lon="-1.05619">
        <ele>57</ele>
        <time>2020-12-20T09:25:32Z</time>
      </trkpt>
      <trkpt lat="47.86808" lon="-1.05623">
        <ele>57</ele>
        <time>2020-12-20T09:25:33Z</time>
      </trkpt>
      <trkpt lat="47.86803" lon="-1.05628">
        <ele>57</ele>
        <time>2020-12-20T09:25:34Z</time>
      </trkpt>
      <trkpt lat="47.86798" lon="-1.05632">
        <ele>57</ele>
        <time>2020-12-20T09:25:35Z</time>
      </trkpt>
      <trkpt lat="47.86793" lon="-1.05636">
        <ele>57</ele>
        <time>2020-12-20T09:25:36Z</time>
      </trkpt>
      <trkpt lat="47.86788" lon="-1.05639">
        <ele>56.9</ele>
        <time>2020-12-20T09:25:37Z</time>
      </trkpt>
      <trkpt lat="47.86784" lon="-1.05643">
        <ele>57</ele>
        <time>2020-12-20T09:25:38Z</time>
      </trkpt>
      <trkpt lat="47.86779" lon="-1.05648">
        <ele>57</ele>
        <time>2020-12-20T09:25:39Z</time>
      </trkpt>
      <trkpt lat="47.86774" lon="-1.05652">
        <ele>57</ele>
        <time>2020-12-20T09:25:40Z</time>
      </trkpt>
      <trkpt lat="47.86769" lon="-1.05656">
        <ele>57</ele>
        <time>2020-12-20T09:25:41Z</time>
      </trkpt>
      <trkpt lat="47.86764" lon="-1.0566">
        <ele>57</ele>
        <time>2020-12-20T09:25:42Z</time>
      </trkpt>
      <trkpt lat="47.86759" lon="-1.05664">
        <ele>57</ele>
        <time>2020-12-20T09:25:43Z</time>
      </trkpt>
      <trkpt lat="47.86754" lon="-1.05668">
        <ele>57.1</ele>
        <time>2020-12-20T09:25:44Z</time>
      </trkpt>
      <trkpt lat="47.8675" lon="-1.05672">
        <ele>57.1</ele>
        <time>2020-12-20T09:25:45Z</time>
      </trkpt>
      <trkpt lat="47.86745" lon="-1.05676">
        <ele>56.9</ele>
        <time>2020-12-20T09:25:46Z</time>
      </trkpt>
      <trkpt lat="47.86741" lon="-1.0568">
        <ele>56.8</ele>
        <time>2020-12-20T09:25:47Z</time>
      </trkpt>
      <trkpt lat="47.86736" lon="-1.05683">
        <ele>56.7</ele>
        <time>2020-12-20T09:25:48Z</time>
      </trkpt>
      <trkpt lat="47.86731" lon="-1.05687">
        <ele>56.5</ele>
        <time>2020-12-20T09:25:49Z</time>
      </trkpt>
      <trkpt lat="47.86727" lon="-1.0569">
        <ele>56.4</ele>
        <time>2020-12-20T09:25:50Z</time>
      </trkpt>
      <trkpt lat="47.86722" lon="-1.05693">
        <ele>56.2</ele>
        <time>2020-12-20T09:25:51Z</time>
      </trkpt>
      <trkpt lat="47.86718" lon="-1.05695">
        <ele>56.1</ele>
        <time>2020-12-20T09:25:52Z</time>
      </trkpt>
      <trkpt lat="47.86713" lon="-1.05697">
        <ele>55.9</ele>
        <time>2020-12-20T09:25:53Z</time>
      </trkpt>
      <trkpt lat="47.86709" lon="-1.05699">
        <ele>55.7</ele>
        <time>2020-12-20T09:25:54Z</time>
      </trkpt>
      <trkpt lat="47.86704" lon="-1.05701">
        <ele>55.5</ele>
        <time>2020-12-20T09:25:55Z</time>
      </trkpt>
      <trkpt lat="47.867" lon="-1.05704">
        <ele>55.4</ele>
        <time>2020-12-20T09:25:56Z</time>
      </trkpt>
      <trkpt lat="47.86698" lon="-1.0571">
        <ele>55.3</ele>
        <time>2020-12-20T09:25:57Z</time>
      </trkpt>
      <trkpt lat="47.86697" lon="-1.05716">
        <ele>55.3</ele>
        <time>2020-12-20T09:25:58Z</time>
      </trkpt>
      <trkpt lat="47.86698" lon="-1.05721">
        <ele>55.4</ele>
        <time>2020-12-20T09:25:59Z</time>
      </trkpt>
      <trkpt lat="47.867" lon="-1.05726">
        <ele>55.5</ele>
        <time>2020-12-20T09:26:00Z</time>
      </trkpt>
      <trkpt lat="47.86702" lon="-1.05729">
        <ele>55.6</ele>
        <time>2020-12-20T09:26:01Z</time>
      </trkpt>
      <trkpt lat="47.86704" lon="-1.05732">
        <ele>55.7</ele>
        <time>2020-12-20T09:26:02Z</time>
      </trkpt>
      <trkpt lat="47.86706" lon="-1.05736">
        <ele>55.8</ele>
        <time>2020-12-20T09:26:03Z</time>
      </trkpt>
      <trkpt lat="47.86708" lon="-1.05741">
        <ele>55.9</ele>
        <time>2020-12-20T09:26:04Z</time>
      </trkpt>
      <trkpt lat="47.86709" lon="-1.05747">
        <ele>56</ele>
        <time>2020-12-20T09:26:05Z</time>
      </trkpt>
      <trkpt lat="47.8671" lon="-1.05754">
        <ele>56.1</ele>
        <time>2020-12-20T09:26:06Z</time>
      </trkpt>
      <trkpt lat="47.86712" lon="-1.05761">
        <ele>56.1</ele>
        <time>2020-12-20T09:26:07Z</time>
      </trkpt>
      <trkpt lat="47.86713" lon="-1.05768">
        <ele>56.1</ele>
        <time>2020-12-20T09:26:08Z</time>
      </trkpt>
      <trkpt lat="47.86714" lon="-1.05775">
        <ele>56.1</ele>
        <time>2020-12-20T09:26:09Z</time>
      </trkpt>
      <trkpt lat="47.86716" lon="-1.05782">
        <ele>56.1</ele>
        <time>2020-12-20T09:26:10Z</time>
      </trkpt>
      <trkpt lat="47.86717" lon="-1.05789">
        <ele>56.1</ele>
        <time>2020-12-20T09:26:11Z</time>
      </trkpt>
      <trkpt lat="47.86719" lon="-1.05797">
        <ele>56.2</ele>
        <time>2020-12-20T09:26:12Z</time>
      </trkpt>
      <trkpt lat="47.8672" lon="-1.05805">
        <ele>56.1</ele>
        <time>2020-12-20T09:26:13Z</time>
      </trkpt>
      <trkpt lat="47.86721" lon="-1.05814">
        <ele>56.1</ele>
        <time>2020-12-20T09:26:14Z</time>
      </trkpt>
      <trkpt lat="47.86723" lon="-1.05823">
        <ele>56.1</ele>
        <time>2020-12-20T09:26:15Z</time>
      </trkpt>
      <trkpt lat="47.86724" lon="-1.05832">
        <ele>56.1</ele>
        <time>2020-12-20T09:26:16Z</time>
      </trkpt>
      <trkpt lat="47.86724" lon="-1.05842">
        <ele>56.1</ele>
        <time>2020-12-20T09:26:17Z</time>
      </trkpt>
      <trkpt lat="47.86725" lon="-1.05851">
        <ele>56.1</ele>
        <time>2020-12-20T09:26:18Z</time>
      </trkpt>
      <trkpt lat="47.86726" lon="-1.05861">
        <ele>56.1</ele>
        <time>2020-12-20T09:26:19Z</time>
      </trkpt>
      <trkpt lat="47.86726" lon="-1.0587">
        <ele>56.1</ele>
        <time>2020-12-20T09:26:20Z</time>
      </trkpt>
      <trkpt lat="47.86727" lon="-1.0588">
        <ele>56.2</ele>
        <time>2020-12-20T09:26:21Z</time>
      </trkpt>
      <trkpt lat="47.86728" lon="-1.05889">
        <ele>56.2</ele>
        <time>2020-12-20T09:26:22Z</time>
      </trkpt>
      <trkpt lat="47.86729" lon="-1.05898">
        <ele>56.2</ele>
        <time>2020-12-20T09:26:23Z</time>
      </trkpt>
      <trkpt lat="47.8673" lon="-1.05908">
        <ele>56.3</ele>
        <time>2020-12-20T09:26:24Z</time>
      </trkpt>
      <trkpt lat="47.86731" lon="-1.05917">
        <ele>56.3</ele>
        <time>2020-12-20T09:26:25Z</time>
      </trkpt>
      <trkpt lat="47.86732" lon="-1.05927">
        <ele>56.4</ele>
        <time>2020-12-20T09:26:26Z</time>
      </trkpt>
      <trkpt lat="47.86733" lon="-1.05936">
        <ele>56.4</ele>
        <time>2020-12-20T09:26:27Z</time>
      </trkpt>
      <trkpt lat="47.86734" lon="-1.05946">
        <ele>56.4</ele>
        <time>2020-12-20T09:26:28Z</time>
      </trkpt>
      <trkpt lat="47.86735" lon="-1.05955">
        <ele>56.5</ele>
        <time>2020-12-20T09:26:29Z</time>
      </trkpt>
      <trkpt lat="47.86736" lon="-1.05964">
        <ele>56.5</ele>
        <time>2020-12-20T09:26:30Z</time>
      </trkpt>
      <trkpt lat="47.86736" lon="-1.05974">
        <ele>56.5</ele>
        <time>2020-12-20T09:26:31Z</time>
      </trkpt>
      <trkpt lat="47.86737" lon="-1.05983">
        <ele>56.5</ele>
        <time>2020-12-20T09:26:32Z</time>
      </trkpt>
      <trkpt lat="47.86737" lon="-1.05992">
        <ele>56.5</ele>
        <time>2020-12-20T09:26:33Z</time>
      </trkpt>
      <trkpt lat="47.86738" lon="-1.06002">
        <ele>56.6</ele>
        <time>2020-12-20T09:26:34Z</time>
      </trkpt>
      <trkpt lat="47.86738" lon="-1.06011">
        <ele>56.6</ele>
        <time>2020-12-20T09:26:35Z</time>
      </trkpt>
      <trkpt lat="47.86737" lon="-1.06019">
        <ele>56.5</ele>
        <time>2020-12-20T09:26:36Z</time>
      </trkpt>
      <trkpt lat="47.86735" lon="-1.06027">
        <ele>56.5</ele>
        <time>2020-12-20T09:26:37Z</time>
      </trkpt>
      <trkpt lat="47.86735" lon="-1.06036">
        <ele>56.5</ele>
        <time>2020-12-20T09:26:38Z</time>
      </trkpt>
      <trkpt lat="47.86734" lon="-1.06044">
        <ele>56.4</ele>
        <time>2020-12-20T09:26:39Z</time>
      </trkpt>
      <trkpt lat="47.86735" lon="-1.06053">
        <ele>56.5</ele>
        <time>2020-12-20T09:26:40Z</time>
      </trkpt>
      <trkpt lat="47.86736" lon="-1.06061">
        <ele>56.5</ele>
        <time>2020-12-20T09:26:41Z</time>
      </trkpt>
      <trkpt lat="47.86737" lon="-1.06069">
        <ele>56.5</ele>
        <time>2020-12-20T09:26:42Z</time>
      </trkpt>
      <trkpt lat="47.86737" lon="-1.06076">
        <ele>56.5</ele>
        <time>2020-12-20T09:26:43Z</time>
      </trkpt>
      <trkpt lat="47.86739" lon="-1.06084">
        <ele>56.6</ele>
        <time>2020-12-20T09:26:44Z</time>
      </trkpt>
      <trkpt lat="47.8674" lon="-1.06092">
        <ele>56.7</ele>
        <time>2020-12-20T09:26:45Z</time>
      </trkpt>
      <trkpt lat="47.86741" lon="-1.06099">
        <ele>56.8</ele>
        <time>2020-12-20T09:26:46Z</time>
      </trkpt>
      <trkpt lat="47.86742" lon="-1.06106">
        <ele>57</ele>
        <time>2020-12-20T09:26:47Z</time>
      </trkpt>
      <trkpt lat="47.86742" lon="-1.06113">
        <ele>57</ele>
        <time>2020-12-20T09:26:48Z</time>
      </trkpt>
      <trkpt lat="47.86743" lon="-1.06119">
        <ele>57.1</ele>
        <time>2020-12-20T09:26:49Z</time>
      </trkpt>
      <trkpt lat="47.86744" lon="-1.06126">
        <ele>57.3</ele>
        <time>2020-12-20T09:26:50Z</time>
      </trkpt>
      <trkpt lat="47.86745" lon="-1.06133">
        <ele>57.4</ele>
        <time>2020-12-20T09:26:51Z</time>
      </trkpt>
      <trkpt lat="47.86746" lon="-1.0614">
        <ele>57.5</ele>
        <time>2020-12-20T09:26:52Z</time>
      </trkpt>
      <trkpt lat="47.86747" lon="-1.06147">
        <ele>57.6</ele>
        <time>2020-12-20T09:26:53Z</time>
      </trkpt>
      <trkpt lat="47.86747" lon="-1.06161">
        <ele>57.8</ele>
        <time>2020-12-20T09:26:55Z</time>
      </trkpt>
      <trkpt lat="47.86747" lon="-1.06168">
        <ele>57.9</ele>
        <time>2020-12-20T09:26:56Z</time>
      </trkpt>
      <trkpt lat="47.86747" lon="-1.06175">
        <ele>58</ele>
        <time>2020-12-20T09:26:57Z</time>
      </trkpt>
      <trkpt lat="47.86748" lon="-1.06181">
        <ele>58.1</ele>
        <time>2020-12-20T09:26:58Z</time>
      </trkpt>
      <trkpt lat="47.86748" lon="-1.06187">
        <ele>58.1</ele>
        <time>2020-12-20T09:26:59Z</time>
      </trkpt>
      <trkpt lat="47.86748" lon="-1.06194">
        <ele>58.2</ele>
        <time>2020-12-20T09:27:00Z</time>
      </trkpt>
      <trkpt lat="47.86747" lon="-1.06201">
        <ele>58.3</ele>
        <time>2020-12-20T09:27:01Z</time>
      </trkpt>
      <trkpt lat="47.86745" lon="-1.06207">
        <ele>58.2</ele>
        <time>2020-12-20T09:27:02Z</time>
      </trkpt>
      <trkpt lat="47.86744" lon="-1.06213">
        <ele>58.2</ele>
        <time>2020-12-20T09:27:03Z</time>
      </trkpt>
      <trkpt lat="47.86744" lon="-1.06219">
        <ele>58.3</ele>
        <time>2020-12-20T09:27:04Z</time>
      </trkpt>
      <trkpt lat="47.86745" lon="-1.06226">
        <ele>58.4</ele>
        <time>2020-12-20T09:27:05Z</time>
      </trkpt>
      <trkpt lat="47.86746" lon="-1.06233">
        <ele>58.6</ele>
        <time>2020-12-20T09:27:06Z</time>
      </trkpt>
      <trkpt lat="47.86746" lon="-1.06239">
        <ele>58.6</ele>
        <time>2020-12-20T09:27:07Z</time>
      </trkpt>
      <trkpt lat="47.86747" lon="-1.06245">
        <ele>58.8</ele>
        <time>2020-12-20T09:27:08Z</time>
      </trkpt>
      <trkpt lat="47.86748" lon="-1.0625">
        <ele>58.9</ele>
        <time>2020-12-20T09:27:09Z</time>
      </trkpt>
      <trkpt lat="47.86749" lon="-1.06256">
        <ele>58.9</ele>
        <time>2020-12-20T09:27:10Z</time>
      </trkpt>
      <trkpt lat="47.8675" lon="-1.06261">
        <ele>58.9</ele>
        <time>2020-12-20T09:27:11Z</time>
      </trkpt>
      <trkpt lat="47.86751" lon="-1.06266">
        <ele>58.8</ele>
        <time>2020-12-20T09:27:12Z</time>
      </trkpt>
      <trkpt lat="47.86752" lon="-1.06271">
        <ele>58.8</ele>
        <time>2020-12-20T09:27:13Z</time>
      </trkpt>
      <trkpt lat="47.86753" lon="-1.06276">
        <ele>58.8</ele>
        <time>2020-12-20T09:27:14Z</time>
      </trkpt>
      <trkpt lat="47.86753" lon="-1.06281">
        <ele>58.7</ele>
        <time>2020-12-20T09:27:15Z</time>
      </trkpt>
      <trkpt lat="47.86754" lon="-1.06285">
        <ele>58.7</ele>
        <time>2020-12-20T09:27:16Z</time>
      </trkpt>
      <trkpt lat="47.86755" lon="-1.0629">
        <ele>58.6</ele>
        <time>2020-12-20T09:27:17Z</time>
      </trkpt>
      <trkpt lat="47.86756" lon="-1.06295">
        <ele>58.6</ele>
        <time>2020-12-20T09:27:18Z</time>
      </trkpt>
      <trkpt lat="47.86757" lon="-1.063">
        <ele>58.6</ele>
        <time>2020-12-20T09:27:19Z</time>
      </trkpt>
      <trkpt lat="47.86758" lon="-1.06305">
        <ele>58.5</ele>
        <time>2020-12-20T09:27:20Z</time>
      </trkpt>
      <trkpt lat="47.86759" lon="-1.06309">
        <ele>58.5</ele>
        <time>2020-12-20T09:27:21Z</time>
      </trkpt>
      <trkpt lat="47.8676" lon="-1.06313">
        <ele>58.4</ele>
        <time>2020-12-20T09:27:22Z</time>
      </trkpt>
      <trkpt lat="47.8676" lon="-1.06317">
        <ele>58.4</ele>
        <time>2020-12-20T09:27:23Z</time>
      </trkpt>
      <trkpt lat="47.86761" lon="-1.06321">
        <ele>58.3</ele>
        <time>2020-12-20T09:27:24Z</time>
      </trkpt>
      <trkpt lat="47.86762" lon="-1.06325">
        <ele>58.3</ele>
        <time>2020-12-20T09:27:25Z</time>
      </trkpt>
      <trkpt lat="47.86763" lon="-1.0633">
        <ele>58.2</ele>
        <time>2020-12-20T09:27:26Z</time>
      </trkpt>
      <trkpt lat="47.86764" lon="-1.06335">
        <ele>58.1</ele>
        <time>2020-12-20T09:27:27Z</time>
      </trkpt>
      <trkpt lat="47.86765" lon="-1.0634">
        <ele>57.9</ele>
        <time>2020-12-20T09:27:28Z</time>
      </trkpt>
      <trkpt lat="47.86766" lon="-1.06345">
        <ele>57.7</ele>
        <time>2020-12-20T09:27:29Z</time>
      </trkpt>
      <trkpt lat="47.86768" lon="-1.0635">
        <ele>57.5</ele>
        <time>2020-12-20T09:27:30Z</time>
      </trkpt>
      <trkpt lat="47.86769" lon="-1.06355">
        <ele>57.3</ele>
        <time>2020-12-20T09:27:31Z</time>
      </trkpt>
      <trkpt lat="47.8677" lon="-1.06361">
        <ele>57.1</ele>
        <time>2020-12-20T09:27:32Z</time>
      </trkpt>
      <trkpt lat="47.86771" lon="-1.06366">
        <ele>56.9</ele>
        <time>2020-12-20T09:27:33Z</time>
      </trkpt>
      <trkpt lat="47.86772" lon="-1.0637">
        <ele>56.7</ele>
        <time>2020-12-20T09:27:34Z</time>
      </trkpt>
      <trkpt lat="47.86773" lon="-1.06375">
        <ele>56.6</ele>
        <time>2020-12-20T09:27:35Z</time>
      </trkpt>
      <trkpt lat="47.86774" lon="-1.06377">
        <ele>56.5</ele>
        <time>2020-12-20T09:27:36Z</time>
      </trkpt>
      <trkpt lat="47.86775" lon="-1.0638">
        <ele>56.4</ele>
        <time>2020-12-20T09:27:37Z</time>
      </trkpt>
      <trkpt lat="47.86777" lon="-1.06385">
        <ele>56.2</ele>
        <time>2020-12-20T09:27:38Z</time>
      </trkpt>
      <trkpt lat="47.86778" lon="-1.06391">
        <ele>56</ele>
        <time>2020-12-20T09:27:39Z</time>
      </trkpt>
      <trkpt lat="47.86779" lon="-1.06397">
        <ele>55.8</ele>
        <time>2020-12-20T09:27:40Z</time>
      </trkpt>
      <trkpt lat="47.86781" lon="-1.06404">
        <ele>55.6</ele>
        <time>2020-12-20T09:27:41Z</time>
      </trkpt>
      <trkpt lat="47.86782" lon="-1.0641">
        <ele>55.4</ele>
        <time>2020-12-20T09:27:42Z</time>
      </trkpt>
      <trkpt lat="47.86783" lon="-1.06416">
        <ele>55.2</ele>
        <time>2020-12-20T09:27:43Z</time>
      </trkpt>
      <trkpt lat="47.86785" lon="-1.06422">
        <ele>55.3</ele>
        <time>2020-12-20T09:27:44Z</time>
      </trkpt>
      <trkpt lat="47.86786" lon="-1.06429">
        <ele>55.3</ele>
        <time>2020-12-20T09:27:45Z</time>
      </trkpt>
      <trkpt lat="47.86788" lon="-1.06436">
        <ele>55.4</ele>
        <time>2020-12-20T09:27:46Z</time>
      </trkpt>
      <trkpt lat="47.8679" lon="-1.06442">
        <ele>55.4</ele>
        <time>2020-12-20T09:27:47Z</time>
      </trkpt>
      <trkpt lat="47.86791" lon="-1.06449">
        <ele>55.5</ele>
        <time>2020-12-20T09:27:48Z</time>
      </trkpt>
      <trkpt lat="47.86792" lon="-1.06455">
        <ele>55.5</ele>
        <time>2020-12-20T09:27:49Z</time>
      </trkpt>
      <trkpt lat="47.86793" lon="-1.06461">
        <ele>55.5</ele>
        <time>2020-12-20T09:27:50Z</time>
      </trkpt>
      <trkpt lat="47.86794" lon="-1.06467">
        <ele>55.6</ele>
        <time>2020-12-20T09:27:51Z</time>
      </trkpt>
      <trkpt lat="47.86795" lon="-1.06474">
        <ele>55.6</ele>
        <time>2020-12-20T09:27:52Z</time>
      </trkpt>
      <trkpt lat="47.86796" lon="-1.06481">
        <ele>55.7</ele>
        <time>2020-12-20T09:27:53Z</time>
      </trkpt>
      <trkpt lat="47.86798" lon="-1.06489">
        <ele>55.7</ele>
        <time>2020-12-20T09:27:54Z</time>
      </trkpt>
      <trkpt lat="47.86799" lon="-1.06496">
        <ele>55.8</ele>
        <time>2020-12-20T09:27:55Z</time>
      </trkpt>
      <trkpt lat="47.86801" lon="-1.06504">
        <ele>55.8</ele>
        <time>2020-12-20T09:27:56Z</time>
      </trkpt>
      <trkpt lat="47.86802" lon="-1.06512">
        <ele>55.9</ele>
        <time>2020-12-20T09:27:57Z</time>
      </trkpt>
      <trkpt lat="47.86803" lon="-1.06519">
        <ele>55.9</ele>
        <time>2020-12-20T09:27:58Z</time>
      </trkpt>
      <trkpt lat="47.86805" lon="-1.06527">
        <ele>56</ele>
        <time>2020-12-20T09:27:59Z</time>
      </trkpt>
      <trkpt lat="47.86807" lon="-1.06532">
        <ele>56.1</ele>
        <time>2020-12-20T09:28:00Z</time>
      </trkpt>
      <trkpt lat="47.8681" lon="-1.06538">
        <ele>56.2</ele>
        <time>2020-12-20T09:28:01Z</time>
      </trkpt>
      <trkpt lat="47.86811" lon="-1.06543">
        <ele>56.2</ele>
        <time>2020-12-20T09:28:02Z</time>
      </trkpt>
      <trkpt lat="47.86813" lon="-1.06549">
        <ele>56.3</ele>
        <time>2020-12-20T09:28:03Z</time>
      </trkpt>
      <trkpt lat="47.86815" lon="-1.06554">
        <ele>56.3</ele>
        <time>2020-12-20T09:28:04Z</time>
      </trkpt>
      <trkpt lat="47.86816" lon="-1.06558">
        <ele>56.4</ele>
        <time>2020-12-20T09:28:05Z</time>
      </trkpt>
      <trkpt lat="47.86818" lon="-1.06562">
        <ele>56.4</ele>
        <time>2020-12-20T09:28:06Z</time>
      </trkpt>
      <trkpt lat="47.8682" lon="-1.06566">
        <ele>56.5</ele>
        <time>2020-12-20T09:28:07Z</time>
      </trkpt>
      <trkpt lat="47.86821" lon="-1.0657">
        <ele>56.6</ele>
        <time>2020-12-20T09:28:08Z</time>
      </trkpt>
      <trkpt lat="47.86823" lon="-1.06574">
        <ele>56.6</ele>
        <time>2020-12-20T09:28:09Z</time>
      </trkpt>
      <trkpt lat="47.86824" lon="-1.06578">
        <ele>56.7</ele>
        <time>2020-12-20T09:28:10Z</time>
      </trkpt>
      <trkpt lat="47.86825" lon="-1.06583">
        <ele>56.7</ele>
        <time>2020-12-20T09:28:11Z</time>
      </trkpt>
      <trkpt lat="47.86826" lon="-1.06588">
        <ele>56.9</ele>
        <time>2020-12-20T09:28:12Z</time>
      </trkpt>
      <trkpt lat="47.86828" lon="-1.06594">
        <ele>57.2</ele>
        <time>2020-12-20T09:28:13Z</time>
      </trkpt>
      <trkpt lat="47.86829" lon="-1.06599">
        <ele>57.4</ele>
        <time>2020-12-20T09:28:14Z</time>
      </trkpt>
      <trkpt lat="47.8683" lon="-1.06604">
        <ele>57.6</ele>
        <time>2020-12-20T09:28:15Z</time>
      </trkpt>
      <trkpt lat="47.86831" lon="-1.06609">
        <ele>57.8</ele>
        <time>2020-12-20T09:28:16Z</time>
      </trkpt>
      <trkpt lat="47.86833" lon="-1.06613">
        <ele>58.1</ele>
        <time>2020-12-20T09:28:17Z</time>
      </trkpt>
      <trkpt lat="47.86834" lon="-1.06618">
        <ele>58.3</ele>
        <time>2020-12-20T09:28:18Z</time>
      </trkpt>
      <trkpt lat="47.86836" lon="-1.06622">
        <ele>58.4</ele>
        <time>2020-12-20T09:28:19Z</time>
      </trkpt>
      <trkpt lat="47.86837" lon="-1.06626">
        <ele>58.5</ele>
        <time>2020-12-20T09:28:20Z</time>
      </trkpt>
      <trkpt lat="47.86839" lon="-1.06631">
        <ele>58.7</ele>
        <time>2020-12-20T09:28:21Z</time>
      </trkpt>
      <trkpt lat="47.8684" lon="-1.06637">
        <ele>58.9</ele>
        <time>2020-12-20T09:28:22Z</time>
      </trkpt>
      <trkpt lat="47.86842" lon="-1.06642">
        <ele>59</ele>
        <time>2020-12-20T09:28:23Z</time>
      </trkpt>
      <trkpt lat="47.86844" lon="-1.06647">
        <ele>59.2</ele>
        <time>2020-12-20T09:28:24Z</time>
      </trkpt>
      <trkpt lat="47.86845" lon="-1.06652">
        <ele>59.3</ele>
        <time>2020-12-20T09:28:25Z</time>
      </trkpt>
      <trkpt lat="47.86846" lon="-1.06657">
        <ele>59.4</ele>
        <time>2020-12-20T09:28:26Z</time>
      </trkpt>
      <trkpt lat="47.86847" lon="-1.06663">
        <ele>59.6</ele>
        <time>2020-12-20T09:28:27Z</time>
      </trkpt>
      <trkpt lat="47.86848" lon="-1.06668">
        <ele>59.6</ele>
        <time>2020-12-20T09:28:28Z</time>
      </trkpt>
      <trkpt lat="47.8685" lon="-1.06675">
        <ele>59.1</ele>
        <time>2020-12-20T09:28:29Z</time>
      </trkpt>
      <trkpt lat="47.86851" lon="-1.0668">
        <ele>58.8</ele>
        <time>2020-12-20T09:28:30Z</time>
      </trkpt>
      <trkpt lat="47.86852" lon="-1.06686">
        <ele>58.5</ele>
        <time>2020-12-20T09:28:31Z</time>
      </trkpt>
      <trkpt lat="47.86853" lon="-1.06691">
        <ele>58.2</ele>
        <time>2020-12-20T09:28:32Z</time>
      </trkpt>
      <trkpt lat="47.86854" lon="-1.06696">
        <ele>57.9</ele>
        <time>2020-12-20T09:28:33Z</time>
      </trkpt>
      <trkpt lat="47.86856" lon="-1.06702">
        <ele>57.6</ele>
        <time>2020-12-20T09:28:34Z</time>
      </trkpt>
      <trkpt lat="47.86857" lon="-1.06708">
        <ele>57.3</ele>
        <time>2020-12-20T09:28:35Z</time>
      </trkpt>
      <trkpt lat="47.86858" lon="-1.06713">
        <ele>57.1</ele>
        <time>2020-12-20T09:28:36Z</time>
      </trkpt>
      <trkpt lat="47.8686" lon="-1.06719">
        <ele>56.8</ele>
        <time>2020-12-20T09:28:37Z</time>
      </trkpt>
      <trkpt lat="47.86861" lon="-1.06725">
        <ele>56.5</ele>
        <time>2020-12-20T09:28:38Z</time>
      </trkpt>
      <trkpt lat="47.86862" lon="-1.06733">
        <ele>56.2</ele>
        <time>2020-12-20T09:28:39Z</time>
      </trkpt>
      <trkpt lat="47.86863" lon="-1.06738">
        <ele>56</ele>
        <time>2020-12-20T09:28:40Z</time>
      </trkpt>
      <trkpt lat="47.86864" lon="-1.06744">
        <ele>55.7</ele>
        <time>2020-12-20T09:28:41Z</time>
      </trkpt>
      <trkpt lat="47.86865" lon="-1.06749">
        <ele>55.6</ele>
        <time>2020-12-20T09:28:42Z</time>
      </trkpt>
      <trkpt lat="47.86866" lon="-1.06754">
        <ele>55.6</ele>
        <time>2020-12-20T09:28:43Z</time>
      </trkpt>
      <trkpt lat="47.86867" lon="-1.06759">
        <ele>55.6</ele>
        <time>2020-12-20T09:28:44Z</time>
      </trkpt>
      <trkpt lat="47.86868" lon="-1.06765">
        <ele>55.7</ele>
        <time>2020-12-20T09:28:45Z</time>
      </trkpt>
      <trkpt lat="47.86868" lon="-1.0677">
        <ele>55.7</ele>
        <time>2020-12-20T09:28:46Z</time>
      </trkpt>
      <trkpt lat="47.86869" lon="-1.06776">
        <ele>55.7</ele>
        <time>2020-12-20T09:28:47Z</time>
      </trkpt>
      <trkpt lat="47.86869" lon="-1.06782">
        <ele>55.7</ele>
        <time>2020-12-20T09:28:48Z</time>
      </trkpt>
      <trkpt lat="47.8687" lon="-1.06786">
        <ele>55.8</ele>
        <time>2020-12-20T09:28:49Z</time>
      </trkpt>
      <trkpt lat="47.86871" lon="-1.06792">
        <ele>55.8</ele>
        <time>2020-12-20T09:28:50Z</time>
      </trkpt>
      <trkpt lat="47.86873" lon="-1.06798">
        <ele>55.9</ele>
        <time>2020-12-20T09:28:51Z</time>
      </trkpt>
      <trkpt lat="47.86875" lon="-1.06805">
        <ele>56</ele>
        <time>2020-12-20T09:28:52Z</time>
      </trkpt>
      <trkpt lat="47.86876" lon="-1.06812">
        <ele>56</ele>
        <time>2020-12-20T09:28:53Z</time>
      </trkpt>
      <trkpt lat="47.86877" lon="-1.06818">
        <ele>56.1</ele>
        <time>2020-12-20T09:28:54Z</time>
      </trkpt>
      <trkpt lat="47.86878" lon="-1.06824">
        <ele>56.1</ele>
        <time>2020-12-20T09:28:55Z</time>
      </trkpt>
      <trkpt lat="47.86878" lon="-1.06829">
        <ele>56.1</ele>
        <time>2020-12-20T09:28:56Z</time>
      </trkpt>
      <trkpt lat="47.86878" lon="-1.06834">
        <ele>56.1</ele>
        <time>2020-12-20T09:28:57Z</time>
      </trkpt>
      <trkpt lat="47.86879" lon="-1.0684">
        <ele>56.1</ele>
        <time>2020-12-20T09:28:58Z</time>
      </trkpt>
      <trkpt lat="47.86879" lon="-1.06846">
        <ele>56.1</ele>
        <time>2020-12-20T09:28:59Z</time>
      </trkpt>
      <trkpt lat="47.86879" lon="-1.06852">
        <ele>56.1</ele>
        <time>2020-12-20T09:29:00Z</time>
      </trkpt>
      <trkpt lat="47.86879" lon="-1.06858">
        <ele>56</ele>
        <time>2020-12-20T09:29:01Z</time>
      </trkpt>
      <trkpt lat="47.86878" lon="-1.06864">
        <ele>55.9</ele>
        <time>2020-12-20T09:29:02Z</time>
      </trkpt>
      <trkpt lat="47.86878" lon="-1.0687">
        <ele>55.9</ele>
        <time>2020-12-20T09:29:03Z</time>
      </trkpt>
      <trkpt lat="47.86877" lon="-1.06877">
        <ele>55.8</ele>
        <time>2020-12-20T09:29:04Z</time>
      </trkpt>
      <trkpt lat="47.86878" lon="-1.06883">
        <ele>55.8</ele>
        <time>2020-12-20T09:29:05Z</time>
      </trkpt>
      <trkpt lat="47.86879" lon="-1.0689">
        <ele>55.8</ele>
        <time>2020-12-20T09:29:06Z</time>
      </trkpt>
      <trkpt lat="47.8688" lon="-1.06896">
        <ele>55.8</ele>
        <time>2020-12-20T09:29:07Z</time>
      </trkpt>
      <trkpt lat="47.86881" lon="-1.06902">
        <ele>55.8</ele>
        <time>2020-12-20T09:29:08Z</time>
      </trkpt>
      <trkpt lat="47.86883" lon="-1.06906">
        <ele>55.9</ele>
        <time>2020-12-20T09:29:09Z</time>
      </trkpt>
      <trkpt lat="47.86887" lon="-1.06908">
        <ele>56</ele>
        <time>2020-12-20T09:29:10Z</time>
      </trkpt>
      <trkpt lat="47.86888" lon="-1.06908">
        <ele>56</ele>
        <time>2020-12-20T09:29:11Z</time>
      </trkpt>
      <trkpt lat="47.86891" lon="-1.06908">
        <ele>56.1</ele>
        <time>2020-12-20T09:29:12Z</time>
      </trkpt>
      <trkpt lat="47.86892" lon="-1.06908">
        <ele>56.2</ele>
        <time>2020-12-20T09:29:13Z</time>
      </trkpt>
      <trkpt lat="47.86893" lon="-1.0691">
        <ele>56.2</ele>
        <time>2020-12-20T09:29:14Z</time>
      </trkpt>
      <trkpt lat="47.86894" lon="-1.06912">
        <ele>56.2</ele>
        <time>2020-12-20T09:29:15Z</time>
      </trkpt>
      <trkpt lat="47.86896" lon="-1.06916">
        <ele>56.3</ele>
        <time>2020-12-20T09:29:16Z</time>
      </trkpt>
      <trkpt lat="47.86897" lon="-1.06921">
        <ele>56.3</ele>
        <time>2020-12-20T09:29:17Z</time>
      </trkpt>
      <trkpt lat="47.86898" lon="-1.06926">
        <ele>56.3</ele>
        <time>2020-12-20T09:29:18Z</time>
      </trkpt>
      <trkpt lat="47.86899" lon="-1.06932">
        <ele>56.4</ele>
        <time>2020-12-20T09:29:19Z</time>
      </trkpt>
      <trkpt lat="47.869" lon="-1.06937">
        <ele>56.4</ele>
        <time>2020-12-20T09:29:20Z</time>
      </trkpt>
      <trkpt lat="47.86901" lon="-1.06942">
        <ele>56.4</ele>
        <time>2020-12-20T09:29:21Z</time>
      </trkpt>
      <trkpt lat="47.86902" lon="-1.06948">
        <ele>56.5</ele>
        <time>2020-12-20T09:29:22Z</time>
      </trkpt>
      <trkpt lat="47.86903" lon="-1.06954">
        <ele>56.5</ele>
        <time>2020-12-20T09:29:23Z</time>
      </trkpt>
      <trkpt lat="47.86904" lon="-1.0696">
        <ele>56.5</ele>
        <time>2020-12-20T09:29:24Z</time>
      </trkpt>
      <trkpt lat="47.86904" lon="-1.06966">
        <ele>56.5</ele>
        <time>2020-12-20T09:29:25Z</time>
      </trkpt>
      <trkpt lat="47.86905" lon="-1.06973">
        <ele>56.6</ele>
        <time>2020-12-20T09:29:26Z</time>
      </trkpt>
      <trkpt lat="47.86905" lon="-1.06979">
        <ele>56.6</ele>
        <time>2020-12-20T09:29:27Z</time>
      </trkpt>
      <trkpt lat="47.86906" lon="-1.06986">
        <ele>56.6</ele>
        <time>2020-12-20T09:29:28Z</time>
      </trkpt>
      <trkpt lat="47.86906" lon="-1.06993">
        <ele>56.6</ele>
        <time>2020-12-20T09:29:29Z</time>
      </trkpt>
      <trkpt lat="47.86906" lon="-1.06999">
        <ele>56.6</ele>
        <time>2020-12-20T09:29:30Z</time>
      </trkpt>
      <trkpt lat="47.86907" lon="-1.07005">
        <ele>56.7</ele>
        <time>2020-12-20T09:29:31Z</time>
      </trkpt>
      <trkpt lat="47.86908" lon="-1.07012">
        <ele>56.8</ele>
        <time>2020-12-20T09:29:32Z</time>
      </trkpt>
      <trkpt lat="47.86909" lon="-1.07019">
        <ele>56.9</ele>
        <time>2020-12-20T09:29:33Z</time>
      </trkpt>
      <trkpt lat="47.86911" lon="-1.07026">
        <ele>57.1</ele>
        <time>2020-12-20T09:29:34Z</time>
      </trkpt>
      <trkpt lat="47.86913" lon="-1.07032">
        <ele>57.2</ele>
        <time>2020-12-20T09:29:35Z</time>
      </trkpt>
      <trkpt lat="47.86915" lon="-1.07039">
        <ele>57.4</ele>
        <time>2020-12-20T09:29:36Z</time>
      </trkpt>
      <trkpt lat="47.86916" lon="-1.07045">
        <ele>57.5</ele>
        <time>2020-12-20T09:29:37Z</time>
      </trkpt>
      <trkpt lat="47.86918" lon="-1.07052">
        <ele>57.7</ele>
        <time>2020-12-20T09:29:38Z</time>
      </trkpt>
      <trkpt lat="47.86919" lon="-1.07058">
        <ele>57.8</ele>
        <time>2020-12-20T09:29:39Z</time>
      </trkpt>
      <trkpt lat="47.8692" lon="-1.07065">
        <ele>57.9</ele>
        <time>2020-12-20T09:29:40Z</time>
      </trkpt>
      <trkpt lat="47.86922" lon="-1.07071">
        <ele>58.1</ele>
        <time>2020-12-20T09:29:41Z</time>
      </trkpt>
      <trkpt lat="47.86923" lon="-1.07079">
        <ele>58.2</ele>
        <time>2020-12-20T09:29:42Z</time>
      </trkpt>
      <trkpt lat="47.86924" lon="-1.07086">
        <ele>58.3</ele>
        <time>2020-12-20T09:29:43Z</time>
      </trkpt>
      <trkpt lat="47.86923" lon="-1.07094">
        <ele>58.3</ele>
        <time>2020-12-20T09:29:44Z</time>
      </trkpt>
      <trkpt lat="47.86924" lon="-1.07103">
        <ele>58.5</ele>
        <time>2020-12-20T09:29:45Z</time>
      </trkpt>
      <trkpt lat="47.86924" lon="-1.07111">
        <ele>58.6</ele>
        <time>2020-12-20T09:29:46Z</time>
      </trkpt>
      <trkpt lat="47.86924" lon="-1.07118">
        <ele>58.6</ele>
        <time>2020-12-20T09:29:47Z</time>
      </trkpt>
      <trkpt lat="47.86925" lon="-1.07123">
        <ele>58.7</ele>
        <time>2020-12-20T09:29:48Z</time>
      </trkpt>
      <trkpt lat="47.86924" lon="-1.07129">
        <ele>58.8</ele>
        <time>2020-12-20T09:29:49Z</time>
      </trkpt>
      <trkpt lat="47.86924" lon="-1.07135">
        <ele>58.8</ele>
        <time>2020-12-20T09:29:50Z</time>
      </trkpt>
      <trkpt lat="47.86925" lon="-1.07144">
        <ele>59</ele>
        <time>2020-12-20T09:29:51Z</time>
      </trkpt>
      <trkpt lat="47.86927" lon="-1.07153">
        <ele>59.1</ele>
        <time>2020-12-20T09:29:52Z</time>
      </trkpt>
      <trkpt lat="47.86928" lon="-1.07161">
        <ele>59.2</ele>
        <time>2020-12-20T09:29:53Z</time>
      </trkpt>
      <trkpt lat="47.86929" lon="-1.07169">
        <ele>59.3</ele>
        <time>2020-12-20T09:29:54Z</time>
      </trkpt>
      <trkpt lat="47.8693" lon="-1.07175">
        <ele>59.3</ele>
        <time>2020-12-20T09:29:55Z</time>
      </trkpt>
      <trkpt lat="47.86931" lon="-1.07181">
        <ele>59.3</ele>
        <time>2020-12-20T09:29:56Z</time>
      </trkpt>
      <trkpt lat="47.86931" lon="-1.07187">
        <ele>59.3</ele>
        <time>2020-12-20T09:29:57Z</time>
      </trkpt>
      <trkpt lat="47.86932" lon="-1.07194">
        <ele>59.4</ele>
        <time>2020-12-20T09:29:58Z</time>
      </trkpt>
      <trkpt lat="47.86932" lon="-1.07202">
        <ele>59.4</ele>
        <time>2020-12-20T09:29:59Z</time>
      </trkpt>
      <trkpt lat="47.86931" lon="-1.07209">
        <ele>59.3</ele>
        <time>2020-12-20T09:30:00Z</time>
      </trkpt>
      <trkpt lat="47.86932" lon="-1.07214">
        <ele>59.4</ele>
        <time>2020-12-20T09:30:01Z</time>
      </trkpt>
      <trkpt lat="47.86932" lon="-1.07219">
        <ele>59.4</ele>
        <time>2020-12-20T09:30:02Z</time>
      </trkpt>
      <trkpt lat="47.86932" lon="-1.07224">
        <ele>59.4</ele>
        <time>2020-12-20T09:30:03Z</time>
      </trkpt>
      <trkpt lat="47.86933" lon="-1.07228">
        <ele>59.4</ele>
        <time>2020-12-20T09:30:04Z</time>
      </trkpt>
      <trkpt lat="47.86934" lon="-1.07233">
        <ele>59.4</ele>
        <time>2020-12-20T09:30:05Z</time>
      </trkpt>
      <trkpt lat="47.86935" lon="-1.07238">
        <ele>59.4</ele>
        <time>2020-12-20T09:30:06Z</time>
      </trkpt>
      <trkpt lat="47.86934" lon="-1.07243">
        <ele>59.4</ele>
        <time>2020-12-20T09:30:07Z</time>
      </trkpt>
      <trkpt lat="47.86934" lon="-1.07249">
        <ele>59.4</ele>
        <time>2020-12-20T09:30:08Z</time>
      </trkpt>
      <trkpt lat="47.86934" lon="-1.07256">
        <ele>59.4</ele>
        <time>2020-12-20T09:30:09Z</time>
      </trkpt>
      <trkpt lat="47.86934" lon="-1.07262">
        <ele>59.3</ele>
        <time>2020-12-20T09:30:10Z</time>
      </trkpt>
      <trkpt lat="47.86934" lon="-1.07268">
        <ele>59.3</ele>
        <time>2020-12-20T09:30:11Z</time>
      </trkpt>
      <trkpt lat="47.86934" lon="-1.07274">
        <ele>59.2</ele>
        <time>2020-12-20T09:30:12Z</time>
      </trkpt>
      <trkpt lat="47.86933" lon="-1.0728">
        <ele>59.2</ele>
        <time>2020-12-20T09:30:13Z</time>
      </trkpt>
      <trkpt lat="47.86934" lon="-1.07286">
        <ele>59.2</ele>
        <time>2020-12-20T09:30:14Z</time>
      </trkpt>
      <trkpt lat="47.86934" lon="-1.07292">
        <ele>59.1</ele>
        <time>2020-12-20T09:30:15Z</time>
      </trkpt>
      <trkpt lat="47.86934" lon="-1.07298">
        <ele>59.1</ele>
        <time>2020-12-20T09:30:16Z</time>
      </trkpt>
      <trkpt lat="47.86933" lon="-1.07305">
        <ele>59</ele>
        <time>2020-12-20T09:30:17Z</time>
      </trkpt>
      <trkpt lat="47.86933" lon="-1.07312">
        <ele>58.9</ele>
        <time>2020-12-20T09:30:18Z</time>
      </trkpt>
      <trkpt lat="47.86932" lon="-1.07319">
        <ele>58.8</ele>
        <time>2020-12-20T09:30:19Z</time>
      </trkpt>
      <trkpt lat="47.86931" lon="-1.07326">
        <ele>58.7</ele>
        <time>2020-12-20T09:30:20Z</time>
      </trkpt>
      <trkpt lat="47.8693" lon="-1.07333">
        <ele>58.6</ele>
        <time>2020-12-20T09:30:21Z</time>
      </trkpt>
      <trkpt lat="47.86929" lon="-1.0734">
        <ele>58.6</ele>
        <time>2020-12-20T09:30:22Z</time>
      </trkpt>
      <trkpt lat="47.86929" lon="-1.07346">
        <ele>58.7</ele>
        <time>2020-12-20T09:30:23Z</time>
      </trkpt>
      <trkpt lat="47.86928" lon="-1.07352">
        <ele>58.7</ele>
        <time>2020-12-20T09:30:24Z</time>
      </trkpt>
      <trkpt lat="47.86927" lon="-1.07358">
        <ele>58.7</ele>
        <time>2020-12-20T09:30:25Z</time>
      </trkpt>
      <trkpt lat="47.86925" lon="-1.07364">
        <ele>58.7</ele>
        <time>2020-12-20T09:30:26Z</time>
      </trkpt>
      <trkpt lat="47.86923" lon="-1.07369">
        <ele>58.7</ele>
        <time>2020-12-20T09:30:27Z</time>
      </trkpt>
      <trkpt lat="47.86921" lon="-1.07375">
        <ele>58.7</ele>
        <time>2020-12-20T09:30:28Z</time>
      </trkpt>
      <trkpt lat="47.86918" lon="-1.07379">
        <ele>58.6</ele>
        <time>2020-12-20T09:30:29Z</time>
      </trkpt>
      <trkpt lat="47.86915" lon="-1.07383">
        <ele>58.5</ele>
        <time>2020-12-20T09:30:30Z</time>
      </trkpt>
      <trkpt lat="47.86911" lon="-1.07386">
        <ele>58.3</ele>
        <time>2020-12-20T09:30:31Z</time>
      </trkpt>
      <trkpt lat="47.86907" lon="-1.07389">
        <ele>58.1</ele>
        <time>2020-12-20T09:30:32Z</time>
      </trkpt>
      <trkpt lat="47.86903" lon="-1.07393">
        <ele>57.9</ele>
        <time>2020-12-20T09:30:33Z</time>
      </trkpt>
      <trkpt lat="47.869" lon="-1.07398">
        <ele>57.8</ele>
        <time>2020-12-20T09:30:34Z</time>
      </trkpt>
      <trkpt lat="47.86898" lon="-1.07404">
        <ele>57.8</ele>
        <time>2020-12-20T09:30:35Z</time>
      </trkpt>
      <trkpt lat="47.86896" lon="-1.07411">
        <ele>57.7</ele>
        <time>2020-12-20T09:30:36Z</time>
      </trkpt>
      <trkpt lat="47.86896" lon="-1.07418">
        <ele>57.7</ele>
        <time>2020-12-20T09:30:37Z</time>
      </trkpt>
      <trkpt lat="47.86897" lon="-1.07424">
        <ele>57.8</ele>
        <time>2020-12-20T09:30:38Z</time>
      </trkpt>
      <trkpt lat="47.86897" lon="-1.07431">
        <ele>57.7</ele>
        <time>2020-12-20T09:30:39Z</time>
      </trkpt>
      <trkpt lat="47.86896" lon="-1.07436">
        <ele>57.6</ele>
        <time>2020-12-20T09:30:40Z</time>
      </trkpt>
      <trkpt lat="47.86895" lon="-1.07441">
        <ele>57.5</ele>
        <time>2020-12-20T09:30:41Z</time>
      </trkpt>
      <trkpt lat="47.86895" lon="-1.07447">
        <ele>57.4</ele>
        <time>2020-12-20T09:30:42Z</time>
      </trkpt>
      <trkpt lat="47.86896" lon="-1.07454">
        <ele>57.4</ele>
        <time>2020-12-20T09:30:43Z</time>
      </trkpt>
      <trkpt lat="47.86897" lon="-1.0746">
        <ele>57.4</ele>
        <time>2020-12-20T09:30:44Z</time>
      </trkpt>
      <trkpt lat="47.86897" lon="-1.07467">
        <ele>57.4</ele>
        <time>2020-12-20T09:30:45Z</time>
      </trkpt>
      <trkpt lat="47.86898" lon="-1.07473">
        <ele>57.4</ele>
        <time>2020-12-20T09:30:46Z</time>
      </trkpt>
      <trkpt lat="47.86899" lon="-1.07479">
        <ele>57.4</ele>
        <time>2020-12-20T09:30:47Z</time>
      </trkpt>
      <trkpt lat="47.86899" lon="-1.07485">
        <ele>57.3</ele>
        <time>2020-12-20T09:30:48Z</time>
      </trkpt>
      <trkpt lat="47.86899" lon="-1.07491">
        <ele>57.2</ele>
        <time>2020-12-20T09:30:49Z</time>
      </trkpt>
      <trkpt lat="47.86899" lon="-1.07497">
        <ele>57.2</ele>
        <time>2020-12-20T09:30:50Z</time>
      </trkpt>
      <trkpt lat="47.86898" lon="-1.07503">
        <ele>57.1</ele>
        <time>2020-12-20T09:30:51Z</time>
      </trkpt>
      <trkpt lat="47.86898" lon="-1.0751">
        <ele>57.1</ele>
        <time>2020-12-20T09:30:52Z</time>
      </trkpt>
      <trkpt lat="47.86899" lon="-1.07519">
        <ele>57.2</ele>
        <time>2020-12-20T09:30:53Z</time>
      </trkpt>
      <trkpt lat="47.86901" lon="-1.07526">
        <ele>57.2</ele>
        <time>2020-12-20T09:30:54Z</time>
      </trkpt>
      <trkpt lat="47.86902" lon="-1.07533">
        <ele>57.3</ele>
        <time>2020-12-20T09:30:55Z</time>
      </trkpt>
      <trkpt lat="47.86905" lon="-1.07538">
        <ele>57.4</ele>
        <time>2020-12-20T09:30:56Z</time>
      </trkpt>
      <trkpt lat="47.86907" lon="-1.07541">
        <ele>57.5</ele>
        <time>2020-12-20T09:30:57Z</time>
      </trkpt>
      <trkpt lat="47.86908" lon="-1.07545">
        <ele>57.6</ele>
        <time>2020-12-20T09:30:58Z</time>
      </trkpt>
      <trkpt lat="47.86908" lon="-1.07549">
        <ele>57.6</ele>
        <time>2020-12-20T09:30:59Z</time>
      </trkpt>
      <trkpt lat="47.86908" lon="-1.07555">
        <ele>57.6</ele>
        <time>2020-12-20T09:31:00Z</time>
      </trkpt>
      <trkpt lat="47.86907" lon="-1.0756">
        <ele>57.5</ele>
        <time>2020-12-20T09:31:01Z</time>
      </trkpt>
      <trkpt lat="47.86905" lon="-1.07565">
        <ele>57.4</ele>
        <time>2020-12-20T09:31:02Z</time>
      </trkpt>
      <trkpt lat="47.86902" lon="-1.0757">
        <ele>57.3</ele>
        <time>2020-12-20T09:31:03Z</time>
      </trkpt>
      <trkpt lat="47.86899" lon="-1.07575">
        <ele>57.2</ele>
        <time>2020-12-20T09:31:04Z</time>
      </trkpt>
      <trkpt lat="47.86897" lon="-1.07579">
        <ele>57.1</ele>
        <time>2020-12-20T09:31:05Z</time>
      </trkpt>
      <trkpt lat="47.86896" lon="-1.07585">
        <ele>57</ele>
        <time>2020-12-20T09:31:06Z</time>
      </trkpt>
      <trkpt lat="47.86896" lon="-1.0759">
        <ele>57</ele>
        <time>2020-12-20T09:31:07Z</time>
      </trkpt>
      <trkpt lat="47.86896" lon="-1.07594">
        <ele>56.9</ele>
        <time>2020-12-20T09:31:08Z</time>
      </trkpt>
      <trkpt lat="47.86895" lon="-1.07599">
        <ele>56.9</ele>
        <time>2020-12-20T09:31:09Z</time>
      </trkpt>
      <trkpt lat="47.86894" lon="-1.07604">
        <ele>56.8</ele>
        <time>2020-12-20T09:31:10Z</time>
      </trkpt>
      <trkpt lat="47.86893" lon="-1.07609">
        <ele>56.7</ele>
        <time>2020-12-20T09:31:11Z</time>
      </trkpt>
      <trkpt lat="47.86892" lon="-1.07614">
        <ele>56.7</ele>
        <time>2020-12-20T09:31:12Z</time>
      </trkpt>
      <trkpt lat="47.8689" lon="-1.07621">
        <ele>56.6</ele>
        <time>2020-12-20T09:31:13Z</time>
      </trkpt>
      <trkpt lat="47.86889" lon="-1.07628">
        <ele>56.5</ele>
        <time>2020-12-20T09:31:14Z</time>
      </trkpt>
      <trkpt lat="47.8689" lon="-1.07635">
        <ele>56.5</ele>
        <time>2020-12-20T09:31:15Z</time>
      </trkpt>
      <trkpt lat="47.86891" lon="-1.07641">
        <ele>56.5</ele>
        <time>2020-12-20T09:31:16Z</time>
      </trkpt>
      <trkpt lat="47.86893" lon="-1.07645">
        <ele>56.5</ele>
        <time>2020-12-20T09:31:17Z</time>
      </trkpt>
      <trkpt lat="47.86895" lon="-1.07649">
        <ele>56.6</ele>
        <time>2020-12-20T09:31:18Z</time>
      </trkpt>
      <trkpt lat="47.86898" lon="-1.07653">
        <ele>56.6</ele>
        <time>2020-12-20T09:31:19Z</time>
      </trkpt>
      <trkpt lat="47.869" lon="-1.07657">
        <ele>56.7</ele>
        <time>2020-12-20T09:31:20Z</time>
      </trkpt>
      <trkpt lat="47.86903" lon="-1.07662">
        <ele>56.7</ele>
        <time>2020-12-20T09:31:21Z</time>
      </trkpt>
      <trkpt lat="47.86904" lon="-1.07667">
        <ele>56.7</ele>
        <time>2020-12-20T09:31:22Z</time>
      </trkpt>
      <trkpt lat="47.86905" lon="-1.07673">
        <ele>56.7</ele>
        <time>2020-12-20T09:31:23Z</time>
      </trkpt>
      <trkpt lat="47.86905" lon="-1.07678">
        <ele>56.7</ele>
        <time>2020-12-20T09:31:24Z</time>
      </trkpt>
      <trkpt lat="47.86905" lon="-1.07683">
        <ele>56.7</ele>
        <time>2020-12-20T09:31:25Z</time>
      </trkpt>
      <trkpt lat="47.86905" lon="-1.07688">
        <ele>56.6</ele>
        <time>2020-12-20T09:31:26Z</time>
      </trkpt>
      <trkpt lat="47.86905" lon="-1.07693">
        <ele>56.6</ele>
        <time>2020-12-20T09:31:27Z</time>
      </trkpt>
      <trkpt lat="47.86905" lon="-1.07697">
        <ele>56.6</ele>
        <time>2020-12-20T09:31:28Z</time>
      </trkpt>
      <trkpt lat="47.86905" lon="-1.07702">
        <ele>56.6</ele>
        <time>2020-12-20T09:31:29Z</time>
      </trkpt>
      <trkpt lat="47.86904" lon="-1.07707">
        <ele>56.5</ele>
        <time>2020-12-20T09:31:30Z</time>
      </trkpt>
      <trkpt lat="47.86905" lon="-1.07712">
        <ele>56.6</ele>
        <time>2020-12-20T09:31:31Z</time>
      </trkpt>
      <trkpt lat="47.86905" lon="-1.07717">
        <ele>56.6</ele>
        <time>2020-12-20T09:31:32Z</time>
      </trkpt>
      <trkpt lat="47.86904" lon="-1.07722">
        <ele>56.5</ele>
        <time>2020-12-20T09:31:33Z</time>
      </trkpt>
      <trkpt lat="47.86901" lon="-1.07727">
        <ele>56.4</ele>
        <time>2020-12-20T09:31:34Z</time>
      </trkpt>
      <trkpt lat="47.86901" lon="-1.07727">
        <ele>56.4</ele>
        <time>2020-12-20T09:31:35Z</time>
      </trkpt>
      <trkpt lat="47.86898" lon="-1.07727">
        <ele>56.2</ele>
        <time>2020-12-20T09:31:36Z</time>
      </trkpt>
      <trkpt lat="47.86894" lon="-1.07727">
        <ele>56.1</ele>
        <time>2020-12-20T09:31:37Z</time>
      </trkpt>
      <trkpt lat="47.8689" lon="-1.07727">
        <ele>55.9</ele>
        <time>2020-12-20T09:31:38Z</time>
      </trkpt>
      <trkpt lat="47.86885" lon="-1.07726">
        <ele>55.7</ele>
        <time>2020-12-20T09:31:39Z</time>
      </trkpt>
      <trkpt lat="47.86881" lon="-1.07726">
        <ele>55.5</ele>
        <time>2020-12-20T09:31:40Z</time>
      </trkpt>
      <trkpt lat="47.86877" lon="-1.07726">
        <ele>55.4</ele>
        <time>2020-12-20T09:31:41Z</time>
      </trkpt>
      <trkpt lat="47.86873" lon="-1.07726">
        <ele>55.2</ele>
        <time>2020-12-20T09:31:42Z</time>
      </trkpt>
      <trkpt lat="47.86869" lon="-1.07725">
        <ele>55.1</ele>
        <time>2020-12-20T09:31:43Z</time>
      </trkpt>
      <trkpt lat="47.86864" lon="-1.07724">
        <ele>54.9</ele>
        <time>2020-12-20T09:31:44Z</time>
      </trkpt>
      <trkpt lat="47.86859" lon="-1.07723">
        <ele>54.7</ele>
        <time>2020-12-20T09:31:45Z</time>
      </trkpt>
      <trkpt lat="47.86855" lon="-1.07723">
        <ele>54.5</ele>
        <time>2020-12-20T09:31:46Z</time>
      </trkpt>
      <trkpt lat="47.86849" lon="-1.07722">
        <ele>54.3</ele>
        <time>2020-12-20T09:31:47Z</time>
      </trkpt>
      <trkpt lat="47.86844" lon="-1.07721">
        <ele>54.1</ele>
        <time>2020-12-20T09:31:48Z</time>
      </trkpt>
      <trkpt lat="47.86839" lon="-1.0772">
        <ele>53.9</ele>
        <time>2020-12-20T09:31:49Z</time>
      </trkpt>
      <trkpt lat="47.86834" lon="-1.07719">
        <ele>53.8</ele>
        <time>2020-12-20T09:31:50Z</time>
      </trkpt>
      <trkpt lat="47.86829" lon="-1.07718">
        <ele>53.9</ele>
        <time>2020-12-20T09:31:51Z</time>
      </trkpt>
      <trkpt lat="47.86824" lon="-1.07717">
        <ele>54</ele>
        <time>2020-12-20T09:31:52Z</time>
      </trkpt>
      <trkpt lat="47.86819" lon="-1.07717">
        <ele>54.1</ele>
        <time>2020-12-20T09:31:53Z</time>
      </trkpt>
      <trkpt lat="47.86814" lon="-1.07716">
        <ele>54.3</ele>
        <time>2020-12-20T09:31:54Z</time>
      </trkpt>
      <trkpt lat="47.86809" lon="-1.07715">
        <ele>54.4</ele>
        <time>2020-12-20T09:31:55Z</time>
      </trkpt>
      <trkpt lat="47.86804" lon="-1.07715">
        <ele>54.5</ele>
        <time>2020-12-20T09:31:56Z</time>
      </trkpt>
      <trkpt lat="47.86799" lon="-1.07715">
        <ele>54.7</ele>
        <time>2020-12-20T09:31:57Z</time>
      </trkpt>
      <trkpt lat="47.86794" lon="-1.07714">
        <ele>54.8</ele>
        <time>2020-12-20T09:31:58Z</time>
      </trkpt>
      <trkpt lat="47.8679" lon="-1.07713">
        <ele>54.9</ele>
        <time>2020-12-20T09:31:59Z</time>
      </trkpt>
      <trkpt lat="47.86786" lon="-1.07712">
        <ele>55</ele>
        <time>2020-12-20T09:32:00Z</time>
      </trkpt>
      <trkpt lat="47.86782" lon="-1.07711">
        <ele>55.2</ele>
        <time>2020-12-20T09:32:01Z</time>
      </trkpt>
      <trkpt lat="47.86777" lon="-1.0771">
        <ele>55.3</ele>
        <time>2020-12-20T09:32:02Z</time>
      </trkpt>
      <trkpt lat="47.86773" lon="-1.0771">
        <ele>55.4</ele>
        <time>2020-12-20T09:32:03Z</time>
      </trkpt>
      <trkpt lat="47.86769" lon="-1.0771">
        <ele>55.5</ele>
        <time>2020-12-20T09:32:04Z</time>
      </trkpt>
      <trkpt lat="47.86764" lon="-1.07709">
        <ele>55.6</ele>
        <time>2020-12-20T09:32:05Z</time>
      </trkpt>
      <trkpt lat="47.8676" lon="-1.07709">
        <ele>55.7</ele>
        <time>2020-12-20T09:32:06Z</time>
      </trkpt>
      <trkpt lat="47.86751" lon="-1.07708">
        <ele>56</ele>
        <time>2020-12-20T09:32:07Z</time>
      </trkpt>
      <trkpt lat="47.86751" lon="-1.07708">
        <ele>56</ele>
        <time>2020-12-20T09:32:08Z</time>
      </trkpt>
      <trkpt lat="47.86747" lon="-1.07708">
        <ele>56</ele>
        <time>2020-12-20T09:32:09Z</time>
      </trkpt>
      <trkpt lat="47.86743" lon="-1.07707">
        <ele>56</ele>
        <time>2020-12-20T09:32:10Z</time>
      </trkpt>
      <trkpt lat="47.86739" lon="-1.07707">
        <ele>56</ele>
        <time>2020-12-20T09:32:11Z</time>
      </trkpt>
      <trkpt lat="47.86735" lon="-1.07707">
        <ele>56</ele>
        <time>2020-12-20T09:32:12Z</time>
      </trkpt>
      <trkpt lat="47.86731" lon="-1.07707">
        <ele>56</ele>
        <time>2020-12-20T09:32:13Z</time>
      </trkpt>
      <trkpt lat="47.86726" lon="-1.07708">
        <ele>56</ele>
        <time>2020-12-20T09:32:14Z</time>
      </trkpt>
      <trkpt lat="47.86722" lon="-1.0771">
        <ele>56</ele>
        <time>2020-12-20T09:32:15Z</time>
      </trkpt>
      <trkpt lat="47.86717" lon="-1.07711">
        <ele>56</ele>
        <time>2020-12-20T09:32:16Z</time>
      </trkpt>
      <trkpt lat="47.86713" lon="-1.07712">
        <ele>56</ele>
        <time>2020-12-20T09:32:17Z</time>
      </trkpt>
      <trkpt lat="47.86709" lon="-1.07714">
        <ele>56</ele>
        <time>2020-12-20T09:32:18Z</time>
      </trkpt>
      <trkpt lat="47.86705" lon="-1.07715">
        <ele>56</ele>
        <time>2020-12-20T09:32:19Z</time>
      </trkpt>
      <trkpt lat="47.86701" lon="-1.07716">
        <ele>56</ele>
        <time>2020-12-20T09:32:20Z</time>
      </trkpt>
      <trkpt lat="47.86697" lon="-1.07717">
        <ele>56.1</ele>
        <time>2020-12-20T09:32:21Z</time>
      </trkpt>
      <trkpt lat="47.86691" lon="-1.07719">
        <ele>56.1</ele>
        <time>2020-12-20T09:32:22Z</time>
      </trkpt>
      <trkpt lat="47.86688" lon="-1.0772">
        <ele>56.1</ele>
        <time>2020-12-20T09:32:23Z</time>
      </trkpt>
      <trkpt lat="47.86683" lon="-1.07721">
        <ele>56.2</ele>
        <time>2020-12-20T09:32:24Z</time>
      </trkpt>
      <trkpt lat="47.86678" lon="-1.07723">
        <ele>56.3</ele>
        <time>2020-12-20T09:32:25Z</time>
      </trkpt>
      <trkpt lat="47.86674" lon="-1.07724">
        <ele>56.3</ele>
        <time>2020-12-20T09:32:26Z</time>
      </trkpt>
      <trkpt lat="47.8667" lon="-1.07726">
        <ele>56.4</ele>
        <time>2020-12-20T09:32:27Z</time>
      </trkpt>
      <trkpt lat="47.86665" lon="-1.07728">
        <ele>56.5</ele>
        <time>2020-12-20T09:32:28Z</time>
      </trkpt>
      <trkpt lat="47.86661" lon="-1.0773">
        <ele>56.6</ele>
        <time>2020-12-20T09:32:29Z</time>
      </trkpt>
      <trkpt lat="47.86656" lon="-1.07732">
        <ele>56.8</ele>
        <time>2020-12-20T09:32:30Z</time>
      </trkpt>
      <trkpt lat="47.86652" lon="-1.07733">
        <ele>56.9</ele>
        <time>2020-12-20T09:32:31Z</time>
      </trkpt>
      <trkpt lat="47.86648" lon="-1.07735">
        <ele>57</ele>
        <time>2020-12-20T09:32:32Z</time>
      </trkpt>
      <trkpt lat="47.86643" lon="-1.07736">
        <ele>57.2</ele>
        <time>2020-12-20T09:32:33Z</time>
      </trkpt>
      <trkpt lat="47.86639" lon="-1.07738">
        <ele>57.3</ele>
        <time>2020-12-20T09:32:34Z</time>
      </trkpt>
      <trkpt lat="47.86634" lon="-1.07739">
        <ele>57.5</ele>
        <time>2020-12-20T09:32:35Z</time>
      </trkpt>
      <trkpt lat="47.8663" lon="-1.07741">
        <ele>57.6</ele>
        <time>2020-12-20T09:32:36Z</time>
      </trkpt>
      <trkpt lat="47.86625" lon="-1.07743">
        <ele>57.8</ele>
        <time>2020-12-20T09:32:37Z</time>
      </trkpt>
      <trkpt lat="47.86621" lon="-1.07744">
        <ele>57.9</ele>
        <time>2020-12-20T09:32:38Z</time>
      </trkpt>
      <trkpt lat="47.86617" lon="-1.07746">
        <ele>58.1</ele>
        <time>2020-12-20T09:32:39Z</time>
      </trkpt>
      <trkpt lat="47.86611" lon="-1.07748">
        <ele>58.3</ele>
        <time>2020-12-20T09:32:40Z</time>
      </trkpt>
      <trkpt lat="47.86608" lon="-1.07749">
        <ele>58.4</ele>
        <time>2020-12-20T09:32:41Z</time>
      </trkpt>
      <trkpt lat="47.86602" lon="-1.07751">
        <ele>58.5</ele>
        <time>2020-12-20T09:32:42Z</time>
      </trkpt>
      <trkpt lat="47.86599" lon="-1.07752">
        <ele>58.6</ele>
        <time>2020-12-20T09:32:43Z</time>
      </trkpt>
      <trkpt lat="47.86595" lon="-1.07753">
        <ele>58.7</ele>
        <time>2020-12-20T09:32:44Z</time>
      </trkpt>
      <trkpt lat="47.86591" lon="-1.07755">
        <ele>58.8</ele>
        <time>2020-12-20T09:32:45Z</time>
      </trkpt>
      <trkpt lat="47.86586" lon="-1.07757">
        <ele>58.9</ele>
        <time>2020-12-20T09:32:46Z</time>
      </trkpt>
      <trkpt lat="47.86583" lon="-1.07758">
        <ele>59</ele>
        <time>2020-12-20T09:32:47Z</time>
      </trkpt>
      <trkpt lat="47.86578" lon="-1.07759">
        <ele>59</ele>
        <time>2020-12-20T09:32:48Z</time>
      </trkpt>
      <trkpt lat="47.86574" lon="-1.07761">
        <ele>59</ele>
        <time>2020-12-20T09:32:49Z</time>
      </trkpt>
      <trkpt lat="47.86571" lon="-1.07762">
        <ele>59</ele>
        <time>2020-12-20T09:32:50Z</time>
      </trkpt>
      <trkpt lat="47.86566" lon="-1.07763">
        <ele>59</ele>
        <time>2020-12-20T09:32:51Z</time>
      </trkpt>
      <trkpt lat="47.86562" lon="-1.07765">
        <ele>59</ele>
        <time>2020-12-20T09:32:52Z</time>
      </trkpt>
      <trkpt lat="47.86558" lon="-1.07766">
        <ele>59</ele>
        <time>2020-12-20T09:32:53Z</time>
      </trkpt>
      <trkpt lat="47.86554" lon="-1.07767">
        <ele>59</ele>
        <time>2020-12-20T09:32:54Z</time>
      </trkpt>
      <trkpt lat="47.8655" lon="-1.07769">
        <ele>59</ele>
        <time>2020-12-20T09:32:55Z</time>
      </trkpt>
      <trkpt lat="47.86546" lon="-1.0777">
        <ele>59</ele>
        <time>2020-12-20T09:32:56Z</time>
      </trkpt>
      <trkpt lat="47.86538" lon="-1.07773">
        <ele>59</ele>
        <time>2020-12-20T09:32:57Z</time>
      </trkpt>
      <trkpt lat="47.86538" lon="-1.07773">
        <ele>59</ele>
        <time>2020-12-20T09:32:58Z</time>
      </trkpt>
      <trkpt lat="47.86534" lon="-1.07774">
        <ele>59</ele>
        <time>2020-12-20T09:32:59Z</time>
      </trkpt>
      <trkpt lat="47.8653" lon="-1.07775">
        <ele>59</ele>
        <time>2020-12-20T09:33:00Z</time>
      </trkpt>
      <trkpt lat="47.86526" lon="-1.07777">
        <ele>59</ele>
        <time>2020-12-20T09:33:01Z</time>
      </trkpt>
      <trkpt lat="47.86522" lon="-1.07778">
        <ele>59</ele>
        <time>2020-12-20T09:33:02Z</time>
      </trkpt>
      <trkpt lat="47.86514" lon="-1.07781">
        <ele>59</ele>
        <time>2020-12-20T09:33:03Z</time>
      </trkpt>
      <trkpt lat="47.86514" lon="-1.07781">
        <ele>59</ele>
        <time>2020-12-20T09:33:04Z</time>
      </trkpt>
      <trkpt lat="47.86509" lon="-1.07776">
        <ele>59</ele>
        <time>2020-12-20T09:33:05Z</time>
      </trkpt>
      <trkpt lat="47.86509" lon="-1.07776">
        <ele>59</ele>
        <time>2020-12-20T09:33:06Z</time>
      </trkpt>
      <trkpt lat="47.86503" lon="-1.07768">
        <ele>59</ele>
        <time>2020-12-20T09:33:07Z</time>
      </trkpt>
      <trkpt lat="47.86501" lon="-1.07764">
        <ele>59</ele>
        <time>2020-12-20T09:33:08Z</time>
      </trkpt>
      <trkpt lat="47.86501" lon="-1.07764">
        <ele>59</ele>
        <time>2020-12-20T09:33:09Z</time>
      </trkpt>
      <trkpt lat="47.86496" lon="-1.07758">
        <ele>59.1</ele>
        <time>2020-12-20T09:33:10Z</time>
      </trkpt>
      <trkpt lat="47.86494" lon="-1.07754">
        <ele>59.1</ele>
        <time>2020-12-20T09:33:11Z</time>
      </trkpt>
      <trkpt lat="47.86494" lon="-1.07754">
        <ele>59.1</ele>
        <time>2020-12-20T09:33:12Z</time>
      </trkpt>
      <trkpt lat="47.86489" lon="-1.07749">
        <ele>59.3</ele>
        <time>2020-12-20T09:33:13Z</time>
      </trkpt>
      <trkpt lat="47.86487" lon="-1.07746">
        <ele>59.3</ele>
        <time>2020-12-20T09:33:14Z</time>
      </trkpt>
      <trkpt lat="47.86484" lon="-1.07742">
        <ele>59.3</ele>
        <time>2020-12-20T09:33:15Z</time>
      </trkpt>
      <trkpt lat="47.86482" lon="-1.07739">
        <ele>59.3</ele>
        <time>2020-12-20T09:33:16Z</time>
      </trkpt>
      <trkpt lat="47.86479" lon="-1.07735">
        <ele>59.3</ele>
        <time>2020-12-20T09:33:17Z</time>
      </trkpt>
      <trkpt lat="47.86476" lon="-1.07732">
        <ele>59.4</ele>
        <time>2020-12-20T09:33:18Z</time>
      </trkpt>
      <trkpt lat="47.86476" lon="-1.07732">
        <ele>59.4</ele>
        <time>2020-12-20T09:33:19Z</time>
      </trkpt>
      <trkpt lat="47.86474" lon="-1.07729">
        <ele>59.4</ele>
        <time>2020-12-20T09:33:20Z</time>
      </trkpt>
      <trkpt lat="47.86469" lon="-1.07723">
        <ele>59.4</ele>
        <time>2020-12-20T09:33:21Z</time>
      </trkpt>
      <trkpt lat="47.86468" lon="-1.07721">
        <ele>59.4</ele>
        <time>2020-12-20T09:33:22Z</time>
      </trkpt>
      <trkpt lat="47.86468" lon="-1.07721">
        <ele>59.4</ele>
        <time>2020-12-20T09:33:23Z</time>
      </trkpt>
      <trkpt lat="47.86464" lon="-1.07716">
        <ele>59.5</ele>
        <time>2020-12-20T09:33:24Z</time>
      </trkpt>
      <trkpt lat="47.86462" lon="-1.07715">
        <ele>59.5</ele>
        <time>2020-12-20T09:33:25Z</time>
      </trkpt>
      <trkpt lat="47.86459" lon="-1.07713">
        <ele>59.5</ele>
        <time>2020-12-20T09:33:26Z</time>
      </trkpt>
      <trkpt lat="47.86457" lon="-1.07712">
        <ele>59.6</ele>
        <time>2020-12-20T09:33:27Z</time>
      </trkpt>
      <trkpt lat="47.86455" lon="-1.07711">
        <ele>59.6</ele>
        <time>2020-12-20T09:33:28Z</time>
      </trkpt>
      <trkpt lat="47.86452" lon="-1.0771">
        <ele>59.7</ele>
        <time>2020-12-20T09:33:29Z</time>
      </trkpt>
      <trkpt lat="47.86449" lon="-1.07708">
        <ele>59.7</ele>
        <time>2020-12-20T09:33:30Z</time>
      </trkpt>
      <trkpt lat="47.86446" lon="-1.07705">
        <ele>59.8</ele>
        <time>2020-12-20T09:33:31Z</time>
      </trkpt>
      <trkpt lat="47.86442" lon="-1.07702">
        <ele>59.8</ele>
        <time>2020-12-20T09:33:32Z</time>
      </trkpt>
      <trkpt lat="47.86438" lon="-1.07698">
        <ele>59.9</ele>
        <time>2020-12-20T09:33:33Z</time>
      </trkpt>
      <trkpt lat="47.86435" lon="-1.07694">
        <ele>59.9</ele>
        <time>2020-12-20T09:33:34Z</time>
      </trkpt>
      <trkpt lat="47.86432" lon="-1.07691">
        <ele>59.9</ele>
        <time>2020-12-20T09:33:35Z</time>
      </trkpt>
      <trkpt lat="47.86428" lon="-1.07687">
        <ele>60</ele>
        <time>2020-12-20T09:33:36Z</time>
      </trkpt>
      <trkpt lat="47.86425" lon="-1.07683">
        <ele>60</ele>
        <time>2020-12-20T09:33:37Z</time>
      </trkpt>
      <trkpt lat="47.86423" lon="-1.0768">
        <ele>60</ele>
        <time>2020-12-20T09:33:38Z</time>
      </trkpt>
      <trkpt lat="47.86423" lon="-1.0768">
        <ele>60</ele>
        <time>2020-12-20T09:33:39Z</time>
      </trkpt>
      <trkpt lat="47.86417" lon="-1.07672">
        <ele>60.1</ele>
        <time>2020-12-20T09:33:40Z</time>
      </trkpt>
      <trkpt lat="47.86417" lon="-1.07672">
        <ele>60.1</ele>
        <time>2020-12-20T09:33:41Z</time>
      </trkpt>
      <trkpt lat="47.86412" lon="-1.07662">
        <ele>60.2</ele>
        <time>2020-12-20T09:33:42Z</time>
      </trkpt>
      <trkpt lat="47.8641" lon="-1.07657">
        <ele>60.3</ele>
        <time>2020-12-20T09:33:43Z</time>
      </trkpt>
      <trkpt lat="47.86408" lon="-1.07653">
        <ele>60.4</ele>
        <time>2020-12-20T09:33:44Z</time>
      </trkpt>
      <trkpt lat="47.86407" lon="-1.07649">
        <ele>60.4</ele>
        <time>2020-12-20T09:33:45Z</time>
      </trkpt>
      <trkpt lat="47.86407" lon="-1.07644">
        <ele>60.5</ele>
        <time>2020-12-20T09:33:46Z</time>
      </trkpt>
      <trkpt lat="47.86406" lon="-1.0764">
        <ele>60.5</ele>
        <time>2020-12-20T09:33:47Z</time>
      </trkpt>
      <trkpt lat="47.86404" lon="-1.07635">
        <ele>60.6</ele>
        <time>2020-12-20T09:33:48Z</time>
      </trkpt>
      <trkpt lat="47.86404" lon="-1.07631">
        <ele>60.7</ele>
        <time>2020-12-20T09:33:49Z</time>
      </trkpt>
      <trkpt lat="47.86403" lon="-1.07625">
        <ele>60.7</ele>
        <time>2020-12-20T09:33:50Z</time>
      </trkpt>
      <trkpt lat="47.86402" lon="-1.0762">
        <ele>60.8</ele>
        <time>2020-12-20T09:33:51Z</time>
      </trkpt>
      <trkpt lat="47.864" lon="-1.07615">
        <ele>60.9</ele>
        <time>2020-12-20T09:33:52Z</time>
      </trkpt>
      <trkpt lat="47.864" lon="-1.07611">
        <ele>60.9</ele>
        <time>2020-12-20T09:33:53Z</time>
      </trkpt>
      <trkpt lat="47.864" lon="-1.07611">
        <ele>60.9</ele>
        <time>2020-12-20T09:33:54Z</time>
      </trkpt>
      <trkpt lat="47.86397" lon="-1.07602">
        <ele>61.1</ele>
        <time>2020-12-20T09:33:55Z</time>
      </trkpt>
      <trkpt lat="47.86395" lon="-1.07594">
        <ele>61.2</ele>
        <time>2020-12-20T09:33:56Z</time>
      </trkpt>
      <trkpt lat="47.86392" lon="-1.07585">
        <ele>61.3</ele>
        <time>2020-12-20T09:33:57Z</time>
      </trkpt>
      <trkpt lat="47.86392" lon="-1.07585">
        <ele>61.3</ele>
        <time>2020-12-20T09:33:58Z</time>
      </trkpt>
      <trkpt lat="47.8639" lon="-1.07569">
        <ele>61.4</ele>
        <time>2020-12-20T09:33:59Z</time>
      </trkpt>
      <trkpt lat="47.86389" lon="-1.07564">
        <ele>61.5</ele>
        <time>2020-12-20T09:34:00Z</time>
      </trkpt>
      <trkpt lat="47.8639" lon="-1.07558">
        <ele>61.5</ele>
        <time>2020-12-20T09:34:01Z</time>
      </trkpt>
      <trkpt lat="47.8639" lon="-1.07552">
        <ele>61.6</ele>
        <time>2020-12-20T09:34:02Z</time>
      </trkpt>
      <trkpt lat="47.8639" lon="-1.07548">
        <ele>61.6</ele>
        <time>2020-12-20T09:34:03Z</time>
      </trkpt>
      <trkpt lat="47.86389" lon="-1.07542">
        <ele>61.7</ele>
        <time>2020-12-20T09:34:04Z</time>
      </trkpt>
      <trkpt lat="47.86388" lon="-1.07535">
        <ele>61.7</ele>
        <time>2020-12-20T09:34:05Z</time>
      </trkpt>
      <trkpt lat="47.86387" lon="-1.07529">
        <ele>61.8</ele>
        <time>2020-12-20T09:34:06Z</time>
      </trkpt>
      <trkpt lat="47.86387" lon="-1.07529">
        <ele>61.8</ele>
        <time>2020-12-20T09:34:07Z</time>
      </trkpt>
      <trkpt lat="47.86385" lon="-1.07517">
        <ele>61.9</ele>
        <time>2020-12-20T09:34:08Z</time>
      </trkpt>
      <trkpt lat="47.86384" lon="-1.0751">
        <ele>61.9</ele>
        <time>2020-12-20T09:34:09Z</time>
      </trkpt>
      <trkpt lat="47.86383" lon="-1.07504">
        <ele>62</ele>
        <time>2020-12-20T09:34:10Z</time>
      </trkpt>
      <trkpt lat="47.86383" lon="-1.07497">
        <ele>61.9</ele>
        <time>2020-12-20T09:34:11Z</time>
      </trkpt>
      <trkpt lat="47.86382" lon="-1.07491">
        <ele>61.8</ele>
        <time>2020-12-20T09:34:12Z</time>
      </trkpt>
      <trkpt lat="47.86381" lon="-1.07485">
        <ele>61.7</ele>
        <time>2020-12-20T09:34:13Z</time>
      </trkpt>
      <trkpt lat="47.8638" lon="-1.0748">
        <ele>61.6</ele>
        <time>2020-12-20T09:34:14Z</time>
      </trkpt>
      <trkpt lat="47.86378" lon="-1.07473">
        <ele>61.5</ele>
        <time>2020-12-20T09:34:15Z</time>
      </trkpt>
      <trkpt lat="47.86377" lon="-1.07467">
        <ele>61.4</ele>
        <time>2020-12-20T09:34:16Z</time>
      </trkpt>
      <trkpt lat="47.86375" lon="-1.0746">
        <ele>61.3</ele>
        <time>2020-12-20T09:34:17Z</time>
      </trkpt>
      <trkpt lat="47.86373" lon="-1.07454">
        <ele>61.2</ele>
        <time>2020-12-20T09:34:18Z</time>
      </trkpt>
      <trkpt lat="47.86371" lon="-1.07448">
        <ele>61.1</ele>
        <time>2020-12-20T09:34:19Z</time>
      </trkpt>
      <trkpt lat="47.86371" lon="-1.07448">
        <ele>61.1</ele>
        <time>2020-12-20T09:34:20Z</time>
      </trkpt>
      <trkpt lat="47.86367" lon="-1.07436">
        <ele>60.9</ele>
        <time>2020-12-20T09:34:21Z</time>
      </trkpt>
      <trkpt lat="47.86365" lon="-1.0743">
        <ele>60.8</ele>
        <time>2020-12-20T09:34:22Z</time>
      </trkpt>
      <trkpt lat="47.86363" lon="-1.07425">
        <ele>60.8</ele>
        <time>2020-12-20T09:34:23Z</time>
      </trkpt>
      <trkpt lat="47.86361" lon="-1.0742">
        <ele>60.7</ele>
        <time>2020-12-20T09:34:24Z</time>
      </trkpt>
      <trkpt lat="47.86358" lon="-1.07415">
        <ele>60.7</ele>
        <time>2020-12-20T09:34:25Z</time>
      </trkpt>
      <trkpt lat="47.86356" lon="-1.0741">
        <ele>60.7</ele>
        <time>2020-12-20T09:34:26Z</time>
      </trkpt>
      <trkpt lat="47.86354" lon="-1.07405">
        <ele>60.7</ele>
        <time>2020-12-20T09:34:27Z</time>
      </trkpt>
      <trkpt lat="47.86352" lon="-1.07401">
        <ele>60.7</ele>
        <time>2020-12-20T09:34:28Z</time>
      </trkpt>
      <trkpt lat="47.8635" lon="-1.07396">
        <ele>60.8</ele>
        <time>2020-12-20T09:34:29Z</time>
      </trkpt>
      <trkpt lat="47.86347" lon="-1.07393">
        <ele>60.8</ele>
        <time>2020-12-20T09:34:30Z</time>
      </trkpt>
      <trkpt lat="47.86345" lon="-1.07389">
        <ele>60.8</ele>
        <time>2020-12-20T09:34:31Z</time>
      </trkpt>
      <trkpt lat="47.86342" lon="-1.07385">
        <ele>60.9</ele>
        <time>2020-12-20T09:34:32Z</time>
      </trkpt>
      <trkpt lat="47.86342" lon="-1.07385">
        <ele>60.9</ele>
        <time>2020-12-20T09:34:33Z</time>
      </trkpt>
      <trkpt lat="47.86338" lon="-1.07379">
        <ele>60.9</ele>
        <time>2020-12-20T09:34:34Z</time>
      </trkpt>
      <trkpt lat="47.86335" lon="-1.07375">
        <ele>61</ele>
        <time>2020-12-20T09:34:35Z</time>
      </trkpt>
      <trkpt lat="47.86332" lon="-1.07372">
        <ele>61</ele>
        <time>2020-12-20T09:34:36Z</time>
      </trkpt>
      <trkpt lat="47.8633" lon="-1.0737">
        <ele>61.1</ele>
        <time>2020-12-20T09:34:37Z</time>
      </trkpt>
      <trkpt lat="47.86327" lon="-1.07367">
        <ele>61.1</ele>
        <time>2020-12-20T09:34:38Z</time>
      </trkpt>
      <trkpt lat="47.86324" lon="-1.07365">
        <ele>61.2</ele>
        <time>2020-12-20T09:34:39Z</time>
      </trkpt>
      <trkpt lat="47.86324" lon="-1.07365">
        <ele>61.2</ele>
        <time>2020-12-20T09:34:40Z</time>
      </trkpt>
      <trkpt lat="47.86317" lon="-1.07359">
        <ele>61.3</ele>
        <time>2020-12-20T09:34:41Z</time>
      </trkpt>
      <trkpt lat="47.86314" lon="-1.07356">
        <ele>61.3</ele>
        <time>2020-12-20T09:34:42Z</time>
      </trkpt>
      <trkpt lat="47.86314" lon="-1.07356">
        <ele>61.3</ele>
        <time>2020-12-20T09:34:43Z</time>
      </trkpt>
      <trkpt lat="47.86309" lon="-1.0735">
        <ele>61.4</ele>
        <time>2020-12-20T09:34:44Z</time>
      </trkpt>
      <trkpt lat="47.86306" lon="-1.07347">
        <ele>61.4</ele>
        <time>2020-12-20T09:34:45Z</time>
      </trkpt>
      <trkpt lat="47.86304" lon="-1.07343">
        <ele>61.4</ele>
        <time>2020-12-20T09:34:46Z</time>
      </trkpt>
      <trkpt lat="47.86301" lon="-1.0734">
        <ele>61.4</ele>
        <time>2020-12-20T09:34:47Z</time>
      </trkpt>
      <trkpt lat="47.86298" lon="-1.07337">
        <ele>61.4</ele>
        <time>2020-12-20T09:34:48Z</time>
      </trkpt>
      <trkpt lat="47.86295" lon="-1.07335">
        <ele>61.5</ele>
        <time>2020-12-20T09:34:49Z</time>
      </trkpt>
      <trkpt lat="47.86291" lon="-1.07332">
        <ele>61.5</ele>
        <time>2020-12-20T09:34:50Z</time>
      </trkpt>
      <trkpt lat="47.86288" lon="-1.07329">
        <ele>61.6</ele>
        <time>2020-12-20T09:34:51Z</time>
      </trkpt>
      <trkpt lat="47.86285" lon="-1.07327">
        <ele>61.6</ele>
        <time>2020-12-20T09:34:52Z</time>
      </trkpt>
      <trkpt lat="47.86283" lon="-1.07326">
        <ele>61.7</ele>
        <time>2020-12-20T09:34:53Z</time>
      </trkpt>
      <trkpt lat="47.8628" lon="-1.07322">
        <ele>61.7</ele>
        <time>2020-12-20T09:34:54Z</time>
      </trkpt>
      <trkpt lat="47.86278" lon="-1.07317">
        <ele>61.8</ele>
        <time>2020-12-20T09:34:55Z</time>
      </trkpt>
      <trkpt lat="47.86276" lon="-1.07315">
        <ele>61.8</ele>
        <time>2020-12-20T09:34:56Z</time>
      </trkpt>
      <trkpt lat="47.86275" lon="-1.07312">
        <ele>61.9</ele>
        <time>2020-12-20T09:34:57Z</time>
      </trkpt>
      <trkpt lat="47.86274" lon="-1.07309">
        <ele>61.9</ele>
        <time>2020-12-20T09:34:58Z</time>
      </trkpt>
      <trkpt lat="47.86273" lon="-1.07306">
        <ele>62</ele>
        <time>2020-12-20T09:34:59Z</time>
      </trkpt>
      <trkpt lat="47.86271" lon="-1.07303">
        <ele>62</ele>
        <time>2020-12-20T09:35:00Z</time>
      </trkpt>
      <trkpt lat="47.86269" lon="-1.07298">
        <ele>62.1</ele>
        <time>2020-12-20T09:35:01Z</time>
      </trkpt>
      <trkpt lat="47.86268" lon="-1.07294">
        <ele>62.2</ele>
        <time>2020-12-20T09:35:02Z</time>
      </trkpt>
      <trkpt lat="47.86267" lon="-1.07287">
        <ele>62.2</ele>
        <time>2020-12-20T09:35:03Z</time>
      </trkpt>
      <trkpt lat="47.86266" lon="-1.07282">
        <ele>62.3</ele>
        <time>2020-12-20T09:35:04Z</time>
      </trkpt>
      <trkpt lat="47.86264" lon="-1.07274">
        <ele>62.4</ele>
        <time>2020-12-20T09:35:05Z</time>
      </trkpt>
      <trkpt lat="47.86262" lon="-1.07268">
        <ele>62.5</ele>
        <time>2020-12-20T09:35:06Z</time>
      </trkpt>
      <trkpt lat="47.86262" lon="-1.07263">
        <ele>62.6</ele>
        <time>2020-12-20T09:35:07Z</time>
      </trkpt>
      <trkpt lat="47.86262" lon="-1.07263">
        <ele>62.6</ele>
        <time>2020-12-20T09:35:08Z</time>
      </trkpt>
      <trkpt lat="47.86262" lon="-1.07252">
        <ele>62.7</ele>
        <time>2020-12-20T09:35:09Z</time>
      </trkpt>
      <trkpt lat="47.86262" lon="-1.07245">
        <ele>62.7</ele>
        <time>2020-12-20T09:35:10Z</time>
      </trkpt>
      <trkpt lat="47.86264" lon="-1.07242">
        <ele>62.6</ele>
        <time>2020-12-20T09:35:11Z</time>
      </trkpt>
      <trkpt lat="47.86266" lon="-1.07239">
        <ele>62.6</ele>
        <time>2020-12-20T09:35:12Z</time>
      </trkpt>
      <trkpt lat="47.86268" lon="-1.07236">
        <ele>62.5</ele>
        <time>2020-12-20T09:35:13Z</time>
      </trkpt>
      <trkpt lat="47.86271" lon="-1.07232">
        <ele>62.4</ele>
        <time>2020-12-20T09:35:14Z</time>
      </trkpt>
      <trkpt lat="47.86274" lon="-1.07227">
        <ele>62.3</ele>
        <time>2020-12-20T09:35:15Z</time>
      </trkpt>
      <trkpt lat="47.86275" lon="-1.07222">
        <ele>62.3</ele>
        <time>2020-12-20T09:35:16Z</time>
      </trkpt>
      <trkpt lat="47.86275" lon="-1.07216">
        <ele>62.3</ele>
        <time>2020-12-20T09:35:17Z</time>
      </trkpt>
      <trkpt lat="47.86273" lon="-1.0721">
        <ele>62.3</ele>
        <time>2020-12-20T09:35:18Z</time>
      </trkpt>
      <trkpt lat="47.86271" lon="-1.07203">
        <ele>62.4</ele>
        <time>2020-12-20T09:35:19Z</time>
      </trkpt>
      <trkpt lat="47.86268" lon="-1.07202">
        <ele>62.4</ele>
        <time>2020-12-20T09:35:20Z</time>
      </trkpt>
      <trkpt lat="47.86266" lon="-1.07201">
        <ele>62.5</ele>
        <time>2020-12-20T09:35:21Z</time>
      </trkpt>
      <trkpt lat="47.86264" lon="-1.07198">
        <ele>62.6</ele>
        <time>2020-12-20T09:35:22Z</time>
      </trkpt>
      <trkpt lat="47.86261" lon="-1.07193">
        <ele>62.6</ele>
        <time>2020-12-20T09:35:23Z</time>
      </trkpt>
      <trkpt lat="47.86257" lon="-1.07189">
        <ele>62.8</ele>
        <time>2020-12-20T09:35:24Z</time>
      </trkpt>
      <trkpt lat="47.86253" lon="-1.07185">
        <ele>62.9</ele>
        <time>2020-12-20T09:35:25Z</time>
      </trkpt>
      <trkpt lat="47.8625" lon="-1.07183">
        <ele>63</ele>
        <time>2020-12-20T09:35:26Z</time>
      </trkpt>
      <trkpt lat="47.86247" lon="-1.07183">
        <ele>63</ele>
        <time>2020-12-20T09:35:27Z</time>
      </trkpt>
      <trkpt lat="47.86246" lon="-1.0718">
        <ele>63</ele>
        <time>2020-12-20T09:35:28Z</time>
      </trkpt>
      <trkpt lat="47.86245" lon="-1.07175">
        <ele>63</ele>
        <time>2020-12-20T09:35:29Z</time>
      </trkpt>
      <trkpt lat="47.86242" lon="-1.07168">
        <ele>63</ele>
        <time>2020-12-20T09:35:30Z</time>
      </trkpt>
      <trkpt lat="47.86241" lon="-1.07159">
        <ele>62.9</ele>
        <time>2020-12-20T09:35:31Z</time>
      </trkpt>
      <trkpt lat="47.86239" lon="-1.0715">
        <ele>62.9</ele>
        <time>2020-12-20T09:35:32Z</time>
      </trkpt>
      <trkpt lat="47.86237" lon="-1.07144">
        <ele>62.8</ele>
        <time>2020-12-20T09:35:33Z</time>
      </trkpt>
      <trkpt lat="47.86235" lon="-1.07138">
        <ele>62.8</ele>
        <time>2020-12-20T09:35:34Z</time>
      </trkpt>
      <trkpt lat="47.86233" lon="-1.07131">
        <ele>62.7</ele>
        <time>2020-12-20T09:35:35Z</time>
      </trkpt>
      <trkpt lat="47.86231" lon="-1.07124">
        <ele>62.7</ele>
        <time>2020-12-20T09:35:36Z</time>
      </trkpt>
      <trkpt lat="47.86229" lon="-1.07118">
        <ele>62.7</ele>
        <time>2020-12-20T09:35:37Z</time>
      </trkpt>
      <trkpt lat="47.86228" lon="-1.07111">
        <ele>62.7</ele>
        <time>2020-12-20T09:35:38Z</time>
      </trkpt>
      <trkpt lat="47.86225" lon="-1.07105">
        <ele>62.7</ele>
        <time>2020-12-20T09:35:39Z</time>
      </trkpt>
      <trkpt lat="47.86223" lon="-1.071">
        <ele>62.7</ele>
        <time>2020-12-20T09:35:40Z</time>
      </trkpt>
      <trkpt lat="47.86221" lon="-1.07092">
        <ele>62.7</ele>
        <time>2020-12-20T09:35:41Z</time>
      </trkpt>
      <trkpt lat="47.86219" lon="-1.07086">
        <ele>62.8</ele>
        <time>2020-12-20T09:35:42Z</time>
      </trkpt>
      <trkpt lat="47.86217" lon="-1.07079">
        <ele>62.9</ele>
        <time>2020-12-20T09:35:43Z</time>
      </trkpt>
      <trkpt lat="47.86215" lon="-1.07072">
        <ele>63.1</ele>
        <time>2020-12-20T09:35:44Z</time>
      </trkpt>
      <trkpt lat="47.86212" lon="-1.07064">
        <ele>63.4</ele>
        <time>2020-12-20T09:35:45Z</time>
      </trkpt>
      <trkpt lat="47.8621" lon="-1.07057">
        <ele>63.6</ele>
        <time>2020-12-20T09:35:46Z</time>
      </trkpt>
      <trkpt lat="47.86208" lon="-1.07051">
        <ele>63.8</ele>
        <time>2020-12-20T09:35:47Z</time>
      </trkpt>
      <trkpt lat="47.86206" lon="-1.07044">
        <ele>64</ele>
        <time>2020-12-20T09:35:48Z</time>
      </trkpt>
      <trkpt lat="47.86206" lon="-1.07038">
        <ele>64.2</ele>
        <time>2020-12-20T09:35:49Z</time>
      </trkpt>
      <trkpt lat="47.86206" lon="-1.07032">
        <ele>64.3</ele>
        <time>2020-12-20T09:35:50Z</time>
      </trkpt>
      <trkpt lat="47.86207" lon="-1.07026">
        <ele>64.4</ele>
        <time>2020-12-20T09:35:51Z</time>
      </trkpt>
      <trkpt lat="47.8621" lon="-1.0702">
        <ele>64.4</ele>
        <time>2020-12-20T09:35:52Z</time>
      </trkpt>
      <trkpt lat="47.86213" lon="-1.07015">
        <ele>64.4</ele>
        <time>2020-12-20T09:35:53Z</time>
      </trkpt>
      <trkpt lat="47.86216" lon="-1.07009">
        <ele>64.4</ele>
        <time>2020-12-20T09:35:54Z</time>
      </trkpt>
      <trkpt lat="47.8622" lon="-1.07003">
        <ele>64.4</ele>
        <time>2020-12-20T09:35:55Z</time>
      </trkpt>
      <trkpt lat="47.86223" lon="-1.06998">
        <ele>64.4</ele>
        <time>2020-12-20T09:35:56Z</time>
      </trkpt>
      <trkpt lat="47.86226" lon="-1.06992">
        <ele>64.4</ele>
        <time>2020-12-20T09:35:57Z</time>
      </trkpt>
      <trkpt lat="47.86228" lon="-1.06986">
        <ele>64.6</ele>
        <time>2020-12-20T09:35:58Z</time>
      </trkpt>
      <trkpt lat="47.8623" lon="-1.0698">
        <ele>64.7</ele>
        <time>2020-12-20T09:35:59Z</time>
      </trkpt>
      <trkpt lat="47.86231" lon="-1.06974">
        <ele>64.8</ele>
        <time>2020-12-20T09:36:00Z</time>
      </trkpt>
      <trkpt lat="47.86233" lon="-1.06969">
        <ele>64.9</ele>
        <time>2020-12-20T09:36:01Z</time>
      </trkpt>
      <trkpt lat="47.86235" lon="-1.06965">
        <ele>65</ele>
        <time>2020-12-20T09:36:02Z</time>
      </trkpt>
      <trkpt lat="47.86237" lon="-1.06961">
        <ele>65</ele>
        <time>2020-12-20T09:36:03Z</time>
      </trkpt>
      <trkpt lat="47.86239" lon="-1.06958">
        <ele>65</ele>
        <time>2020-12-20T09:36:04Z</time>
      </trkpt>
      <trkpt lat="47.86239" lon="-1.06954">
        <ele>65.2</ele>
        <time>2020-12-20T09:36:05Z</time>
      </trkpt>
      <trkpt lat="47.86238" lon="-1.0695">
        <ele>65.4</ele>
        <time>2020-12-20T09:36:06Z</time>
      </trkpt>
      <trkpt lat="47.86236" lon="-1.06948">
        <ele>65.5</ele>
        <time>2020-12-20T09:36:07Z</time>
      </trkpt>
      <trkpt lat="47.86235" lon="-1.06945">
        <ele>65.7</ele>
        <time>2020-12-20T09:36:08Z</time>
      </trkpt>
      <trkpt lat="47.86233" lon="-1.06942">
        <ele>65.9</ele>
        <time>2020-12-20T09:36:09Z</time>
      </trkpt>
      <trkpt lat="47.86231" lon="-1.0694">
        <ele>66.1</ele>
        <time>2020-12-20T09:36:10Z</time>
      </trkpt>
      <trkpt lat="47.8623" lon="-1.06937">
        <ele>66.2</ele>
        <time>2020-12-20T09:36:11Z</time>
      </trkpt>
      <trkpt lat="47.86228" lon="-1.06934">
        <ele>66.4</ele>
        <time>2020-12-20T09:36:12Z</time>
      </trkpt>
      <trkpt lat="47.86227" lon="-1.06931">
        <ele>66.6</ele>
        <time>2020-12-20T09:36:13Z</time>
      </trkpt>
      <trkpt lat="47.86226" lon="-1.06928">
        <ele>66.7</ele>
        <time>2020-12-20T09:36:14Z</time>
      </trkpt>
      <trkpt lat="47.86225" lon="-1.06925">
        <ele>66.9</ele>
        <time>2020-12-20T09:36:15Z</time>
      </trkpt>
      <trkpt lat="47.86224" lon="-1.06921">
        <ele>67.1</ele>
        <time>2020-12-20T09:36:16Z</time>
      </trkpt>
      <trkpt lat="47.86223" lon="-1.06918">
        <ele>67.2</ele>
        <time>2020-12-20T09:36:17Z</time>
      </trkpt>
      <trkpt lat="47.86221" lon="-1.06915">
        <ele>67.4</ele>
        <time>2020-12-20T09:36:18Z</time>
      </trkpt>
      <trkpt lat="47.8622" lon="-1.06913">
        <ele>67.4</ele>
        <time>2020-12-20T09:36:19Z</time>
      </trkpt>
      <trkpt lat="47.86218" lon="-1.06914">
        <ele>67.5</ele>
        <time>2020-12-20T09:36:20Z</time>
      </trkpt>
      <trkpt lat="47.86217" lon="-1.06916">
        <ele>67.6</ele>
        <time>2020-12-20T09:36:21Z</time>
      </trkpt>
      <trkpt lat="47.86216" lon="-1.06918">
        <ele>67.6</ele>
        <time>2020-12-20T09:36:22Z</time>
      </trkpt>
      <trkpt lat="47.86215" lon="-1.0692">
        <ele>67.6</ele>
        <time>2020-12-20T09:36:23Z</time>
      </trkpt>
      <trkpt lat="47.86214" lon="-1.06922">
        <ele>67.5</ele>
        <time>2020-12-20T09:36:24Z</time>
      </trkpt>
      <trkpt lat="47.86212" lon="-1.06924">
        <ele>67.6</ele>
        <time>2020-12-20T09:36:25Z</time>
      </trkpt>
      <trkpt lat="47.86211" lon="-1.06926">
        <ele>67.5</ele>
        <time>2020-12-20T09:36:26Z</time>
      </trkpt>
      <trkpt lat="47.8621" lon="-1.06927">
        <ele>67.5</ele>
        <time>2020-12-20T09:36:27Z</time>
      </trkpt>
      <trkpt lat="47.86208" lon="-1.06929">
        <ele>67.6</ele>
        <time>2020-12-20T09:36:28Z</time>
      </trkpt>
      <trkpt lat="47.86206" lon="-1.0693">
        <ele>67.6</ele>
        <time>2020-12-20T09:36:29Z</time>
      </trkpt>
      <trkpt lat="47.86205" lon="-1.06931">
        <ele>67.6</ele>
        <time>2020-12-20T09:36:30Z</time>
      </trkpt>
      <trkpt lat="47.86203" lon="-1.06932">
        <ele>67.7</ele>
        <time>2020-12-20T09:36:31Z</time>
      </trkpt>
      <trkpt lat="47.86201" lon="-1.06933">
        <ele>67.8</ele>
        <time>2020-12-20T09:36:32Z</time>
      </trkpt>
      <trkpt lat="47.86201" lon="-1.06934">
        <ele>67.7</ele>
        <time>2020-12-20T09:36:33Z</time>
      </trkpt>
      <trkpt lat="47.86199" lon="-1.06934">
        <ele>67.8</ele>
        <time>2020-12-20T09:36:34Z</time>
      </trkpt>
      <trkpt lat="47.86197" lon="-1.06935">
        <ele>67.9</ele>
        <time>2020-12-20T09:36:35Z</time>
      </trkpt>
      <trkpt lat="47.86194" lon="-1.06937">
        <ele>68</ele>
        <time>2020-12-20T09:36:36Z</time>
      </trkpt>
      <trkpt lat="47.8619" lon="-1.06938">
        <ele>68.1</ele>
        <time>2020-12-20T09:36:37Z</time>
      </trkpt>
      <trkpt lat="47.86188" lon="-1.06939">
        <ele>68.2</ele>
        <time>2020-12-20T09:36:38Z</time>
      </trkpt>
      <trkpt lat="47.86185" lon="-1.06939">
        <ele>68.3</ele>
        <time>2020-12-20T09:36:39Z</time>
      </trkpt>
      <trkpt lat="47.86183" lon="-1.0694">
        <ele>68.4</ele>
        <time>2020-12-20T09:36:40Z</time>
      </trkpt>
      <trkpt lat="47.8618" lon="-1.06942">
        <ele>68.4</ele>
        <time>2020-12-20T09:36:41Z</time>
      </trkpt>
      <trkpt lat="47.86178" lon="-1.06946">
        <ele>68.4</ele>
        <time>2020-12-20T09:36:42Z</time>
      </trkpt>
      <trkpt lat="47.86174" lon="-1.06951">
        <ele>68.4</ele>
        <time>2020-12-20T09:36:43Z</time>
      </trkpt>
      <trkpt lat="47.8617" lon="-1.06956">
        <ele>68.4</ele>
        <time>2020-12-20T09:36:44Z</time>
      </trkpt>
      <trkpt lat="47.86166" lon="-1.06959">
        <ele>68.5</ele>
        <time>2020-12-20T09:36:45Z</time>
      </trkpt>
      <trkpt lat="47.86164" lon="-1.06961">
        <ele>68.4</ele>
        <time>2020-12-20T09:36:46Z</time>
      </trkpt>
      <trkpt lat="47.86163" lon="-1.06963">
        <ele>68.4</ele>
        <time>2020-12-20T09:36:47Z</time>
      </trkpt>
      <trkpt lat="47.86161" lon="-1.06964">
        <ele>68.3</ele>
        <time>2020-12-20T09:36:48Z</time>
      </trkpt>
      <trkpt lat="47.8616" lon="-1.06967">
        <ele>68.3</ele>
        <time>2020-12-20T09:36:49Z</time>
      </trkpt>
      <trkpt lat="47.86156" lon="-1.06972">
        <ele>68.1</ele>
        <time>2020-12-20T09:36:50Z</time>
      </trkpt>
      <trkpt lat="47.86154" lon="-1.06975">
        <ele>68.1</ele>
        <time>2020-12-20T09:36:51Z</time>
      </trkpt>
      <trkpt lat="47.86152" lon="-1.06977">
        <ele>68</ele>
        <time>2020-12-20T09:36:52Z</time>
      </trkpt>
      <trkpt lat="47.86151" lon="-1.06979">
        <ele>68</ele>
        <time>2020-12-20T09:36:53Z</time>
      </trkpt>
      <trkpt lat="47.8615" lon="-1.06981">
        <ele>67.9</ele>
        <time>2020-12-20T09:36:54Z</time>
      </trkpt>
      <trkpt lat="47.8615" lon="-1.06984">
        <ele>67.9</ele>
        <time>2020-12-20T09:36:55Z</time>
      </trkpt>
      <trkpt lat="47.86151" lon="-1.06985">
        <ele>67.8</ele>
        <time>2020-12-20T09:36:56Z</time>
      </trkpt>
      <trkpt lat="47.86152" lon="-1.06986">
        <ele>67.8</ele>
        <time>2020-12-20T09:36:57Z</time>
      </trkpt>
      <trkpt lat="47.86153" lon="-1.06986">
        <ele>67.7</ele>
        <time>2020-12-20T09:36:58Z</time>
      </trkpt>
      <trkpt lat="47.86155" lon="-1.06986">
        <ele>67.7</ele>
        <time>2020-12-20T09:36:59Z</time>
      </trkpt>
      <trkpt lat="47.86156" lon="-1.06985">
        <ele>67.7</ele>
        <time>2020-12-20T09:37:00Z</time>
      </trkpt>
      <trkpt lat="47.86158" lon="-1.06984">
        <ele>67.7</ele>
        <time>2020-12-20T09:37:01Z</time>
      </trkpt>
      <trkpt lat="47.8616" lon="-1.06983">
        <ele>67.7</ele>
        <time>2020-12-20T09:37:02Z</time>
      </trkpt>
      <trkpt lat="47.86162" lon="-1.06982">
        <ele>67.7</ele>
        <time>2020-12-20T09:37:03Z</time>
      </trkpt>
      <trkpt lat="47.86165" lon="-1.06981">
        <ele>67.7</ele>
        <time>2020-12-20T09:37:04Z</time>
      </trkpt>
      <trkpt lat="47.86167" lon="-1.06979">
        <ele>67.7</ele>
        <time>2020-12-20T09:37:05Z</time>
      </trkpt>
      <trkpt lat="47.86171" lon="-1.06978">
        <ele>67.6</ele>
        <time>2020-12-20T09:37:06Z</time>
      </trkpt>
      <trkpt lat="47.86173" lon="-1.06977">
        <ele>67.5</ele>
        <time>2020-12-20T09:37:07Z</time>
      </trkpt>
      <trkpt lat="47.86176" lon="-1.06975">
        <ele>67.5</ele>
        <time>2020-12-20T09:37:08Z</time>
      </trkpt>
      <trkpt lat="47.86179" lon="-1.06972">
        <ele>67.4</ele>
        <time>2020-12-20T09:37:09Z</time>
      </trkpt>
      <trkpt lat="47.86182" lon="-1.0697">
        <ele>67.3</ele>
        <time>2020-12-20T09:37:10Z</time>
      </trkpt>
      <trkpt lat="47.86184" lon="-1.06969">
        <ele>67.3</ele>
        <time>2020-12-20T09:37:11Z</time>
      </trkpt>
      <trkpt lat="47.86187" lon="-1.06967">
        <ele>67.2</ele>
        <time>2020-12-20T09:37:12Z</time>
      </trkpt>
      <trkpt lat="47.86189" lon="-1.06965">
        <ele>67.2</ele>
        <time>2020-12-20T09:37:13Z</time>
      </trkpt>
      <trkpt lat="47.86192" lon="-1.06962">
        <ele>67.2</ele>
        <time>2020-12-20T09:37:14Z</time>
      </trkpt>
      <trkpt lat="47.86195" lon="-1.0696">
        <ele>67.1</ele>
        <time>2020-12-20T09:37:15Z</time>
      </trkpt>
      <trkpt lat="47.86199" lon="-1.06959">
        <ele>66.9</ele>
        <time>2020-12-20T09:37:16Z</time>
      </trkpt>
      <trkpt lat="47.86201" lon="-1.06957">
        <ele>66.9</ele>
        <time>2020-12-20T09:37:17Z</time>
      </trkpt>
      <trkpt lat="47.86204" lon="-1.06955">
        <ele>66.8</ele>
        <time>2020-12-20T09:37:18Z</time>
      </trkpt>
      <trkpt lat="47.86209" lon="-1.06953">
        <ele>66.7</ele>
        <time>2020-12-20T09:37:19Z</time>
      </trkpt>
      <trkpt lat="47.86214" lon="-1.06951">
        <ele>66.5</ele>
        <time>2020-12-20T09:37:20Z</time>
      </trkpt>
      <trkpt lat="47.86217" lon="-1.0695">
        <ele>66.4</ele>
        <time>2020-12-20T09:37:21Z</time>
      </trkpt>
      <trkpt lat="47.86219" lon="-1.06948">
        <ele>66.4</ele>
        <time>2020-12-20T09:37:22Z</time>
      </trkpt>
      <trkpt lat="47.8622" lon="-1.06948">
        <ele>66.3</ele>
        <time>2020-12-20T09:37:23Z</time>
      </trkpt>
      <trkpt lat="47.86222" lon="-1.06946">
        <ele>66.3</ele>
        <time>2020-12-20T09:37:24Z</time>
      </trkpt>
      <trkpt lat="47.86224" lon="-1.06944">
        <ele>66.3</ele>
        <time>2020-12-20T09:37:25Z</time>
      </trkpt>
      <trkpt lat="47.86225" lon="-1.06942">
        <ele>66.3</ele>
        <time>2020-12-20T09:37:26Z</time>
      </trkpt>
      <trkpt lat="47.86227" lon="-1.06937">
        <ele>66.4</ele>
        <time>2020-12-20T09:37:27Z</time>
      </trkpt>
      <trkpt lat="47.8623" lon="-1.06933">
        <ele>66.4</ele>
        <time>2020-12-20T09:37:28Z</time>
      </trkpt>
      <trkpt lat="47.86232" lon="-1.06929">
        <ele>66.4</ele>
        <time>2020-12-20T09:37:29Z</time>
      </trkpt>
      <trkpt lat="47.86233" lon="-1.06924">
        <ele>66.6</ele>
        <time>2020-12-20T09:37:30Z</time>
      </trkpt>
      <trkpt lat="47.86235" lon="-1.06919">
        <ele>66.6</ele>
        <time>2020-12-20T09:37:31Z</time>
      </trkpt>
      <trkpt lat="47.86236" lon="-1.06916">
        <ele>66.7</ele>
        <time>2020-12-20T09:37:32Z</time>
      </trkpt>
      <trkpt lat="47.86236" lon="-1.06913">
        <ele>66.6</ele>
        <time>2020-12-20T09:37:33Z</time>
      </trkpt>
      <trkpt lat="47.86237" lon="-1.06911">
        <ele>66.6</ele>
        <time>2020-12-20T09:37:34Z</time>
      </trkpt>
      <trkpt lat="47.86238" lon="-1.0691">
        <ele>66.5</ele>
        <time>2020-12-20T09:37:35Z</time>
      </trkpt>
      <trkpt lat="47.86239" lon="-1.06908">
        <ele>66.5</ele>
        <time>2020-12-20T09:37:36Z</time>
      </trkpt>
      <trkpt lat="47.86242" lon="-1.06906">
        <ele>66.3</ele>
        <time>2020-12-20T09:37:37Z</time>
      </trkpt>
      <trkpt lat="47.86244" lon="-1.06905">
        <ele>66.3</ele>
        <time>2020-12-20T09:37:38Z</time>
      </trkpt>
      <trkpt lat="47.86247" lon="-1.06904">
        <ele>66.1</ele>
        <time>2020-12-20T09:37:39Z</time>
      </trkpt>
      <trkpt lat="47.8625" lon="-1.06902">
        <ele>66</ele>
        <time>2020-12-20T09:37:40Z</time>
      </trkpt>
      <trkpt lat="47.86253" lon="-1.06902">
        <ele>65.8</ele>
        <time>2020-12-20T09:37:41Z</time>
      </trkpt>
      <trkpt lat="47.86256" lon="-1.06902">
        <ele>65.6</ele>
        <time>2020-12-20T09:37:42Z</time>
      </trkpt>
      <trkpt lat="47.86258" lon="-1.069">
        <ele>65.5</ele>
        <time>2020-12-20T09:37:43Z</time>
      </trkpt>
      <trkpt lat="47.86259" lon="-1.06897">
        <ele>65.4</ele>
        <time>2020-12-20T09:37:44Z</time>
      </trkpt>
      <trkpt lat="47.86261" lon="-1.06894">
        <ele>65.2</ele>
        <time>2020-12-20T09:37:45Z</time>
      </trkpt>
      <trkpt lat="47.86263" lon="-1.06891">
        <ele>65.1</ele>
        <time>2020-12-20T09:37:46Z</time>
      </trkpt>
      <trkpt lat="47.86264" lon="-1.06887">
        <ele>65</ele>
        <time>2020-12-20T09:37:47Z</time>
      </trkpt>
      <trkpt lat="47.86264" lon="-1.06884">
        <ele>65</ele>
        <time>2020-12-20T09:37:48Z</time>
      </trkpt>
      <trkpt lat="47.86264" lon="-1.06881">
        <ele>64.9</ele>
        <time>2020-12-20T09:37:49Z</time>
      </trkpt>
      <trkpt lat="47.86266" lon="-1.06878">
        <ele>64.8</ele>
        <time>2020-12-20T09:37:50Z</time>
      </trkpt>
      <trkpt lat="47.86267" lon="-1.06874">
        <ele>64.7</ele>
        <time>2020-12-20T09:37:51Z</time>
      </trkpt>
      <trkpt lat="47.86268" lon="-1.06871">
        <ele>64.6</ele>
        <time>2020-12-20T09:37:52Z</time>
      </trkpt>
      <trkpt lat="47.8627" lon="-1.06867">
        <ele>64.4</ele>
        <time>2020-12-20T09:37:53Z</time>
      </trkpt>
      <trkpt lat="47.86273" lon="-1.06864">
        <ele>64.1</ele>
        <time>2020-12-20T09:37:54Z</time>
      </trkpt>
      <trkpt lat="47.86276" lon="-1.0686">
        <ele>63.8</ele>
        <time>2020-12-20T09:37:55Z</time>
      </trkpt>
      <trkpt lat="47.86279" lon="-1.06856">
        <ele>63.5</ele>
        <time>2020-12-20T09:37:56Z</time>
      </trkpt>
      <trkpt lat="47.86281" lon="-1.06853">
        <ele>63.3</ele>
        <time>2020-12-20T09:37:57Z</time>
      </trkpt>
      <trkpt lat="47.86284" lon="-1.0685">
        <ele>63</ele>
        <time>2020-12-20T09:37:58Z</time>
      </trkpt>
      <trkpt lat="47.86286" lon="-1.06846">
        <ele>62.7</ele>
        <time>2020-12-20T09:37:59Z</time>
      </trkpt>
      <trkpt lat="47.86286" lon="-1.06841">
        <ele>62.7</ele>
        <time>2020-12-20T09:38:00Z</time>
      </trkpt>
      <trkpt lat="47.86288" lon="-1.06836">
        <ele>62.4</ele>
        <time>2020-12-20T09:38:01Z</time>
      </trkpt>
      <trkpt lat="47.86288" lon="-1.06831">
        <ele>62.3</ele>
        <time>2020-12-20T09:38:02Z</time>
      </trkpt>
      <trkpt lat="47.86286" lon="-1.06825">
        <ele>62.3</ele>
        <time>2020-12-20T09:38:03Z</time>
      </trkpt>
      <trkpt lat="47.86285" lon="-1.0682">
        <ele>62.3</ele>
        <time>2020-12-20T09:38:04Z</time>
      </trkpt>
      <trkpt lat="47.86283" lon="-1.06818">
        <ele>62.4</ele>
        <time>2020-12-20T09:38:05Z</time>
      </trkpt>
      <trkpt lat="47.86281" lon="-1.06817">
        <ele>62.6</ele>
        <time>2020-12-20T09:38:06Z</time>
      </trkpt>
      <trkpt lat="47.86278" lon="-1.06818">
        <ele>62.9</ele>
        <time>2020-12-20T09:38:07Z</time>
      </trkpt>
      <trkpt lat="47.86274" lon="-1.0682">
        <ele>63.3</ele>
        <time>2020-12-20T09:38:08Z</time>
      </trkpt>
      <trkpt lat="47.86269" lon="-1.06822">
        <ele>63.8</ele>
        <time>2020-12-20T09:38:09Z</time>
      </trkpt>
      <trkpt lat="47.86265" lon="-1.06823">
        <ele>64.2</ele>
        <time>2020-12-20T09:38:10Z</time>
      </trkpt>
      <trkpt lat="47.86261" lon="-1.06825">
        <ele>64.7</ele>
        <time>2020-12-20T09:38:11Z</time>
      </trkpt>
      <trkpt lat="47.86258" lon="-1.06825">
        <ele>65</ele>
        <time>2020-12-20T09:38:12Z</time>
      </trkpt>
      <trkpt lat="47.86255" lon="-1.06826">
        <ele>65.3</ele>
        <time>2020-12-20T09:38:13Z</time>
      </trkpt>
      <trkpt lat="47.86251" lon="-1.06827">
        <ele>65.7</ele>
        <time>2020-12-20T09:38:14Z</time>
      </trkpt>
      <trkpt lat="47.86248" lon="-1.06827">
        <ele>65.8</ele>
        <time>2020-12-20T09:38:15Z</time>
      </trkpt>
      <trkpt lat="47.86244" lon="-1.06828">
        <ele>65.9</ele>
        <time>2020-12-20T09:38:16Z</time>
      </trkpt>
      <trkpt lat="47.86241" lon="-1.06829">
        <ele>66</ele>
        <time>2020-12-20T09:38:17Z</time>
      </trkpt>
      <trkpt lat="47.86237" lon="-1.06829">
        <ele>66</ele>
        <time>2020-12-20T09:38:18Z</time>
      </trkpt>
      <trkpt lat="47.86234" lon="-1.0683">
        <ele>66.1</ele>
        <time>2020-12-20T09:38:19Z</time>
      </trkpt>
      <trkpt lat="47.86231" lon="-1.06831">
        <ele>66.2</ele>
        <time>2020-12-20T09:38:20Z</time>
      </trkpt>
      <trkpt lat="47.86228" lon="-1.06832">
        <ele>66.2</ele>
        <time>2020-12-20T09:38:21Z</time>
      </trkpt>
      <trkpt lat="47.86225" lon="-1.06834">
        <ele>66.3</ele>
        <time>2020-12-20T09:38:22Z</time>
      </trkpt>
      <trkpt lat="47.86222" lon="-1.06834">
        <ele>66.3</ele>
        <time>2020-12-20T09:38:23Z</time>
      </trkpt>
      <trkpt lat="47.86219" lon="-1.06835">
        <ele>66.4</ele>
        <time>2020-12-20T09:38:24Z</time>
      </trkpt>
      <trkpt lat="47.86216" lon="-1.06836">
        <ele>66.4</ele>
        <time>2020-12-20T09:38:25Z</time>
      </trkpt>
      <trkpt lat="47.86214" lon="-1.06837">
        <ele>66.5</ele>
        <time>2020-12-20T09:38:26Z</time>
      </trkpt>
      <trkpt lat="47.86211" lon="-1.06838">
        <ele>66.5</ele>
        <time>2020-12-20T09:38:27Z</time>
      </trkpt>
      <trkpt lat="47.86208" lon="-1.06839">
        <ele>66.6</ele>
        <time>2020-12-20T09:38:28Z</time>
      </trkpt>
      <trkpt lat="47.86203" lon="-1.06839">
        <ele>66.7</ele>
        <time>2020-12-20T09:38:29Z</time>
      </trkpt>
      <trkpt lat="47.86199" lon="-1.06839">
        <ele>66.7</ele>
        <time>2020-12-20T09:38:30Z</time>
      </trkpt>
      <trkpt lat="47.86196" lon="-1.0684">
        <ele>66.8</ele>
        <time>2020-12-20T09:38:31Z</time>
      </trkpt>
      <trkpt lat="47.86193" lon="-1.06841">
        <ele>66.9</ele>
        <time>2020-12-20T09:38:32Z</time>
      </trkpt>
      <trkpt lat="47.8619" lon="-1.06843">
        <ele>67</ele>
        <time>2020-12-20T09:38:33Z</time>
      </trkpt>
      <trkpt lat="47.86186" lon="-1.06844">
        <ele>67.1</ele>
        <time>2020-12-20T09:38:34Z</time>
      </trkpt>
      <trkpt lat="47.86181" lon="-1.06845">
        <ele>67.2</ele>
        <time>2020-12-20T09:38:35Z</time>
      </trkpt>
      <trkpt lat="47.86176" lon="-1.06845">
        <ele>67.3</ele>
        <time>2020-12-20T09:38:36Z</time>
      </trkpt>
      <trkpt lat="47.86172" lon="-1.06846">
        <ele>67.4</ele>
        <time>2020-12-20T09:38:37Z</time>
      </trkpt>
      <trkpt lat="47.86167" lon="-1.06847">
        <ele>67.5</ele>
        <time>2020-12-20T09:38:38Z</time>
      </trkpt>
      <trkpt lat="47.86163" lon="-1.06848">
        <ele>67.6</ele>
        <time>2020-12-20T09:38:39Z</time>
      </trkpt>
      <trkpt lat="47.86159" lon="-1.06849">
        <ele>67.6</ele>
        <time>2020-12-20T09:38:40Z</time>
      </trkpt>
      <trkpt lat="47.86155" lon="-1.0685">
        <ele>67.7</ele>
        <time>2020-12-20T09:38:41Z</time>
      </trkpt>
      <trkpt lat="47.86151" lon="-1.06851">
        <ele>67.7</ele>
        <time>2020-12-20T09:38:42Z</time>
      </trkpt>
      <trkpt lat="47.86147" lon="-1.06851">
        <ele>67.8</ele>
        <time>2020-12-20T09:38:43Z</time>
      </trkpt>
      <trkpt lat="47.86141" lon="-1.06852">
        <ele>67.8</ele>
        <time>2020-12-20T09:38:44Z</time>
      </trkpt>
      <trkpt lat="47.86136" lon="-1.06852">
        <ele>67.9</ele>
        <time>2020-12-20T09:38:45Z</time>
      </trkpt>
      <trkpt lat="47.86131" lon="-1.06851">
        <ele>67.9</ele>
        <time>2020-12-20T09:38:46Z</time>
      </trkpt>
      <trkpt lat="47.86131" lon="-1.06851">
        <ele>67.9</ele>
        <time>2020-12-20T09:38:47Z</time>
      </trkpt>
      <trkpt lat="47.86121" lon="-1.06853">
        <ele>68</ele>
        <time>2020-12-20T09:38:48Z</time>
      </trkpt>
      <trkpt lat="47.86116" lon="-1.06855">
        <ele>68.1</ele>
        <time>2020-12-20T09:38:49Z</time>
      </trkpt>
      <trkpt lat="47.86112" lon="-1.06857">
        <ele>68.1</ele>
        <time>2020-12-20T09:38:50Z</time>
      </trkpt>
      <trkpt lat="47.86108" lon="-1.06858">
        <ele>68.2</ele>
        <time>2020-12-20T09:38:51Z</time>
      </trkpt>
      <trkpt lat="47.86102" lon="-1.06858">
        <ele>68.2</ele>
        <time>2020-12-20T09:38:52Z</time>
      </trkpt>
      <trkpt lat="47.86097" lon="-1.06859">
        <ele>68.2</ele>
        <time>2020-12-20T09:38:53Z</time>
      </trkpt>
      <trkpt lat="47.86093" lon="-1.0686">
        <ele>68.3</ele>
        <time>2020-12-20T09:38:54Z</time>
      </trkpt>
      <trkpt lat="47.8609" lon="-1.06861">
        <ele>68.3</ele>
        <time>2020-12-20T09:38:55Z</time>
      </trkpt>
      <trkpt lat="47.86087" lon="-1.06863">
        <ele>68.3</ele>
        <time>2020-12-20T09:38:56Z</time>
      </trkpt>
      <trkpt lat="47.86083" lon="-1.06863">
        <ele>68.4</ele>
        <time>2020-12-20T09:38:57Z</time>
      </trkpt>
      <trkpt lat="47.8608" lon="-1.06864">
        <ele>68.5</ele>
        <time>2020-12-20T09:38:58Z</time>
      </trkpt>
      <trkpt lat="47.86076" lon="-1.06864">
        <ele>68.6</ele>
        <time>2020-12-20T09:38:59Z</time>
      </trkpt>
      <trkpt lat="47.86073" lon="-1.06865">
        <ele>68.7</ele>
        <time>2020-12-20T09:39:00Z</time>
      </trkpt>
      <trkpt lat="47.8607" lon="-1.06866">
        <ele>68.7</ele>
        <time>2020-12-20T09:39:01Z</time>
      </trkpt>
      <trkpt lat="47.86066" lon="-1.06866">
        <ele>68.9</ele>
        <time>2020-12-20T09:39:02Z</time>
      </trkpt>
      <trkpt lat="47.86063" lon="-1.06867">
        <ele>68.9</ele>
        <time>2020-12-20T09:39:03Z</time>
      </trkpt>
      <trkpt lat="47.86059" lon="-1.06867">
        <ele>69</ele>
        <time>2020-12-20T09:39:04Z</time>
      </trkpt>
      <trkpt lat="47.86054" lon="-1.06868">
        <ele>69.2</ele>
        <time>2020-12-20T09:39:05Z</time>
      </trkpt>
      <trkpt lat="47.8605" lon="-1.06869">
        <ele>69.3</ele>
        <time>2020-12-20T09:39:06Z</time>
      </trkpt>
      <trkpt lat="47.86047" lon="-1.06869">
        <ele>69.4</ele>
        <time>2020-12-20T09:39:07Z</time>
      </trkpt>
      <trkpt lat="47.86043" lon="-1.0687">
        <ele>69.5</ele>
        <time>2020-12-20T09:39:08Z</time>
      </trkpt>
      <trkpt lat="47.8604" lon="-1.06871">
        <ele>69.5</ele>
        <time>2020-12-20T09:39:09Z</time>
      </trkpt>
      <trkpt lat="47.86037" lon="-1.06873">
        <ele>69.6</ele>
        <time>2020-12-20T09:39:10Z</time>
      </trkpt>
      <trkpt lat="47.86035" lon="-1.06875">
        <ele>69.7</ele>
        <time>2020-12-20T09:39:11Z</time>
      </trkpt>
      <trkpt lat="47.86033" lon="-1.06878">
        <ele>69.7</ele>
        <time>2020-12-20T09:39:12Z</time>
      </trkpt>
      <trkpt lat="47.86033" lon="-1.06882">
        <ele>69.7</ele>
        <time>2020-12-20T09:39:13Z</time>
      </trkpt>
      <trkpt lat="47.86034" lon="-1.06887">
        <ele>69.7</ele>
        <time>2020-12-20T09:39:14Z</time>
      </trkpt>
      <trkpt lat="47.86037" lon="-1.06892">
        <ele>69.6</ele>
        <time>2020-12-20T09:39:15Z</time>
      </trkpt>
      <trkpt lat="47.8604" lon="-1.06897">
        <ele>69.5</ele>
        <time>2020-12-20T09:39:16Z</time>
      </trkpt>
      <trkpt lat="47.86043" lon="-1.06902">
        <ele>69.5</ele>
        <time>2020-12-20T09:39:17Z</time>
      </trkpt>
      <trkpt lat="47.86047" lon="-1.06907">
        <ele>69.4</ele>
        <time>2020-12-20T09:39:18Z</time>
      </trkpt>
      <trkpt lat="47.86051" lon="-1.06912">
        <ele>69.4</ele>
        <time>2020-12-20T09:39:19Z</time>
      </trkpt>
      <trkpt lat="47.86055" lon="-1.06917">
        <ele>69.3</ele>
        <time>2020-12-20T09:39:20Z</time>
      </trkpt>
      <trkpt lat="47.86058" lon="-1.06922">
        <ele>69.3</ele>
        <time>2020-12-20T09:39:21Z</time>
      </trkpt>
      <trkpt lat="47.86062" lon="-1.06928">
        <ele>69.3</ele>
        <time>2020-12-20T09:39:22Z</time>
      </trkpt>
      <trkpt lat="47.86067" lon="-1.06935">
        <ele>69.2</ele>
        <time>2020-12-20T09:39:23Z</time>
      </trkpt>
      <trkpt lat="47.86071" lon="-1.06941">
        <ele>69.1</ele>
        <time>2020-12-20T09:39:24Z</time>
      </trkpt>
      <trkpt lat="47.86076" lon="-1.06947">
        <ele>69.1</ele>
        <time>2020-12-20T09:39:25Z</time>
      </trkpt>
      <trkpt lat="47.86081" lon="-1.06954">
        <ele>69</ele>
        <time>2020-12-20T09:39:26Z</time>
      </trkpt>
      <trkpt lat="47.86085" lon="-1.0696">
        <ele>69</ele>
        <time>2020-12-20T09:39:27Z</time>
      </trkpt>
      <trkpt lat="47.8609" lon="-1.06967">
        <ele>68.9</ele>
        <time>2020-12-20T09:39:28Z</time>
      </trkpt>
      <trkpt lat="47.86095" lon="-1.06974">
        <ele>68.9</ele>
        <time>2020-12-20T09:39:29Z</time>
      </trkpt>
      <trkpt lat="47.861" lon="-1.06981">
        <ele>68.7</ele>
        <time>2020-12-20T09:39:30Z</time>
      </trkpt>
      <trkpt lat="47.86105" lon="-1.06988">
        <ele>68.6</ele>
        <time>2020-12-20T09:39:31Z</time>
      </trkpt>
      <trkpt lat="47.86111" lon="-1.06995">
        <ele>68.4</ele>
        <time>2020-12-20T09:39:32Z</time>
      </trkpt>
      <trkpt lat="47.86116" lon="-1.07002">
        <ele>68.2</ele>
        <time>2020-12-20T09:39:33Z</time>
      </trkpt>
      <trkpt lat="47.86121" lon="-1.07008">
        <ele>68</ele>
        <time>2020-12-20T09:39:34Z</time>
      </trkpt>
      <trkpt lat="47.86126" lon="-1.07015">
        <ele>67.8</ele>
        <time>2020-12-20T09:39:35Z</time>
      </trkpt>
      <trkpt lat="47.8613" lon="-1.07022">
        <ele>67.6</ele>
        <time>2020-12-20T09:39:36Z</time>
      </trkpt>
      <trkpt lat="47.86135" lon="-1.07028">
        <ele>67.3</ele>
        <time>2020-12-20T09:39:37Z</time>
      </trkpt>
      <trkpt lat="47.86139" lon="-1.07034">
        <ele>67</ele>
        <time>2020-12-20T09:39:38Z</time>
      </trkpt>
      <trkpt lat="47.86143" lon="-1.0704">
        <ele>66.7</ele>
        <time>2020-12-20T09:39:39Z</time>
      </trkpt>
      <trkpt lat="47.86147" lon="-1.07046">
        <ele>66.3</ele>
        <time>2020-12-20T09:39:40Z</time>
      </trkpt>
      <trkpt lat="47.8615" lon="-1.07053">
        <ele>66</ele>
        <time>2020-12-20T09:39:41Z</time>
      </trkpt>
      <trkpt lat="47.86152" lon="-1.07061">
        <ele>65.7</ele>
        <time>2020-12-20T09:39:42Z</time>
      </trkpt>
      <trkpt lat="47.86152" lon="-1.07069">
        <ele>65.5</ele>
        <time>2020-12-20T09:39:43Z</time>
      </trkpt>
      <trkpt lat="47.8615" lon="-1.07077">
        <ele>65.4</ele>
        <time>2020-12-20T09:39:44Z</time>
      </trkpt>
      <trkpt lat="47.86148" lon="-1.07084">
        <ele>65.3</ele>
        <time>2020-12-20T09:39:45Z</time>
      </trkpt>
      <trkpt lat="47.86145" lon="-1.07092">
        <ele>65.4</ele>
        <time>2020-12-20T09:39:46Z</time>
      </trkpt>
      <trkpt lat="47.86143" lon="-1.07098">
        <ele>65.4</ele>
        <time>2020-12-20T09:39:47Z</time>
      </trkpt>
      <trkpt lat="47.8614" lon="-1.07105">
        <ele>65.4</ele>
        <time>2020-12-20T09:39:48Z</time>
      </trkpt>
      <trkpt lat="47.86137" lon="-1.07111">
        <ele>65.4</ele>
        <time>2020-12-20T09:39:49Z</time>
      </trkpt>
      <trkpt lat="47.86133" lon="-1.07118">
        <ele>65.5</ele>
        <time>2020-12-20T09:39:50Z</time>
      </trkpt>
      <trkpt lat="47.86133" lon="-1.07118">
        <ele>65.5</ele>
        <time>2020-12-20T09:39:51Z</time>
      </trkpt>
      <trkpt lat="47.86128" lon="-1.0713">
        <ele>65.4</ele>
        <time>2020-12-20T09:39:52Z</time>
      </trkpt>
      <trkpt lat="47.86126" lon="-1.07136">
        <ele>65.4</ele>
        <time>2020-12-20T09:39:53Z</time>
      </trkpt>
      <trkpt lat="47.86123" lon="-1.07143">
        <ele>65.3</ele>
        <time>2020-12-20T09:39:54Z</time>
      </trkpt>
      <trkpt lat="47.8612" lon="-1.07149">
        <ele>65.2</ele>
        <time>2020-12-20T09:39:55Z</time>
      </trkpt>
      <trkpt lat="47.86117" lon="-1.07155">
        <ele>65.2</ele>
        <time>2020-12-20T09:39:56Z</time>
      </trkpt>
      <trkpt lat="47.86115" lon="-1.07161">
        <ele>65.1</ele>
        <time>2020-12-20T09:39:57Z</time>
      </trkpt>
      <trkpt lat="47.86112" lon="-1.07167">
        <ele>65</ele>
        <time>2020-12-20T09:39:58Z</time>
      </trkpt>
      <trkpt lat="47.8611" lon="-1.07173">
        <ele>65.1</ele>
        <time>2020-12-20T09:39:59Z</time>
      </trkpt>
      <trkpt lat="47.86107" lon="-1.07179">
        <ele>65.2</ele>
        <time>2020-12-20T09:40:00Z</time>
      </trkpt>
      <trkpt lat="47.86105" lon="-1.07185">
        <ele>65.3</ele>
        <time>2020-12-20T09:40:01Z</time>
      </trkpt>
      <trkpt lat="47.86102" lon="-1.0719">
        <ele>65.4</ele>
        <time>2020-12-20T09:40:02Z</time>
      </trkpt>
      <trkpt lat="47.861" lon="-1.07195">
        <ele>65.5</ele>
        <time>2020-12-20T09:40:03Z</time>
      </trkpt>
      <trkpt lat="47.86097" lon="-1.07201">
        <ele>65.6</ele>
        <time>2020-12-20T09:40:04Z</time>
      </trkpt>
      <trkpt lat="47.86094" lon="-1.07207">
        <ele>65.7</ele>
        <time>2020-12-20T09:40:05Z</time>
      </trkpt>
      <trkpt lat="47.86092" lon="-1.07212">
        <ele>65.7</ele>
        <time>2020-12-20T09:40:06Z</time>
      </trkpt>
      <trkpt lat="47.8609" lon="-1.07217">
        <ele>65.8</ele>
        <time>2020-12-20T09:40:07Z</time>
      </trkpt>
      <trkpt lat="47.86087" lon="-1.07223">
        <ele>65.9</ele>
        <time>2020-12-20T09:40:08Z</time>
      </trkpt>
      <trkpt lat="47.86085" lon="-1.07228">
        <ele>66</ele>
        <time>2020-12-20T09:40:09Z</time>
      </trkpt>
      <trkpt lat="47.86083" lon="-1.07233">
        <ele>66</ele>
        <time>2020-12-20T09:40:10Z</time>
      </trkpt>
      <trkpt lat="47.8608" lon="-1.07239">
        <ele>66</ele>
        <time>2020-12-20T09:40:11Z</time>
      </trkpt>
      <trkpt lat="47.86078" lon="-1.07244">
        <ele>66.1</ele>
        <time>2020-12-20T09:40:12Z</time>
      </trkpt>
      <trkpt lat="47.86075" lon="-1.07248">
        <ele>66.1</ele>
        <time>2020-12-20T09:40:13Z</time>
      </trkpt>
      <trkpt lat="47.86072" lon="-1.07253">
        <ele>66.1</ele>
        <time>2020-12-20T09:40:14Z</time>
      </trkpt>
      <trkpt lat="47.86069" lon="-1.07257">
        <ele>66.2</ele>
        <time>2020-12-20T09:40:15Z</time>
      </trkpt>
      <trkpt lat="47.86066" lon="-1.07261">
        <ele>66.2</ele>
        <time>2020-12-20T09:40:16Z</time>
      </trkpt>
      <trkpt lat="47.86063" lon="-1.07265">
        <ele>66.2</ele>
        <time>2020-12-20T09:40:17Z</time>
      </trkpt>
      <trkpt lat="47.8606" lon="-1.07269">
        <ele>66.2</ele>
        <time>2020-12-20T09:40:18Z</time>
      </trkpt>
      <trkpt lat="47.86057" lon="-1.07273">
        <ele>66.2</ele>
        <time>2020-12-20T09:40:19Z</time>
      </trkpt>
      <trkpt lat="47.86053" lon="-1.07276">
        <ele>66.3</ele>
        <time>2020-12-20T09:40:20Z</time>
      </trkpt>
      <trkpt lat="47.8605" lon="-1.0728">
        <ele>66.3</ele>
        <time>2020-12-20T09:40:21Z</time>
      </trkpt>
      <trkpt lat="47.86047" lon="-1.07284">
        <ele>66.3</ele>
        <time>2020-12-20T09:40:22Z</time>
      </trkpt>
      <trkpt lat="47.86044" lon="-1.07288">
        <ele>66.3</ele>
        <time>2020-12-20T09:40:23Z</time>
      </trkpt>
      <trkpt lat="47.86041" lon="-1.07292">
        <ele>66.3</ele>
        <time>2020-12-20T09:40:24Z</time>
      </trkpt>
      <trkpt lat="47.86038" lon="-1.07296">
        <ele>66.2</ele>
        <time>2020-12-20T09:40:25Z</time>
      </trkpt>
      <trkpt lat="47.86034" lon="-1.07299">
        <ele>66.2</ele>
        <time>2020-12-20T09:40:26Z</time>
      </trkpt>
      <trkpt lat="47.86031" lon="-1.07303">
        <ele>66.2</ele>
        <time>2020-12-20T09:40:27Z</time>
      </trkpt>
      <trkpt lat="47.86028" lon="-1.07307">
        <ele>66.2</ele>
        <time>2020-12-20T09:40:28Z</time>
      </trkpt>
      <trkpt lat="47.86025" lon="-1.07311">
        <ele>66.2</ele>
        <time>2020-12-20T09:40:29Z</time>
      </trkpt>
      <trkpt lat="47.86022" lon="-1.07315">
        <ele>66.2</ele>
        <time>2020-12-20T09:40:30Z</time>
      </trkpt>
      <trkpt lat="47.86019" lon="-1.07318">
        <ele>66.1</ele>
        <time>2020-12-20T09:40:31Z</time>
      </trkpt>
      <trkpt lat="47.86016" lon="-1.07322">
        <ele>66.1</ele>
        <time>2020-12-20T09:40:32Z</time>
      </trkpt>
      <trkpt lat="47.86012" lon="-1.07325">
        <ele>66.1</ele>
        <time>2020-12-20T09:40:33Z</time>
      </trkpt>
      <trkpt lat="47.86009" lon="-1.07328">
        <ele>66.1</ele>
        <time>2020-12-20T09:40:34Z</time>
      </trkpt>
      <trkpt lat="47.86006" lon="-1.07331">
        <ele>66</ele>
        <time>2020-12-20T09:40:35Z</time>
      </trkpt>
      <trkpt lat="47.86003" lon="-1.07334">
        <ele>66</ele>
        <time>2020-12-20T09:40:36Z</time>
      </trkpt>
      <trkpt lat="47.85999" lon="-1.07336">
        <ele>66.1</ele>
        <time>2020-12-20T09:40:37Z</time>
      </trkpt>
      <trkpt lat="47.85996" lon="-1.07338">
        <ele>66.4</ele>
        <time>2020-12-20T09:40:38Z</time>
      </trkpt>
      <trkpt lat="47.85992" lon="-1.0734">
        <ele>66.6</ele>
        <time>2020-12-20T09:40:39Z</time>
      </trkpt>
      <trkpt lat="47.85988" lon="-1.07342">
        <ele>66.8</ele>
        <time>2020-12-20T09:40:40Z</time>
      </trkpt>
      <trkpt lat="47.85985" lon="-1.07343">
        <ele>67</ele>
        <time>2020-12-20T09:40:41Z</time>
      </trkpt>
      <trkpt lat="47.85981" lon="-1.07344">
        <ele>67.2</ele>
        <time>2020-12-20T09:40:42Z</time>
      </trkpt>
      <trkpt lat="47.85976" lon="-1.07345">
        <ele>67.5</ele>
        <time>2020-12-20T09:40:43Z</time>
      </trkpt>
      <trkpt lat="47.85972" lon="-1.07346">
        <ele>67.6</ele>
        <time>2020-12-20T09:40:44Z</time>
      </trkpt>
      <trkpt lat="47.85968" lon="-1.07347">
        <ele>67.8</ele>
        <time>2020-12-20T09:40:45Z</time>
      </trkpt>
      <trkpt lat="47.85964" lon="-1.07348">
        <ele>68</ele>
        <time>2020-12-20T09:40:46Z</time>
      </trkpt>
      <trkpt lat="47.8596" lon="-1.07349">
        <ele>68.2</ele>
        <time>2020-12-20T09:40:47Z</time>
      </trkpt>
      <trkpt lat="47.85956" lon="-1.0735">
        <ele>68.4</ele>
        <time>2020-12-20T09:40:48Z</time>
      </trkpt>
      <trkpt lat="47.85952" lon="-1.07351">
        <ele>68.6</ele>
        <time>2020-12-20T09:40:49Z</time>
      </trkpt>
      <trkpt lat="47.85948" lon="-1.07352">
        <ele>68.7</ele>
        <time>2020-12-20T09:40:50Z</time>
      </trkpt>
      <trkpt lat="47.85944" lon="-1.07353">
        <ele>68.9</ele>
        <time>2020-12-20T09:40:51Z</time>
      </trkpt>
      <trkpt lat="47.85941" lon="-1.07354">
        <ele>69</ele>
        <time>2020-12-20T09:40:52Z</time>
      </trkpt>
      <trkpt lat="47.85936" lon="-1.07355">
        <ele>69.3</ele>
        <time>2020-12-20T09:40:53Z</time>
      </trkpt>
      <trkpt lat="47.85932" lon="-1.07356">
        <ele>69.4</ele>
        <time>2020-12-20T09:40:54Z</time>
      </trkpt>
      <trkpt lat="47.85928" lon="-1.07357">
        <ele>69.6</ele>
        <time>2020-12-20T09:40:55Z</time>
      </trkpt>
      <trkpt lat="47.85924" lon="-1.07358">
        <ele>69.7</ele>
        <time>2020-12-20T09:40:56Z</time>
      </trkpt>
      <trkpt lat="47.8592" lon="-1.07359">
        <ele>69.9</ele>
        <time>2020-12-20T09:40:57Z</time>
      </trkpt>
      <trkpt lat="47.85916" lon="-1.0736">
        <ele>70</ele>
        <time>2020-12-20T09:40:58Z</time>
      </trkpt>
      <trkpt lat="47.85911" lon="-1.07361">
        <ele>70.1</ele>
        <time>2020-12-20T09:40:59Z</time>
      </trkpt>
      <trkpt lat="47.85907" lon="-1.07362">
        <ele>70.2</ele>
        <time>2020-12-20T09:41:00Z</time>
      </trkpt>
      <trkpt lat="47.85903" lon="-1.07363">
        <ele>70.3</ele>
        <time>2020-12-20T09:41:01Z</time>
      </trkpt>
      <trkpt lat="47.85899" lon="-1.07364">
        <ele>70.4</ele>
        <time>2020-12-20T09:41:02Z</time>
      </trkpt>
      <trkpt lat="47.85895" lon="-1.07365">
        <ele>70.5</ele>
        <time>2020-12-20T09:41:03Z</time>
      </trkpt>
      <trkpt lat="47.85891" lon="-1.07365">
        <ele>70.6</ele>
        <time>2020-12-20T09:41:04Z</time>
      </trkpt>
      <trkpt lat="47.85887" lon="-1.07366">
        <ele>70.7</ele>
        <time>2020-12-20T09:41:05Z</time>
      </trkpt>
      <trkpt lat="47.85883" lon="-1.07367">
        <ele>70.8</ele>
        <time>2020-12-20T09:41:06Z</time>
      </trkpt>
      <trkpt lat="47.85879" lon="-1.07369">
        <ele>70.9</ele>
        <time>2020-12-20T09:41:07Z</time>
      </trkpt>
      <trkpt lat="47.85875" lon="-1.0737">
        <ele>71</ele>
        <time>2020-12-20T09:41:08Z</time>
      </trkpt>
      <trkpt lat="47.85871" lon="-1.07371">
        <ele>71.1</ele>
        <time>2020-12-20T09:41:09Z</time>
      </trkpt>
      <trkpt lat="47.85867" lon="-1.07372">
        <ele>71.2</ele>
        <time>2020-12-20T09:41:10Z</time>
      </trkpt>
      <trkpt lat="47.85863" lon="-1.07373">
        <ele>71.3</ele>
        <time>2020-12-20T09:41:11Z</time>
      </trkpt>
      <trkpt lat="47.85859" lon="-1.07374">
        <ele>71.4</ele>
        <time>2020-12-20T09:41:12Z</time>
      </trkpt>
      <trkpt lat="47.85855" lon="-1.07375">
        <ele>71.5</ele>
        <time>2020-12-20T09:41:13Z</time>
      </trkpt>
      <trkpt lat="47.85851" lon="-1.07376">
        <ele>71.6</ele>
        <time>2020-12-20T09:41:14Z</time>
      </trkpt>
      <trkpt lat="47.85847" lon="-1.07377">
        <ele>71.7</ele>
        <time>2020-12-20T09:41:15Z</time>
      </trkpt>
      <trkpt lat="47.85843" lon="-1.07378">
        <ele>71.8</ele>
        <time>2020-12-20T09:41:16Z</time>
      </trkpt>
      <trkpt lat="47.85839" lon="-1.07379">
        <ele>71.9</ele>
        <time>2020-12-20T09:41:17Z</time>
      </trkpt>
      <trkpt lat="47.85835" lon="-1.0738">
        <ele>72</ele>
        <time>2020-12-20T09:41:18Z</time>
      </trkpt>
      <trkpt lat="47.85831" lon="-1.07382">
        <ele>72.1</ele>
        <time>2020-12-20T09:41:19Z</time>
      </trkpt>
      <trkpt lat="47.85827" lon="-1.07383">
        <ele>72.2</ele>
        <time>2020-12-20T09:41:20Z</time>
      </trkpt>
      <trkpt lat="47.85823" lon="-1.07384">
        <ele>72.3</ele>
        <time>2020-12-20T09:41:21Z</time>
      </trkpt>
      <trkpt lat="47.85819" lon="-1.07385">
        <ele>72.4</ele>
        <time>2020-12-20T09:41:22Z</time>
      </trkpt>
      <trkpt lat="47.85815" lon="-1.07386">
        <ele>72.5</ele>
        <time>2020-12-20T09:41:23Z</time>
      </trkpt>
      <trkpt lat="47.85811" lon="-1.07387">
        <ele>72.6</ele>
        <time>2020-12-20T09:41:24Z</time>
      </trkpt>
      <trkpt lat="47.85807" lon="-1.07388">
        <ele>72.7</ele>
        <time>2020-12-20T09:41:25Z</time>
      </trkpt>
      <trkpt lat="47.85803" lon="-1.07389">
        <ele>72.9</ele>
        <time>2020-12-20T09:41:26Z</time>
      </trkpt>
      <trkpt lat="47.85799" lon="-1.0739">
        <ele>73</ele>
        <time>2020-12-20T09:41:27Z</time>
      </trkpt>
      <trkpt lat="47.85795" lon="-1.07391">
        <ele>73.1</ele>
        <time>2020-12-20T09:41:28Z</time>
      </trkpt>
      <trkpt lat="47.85791" lon="-1.07392">
        <ele>73.2</ele>
        <time>2020-12-20T09:41:29Z</time>
      </trkpt>
      <trkpt lat="47.85787" lon="-1.07393">
        <ele>73.4</ele>
        <time>2020-12-20T09:41:30Z</time>
      </trkpt>
      <trkpt lat="47.85783" lon="-1.07394">
        <ele>73.5</ele>
        <time>2020-12-20T09:41:31Z</time>
      </trkpt>
      <trkpt lat="47.85779" lon="-1.07396">
        <ele>73.6</ele>
        <time>2020-12-20T09:41:32Z</time>
      </trkpt>
      <trkpt lat="47.85775" lon="-1.07397">
        <ele>73.8</ele>
        <time>2020-12-20T09:41:33Z</time>
      </trkpt>
      <trkpt lat="47.85771" lon="-1.07398">
        <ele>73.9</ele>
        <time>2020-12-20T09:41:34Z</time>
      </trkpt>
      <trkpt lat="47.85767" lon="-1.07399">
        <ele>74.1</ele>
        <time>2020-12-20T09:41:35Z</time>
      </trkpt>
      <trkpt lat="47.85763" lon="-1.074">
        <ele>74.2</ele>
        <time>2020-12-20T09:41:36Z</time>
      </trkpt>
      <trkpt lat="47.85759" lon="-1.07401">
        <ele>74.3</ele>
        <time>2020-12-20T09:41:37Z</time>
      </trkpt>
      <trkpt lat="47.85755" lon="-1.07402">
        <ele>74.5</ele>
        <time>2020-12-20T09:41:38Z</time>
      </trkpt>
      <trkpt lat="47.85751" lon="-1.07403">
        <ele>74.6</ele>
        <time>2020-12-20T09:41:39Z</time>
      </trkpt>
      <trkpt lat="47.85747" lon="-1.07404">
        <ele>74.7</ele>
        <time>2020-12-20T09:41:40Z</time>
      </trkpt>
      <trkpt lat="47.85743" lon="-1.07405">
        <ele>74.6</ele>
        <time>2020-12-20T09:41:41Z</time>
      </trkpt>
      <trkpt lat="47.85739" lon="-1.07406">
        <ele>74.6</ele>
        <time>2020-12-20T09:41:42Z</time>
      </trkpt>
      <trkpt lat="47.85735" lon="-1.07407">
        <ele>74.6</ele>
        <time>2020-12-20T09:41:43Z</time>
      </trkpt>
      <trkpt lat="47.85731" lon="-1.07408">
        <ele>74.6</ele>
        <time>2020-12-20T09:41:44Z</time>
      </trkpt>
      <trkpt lat="47.85727" lon="-1.07409">
        <ele>74.6</ele>
        <time>2020-12-20T09:41:45Z</time>
      </trkpt>
      <trkpt lat="47.85723" lon="-1.0741">
        <ele>74.5</ele>
        <time>2020-12-20T09:41:46Z</time>
      </trkpt>
      <trkpt lat="47.85719" lon="-1.07411">
        <ele>74.5</ele>
        <time>2020-12-20T09:41:47Z</time>
      </trkpt>
      <trkpt lat="47.85715" lon="-1.07412">
        <ele>74.5</ele>
        <time>2020-12-20T09:41:48Z</time>
      </trkpt>
      <trkpt lat="47.85711" lon="-1.07413">
        <ele>74.5</ele>
        <time>2020-12-20T09:41:49Z</time>
      </trkpt>
      <trkpt lat="47.85707" lon="-1.07414">
        <ele>74.4</ele>
        <time>2020-12-20T09:41:50Z</time>
      </trkpt>
      <trkpt lat="47.85703" lon="-1.07415">
        <ele>74.4</ele>
        <time>2020-12-20T09:41:51Z</time>
      </trkpt>
      <trkpt lat="47.85699" lon="-1.07416">
        <ele>74.4</ele>
        <time>2020-12-20T09:41:52Z</time>
      </trkpt>
      <trkpt lat="47.85695" lon="-1.07417">
        <ele>74.3</ele>
        <time>2020-12-20T09:41:53Z</time>
      </trkpt>
      <trkpt lat="47.85691" lon="-1.07418">
        <ele>74.3</ele>
        <time>2020-12-20T09:41:54Z</time>
      </trkpt>
      <trkpt lat="47.85686" lon="-1.07419">
        <ele>74.2</ele>
        <time>2020-12-20T09:41:55Z</time>
      </trkpt>
      <trkpt lat="47.85682" lon="-1.07421">
        <ele>74.2</ele>
        <time>2020-12-20T09:41:56Z</time>
      </trkpt>
      <trkpt lat="47.85678" lon="-1.07422">
        <ele>74.1</ele>
        <time>2020-12-20T09:41:57Z</time>
      </trkpt>
      <trkpt lat="47.85674" lon="-1.07423">
        <ele>74.1</ele>
        <time>2020-12-20T09:41:58Z</time>
      </trkpt>
      <trkpt lat="47.8567" lon="-1.07424">
        <ele>74</ele>
        <time>2020-12-20T09:41:59Z</time>
      </trkpt>
      <trkpt lat="47.85666" lon="-1.07425">
        <ele>74</ele>
        <time>2020-12-20T09:42:00Z</time>
      </trkpt>
      <trkpt lat="47.85662" lon="-1.07426">
        <ele>74.1</ele>
        <time>2020-12-20T09:42:01Z</time>
      </trkpt>
      <trkpt lat="47.85658" lon="-1.07427">
        <ele>74.1</ele>
        <time>2020-12-20T09:42:02Z</time>
      </trkpt>
      <trkpt lat="47.85654" lon="-1.07428">
        <ele>74.2</ele>
        <time>2020-12-20T09:42:03Z</time>
      </trkpt>
      <trkpt lat="47.8565" lon="-1.07429">
        <ele>74.2</ele>
        <time>2020-12-20T09:42:04Z</time>
      </trkpt>
      <trkpt lat="47.85646" lon="-1.0743">
        <ele>74.2</ele>
        <time>2020-12-20T09:42:05Z</time>
      </trkpt>
      <trkpt lat="47.85642" lon="-1.07431">
        <ele>74.3</ele>
        <time>2020-12-20T09:42:06Z</time>
      </trkpt>
      <trkpt lat="47.85638" lon="-1.07432">
        <ele>74.3</ele>
        <time>2020-12-20T09:42:07Z</time>
      </trkpt>
      <trkpt lat="47.85634" lon="-1.07433">
        <ele>74.4</ele>
        <time>2020-12-20T09:42:08Z</time>
      </trkpt>
      <trkpt lat="47.8563" lon="-1.07435">
        <ele>74.4</ele>
        <time>2020-12-20T09:42:09Z</time>
      </trkpt>
      <trkpt lat="47.85626" lon="-1.07436">
        <ele>74.5</ele>
        <time>2020-12-20T09:42:10Z</time>
      </trkpt>
      <trkpt lat="47.85622" lon="-1.07437">
        <ele>74.5</ele>
        <time>2020-12-20T09:42:11Z</time>
      </trkpt>
      <trkpt lat="47.85617" lon="-1.07438">
        <ele>74.6</ele>
        <time>2020-12-20T09:42:12Z</time>
      </trkpt>
      <trkpt lat="47.85613" lon="-1.07439">
        <ele>74.6</ele>
        <time>2020-12-20T09:42:13Z</time>
      </trkpt>
      <trkpt lat="47.8561" lon="-1.07441">
        <ele>74.7</ele>
        <time>2020-12-20T09:42:14Z</time>
      </trkpt>
      <trkpt lat="47.85606" lon="-1.07442">
        <ele>74.7</ele>
        <time>2020-12-20T09:42:15Z</time>
      </trkpt>
      <trkpt lat="47.85602" lon="-1.07443">
        <ele>74.8</ele>
        <time>2020-12-20T09:42:16Z</time>
      </trkpt>
      <trkpt lat="47.85598" lon="-1.07444">
        <ele>74.8</ele>
        <time>2020-12-20T09:42:17Z</time>
      </trkpt>
      <trkpt lat="47.85594" lon="-1.07445">
        <ele>74.9</ele>
        <time>2020-12-20T09:42:18Z</time>
      </trkpt>
      <trkpt lat="47.8559" lon="-1.07446">
        <ele>74.9</ele>
        <time>2020-12-20T09:42:19Z</time>
      </trkpt>
      <trkpt lat="47.85585" lon="-1.07447">
        <ele>75</ele>
        <time>2020-12-20T09:42:20Z</time>
      </trkpt>
      <trkpt lat="47.85581" lon="-1.07448">
        <ele>75.1</ele>
        <time>2020-12-20T09:42:21Z</time>
      </trkpt>
      <trkpt lat="47.85577" lon="-1.07449">
        <ele>75.2</ele>
        <time>2020-12-20T09:42:22Z</time>
      </trkpt>
      <trkpt lat="47.85573" lon="-1.0745">
        <ele>75.4</ele>
        <time>2020-12-20T09:42:23Z</time>
      </trkpt>
      <trkpt lat="47.85569" lon="-1.07451">
        <ele>75.5</ele>
        <time>2020-12-20T09:42:24Z</time>
      </trkpt>
      <trkpt lat="47.85565" lon="-1.07452">
        <ele>75.7</ele>
        <time>2020-12-20T09:42:25Z</time>
      </trkpt>
      <trkpt lat="47.8556" lon="-1.07453">
        <ele>75.8</ele>
        <time>2020-12-20T09:42:26Z</time>
      </trkpt>
      <trkpt lat="47.85556" lon="-1.07454">
        <ele>76</ele>
        <time>2020-12-20T09:42:27Z</time>
      </trkpt>
      <trkpt lat="47.85552" lon="-1.07455">
        <ele>76.1</ele>
        <time>2020-12-20T09:42:28Z</time>
      </trkpt>
      <trkpt lat="47.85548" lon="-1.07456">
        <ele>76.3</ele>
        <time>2020-12-20T09:42:29Z</time>
      </trkpt>
      <trkpt lat="47.85544" lon="-1.07457">
        <ele>76.4</ele>
        <time>2020-12-20T09:42:30Z</time>
      </trkpt>
      <trkpt lat="47.8554" lon="-1.07458">
        <ele>76.6</ele>
        <time>2020-12-20T09:42:31Z</time>
      </trkpt>
      <trkpt lat="47.85535" lon="-1.07459">
        <ele>76.7</ele>
        <time>2020-12-20T09:42:32Z</time>
      </trkpt>
      <trkpt lat="47.85531" lon="-1.0746">
        <ele>76.9</ele>
        <time>2020-12-20T09:42:33Z</time>
      </trkpt>
      <trkpt lat="47.85527" lon="-1.07462">
        <ele>77</ele>
        <time>2020-12-20T09:42:34Z</time>
      </trkpt>
      <trkpt lat="47.85523" lon="-1.07462">
        <ele>77.2</ele>
        <time>2020-12-20T09:42:35Z</time>
      </trkpt>
      <trkpt lat="47.85519" lon="-1.07463">
        <ele>77.3</ele>
        <time>2020-12-20T09:42:36Z</time>
      </trkpt>
      <trkpt lat="47.85514" lon="-1.07464">
        <ele>77.5</ele>
        <time>2020-12-20T09:42:37Z</time>
      </trkpt>
      <trkpt lat="47.8551" lon="-1.07465">
        <ele>77.6</ele>
        <time>2020-12-20T09:42:38Z</time>
      </trkpt>
      <trkpt lat="47.85506" lon="-1.07466">
        <ele>77.8</ele>
        <time>2020-12-20T09:42:39Z</time>
      </trkpt>
      <trkpt lat="47.85503" lon="-1.07467">
        <ele>77.9</ele>
        <time>2020-12-20T09:42:40Z</time>
      </trkpt>
      <trkpt lat="47.85499" lon="-1.07469">
        <ele>78</ele>
        <time>2020-12-20T09:42:41Z</time>
      </trkpt>
      <trkpt lat="47.85495" lon="-1.07469">
        <ele>77.9</ele>
        <time>2020-12-20T09:42:42Z</time>
      </trkpt>
      <trkpt lat="47.8549" lon="-1.0747">
        <ele>77.9</ele>
        <time>2020-12-20T09:42:43Z</time>
      </trkpt>
      <trkpt lat="47.85486" lon="-1.07471">
        <ele>77.8</ele>
        <time>2020-12-20T09:42:44Z</time>
      </trkpt>
      <trkpt lat="47.85482" lon="-1.07472">
        <ele>77.8</ele>
        <time>2020-12-20T09:42:45Z</time>
      </trkpt>
      <trkpt lat="47.85478" lon="-1.07473">
        <ele>77.7</ele>
        <time>2020-12-20T09:42:46Z</time>
      </trkpt>
      <trkpt lat="47.85474" lon="-1.07474">
        <ele>77.7</ele>
        <time>2020-12-20T09:42:47Z</time>
      </trkpt>
      <trkpt lat="47.85469" lon="-1.07475">
        <ele>77.6</ele>
        <time>2020-12-20T09:42:48Z</time>
      </trkpt>
      <trkpt lat="47.85465" lon="-1.07476">
        <ele>77.6</ele>
        <time>2020-12-20T09:42:49Z</time>
      </trkpt>
      <trkpt lat="47.85461" lon="-1.07477">
        <ele>77.5</ele>
        <time>2020-12-20T09:42:50Z</time>
      </trkpt>
      <trkpt lat="47.85457" lon="-1.07478">
        <ele>77.5</ele>
        <time>2020-12-20T09:42:51Z</time>
      </trkpt>
      <trkpt lat="47.85452" lon="-1.07479">
        <ele>77.4</ele>
        <time>2020-12-20T09:42:52Z</time>
      </trkpt>
      <trkpt lat="47.85448" lon="-1.0748">
        <ele>77.4</ele>
        <time>2020-12-20T09:42:53Z</time>
      </trkpt>
      <trkpt lat="47.85444" lon="-1.07481">
        <ele>77.3</ele>
        <time>2020-12-20T09:42:54Z</time>
      </trkpt>
      <trkpt lat="47.8544" lon="-1.07482">
        <ele>77.3</ele>
        <time>2020-12-20T09:42:55Z</time>
      </trkpt>
      <trkpt lat="47.85437" lon="-1.07483">
        <ele>77.2</ele>
        <time>2020-12-20T09:42:56Z</time>
      </trkpt>
      <trkpt lat="47.85434" lon="-1.07484">
        <ele>77.2</ele>
        <time>2020-12-20T09:42:57Z</time>
      </trkpt>
      <trkpt lat="47.8543" lon="-1.07485">
        <ele>77.2</ele>
        <time>2020-12-20T09:42:58Z</time>
      </trkpt>
      <trkpt lat="47.85427" lon="-1.07486">
        <ele>77.1</ele>
        <time>2020-12-20T09:42:59Z</time>
      </trkpt>
      <trkpt lat="47.85423" lon="-1.07488">
        <ele>77.1</ele>
        <time>2020-12-20T09:43:00Z</time>
      </trkpt>
      <trkpt lat="47.8542" lon="-1.0749">
        <ele>77</ele>
        <time>2020-12-20T09:43:01Z</time>
      </trkpt>
      <trkpt lat="47.85418" lon="-1.07493">
        <ele>77</ele>
        <time>2020-12-20T09:43:02Z</time>
      </trkpt>
      <trkpt lat="47.85416" lon="-1.07497">
        <ele>77</ele>
        <time>2020-12-20T09:43:03Z</time>
      </trkpt>
      <trkpt lat="47.85415" lon="-1.07503">
        <ele>77</ele>
        <time>2020-12-20T09:43:04Z</time>
      </trkpt>
      <trkpt lat="47.85416" lon="-1.0751">
        <ele>77</ele>
        <time>2020-12-20T09:43:05Z</time>
      </trkpt>
      <trkpt lat="47.85417" lon="-1.07517">
        <ele>77</ele>
        <time>2020-12-20T09:43:06Z</time>
      </trkpt>
      <trkpt lat="47.85419" lon="-1.07525">
        <ele>77</ele>
        <time>2020-12-20T09:43:07Z</time>
      </trkpt>
      <trkpt lat="47.85422" lon="-1.07533">
        <ele>77.1</ele>
        <time>2020-12-20T09:43:08Z</time>
      </trkpt>
      <trkpt lat="47.85424" lon="-1.07541">
        <ele>77.1</ele>
        <time>2020-12-20T09:43:09Z</time>
      </trkpt>
      <trkpt lat="47.85427" lon="-1.07548">
        <ele>77.1</ele>
        <time>2020-12-20T09:43:10Z</time>
      </trkpt>
      <trkpt lat="47.85429" lon="-1.07556">
        <ele>77.1</ele>
        <time>2020-12-20T09:43:11Z</time>
      </trkpt>
      <trkpt lat="47.85431" lon="-1.07564">
        <ele>77.2</ele>
        <time>2020-12-20T09:43:12Z</time>
      </trkpt>
      <trkpt lat="47.85433" lon="-1.07571">
        <ele>77.2</ele>
        <time>2020-12-20T09:43:13Z</time>
      </trkpt>
      <trkpt lat="47.85436" lon="-1.07578">
        <ele>77.2</ele>
        <time>2020-12-20T09:43:14Z</time>
      </trkpt>
      <trkpt lat="47.85438" lon="-1.07586">
        <ele>77.3</ele>
        <time>2020-12-20T09:43:15Z</time>
      </trkpt>
      <trkpt lat="47.8544" lon="-1.07594">
        <ele>77.4</ele>
        <time>2020-12-20T09:43:16Z</time>
      </trkpt>
      <trkpt lat="47.85442" lon="-1.07601">
        <ele>77.5</ele>
        <time>2020-12-20T09:43:17Z</time>
      </trkpt>
      <trkpt lat="47.85444" lon="-1.07609">
        <ele>77.5</ele>
        <time>2020-12-20T09:43:18Z</time>
      </trkpt>
      <trkpt lat="47.85446" lon="-1.07616">
        <ele>77.6</ele>
        <time>2020-12-20T09:43:19Z</time>
      </trkpt>
      <trkpt lat="47.85448" lon="-1.07624">
        <ele>77.7</ele>
        <time>2020-12-20T09:43:20Z</time>
      </trkpt>
      <trkpt lat="47.8545" lon="-1.07631">
        <ele>77.7</ele>
        <time>2020-12-20T09:43:21Z</time>
      </trkpt>
      <trkpt lat="47.85452" lon="-1.07638">
        <ele>77.8</ele>
        <time>2020-12-20T09:43:22Z</time>
      </trkpt>
      <trkpt lat="47.85454" lon="-1.07646">
        <ele>77.9</ele>
        <time>2020-12-20T09:43:23Z</time>
      </trkpt>
      <trkpt lat="47.85457" lon="-1.07653">
        <ele>77.9</ele>
        <time>2020-12-20T09:43:24Z</time>
      </trkpt>
      <trkpt lat="47.85459" lon="-1.0766">
        <ele>78</ele>
        <time>2020-12-20T09:43:25Z</time>
      </trkpt>
      <trkpt lat="47.8546" lon="-1.07667">
        <ele>78</ele>
        <time>2020-12-20T09:43:26Z</time>
      </trkpt>
      <trkpt lat="47.85462" lon="-1.07674">
        <ele>78</ele>
        <time>2020-12-20T09:43:27Z</time>
      </trkpt>
      <trkpt lat="47.85464" lon="-1.07681">
        <ele>78.1</ele>
        <time>2020-12-20T09:43:28Z</time>
      </trkpt>
      <trkpt lat="47.85466" lon="-1.07688">
        <ele>78.1</ele>
        <time>2020-12-20T09:43:29Z</time>
      </trkpt>
      <trkpt lat="47.85467" lon="-1.07695">
        <ele>78.1</ele>
        <time>2020-12-20T09:43:30Z</time>
      </trkpt>
      <trkpt lat="47.8547" lon="-1.07702">
        <ele>78.2</ele>
        <time>2020-12-20T09:43:31Z</time>
      </trkpt>
      <trkpt lat="47.85471" lon="-1.07708">
        <ele>78.2</ele>
        <time>2020-12-20T09:43:32Z</time>
      </trkpt>
      <trkpt lat="47.8547" lon="-1.07715">
        <ele>78.2</ele>
        <time>2020-12-20T09:43:33Z</time>
      </trkpt>
      <trkpt lat="47.85468" lon="-1.07721">
        <ele>78.3</ele>
        <time>2020-12-20T09:43:34Z</time>
      </trkpt>
      <trkpt lat="47.85465" lon="-1.07725">
        <ele>78.3</ele>
        <time>2020-12-20T09:43:35Z</time>
      </trkpt>
      <trkpt lat="47.85461" lon="-1.07729">
        <ele>78.4</ele>
        <time>2020-12-20T09:43:36Z</time>
      </trkpt>
      <trkpt lat="47.85456" lon="-1.07732">
        <ele>78.4</ele>
        <time>2020-12-20T09:43:37Z</time>
      </trkpt>
      <trkpt lat="47.85451" lon="-1.07735">
        <ele>78.5</ele>
        <time>2020-12-20T09:43:38Z</time>
      </trkpt>
      <trkpt lat="47.85446" lon="-1.07736">
        <ele>78.5</ele>
        <time>2020-12-20T09:43:39Z</time>
      </trkpt>
      <trkpt lat="47.8544" lon="-1.07738">
        <ele>78.6</ele>
        <time>2020-12-20T09:43:40Z</time>
      </trkpt>
      <trkpt lat="47.85435" lon="-1.07739">
        <ele>78.7</ele>
        <time>2020-12-20T09:43:41Z</time>
      </trkpt>
      <trkpt lat="47.85429" lon="-1.07741">
        <ele>78.8</ele>
        <time>2020-12-20T09:43:42Z</time>
      </trkpt>
      <trkpt lat="47.85423" lon="-1.07744">
        <ele>78.9</ele>
        <time>2020-12-20T09:43:43Z</time>
      </trkpt>
      <trkpt lat="47.85417" lon="-1.07746">
        <ele>78.9</ele>
        <time>2020-12-20T09:43:44Z</time>
      </trkpt>
      <trkpt lat="47.85412" lon="-1.07748">
        <ele>78.8</ele>
        <time>2020-12-20T09:43:45Z</time>
      </trkpt>
      <trkpt lat="47.85406" lon="-1.0775">
        <ele>78.5</ele>
        <time>2020-12-20T09:43:46Z</time>
      </trkpt>
      <trkpt lat="47.85401" lon="-1.07753">
        <ele>78.2</ele>
        <time>2020-12-20T09:43:47Z</time>
      </trkpt>
      <trkpt lat="47.85395" lon="-1.07754">
        <ele>77.9</ele>
        <time>2020-12-20T09:43:48Z</time>
      </trkpt>
      <trkpt lat="47.85389" lon="-1.07756">
        <ele>77.6</ele>
        <time>2020-12-20T09:43:49Z</time>
      </trkpt>
      <trkpt lat="47.85383" lon="-1.07759">
        <ele>77.3</ele>
        <time>2020-12-20T09:43:50Z</time>
      </trkpt>
      <trkpt lat="47.85378" lon="-1.07761">
        <ele>77</ele>
        <time>2020-12-20T09:43:51Z</time>
      </trkpt>
      <trkpt lat="47.85373" lon="-1.07763">
        <ele>76.7</ele>
        <time>2020-12-20T09:43:52Z</time>
      </trkpt>
      <trkpt lat="47.85367" lon="-1.07765">
        <ele>76.4</ele>
        <time>2020-12-20T09:43:53Z</time>
      </trkpt>
      <trkpt lat="47.85363" lon="-1.07767">
        <ele>76.2</ele>
        <time>2020-12-20T09:43:54Z</time>
      </trkpt>
      <trkpt lat="47.85358" lon="-1.07769">
        <ele>75.9</ele>
        <time>2020-12-20T09:43:55Z</time>
      </trkpt>
      <trkpt lat="47.85352" lon="-1.07772">
        <ele>75.5</ele>
        <time>2020-12-20T09:43:56Z</time>
      </trkpt>
      <trkpt lat="47.85346" lon="-1.07774">
        <ele>75.1</ele>
        <time>2020-12-20T09:43:57Z</time>
      </trkpt>
      <trkpt lat="47.8534" lon="-1.07777">
        <ele>74.7</ele>
        <time>2020-12-20T09:43:58Z</time>
      </trkpt>
      <trkpt lat="47.85334" lon="-1.0778">
        <ele>74.3</ele>
        <time>2020-12-20T09:43:59Z</time>
      </trkpt>
      <trkpt lat="47.85328" lon="-1.07782">
        <ele>74</ele>
        <time>2020-12-20T09:44:00Z</time>
      </trkpt>
      <trkpt lat="47.85322" lon="-1.07785">
        <ele>73.8</ele>
        <time>2020-12-20T09:44:01Z</time>
      </trkpt>
      <trkpt lat="47.85317" lon="-1.07787">
        <ele>73.6</ele>
        <time>2020-12-20T09:44:02Z</time>
      </trkpt>
      <trkpt lat="47.85311" lon="-1.0779">
        <ele>73.4</ele>
        <time>2020-12-20T09:44:03Z</time>
      </trkpt>
      <trkpt lat="47.85305" lon="-1.07792">
        <ele>73.1</ele>
        <time>2020-12-20T09:44:04Z</time>
      </trkpt>
      <trkpt lat="47.85299" lon="-1.07795">
        <ele>72.9</ele>
        <time>2020-12-20T09:44:05Z</time>
      </trkpt>
      <trkpt lat="47.85293" lon="-1.07797">
        <ele>72.8</ele>
        <time>2020-12-20T09:44:06Z</time>
      </trkpt>
      <trkpt lat="47.85287" lon="-1.078">
        <ele>72.6</ele>
        <time>2020-12-20T09:44:07Z</time>
      </trkpt>
      <trkpt lat="47.85282" lon="-1.07803">
        <ele>72.4</ele>
        <time>2020-12-20T09:44:08Z</time>
      </trkpt>
      <trkpt lat="47.85276" lon="-1.07806">
        <ele>72.3</ele>
        <time>2020-12-20T09:44:09Z</time>
      </trkpt>
      <trkpt lat="47.85271" lon="-1.07809">
        <ele>72.2</ele>
        <time>2020-12-20T09:44:10Z</time>
      </trkpt>
      <trkpt lat="47.85266" lon="-1.07811">
        <ele>72.1</ele>
        <time>2020-12-20T09:44:11Z</time>
      </trkpt>
      <trkpt lat="47.85261" lon="-1.07813">
        <ele>72</ele>
        <time>2020-12-20T09:44:12Z</time>
      </trkpt>
      <trkpt lat="47.85256" lon="-1.07816">
        <ele>71.9</ele>
        <time>2020-12-20T09:44:13Z</time>
      </trkpt>
      <trkpt lat="47.85252" lon="-1.07818">
        <ele>71.9</ele>
        <time>2020-12-20T09:44:14Z</time>
      </trkpt>
      <trkpt lat="47.85248" lon="-1.07821">
        <ele>71.9</ele>
        <time>2020-12-20T09:44:15Z</time>
      </trkpt>
      <trkpt lat="47.85244" lon="-1.07823">
        <ele>72</ele>
        <time>2020-12-20T09:44:16Z</time>
      </trkpt>
      <trkpt lat="47.85239" lon="-1.07825">
        <ele>72.2</ele>
        <time>2020-12-20T09:44:17Z</time>
      </trkpt>
      <trkpt lat="47.85234" lon="-1.07828">
        <ele>72.3</ele>
        <time>2020-12-20T09:44:18Z</time>
      </trkpt>
      <trkpt lat="47.85231" lon="-1.07829">
        <ele>72.4</ele>
        <time>2020-12-20T09:44:19Z</time>
      </trkpt>
      <trkpt lat="47.85227" lon="-1.07831">
        <ele>72.5</ele>
        <time>2020-12-20T09:44:20Z</time>
      </trkpt>
      <trkpt lat="47.85223" lon="-1.07833">
        <ele>72.6</ele>
        <time>2020-12-20T09:44:21Z</time>
      </trkpt>
      <trkpt lat="47.85219" lon="-1.07835">
        <ele>72.8</ele>
        <time>2020-12-20T09:44:22Z</time>
      </trkpt>
      <trkpt lat="47.85215" lon="-1.07837">
        <ele>72.9</ele>
        <time>2020-12-20T09:44:23Z</time>
      </trkpt>
      <trkpt lat="47.85212" lon="-1.07839">
        <ele>73</ele>
        <time>2020-12-20T09:44:24Z</time>
      </trkpt>
      <trkpt lat="47.85208" lon="-1.07841">
        <ele>73.1</ele>
        <time>2020-12-20T09:44:25Z</time>
      </trkpt>
      <trkpt lat="47.85203" lon="-1.07843">
        <ele>73.3</ele>
        <time>2020-12-20T09:44:26Z</time>
      </trkpt>
      <trkpt lat="47.852" lon="-1.07845">
        <ele>73.4</ele>
        <time>2020-12-20T09:44:27Z</time>
      </trkpt>
      <trkpt lat="47.85196" lon="-1.07846">
        <ele>73.5</ele>
        <time>2020-12-20T09:44:28Z</time>
      </trkpt>
      <trkpt lat="47.85193" lon="-1.07847">
        <ele>73.6</ele>
        <time>2020-12-20T09:44:29Z</time>
      </trkpt>
      <trkpt lat="47.85189" lon="-1.07848">
        <ele>73.8</ele>
        <time>2020-12-20T09:44:30Z</time>
      </trkpt>
      <trkpt lat="47.85186" lon="-1.07849">
        <ele>73.9</ele>
        <time>2020-12-20T09:44:31Z</time>
      </trkpt>
      <trkpt lat="47.85183" lon="-1.07851">
        <ele>74</ele>
        <time>2020-12-20T09:44:32Z</time>
      </trkpt>
      <trkpt lat="47.85179" lon="-1.07852">
        <ele>74.1</ele>
        <time>2020-12-20T09:44:33Z</time>
      </trkpt>
      <trkpt lat="47.85176" lon="-1.07853">
        <ele>74.2</ele>
        <time>2020-12-20T09:44:34Z</time>
      </trkpt>
      <trkpt lat="47.85174" lon="-1.07852">
        <ele>74.3</ele>
        <time>2020-12-20T09:44:35Z</time>
      </trkpt>
      <trkpt lat="47.85173" lon="-1.07851">
        <ele>74.3</ele>
        <time>2020-12-20T09:44:36Z</time>
      </trkpt>
      <trkpt lat="47.85172" lon="-1.07847">
        <ele>74.2</ele>
        <time>2020-12-20T09:44:37Z</time>
      </trkpt>
      <trkpt lat="47.85171" lon="-1.07843">
        <ele>74.1</ele>
        <time>2020-12-20T09:44:38Z</time>
      </trkpt>
      <trkpt lat="47.85171" lon="-1.07838">
        <ele>74</ele>
        <time>2020-12-20T09:44:39Z</time>
      </trkpt>
      <trkpt lat="47.85169" lon="-1.07833">
        <ele>73.9</ele>
        <time>2020-12-20T09:44:40Z</time>
      </trkpt>
      <trkpt lat="47.85168" lon="-1.07828">
        <ele>73.9</ele>
        <time>2020-12-20T09:44:41Z</time>
      </trkpt>
      <trkpt lat="47.85167" lon="-1.07822">
        <ele>73.9</ele>
        <time>2020-12-20T09:44:42Z</time>
      </trkpt>
      <trkpt lat="47.85165" lon="-1.07817">
        <ele>73.9</ele>
        <time>2020-12-20T09:44:43Z</time>
      </trkpt>
      <trkpt lat="47.85165" lon="-1.07811">
        <ele>73.8</ele>
        <time>2020-12-20T09:44:44Z</time>
      </trkpt>
      <trkpt lat="47.85164" lon="-1.07806">
        <ele>73.8</ele>
        <time>2020-12-20T09:44:45Z</time>
      </trkpt>
      <trkpt lat="47.85162" lon="-1.07801">
        <ele>73.9</ele>
        <time>2020-12-20T09:44:46Z</time>
      </trkpt>
      <trkpt lat="47.85161" lon="-1.07795">
        <ele>73.9</ele>
        <time>2020-12-20T09:44:47Z</time>
      </trkpt>
      <trkpt lat="47.8516" lon="-1.07789">
        <ele>73.9</ele>
        <time>2020-12-20T09:44:48Z</time>
      </trkpt>
      <trkpt lat="47.85159" lon="-1.07784">
        <ele>73.9</ele>
        <time>2020-12-20T09:44:49Z</time>
      </trkpt>
      <trkpt lat="47.85158" lon="-1.07778">
        <ele>73.9</ele>
        <time>2020-12-20T09:44:50Z</time>
      </trkpt>
      <trkpt lat="47.85157" lon="-1.07771">
        <ele>73.9</ele>
        <time>2020-12-20T09:44:51Z</time>
      </trkpt>
      <trkpt lat="47.85157" lon="-1.07765">
        <ele>73.9</ele>
        <time>2020-12-20T09:44:52Z</time>
      </trkpt>
      <trkpt lat="47.85156" lon="-1.07758">
        <ele>73.9</ele>
        <time>2020-12-20T09:44:53Z</time>
      </trkpt>
      <trkpt lat="47.85155" lon="-1.07751">
        <ele>73.9</ele>
        <time>2020-12-20T09:44:54Z</time>
      </trkpt>
      <trkpt lat="47.85152" lon="-1.07743">
        <ele>74</ele>
        <time>2020-12-20T09:44:55Z</time>
      </trkpt>
      <trkpt lat="47.85152" lon="-1.07736">
        <ele>74</ele>
        <time>2020-12-20T09:44:56Z</time>
      </trkpt>
      <trkpt lat="47.8515" lon="-1.07729">
        <ele>74.1</ele>
        <time>2020-12-20T09:44:57Z</time>
      </trkpt>
      <trkpt lat="47.85149" lon="-1.07722">
        <ele>74.1</ele>
        <time>2020-12-20T09:44:58Z</time>
      </trkpt>
      <trkpt lat="47.85148" lon="-1.07716">
        <ele>74.2</ele>
        <time>2020-12-20T09:44:59Z</time>
      </trkpt>
      <trkpt lat="47.85148" lon="-1.0771">
        <ele>74.1</ele>
        <time>2020-12-20T09:45:00Z</time>
      </trkpt>
      <trkpt lat="47.85148" lon="-1.07703">
        <ele>74.1</ele>
        <time>2020-12-20T09:45:01Z</time>
      </trkpt>
      <trkpt lat="47.85148" lon="-1.07696">
        <ele>74.1</ele>
        <time>2020-12-20T09:45:02Z</time>
      </trkpt>
      <trkpt lat="47.85147" lon="-1.07689">
        <ele>74.1</ele>
        <time>2020-12-20T09:45:03Z</time>
      </trkpt>
      <trkpt lat="47.85145" lon="-1.07683">
        <ele>74.1</ele>
        <time>2020-12-20T09:45:04Z</time>
      </trkpt>
      <trkpt lat="47.85144" lon="-1.07677">
        <ele>74.2</ele>
        <time>2020-12-20T09:45:05Z</time>
      </trkpt>
      <trkpt lat="47.85144" lon="-1.07671">
        <ele>74.1</ele>
        <time>2020-12-20T09:45:06Z</time>
      </trkpt>
      <trkpt lat="47.85143" lon="-1.07665">
        <ele>74.1</ele>
        <time>2020-12-20T09:45:07Z</time>
      </trkpt>
      <trkpt lat="47.85142" lon="-1.07659">
        <ele>74.1</ele>
        <time>2020-12-20T09:45:08Z</time>
      </trkpt>
      <trkpt lat="47.8514" lon="-1.07653">
        <ele>74.1</ele>
        <time>2020-12-20T09:45:09Z</time>
      </trkpt>
      <trkpt lat="47.85138" lon="-1.07648">
        <ele>74.2</ele>
        <time>2020-12-20T09:45:10Z</time>
      </trkpt>
      <trkpt lat="47.85136" lon="-1.07643">
        <ele>74.2</ele>
        <time>2020-12-20T09:45:11Z</time>
      </trkpt>
      <trkpt lat="47.85137" lon="-1.07637">
        <ele>74.1</ele>
        <time>2020-12-20T09:45:12Z</time>
      </trkpt>
      <trkpt lat="47.85136" lon="-1.07631">
        <ele>74</ele>
        <time>2020-12-20T09:45:13Z</time>
      </trkpt>
      <trkpt lat="47.85135" lon="-1.07626">
        <ele>74</ele>
        <time>2020-12-20T09:45:14Z</time>
      </trkpt>
      <trkpt lat="47.85133" lon="-1.0762">
        <ele>74.1</ele>
        <time>2020-12-20T09:45:15Z</time>
      </trkpt>
      <trkpt lat="47.85132" lon="-1.07614">
        <ele>74</ele>
        <time>2020-12-20T09:45:16Z</time>
      </trkpt>
      <trkpt lat="47.85131" lon="-1.07608">
        <ele>74</ele>
        <time>2020-12-20T09:45:17Z</time>
      </trkpt>
      <trkpt lat="47.8513" lon="-1.07602">
        <ele>74</ele>
        <time>2020-12-20T09:45:18Z</time>
      </trkpt>
      <trkpt lat="47.8513" lon="-1.07597">
        <ele>73.9</ele>
        <time>2020-12-20T09:45:19Z</time>
      </trkpt>
      <trkpt lat="47.85129" lon="-1.07592">
        <ele>73.9</ele>
        <time>2020-12-20T09:45:20Z</time>
      </trkpt>
      <trkpt lat="47.85128" lon="-1.07587">
        <ele>73.9</ele>
        <time>2020-12-20T09:45:21Z</time>
      </trkpt>
      <trkpt lat="47.85127" lon="-1.07581">
        <ele>73.9</ele>
        <time>2020-12-20T09:45:22Z</time>
      </trkpt>
      <trkpt lat="47.85126" lon="-1.07576">
        <ele>74</ele>
        <time>2020-12-20T09:45:23Z</time>
      </trkpt>
      <trkpt lat="47.85125" lon="-1.07571">
        <ele>74</ele>
        <time>2020-12-20T09:45:24Z</time>
      </trkpt>
      <trkpt lat="47.85125" lon="-1.07565">
        <ele>74</ele>
        <time>2020-12-20T09:45:25Z</time>
      </trkpt>
      <trkpt lat="47.85124" lon="-1.07561">
        <ele>74</ele>
        <time>2020-12-20T09:45:26Z</time>
      </trkpt>
      <trkpt lat="47.85123" lon="-1.07556">
        <ele>74.1</ele>
        <time>2020-12-20T09:45:27Z</time>
      </trkpt>
      <trkpt lat="47.85122" lon="-1.07552">
        <ele>74.1</ele>
        <time>2020-12-20T09:45:28Z</time>
      </trkpt>
      <trkpt lat="47.85121" lon="-1.07548">
        <ele>74.2</ele>
        <time>2020-12-20T09:45:29Z</time>
      </trkpt>
      <trkpt lat="47.8512" lon="-1.07545">
        <ele>74.2</ele>
        <time>2020-12-20T09:45:30Z</time>
      </trkpt>
      <trkpt lat="47.85119" lon="-1.07542">
        <ele>74.2</ele>
        <time>2020-12-20T09:45:31Z</time>
      </trkpt>
      <trkpt lat="47.85118" lon="-1.07538">
        <ele>74.2</ele>
        <time>2020-12-20T09:45:32Z</time>
      </trkpt>
      <trkpt lat="47.85117" lon="-1.07534">
        <ele>74.3</ele>
        <time>2020-12-20T09:45:33Z</time>
      </trkpt>
      <trkpt lat="47.85117" lon="-1.0753">
        <ele>74.3</ele>
        <time>2020-12-20T09:45:34Z</time>
      </trkpt>
      <trkpt lat="47.85116" lon="-1.07526">
        <ele>74.3</ele>
        <time>2020-12-20T09:45:35Z</time>
      </trkpt>
      <trkpt lat="47.85115" lon="-1.07522">
        <ele>74.3</ele>
        <time>2020-12-20T09:45:36Z</time>
      </trkpt>
      <trkpt lat="47.85114" lon="-1.07518">
        <ele>74.3</ele>
        <time>2020-12-20T09:45:37Z</time>
      </trkpt>
      <trkpt lat="47.85114" lon="-1.07514">
        <ele>74.3</ele>
        <time>2020-12-20T09:45:38Z</time>
      </trkpt>
      <trkpt lat="47.85113" lon="-1.0751">
        <ele>74.3</ele>
        <time>2020-12-20T09:45:39Z</time>
      </trkpt>
      <trkpt lat="47.85112" lon="-1.07506">
        <ele>74.3</ele>
        <time>2020-12-20T09:45:40Z</time>
      </trkpt>
      <trkpt lat="47.85112" lon="-1.07502">
        <ele>74.3</ele>
        <time>2020-12-20T09:45:41Z</time>
      </trkpt>
      <trkpt lat="47.85111" lon="-1.07498">
        <ele>74.3</ele>
        <time>2020-12-20T09:45:42Z</time>
      </trkpt>
      <trkpt lat="47.8511" lon="-1.07493">
        <ele>74.3</ele>
        <time>2020-12-20T09:45:43Z</time>
      </trkpt>
      <trkpt lat="47.85109" lon="-1.07488">
        <ele>74.3</ele>
        <time>2020-12-20T09:45:44Z</time>
      </trkpt>
      <trkpt lat="47.85108" lon="-1.07483">
        <ele>74.3</ele>
        <time>2020-12-20T09:45:45Z</time>
      </trkpt>
      <trkpt lat="47.85107" lon="-1.07478">
        <ele>74.4</ele>
        <time>2020-12-20T09:45:46Z</time>
      </trkpt>
      <trkpt lat="47.85106" lon="-1.07473">
        <ele>74.4</ele>
        <time>2020-12-20T09:45:47Z</time>
      </trkpt>
      <trkpt lat="47.85105" lon="-1.07468">
        <ele>74.4</ele>
        <time>2020-12-20T09:45:48Z</time>
      </trkpt>
      <trkpt lat="47.85105" lon="-1.07464">
        <ele>74.4</ele>
        <time>2020-12-20T09:45:49Z</time>
      </trkpt>
      <trkpt lat="47.85104" lon="-1.0746">
        <ele>74.4</ele>
        <time>2020-12-20T09:45:50Z</time>
      </trkpt>
      <trkpt lat="47.85103" lon="-1.07456">
        <ele>74.4</ele>
        <time>2020-12-20T09:45:51Z</time>
      </trkpt>
      <trkpt lat="47.85102" lon="-1.07452">
        <ele>74.4</ele>
        <time>2020-12-20T09:45:52Z</time>
      </trkpt>
      <trkpt lat="47.85102" lon="-1.07448">
        <ele>74.4</ele>
        <time>2020-12-20T09:45:53Z</time>
      </trkpt>
      <trkpt lat="47.85101" lon="-1.07444">
        <ele>74.4</ele>
        <time>2020-12-20T09:45:54Z</time>
      </trkpt>
      <trkpt lat="47.851" lon="-1.07441">
        <ele>74.5</ele>
        <time>2020-12-20T09:45:55Z</time>
      </trkpt>
      <trkpt lat="47.85099" lon="-1.07437">
        <ele>74.5</ele>
        <time>2020-12-20T09:45:56Z</time>
      </trkpt>
      <trkpt lat="47.85098" lon="-1.07435">
        <ele>74.5</ele>
        <time>2020-12-20T09:45:57Z</time>
      </trkpt>
      <trkpt lat="47.85096" lon="-1.07432">
        <ele>74.6</ele>
        <time>2020-12-20T09:45:58Z</time>
      </trkpt>
      <trkpt lat="47.85094" lon="-1.07431">
        <ele>74.6</ele>
        <time>2020-12-20T09:45:59Z</time>
      </trkpt>
      <trkpt lat="47.85092" lon="-1.0743">
        <ele>74.7</ele>
        <time>2020-12-20T09:46:00Z</time>
      </trkpt>
      <trkpt lat="47.85089" lon="-1.07429">
        <ele>74.8</ele>
        <time>2020-12-20T09:46:01Z</time>
      </trkpt>
      <trkpt lat="47.85087" lon="-1.07429">
        <ele>74.9</ele>
        <time>2020-12-20T09:46:02Z</time>
      </trkpt>
      <trkpt lat="47.85085" lon="-1.07429">
        <ele>74.9</ele>
        <time>2020-12-20T09:46:03Z</time>
      </trkpt>
      <trkpt lat="47.85083" lon="-1.07429">
        <ele>75</ele>
        <time>2020-12-20T09:46:04Z</time>
      </trkpt>
      <trkpt lat="47.85081" lon="-1.0743">
        <ele>75</ele>
        <time>2020-12-20T09:46:05Z</time>
      </trkpt>
      <trkpt lat="47.85079" lon="-1.0743">
        <ele>75.1</ele>
        <time>2020-12-20T09:46:06Z</time>
      </trkpt>
      <trkpt lat="47.85077" lon="-1.0743">
        <ele>75.1</ele>
        <time>2020-12-20T09:46:07Z</time>
      </trkpt>
      <trkpt lat="47.85076" lon="-1.07431">
        <ele>75.1</ele>
        <time>2020-12-20T09:46:08Z</time>
      </trkpt>
      <trkpt lat="47.85074" lon="-1.07431">
        <ele>75.1</ele>
        <time>2020-12-20T09:46:09Z</time>
      </trkpt>
      <trkpt lat="47.85072" lon="-1.07431">
        <ele>75.1</ele>
        <time>2020-12-20T09:46:10Z</time>
      </trkpt>
      <trkpt lat="47.8507" lon="-1.07431">
        <ele>75.2</ele>
        <time>2020-12-20T09:46:11Z</time>
      </trkpt>
      <trkpt lat="47.85068" lon="-1.07431">
        <ele>75.2</ele>
        <time>2020-12-20T09:46:12Z</time>
      </trkpt>
      <trkpt lat="47.85066" lon="-1.07431">
        <ele>75.2</ele>
        <time>2020-12-20T09:46:13Z</time>
      </trkpt>
      <trkpt lat="47.85063" lon="-1.07431">
        <ele>75.2</ele>
        <time>2020-12-20T09:46:14Z</time>
      </trkpt>
      <trkpt lat="47.85061" lon="-1.07431">
        <ele>75.3</ele>
        <time>2020-12-20T09:46:15Z</time>
      </trkpt>
      <trkpt lat="47.85058" lon="-1.07431">
        <ele>75.3</ele>
        <time>2020-12-20T09:46:16Z</time>
      </trkpt>
      <trkpt lat="47.85056" lon="-1.07432">
        <ele>75.3</ele>
        <time>2020-12-20T09:46:17Z</time>
      </trkpt>
      <trkpt lat="47.85053" lon="-1.07432">
        <ele>75.4</ele>
        <time>2020-12-20T09:46:18Z</time>
      </trkpt>
      <trkpt lat="47.8505" lon="-1.07432">
        <ele>75.4</ele>
        <time>2020-12-20T09:46:19Z</time>
      </trkpt>
      <trkpt lat="47.85047" lon="-1.07432">
        <ele>75.4</ele>
        <time>2020-12-20T09:46:20Z</time>
      </trkpt>
      <trkpt lat="47.85045" lon="-1.07433">
        <ele>75.5</ele>
        <time>2020-12-20T09:46:21Z</time>
      </trkpt>
      <trkpt lat="47.85042" lon="-1.07433">
        <ele>75.5</ele>
        <time>2020-12-20T09:46:22Z</time>
      </trkpt>
      <trkpt lat="47.85039" lon="-1.07433">
        <ele>75.5</ele>
        <time>2020-12-20T09:46:23Z</time>
      </trkpt>
      <trkpt lat="47.85037" lon="-1.07434">
        <ele>75.6</ele>
        <time>2020-12-20T09:46:24Z</time>
      </trkpt>
      <trkpt lat="47.85035" lon="-1.07434">
        <ele>75.6</ele>
        <time>2020-12-20T09:46:25Z</time>
      </trkpt>
      <trkpt lat="47.85032" lon="-1.07434">
        <ele>75.6</ele>
        <time>2020-12-20T09:46:26Z</time>
      </trkpt>
      <trkpt lat="47.85029" lon="-1.07434">
        <ele>75.7</ele>
        <time>2020-12-20T09:46:27Z</time>
      </trkpt>
      <trkpt lat="47.85026" lon="-1.07434">
        <ele>75.7</ele>
        <time>2020-12-20T09:46:28Z</time>
      </trkpt>
      <trkpt lat="47.85024" lon="-1.07433">
        <ele>75.7</ele>
        <time>2020-12-20T09:46:29Z</time>
      </trkpt>
      <trkpt lat="47.85022" lon="-1.07431">
        <ele>75.7</ele>
        <time>2020-12-20T09:46:30Z</time>
      </trkpt>
      <trkpt lat="47.85021" lon="-1.07428">
        <ele>75.7</ele>
        <time>2020-12-20T09:46:31Z</time>
      </trkpt>
      <trkpt lat="47.8502" lon="-1.07425">
        <ele>75.8</ele>
        <time>2020-12-20T09:46:32Z</time>
      </trkpt>
      <trkpt lat="47.85019" lon="-1.07421">
        <ele>75.8</ele>
        <time>2020-12-20T09:46:33Z</time>
      </trkpt>
      <trkpt lat="47.85019" lon="-1.07418">
        <ele>75.8</ele>
        <time>2020-12-20T09:46:34Z</time>
      </trkpt>
      <trkpt lat="47.85019" lon="-1.07414">
        <ele>75.8</ele>
        <time>2020-12-20T09:46:35Z</time>
      </trkpt>
      <trkpt lat="47.85018" lon="-1.0741">
        <ele>75.8</ele>
        <time>2020-12-20T09:46:36Z</time>
      </trkpt>
      <trkpt lat="47.85018" lon="-1.07407">
        <ele>75.8</ele>
        <time>2020-12-20T09:46:37Z</time>
      </trkpt>
      <trkpt lat="47.85017" lon="-1.07402">
        <ele>75.8</ele>
        <time>2020-12-20T09:46:38Z</time>
      </trkpt>
      <trkpt lat="47.85017" lon="-1.07398">
        <ele>75.8</ele>
        <time>2020-12-20T09:46:39Z</time>
      </trkpt>
      <trkpt lat="47.85016" lon="-1.07394">
        <ele>75.8</ele>
        <time>2020-12-20T09:46:40Z</time>
      </trkpt>
      <trkpt lat="47.85015" lon="-1.0739">
        <ele>75.8</ele>
        <time>2020-12-20T09:46:41Z</time>
      </trkpt>
      <trkpt lat="47.85014" lon="-1.07387">
        <ele>75.8</ele>
        <time>2020-12-20T09:46:42Z</time>
      </trkpt>
      <trkpt lat="47.85014" lon="-1.07383">
        <ele>75.8</ele>
        <time>2020-12-20T09:46:43Z</time>
      </trkpt>
      <trkpt lat="47.85013" lon="-1.07379">
        <ele>75.8</ele>
        <time>2020-12-20T09:46:44Z</time>
      </trkpt>
      <trkpt lat="47.85012" lon="-1.07376">
        <ele>75.9</ele>
        <time>2020-12-20T09:46:45Z</time>
      </trkpt>
      <trkpt lat="47.85011" lon="-1.07372">
        <ele>75.9</ele>
        <time>2020-12-20T09:46:46Z</time>
      </trkpt>
      <trkpt lat="47.8501" lon="-1.07368">
        <ele>75.9</ele>
        <time>2020-12-20T09:46:47Z</time>
      </trkpt>
      <trkpt lat="47.85009" lon="-1.07363">
        <ele>75.9</ele>
        <time>2020-12-20T09:46:48Z</time>
      </trkpt>
      <trkpt lat="47.85008" lon="-1.07358">
        <ele>75.9</ele>
        <time>2020-12-20T09:46:49Z</time>
      </trkpt>
      <trkpt lat="47.85007" lon="-1.07353">
        <ele>75.9</ele>
        <time>2020-12-20T09:46:50Z</time>
      </trkpt>
      <trkpt lat="47.85007" lon="-1.07348">
        <ele>75.9</ele>
        <time>2020-12-20T09:46:51Z</time>
      </trkpt>
      <trkpt lat="47.85006" lon="-1.07343">
        <ele>75.9</ele>
        <time>2020-12-20T09:46:52Z</time>
      </trkpt>
      <trkpt lat="47.85006" lon="-1.07338">
        <ele>75.9</ele>
        <time>2020-12-20T09:46:53Z</time>
      </trkpt>
      <trkpt lat="47.85005" lon="-1.07333">
        <ele>75.9</ele>
        <time>2020-12-20T09:46:54Z</time>
      </trkpt>
      <trkpt lat="47.85004" lon="-1.07329">
        <ele>75.9</ele>
        <time>2020-12-20T09:46:55Z</time>
      </trkpt>
      <trkpt lat="47.85003" lon="-1.07325">
        <ele>75.9</ele>
        <time>2020-12-20T09:46:56Z</time>
      </trkpt>
      <trkpt lat="47.85001" lon="-1.07322">
        <ele>75.9</ele>
        <time>2020-12-20T09:46:57Z</time>
      </trkpt>
      <trkpt lat="47.84999" lon="-1.07318">
        <ele>75.9</ele>
        <time>2020-12-20T09:46:58Z</time>
      </trkpt>
      <trkpt lat="47.84997" lon="-1.07316">
        <ele>75.9</ele>
        <time>2020-12-20T09:46:59Z</time>
      </trkpt>
      <trkpt lat="47.84995" lon="-1.07314">
        <ele>76</ele>
        <time>2020-12-20T09:47:00Z</time>
      </trkpt>
      <trkpt lat="47.84993" lon="-1.07314">
        <ele>76.1</ele>
        <time>2020-12-20T09:47:01Z</time>
      </trkpt>
      <trkpt lat="47.8499" lon="-1.07314">
        <ele>76.2</ele>
        <time>2020-12-20T09:47:02Z</time>
      </trkpt>
      <trkpt lat="47.84988" lon="-1.07314">
        <ele>76.3</ele>
        <time>2020-12-20T09:47:03Z</time>
      </trkpt>
      <trkpt lat="47.84985" lon="-1.07315">
        <ele>76.4</ele>
        <time>2020-12-20T09:47:04Z</time>
      </trkpt>
      <trkpt lat="47.84982" lon="-1.07316">
        <ele>76.6</ele>
        <time>2020-12-20T09:47:05Z</time>
      </trkpt>
      <trkpt lat="47.8498" lon="-1.07317">
        <ele>76.7</ele>
        <time>2020-12-20T09:47:06Z</time>
      </trkpt>
      <trkpt lat="47.84977" lon="-1.07317">
        <ele>76.8</ele>
        <time>2020-12-20T09:47:07Z</time>
      </trkpt>
      <trkpt lat="47.84974" lon="-1.07318">
        <ele>76.9</ele>
        <time>2020-12-20T09:47:08Z</time>
      </trkpt>
      <trkpt lat="47.84972" lon="-1.07318">
        <ele>77</ele>
        <time>2020-12-20T09:47:09Z</time>
      </trkpt>
      <trkpt lat="47.84969" lon="-1.07319">
        <ele>77.2</ele>
        <time>2020-12-20T09:47:10Z</time>
      </trkpt>
      <trkpt lat="47.84966" lon="-1.0732">
        <ele>77.3</ele>
        <time>2020-12-20T09:47:11Z</time>
      </trkpt>
      <trkpt lat="47.84963" lon="-1.07322">
        <ele>77.5</ele>
        <time>2020-12-20T09:47:12Z</time>
      </trkpt>
      <trkpt lat="47.84961" lon="-1.07323">
        <ele>77.6</ele>
        <time>2020-12-20T09:47:13Z</time>
      </trkpt>
      <trkpt lat="47.84958" lon="-1.07324">
        <ele>77.8</ele>
        <time>2020-12-20T09:47:14Z</time>
      </trkpt>
      <trkpt lat="47.84956" lon="-1.07325">
        <ele>77.9</ele>
        <time>2020-12-20T09:47:15Z</time>
      </trkpt>
      <trkpt lat="47.84954" lon="-1.07326">
        <ele>78</ele>
        <time>2020-12-20T09:47:16Z</time>
      </trkpt>
      <trkpt lat="47.84951" lon="-1.07327">
        <ele>78.2</ele>
        <time>2020-12-20T09:47:17Z</time>
      </trkpt>
      <trkpt lat="47.84949" lon="-1.07328">
        <ele>78.3</ele>
        <time>2020-12-20T09:47:18Z</time>
      </trkpt>
      <trkpt lat="47.84947" lon="-1.07329">
        <ele>78.4</ele>
        <time>2020-12-20T09:47:19Z</time>
      </trkpt>
      <trkpt lat="47.84944" lon="-1.0733">
        <ele>78.6</ele>
        <time>2020-12-20T09:47:20Z</time>
      </trkpt>
      <trkpt lat="47.84942" lon="-1.07331">
        <ele>78.7</ele>
        <time>2020-12-20T09:47:21Z</time>
      </trkpt>
      <trkpt lat="47.84939" lon="-1.07332">
        <ele>78.9</ele>
        <time>2020-12-20T09:47:22Z</time>
      </trkpt>
      <trkpt lat="47.84937" lon="-1.07332">
        <ele>79</ele>
        <time>2020-12-20T09:47:23Z</time>
      </trkpt>
      <trkpt lat="47.84934" lon="-1.07333">
        <ele>79.2</ele>
        <time>2020-12-20T09:47:24Z</time>
      </trkpt>
      <trkpt lat="47.84932" lon="-1.07334">
        <ele>79.3</ele>
        <time>2020-12-20T09:47:25Z</time>
      </trkpt>
      <trkpt lat="47.8493" lon="-1.07335">
        <ele>79.3</ele>
        <time>2020-12-20T09:47:26Z</time>
      </trkpt>
      <trkpt lat="47.84927" lon="-1.07336">
        <ele>79.5</ele>
        <time>2020-12-20T09:47:27Z</time>
      </trkpt>
      <trkpt lat="47.84925" lon="-1.07337">
        <ele>79.6</ele>
        <time>2020-12-20T09:47:28Z</time>
      </trkpt>
      <trkpt lat="47.84923" lon="-1.07337">
        <ele>79.7</ele>
        <time>2020-12-20T09:47:29Z</time>
      </trkpt>
      <trkpt lat="47.8492" lon="-1.07338">
        <ele>79.8</ele>
        <time>2020-12-20T09:47:30Z</time>
      </trkpt>
      <trkpt lat="47.84918" lon="-1.07339">
        <ele>79.9</ele>
        <time>2020-12-20T09:47:31Z</time>
      </trkpt>
      <trkpt lat="47.84916" lon="-1.07339">
        <ele>79.9</ele>
        <time>2020-12-20T09:47:32Z</time>
      </trkpt>
      <trkpt lat="47.84913" lon="-1.0734">
        <ele>80</ele>
        <time>2020-12-20T09:47:33Z</time>
      </trkpt>
      <trkpt lat="47.84911" lon="-1.07341">
        <ele>80</ele>
        <time>2020-12-20T09:47:34Z</time>
      </trkpt>
      <trkpt lat="47.84908" lon="-1.07341">
        <ele>80</ele>
        <time>2020-12-20T09:47:35Z</time>
      </trkpt>
      <trkpt lat="47.84906" lon="-1.07342">
        <ele>80.1</ele>
        <time>2020-12-20T09:47:36Z</time>
      </trkpt>
      <trkpt lat="47.84904" lon="-1.07343">
        <ele>80.1</ele>
        <time>2020-12-20T09:47:37Z</time>
      </trkpt>
      <trkpt lat="47.84901" lon="-1.07344">
        <ele>80.1</ele>
        <time>2020-12-20T09:47:38Z</time>
      </trkpt>
      <trkpt lat="47.84899" lon="-1.07345">
        <ele>80.1</ele>
        <time>2020-12-20T09:47:39Z</time>
      </trkpt>
      <trkpt lat="47.84896" lon="-1.07345">
        <ele>80.2</ele>
        <time>2020-12-20T09:47:40Z</time>
      </trkpt>
      <trkpt lat="47.84894" lon="-1.07346">
        <ele>80.2</ele>
        <time>2020-12-20T09:47:41Z</time>
      </trkpt>
      <trkpt lat="47.84892" lon="-1.07346">
        <ele>80.2</ele>
        <time>2020-12-20T09:47:42Z</time>
      </trkpt>
      <trkpt lat="47.8489" lon="-1.07347">
        <ele>80.3</ele>
        <time>2020-12-20T09:47:43Z</time>
      </trkpt>
      <trkpt lat="47.84888" lon="-1.07348">
        <ele>80.3</ele>
        <time>2020-12-20T09:47:44Z</time>
      </trkpt>
      <trkpt lat="47.84886" lon="-1.07348">
        <ele>80.3</ele>
        <time>2020-12-20T09:47:45Z</time>
      </trkpt>
      <trkpt lat="47.84884" lon="-1.07349">
        <ele>80.4</ele>
        <time>2020-12-20T09:47:46Z</time>
      </trkpt>
      <trkpt lat="47.84883" lon="-1.0735">
        <ele>80.4</ele>
        <time>2020-12-20T09:47:47Z</time>
      </trkpt>
      <trkpt lat="47.84881" lon="-1.07351">
        <ele>80.4</ele>
        <time>2020-12-20T09:47:48Z</time>
      </trkpt>
      <trkpt lat="47.84879" lon="-1.07351">
        <ele>80.4</ele>
        <time>2020-12-20T09:47:49Z</time>
      </trkpt>
      <trkpt lat="47.84877" lon="-1.07352">
        <ele>80.5</ele>
        <time>2020-12-20T09:47:50Z</time>
      </trkpt>
      <trkpt lat="47.84875" lon="-1.07353">
        <ele>80.5</ele>
        <time>2020-12-20T09:47:51Z</time>
      </trkpt>
      <trkpt lat="47.84873" lon="-1.07353">
        <ele>80.5</ele>
        <time>2020-12-20T09:47:52Z</time>
      </trkpt>
      <trkpt lat="47.84871" lon="-1.07354">
        <ele>80.6</ele>
        <time>2020-12-20T09:47:53Z</time>
      </trkpt>
      <trkpt lat="47.84869" lon="-1.07355">
        <ele>80.6</ele>
        <time>2020-12-20T09:47:54Z</time>
      </trkpt>
      <trkpt lat="47.84866" lon="-1.07356">
        <ele>80.7</ele>
        <time>2020-12-20T09:47:55Z</time>
      </trkpt>
      <trkpt lat="47.84864" lon="-1.07356">
        <ele>80.7</ele>
        <time>2020-12-20T09:47:56Z</time>
      </trkpt>
      <trkpt lat="47.84862" lon="-1.07357">
        <ele>80.7</ele>
        <time>2020-12-20T09:47:57Z</time>
      </trkpt>
      <trkpt lat="47.8486" lon="-1.07358">
        <ele>80.8</ele>
        <time>2020-12-20T09:47:58Z</time>
      </trkpt>
      <trkpt lat="47.84858" lon="-1.07358">
        <ele>80.8</ele>
        <time>2020-12-20T09:47:59Z</time>
      </trkpt>
      <trkpt lat="47.84856" lon="-1.07359">
        <ele>80.9</ele>
        <time>2020-12-20T09:48:00Z</time>
      </trkpt>
      <trkpt lat="47.84854" lon="-1.07359">
        <ele>80.9</ele>
        <time>2020-12-20T09:48:01Z</time>
      </trkpt>
      <trkpt lat="47.84852" lon="-1.0736">
        <ele>81</ele>
        <time>2020-12-20T09:48:02Z</time>
      </trkpt>
      <trkpt lat="47.8485" lon="-1.07361">
        <ele>81</ele>
        <time>2020-12-20T09:48:03Z</time>
      </trkpt>
      <trkpt lat="47.84848" lon="-1.07361">
        <ele>81</ele>
        <time>2020-12-20T09:48:04Z</time>
      </trkpt>
      <trkpt lat="47.84846" lon="-1.07362">
        <ele>81.1</ele>
        <time>2020-12-20T09:48:05Z</time>
      </trkpt>
      <trkpt lat="47.84844" lon="-1.07362">
        <ele>81.1</ele>
        <time>2020-12-20T09:48:06Z</time>
      </trkpt>
      <trkpt lat="47.84843" lon="-1.07363">
        <ele>81.2</ele>
        <time>2020-12-20T09:48:07Z</time>
      </trkpt>
      <trkpt lat="47.8484" lon="-1.07364">
        <ele>81.2</ele>
        <time>2020-12-20T09:48:08Z</time>
      </trkpt>
      <trkpt lat="47.84838" lon="-1.07365">
        <ele>81.3</ele>
        <time>2020-12-20T09:48:09Z</time>
      </trkpt>
      <trkpt lat="47.84836" lon="-1.07365">
        <ele>81.3</ele>
        <time>2020-12-20T09:48:10Z</time>
      </trkpt>
      <trkpt lat="47.84833" lon="-1.07366">
        <ele>81.4</ele>
        <time>2020-12-20T09:48:11Z</time>
      </trkpt>
      <trkpt lat="47.84831" lon="-1.07367">
        <ele>81.5</ele>
        <time>2020-12-20T09:48:12Z</time>
      </trkpt>
      <trkpt lat="47.84829" lon="-1.07368">
        <ele>81.6</ele>
        <time>2020-12-20T09:48:13Z</time>
      </trkpt>
      <trkpt lat="47.84827" lon="-1.07369">
        <ele>81.7</ele>
        <time>2020-12-20T09:48:14Z</time>
      </trkpt>
      <trkpt lat="47.84825" lon="-1.07369">
        <ele>81.8</ele>
        <time>2020-12-20T09:48:15Z</time>
      </trkpt>
      <trkpt lat="47.84823" lon="-1.0737">
        <ele>81.9</ele>
        <time>2020-12-20T09:48:16Z</time>
      </trkpt>
      <trkpt lat="47.84821" lon="-1.0737">
        <ele>81.9</ele>
        <time>2020-12-20T09:48:17Z</time>
      </trkpt>
      <trkpt lat="47.84819" lon="-1.07371">
        <ele>82</ele>
        <time>2020-12-20T09:48:18Z</time>
      </trkpt>
      <trkpt lat="47.84817" lon="-1.07372">
        <ele>82.1</ele>
        <time>2020-12-20T09:48:19Z</time>
      </trkpt>
      <trkpt lat="47.84815" lon="-1.07372">
        <ele>82.2</ele>
        <time>2020-12-20T09:48:20Z</time>
      </trkpt>
      <trkpt lat="47.84813" lon="-1.07373">
        <ele>82.3</ele>
        <time>2020-12-20T09:48:21Z</time>
      </trkpt>
      <trkpt lat="47.84811" lon="-1.07374">
        <ele>82.4</ele>
        <time>2020-12-20T09:48:22Z</time>
      </trkpt>
      <trkpt lat="47.8481" lon="-1.07374">
        <ele>82.5</ele>
        <time>2020-12-20T09:48:23Z</time>
      </trkpt>
      <trkpt lat="47.84808" lon="-1.07374">
        <ele>82.5</ele>
        <time>2020-12-20T09:48:24Z</time>
      </trkpt>
      <trkpt lat="47.84807" lon="-1.07375">
        <ele>82.6</ele>
        <time>2020-12-20T09:48:25Z</time>
      </trkpt>
      <trkpt lat="47.84805" lon="-1.07376">
        <ele>82.7</ele>
        <time>2020-12-20T09:48:26Z</time>
      </trkpt>
      <trkpt lat="47.84803" lon="-1.07376">
        <ele>82.8</ele>
        <time>2020-12-20T09:48:27Z</time>
      </trkpt>
      <trkpt lat="47.84802" lon="-1.07377">
        <ele>82.8</ele>
        <time>2020-12-20T09:48:28Z</time>
      </trkpt>
      <trkpt lat="47.848" lon="-1.07377">
        <ele>82.9</ele>
        <time>2020-12-20T09:48:29Z</time>
      </trkpt>
      <trkpt lat="47.84798" lon="-1.07378">
        <ele>83</ele>
        <time>2020-12-20T09:48:30Z</time>
      </trkpt>
      <trkpt lat="47.84796" lon="-1.07379">
        <ele>83.1</ele>
        <time>2020-12-20T09:48:31Z</time>
      </trkpt>
      <trkpt lat="47.84794" lon="-1.07379">
        <ele>83.2</ele>
        <time>2020-12-20T09:48:32Z</time>
      </trkpt>
      <trkpt lat="47.84792" lon="-1.0738">
        <ele>83.3</ele>
        <time>2020-12-20T09:48:33Z</time>
      </trkpt>
      <trkpt lat="47.8479" lon="-1.07381">
        <ele>83.4</ele>
        <time>2020-12-20T09:48:34Z</time>
      </trkpt>
      <trkpt lat="47.84788" lon="-1.07381">
        <ele>83.5</ele>
        <time>2020-12-20T09:48:35Z</time>
      </trkpt>
      <trkpt lat="47.84787" lon="-1.07382">
        <ele>83.6</ele>
        <time>2020-12-20T09:48:36Z</time>
      </trkpt>
      <trkpt lat="47.84784" lon="-1.07383">
        <ele>83.7</ele>
        <time>2020-12-20T09:48:37Z</time>
      </trkpt>
      <trkpt lat="47.84782" lon="-1.07383">
        <ele>83.8</ele>
        <time>2020-12-20T09:48:38Z</time>
      </trkpt>
      <trkpt lat="47.8478" lon="-1.07384">
        <ele>83.9</ele>
        <time>2020-12-20T09:48:39Z</time>
      </trkpt>
      <trkpt lat="47.84778" lon="-1.07385">
        <ele>84</ele>
        <time>2020-12-20T09:48:40Z</time>
      </trkpt>
      <trkpt lat="47.84776" lon="-1.07386">
        <ele>84.1</ele>
        <time>2020-12-20T09:48:41Z</time>
      </trkpt>
      <trkpt lat="47.84774" lon="-1.07387">
        <ele>84.2</ele>
        <time>2020-12-20T09:48:42Z</time>
      </trkpt>
      <trkpt lat="47.84772" lon="-1.07388">
        <ele>84.3</ele>
        <time>2020-12-20T09:48:43Z</time>
      </trkpt>
      <trkpt lat="47.8477" lon="-1.07388">
        <ele>84.4</ele>
        <time>2020-12-20T09:48:44Z</time>
      </trkpt>
      <trkpt lat="47.84768" lon="-1.07389">
        <ele>84.5</ele>
        <time>2020-12-20T09:48:45Z</time>
      </trkpt>
      <trkpt lat="47.84766" lon="-1.0739">
        <ele>84.7</ele>
        <time>2020-12-20T09:48:46Z</time>
      </trkpt>
      <trkpt lat="47.84764" lon="-1.0739">
        <ele>84.7</ele>
        <time>2020-12-20T09:48:47Z</time>
      </trkpt>
      <trkpt lat="47.84762" lon="-1.0739">
        <ele>84.8</ele>
        <time>2020-12-20T09:48:48Z</time>
      </trkpt>
      <trkpt lat="47.8476" lon="-1.07391">
        <ele>84.9</ele>
        <time>2020-12-20T09:48:49Z</time>
      </trkpt>
      <trkpt lat="47.84759" lon="-1.07391">
        <ele>85</ele>
        <time>2020-12-20T09:48:50Z</time>
      </trkpt>
      <trkpt lat="47.84757" lon="-1.07392">
        <ele>85.1</ele>
        <time>2020-12-20T09:48:51Z</time>
      </trkpt>
      <trkpt lat="47.84755" lon="-1.07392">
        <ele>85.2</ele>
        <time>2020-12-20T09:48:52Z</time>
      </trkpt>
      <trkpt lat="47.84753" lon="-1.07393">
        <ele>85.3</ele>
        <time>2020-12-20T09:48:53Z</time>
      </trkpt>
      <trkpt lat="47.84752" lon="-1.07394">
        <ele>85.4</ele>
        <time>2020-12-20T09:48:54Z</time>
      </trkpt>
      <trkpt lat="47.8475" lon="-1.07394">
        <ele>85.5</ele>
        <time>2020-12-20T09:48:55Z</time>
      </trkpt>
      <trkpt lat="47.84747" lon="-1.07395">
        <ele>85.6</ele>
        <time>2020-12-20T09:48:56Z</time>
      </trkpt>
      <trkpt lat="47.84745" lon="-1.07395">
        <ele>85.8</ele>
        <time>2020-12-20T09:48:57Z</time>
      </trkpt>
      <trkpt lat="47.84744" lon="-1.07396">
        <ele>85.8</ele>
        <time>2020-12-20T09:48:58Z</time>
      </trkpt>
      <trkpt lat="47.84742" lon="-1.07396">
        <ele>85.9</ele>
        <time>2020-12-20T09:48:59Z</time>
      </trkpt>
      <trkpt lat="47.8474" lon="-1.07397">
        <ele>86.1</ele>
        <time>2020-12-20T09:49:00Z</time>
      </trkpt>
      <trkpt lat="47.84738" lon="-1.07397">
        <ele>86.2</ele>
        <time>2020-12-20T09:49:01Z</time>
      </trkpt>
      <trkpt lat="47.84736" lon="-1.07398">
        <ele>86.3</ele>
        <time>2020-12-20T09:49:02Z</time>
      </trkpt>
      <trkpt lat="47.84734" lon="-1.07398">
        <ele>86.4</ele>
        <time>2020-12-20T09:49:03Z</time>
      </trkpt>
      <trkpt lat="47.84733" lon="-1.07399">
        <ele>86.5</ele>
        <time>2020-12-20T09:49:04Z</time>
      </trkpt>
      <trkpt lat="47.84731" lon="-1.074">
        <ele>86.6</ele>
        <time>2020-12-20T09:49:05Z</time>
      </trkpt>
      <trkpt lat="47.8473" lon="-1.074">
        <ele>86.7</ele>
        <time>2020-12-20T09:49:06Z</time>
      </trkpt>
      <trkpt lat="47.84729" lon="-1.074">
        <ele>86.7</ele>
        <time>2020-12-20T09:49:07Z</time>
      </trkpt>
      <trkpt lat="47.84728" lon="-1.07401">
        <ele>86.8</ele>
        <time>2020-12-20T09:49:08Z</time>
      </trkpt>
      <trkpt lat="47.84727" lon="-1.07401">
        <ele>86.8</ele>
        <time>2020-12-20T09:49:09Z</time>
      </trkpt>
      <trkpt lat="47.84725" lon="-1.07402">
        <ele>87</ele>
        <time>2020-12-20T09:49:10Z</time>
      </trkpt>
      <trkpt lat="47.84724" lon="-1.07402">
        <ele>87</ele>
        <time>2020-12-20T09:49:11Z</time>
      </trkpt>
      <trkpt lat="47.84723" lon="-1.07403">
        <ele>87.1</ele>
        <time>2020-12-20T09:49:12Z</time>
      </trkpt>
      <trkpt lat="47.84722" lon="-1.07403">
        <ele>87.1</ele>
        <time>2020-12-20T09:49:13Z</time>
      </trkpt>
      <trkpt lat="47.8472" lon="-1.07404">
        <ele>87.2</ele>
        <time>2020-12-20T09:49:14Z</time>
      </trkpt>
      <trkpt lat="47.84719" lon="-1.07404">
        <ele>87.3</ele>
        <time>2020-12-20T09:49:15Z</time>
      </trkpt>
      <trkpt lat="47.84718" lon="-1.07404">
        <ele>87.3</ele>
        <time>2020-12-20T09:49:16Z</time>
      </trkpt>
      <trkpt lat="47.84717" lon="-1.07405">
        <ele>87.4</ele>
        <time>2020-12-20T09:49:17Z</time>
      </trkpt>
      <trkpt lat="47.84716" lon="-1.07405">
        <ele>87.5</ele>
        <time>2020-12-20T09:49:18Z</time>
      </trkpt>
      <trkpt lat="47.84715" lon="-1.07405">
        <ele>87.5</ele>
        <time>2020-12-20T09:49:19Z</time>
      </trkpt>
      <trkpt lat="47.84714" lon="-1.07406">
        <ele>87.6</ele>
        <time>2020-12-20T09:49:20Z</time>
      </trkpt>
      <trkpt lat="47.84712" lon="-1.07405">
        <ele>87.7</ele>
        <time>2020-12-20T09:49:21Z</time>
      </trkpt>
      <trkpt lat="47.84711" lon="-1.07405">
        <ele>87.7</ele>
        <time>2020-12-20T09:49:22Z</time>
      </trkpt>
      <trkpt lat="47.8471" lon="-1.07406">
        <ele>87.8</ele>
        <time>2020-12-20T09:49:23Z</time>
      </trkpt>
      <trkpt lat="47.84709" lon="-1.07406">
        <ele>87.8</ele>
        <time>2020-12-20T09:49:24Z</time>
      </trkpt>
      <trkpt lat="47.84707" lon="-1.07407">
        <ele>88</ele>
        <time>2020-12-20T09:49:25Z</time>
      </trkpt>
      <trkpt lat="47.84706" lon="-1.07408">
        <ele>88</ele>
        <time>2020-12-20T09:49:26Z</time>
      </trkpt>
      <trkpt lat="47.84704" lon="-1.07408">
        <ele>88.1</ele>
        <time>2020-12-20T09:49:27Z</time>
      </trkpt>
      <trkpt lat="47.84703" lon="-1.07409">
        <ele>88.2</ele>
        <time>2020-12-20T09:49:28Z</time>
      </trkpt>
      <trkpt lat="47.84701" lon="-1.07409">
        <ele>88.3</ele>
        <time>2020-12-20T09:49:29Z</time>
      </trkpt>
      <trkpt lat="47.847" lon="-1.0741">
        <ele>88.3</ele>
        <time>2020-12-20T09:49:30Z</time>
      </trkpt>
      <trkpt lat="47.84698" lon="-1.0741">
        <ele>88.4</ele>
        <time>2020-12-20T09:49:31Z</time>
      </trkpt>
      <trkpt lat="47.84697" lon="-1.07411">
        <ele>88.5</ele>
        <time>2020-12-20T09:49:32Z</time>
      </trkpt>
      <trkpt lat="47.84695" lon="-1.07412">
        <ele>88.6</ele>
        <time>2020-12-20T09:49:33Z</time>
      </trkpt>
      <trkpt lat="47.84694" lon="-1.07411">
        <ele>88.6</ele>
        <time>2020-12-20T09:49:34Z</time>
      </trkpt>
      <trkpt lat="47.84693" lon="-1.07412">
        <ele>88.7</ele>
        <time>2020-12-20T09:49:35Z</time>
      </trkpt>
      <trkpt lat="47.84691" lon="-1.07412">
        <ele>88.8</ele>
        <time>2020-12-20T09:49:36Z</time>
      </trkpt>
      <trkpt lat="47.8469" lon="-1.07413">
        <ele>88.9</ele>
        <time>2020-12-20T09:49:37Z</time>
      </trkpt>
      <trkpt lat="47.84688" lon="-1.07413">
        <ele>89</ele>
        <time>2020-12-20T09:49:38Z</time>
      </trkpt>
      <trkpt lat="47.84687" lon="-1.07414">
        <ele>89</ele>
        <time>2020-12-20T09:49:39Z</time>
      </trkpt>
      <trkpt lat="47.84685" lon="-1.07414">
        <ele>89.1</ele>
        <time>2020-12-20T09:49:40Z</time>
      </trkpt>
      <trkpt lat="47.84684" lon="-1.07414">
        <ele>89.2</ele>
        <time>2020-12-20T09:49:41Z</time>
      </trkpt>
      <trkpt lat="47.84682" lon="-1.07414">
        <ele>89.3</ele>
        <time>2020-12-20T09:49:42Z</time>
      </trkpt>
      <trkpt lat="47.84681" lon="-1.07415">
        <ele>89.3</ele>
        <time>2020-12-20T09:49:43Z</time>
      </trkpt>
      <trkpt lat="47.8468" lon="-1.07415">
        <ele>89.4</ele>
        <time>2020-12-20T09:49:44Z</time>
      </trkpt>
      <trkpt lat="47.84678" lon="-1.07416">
        <ele>89.5</ele>
        <time>2020-12-20T09:49:45Z</time>
      </trkpt>
      <trkpt lat="47.84677" lon="-1.07416">
        <ele>89.5</ele>
        <time>2020-12-20T09:49:46Z</time>
      </trkpt>
      <trkpt lat="47.84676" lon="-1.07417">
        <ele>89.6</ele>
        <time>2020-12-20T09:49:47Z</time>
      </trkpt>
      <trkpt lat="47.84675" lon="-1.07417">
        <ele>89.6</ele>
        <time>2020-12-20T09:49:48Z</time>
      </trkpt>
      <trkpt lat="47.84673" lon="-1.07417">
        <ele>89.7</ele>
        <time>2020-12-20T09:49:49Z</time>
      </trkpt>
      <trkpt lat="47.84672" lon="-1.07418">
        <ele>89.8</ele>
        <time>2020-12-20T09:49:50Z</time>
      </trkpt>
      <trkpt lat="47.84671" lon="-1.07418">
        <ele>89.8</ele>
        <time>2020-12-20T09:49:51Z</time>
      </trkpt>
      <trkpt lat="47.8467" lon="-1.07419">
        <ele>89.9</ele>
        <time>2020-12-20T09:49:52Z</time>
      </trkpt>
      <trkpt lat="47.84669" lon="-1.07419">
        <ele>90</ele>
        <time>2020-12-20T09:49:53Z</time>
      </trkpt>
      <trkpt lat="47.84668" lon="-1.0742">
        <ele>90.1</ele>
        <time>2020-12-20T09:49:54Z</time>
      </trkpt>
      <trkpt lat="47.84667" lon="-1.0742">
        <ele>90.1</ele>
        <time>2020-12-20T09:49:55Z</time>
      </trkpt>
      <trkpt lat="47.84666" lon="-1.07421">
        <ele>90.2</ele>
        <time>2020-12-20T09:49:56Z</time>
      </trkpt>
      <trkpt lat="47.84664" lon="-1.07421">
        <ele>90.4</ele>
        <time>2020-12-20T09:49:57Z</time>
      </trkpt>
      <trkpt lat="47.84663" lon="-1.07422">
        <ele>90.5</ele>
        <time>2020-12-20T09:49:58Z</time>
      </trkpt>
      <trkpt lat="47.84662" lon="-1.07423">
        <ele>90.6</ele>
        <time>2020-12-20T09:49:59Z</time>
      </trkpt>
      <trkpt lat="47.84661" lon="-1.07425">
        <ele>90.8</ele>
        <time>2020-12-20T09:50:00Z</time>
      </trkpt>
      <trkpt lat="47.8466" lon="-1.07426">
        <ele>90.9</ele>
        <time>2020-12-20T09:50:01Z</time>
      </trkpt>
      <trkpt lat="47.84659" lon="-1.07427">
        <ele>91</ele>
        <time>2020-12-20T09:50:02Z</time>
      </trkpt>
      <trkpt lat="47.84658" lon="-1.07429">
        <ele>91.2</ele>
        <time>2020-12-20T09:50:03Z</time>
      </trkpt>
      <trkpt lat="47.84657" lon="-1.0743">
        <ele>91.3</ele>
        <time>2020-12-20T09:50:04Z</time>
      </trkpt>
      <trkpt lat="47.84656" lon="-1.07431">
        <ele>91.4</ele>
        <time>2020-12-20T09:50:05Z</time>
      </trkpt>
      <trkpt lat="47.84656" lon="-1.07432">
        <ele>91.4</ele>
        <time>2020-12-20T09:50:06Z</time>
      </trkpt>
      <trkpt lat="47.84655" lon="-1.07434">
        <ele>91.6</ele>
        <time>2020-12-20T09:50:07Z</time>
      </trkpt>
      <trkpt lat="47.84654" lon="-1.07436">
        <ele>91.7</ele>
        <time>2020-12-20T09:50:08Z</time>
      </trkpt>
      <trkpt lat="47.84654" lon="-1.07438">
        <ele>91.8</ele>
        <time>2020-12-20T09:50:09Z</time>
      </trkpt>
      <trkpt lat="47.84654" lon="-1.0744">
        <ele>91.9</ele>
        <time>2020-12-20T09:50:10Z</time>
      </trkpt>
      <trkpt lat="47.84653" lon="-1.07443">
        <ele>92</ele>
        <time>2020-12-20T09:50:11Z</time>
      </trkpt>
      <trkpt lat="47.84653" lon="-1.07446">
        <ele>92.1</ele>
        <time>2020-12-20T09:50:12Z</time>
      </trkpt>
      <trkpt lat="47.84652" lon="-1.07449">
        <ele>92.3</ele>
        <time>2020-12-20T09:50:13Z</time>
      </trkpt>
      <trkpt lat="47.84651" lon="-1.07452">
        <ele>92.5</ele>
        <time>2020-12-20T09:50:14Z</time>
      </trkpt>
      <trkpt lat="47.8465" lon="-1.07454">
        <ele>92.7</ele>
        <time>2020-12-20T09:50:15Z</time>
      </trkpt>
      <trkpt lat="47.84649" lon="-1.07456">
        <ele>92.8</ele>
        <time>2020-12-20T09:50:16Z</time>
      </trkpt>
      <trkpt lat="47.84647" lon="-1.07457">
        <ele>93</ele>
        <time>2020-12-20T09:50:17Z</time>
      </trkpt>
      <trkpt lat="47.84646" lon="-1.07458">
        <ele>93.1</ele>
        <time>2020-12-20T09:50:18Z</time>
      </trkpt>
      <trkpt lat="47.84644" lon="-1.07459">
        <ele>93.3</ele>
        <time>2020-12-20T09:50:19Z</time>
      </trkpt>
      <trkpt lat="47.84642" lon="-1.0746">
        <ele>93.5</ele>
        <time>2020-12-20T09:50:20Z</time>
      </trkpt>
      <trkpt lat="47.8464" lon="-1.0746">
        <ele>93.6</ele>
        <time>2020-12-20T09:50:21Z</time>
      </trkpt>
      <trkpt lat="47.84638" lon="-1.07461">
        <ele>93.8</ele>
        <time>2020-12-20T09:50:22Z</time>
      </trkpt>
      <trkpt lat="47.84637" lon="-1.07461">
        <ele>93.9</ele>
        <time>2020-12-20T09:50:23Z</time>
      </trkpt>
      <trkpt lat="47.84635" lon="-1.07462">
        <ele>94.1</ele>
        <time>2020-12-20T09:50:24Z</time>
      </trkpt>
      <trkpt lat="47.84633" lon="-1.07462">
        <ele>94.2</ele>
        <time>2020-12-20T09:50:25Z</time>
      </trkpt>
      <trkpt lat="47.84632" lon="-1.07463">
        <ele>94.3</ele>
        <time>2020-12-20T09:50:26Z</time>
      </trkpt>
      <trkpt lat="47.8463" lon="-1.07464">
        <ele>94.5</ele>
        <time>2020-12-20T09:50:27Z</time>
      </trkpt>
      <trkpt lat="47.84628" lon="-1.07464">
        <ele>94.7</ele>
        <time>2020-12-20T09:50:28Z</time>
      </trkpt>
      <trkpt lat="47.84626" lon="-1.07465">
        <ele>94.9</ele>
        <time>2020-12-20T09:50:29Z</time>
      </trkpt>
      <trkpt lat="47.84624" lon="-1.07465">
        <ele>95</ele>
        <time>2020-12-20T09:50:30Z</time>
      </trkpt>
      <trkpt lat="47.84622" lon="-1.07466">
        <ele>95.2</ele>
        <time>2020-12-20T09:50:31Z</time>
      </trkpt>
      <trkpt lat="47.8462" lon="-1.07466">
        <ele>95.4</ele>
        <time>2020-12-20T09:50:32Z</time>
      </trkpt>
      <trkpt lat="47.84618" lon="-1.07467">
        <ele>95.5</ele>
        <time>2020-12-20T09:50:33Z</time>
      </trkpt>
      <trkpt lat="47.84615" lon="-1.07467">
        <ele>95.8</ele>
        <time>2020-12-20T09:50:34Z</time>
      </trkpt>
      <trkpt lat="47.84613" lon="-1.07468">
        <ele>96</ele>
        <time>2020-12-20T09:50:35Z</time>
      </trkpt>
      <trkpt lat="47.84611" lon="-1.07468">
        <ele>96.1</ele>
        <time>2020-12-20T09:50:36Z</time>
      </trkpt>
      <trkpt lat="47.84609" lon="-1.07469">
        <ele>96.3</ele>
        <time>2020-12-20T09:50:37Z</time>
      </trkpt>
      <trkpt lat="47.84607" lon="-1.0747">
        <ele>96.5</ele>
        <time>2020-12-20T09:50:38Z</time>
      </trkpt>
      <trkpt lat="47.84604" lon="-1.07471">
        <ele>96.7</ele>
        <time>2020-12-20T09:50:39Z</time>
      </trkpt>
      <trkpt lat="47.84601" lon="-1.07471">
        <ele>97</ele>
        <time>2020-12-20T09:50:40Z</time>
      </trkpt>
      <trkpt lat="47.84599" lon="-1.07472">
        <ele>97.1</ele>
        <time>2020-12-20T09:50:41Z</time>
      </trkpt>
      <trkpt lat="47.84597" lon="-1.07473">
        <ele>97.3</ele>
        <time>2020-12-20T09:50:42Z</time>
      </trkpt>
      <trkpt lat="47.84595" lon="-1.07473">
        <ele>97.5</ele>
        <time>2020-12-20T09:50:43Z</time>
      </trkpt>
      <trkpt lat="47.84592" lon="-1.07474">
        <ele>97.7</ele>
        <time>2020-12-20T09:50:44Z</time>
      </trkpt>
      <trkpt lat="47.8459" lon="-1.07475">
        <ele>97.9</ele>
        <time>2020-12-20T09:50:45Z</time>
      </trkpt>
      <trkpt lat="47.84587" lon="-1.07475">
        <ele>98.1</ele>
        <time>2020-12-20T09:50:46Z</time>
      </trkpt>
      <trkpt lat="47.84585" lon="-1.07476">
        <ele>98.3</ele>
        <time>2020-12-20T09:50:47Z</time>
      </trkpt>
      <trkpt lat="47.84583" lon="-1.07476">
        <ele>98.4</ele>
        <time>2020-12-20T09:50:48Z</time>
      </trkpt>
      <trkpt lat="47.8458" lon="-1.07477">
        <ele>98.4</ele>
        <time>2020-12-20T09:50:49Z</time>
      </trkpt>
      <trkpt lat="47.84577" lon="-1.07478">
        <ele>98.3</ele>
        <time>2020-12-20T09:50:50Z</time>
      </trkpt>
      <trkpt lat="47.84575" lon="-1.07479">
        <ele>98.3</ele>
        <time>2020-12-20T09:50:51Z</time>
      </trkpt>
      <trkpt lat="47.84572" lon="-1.07479">
        <ele>98.2</ele>
        <time>2020-12-20T09:50:52Z</time>
      </trkpt>
      <trkpt lat="47.84569" lon="-1.0748">
        <ele>98.1</ele>
        <time>2020-12-20T09:50:53Z</time>
      </trkpt>
      <trkpt lat="47.84567" lon="-1.07481">
        <ele>98.1</ele>
        <time>2020-12-20T09:50:54Z</time>
      </trkpt>
      <trkpt lat="47.84564" lon="-1.07481">
        <ele>98</ele>
        <time>2020-12-20T09:50:55Z</time>
      </trkpt>
      <trkpt lat="47.84561" lon="-1.07482">
        <ele>97.9</ele>
        <time>2020-12-20T09:50:56Z</time>
      </trkpt>
      <trkpt lat="47.84558" lon="-1.07482">
        <ele>97.9</ele>
        <time>2020-12-20T09:50:57Z</time>
      </trkpt>
      <trkpt lat="47.84555" lon="-1.07483">
        <ele>97.8</ele>
        <time>2020-12-20T09:50:58Z</time>
      </trkpt>
      <trkpt lat="47.84551" lon="-1.07483">
        <ele>97.7</ele>
        <time>2020-12-20T09:50:59Z</time>
      </trkpt>
      <trkpt lat="47.84548" lon="-1.07484">
        <ele>97.6</ele>
        <time>2020-12-20T09:51:00Z</time>
      </trkpt>
      <trkpt lat="47.84546" lon="-1.07484">
        <ele>97.5</ele>
        <time>2020-12-20T09:51:01Z</time>
      </trkpt>
      <trkpt lat="47.84543" lon="-1.07484">
        <ele>97.4</ele>
        <time>2020-12-20T09:51:02Z</time>
      </trkpt>
      <trkpt lat="47.8454" lon="-1.07484">
        <ele>97.4</ele>
        <time>2020-12-20T09:51:03Z</time>
      </trkpt>
      <trkpt lat="47.84537" lon="-1.07484">
        <ele>97.3</ele>
        <time>2020-12-20T09:51:04Z</time>
      </trkpt>
      <trkpt lat="47.84534" lon="-1.07484">
        <ele>97.2</ele>
        <time>2020-12-20T09:51:05Z</time>
      </trkpt>
      <trkpt lat="47.8453" lon="-1.07484">
        <ele>97.1</ele>
        <time>2020-12-20T09:51:06Z</time>
      </trkpt>
      <trkpt lat="47.84527" lon="-1.07484">
        <ele>97</ele>
        <time>2020-12-20T09:51:07Z</time>
      </trkpt>
      <trkpt lat="47.84524" lon="-1.07484">
        <ele>96.9</ele>
        <time>2020-12-20T09:51:08Z</time>
      </trkpt>
      <trkpt lat="47.84521" lon="-1.07484">
        <ele>96.8</ele>
        <time>2020-12-20T09:51:09Z</time>
      </trkpt>
      <trkpt lat="47.84517" lon="-1.07484">
        <ele>96.7</ele>
        <time>2020-12-20T09:51:10Z</time>
      </trkpt>
      <trkpt lat="47.84514" lon="-1.07484">
        <ele>96.6</ele>
        <time>2020-12-20T09:51:11Z</time>
      </trkpt>
      <trkpt lat="47.84511" lon="-1.07484">
        <ele>96.5</ele>
        <time>2020-12-20T09:51:12Z</time>
      </trkpt>
      <trkpt lat="47.84507" lon="-1.07484">
        <ele>96.4</ele>
        <time>2020-12-20T09:51:13Z</time>
      </trkpt>
      <trkpt lat="47.84504" lon="-1.07484">
        <ele>96.3</ele>
        <time>2020-12-20T09:51:14Z</time>
      </trkpt>
      <trkpt lat="47.84501" lon="-1.07484">
        <ele>96.2</ele>
        <time>2020-12-20T09:51:15Z</time>
      </trkpt>
      <trkpt lat="47.84497" lon="-1.07484">
        <ele>96.1</ele>
        <time>2020-12-20T09:51:16Z</time>
      </trkpt>
      <trkpt lat="47.84493" lon="-1.07485">
        <ele>95.9</ele>
        <time>2020-12-20T09:51:17Z</time>
      </trkpt>
      <trkpt lat="47.8449" lon="-1.07485">
        <ele>95.7</ele>
        <time>2020-12-20T09:51:18Z</time>
      </trkpt>
      <trkpt lat="47.84487" lon="-1.07486">
        <ele>95.6</ele>
        <time>2020-12-20T09:51:19Z</time>
      </trkpt>
      <trkpt lat="47.84485" lon="-1.07488">
        <ele>95.4</ele>
        <time>2020-12-20T09:51:20Z</time>
      </trkpt>
      <trkpt lat="47.84484" lon="-1.07492">
        <ele>95.3</ele>
        <time>2020-12-20T09:51:21Z</time>
      </trkpt>
      <trkpt lat="47.84484" lon="-1.07495">
        <ele>95.3</ele>
        <time>2020-12-20T09:51:22Z</time>
      </trkpt>
      <trkpt lat="47.84484" lon="-1.075">
        <ele>95.2</ele>
        <time>2020-12-20T09:51:23Z</time>
      </trkpt>
      <trkpt lat="47.84485" lon="-1.07504">
        <ele>95.2</ele>
        <time>2020-12-20T09:51:24Z</time>
      </trkpt>
      <trkpt lat="47.84485" lon="-1.07509">
        <ele>95.2</ele>
        <time>2020-12-20T09:51:25Z</time>
      </trkpt>
      <trkpt lat="47.84486" lon="-1.07513">
        <ele>95.2</ele>
        <time>2020-12-20T09:51:26Z</time>
      </trkpt>
      <trkpt lat="47.84487" lon="-1.07517">
        <ele>95.2</ele>
        <time>2020-12-20T09:51:27Z</time>
      </trkpt>
      <trkpt lat="47.84488" lon="-1.07522">
        <ele>95.2</ele>
        <time>2020-12-20T09:51:28Z</time>
      </trkpt>
      <trkpt lat="47.84489" lon="-1.07527">
        <ele>95.1</ele>
        <time>2020-12-20T09:51:29Z</time>
      </trkpt>
      <trkpt lat="47.8449" lon="-1.07532">
        <ele>95.1</ele>
        <time>2020-12-20T09:51:30Z</time>
      </trkpt>
      <trkpt lat="47.84492" lon="-1.07538">
        <ele>95.2</ele>
        <time>2020-12-20T09:51:31Z</time>
      </trkpt>
      <trkpt lat="47.84493" lon="-1.07544">
        <ele>95.1</ele>
        <time>2020-12-20T09:51:32Z</time>
      </trkpt>
      <trkpt lat="47.84494" lon="-1.0755">
        <ele>95.1</ele>
        <time>2020-12-20T09:51:33Z</time>
      </trkpt>
      <trkpt lat="47.84495" lon="-1.07556">
        <ele>95.1</ele>
        <time>2020-12-20T09:51:34Z</time>
      </trkpt>
      <trkpt lat="47.84496" lon="-1.07561">
        <ele>95.1</ele>
        <time>2020-12-20T09:51:35Z</time>
      </trkpt>
      <trkpt lat="47.84496" lon="-1.07566">
        <ele>95</ele>
        <time>2020-12-20T09:51:36Z</time>
      </trkpt>
      <trkpt lat="47.84494" lon="-1.07568">
        <ele>94.9</ele>
        <time>2020-12-20T09:51:37Z</time>
      </trkpt>
      <trkpt lat="47.84491" lon="-1.07569">
        <ele>94.7</ele>
        <time>2020-12-20T09:51:38Z</time>
      </trkpt>
      <trkpt lat="47.84488" lon="-1.0757">
        <ele>94.6</ele>
        <time>2020-12-20T09:51:39Z</time>
      </trkpt>
      <trkpt lat="47.84484" lon="-1.07571">
        <ele>94.4</ele>
        <time>2020-12-20T09:51:40Z</time>
      </trkpt>
      <trkpt lat="47.8448" lon="-1.07572">
        <ele>94.2</ele>
        <time>2020-12-20T09:51:41Z</time>
      </trkpt>
      <trkpt lat="47.84476" lon="-1.07574">
        <ele>94</ele>
        <time>2020-12-20T09:51:42Z</time>
      </trkpt>
      <trkpt lat="47.84472" lon="-1.07576">
        <ele>93.7</ele>
        <time>2020-12-20T09:51:43Z</time>
      </trkpt>
      <trkpt lat="47.84468" lon="-1.07578">
        <ele>93.5</ele>
        <time>2020-12-20T09:51:44Z</time>
      </trkpt>
      <trkpt lat="47.84464" lon="-1.0758">
        <ele>93.3</ele>
        <time>2020-12-20T09:51:45Z</time>
      </trkpt>
      <trkpt lat="47.8446" lon="-1.07583">
        <ele>93.1</ele>
        <time>2020-12-20T09:51:46Z</time>
      </trkpt>
      <trkpt lat="47.84456" lon="-1.07585">
        <ele>92.9</ele>
        <time>2020-12-20T09:51:47Z</time>
      </trkpt>
      <trkpt lat="47.84452" lon="-1.07586">
        <ele>92.7</ele>
        <time>2020-12-20T09:51:48Z</time>
      </trkpt>
      <trkpt lat="47.84448" lon="-1.07587">
        <ele>92.5</ele>
        <time>2020-12-20T09:51:49Z</time>
      </trkpt>
      <trkpt lat="47.84444" lon="-1.07587">
        <ele>92.3</ele>
        <time>2020-12-20T09:51:50Z</time>
      </trkpt>
      <trkpt lat="47.8444" lon="-1.07587">
        <ele>92.1</ele>
        <time>2020-12-20T09:51:51Z</time>
      </trkpt>
      <trkpt lat="47.84436" lon="-1.07587">
        <ele>91.9</ele>
        <time>2020-12-20T09:51:52Z</time>
      </trkpt>
      <trkpt lat="47.84431" lon="-1.07587">
        <ele>91.6</ele>
        <time>2020-12-20T09:51:53Z</time>
      </trkpt>
      <trkpt lat="47.84427" lon="-1.07587">
        <ele>91.5</ele>
        <time>2020-12-20T09:51:54Z</time>
      </trkpt>
      <trkpt lat="47.84422" lon="-1.07588">
        <ele>91.2</ele>
        <time>2020-12-20T09:51:55Z</time>
      </trkpt>
      <trkpt lat="47.84418" lon="-1.07589">
        <ele>91</ele>
        <time>2020-12-20T09:51:56Z</time>
      </trkpt>
      <trkpt lat="47.84414" lon="-1.07589">
        <ele>90.8</ele>
        <time>2020-12-20T09:51:57Z</time>
      </trkpt>
      <trkpt lat="47.84409" lon="-1.0759">
        <ele>90.6</ele>
        <time>2020-12-20T09:51:58Z</time>
      </trkpt>
      <trkpt lat="47.84405" lon="-1.0759">
        <ele>90.4</ele>
        <time>2020-12-20T09:51:59Z</time>
      </trkpt>
      <trkpt lat="47.84401" lon="-1.07591">
        <ele>90.2</ele>
        <time>2020-12-20T09:52:00Z</time>
      </trkpt>
      <trkpt lat="47.84396" lon="-1.07591">
        <ele>89.9</ele>
        <time>2020-12-20T09:52:01Z</time>
      </trkpt>
      <trkpt lat="47.84392" lon="-1.07592">
        <ele>89.7</ele>
        <time>2020-12-20T09:52:02Z</time>
      </trkpt>
      <trkpt lat="47.84387" lon="-1.07592">
        <ele>89.5</ele>
        <time>2020-12-20T09:52:03Z</time>
      </trkpt>
      <trkpt lat="47.84383" lon="-1.07593">
        <ele>89.3</ele>
        <time>2020-12-20T09:52:04Z</time>
      </trkpt>
      <trkpt lat="47.84378" lon="-1.07594">
        <ele>89.1</ele>
        <time>2020-12-20T09:52:05Z</time>
      </trkpt>
      <trkpt lat="47.84373" lon="-1.07594">
        <ele>88.8</ele>
        <time>2020-12-20T09:52:06Z</time>
      </trkpt>
      <trkpt lat="47.84368" lon="-1.07596">
        <ele>88.6</ele>
        <time>2020-12-20T09:52:07Z</time>
      </trkpt>
      <trkpt lat="47.84363" lon="-1.07598">
        <ele>88.4</ele>
        <time>2020-12-20T09:52:08Z</time>
      </trkpt>
      <trkpt lat="47.84358" lon="-1.076">
        <ele>88.1</ele>
        <time>2020-12-20T09:52:09Z</time>
      </trkpt>
      <trkpt lat="47.84354" lon="-1.07601">
        <ele>87.9</ele>
        <time>2020-12-20T09:52:10Z</time>
      </trkpt>
      <trkpt lat="47.84349" lon="-1.07601">
        <ele>87.7</ele>
        <time>2020-12-20T09:52:11Z</time>
      </trkpt>
      <trkpt lat="47.84344" lon="-1.07602">
        <ele>87.5</ele>
        <time>2020-12-20T09:52:12Z</time>
      </trkpt>
      <trkpt lat="47.8434" lon="-1.07602">
        <ele>87.3</ele>
        <time>2020-12-20T09:52:13Z</time>
      </trkpt>
      <trkpt lat="47.84335" lon="-1.07602">
        <ele>87.1</ele>
        <time>2020-12-20T09:52:14Z</time>
      </trkpt>
      <trkpt lat="47.84329" lon="-1.07603">
        <ele>86.8</ele>
        <time>2020-12-20T09:52:15Z</time>
      </trkpt>
      <trkpt lat="47.84324" lon="-1.07603">
        <ele>86.5</ele>
        <time>2020-12-20T09:52:16Z</time>
      </trkpt>
      <trkpt lat="47.84319" lon="-1.07603">
        <ele>86.3</ele>
        <time>2020-12-20T09:52:17Z</time>
      </trkpt>
      <trkpt lat="47.84315" lon="-1.07604">
        <ele>86.1</ele>
        <time>2020-12-20T09:52:18Z</time>
      </trkpt>
      <trkpt lat="47.8431" lon="-1.07604">
        <ele>85.8</ele>
        <time>2020-12-20T09:52:19Z</time>
      </trkpt>
      <trkpt lat="47.84305" lon="-1.07605">
        <ele>85.6</ele>
        <time>2020-12-20T09:52:20Z</time>
      </trkpt>
      <trkpt lat="47.843" lon="-1.07605">
        <ele>85.3</ele>
        <time>2020-12-20T09:52:21Z</time>
      </trkpt>
      <trkpt lat="47.84295" lon="-1.07605">
        <ele>85</ele>
        <time>2020-12-20T09:52:22Z</time>
      </trkpt>
      <trkpt lat="47.8429" lon="-1.07606">
        <ele>84.8</ele>
        <time>2020-12-20T09:52:23Z</time>
      </trkpt>
      <trkpt lat="47.84285" lon="-1.07606">
        <ele>84.5</ele>
        <time>2020-12-20T09:52:24Z</time>
      </trkpt>
      <trkpt lat="47.8428" lon="-1.07606">
        <ele>84.3</ele>
        <time>2020-12-20T09:52:25Z</time>
      </trkpt>
      <trkpt lat="47.84274" lon="-1.07607">
        <ele>83.9</ele>
        <time>2020-12-20T09:52:26Z</time>
      </trkpt>
      <trkpt lat="47.84269" lon="-1.07607">
        <ele>83.7</ele>
        <time>2020-12-20T09:52:27Z</time>
      </trkpt>
      <trkpt lat="47.84264" lon="-1.07608">
        <ele>83.4</ele>
        <time>2020-12-20T09:52:28Z</time>
      </trkpt>
      <trkpt lat="47.84258" lon="-1.07608">
        <ele>83.1</ele>
        <time>2020-12-20T09:52:29Z</time>
      </trkpt>
      <trkpt lat="47.84253" lon="-1.07609">
        <ele>82.8</ele>
        <time>2020-12-20T09:52:30Z</time>
      </trkpt>
      <trkpt lat="47.84248" lon="-1.07609">
        <ele>82.6</ele>
        <time>2020-12-20T09:52:31Z</time>
      </trkpt>
      <trkpt lat="47.84242" lon="-1.07609">
        <ele>82.3</ele>
        <time>2020-12-20T09:52:32Z</time>
      </trkpt>
      <trkpt lat="47.84237" lon="-1.0761">
        <ele>82.1</ele>
        <time>2020-12-20T09:52:33Z</time>
      </trkpt>
      <trkpt lat="47.84231" lon="-1.0761">
        <ele>81.8</ele>
        <time>2020-12-20T09:52:34Z</time>
      </trkpt>
      <trkpt lat="47.84226" lon="-1.07611">
        <ele>81.5</ele>
        <time>2020-12-20T09:52:35Z</time>
      </trkpt>
      <trkpt lat="47.84221" lon="-1.07611">
        <ele>81.3</ele>
        <time>2020-12-20T09:52:36Z</time>
      </trkpt>
      <trkpt lat="47.84215" lon="-1.07612">
        <ele>81</ele>
        <time>2020-12-20T09:52:37Z</time>
      </trkpt>
      <trkpt lat="47.8421" lon="-1.07612">
        <ele>80.7</ele>
        <time>2020-12-20T09:52:38Z</time>
      </trkpt>
      <trkpt lat="47.84205" lon="-1.07613">
        <ele>80.5</ele>
        <time>2020-12-20T09:52:39Z</time>
      </trkpt>
      <trkpt lat="47.842" lon="-1.07613">
        <ele>80.2</ele>
        <time>2020-12-20T09:52:40Z</time>
      </trkpt>
      <trkpt lat="47.84196" lon="-1.07614">
        <ele>80</ele>
        <time>2020-12-20T09:52:41Z</time>
      </trkpt>
      <trkpt lat="47.84191" lon="-1.07614">
        <ele>79.8</ele>
        <time>2020-12-20T09:52:42Z</time>
      </trkpt>
      <trkpt lat="47.84188" lon="-1.07614">
        <ele>79.7</ele>
        <time>2020-12-20T09:52:43Z</time>
      </trkpt>
      <trkpt lat="47.84184" lon="-1.07614">
        <ele>79.5</ele>
        <time>2020-12-20T09:52:44Z</time>
      </trkpt>
      <trkpt lat="47.8418" lon="-1.07613">
        <ele>79.3</ele>
        <time>2020-12-20T09:52:45Z</time>
      </trkpt>
      <trkpt lat="47.84176" lon="-1.07609">
        <ele>79.1</ele>
        <time>2020-12-20T09:52:46Z</time>
      </trkpt>
      <trkpt lat="47.84173" lon="-1.07603">
        <ele>79.1</ele>
        <time>2020-12-20T09:52:47Z</time>
      </trkpt>
      <trkpt lat="47.84171" lon="-1.07596">
        <ele>79.1</ele>
        <time>2020-12-20T09:52:48Z</time>
      </trkpt>
      <trkpt lat="47.8417" lon="-1.07588">
        <ele>79.1</ele>
        <time>2020-12-20T09:52:49Z</time>
      </trkpt>
      <trkpt lat="47.84168" lon="-1.07579">
        <ele>78.9</ele>
        <time>2020-12-20T09:52:50Z</time>
      </trkpt>
      <trkpt lat="47.84167" lon="-1.0757">
        <ele>78.5</ele>
        <time>2020-12-20T09:52:51Z</time>
      </trkpt>
      <trkpt lat="47.84166" lon="-1.07561">
        <ele>78.1</ele>
        <time>2020-12-20T09:52:52Z</time>
      </trkpt>
      <trkpt lat="47.84164" lon="-1.07551">
        <ele>77.6</ele>
        <time>2020-12-20T09:52:53Z</time>
      </trkpt>
      <trkpt lat="47.84163" lon="-1.07541">
        <ele>77.2</ele>
        <time>2020-12-20T09:52:54Z</time>
      </trkpt>
      <trkpt lat="47.84162" lon="-1.07531">
        <ele>76.8</ele>
        <time>2020-12-20T09:52:55Z</time>
      </trkpt>
      <trkpt lat="47.84161" lon="-1.0752">
        <ele>76.3</ele>
        <time>2020-12-20T09:52:56Z</time>
      </trkpt>
      <trkpt lat="47.84159" lon="-1.0751">
        <ele>75.9</ele>
        <time>2020-12-20T09:52:57Z</time>
      </trkpt>
      <trkpt lat="47.84158" lon="-1.075">
        <ele>75.5</ele>
        <time>2020-12-20T09:52:58Z</time>
      </trkpt>
      <trkpt lat="47.84156" lon="-1.07489">
        <ele>75.2</ele>
        <time>2020-12-20T09:52:59Z</time>
      </trkpt>
      <trkpt lat="47.84154" lon="-1.07479">
        <ele>75</ele>
        <time>2020-12-20T09:53:00Z</time>
      </trkpt>
      <trkpt lat="47.84153" lon="-1.07468">
        <ele>74.8</ele>
        <time>2020-12-20T09:53:01Z</time>
      </trkpt>
      <trkpt lat="47.84151" lon="-1.07458">
        <ele>74.6</ele>
        <time>2020-12-20T09:53:02Z</time>
      </trkpt>
      <trkpt lat="47.8415" lon="-1.07448">
        <ele>74.4</ele>
        <time>2020-12-20T09:53:03Z</time>
      </trkpt>
      <trkpt lat="47.84149" lon="-1.07437">
        <ele>74.2</ele>
        <time>2020-12-20T09:53:04Z</time>
      </trkpt>
      <trkpt lat="47.84147" lon="-1.07426">
        <ele>73.9</ele>
        <time>2020-12-20T09:53:05Z</time>
      </trkpt>
      <trkpt lat="47.84146" lon="-1.07416">
        <ele>73.8</ele>
        <time>2020-12-20T09:53:06Z</time>
      </trkpt>
      <trkpt lat="47.84144" lon="-1.07405">
        <ele>73.6</ele>
        <time>2020-12-20T09:53:07Z</time>
      </trkpt>
      <trkpt lat="47.84143" lon="-1.07395">
        <ele>73.5</ele>
        <time>2020-12-20T09:53:08Z</time>
      </trkpt>
      <trkpt lat="47.84142" lon="-1.07384">
        <ele>73.4</ele>
        <time>2020-12-20T09:53:09Z</time>
      </trkpt>
      <trkpt lat="47.8414" lon="-1.07374">
        <ele>73.2</ele>
        <time>2020-12-20T09:53:10Z</time>
      </trkpt>
      <trkpt lat="47.84139" lon="-1.07364">
        <ele>73.1</ele>
        <time>2020-12-20T09:53:11Z</time>
      </trkpt>
      <trkpt lat="47.84138" lon="-1.07354">
        <ele>73</ele>
        <time>2020-12-20T09:53:12Z</time>
      </trkpt>
      <trkpt lat="47.84137" lon="-1.07345">
        <ele>72.9</ele>
        <time>2020-12-20T09:53:13Z</time>
      </trkpt>
      <trkpt lat="47.84136" lon="-1.07336">
        <ele>72.8</ele>
        <time>2020-12-20T09:53:14Z</time>
      </trkpt>
      <trkpt lat="47.84135" lon="-1.07327">
        <ele>72.9</ele>
        <time>2020-12-20T09:53:15Z</time>
      </trkpt>
      <trkpt lat="47.84134" lon="-1.07319">
        <ele>73</ele>
        <time>2020-12-20T09:53:16Z</time>
      </trkpt>
      <trkpt lat="47.84133" lon="-1.07312">
        <ele>73</ele>
        <time>2020-12-20T09:53:17Z</time>
      </trkpt>
      <trkpt lat="47.84133" lon="-1.07305">
        <ele>73.2</ele>
        <time>2020-12-20T09:53:18Z</time>
      </trkpt>
      <trkpt lat="47.84133" lon="-1.07299">
        <ele>73.3</ele>
        <time>2020-12-20T09:53:19Z</time>
      </trkpt>
      <trkpt lat="47.84132" lon="-1.07293">
        <ele>73.4</ele>
        <time>2020-12-20T09:53:20Z</time>
      </trkpt>
      <trkpt lat="47.84132" lon="-1.07288">
        <ele>73.5</ele>
        <time>2020-12-20T09:53:21Z</time>
      </trkpt>
      <trkpt lat="47.84131" lon="-1.07283">
        <ele>73.5</ele>
        <time>2020-12-20T09:53:22Z</time>
      </trkpt>
      <trkpt lat="47.84131" lon="-1.07279">
        <ele>73.6</ele>
        <time>2020-12-20T09:53:23Z</time>
      </trkpt>
      <trkpt lat="47.84131" lon="-1.07276">
        <ele>73.6</ele>
        <time>2020-12-20T09:53:24Z</time>
      </trkpt>
      <trkpt lat="47.84131" lon="-1.07273">
        <ele>73.7</ele>
        <time>2020-12-20T09:53:25Z</time>
      </trkpt>
      <trkpt lat="47.84132" lon="-1.07271">
        <ele>73.8</ele>
        <time>2020-12-20T09:53:26Z</time>
      </trkpt>
      <trkpt lat="47.84132" lon="-1.0727">
        <ele>73.8</ele>
        <time>2020-12-20T09:53:27Z</time>
      </trkpt>
      <trkpt lat="47.84132" lon="-1.07268">
        <ele>73.9</ele>
        <time>2020-12-20T09:53:28Z</time>
      </trkpt>
      <trkpt lat="47.84132" lon="-1.07266">
        <ele>73.9</ele>
        <time>2020-12-20T09:53:29Z</time>
      </trkpt>
      <trkpt lat="47.84131" lon="-1.07264">
        <ele>73.9</ele>
        <time>2020-12-20T09:53:30Z</time>
      </trkpt>
      <trkpt lat="47.84131" lon="-1.07261">
        <ele>73.9</ele>
        <time>2020-12-20T09:53:31Z</time>
      </trkpt>
      <trkpt lat="47.84131" lon="-1.07258">
        <ele>74</ele>
        <time>2020-12-20T09:53:32Z</time>
      </trkpt>
      <trkpt lat="47.84131" lon="-1.07255">
        <ele>74</ele>
        <time>2020-12-20T09:53:33Z</time>
      </trkpt>
      <trkpt lat="47.8413" lon="-1.07253">
        <ele>74</ele>
        <time>2020-12-20T09:53:34Z</time>
      </trkpt>
      <trkpt lat="47.8413" lon="-1.07251">
        <ele>74</ele>
        <time>2020-12-20T09:53:35Z</time>
      </trkpt>
      <trkpt lat="47.8413" lon="-1.07249">
        <ele>74.1</ele>
        <time>2020-12-20T09:53:36Z</time>
      </trkpt>
      <trkpt lat="47.8413" lon="-1.07246">
        <ele>74.1</ele>
        <time>2020-12-20T09:53:37Z</time>
      </trkpt>
      <trkpt lat="47.8413" lon="-1.07244">
        <ele>74.2</ele>
        <time>2020-12-20T09:53:38Z</time>
      </trkpt>
      <trkpt lat="47.8413" lon="-1.07243">
        <ele>74.2</ele>
        <time>2020-12-20T09:53:39Z</time>
      </trkpt>
      <trkpt lat="47.8413" lon="-1.07241">
        <ele>74.3</ele>
        <time>2020-12-20T09:53:40Z</time>
      </trkpt>
      <trkpt lat="47.8413" lon="-1.07239">
        <ele>74.3</ele>
        <time>2020-12-20T09:53:41Z</time>
      </trkpt>
      <trkpt lat="47.84129" lon="-1.07237">
        <ele>74.2</ele>
        <time>2020-12-20T09:53:42Z</time>
      </trkpt>
      <trkpt lat="47.84129" lon="-1.07236">
        <ele>74.3</ele>
        <time>2020-12-20T09:53:43Z</time>
      </trkpt>
      <trkpt lat="47.84128" lon="-1.07235">
        <ele>74.2</ele>
        <time>2020-12-20T09:53:44Z</time>
      </trkpt>
      <trkpt lat="47.84128" lon="-1.07234">
        <ele>74.2</ele>
        <time>2020-12-20T09:53:45Z</time>
      </trkpt>
      <trkpt lat="47.84131" lon="-1.07231">
        <ele>74.6</ele>
        <time>2020-12-20T09:57:10Z</time>
      </trkpt>
      <trkpt lat="47.84131" lon="-1.07231">
        <ele>74.6</ele>
        <time>2020-12-20T09:57:11Z</time>
      </trkpt>
      <trkpt lat="47.84131" lon="-1.07231">
        <ele>74.6</ele>
        <time>2020-12-20T09:57:12Z</time>
      </trkpt>
      <trkpt lat="47.84131" lon="-1.07231">
        <ele>74.6</ele>
        <time>2020-12-20T09:57:13Z</time>
      </trkpt>
      <trkpt lat="47.84131" lon="-1.0723">
        <ele>74.6</ele>
        <time>2020-12-20T09:57:14Z</time>
      </trkpt>
      <trkpt lat="47.8413" lon="-1.07229">
        <ele>74.5</ele>
        <time>2020-12-20T09:57:15Z</time>
      </trkpt>
      <trkpt lat="47.8413" lon="-1.07227">
        <ele>74.6</ele>
        <time>2020-12-20T09:57:16Z</time>
      </trkpt>
      <trkpt lat="47.84131" lon="-1.07226">
        <ele>74.7</ele>
        <time>2020-12-20T09:57:17Z</time>
      </trkpt>
      <trkpt lat="47.84131" lon="-1.07226">
        <ele>74.7</ele>
        <time>2020-12-20T09:57:20Z</time>
      </trkpt>
      <trkpt lat="47.84131" lon="-1.07223">
        <ele>74.8</ele>
        <time>2020-12-20T09:57:21Z</time>
      </trkpt>
      <trkpt lat="47.8413" lon="-1.0722">
        <ele>74.8</ele>
        <time>2020-12-20T09:57:22Z</time>
      </trkpt>
      <trkpt lat="47.8413" lon="-1.07216">
        <ele>74.9</ele>
        <time>2020-12-20T09:57:23Z</time>
      </trkpt>
      <trkpt lat="47.84131" lon="-1.07212">
        <ele>75.1</ele>
        <time>2020-12-20T09:57:24Z</time>
      </trkpt>
      <trkpt lat="47.8413" lon="-1.07208">
        <ele>75</ele>
        <time>2020-12-20T09:57:25Z</time>
      </trkpt>
      <trkpt lat="47.8413" lon="-1.07202">
        <ele>75.2</ele>
        <time>2020-12-20T09:57:26Z</time>
      </trkpt>
      <trkpt lat="47.8413" lon="-1.07195">
        <ele>75.4</ele>
        <time>2020-12-20T09:57:27Z</time>
      </trkpt>
      <trkpt lat="47.8413" lon="-1.07189">
        <ele>75.5</ele>
        <time>2020-12-20T09:57:28Z</time>
      </trkpt>
      <trkpt lat="47.8413" lon="-1.07182">
        <ele>75.7</ele>
        <time>2020-12-20T09:57:29Z</time>
      </trkpt>
      <trkpt lat="47.8413" lon="-1.07176">
        <ele>75.8</ele>
        <time>2020-12-20T09:57:30Z</time>
      </trkpt>
      <trkpt lat="47.8413" lon="-1.07169">
        <ele>76</ele>
        <time>2020-12-20T09:57:31Z</time>
      </trkpt>
      <trkpt lat="47.8413" lon="-1.07163">
        <ele>76</ele>
        <time>2020-12-20T09:57:32Z</time>
      </trkpt>
      <trkpt lat="47.8413" lon="-1.07157">
        <ele>76</ele>
        <time>2020-12-20T09:57:33Z</time>
      </trkpt>
      <trkpt lat="47.8413" lon="-1.0715">
        <ele>76</ele>
        <time>2020-12-20T09:57:34Z</time>
      </trkpt>
      <trkpt lat="47.84129" lon="-1.07144">
        <ele>75.9</ele>
        <time>2020-12-20T09:57:35Z</time>
      </trkpt>
      <trkpt lat="47.84129" lon="-1.07137">
        <ele>75.9</ele>
        <time>2020-12-20T09:57:36Z</time>
      </trkpt>
      <trkpt lat="47.84129" lon="-1.07131">
        <ele>75.9</ele>
        <time>2020-12-20T09:57:37Z</time>
      </trkpt>
      <trkpt lat="47.84128" lon="-1.07124">
        <ele>75.8</ele>
        <time>2020-12-20T09:57:38Z</time>
      </trkpt>
      <trkpt lat="47.84128" lon="-1.07118">
        <ele>75.8</ele>
        <time>2020-12-20T09:57:39Z</time>
      </trkpt>
      <trkpt lat="47.84129" lon="-1.07111">
        <ele>75.9</ele>
        <time>2020-12-20T09:57:40Z</time>
      </trkpt>
      <trkpt lat="47.84128" lon="-1.07104">
        <ele>75.8</ele>
        <time>2020-12-20T09:57:41Z</time>
      </trkpt>
      <trkpt lat="47.84128" lon="-1.07097">
        <ele>75.8</ele>
        <time>2020-12-20T09:57:42Z</time>
      </trkpt>
      <trkpt lat="47.84128" lon="-1.0709">
        <ele>75.8</ele>
        <time>2020-12-20T09:57:43Z</time>
      </trkpt>
      <trkpt lat="47.84128" lon="-1.07083">
        <ele>75.8</ele>
        <time>2020-12-20T09:57:44Z</time>
      </trkpt>
      <trkpt lat="47.84128" lon="-1.07076">
        <ele>75.7</ele>
        <time>2020-12-20T09:57:45Z</time>
      </trkpt>
      <trkpt lat="47.84128" lon="-1.07069">
        <ele>75.7</ele>
        <time>2020-12-20T09:57:46Z</time>
      </trkpt>
      <trkpt lat="47.84127" lon="-1.07062">
        <ele>75.5</ele>
        <time>2020-12-20T09:57:47Z</time>
      </trkpt>
      <trkpt lat="47.84127" lon="-1.07055">
        <ele>75.5</ele>
        <time>2020-12-20T09:57:48Z</time>
      </trkpt>
      <trkpt lat="47.84127" lon="-1.07047">
        <ele>75.5</ele>
        <time>2020-12-20T09:57:49Z</time>
      </trkpt>
      <trkpt lat="47.84127" lon="-1.0704">
        <ele>75.4</ele>
        <time>2020-12-20T09:57:50Z</time>
      </trkpt>
      <trkpt lat="47.84127" lon="-1.07033">
        <ele>75.4</ele>
        <time>2020-12-20T09:57:51Z</time>
      </trkpt>
      <trkpt lat="47.84127" lon="-1.07025">
        <ele>75.3</ele>
        <time>2020-12-20T09:57:52Z</time>
      </trkpt>
      <trkpt lat="47.84127" lon="-1.07018">
        <ele>75.3</ele>
        <time>2020-12-20T09:57:53Z</time>
      </trkpt>
      <trkpt lat="47.84127" lon="-1.0701">
        <ele>75.2</ele>
        <time>2020-12-20T09:57:54Z</time>
      </trkpt>
      <trkpt lat="47.84127" lon="-1.07003">
        <ele>75.2</ele>
        <time>2020-12-20T09:57:55Z</time>
      </trkpt>
      <trkpt lat="47.84127" lon="-1.06995">
        <ele>75.2</ele>
        <time>2020-12-20T09:57:56Z</time>
      </trkpt>
      <trkpt lat="47.84127" lon="-1.06987">
        <ele>75.1</ele>
        <time>2020-12-20T09:57:57Z</time>
      </trkpt>
      <trkpt lat="47.84127" lon="-1.06979">
        <ele>75</ele>
        <time>2020-12-20T09:57:58Z</time>
      </trkpt>
      <trkpt lat="47.84127" lon="-1.06971">
        <ele>75</ele>
        <time>2020-12-20T09:57:59Z</time>
      </trkpt>
      <trkpt lat="47.84127" lon="-1.06963">
        <ele>74.9</ele>
        <time>2020-12-20T09:58:00Z</time>
      </trkpt>
      <trkpt lat="47.84127" lon="-1.06956">
        <ele>74.9</ele>
        <time>2020-12-20T09:58:01Z</time>
      </trkpt>
      <trkpt lat="47.84127" lon="-1.06948">
        <ele>74.8</ele>
        <time>2020-12-20T09:58:02Z</time>
      </trkpt>
      <trkpt lat="47.84127" lon="-1.0694">
        <ele>74.8</ele>
        <time>2020-12-20T09:58:03Z</time>
      </trkpt>
      <trkpt lat="47.84126" lon="-1.06933">
        <ele>74.7</ele>
        <time>2020-12-20T09:58:04Z</time>
      </trkpt>
      <trkpt lat="47.84126" lon="-1.06926">
        <ele>74.6</ele>
        <time>2020-12-20T09:58:05Z</time>
      </trkpt>
      <trkpt lat="47.84127" lon="-1.0692">
        <ele>74.6</ele>
        <time>2020-12-20T09:58:06Z</time>
      </trkpt>
      <trkpt lat="47.84127" lon="-1.06913">
        <ele>74.7</ele>
        <time>2020-12-20T09:58:07Z</time>
      </trkpt>
      <trkpt lat="47.84126" lon="-1.06907">
        <ele>74.7</ele>
        <time>2020-12-20T09:58:08Z</time>
      </trkpt>
      <trkpt lat="47.84124" lon="-1.06902">
        <ele>74.7</ele>
        <time>2020-12-20T09:58:09Z</time>
      </trkpt>
      <trkpt lat="47.84121" lon="-1.06899">
        <ele>74.6</ele>
        <time>2020-12-20T09:58:10Z</time>
      </trkpt>
      <trkpt lat="47.84118" lon="-1.06898">
        <ele>74.4</ele>
        <time>2020-12-20T09:58:11Z</time>
      </trkpt>
      <trkpt lat="47.84113" lon="-1.06897">
        <ele>74.2</ele>
        <time>2020-12-20T09:58:12Z</time>
      </trkpt>
      <trkpt lat="47.84108" lon="-1.06895">
        <ele>73.9</ele>
        <time>2020-12-20T09:58:13Z</time>
      </trkpt>
      <trkpt lat="47.84103" lon="-1.06894">
        <ele>73.7</ele>
        <time>2020-12-20T09:58:14Z</time>
      </trkpt>
      <trkpt lat="47.84098" lon="-1.06893">
        <ele>73.4</ele>
        <time>2020-12-20T09:58:15Z</time>
      </trkpt>
      <trkpt lat="47.84093" lon="-1.06891">
        <ele>73.2</ele>
        <time>2020-12-20T09:58:16Z</time>
      </trkpt>
      <trkpt lat="47.84087" lon="-1.0689">
        <ele>72.8</ele>
        <time>2020-12-20T09:58:17Z</time>
      </trkpt>
      <trkpt lat="47.84081" lon="-1.06888">
        <ele>72.5</ele>
        <time>2020-12-20T09:58:18Z</time>
      </trkpt>
      <trkpt lat="47.84075" lon="-1.06887">
        <ele>72.1</ele>
        <time>2020-12-20T09:58:19Z</time>
      </trkpt>
      <trkpt lat="47.84069" lon="-1.06885">
        <ele>71.8</ele>
        <time>2020-12-20T09:58:20Z</time>
      </trkpt>
      <trkpt lat="47.84062" lon="-1.06883">
        <ele>71.4</ele>
        <time>2020-12-20T09:58:21Z</time>
      </trkpt>
      <trkpt lat="47.84057" lon="-1.06882">
        <ele>71.1</ele>
        <time>2020-12-20T09:58:22Z</time>
      </trkpt>
      <trkpt lat="47.8405" lon="-1.0688">
        <ele>70.7</ele>
        <time>2020-12-20T09:58:23Z</time>
      </trkpt>
      <trkpt lat="47.84044" lon="-1.06879">
        <ele>70.3</ele>
        <time>2020-12-20T09:58:24Z</time>
      </trkpt>
      <trkpt lat="47.84038" lon="-1.06877">
        <ele>69.9</ele>
        <time>2020-12-20T09:58:25Z</time>
      </trkpt>
      <trkpt lat="47.84032" lon="-1.06875">
        <ele>69.6</ele>
        <time>2020-12-20T09:58:26Z</time>
      </trkpt>
      <trkpt lat="47.84026" lon="-1.06874">
        <ele>69.2</ele>
        <time>2020-12-20T09:58:27Z</time>
      </trkpt>
      <trkpt lat="47.8402" lon="-1.06872">
        <ele>68.9</ele>
        <time>2020-12-20T09:58:28Z</time>
      </trkpt>
      <trkpt lat="47.84014" lon="-1.0687">
        <ele>68.6</ele>
        <time>2020-12-20T09:58:29Z</time>
      </trkpt>
      <trkpt lat="47.84009" lon="-1.06868">
        <ele>68.3</ele>
        <time>2020-12-20T09:58:30Z</time>
      </trkpt>
      <trkpt lat="47.84003" lon="-1.06866">
        <ele>68</ele>
        <time>2020-12-20T09:58:31Z</time>
      </trkpt>
      <trkpt lat="47.83997" lon="-1.06864">
        <ele>67.8</ele>
        <time>2020-12-20T09:58:32Z</time>
      </trkpt>
      <trkpt lat="47.83991" lon="-1.06862">
        <ele>67.6</ele>
        <time>2020-12-20T09:58:33Z</time>
      </trkpt>
      <trkpt lat="47.83986" lon="-1.0686">
        <ele>67.4</ele>
        <time>2020-12-20T09:58:34Z</time>
      </trkpt>
      <trkpt lat="47.8398" lon="-1.06858">
        <ele>67.2</ele>
        <time>2020-12-20T09:58:35Z</time>
      </trkpt>
      <trkpt lat="47.83975" lon="-1.06856">
        <ele>67</ele>
        <time>2020-12-20T09:58:36Z</time>
      </trkpt>
      <trkpt lat="47.83971" lon="-1.06855">
        <ele>66.8</ele>
        <time>2020-12-20T09:58:37Z</time>
      </trkpt>
      <trkpt lat="47.83966" lon="-1.06853">
        <ele>66.6</ele>
        <time>2020-12-20T09:58:38Z</time>
      </trkpt>
      <trkpt lat="47.83961" lon="-1.06851">
        <ele>66.4</ele>
        <time>2020-12-20T09:58:39Z</time>
      </trkpt>
      <trkpt lat="47.83955" lon="-1.06849">
        <ele>66.1</ele>
        <time>2020-12-20T09:58:40Z</time>
      </trkpt>
      <trkpt lat="47.8395" lon="-1.06847">
        <ele>65.9</ele>
        <time>2020-12-20T09:58:41Z</time>
      </trkpt>
      <trkpt lat="47.83944" lon="-1.06845">
        <ele>65.6</ele>
        <time>2020-12-20T09:58:42Z</time>
      </trkpt>
      <trkpt lat="47.83938" lon="-1.06843">
        <ele>65.3</ele>
        <time>2020-12-20T09:58:43Z</time>
      </trkpt>
      <trkpt lat="47.83933" lon="-1.06841">
        <ele>65</ele>
        <time>2020-12-20T09:58:44Z</time>
      </trkpt>
      <trkpt lat="47.83926" lon="-1.06839">
        <ele>64.6</ele>
        <time>2020-12-20T09:58:45Z</time>
      </trkpt>
      <trkpt lat="47.83921" lon="-1.06836">
        <ele>64.3</ele>
        <time>2020-12-20T09:58:46Z</time>
      </trkpt>
      <trkpt lat="47.83916" lon="-1.06835">
        <ele>64</ele>
        <time>2020-12-20T09:58:47Z</time>
      </trkpt>
      <trkpt lat="47.83911" lon="-1.06833">
        <ele>64</ele>
        <time>2020-12-20T09:58:48Z</time>
      </trkpt>
      <trkpt lat="47.83907" lon="-1.0683">
        <ele>64</ele>
        <time>2020-12-20T09:58:49Z</time>
      </trkpt>
      <trkpt lat="47.83902" lon="-1.06827">
        <ele>64</ele>
        <time>2020-12-20T09:58:50Z</time>
      </trkpt>
      <trkpt lat="47.83898" lon="-1.06824">
        <ele>64.1</ele>
        <time>2020-12-20T09:58:51Z</time>
      </trkpt>
      <trkpt lat="47.83894" lon="-1.0682">
        <ele>64.1</ele>
        <time>2020-12-20T09:58:52Z</time>
      </trkpt>
      <trkpt lat="47.8389" lon="-1.06818">
        <ele>64.1</ele>
        <time>2020-12-20T09:58:53Z</time>
      </trkpt>
      <trkpt lat="47.83886" lon="-1.06816">
        <ele>64.1</ele>
        <time>2020-12-20T09:58:54Z</time>
      </trkpt>
      <trkpt lat="47.83881" lon="-1.06814">
        <ele>64</ele>
        <time>2020-12-20T09:58:55Z</time>
      </trkpt>
      <trkpt lat="47.83877" lon="-1.06813">
        <ele>64</ele>
        <time>2020-12-20T09:58:56Z</time>
      </trkpt>
      <trkpt lat="47.83874" lon="-1.06812">
        <ele>64</ele>
        <time>2020-12-20T09:58:57Z</time>
      </trkpt>
      <trkpt lat="47.8387" lon="-1.06811">
        <ele>64</ele>
        <time>2020-12-20T09:58:58Z</time>
      </trkpt>
      <trkpt lat="47.83866" lon="-1.0681">
        <ele>63.9</ele>
        <time>2020-12-20T09:58:59Z</time>
      </trkpt>
      <trkpt lat="47.83862" lon="-1.06809">
        <ele>63.9</ele>
        <time>2020-12-20T09:59:00Z</time>
      </trkpt>
      <trkpt lat="47.83858" lon="-1.06807">
        <ele>63.9</ele>
        <time>2020-12-20T09:59:01Z</time>
      </trkpt>
      <trkpt lat="47.83854" lon="-1.06806">
        <ele>63.8</ele>
        <time>2020-12-20T09:59:02Z</time>
      </trkpt>
      <trkpt lat="47.83851" lon="-1.06804">
        <ele>63.8</ele>
        <time>2020-12-20T09:59:03Z</time>
      </trkpt>
      <trkpt lat="47.83847" lon="-1.06802">
        <ele>63.7</ele>
        <time>2020-12-20T09:59:04Z</time>
      </trkpt>
      <trkpt lat="47.83843" lon="-1.068">
        <ele>63.7</ele>
        <time>2020-12-20T09:59:05Z</time>
      </trkpt>
      <trkpt lat="47.83839" lon="-1.06799">
        <ele>63.6</ele>
        <time>2020-12-20T09:59:06Z</time>
      </trkpt>
      <trkpt lat="47.83835" lon="-1.06797">
        <ele>63.6</ele>
        <time>2020-12-20T09:59:07Z</time>
      </trkpt>
      <trkpt lat="47.83832" lon="-1.06796">
        <ele>63.5</ele>
        <time>2020-12-20T09:59:08Z</time>
      </trkpt>
      <trkpt lat="47.83828" lon="-1.06794">
        <ele>63.5</ele>
        <time>2020-12-20T09:59:09Z</time>
      </trkpt>
      <trkpt lat="47.83824" lon="-1.06793">
        <ele>63.4</ele>
        <time>2020-12-20T09:59:10Z</time>
      </trkpt>
      <trkpt lat="47.83821" lon="-1.06792">
        <ele>63.4</ele>
        <time>2020-12-20T09:59:11Z</time>
      </trkpt>
      <trkpt lat="47.83817" lon="-1.0679">
        <ele>63.3</ele>
        <time>2020-12-20T09:59:12Z</time>
      </trkpt>
      <trkpt lat="47.83814" lon="-1.06789">
        <ele>63.2</ele>
        <time>2020-12-20T09:59:13Z</time>
      </trkpt>
      <trkpt lat="47.8381" lon="-1.06788">
        <ele>63.2</ele>
        <time>2020-12-20T09:59:14Z</time>
      </trkpt>
      <trkpt lat="47.83806" lon="-1.06787">
        <ele>63.1</ele>
        <time>2020-12-20T09:59:15Z</time>
      </trkpt>
      <trkpt lat="47.83803" lon="-1.06786">
        <ele>63.1</ele>
        <time>2020-12-20T09:59:16Z</time>
      </trkpt>
      <trkpt lat="47.838" lon="-1.06785">
        <ele>63</ele>
        <time>2020-12-20T09:59:17Z</time>
      </trkpt>
      <trkpt lat="47.83796" lon="-1.06784">
        <ele>63</ele>
        <time>2020-12-20T09:59:18Z</time>
      </trkpt>
      <trkpt lat="47.83793" lon="-1.06783">
        <ele>62.9</ele>
        <time>2020-12-20T09:59:19Z</time>
      </trkpt>
      <trkpt lat="47.83789" lon="-1.06782">
        <ele>62.9</ele>
        <time>2020-12-20T09:59:20Z</time>
      </trkpt>
      <trkpt lat="47.83786" lon="-1.06781">
        <ele>62.8</ele>
        <time>2020-12-20T09:59:21Z</time>
      </trkpt>
      <trkpt lat="47.83782" lon="-1.06779">
        <ele>62.7</ele>
        <time>2020-12-20T09:59:22Z</time>
      </trkpt>
      <trkpt lat="47.83778" lon="-1.06778">
        <ele>62.7</ele>
        <time>2020-12-20T09:59:23Z</time>
      </trkpt>
      <trkpt lat="47.83775" lon="-1.06776">
        <ele>62.6</ele>
        <time>2020-12-20T09:59:24Z</time>
      </trkpt>
      <trkpt lat="47.83771" lon="-1.06775">
        <ele>62.6</ele>
        <time>2020-12-20T09:59:25Z</time>
      </trkpt>
      <trkpt lat="47.83768" lon="-1.06773">
        <ele>62.5</ele>
        <time>2020-12-20T09:59:26Z</time>
      </trkpt>
      <trkpt lat="47.83765" lon="-1.06771">
        <ele>62.4</ele>
        <time>2020-12-20T09:59:27Z</time>
      </trkpt>
      <trkpt lat="47.83762" lon="-1.06768">
        <ele>62.4</ele>
        <time>2020-12-20T09:59:28Z</time>
      </trkpt>
      <trkpt lat="47.8376" lon="-1.06764">
        <ele>62.3</ele>
        <time>2020-12-20T09:59:29Z</time>
      </trkpt>
      <trkpt lat="47.83759" lon="-1.0676">
        <ele>62.2</ele>
        <time>2020-12-20T09:59:30Z</time>
      </trkpt>
      <trkpt lat="47.83759" lon="-1.06755">
        <ele>62.2</ele>
        <time>2020-12-20T09:59:31Z</time>
      </trkpt>
      <trkpt lat="47.8376" lon="-1.0675">
        <ele>62.1</ele>
        <time>2020-12-20T09:59:32Z</time>
      </trkpt>
      <trkpt lat="47.83761" lon="-1.06744">
        <ele>62.1</ele>
        <time>2020-12-20T09:59:33Z</time>
      </trkpt>
      <trkpt lat="47.83763" lon="-1.06739">
        <ele>62.2</ele>
        <time>2020-12-20T09:59:34Z</time>
      </trkpt>
      <trkpt lat="47.83764" lon="-1.06733">
        <ele>62.2</ele>
        <time>2020-12-20T09:59:35Z</time>
      </trkpt>
      <trkpt lat="47.83766" lon="-1.06727">
        <ele>62.2</ele>
        <time>2020-12-20T09:59:36Z</time>
      </trkpt>
      <trkpt lat="47.83767" lon="-1.06721">
        <ele>62.3</ele>
        <time>2020-12-20T09:59:37Z</time>
      </trkpt>
      <trkpt lat="47.83769" lon="-1.06716">
        <ele>62.3</ele>
        <time>2020-12-20T09:59:38Z</time>
      </trkpt>
      <trkpt lat="47.8377" lon="-1.0671">
        <ele>62.4</ele>
        <time>2020-12-20T09:59:39Z</time>
      </trkpt>
      <trkpt lat="47.83772" lon="-1.06705">
        <ele>62.4</ele>
        <time>2020-12-20T09:59:40Z</time>
      </trkpt>
      <trkpt lat="47.83774" lon="-1.06699">
        <ele>62.5</ele>
        <time>2020-12-20T09:59:41Z</time>
      </trkpt>
      <trkpt lat="47.83775" lon="-1.06694">
        <ele>62.5</ele>
        <time>2020-12-20T09:59:42Z</time>
      </trkpt>
      <trkpt lat="47.83776" lon="-1.06688">
        <ele>62.5</ele>
        <time>2020-12-20T09:59:43Z</time>
      </trkpt>
      <trkpt lat="47.83777" lon="-1.06683">
        <ele>62.6</ele>
        <time>2020-12-20T09:59:44Z</time>
      </trkpt>
      <trkpt lat="47.83779" lon="-1.06678">
        <ele>62.6</ele>
        <time>2020-12-20T09:59:45Z</time>
      </trkpt>
      <trkpt lat="47.8378" lon="-1.06672">
        <ele>62.7</ele>
        <time>2020-12-20T09:59:46Z</time>
      </trkpt>
      <trkpt lat="47.83781" lon="-1.06667">
        <ele>62.7</ele>
        <time>2020-12-20T09:59:47Z</time>
      </trkpt>
      <trkpt lat="47.83783" lon="-1.06662">
        <ele>62.8</ele>
        <time>2020-12-20T09:59:48Z</time>
      </trkpt>
      <trkpt lat="47.83784" lon="-1.06656">
        <ele>62.9</ele>
        <time>2020-12-20T09:59:49Z</time>
      </trkpt>
      <trkpt lat="47.83786" lon="-1.06651">
        <ele>62.9</ele>
        <time>2020-12-20T09:59:50Z</time>
      </trkpt>
      <trkpt lat="47.83787" lon="-1.06645">
        <ele>63</ele>
        <time>2020-12-20T09:59:51Z</time>
      </trkpt>
      <trkpt lat="47.83789" lon="-1.0664">
        <ele>63.1</ele>
        <time>2020-12-20T09:59:52Z</time>
      </trkpt>
      <trkpt lat="47.8379" lon="-1.06635">
        <ele>63.1</ele>
        <time>2020-12-20T09:59:53Z</time>
      </trkpt>
      <trkpt lat="47.83791" lon="-1.0663">
        <ele>63.2</ele>
        <time>2020-12-20T09:59:54Z</time>
      </trkpt>
      <trkpt lat="47.83793" lon="-1.06625">
        <ele>63.3</ele>
        <time>2020-12-20T09:59:55Z</time>
      </trkpt>
      <trkpt lat="47.83794" lon="-1.0662">
        <ele>63.4</ele>
        <time>2020-12-20T09:59:56Z</time>
      </trkpt>
      <trkpt lat="47.83795" lon="-1.06615">
        <ele>63.4</ele>
        <time>2020-12-20T09:59:57Z</time>
      </trkpt>
      <trkpt lat="47.83797" lon="-1.0661">
        <ele>63.5</ele>
        <time>2020-12-20T09:59:58Z</time>
      </trkpt>
      <trkpt lat="47.83798" lon="-1.06606">
        <ele>63.6</ele>
        <time>2020-12-20T09:59:59Z</time>
      </trkpt>
      <trkpt lat="47.838" lon="-1.06601">
        <ele>63.7</ele>
        <time>2020-12-20T10:00:00Z</time>
      </trkpt>
      <trkpt lat="47.83801" lon="-1.06597">
        <ele>63.7</ele>
        <time>2020-12-20T10:00:01Z</time>
      </trkpt>
      <trkpt lat="47.83803" lon="-1.06591">
        <ele>63.8</ele>
        <time>2020-12-20T10:00:02Z</time>
      </trkpt>
      <trkpt lat="47.83804" lon="-1.06586">
        <ele>63.9</ele>
        <time>2020-12-20T10:00:03Z</time>
      </trkpt>
      <trkpt lat="47.83805" lon="-1.06581">
        <ele>63.9</ele>
        <time>2020-12-20T10:00:04Z</time>
      </trkpt>
      <trkpt lat="47.83807" lon="-1.06576">
        <ele>63.8</ele>
        <time>2020-12-20T10:00:05Z</time>
      </trkpt>
      <trkpt lat="47.83807" lon="-1.0657">
        <ele>63.7</ele>
        <time>2020-12-20T10:00:06Z</time>
      </trkpt>
      <trkpt lat="47.83807" lon="-1.06566">
        <ele>63.6</ele>
        <time>2020-12-20T10:00:07Z</time>
      </trkpt>
      <trkpt lat="47.83806" lon="-1.06561">
        <ele>63.4</ele>
        <time>2020-12-20T10:00:08Z</time>
      </trkpt>
      <trkpt lat="47.83805" lon="-1.06556">
        <ele>63.2</ele>
        <time>2020-12-20T10:00:09Z</time>
      </trkpt>
      <trkpt lat="47.83804" lon="-1.0655">
        <ele>63</ele>
        <time>2020-12-20T10:00:10Z</time>
      </trkpt>
      <trkpt lat="47.83804" lon="-1.06544">
        <ele>62.9</ele>
        <time>2020-12-20T10:00:11Z</time>
      </trkpt>
      <trkpt lat="47.83806" lon="-1.06539">
        <ele>62.8</ele>
        <time>2020-12-20T10:00:12Z</time>
      </trkpt>
      <trkpt lat="47.83807" lon="-1.06533">
        <ele>62.6</ele>
        <time>2020-12-20T10:00:13Z</time>
      </trkpt>
      <trkpt lat="47.83809" lon="-1.06528">
        <ele>62.5</ele>
        <time>2020-12-20T10:00:14Z</time>
      </trkpt>
      <trkpt lat="47.8381" lon="-1.06522">
        <ele>62.4</ele>
        <time>2020-12-20T10:00:15Z</time>
      </trkpt>
      <trkpt lat="47.83811" lon="-1.06517">
        <ele>62.2</ele>
        <time>2020-12-20T10:00:16Z</time>
      </trkpt>
      <trkpt lat="47.83813" lon="-1.06511">
        <ele>62.1</ele>
        <time>2020-12-20T10:00:17Z</time>
      </trkpt>
      <trkpt lat="47.83814" lon="-1.06506">
        <ele>62</ele>
        <time>2020-12-20T10:00:18Z</time>
      </trkpt>
      <trkpt lat="47.83815" lon="-1.065">
        <ele>61.8</ele>
        <time>2020-12-20T10:00:19Z</time>
      </trkpt>
      <trkpt lat="47.83817" lon="-1.06495">
        <ele>61.7</ele>
        <time>2020-12-20T10:00:20Z</time>
      </trkpt>
      <trkpt lat="47.83818" lon="-1.06489">
        <ele>61.6</ele>
        <time>2020-12-20T10:00:21Z</time>
      </trkpt>
      <trkpt lat="47.83819" lon="-1.06484">
        <ele>61.5</ele>
        <time>2020-12-20T10:00:22Z</time>
      </trkpt>
      <trkpt lat="47.8382" lon="-1.06478">
        <ele>61.4</ele>
        <time>2020-12-20T10:00:23Z</time>
      </trkpt>
      <trkpt lat="47.83822" lon="-1.06472">
        <ele>61.3</ele>
        <time>2020-12-20T10:00:24Z</time>
      </trkpt>
      <trkpt lat="47.83823" lon="-1.06467">
        <ele>61.2</ele>
        <time>2020-12-20T10:00:25Z</time>
      </trkpt>
      <trkpt lat="47.83824" lon="-1.06462">
        <ele>61.1</ele>
        <time>2020-12-20T10:00:26Z</time>
      </trkpt>
      <trkpt lat="47.83826" lon="-1.06456">
        <ele>60.9</ele>
        <time>2020-12-20T10:00:27Z</time>
      </trkpt>
      <trkpt lat="47.83827" lon="-1.0645">
        <ele>60.8</ele>
        <time>2020-12-20T10:00:28Z</time>
      </trkpt>
      <trkpt lat="47.83829" lon="-1.06445">
        <ele>60.7</ele>
        <time>2020-12-20T10:00:29Z</time>
      </trkpt>
      <trkpt lat="47.8383" lon="-1.0644">
        <ele>60.6</ele>
        <time>2020-12-20T10:00:30Z</time>
      </trkpt>
      <trkpt lat="47.83831" lon="-1.06435">
        <ele>60.5</ele>
        <time>2020-12-20T10:00:31Z</time>
      </trkpt>
      <trkpt lat="47.83832" lon="-1.0643">
        <ele>60.3</ele>
        <time>2020-12-20T10:00:32Z</time>
      </trkpt>
      <trkpt lat="47.83833" lon="-1.06424">
        <ele>60.2</ele>
        <time>2020-12-20T10:00:33Z</time>
      </trkpt>
      <trkpt lat="47.83835" lon="-1.06419">
        <ele>60.1</ele>
        <time>2020-12-20T10:00:34Z</time>
      </trkpt>
      <trkpt lat="47.83836" lon="-1.06413">
        <ele>60.2</ele>
        <time>2020-12-20T10:00:35Z</time>
      </trkpt>
      <trkpt lat="47.83837" lon="-1.06408">
        <ele>60.3</ele>
        <time>2020-12-20T10:00:36Z</time>
      </trkpt>
      <trkpt lat="47.83838" lon="-1.06403">
        <ele>60.4</ele>
        <time>2020-12-20T10:00:37Z</time>
      </trkpt>
      <trkpt lat="47.83839" lon="-1.06398">
        <ele>60.5</ele>
        <time>2020-12-20T10:00:38Z</time>
      </trkpt>
      <trkpt lat="47.83841" lon="-1.06392">
        <ele>60.6</ele>
        <time>2020-12-20T10:00:39Z</time>
      </trkpt>
      <trkpt lat="47.83842" lon="-1.06387">
        <ele>60.7</ele>
        <time>2020-12-20T10:00:40Z</time>
      </trkpt>
      <trkpt lat="47.83845" lon="-1.06376">
        <ele>60.9</ele>
        <time>2020-12-20T10:00:42Z</time>
      </trkpt>
      <trkpt lat="47.83846" lon="-1.06371">
        <ele>61</ele>
        <time>2020-12-20T10:00:43Z</time>
      </trkpt>
      <trkpt lat="47.83848" lon="-1.06365">
        <ele>61.1</ele>
        <time>2020-12-20T10:00:44Z</time>
      </trkpt>
      <trkpt lat="47.83849" lon="-1.0636">
        <ele>61.2</ele>
        <time>2020-12-20T10:00:45Z</time>
      </trkpt>
      <trkpt lat="47.83851" lon="-1.06354">
        <ele>61.3</ele>
        <time>2020-12-20T10:00:46Z</time>
      </trkpt>
      <trkpt lat="47.83852" lon="-1.06349">
        <ele>61.3</ele>
        <time>2020-12-20T10:00:47Z</time>
      </trkpt>
      <trkpt lat="47.83855" lon="-1.06338">
        <ele>61.5</ele>
        <time>2020-12-20T10:00:49Z</time>
      </trkpt>
      <trkpt lat="47.83856" lon="-1.06332">
        <ele>61.5</ele>
        <time>2020-12-20T10:00:50Z</time>
      </trkpt>
      <trkpt lat="47.83857" lon="-1.06327">
        <ele>61.5</ele>
        <time>2020-12-20T10:00:51Z</time>
      </trkpt>
      <trkpt lat="47.83858" lon="-1.06322">
        <ele>61.6</ele>
        <time>2020-12-20T10:00:52Z</time>
      </trkpt>
      <trkpt lat="47.83859" lon="-1.06317">
        <ele>61.6</ele>
        <time>2020-12-20T10:00:53Z</time>
      </trkpt>
      <trkpt lat="47.8386" lon="-1.06312">
        <ele>61.6</ele>
        <time>2020-12-20T10:00:54Z</time>
      </trkpt>
      <trkpt lat="47.83862" lon="-1.06307">
        <ele>61.6</ele>
        <time>2020-12-20T10:00:55Z</time>
      </trkpt>
      <trkpt lat="47.83862" lon="-1.06301">
        <ele>61.6</ele>
        <time>2020-12-20T10:00:56Z</time>
      </trkpt>
      <trkpt lat="47.83863" lon="-1.06296">
        <ele>61.6</ele>
        <time>2020-12-20T10:00:57Z</time>
      </trkpt>
      <trkpt lat="47.83864" lon="-1.06291">
        <ele>61.5</ele>
        <time>2020-12-20T10:00:58Z</time>
      </trkpt>
      <trkpt lat="47.83865" lon="-1.06286">
        <ele>61.5</ele>
        <time>2020-12-20T10:00:59Z</time>
      </trkpt>
      <trkpt lat="47.83866" lon="-1.06281">
        <ele>61.5</ele>
        <time>2020-12-20T10:01:00Z</time>
      </trkpt>
      <trkpt lat="47.83867" lon="-1.06276">
        <ele>61.5</ele>
        <time>2020-12-20T10:01:01Z</time>
      </trkpt>
      <trkpt lat="47.83868" lon="-1.0627">
        <ele>61.5</ele>
        <time>2020-12-20T10:01:02Z</time>
      </trkpt>
      <trkpt lat="47.83869" lon="-1.06266">
        <ele>61.5</ele>
        <time>2020-12-20T10:01:03Z</time>
      </trkpt>
      <trkpt lat="47.8387" lon="-1.06261">
        <ele>61.5</ele>
        <time>2020-12-20T10:01:04Z</time>
      </trkpt>
      <trkpt lat="47.8387" lon="-1.06257">
        <ele>61.5</ele>
        <time>2020-12-20T10:01:05Z</time>
      </trkpt>
      <trkpt lat="47.8387" lon="-1.06253">
        <ele>61.5</ele>
        <time>2020-12-20T10:01:06Z</time>
      </trkpt>
      <trkpt lat="47.8387" lon="-1.06249">
        <ele>61.5</ele>
        <time>2020-12-20T10:01:07Z</time>
      </trkpt>
      <trkpt lat="47.83869" lon="-1.06245">
        <ele>61.5</ele>
        <time>2020-12-20T10:01:08Z</time>
      </trkpt>
      <trkpt lat="47.83867" lon="-1.06242">
        <ele>61.5</ele>
        <time>2020-12-20T10:01:09Z</time>
      </trkpt>
      <trkpt lat="47.83865" lon="-1.06239">
        <ele>61.5</ele>
        <time>2020-12-20T10:01:10Z</time>
      </trkpt>
      <trkpt lat="47.83861" lon="-1.06237">
        <ele>61.5</ele>
        <time>2020-12-20T10:01:11Z</time>
      </trkpt>
      <trkpt lat="47.83858" lon="-1.06235">
        <ele>61.5</ele>
        <time>2020-12-20T10:01:12Z</time>
      </trkpt>
      <trkpt lat="47.83854" lon="-1.06233">
        <ele>61.6</ele>
        <time>2020-12-20T10:01:13Z</time>
      </trkpt>
      <trkpt lat="47.83851" lon="-1.06232">
        <ele>61.6</ele>
        <time>2020-12-20T10:01:14Z</time>
      </trkpt>
      <trkpt lat="47.83848" lon="-1.0623">
        <ele>61.6</ele>
        <time>2020-12-20T10:01:15Z</time>
      </trkpt>
      <trkpt lat="47.83845" lon="-1.06228">
        <ele>61.6</ele>
        <time>2020-12-20T10:01:16Z</time>
      </trkpt>
      <trkpt lat="47.83841" lon="-1.06226">
        <ele>61.6</ele>
        <time>2020-12-20T10:01:17Z</time>
      </trkpt>
      <trkpt lat="47.83838" lon="-1.06225">
        <ele>61.6</ele>
        <time>2020-12-20T10:01:18Z</time>
      </trkpt>
      <trkpt lat="47.83835" lon="-1.06223">
        <ele>61.7</ele>
        <time>2020-12-20T10:01:19Z</time>
      </trkpt>
      <trkpt lat="47.83831" lon="-1.06221">
        <ele>61.7</ele>
        <time>2020-12-20T10:01:20Z</time>
      </trkpt>
      <trkpt lat="47.83828" lon="-1.0622">
        <ele>61.6</ele>
        <time>2020-12-20T10:01:21Z</time>
      </trkpt>
      <trkpt lat="47.83825" lon="-1.06218">
        <ele>61.6</ele>
        <time>2020-12-20T10:01:22Z</time>
      </trkpt>
      <trkpt lat="47.83822" lon="-1.06217">
        <ele>61.6</ele>
        <time>2020-12-20T10:01:23Z</time>
      </trkpt>
      <trkpt lat="47.83819" lon="-1.06215">
        <ele>61.6</ele>
        <time>2020-12-20T10:01:24Z</time>
      </trkpt>
      <trkpt lat="47.83816" lon="-1.06213">
        <ele>61.6</ele>
        <time>2020-12-20T10:01:25Z</time>
      </trkpt>
      <trkpt lat="47.83813" lon="-1.06211">
        <ele>61.6</ele>
        <time>2020-12-20T10:01:26Z</time>
      </trkpt>
      <trkpt lat="47.8381" lon="-1.06209">
        <ele>61.6</ele>
        <time>2020-12-20T10:01:27Z</time>
      </trkpt>
      <trkpt lat="47.83807" lon="-1.06207">
        <ele>61.6</ele>
        <time>2020-12-20T10:01:28Z</time>
      </trkpt>
      <trkpt lat="47.83803" lon="-1.06206">
        <ele>61.5</ele>
        <time>2020-12-20T10:01:29Z</time>
      </trkpt>
      <trkpt lat="47.838" lon="-1.06203">
        <ele>61.5</ele>
        <time>2020-12-20T10:01:30Z</time>
      </trkpt>
      <trkpt lat="47.83797" lon="-1.06201">
        <ele>61.5</ele>
        <time>2020-12-20T10:01:31Z</time>
      </trkpt>
      <trkpt lat="47.83793" lon="-1.06199">
        <ele>61.4</ele>
        <time>2020-12-20T10:01:32Z</time>
      </trkpt>
      <trkpt lat="47.8379" lon="-1.06197">
        <ele>61.4</ele>
        <time>2020-12-20T10:01:33Z</time>
      </trkpt>
      <trkpt lat="47.83787" lon="-1.06195">
        <ele>61.4</ele>
        <time>2020-12-20T10:01:34Z</time>
      </trkpt>
      <trkpt lat="47.83784" lon="-1.06193">
        <ele>61.4</ele>
        <time>2020-12-20T10:01:35Z</time>
      </trkpt>
      <trkpt lat="47.83781" lon="-1.06191">
        <ele>61.3</ele>
        <time>2020-12-20T10:01:36Z</time>
      </trkpt>
      <trkpt lat="47.83778" lon="-1.06189">
        <ele>61.3</ele>
        <time>2020-12-20T10:01:37Z</time>
      </trkpt>
      <trkpt lat="47.83775" lon="-1.06188">
        <ele>61.3</ele>
        <time>2020-12-20T10:01:38Z</time>
      </trkpt>
      <trkpt lat="47.83772" lon="-1.06186">
        <ele>61.2</ele>
        <time>2020-12-20T10:01:39Z</time>
      </trkpt>
      <trkpt lat="47.83769" lon="-1.06185">
        <ele>61.2</ele>
        <time>2020-12-20T10:01:40Z</time>
      </trkpt>
      <trkpt lat="47.83766" lon="-1.06183">
        <ele>61.2</ele>
        <time>2020-12-20T10:01:41Z</time>
      </trkpt>
      <trkpt lat="47.83763" lon="-1.06182">
        <ele>61.1</ele>
        <time>2020-12-20T10:01:42Z</time>
      </trkpt>
      <trkpt lat="47.8376" lon="-1.0618">
        <ele>61.1</ele>
        <time>2020-12-20T10:01:43Z</time>
      </trkpt>
      <trkpt lat="47.83757" lon="-1.06178">
        <ele>61</ele>
        <time>2020-12-20T10:01:44Z</time>
      </trkpt>
      <trkpt lat="47.83754" lon="-1.06176">
        <ele>61</ele>
        <time>2020-12-20T10:01:45Z</time>
      </trkpt>
      <trkpt lat="47.83751" lon="-1.06175">
        <ele>60.9</ele>
        <time>2020-12-20T10:01:46Z</time>
      </trkpt>
      <trkpt lat="47.83749" lon="-1.06173">
        <ele>61</ele>
        <time>2020-12-20T10:01:47Z</time>
      </trkpt>
      <trkpt lat="47.83746" lon="-1.06171">
        <ele>61.1</ele>
        <time>2020-12-20T10:01:48Z</time>
      </trkpt>
      <trkpt lat="47.83743" lon="-1.06169">
        <ele>61.2</ele>
        <time>2020-12-20T10:01:49Z</time>
      </trkpt>
      <trkpt lat="47.8374" lon="-1.06168">
        <ele>61.3</ele>
        <time>2020-12-20T10:01:50Z</time>
      </trkpt>
      <trkpt lat="47.83737" lon="-1.06166">
        <ele>61.5</ele>
        <time>2020-12-20T10:01:51Z</time>
      </trkpt>
      <trkpt lat="47.83734" lon="-1.06164">
        <ele>61.6</ele>
        <time>2020-12-20T10:01:52Z</time>
      </trkpt>
      <trkpt lat="47.83732" lon="-1.06162">
        <ele>61.6</ele>
        <time>2020-12-20T10:01:53Z</time>
      </trkpt>
      <trkpt lat="47.83729" lon="-1.0616">
        <ele>61.8</ele>
        <time>2020-12-20T10:01:54Z</time>
      </trkpt>
      <trkpt lat="47.83726" lon="-1.06159">
        <ele>61.9</ele>
        <time>2020-12-20T10:01:55Z</time>
      </trkpt>
      <trkpt lat="47.83723" lon="-1.06158">
        <ele>62</ele>
        <time>2020-12-20T10:01:56Z</time>
      </trkpt>
      <trkpt lat="47.83721" lon="-1.06157">
        <ele>62</ele>
        <time>2020-12-20T10:01:57Z</time>
      </trkpt>
      <trkpt lat="47.83718" lon="-1.06155">
        <ele>62.2</ele>
        <time>2020-12-20T10:01:58Z</time>
      </trkpt>
      <trkpt lat="47.83716" lon="-1.06154">
        <ele>62.2</ele>
        <time>2020-12-20T10:01:59Z</time>
      </trkpt>
      <trkpt lat="47.83713" lon="-1.06153">
        <ele>62.3</ele>
        <time>2020-12-20T10:02:00Z</time>
      </trkpt>
      <trkpt lat="47.83711" lon="-1.06152">
        <ele>62.4</ele>
        <time>2020-12-20T10:02:01Z</time>
      </trkpt>
      <trkpt lat="47.83708" lon="-1.0615">
        <ele>62.5</ele>
        <time>2020-12-20T10:02:02Z</time>
      </trkpt>
      <trkpt lat="47.83706" lon="-1.06149">
        <ele>62.6</ele>
        <time>2020-12-20T10:02:03Z</time>
      </trkpt>
      <trkpt lat="47.83703" lon="-1.06148">
        <ele>62.7</ele>
        <time>2020-12-20T10:02:04Z</time>
      </trkpt>
      <trkpt lat="47.83701" lon="-1.06147">
        <ele>62.8</ele>
        <time>2020-12-20T10:02:05Z</time>
      </trkpt>
      <trkpt lat="47.83698" lon="-1.06145">
        <ele>62.9</ele>
        <time>2020-12-20T10:02:06Z</time>
      </trkpt>
      <trkpt lat="47.83696" lon="-1.06144">
        <ele>62.9</ele>
        <time>2020-12-20T10:02:07Z</time>
      </trkpt>
      <trkpt lat="47.83693" lon="-1.06143">
        <ele>63.1</ele>
        <time>2020-12-20T10:02:08Z</time>
      </trkpt>
      <trkpt lat="47.8369" lon="-1.06142">
        <ele>63.2</ele>
        <time>2020-12-20T10:02:09Z</time>
      </trkpt>
      <trkpt lat="47.83688" lon="-1.0614">
        <ele>63.2</ele>
        <time>2020-12-20T10:02:10Z</time>
      </trkpt>
      <trkpt lat="47.83685" lon="-1.06139">
        <ele>63.3</ele>
        <time>2020-12-20T10:02:11Z</time>
      </trkpt>
      <trkpt lat="47.83682" lon="-1.06137">
        <ele>63.4</ele>
        <time>2020-12-20T10:02:12Z</time>
      </trkpt>
      <trkpt lat="47.8368" lon="-1.06136">
        <ele>63.5</ele>
        <time>2020-12-20T10:02:13Z</time>
      </trkpt>
      <trkpt lat="47.83677" lon="-1.06135">
        <ele>63.6</ele>
        <time>2020-12-20T10:02:14Z</time>
      </trkpt>
      <trkpt lat="47.83674" lon="-1.06133">
        <ele>63.7</ele>
        <time>2020-12-20T10:02:15Z</time>
      </trkpt>
      <trkpt lat="47.83672" lon="-1.06132">
        <ele>63.8</ele>
        <time>2020-12-20T10:02:16Z</time>
      </trkpt>
      <trkpt lat="47.8367" lon="-1.06131">
        <ele>63.9</ele>
        <time>2020-12-20T10:02:17Z</time>
      </trkpt>
      <trkpt lat="47.83668" lon="-1.0613">
        <ele>64</ele>
        <time>2020-12-20T10:02:18Z</time>
      </trkpt>
      <trkpt lat="47.83666" lon="-1.06128">
        <ele>64</ele>
        <time>2020-12-20T10:02:19Z</time>
      </trkpt>
      <trkpt lat="47.83663" lon="-1.06127">
        <ele>64</ele>
        <time>2020-12-20T10:02:20Z</time>
      </trkpt>
      <trkpt lat="47.8366" lon="-1.06125">
        <ele>64.1</ele>
        <time>2020-12-20T10:02:21Z</time>
      </trkpt>
      <trkpt lat="47.83658" lon="-1.06124">
        <ele>64.1</ele>
        <time>2020-12-20T10:02:22Z</time>
      </trkpt>
      <trkpt lat="47.83656" lon="-1.06123">
        <ele>64.1</ele>
        <time>2020-12-20T10:02:23Z</time>
      </trkpt>
      <trkpt lat="47.83653" lon="-1.06121">
        <ele>64.2</ele>
        <time>2020-12-20T10:02:24Z</time>
      </trkpt>
      <trkpt lat="47.83651" lon="-1.0612">
        <ele>64.2</ele>
        <time>2020-12-20T10:02:25Z</time>
      </trkpt>
      <trkpt lat="47.83648" lon="-1.06119">
        <ele>64.2</ele>
        <time>2020-12-20T10:02:26Z</time>
      </trkpt>
      <trkpt lat="47.83647" lon="-1.06118">
        <ele>64.2</ele>
        <time>2020-12-20T10:02:27Z</time>
      </trkpt>
      <trkpt lat="47.83644" lon="-1.06117">
        <ele>64.3</ele>
        <time>2020-12-20T10:02:28Z</time>
      </trkpt>
      <trkpt lat="47.83642" lon="-1.06115">
        <ele>64.3</ele>
        <time>2020-12-20T10:02:29Z</time>
      </trkpt>
      <trkpt lat="47.8364" lon="-1.06114">
        <ele>64.3</ele>
        <time>2020-12-20T10:02:30Z</time>
      </trkpt>
      <trkpt lat="47.83638" lon="-1.06113">
        <ele>64.3</ele>
        <time>2020-12-20T10:02:31Z</time>
      </trkpt>
      <trkpt lat="47.83635" lon="-1.06112">
        <ele>64.4</ele>
        <time>2020-12-20T10:02:32Z</time>
      </trkpt>
      <trkpt lat="47.83633" lon="-1.06111">
        <ele>64.4</ele>
        <time>2020-12-20T10:02:33Z</time>
      </trkpt>
      <trkpt lat="47.8363" lon="-1.0611">
        <ele>64.4</ele>
        <time>2020-12-20T10:02:34Z</time>
      </trkpt>
      <trkpt lat="47.83628" lon="-1.06109">
        <ele>64.5</ele>
        <time>2020-12-20T10:02:35Z</time>
      </trkpt>
      <trkpt lat="47.83625" lon="-1.06107">
        <ele>64.5</ele>
        <time>2020-12-20T10:02:36Z</time>
      </trkpt>
      <trkpt lat="47.83622" lon="-1.06106">
        <ele>64.5</ele>
        <time>2020-12-20T10:02:37Z</time>
      </trkpt>
      <trkpt lat="47.8362" lon="-1.06104">
        <ele>64.6</ele>
        <time>2020-12-20T10:02:38Z</time>
      </trkpt>
      <trkpt lat="47.83618" lon="-1.06103">
        <ele>64.6</ele>
        <time>2020-12-20T10:02:39Z</time>
      </trkpt>
      <trkpt lat="47.83616" lon="-1.06102">
        <ele>64.6</ele>
        <time>2020-12-20T10:02:40Z</time>
      </trkpt>
      <trkpt lat="47.83613" lon="-1.06101">
        <ele>64.6</ele>
        <time>2020-12-20T10:02:41Z</time>
      </trkpt>
      <trkpt lat="47.83611" lon="-1.06099">
        <ele>64.7</ele>
        <time>2020-12-20T10:02:42Z</time>
      </trkpt>
      <trkpt lat="47.83609" lon="-1.06098">
        <ele>64.7</ele>
        <time>2020-12-20T10:02:43Z</time>
      </trkpt>
      <trkpt lat="47.83607" lon="-1.06097">
        <ele>64.7</ele>
        <time>2020-12-20T10:02:44Z</time>
      </trkpt>
      <trkpt lat="47.83604" lon="-1.06095">
        <ele>64.8</ele>
        <time>2020-12-20T10:02:45Z</time>
      </trkpt>
      <trkpt lat="47.83602" lon="-1.06094">
        <ele>64.8</ele>
        <time>2020-12-20T10:02:46Z</time>
      </trkpt>
      <trkpt lat="47.83599" lon="-1.06093">
        <ele>64.8</ele>
        <time>2020-12-20T10:02:47Z</time>
      </trkpt>
      <trkpt lat="47.83597" lon="-1.06092">
        <ele>64.8</ele>
        <time>2020-12-20T10:02:48Z</time>
      </trkpt>
      <trkpt lat="47.83594" lon="-1.06091">
        <ele>64.9</ele>
        <time>2020-12-20T10:02:49Z</time>
      </trkpt>
      <trkpt lat="47.83593" lon="-1.06089">
        <ele>64.9</ele>
        <time>2020-12-20T10:02:50Z</time>
      </trkpt>
      <trkpt lat="47.8359" lon="-1.06087">
        <ele>64.9</ele>
        <time>2020-12-20T10:02:51Z</time>
      </trkpt>
      <trkpt lat="47.83588" lon="-1.06086">
        <ele>64.9</ele>
        <time>2020-12-20T10:02:52Z</time>
      </trkpt>
      <trkpt lat="47.83586" lon="-1.06084">
        <ele>65</ele>
        <time>2020-12-20T10:02:53Z</time>
      </trkpt>
      <trkpt lat="47.83585" lon="-1.06081">
        <ele>65.1</ele>
        <time>2020-12-20T10:02:54Z</time>
      </trkpt>
      <trkpt lat="47.83584" lon="-1.06077">
        <ele>65.2</ele>
        <time>2020-12-20T10:02:55Z</time>
      </trkpt>
      <trkpt lat="47.83583" lon="-1.06075">
        <ele>65.3</ele>
        <time>2020-12-20T10:02:56Z</time>
      </trkpt>
      <trkpt lat="47.83583" lon="-1.06071">
        <ele>65.5</ele>
        <time>2020-12-20T10:02:57Z</time>
      </trkpt>
      <trkpt lat="47.83584" lon="-1.06067">
        <ele>65.6</ele>
        <time>2020-12-20T10:02:58Z</time>
      </trkpt>
      <trkpt lat="47.83585" lon="-1.06062">
        <ele>65.8</ele>
        <time>2020-12-20T10:02:59Z</time>
      </trkpt>
      <trkpt lat="47.83586" lon="-1.06058">
        <ele>65.9</ele>
        <time>2020-12-20T10:03:00Z</time>
      </trkpt>
      <trkpt lat="47.83588" lon="-1.06053">
        <ele>66.1</ele>
        <time>2020-12-20T10:03:01Z</time>
      </trkpt>
      <trkpt lat="47.83589" lon="-1.06048">
        <ele>66.2</ele>
        <time>2020-12-20T10:03:02Z</time>
      </trkpt>
      <trkpt lat="47.8359" lon="-1.06044">
        <ele>66.4</ele>
        <time>2020-12-20T10:03:03Z</time>
      </trkpt>
      <trkpt lat="47.83592" lon="-1.06039">
        <ele>66.5</ele>
        <time>2020-12-20T10:03:04Z</time>
      </trkpt>
      <trkpt lat="47.83593" lon="-1.06034">
        <ele>66.7</ele>
        <time>2020-12-20T10:03:05Z</time>
      </trkpt>
      <trkpt lat="47.83594" lon="-1.0603">
        <ele>66.9</ele>
        <time>2020-12-20T10:03:06Z</time>
      </trkpt>
      <trkpt lat="47.83596" lon="-1.06026">
        <ele>67</ele>
        <time>2020-12-20T10:03:07Z</time>
      </trkpt>
      <trkpt lat="47.83597" lon="-1.06022">
        <ele>67.2</ele>
        <time>2020-12-20T10:03:08Z</time>
      </trkpt>
      <trkpt lat="47.83598" lon="-1.06017">
        <ele>67.4</ele>
        <time>2020-12-20T10:03:09Z</time>
      </trkpt>
      <trkpt lat="47.83599" lon="-1.06013">
        <ele>67.5</ele>
        <time>2020-12-20T10:03:10Z</time>
      </trkpt>
      <trkpt lat="47.83601" lon="-1.06009">
        <ele>67.7</ele>
        <time>2020-12-20T10:03:11Z</time>
      </trkpt>
      <trkpt lat="47.83601" lon="-1.06004">
        <ele>67.8</ele>
        <time>2020-12-20T10:03:12Z</time>
      </trkpt>
      <trkpt lat="47.83603" lon="-1.06">
        <ele>68</ele>
        <time>2020-12-20T10:03:13Z</time>
      </trkpt>
      <trkpt lat="47.83604" lon="-1.05996">
        <ele>68.2</ele>
        <time>2020-12-20T10:03:14Z</time>
      </trkpt>
      <trkpt lat="47.83605" lon="-1.05992">
        <ele>68.3</ele>
        <time>2020-12-20T10:03:15Z</time>
      </trkpt>
      <trkpt lat="47.83606" lon="-1.05987">
        <ele>68.5</ele>
        <time>2020-12-20T10:03:16Z</time>
      </trkpt>
      <trkpt lat="47.83607" lon="-1.05983">
        <ele>68.7</ele>
        <time>2020-12-20T10:03:17Z</time>
      </trkpt>
      <trkpt lat="47.83609" lon="-1.0598">
        <ele>68.8</ele>
        <time>2020-12-20T10:03:18Z</time>
      </trkpt>
      <trkpt lat="47.8361" lon="-1.05975">
        <ele>69</ele>
        <time>2020-12-20T10:03:19Z</time>
      </trkpt>
      <trkpt lat="47.83611" lon="-1.05971">
        <ele>69.2</ele>
        <time>2020-12-20T10:03:20Z</time>
      </trkpt>
      <trkpt lat="47.83612" lon="-1.05967">
        <ele>69.3</ele>
        <time>2020-12-20T10:03:21Z</time>
      </trkpt>
      <trkpt lat="47.83613" lon="-1.05963">
        <ele>69.5</ele>
        <time>2020-12-20T10:03:22Z</time>
      </trkpt>
      <trkpt lat="47.83614" lon="-1.05959">
        <ele>69.7</ele>
        <time>2020-12-20T10:03:23Z</time>
      </trkpt>
      <trkpt lat="47.83615" lon="-1.05955">
        <ele>69.8</ele>
        <time>2020-12-20T10:03:24Z</time>
      </trkpt>
      <trkpt lat="47.83616" lon="-1.05951">
        <ele>70</ele>
        <time>2020-12-20T10:03:25Z</time>
      </trkpt>
      <trkpt lat="47.83617" lon="-1.05947">
        <ele>70.2</ele>
        <time>2020-12-20T10:03:26Z</time>
      </trkpt>
      <trkpt lat="47.83618" lon="-1.05943">
        <ele>70.3</ele>
        <time>2020-12-20T10:03:27Z</time>
      </trkpt>
      <trkpt lat="47.8362" lon="-1.05939">
        <ele>70.5</ele>
        <time>2020-12-20T10:03:28Z</time>
      </trkpt>
      <trkpt lat="47.83621" lon="-1.05934">
        <ele>70.7</ele>
        <time>2020-12-20T10:03:29Z</time>
      </trkpt>
      <trkpt lat="47.83622" lon="-1.0593">
        <ele>70.9</ele>
        <time>2020-12-20T10:03:30Z</time>
      </trkpt>
      <trkpt lat="47.83623" lon="-1.05925">
        <ele>71.1</ele>
        <time>2020-12-20T10:03:31Z</time>
      </trkpt>
      <trkpt lat="47.83624" lon="-1.05921">
        <ele>71.3</ele>
        <time>2020-12-20T10:03:32Z</time>
      </trkpt>
      <trkpt lat="47.83625" lon="-1.05917">
        <ele>71.5</ele>
        <time>2020-12-20T10:03:33Z</time>
      </trkpt>
      <trkpt lat="47.83626" lon="-1.05913">
        <ele>71.6</ele>
        <time>2020-12-20T10:03:34Z</time>
      </trkpt>
      <trkpt lat="47.83628" lon="-1.05909">
        <ele>71.8</ele>
        <time>2020-12-20T10:03:35Z</time>
      </trkpt>
      <trkpt lat="47.83629" lon="-1.05904">
        <ele>71.9</ele>
        <time>2020-12-20T10:03:36Z</time>
      </trkpt>
      <trkpt lat="47.8363" lon="-1.059">
        <ele>72.1</ele>
        <time>2020-12-20T10:03:37Z</time>
      </trkpt>
      <trkpt lat="47.83632" lon="-1.05895">
        <ele>72.3</ele>
        <time>2020-12-20T10:03:38Z</time>
      </trkpt>
      <trkpt lat="47.83633" lon="-1.05891">
        <ele>72.4</ele>
        <time>2020-12-20T10:03:39Z</time>
      </trkpt>
      <trkpt lat="47.83634" lon="-1.05887">
        <ele>72.5</ele>
        <time>2020-12-20T10:03:40Z</time>
      </trkpt>
      <trkpt lat="47.83636" lon="-1.05882">
        <ele>72.7</ele>
        <time>2020-12-20T10:03:41Z</time>
      </trkpt>
      <trkpt lat="47.83637" lon="-1.05877">
        <ele>72.9</ele>
        <time>2020-12-20T10:03:42Z</time>
      </trkpt>
      <trkpt lat="47.83638" lon="-1.05873">
        <ele>73</ele>
        <time>2020-12-20T10:03:43Z</time>
      </trkpt>
      <trkpt lat="47.83639" lon="-1.05868">
        <ele>73.2</ele>
        <time>2020-12-20T10:03:44Z</time>
      </trkpt>
      <trkpt lat="47.83641" lon="-1.05862">
        <ele>73.5</ele>
        <time>2020-12-20T10:03:45Z</time>
      </trkpt>
      <trkpt lat="47.83642" lon="-1.05857">
        <ele>73.6</ele>
        <time>2020-12-20T10:03:46Z</time>
      </trkpt>
      <trkpt lat="47.83644" lon="-1.05852">
        <ele>73.8</ele>
        <time>2020-12-20T10:03:47Z</time>
      </trkpt>
      <trkpt lat="47.83645" lon="-1.05846">
        <ele>74.1</ele>
        <time>2020-12-20T10:03:48Z</time>
      </trkpt>
      <trkpt lat="47.83647" lon="-1.05841">
        <ele>74.3</ele>
        <time>2020-12-20T10:03:49Z</time>
      </trkpt>
      <trkpt lat="47.83648" lon="-1.05835">
        <ele>74.5</ele>
        <time>2020-12-20T10:03:50Z</time>
      </trkpt>
      <trkpt lat="47.8365" lon="-1.05829">
        <ele>74.5</ele>
        <time>2020-12-20T10:03:51Z</time>
      </trkpt>
      <trkpt lat="47.83652" lon="-1.05823">
        <ele>74.4</ele>
        <time>2020-12-20T10:03:52Z</time>
      </trkpt>
      <trkpt lat="47.83653" lon="-1.05817">
        <ele>74.3</ele>
        <time>2020-12-20T10:03:53Z</time>
      </trkpt>
      <trkpt lat="47.83655" lon="-1.05811">
        <ele>74.3</ele>
        <time>2020-12-20T10:03:54Z</time>
      </trkpt>
      <trkpt lat="47.83657" lon="-1.05804">
        <ele>74.1</ele>
        <time>2020-12-20T10:03:55Z</time>
      </trkpt>
      <trkpt lat="47.83659" lon="-1.05797">
        <ele>74</ele>
        <time>2020-12-20T10:03:56Z</time>
      </trkpt>
      <trkpt lat="47.83661" lon="-1.0579">
        <ele>73.9</ele>
        <time>2020-12-20T10:03:57Z</time>
      </trkpt>
      <trkpt lat="47.83662" lon="-1.05782">
        <ele>73.7</ele>
        <time>2020-12-20T10:03:58Z</time>
      </trkpt>
      <trkpt lat="47.83664" lon="-1.05774">
        <ele>73.6</ele>
        <time>2020-12-20T10:03:59Z</time>
      </trkpt>
      <trkpt lat="47.83666" lon="-1.05767">
        <ele>73.4</ele>
        <time>2020-12-20T10:04:00Z</time>
      </trkpt>
      <trkpt lat="47.83668" lon="-1.05758">
        <ele>73.2</ele>
        <time>2020-12-20T10:04:01Z</time>
      </trkpt>
      <trkpt lat="47.8367" lon="-1.0575">
        <ele>72.9</ele>
        <time>2020-12-20T10:04:02Z</time>
      </trkpt>
      <trkpt lat="47.83672" lon="-1.05741">
        <ele>72.5</ele>
        <time>2020-12-20T10:04:03Z</time>
      </trkpt>
      <trkpt lat="47.83674" lon="-1.05732">
        <ele>72.2</ele>
        <time>2020-12-20T10:04:04Z</time>
      </trkpt>
      <trkpt lat="47.83676" lon="-1.05723">
        <ele>71.8</ele>
        <time>2020-12-20T10:04:05Z</time>
      </trkpt>
      <trkpt lat="47.83678" lon="-1.05713">
        <ele>71.4</ele>
        <time>2020-12-20T10:04:06Z</time>
      </trkpt>
      <trkpt lat="47.83679" lon="-1.05704">
        <ele>71</ele>
        <time>2020-12-20T10:04:07Z</time>
      </trkpt>
      <trkpt lat="47.83681" lon="-1.05694">
        <ele>70.6</ele>
        <time>2020-12-20T10:04:08Z</time>
      </trkpt>
      <trkpt lat="47.83684" lon="-1.05684">
        <ele>70.2</ele>
        <time>2020-12-20T10:04:09Z</time>
      </trkpt>
      <trkpt lat="47.83685" lon="-1.05673">
        <ele>69.8</ele>
        <time>2020-12-20T10:04:10Z</time>
      </trkpt>
      <trkpt lat="47.83687" lon="-1.05662">
        <ele>69.4</ele>
        <time>2020-12-20T10:04:11Z</time>
      </trkpt>
      <trkpt lat="47.83689" lon="-1.05652">
        <ele>69.1</ele>
        <time>2020-12-20T10:04:12Z</time>
      </trkpt>
      <trkpt lat="47.83691" lon="-1.05641">
        <ele>68.8</ele>
        <time>2020-12-20T10:04:13Z</time>
      </trkpt>
      <trkpt lat="47.83693" lon="-1.0563">
        <ele>68.5</ele>
        <time>2020-12-20T10:04:14Z</time>
      </trkpt>
      <trkpt lat="47.83695" lon="-1.05618">
        <ele>68.2</ele>
        <time>2020-12-20T10:04:15Z</time>
      </trkpt>
      <trkpt lat="47.83697" lon="-1.05607">
        <ele>67.8</ele>
        <time>2020-12-20T10:04:16Z</time>
      </trkpt>
      <trkpt lat="47.83699" lon="-1.05595">
        <ele>67.5</ele>
        <time>2020-12-20T10:04:17Z</time>
      </trkpt>
      <trkpt lat="47.83701" lon="-1.05584">
        <ele>67.2</ele>
        <time>2020-12-20T10:04:18Z</time>
      </trkpt>
      <trkpt lat="47.83703" lon="-1.05572">
        <ele>66.9</ele>
        <time>2020-12-20T10:04:19Z</time>
      </trkpt>
      <trkpt lat="47.83705" lon="-1.0556">
        <ele>66.5</ele>
        <time>2020-12-20T10:04:20Z</time>
      </trkpt>
      <trkpt lat="47.83707" lon="-1.05549">
        <ele>66.2</ele>
        <time>2020-12-20T10:04:21Z</time>
      </trkpt>
      <trkpt lat="47.83709" lon="-1.05537">
        <ele>65.9</ele>
        <time>2020-12-20T10:04:22Z</time>
      </trkpt>
      <trkpt lat="47.83711" lon="-1.05525">
        <ele>65.5</ele>
        <time>2020-12-20T10:04:23Z</time>
      </trkpt>
      <trkpt lat="47.83713" lon="-1.05513">
        <ele>65.1</ele>
        <time>2020-12-20T10:04:24Z</time>
      </trkpt>
      <trkpt lat="47.83715" lon="-1.05501">
        <ele>64.7</ele>
        <time>2020-12-20T10:04:25Z</time>
      </trkpt>
      <trkpt lat="47.83717" lon="-1.05489">
        <ele>64.5</ele>
        <time>2020-12-20T10:04:26Z</time>
      </trkpt>
      <trkpt lat="47.83719" lon="-1.05476">
        <ele>64.2</ele>
        <time>2020-12-20T10:04:27Z</time>
      </trkpt>
      <trkpt lat="47.83721" lon="-1.05464">
        <ele>64</ele>
        <time>2020-12-20T10:04:28Z</time>
      </trkpt>
      <trkpt lat="47.83723" lon="-1.05452">
        <ele>63.7</ele>
        <time>2020-12-20T10:04:29Z</time>
      </trkpt>
      <trkpt lat="47.83725" lon="-1.0544">
        <ele>63.5</ele>
        <time>2020-12-20T10:04:30Z</time>
      </trkpt>
      <trkpt lat="47.83727" lon="-1.05428">
        <ele>63.2</ele>
        <time>2020-12-20T10:04:31Z</time>
      </trkpt>
      <trkpt lat="47.83729" lon="-1.05416">
        <ele>63</ele>
        <time>2020-12-20T10:04:32Z</time>
      </trkpt>
      <trkpt lat="47.83731" lon="-1.05405">
        <ele>62.9</ele>
        <time>2020-12-20T10:04:33Z</time>
      </trkpt>
      <trkpt lat="47.83732" lon="-1.05393">
        <ele>62.8</ele>
        <time>2020-12-20T10:04:34Z</time>
      </trkpt>
      <trkpt lat="47.83734" lon="-1.0538">
        <ele>62.7</ele>
        <time>2020-12-20T10:04:35Z</time>
      </trkpt>
      <trkpt lat="47.83736" lon="-1.05371">
        <ele>62.6</ele>
        <time>2020-12-20T10:04:36Z</time>
      </trkpt>
      <trkpt lat="47.83737" lon="-1.0536">
        <ele>62.5</ele>
        <time>2020-12-20T10:04:37Z</time>
      </trkpt>
      <trkpt lat="47.83739" lon="-1.05349">
        <ele>62.4</ele>
        <time>2020-12-20T10:04:38Z</time>
      </trkpt>
      <trkpt lat="47.83741" lon="-1.05339">
        <ele>62.3</ele>
        <time>2020-12-20T10:04:39Z</time>
      </trkpt>
      <trkpt lat="47.83742" lon="-1.05328">
        <ele>62.4</ele>
        <time>2020-12-20T10:04:40Z</time>
      </trkpt>
      <trkpt lat="47.83744" lon="-1.05318">
        <ele>62.4</ele>
        <time>2020-12-20T10:04:41Z</time>
      </trkpt>
      <trkpt lat="47.83745" lon="-1.05307">
        <ele>62.5</ele>
        <time>2020-12-20T10:04:42Z</time>
      </trkpt>
      <trkpt lat="47.83747" lon="-1.05297">
        <ele>62.5</ele>
        <time>2020-12-20T10:04:43Z</time>
      </trkpt>
      <trkpt lat="47.83749" lon="-1.05285">
        <ele>62.6</ele>
        <time>2020-12-20T10:04:44Z</time>
      </trkpt>
      <trkpt lat="47.8375" lon="-1.05277">
        <ele>62.7</ele>
        <time>2020-12-20T10:04:45Z</time>
      </trkpt>
      <trkpt lat="47.83751" lon="-1.05267">
        <ele>62.8</ele>
        <time>2020-12-20T10:04:46Z</time>
      </trkpt>
      <trkpt lat="47.83753" lon="-1.05258">
        <ele>62.9</ele>
        <time>2020-12-20T10:04:47Z</time>
      </trkpt>
      <trkpt lat="47.83754" lon="-1.05249">
        <ele>63</ele>
        <time>2020-12-20T10:04:48Z</time>
      </trkpt>
      <trkpt lat="47.83756" lon="-1.0524">
        <ele>63.3</ele>
        <time>2020-12-20T10:04:49Z</time>
      </trkpt>
      <trkpt lat="47.83757" lon="-1.0523">
        <ele>63.6</ele>
        <time>2020-12-20T10:04:50Z</time>
      </trkpt>
      <trkpt lat="47.83758" lon="-1.05221">
        <ele>63.9</ele>
        <time>2020-12-20T10:04:51Z</time>
      </trkpt>
      <trkpt lat="47.8376" lon="-1.05212">
        <ele>64.2</ele>
        <time>2020-12-20T10:04:52Z</time>
      </trkpt>
      <trkpt lat="47.83761" lon="-1.05203">
        <ele>64.5</ele>
        <time>2020-12-20T10:04:53Z</time>
      </trkpt>
      <trkpt lat="47.83763" lon="-1.05195">
        <ele>64.7</ele>
        <time>2020-12-20T10:04:54Z</time>
      </trkpt>
      <trkpt lat="47.83764" lon="-1.05186">
        <ele>65</ele>
        <time>2020-12-20T10:04:55Z</time>
      </trkpt>
      <trkpt lat="47.83765" lon="-1.05177">
        <ele>65.3</ele>
        <time>2020-12-20T10:04:56Z</time>
      </trkpt>
      <trkpt lat="47.83767" lon="-1.05168">
        <ele>65.5</ele>
        <time>2020-12-20T10:04:57Z</time>
      </trkpt>
      <trkpt lat="47.83768" lon="-1.0516">
        <ele>65.6</ele>
        <time>2020-12-20T10:04:58Z</time>
      </trkpt>
      <trkpt lat="47.8377" lon="-1.05151">
        <ele>65.5</ele>
        <time>2020-12-20T10:04:59Z</time>
      </trkpt>
      <trkpt lat="47.83771" lon="-1.05143">
        <ele>65.5</ele>
        <time>2020-12-20T10:05:00Z</time>
      </trkpt>
      <trkpt lat="47.83772" lon="-1.05134">
        <ele>65.5</ele>
        <time>2020-12-20T10:05:01Z</time>
      </trkpt>
      <trkpt lat="47.83774" lon="-1.05126">
        <ele>65.4</ele>
        <time>2020-12-20T10:05:02Z</time>
      </trkpt>
      <trkpt lat="47.83775" lon="-1.05117">
        <ele>65.4</ele>
        <time>2020-12-20T10:05:03Z</time>
      </trkpt>
      <trkpt lat="47.83776" lon="-1.05109">
        <ele>65.4</ele>
        <time>2020-12-20T10:05:04Z</time>
      </trkpt>
      <trkpt lat="47.83778" lon="-1.05101">
        <ele>65.3</ele>
        <time>2020-12-20T10:05:05Z</time>
      </trkpt>
      <trkpt lat="47.83779" lon="-1.05093">
        <ele>65.3</ele>
        <time>2020-12-20T10:05:06Z</time>
      </trkpt>
      <trkpt lat="47.8378" lon="-1.05084">
        <ele>65.3</ele>
        <time>2020-12-20T10:05:07Z</time>
      </trkpt>
      <trkpt lat="47.83782" lon="-1.05076">
        <ele>65.2</ele>
        <time>2020-12-20T10:05:08Z</time>
      </trkpt>
      <trkpt lat="47.83783" lon="-1.05067">
        <ele>65.2</ele>
        <time>2020-12-20T10:05:09Z</time>
      </trkpt>
      <trkpt lat="47.83784" lon="-1.05058">
        <ele>65.2</ele>
        <time>2020-12-20T10:05:10Z</time>
      </trkpt>
      <trkpt lat="47.83785" lon="-1.05049">
        <ele>65.2</ele>
        <time>2020-12-20T10:05:11Z</time>
      </trkpt>
      <trkpt lat="47.83787" lon="-1.05041">
        <ele>65.1</ele>
        <time>2020-12-20T10:05:12Z</time>
      </trkpt>
      <trkpt lat="47.83788" lon="-1.05032">
        <ele>65.1</ele>
        <time>2020-12-20T10:05:13Z</time>
      </trkpt>
      <trkpt lat="47.83789" lon="-1.05023">
        <ele>65.1</ele>
        <time>2020-12-20T10:05:14Z</time>
      </trkpt>
      <trkpt lat="47.8379" lon="-1.05014">
        <ele>65</ele>
        <time>2020-12-20T10:05:15Z</time>
      </trkpt>
      <trkpt lat="47.83792" lon="-1.05005">
        <ele>65</ele>
        <time>2020-12-20T10:05:16Z</time>
      </trkpt>
      <trkpt lat="47.83793" lon="-1.04995">
        <ele>64.8</ele>
        <time>2020-12-20T10:05:17Z</time>
      </trkpt>
      <trkpt lat="47.83795" lon="-1.04986">
        <ele>64.6</ele>
        <time>2020-12-20T10:05:18Z</time>
      </trkpt>
      <trkpt lat="47.83796" lon="-1.04977">
        <ele>64.4</ele>
        <time>2020-12-20T10:05:19Z</time>
      </trkpt>
      <trkpt lat="47.83797" lon="-1.04967">
        <ele>64.1</ele>
        <time>2020-12-20T10:05:20Z</time>
      </trkpt>
      <trkpt lat="47.83799" lon="-1.04958">
        <ele>63.9</ele>
        <time>2020-12-20T10:05:21Z</time>
      </trkpt>
      <trkpt lat="47.838" lon="-1.04949">
        <ele>63.7</ele>
        <time>2020-12-20T10:05:22Z</time>
      </trkpt>
      <trkpt lat="47.83801" lon="-1.0494">
        <ele>63.5</ele>
        <time>2020-12-20T10:05:23Z</time>
      </trkpt>
      <trkpt lat="47.83803" lon="-1.0493">
        <ele>63.3</ele>
        <time>2020-12-20T10:05:24Z</time>
      </trkpt>
      <trkpt lat="47.83804" lon="-1.04921">
        <ele>63.1</ele>
        <time>2020-12-20T10:05:25Z</time>
      </trkpt>
      <trkpt lat="47.83805" lon="-1.04911">
        <ele>63</ele>
        <time>2020-12-20T10:05:26Z</time>
      </trkpt>
      <trkpt lat="47.83807" lon="-1.04902">
        <ele>62.9</ele>
        <time>2020-12-20T10:05:27Z</time>
      </trkpt>
      <trkpt lat="47.83808" lon="-1.04892">
        <ele>62.8</ele>
        <time>2020-12-20T10:05:28Z</time>
      </trkpt>
      <trkpt lat="47.8381" lon="-1.04883">
        <ele>62.7</ele>
        <time>2020-12-20T10:05:29Z</time>
      </trkpt>
      <trkpt lat="47.83811" lon="-1.04873">
        <ele>62.6</ele>
        <time>2020-12-20T10:05:30Z</time>
      </trkpt>
      <trkpt lat="47.83813" lon="-1.04864">
        <ele>62.5</ele>
        <time>2020-12-20T10:05:31Z</time>
      </trkpt>
      <trkpt lat="47.83814" lon="-1.04855">
        <ele>62.4</ele>
        <time>2020-12-20T10:05:32Z</time>
      </trkpt>
      <trkpt lat="47.83816" lon="-1.04845">
        <ele>62.3</ele>
        <time>2020-12-20T10:05:33Z</time>
      </trkpt>
      <trkpt lat="47.83817" lon="-1.04836">
        <ele>62.2</ele>
        <time>2020-12-20T10:05:34Z</time>
      </trkpt>
      <trkpt lat="47.83819" lon="-1.04827">
        <ele>62.2</ele>
        <time>2020-12-20T10:05:35Z</time>
      </trkpt>
      <trkpt lat="47.8382" lon="-1.04818">
        <ele>62.3</ele>
        <time>2020-12-20T10:05:36Z</time>
      </trkpt>
      <trkpt lat="47.83822" lon="-1.04809">
        <ele>62.4</ele>
        <time>2020-12-20T10:05:37Z</time>
      </trkpt>
      <trkpt lat="47.83823" lon="-1.048">
        <ele>62.5</ele>
        <time>2020-12-20T10:05:38Z</time>
      </trkpt>
      <trkpt lat="47.83824" lon="-1.04791">
        <ele>62.6</ele>
        <time>2020-12-20T10:05:39Z</time>
      </trkpt>
      <trkpt lat="47.83826" lon="-1.04783">
        <ele>62.6</ele>
        <time>2020-12-20T10:05:40Z</time>
      </trkpt>
      <trkpt lat="47.83827" lon="-1.04774">
        <ele>62.7</ele>
        <time>2020-12-20T10:05:41Z</time>
      </trkpt>
      <trkpt lat="47.83829" lon="-1.04765">
        <ele>62.8</ele>
        <time>2020-12-20T10:05:42Z</time>
      </trkpt>
      <trkpt lat="47.8383" lon="-1.04756">
        <ele>62.9</ele>
        <time>2020-12-20T10:05:43Z</time>
      </trkpt>
      <trkpt lat="47.83832" lon="-1.04748">
        <ele>63</ele>
        <time>2020-12-20T10:05:44Z</time>
      </trkpt>
      <trkpt lat="47.83834" lon="-1.04739">
        <ele>63.1</ele>
        <time>2020-12-20T10:05:45Z</time>
      </trkpt>
      <trkpt lat="47.83835" lon="-1.04731">
        <ele>63.2</ele>
        <time>2020-12-20T10:05:46Z</time>
      </trkpt>
      <trkpt lat="47.83837" lon="-1.04723">
        <ele>63.3</ele>
        <time>2020-12-20T10:05:47Z</time>
      </trkpt>
      <trkpt lat="47.83838" lon="-1.04714">
        <ele>63.3</ele>
        <time>2020-12-20T10:05:48Z</time>
      </trkpt>
      <trkpt lat="47.83839" lon="-1.04706">
        <ele>63.4</ele>
        <time>2020-12-20T10:05:49Z</time>
      </trkpt>
      <trkpt lat="47.83841" lon="-1.04698">
        <ele>63.5</ele>
        <time>2020-12-20T10:05:50Z</time>
      </trkpt>
      <trkpt lat="47.83842" lon="-1.0469">
        <ele>63.6</ele>
        <time>2020-12-20T10:05:51Z</time>
      </trkpt>
      <trkpt lat="47.83844" lon="-1.04682">
        <ele>63.7</ele>
        <time>2020-12-20T10:05:52Z</time>
      </trkpt>
      <trkpt lat="47.83845" lon="-1.04674">
        <ele>63.8</ele>
        <time>2020-12-20T10:05:53Z</time>
      </trkpt>
      <trkpt lat="47.83847" lon="-1.04666">
        <ele>63.8</ele>
        <time>2020-12-20T10:05:54Z</time>
      </trkpt>
      <trkpt lat="47.83848" lon="-1.04657">
        <ele>63.8</ele>
        <time>2020-12-20T10:05:55Z</time>
      </trkpt>
      <trkpt lat="47.8385" lon="-1.04649">
        <ele>63.8</ele>
        <time>2020-12-20T10:05:56Z</time>
      </trkpt>
      <trkpt lat="47.83851" lon="-1.04642">
        <ele>63.8</ele>
        <time>2020-12-20T10:05:57Z</time>
      </trkpt>
      <trkpt lat="47.83853" lon="-1.04634">
        <ele>63.8</ele>
        <time>2020-12-20T10:05:58Z</time>
      </trkpt>
      <trkpt lat="47.83854" lon="-1.04626">
        <ele>63.8</ele>
        <time>2020-12-20T10:05:59Z</time>
      </trkpt>
      <trkpt lat="47.83855" lon="-1.04618">
        <ele>63.7</ele>
        <time>2020-12-20T10:06:00Z</time>
      </trkpt>
      <trkpt lat="47.83857" lon="-1.04611">
        <ele>63.7</ele>
        <time>2020-12-20T10:06:01Z</time>
      </trkpt>
      <trkpt lat="47.83858" lon="-1.04603">
        <ele>63.7</ele>
        <time>2020-12-20T10:06:02Z</time>
      </trkpt>
      <trkpt lat="47.83859" lon="-1.04595">
        <ele>63.7</ele>
        <time>2020-12-20T10:06:03Z</time>
      </trkpt>
      <trkpt lat="47.8386" lon="-1.04587">
        <ele>63.7</ele>
        <time>2020-12-20T10:06:04Z</time>
      </trkpt>
      <trkpt lat="47.83862" lon="-1.04579">
        <ele>63.7</ele>
        <time>2020-12-20T10:06:05Z</time>
      </trkpt>
      <trkpt lat="47.83863" lon="-1.04571">
        <ele>63.7</ele>
        <time>2020-12-20T10:06:06Z</time>
      </trkpt>
      <trkpt lat="47.83864" lon="-1.04563">
        <ele>63.8</ele>
        <time>2020-12-20T10:06:07Z</time>
      </trkpt>
      <trkpt lat="47.83866" lon="-1.04555">
        <ele>63.8</ele>
        <time>2020-12-20T10:06:08Z</time>
      </trkpt>
      <trkpt lat="47.83867" lon="-1.04547">
        <ele>63.9</ele>
        <time>2020-12-20T10:06:09Z</time>
      </trkpt>
      <trkpt lat="47.83868" lon="-1.04539">
        <ele>63.9</ele>
        <time>2020-12-20T10:06:10Z</time>
      </trkpt>
      <trkpt lat="47.83869" lon="-1.04532">
        <ele>63.9</ele>
        <time>2020-12-20T10:06:11Z</time>
      </trkpt>
      <trkpt lat="47.83871" lon="-1.04524">
        <ele>63.9</ele>
        <time>2020-12-20T10:06:12Z</time>
      </trkpt>
      <trkpt lat="47.83871" lon="-1.04516">
        <ele>64</ele>
        <time>2020-12-20T10:06:13Z</time>
      </trkpt>
      <trkpt lat="47.83873" lon="-1.04508">
        <ele>64</ele>
        <time>2020-12-20T10:06:14Z</time>
      </trkpt>
      <trkpt lat="47.83874" lon="-1.045">
        <ele>64</ele>
        <time>2020-12-20T10:06:15Z</time>
      </trkpt>
      <trkpt lat="47.83875" lon="-1.04492">
        <ele>64.1</ele>
        <time>2020-12-20T10:06:16Z</time>
      </trkpt>
      <trkpt lat="47.83876" lon="-1.04484">
        <ele>64.2</ele>
        <time>2020-12-20T10:06:17Z</time>
      </trkpt>
      <trkpt lat="47.83877" lon="-1.04476">
        <ele>64.3</ele>
        <time>2020-12-20T10:06:18Z</time>
      </trkpt>
      <trkpt lat="47.83878" lon="-1.04469">
        <ele>64.3</ele>
        <time>2020-12-20T10:06:19Z</time>
      </trkpt>
      <trkpt lat="47.83879" lon="-1.04462">
        <ele>64.4</ele>
        <time>2020-12-20T10:06:20Z</time>
      </trkpt>
      <trkpt lat="47.8388" lon="-1.04454">
        <ele>64.5</ele>
        <time>2020-12-20T10:06:21Z</time>
      </trkpt>
      <trkpt lat="47.83881" lon="-1.04447">
        <ele>64.6</ele>
        <time>2020-12-20T10:06:22Z</time>
      </trkpt>
      <trkpt lat="47.83882" lon="-1.04439">
        <ele>64.7</ele>
        <time>2020-12-20T10:06:23Z</time>
      </trkpt>
      <trkpt lat="47.83883" lon="-1.04432">
        <ele>64.8</ele>
        <time>2020-12-20T10:06:24Z</time>
      </trkpt>
      <trkpt lat="47.83884" lon="-1.04425">
        <ele>64.9</ele>
        <time>2020-12-20T10:06:25Z</time>
      </trkpt>
      <trkpt lat="47.83885" lon="-1.04418">
        <ele>65</ele>
        <time>2020-12-20T10:06:26Z</time>
      </trkpt>
      <trkpt lat="47.83885" lon="-1.04412">
        <ele>65.2</ele>
        <time>2020-12-20T10:06:27Z</time>
      </trkpt>
      <trkpt lat="47.83886" lon="-1.04406">
        <ele>65.5</ele>
        <time>2020-12-20T10:06:28Z</time>
      </trkpt>
      <trkpt lat="47.83887" lon="-1.044">
        <ele>65.7</ele>
        <time>2020-12-20T10:06:29Z</time>
      </trkpt>
      <trkpt lat="47.83887" lon="-1.04395">
        <ele>66</ele>
        <time>2020-12-20T10:06:30Z</time>
      </trkpt>
      <trkpt lat="47.83886" lon="-1.0439">
        <ele>66.2</ele>
        <time>2020-12-20T10:06:31Z</time>
      </trkpt>
      <trkpt lat="47.83885" lon="-1.04386">
        <ele>66.4</ele>
        <time>2020-12-20T10:06:32Z</time>
      </trkpt>
      <trkpt lat="47.83883" lon="-1.04383">
        <ele>66.5</ele>
        <time>2020-12-20T10:06:33Z</time>
      </trkpt>
      <trkpt lat="47.83881" lon="-1.04381">
        <ele>66.7</ele>
        <time>2020-12-20T10:06:34Z</time>
      </trkpt>
      <trkpt lat="47.83878" lon="-1.04379">
        <ele>66.8</ele>
        <time>2020-12-20T10:06:35Z</time>
      </trkpt>
      <trkpt lat="47.83876" lon="-1.04375">
        <ele>67</ele>
        <time>2020-12-20T10:06:36Z</time>
      </trkpt>
      <trkpt lat="47.83873" lon="-1.04371">
        <ele>67.2</ele>
        <time>2020-12-20T10:06:37Z</time>
      </trkpt>
      <trkpt lat="47.83872" lon="-1.04365">
        <ele>67.5</ele>
        <time>2020-12-20T10:06:38Z</time>
      </trkpt>
      <trkpt lat="47.83871" lon="-1.04359">
        <ele>67.8</ele>
        <time>2020-12-20T10:06:39Z</time>
      </trkpt>
      <trkpt lat="47.83871" lon="-1.04352">
        <ele>68.2</ele>
        <time>2020-12-20T10:06:40Z</time>
      </trkpt>
      <trkpt lat="47.83871" lon="-1.04346">
        <ele>68.5</ele>
        <time>2020-12-20T10:06:41Z</time>
      </trkpt>
      <trkpt lat="47.83872" lon="-1.0434">
        <ele>68.7</ele>
        <time>2020-12-20T10:06:42Z</time>
      </trkpt>
      <trkpt lat="47.83872" lon="-1.04335">
        <ele>69</ele>
        <time>2020-12-20T10:06:43Z</time>
      </trkpt>
      <trkpt lat="47.83873" lon="-1.04329">
        <ele>69.2</ele>
        <time>2020-12-20T10:06:44Z</time>
      </trkpt>
      <trkpt lat="47.83874" lon="-1.04324">
        <ele>69.4</ele>
        <time>2020-12-20T10:06:45Z</time>
      </trkpt>
      <trkpt lat="47.83875" lon="-1.04319">
        <ele>69.5</ele>
        <time>2020-12-20T10:06:46Z</time>
      </trkpt>
      <trkpt lat="47.83876" lon="-1.04314">
        <ele>69.7</ele>
        <time>2020-12-20T10:06:47Z</time>
      </trkpt>
      <trkpt lat="47.83877" lon="-1.04308">
        <ele>69.9</ele>
        <time>2020-12-20T10:06:48Z</time>
      </trkpt>
      <trkpt lat="47.83878" lon="-1.04304">
        <ele>70</ele>
        <time>2020-12-20T10:06:49Z</time>
      </trkpt>
      <trkpt lat="47.83879" lon="-1.04299">
        <ele>70.1</ele>
        <time>2020-12-20T10:06:50Z</time>
      </trkpt>
      <trkpt lat="47.83881" lon="-1.04293">
        <ele>70.3</ele>
        <time>2020-12-20T10:06:51Z</time>
      </trkpt>
      <trkpt lat="47.83882" lon="-1.04288">
        <ele>70.5</ele>
        <time>2020-12-20T10:06:52Z</time>
      </trkpt>
      <trkpt lat="47.83883" lon="-1.04284">
        <ele>70.6</ele>
        <time>2020-12-20T10:06:53Z</time>
      </trkpt>
      <trkpt lat="47.83884" lon="-1.04279">
        <ele>70.7</ele>
        <time>2020-12-20T10:06:54Z</time>
      </trkpt>
      <trkpt lat="47.83885" lon="-1.04273">
        <ele>70.9</ele>
        <time>2020-12-20T10:06:55Z</time>
      </trkpt>
      <trkpt lat="47.83886" lon="-1.04268">
        <ele>71.1</ele>
        <time>2020-12-20T10:06:56Z</time>
      </trkpt>
      <trkpt lat="47.83887" lon="-1.04263">
        <ele>71.2</ele>
        <time>2020-12-20T10:06:57Z</time>
      </trkpt>
      <trkpt lat="47.83889" lon="-1.04259">
        <ele>71.3</ele>
        <time>2020-12-20T10:06:58Z</time>
      </trkpt>
      <trkpt lat="47.83891" lon="-1.04254">
        <ele>71.5</ele>
        <time>2020-12-20T10:06:59Z</time>
      </trkpt>
      <trkpt lat="47.83893" lon="-1.0425">
        <ele>71.6</ele>
        <time>2020-12-20T10:07:00Z</time>
      </trkpt>
      <trkpt lat="47.83895" lon="-1.04245">
        <ele>71.7</ele>
        <time>2020-12-20T10:07:01Z</time>
      </trkpt>
      <trkpt lat="47.83897" lon="-1.04241">
        <ele>71.9</ele>
        <time>2020-12-20T10:07:02Z</time>
      </trkpt>
      <trkpt lat="47.83899" lon="-1.04236">
        <ele>72.1</ele>
        <time>2020-12-20T10:07:03Z</time>
      </trkpt>
      <trkpt lat="47.83902" lon="-1.04232">
        <ele>72.2</ele>
        <time>2020-12-20T10:07:04Z</time>
      </trkpt>
      <trkpt lat="47.83904" lon="-1.04228">
        <ele>72.3</ele>
        <time>2020-12-20T10:07:05Z</time>
      </trkpt>
      <trkpt lat="47.83906" lon="-1.04223">
        <ele>72.5</ele>
        <time>2020-12-20T10:07:06Z</time>
      </trkpt>
      <trkpt lat="47.83909" lon="-1.04219">
        <ele>72.6</ele>
        <time>2020-12-20T10:07:07Z</time>
      </trkpt>
      <trkpt lat="47.83911" lon="-1.04215">
        <ele>72.8</ele>
        <time>2020-12-20T10:07:08Z</time>
      </trkpt>
      <trkpt lat="47.83914" lon="-1.04211">
        <ele>72.9</ele>
        <time>2020-12-20T10:07:09Z</time>
      </trkpt>
      <trkpt lat="47.83917" lon="-1.04207">
        <ele>73.1</ele>
        <time>2020-12-20T10:07:10Z</time>
      </trkpt>
      <trkpt lat="47.8392" lon="-1.04203">
        <ele>73.3</ele>
        <time>2020-12-20T10:07:11Z</time>
      </trkpt>
      <trkpt lat="47.83923" lon="-1.04199">
        <ele>73.4</ele>
        <time>2020-12-20T10:07:12Z</time>
      </trkpt>
      <trkpt lat="47.83925" lon="-1.04196">
        <ele>73.6</ele>
        <time>2020-12-20T10:07:13Z</time>
      </trkpt>
      <trkpt lat="47.83929" lon="-1.04193">
        <ele>73.7</ele>
        <time>2020-12-20T10:07:14Z</time>
      </trkpt>
      <trkpt lat="47.83932" lon="-1.0419">
        <ele>73.9</ele>
        <time>2020-12-20T10:07:15Z</time>
      </trkpt>
      <trkpt lat="47.83935" lon="-1.04187">
        <ele>74</ele>
        <time>2020-12-20T10:07:16Z</time>
      </trkpt>
      <trkpt lat="47.83937" lon="-1.04184">
        <ele>74.2</ele>
        <time>2020-12-20T10:07:17Z</time>
      </trkpt>
      <trkpt lat="47.8394" lon="-1.0418">
        <ele>74.4</ele>
        <time>2020-12-20T10:07:18Z</time>
      </trkpt>
      <trkpt lat="47.83943" lon="-1.04177">
        <ele>74.5</ele>
        <time>2020-12-20T10:07:19Z</time>
      </trkpt>
      <trkpt lat="47.83945" lon="-1.04173">
        <ele>74.7</ele>
        <time>2020-12-20T10:07:20Z</time>
      </trkpt>
      <trkpt lat="47.83948" lon="-1.04169">
        <ele>74.9</ele>
        <time>2020-12-20T10:07:21Z</time>
      </trkpt>
      <trkpt lat="47.8395" lon="-1.04165">
        <ele>75.1</ele>
        <time>2020-12-20T10:07:22Z</time>
      </trkpt>
      <trkpt lat="47.83952" lon="-1.04161">
        <ele>75.2</ele>
        <time>2020-12-20T10:07:23Z</time>
      </trkpt>
      <trkpt lat="47.83955" lon="-1.04156">
        <ele>75.5</ele>
        <time>2020-12-20T10:07:24Z</time>
      </trkpt>
      <trkpt lat="47.83957" lon="-1.04152">
        <ele>75.6</ele>
        <time>2020-12-20T10:07:25Z</time>
      </trkpt>
      <trkpt lat="47.83959" lon="-1.04147">
        <ele>75.8</ele>
        <time>2020-12-20T10:07:26Z</time>
      </trkpt>
      <trkpt lat="47.83961" lon="-1.04143">
        <ele>76</ele>
        <time>2020-12-20T10:07:27Z</time>
      </trkpt>
      <trkpt lat="47.83964" lon="-1.04138">
        <ele>76.2</ele>
        <time>2020-12-20T10:07:28Z</time>
      </trkpt>
      <trkpt lat="47.83965" lon="-1.04133">
        <ele>76.4</ele>
        <time>2020-12-20T10:07:29Z</time>
      </trkpt>
      <trkpt lat="47.83967" lon="-1.04129">
        <ele>76.5</ele>
        <time>2020-12-20T10:07:30Z</time>
      </trkpt>
      <trkpt lat="47.83969" lon="-1.04125">
        <ele>76.7</ele>
        <time>2020-12-20T10:07:31Z</time>
      </trkpt>
      <trkpt lat="47.8397" lon="-1.04121">
        <ele>76.8</ele>
        <time>2020-12-20T10:07:32Z</time>
      </trkpt>
      <trkpt lat="47.83971" lon="-1.04117">
        <ele>77</ele>
        <time>2020-12-20T10:07:33Z</time>
      </trkpt>
      <trkpt lat="47.83972" lon="-1.04113">
        <ele>77.1</ele>
        <time>2020-12-20T10:07:34Z</time>
      </trkpt>
      <trkpt lat="47.83973" lon="-1.04108">
        <ele>77.3</ele>
        <time>2020-12-20T10:07:35Z</time>
      </trkpt>
      <trkpt lat="47.83974" lon="-1.04104">
        <ele>77.5</ele>
        <time>2020-12-20T10:07:36Z</time>
      </trkpt>
      <trkpt lat="47.83975" lon="-1.041">
        <ele>77.6</ele>
        <time>2020-12-20T10:07:37Z</time>
      </trkpt>
      <trkpt lat="47.83975" lon="-1.04096">
        <ele>77.8</ele>
        <time>2020-12-20T10:07:38Z</time>
      </trkpt>
      <trkpt lat="47.83975" lon="-1.04092">
        <ele>78</ele>
        <time>2020-12-20T10:07:39Z</time>
      </trkpt>
      <trkpt lat="47.83976" lon="-1.04088">
        <ele>78.1</ele>
        <time>2020-12-20T10:07:40Z</time>
      </trkpt>
      <trkpt lat="47.83977" lon="-1.04084">
        <ele>78.2</ele>
        <time>2020-12-20T10:07:41Z</time>
      </trkpt>
      <trkpt lat="47.83977" lon="-1.0408">
        <ele>78.4</ele>
        <time>2020-12-20T10:07:42Z</time>
      </trkpt>
      <trkpt lat="47.83978" lon="-1.04076">
        <ele>78.6</ele>
        <time>2020-12-20T10:07:43Z</time>
      </trkpt>
      <trkpt lat="47.83978" lon="-1.04072">
        <ele>78.8</ele>
        <time>2020-12-20T10:07:44Z</time>
      </trkpt>
      <trkpt lat="47.83979" lon="-1.04068">
        <ele>79</ele>
        <time>2020-12-20T10:07:45Z</time>
      </trkpt>
      <trkpt lat="47.83979" lon="-1.04065">
        <ele>79.1</ele>
        <time>2020-12-20T10:07:46Z</time>
      </trkpt>
      <trkpt lat="47.8398" lon="-1.04062">
        <ele>79.3</ele>
        <time>2020-12-20T10:07:47Z</time>
      </trkpt>
      <trkpt lat="47.83981" lon="-1.04059">
        <ele>79.4</ele>
        <time>2020-12-20T10:07:48Z</time>
      </trkpt>
      <trkpt lat="47.83982" lon="-1.04056">
        <ele>79.6</ele>
        <time>2020-12-20T10:07:49Z</time>
      </trkpt>
      <trkpt lat="47.83985" lon="-1.04054">
        <ele>79.7</ele>
        <time>2020-12-20T10:07:50Z</time>
      </trkpt>
      <trkpt lat="47.83988" lon="-1.04053">
        <ele>79.8</ele>
        <time>2020-12-20T10:07:51Z</time>
      </trkpt>
      <trkpt lat="47.83991" lon="-1.04052">
        <ele>79.8</ele>
        <time>2020-12-20T10:07:52Z</time>
      </trkpt>
      <trkpt lat="47.83995" lon="-1.04053">
        <ele>79.8</ele>
        <time>2020-12-20T10:07:53Z</time>
      </trkpt>
      <trkpt lat="47.83999" lon="-1.04053">
        <ele>79.8</ele>
        <time>2020-12-20T10:07:54Z</time>
      </trkpt>
      <trkpt lat="47.84003" lon="-1.04054">
        <ele>79.8</ele>
        <time>2020-12-20T10:07:55Z</time>
      </trkpt>
      <trkpt lat="47.84006" lon="-1.04054">
        <ele>79.9</ele>
        <time>2020-12-20T10:07:56Z</time>
      </trkpt>
      <trkpt lat="47.8401" lon="-1.04055">
        <ele>80</ele>
        <time>2020-12-20T10:07:57Z</time>
      </trkpt>
      <trkpt lat="47.84014" lon="-1.04057">
        <ele>80</ele>
        <time>2020-12-20T10:07:58Z</time>
      </trkpt>
      <trkpt lat="47.84016" lon="-1.0406">
        <ele>79.9</ele>
        <time>2020-12-20T10:07:59Z</time>
      </trkpt>
      <trkpt lat="47.84018" lon="-1.04065">
        <ele>79.7</ele>
        <time>2020-12-20T10:08:00Z</time>
      </trkpt>
      <trkpt lat="47.84019" lon="-1.04071">
        <ele>79.4</ele>
        <time>2020-12-20T10:08:01Z</time>
      </trkpt>
      <trkpt lat="47.84019" lon="-1.04077">
        <ele>79</ele>
        <time>2020-12-20T10:08:02Z</time>
      </trkpt>
      <trkpt lat="47.84019" lon="-1.04084">
        <ele>78.7</ele>
        <time>2020-12-20T10:08:03Z</time>
      </trkpt>
      <trkpt lat="47.84019" lon="-1.04092">
        <ele>78.3</ele>
        <time>2020-12-20T10:08:04Z</time>
      </trkpt>
      <trkpt lat="47.84019" lon="-1.041">
        <ele>78</ele>
        <time>2020-12-20T10:08:05Z</time>
      </trkpt>
      <trkpt lat="47.84019" lon="-1.04109">
        <ele>77.7</ele>
        <time>2020-12-20T10:08:06Z</time>
      </trkpt>
      <trkpt lat="47.84018" lon="-1.04117">
        <ele>77.3</ele>
        <time>2020-12-20T10:08:07Z</time>
      </trkpt>
      <trkpt lat="47.84017" lon="-1.04124">
        <ele>77</ele>
        <time>2020-12-20T10:08:08Z</time>
      </trkpt>
      <trkpt lat="47.84015" lon="-1.04131">
        <ele>76.7</ele>
        <time>2020-12-20T10:08:09Z</time>
      </trkpt>
      <trkpt lat="47.84013" lon="-1.04137">
        <ele>76.4</ele>
        <time>2020-12-20T10:08:10Z</time>
      </trkpt>
      <trkpt lat="47.84012" lon="-1.04143">
        <ele>76.2</ele>
        <time>2020-12-20T10:08:11Z</time>
      </trkpt>
      <trkpt lat="47.84012" lon="-1.04148">
        <ele>76</ele>
        <time>2020-12-20T10:08:12Z</time>
      </trkpt>
      <trkpt lat="47.84014" lon="-1.04151">
        <ele>75.9</ele>
        <time>2020-12-20T10:08:13Z</time>
      </trkpt>
      <trkpt lat="47.84018" lon="-1.04152">
        <ele>76</ele>
        <time>2020-12-20T10:08:14Z</time>
      </trkpt>
      <trkpt lat="47.84022" lon="-1.04155">
        <ele>76</ele>
        <time>2020-12-20T10:08:15Z</time>
      </trkpt>
      <trkpt lat="47.84026" lon="-1.04159">
        <ele>75.9</ele>
        <time>2020-12-20T10:08:16Z</time>
      </trkpt>
      <trkpt lat="47.8403" lon="-1.04163">
        <ele>75.9</ele>
        <time>2020-12-20T10:08:17Z</time>
      </trkpt>
      <trkpt lat="47.84034" lon="-1.04167">
        <ele>75.8</ele>
        <time>2020-12-20T10:08:18Z</time>
      </trkpt>
      <trkpt lat="47.84038" lon="-1.0417">
        <ele>75.8</ele>
        <time>2020-12-20T10:08:19Z</time>
      </trkpt>
      <trkpt lat="47.84042" lon="-1.04174">
        <ele>75.7</ele>
        <time>2020-12-20T10:08:20Z</time>
      </trkpt>
      <trkpt lat="47.84046" lon="-1.04177">
        <ele>75.6</ele>
        <time>2020-12-20T10:08:21Z</time>
      </trkpt>
      <trkpt lat="47.84049" lon="-1.0418">
        <ele>75.5</ele>
        <time>2020-12-20T10:08:22Z</time>
      </trkpt>
      <trkpt lat="47.84053" lon="-1.04184">
        <ele>75.4</ele>
        <time>2020-12-20T10:08:23Z</time>
      </trkpt>
      <trkpt lat="47.84057" lon="-1.04187">
        <ele>75.4</ele>
        <time>2020-12-20T10:08:24Z</time>
      </trkpt>
      <trkpt lat="47.8406" lon="-1.0419">
        <ele>75.3</ele>
        <time>2020-12-20T10:08:25Z</time>
      </trkpt>
      <trkpt lat="47.84063" lon="-1.04193">
        <ele>75.2</ele>
        <time>2020-12-20T10:08:26Z</time>
      </trkpt>
      <trkpt lat="47.84066" lon="-1.04195">
        <ele>75.2</ele>
        <time>2020-12-20T10:08:27Z</time>
      </trkpt>
      <trkpt lat="47.8407" lon="-1.04197">
        <ele>75.2</ele>
        <time>2020-12-20T10:08:28Z</time>
      </trkpt>
      <trkpt lat="47.84073" lon="-1.04197">
        <ele>75.3</ele>
        <time>2020-12-20T10:08:29Z</time>
      </trkpt>
      <trkpt lat="47.84075" lon="-1.04195">
        <ele>75.4</ele>
        <time>2020-12-20T10:08:30Z</time>
      </trkpt>
      <trkpt lat="47.84077" lon="-1.04191">
        <ele>75.7</ele>
        <time>2020-12-20T10:08:31Z</time>
      </trkpt>
      <trkpt lat="47.84078" lon="-1.04185">
        <ele>76</ele>
        <time>2020-12-20T10:08:32Z</time>
      </trkpt>
      <trkpt lat="47.84078" lon="-1.04177">
        <ele>76.4</ele>
        <time>2020-12-20T10:08:33Z</time>
      </trkpt>
      <trkpt lat="47.84078" lon="-1.04169">
        <ele>76.8</ele>
        <time>2020-12-20T10:08:34Z</time>
      </trkpt>
      <trkpt lat="47.84078" lon="-1.04162">
        <ele>77.1</ele>
        <time>2020-12-20T10:08:35Z</time>
      </trkpt>
      <trkpt lat="47.84078" lon="-1.04154">
        <ele>77.5</ele>
        <time>2020-12-20T10:08:36Z</time>
      </trkpt>
      <trkpt lat="47.84078" lon="-1.04147">
        <ele>77.8</ele>
        <time>2020-12-20T10:08:37Z</time>
      </trkpt>
      <trkpt lat="47.84078" lon="-1.04139">
        <ele>78.2</ele>
        <time>2020-12-20T10:08:38Z</time>
      </trkpt>
      <trkpt lat="47.84079" lon="-1.04131">
        <ele>78.6</ele>
        <time>2020-12-20T10:08:39Z</time>
      </trkpt>
      <trkpt lat="47.84079" lon="-1.04124">
        <ele>78.9</ele>
        <time>2020-12-20T10:08:40Z</time>
      </trkpt>
      <trkpt lat="47.84079" lon="-1.04116">
        <ele>79.3</ele>
        <time>2020-12-20T10:08:41Z</time>
      </trkpt>
      <trkpt lat="47.8408" lon="-1.04109">
        <ele>79.7</ele>
        <time>2020-12-20T10:08:42Z</time>
      </trkpt>
      <trkpt lat="47.8408" lon="-1.04101">
        <ele>80</ele>
        <time>2020-12-20T10:08:43Z</time>
      </trkpt>
      <trkpt lat="47.8408" lon="-1.04093">
        <ele>80.4</ele>
        <time>2020-12-20T10:08:44Z</time>
      </trkpt>
      <trkpt lat="47.84081" lon="-1.04086">
        <ele>80.8</ele>
        <time>2020-12-20T10:08:45Z</time>
      </trkpt>
      <trkpt lat="47.8408" lon="-1.04077">
        <ele>81.1</ele>
        <time>2020-12-20T10:08:46Z</time>
      </trkpt>
      <trkpt lat="47.8408" lon="-1.04069">
        <ele>81.4</ele>
        <time>2020-12-20T10:08:47Z</time>
      </trkpt>
      <trkpt lat="47.84078" lon="-1.04062">
        <ele>81.6</ele>
        <time>2020-12-20T10:08:48Z</time>
      </trkpt>
      <trkpt lat="47.84076" lon="-1.04054">
        <ele>81.9</ele>
        <time>2020-12-20T10:08:49Z</time>
      </trkpt>
      <trkpt lat="47.84073" lon="-1.04046">
        <ele>82.1</ele>
        <time>2020-12-20T10:08:50Z</time>
      </trkpt>
      <trkpt lat="47.84071" lon="-1.04039">
        <ele>82.3</ele>
        <time>2020-12-20T10:08:51Z</time>
      </trkpt>
      <trkpt lat="47.84069" lon="-1.04032">
        <ele>82.5</ele>
        <time>2020-12-20T10:08:52Z</time>
      </trkpt>
      <trkpt lat="47.84067" lon="-1.04024">
        <ele>82.8</ele>
        <time>2020-12-20T10:08:53Z</time>
      </trkpt>
      <trkpt lat="47.84065" lon="-1.04017">
        <ele>83.1</ele>
        <time>2020-12-20T10:08:54Z</time>
      </trkpt>
      <trkpt lat="47.84063" lon="-1.0401">
        <ele>83.3</ele>
        <time>2020-12-20T10:08:55Z</time>
      </trkpt>
      <trkpt lat="47.84061" lon="-1.04003">
        <ele>83.6</ele>
        <time>2020-12-20T10:08:56Z</time>
      </trkpt>
      <trkpt lat="47.8406" lon="-1.03997">
        <ele>83.8</ele>
        <time>2020-12-20T10:08:57Z</time>
      </trkpt>
      <trkpt lat="47.84058" lon="-1.0399">
        <ele>84.1</ele>
        <time>2020-12-20T10:08:58Z</time>
      </trkpt>
      <trkpt lat="47.84056" lon="-1.03984">
        <ele>84.2</ele>
        <time>2020-12-20T10:08:59Z</time>
      </trkpt>
      <trkpt lat="47.84055" lon="-1.03977">
        <ele>84.5</ele>
        <time>2020-12-20T10:09:00Z</time>
      </trkpt>
      <trkpt lat="47.84053" lon="-1.03972">
        <ele>84.6</ele>
        <time>2020-12-20T10:09:01Z</time>
      </trkpt>
      <trkpt lat="47.84051" lon="-1.03965">
        <ele>84.9</ele>
        <time>2020-12-20T10:09:02Z</time>
      </trkpt>
      <trkpt lat="47.84049" lon="-1.03959">
        <ele>85.1</ele>
        <time>2020-12-20T10:09:03Z</time>
      </trkpt>
      <trkpt lat="47.84047" lon="-1.03953">
        <ele>85.3</ele>
        <time>2020-12-20T10:09:04Z</time>
      </trkpt>
      <trkpt lat="47.84044" lon="-1.03947">
        <ele>85.4</ele>
        <time>2020-12-20T10:09:05Z</time>
      </trkpt>
      <trkpt lat="47.84041" lon="-1.03941">
        <ele>85.6</ele>
        <time>2020-12-20T10:09:06Z</time>
      </trkpt>
      <trkpt lat="47.84038" lon="-1.03936">
        <ele>85.8</ele>
        <time>2020-12-20T10:09:07Z</time>
      </trkpt>
      <trkpt lat="47.84034" lon="-1.03931">
        <ele>85.9</ele>
        <time>2020-12-20T10:09:08Z</time>
      </trkpt>
      <trkpt lat="47.8403" lon="-1.03928">
        <ele>86</ele>
        <time>2020-12-20T10:09:09Z</time>
      </trkpt>
      <trkpt lat="47.84026" lon="-1.03927">
        <ele>85.9</ele>
        <time>2020-12-20T10:09:10Z</time>
      </trkpt>
      <trkpt lat="47.84022" lon="-1.03929">
        <ele>85.8</ele>
        <time>2020-12-20T10:09:11Z</time>
      </trkpt>
      <trkpt lat="47.8402" lon="-1.03934">
        <ele>85.6</ele>
        <time>2020-12-20T10:09:12Z</time>
      </trkpt>
      <trkpt lat="47.84018" lon="-1.0394">
        <ele>85.4</ele>
        <time>2020-12-20T10:09:13Z</time>
      </trkpt>
      <trkpt lat="47.84017" lon="-1.03948">
        <ele>85.1</ele>
        <time>2020-12-20T10:09:14Z</time>
      </trkpt>
      <trkpt lat="47.84015" lon="-1.03955">
        <ele>84.8</ele>
        <time>2020-12-20T10:09:15Z</time>
      </trkpt>
      <trkpt lat="47.84012" lon="-1.0396">
        <ele>84.6</ele>
        <time>2020-12-20T10:09:16Z</time>
      </trkpt>
      <trkpt lat="47.84007" lon="-1.03962">
        <ele>84.5</ele>
        <time>2020-12-20T10:09:17Z</time>
      </trkpt>
      <trkpt lat="47.84002" lon="-1.03962">
        <ele>84.4</ele>
        <time>2020-12-20T10:09:18Z</time>
      </trkpt>
      <trkpt lat="47.83996" lon="-1.03962">
        <ele>84.2</ele>
        <time>2020-12-20T10:09:19Z</time>
      </trkpt>
      <trkpt lat="47.83991" lon="-1.03963">
        <ele>84.1</ele>
        <time>2020-12-20T10:09:20Z</time>
      </trkpt>
      <trkpt lat="47.83986" lon="-1.03964">
        <ele>83.9</ele>
        <time>2020-12-20T10:09:21Z</time>
      </trkpt>
      <trkpt lat="47.83982" lon="-1.03963">
        <ele>83.8</ele>
        <time>2020-12-20T10:09:22Z</time>
      </trkpt>
      <trkpt lat="47.83978" lon="-1.0396">
        <ele>83.8</ele>
        <time>2020-12-20T10:09:23Z</time>
      </trkpt>
      <trkpt lat="47.83976" lon="-1.03955">
        <ele>83.9</ele>
        <time>2020-12-20T10:09:24Z</time>
      </trkpt>
      <trkpt lat="47.83975" lon="-1.03949">
        <ele>84.1</ele>
        <time>2020-12-20T10:09:25Z</time>
      </trkpt>
      <trkpt lat="47.83975" lon="-1.03942">
        <ele>84.4</ele>
        <time>2020-12-20T10:09:26Z</time>
      </trkpt>
      <trkpt lat="47.83976" lon="-1.03935">
        <ele>84.7</ele>
        <time>2020-12-20T10:09:27Z</time>
      </trkpt>
      <trkpt lat="47.83977" lon="-1.03929">
        <ele>85</ele>
        <time>2020-12-20T10:09:28Z</time>
      </trkpt>
      <trkpt lat="47.83978" lon="-1.03923">
        <ele>85.2</ele>
        <time>2020-12-20T10:09:29Z</time>
      </trkpt>
      <trkpt lat="47.83979" lon="-1.03917">
        <ele>85.5</ele>
        <time>2020-12-20T10:09:30Z</time>
      </trkpt>
      <trkpt lat="47.83979" lon="-1.03911">
        <ele>85.7</ele>
        <time>2020-12-20T10:09:31Z</time>
      </trkpt>
      <trkpt lat="47.83981" lon="-1.03906">
        <ele>86</ele>
        <time>2020-12-20T10:09:32Z</time>
      </trkpt>
      <trkpt lat="47.83982" lon="-1.039">
        <ele>86.2</ele>
        <time>2020-12-20T10:09:33Z</time>
      </trkpt>
      <trkpt lat="47.83984" lon="-1.03895">
        <ele>86.4</ele>
        <time>2020-12-20T10:09:34Z</time>
      </trkpt>
      <trkpt lat="47.83986" lon="-1.0389">
        <ele>86.7</ele>
        <time>2020-12-20T10:09:35Z</time>
      </trkpt>
      <trkpt lat="47.83988" lon="-1.03885">
        <ele>86.9</ele>
        <time>2020-12-20T10:09:36Z</time>
      </trkpt>
      <trkpt lat="47.8399" lon="-1.0388">
        <ele>87.1</ele>
        <time>2020-12-20T10:09:37Z</time>
      </trkpt>
      <trkpt lat="47.83993" lon="-1.03876">
        <ele>87.3</ele>
        <time>2020-12-20T10:09:38Z</time>
      </trkpt>
      <trkpt lat="47.83995" lon="-1.03871">
        <ele>87.6</ele>
        <time>2020-12-20T10:09:39Z</time>
      </trkpt>
      <trkpt lat="47.83997" lon="-1.03867">
        <ele>87.7</ele>
        <time>2020-12-20T10:09:40Z</time>
      </trkpt>
      <trkpt lat="47.84" lon="-1.03863">
        <ele>87.9</ele>
        <time>2020-12-20T10:09:41Z</time>
      </trkpt>
      <trkpt lat="47.84003" lon="-1.03859">
        <ele>88.1</ele>
        <time>2020-12-20T10:09:42Z</time>
      </trkpt>
      <trkpt lat="47.84006" lon="-1.03855">
        <ele>88.3</ele>
        <time>2020-12-20T10:09:43Z</time>
      </trkpt>
      <trkpt lat="47.84009" lon="-1.03851">
        <ele>88.5</ele>
        <time>2020-12-20T10:09:44Z</time>
      </trkpt>
      <trkpt lat="47.84012" lon="-1.03847">
        <ele>88.7</ele>
        <time>2020-12-20T10:09:45Z</time>
      </trkpt>
      <trkpt lat="47.84015" lon="-1.03842">
        <ele>88.9</ele>
        <time>2020-12-20T10:09:46Z</time>
      </trkpt>
      <trkpt lat="47.84018" lon="-1.03839">
        <ele>89</ele>
        <time>2020-12-20T10:09:47Z</time>
      </trkpt>
      <trkpt lat="47.84021" lon="-1.03836">
        <ele>89.2</ele>
        <time>2020-12-20T10:09:48Z</time>
      </trkpt>
      <trkpt lat="47.84024" lon="-1.03833">
        <ele>89.3</ele>
        <time>2020-12-20T10:09:49Z</time>
      </trkpt>
      <trkpt lat="47.84026" lon="-1.03831">
        <ele>89.3</ele>
        <time>2020-12-20T10:09:50Z</time>
      </trkpt>
      <trkpt lat="47.84028" lon="-1.03829">
        <ele>89.4</ele>
        <time>2020-12-20T10:09:51Z</time>
      </trkpt>
      <trkpt lat="47.84028" lon="-1.03826">
        <ele>89.4</ele>
        <time>2020-12-20T10:09:52Z</time>
      </trkpt>
      <trkpt lat="47.84026" lon="-1.03822">
        <ele>89.4</ele>
        <time>2020-12-20T10:09:53Z</time>
      </trkpt>
      <trkpt lat="47.84024" lon="-1.03818">
        <ele>89.4</ele>
        <time>2020-12-20T10:09:54Z</time>
      </trkpt>
      <trkpt lat="47.84021" lon="-1.03814">
        <ele>89.5</ele>
        <time>2020-12-20T10:09:55Z</time>
      </trkpt>
      <trkpt lat="47.84018" lon="-1.0381">
        <ele>89.5</ele>
        <time>2020-12-20T10:09:56Z</time>
      </trkpt>
      <trkpt lat="47.84015" lon="-1.03807">
        <ele>89.6</ele>
        <time>2020-12-20T10:09:57Z</time>
      </trkpt>
      <trkpt lat="47.84012" lon="-1.03804">
        <ele>89.6</ele>
        <time>2020-12-20T10:09:58Z</time>
      </trkpt>
      <trkpt lat="47.8401" lon="-1.03801">
        <ele>89.7</ele>
        <time>2020-12-20T10:09:59Z</time>
      </trkpt>
      <trkpt lat="47.84009" lon="-1.03798">
        <ele>89.8</ele>
        <time>2020-12-20T10:10:00Z</time>
      </trkpt>
      <trkpt lat="47.84008" lon="-1.03795">
        <ele>89.8</ele>
        <time>2020-12-20T10:10:01Z</time>
      </trkpt>
      <trkpt lat="47.84007" lon="-1.03793">
        <ele>89.9</ele>
        <time>2020-12-20T10:10:02Z</time>
      </trkpt>
      <trkpt lat="47.84008" lon="-1.0379">
        <ele>89.9</ele>
        <time>2020-12-20T10:10:03Z</time>
      </trkpt>
      <trkpt lat="47.8401" lon="-1.03788">
        <ele>89.9</ele>
        <time>2020-12-20T10:10:04Z</time>
      </trkpt>
      <trkpt lat="47.84013" lon="-1.03786">
        <ele>89.9</ele>
        <time>2020-12-20T10:10:05Z</time>
      </trkpt>
      <trkpt lat="47.84016" lon="-1.03784">
        <ele>89.9</ele>
        <time>2020-12-20T10:10:06Z</time>
      </trkpt>
      <trkpt lat="47.8402" lon="-1.03782">
        <ele>89.9</ele>
        <time>2020-12-20T10:10:07Z</time>
      </trkpt>
      <trkpt lat="47.84024" lon="-1.03781">
        <ele>89.8</ele>
        <time>2020-12-20T10:10:08Z</time>
      </trkpt>
      <trkpt lat="47.84027" lon="-1.03779">
        <ele>89.8</ele>
        <time>2020-12-20T10:10:09Z</time>
      </trkpt>
      <trkpt lat="47.8403" lon="-1.03775">
        <ele>89.8</ele>
        <time>2020-12-20T10:10:10Z</time>
      </trkpt>
      <trkpt lat="47.84032" lon="-1.03772">
        <ele>89.7</ele>
        <time>2020-12-20T10:10:11Z</time>
      </trkpt>
      <trkpt lat="47.84035" lon="-1.03769">
        <ele>89.7</ele>
        <time>2020-12-20T10:10:12Z</time>
      </trkpt>
      <trkpt lat="47.84038" lon="-1.03767">
        <ele>89.6</ele>
        <time>2020-12-20T10:10:13Z</time>
      </trkpt>
      <trkpt lat="47.84041" lon="-1.03765">
        <ele>89.5</ele>
        <time>2020-12-20T10:10:14Z</time>
      </trkpt>
      <trkpt lat="47.84044" lon="-1.03763">
        <ele>89.4</ele>
        <time>2020-12-20T10:10:15Z</time>
      </trkpt>
      <trkpt lat="47.84047" lon="-1.03761">
        <ele>89.3</ele>
        <time>2020-12-20T10:10:16Z</time>
      </trkpt>
      <trkpt lat="47.84049" lon="-1.03759">
        <ele>89.3</ele>
        <time>2020-12-20T10:10:17Z</time>
      </trkpt>
      <trkpt lat="47.84051" lon="-1.03757">
        <ele>89.2</ele>
        <time>2020-12-20T10:10:18Z</time>
      </trkpt>
      <trkpt lat="47.84053" lon="-1.03755">
        <ele>89.1</ele>
        <time>2020-12-20T10:10:19Z</time>
      </trkpt>
      <trkpt lat="47.84055" lon="-1.03753">
        <ele>89</ele>
        <time>2020-12-20T10:10:20Z</time>
      </trkpt>
      <trkpt lat="47.84055" lon="-1.03749">
        <ele>89</ele>
        <time>2020-12-20T10:10:21Z</time>
      </trkpt>
      <trkpt lat="47.84054" lon="-1.03744">
        <ele>88.9</ele>
        <time>2020-12-20T10:10:22Z</time>
      </trkpt>
      <trkpt lat="47.84051" lon="-1.03738">
        <ele>88.9</ele>
        <time>2020-12-20T10:10:23Z</time>
      </trkpt>
      <trkpt lat="47.8405" lon="-1.03733">
        <ele>88.8</ele>
        <time>2020-12-20T10:10:24Z</time>
      </trkpt>
      <trkpt lat="47.84047" lon="-1.03726">
        <ele>88.7</ele>
        <time>2020-12-20T10:10:25Z</time>
      </trkpt>
      <trkpt lat="47.84044" lon="-1.03718">
        <ele>88.6</ele>
        <time>2020-12-20T10:10:26Z</time>
      </trkpt>
      <trkpt lat="47.84041" lon="-1.0371">
        <ele>88.6</ele>
        <time>2020-12-20T10:10:27Z</time>
      </trkpt>
      <trkpt lat="47.84039" lon="-1.03705">
        <ele>88.5</ele>
        <time>2020-12-20T10:10:28Z</time>
      </trkpt>
      <trkpt lat="47.84036" lon="-1.03697">
        <ele>88.4</ele>
        <time>2020-12-20T10:10:29Z</time>
      </trkpt>
      <trkpt lat="47.84032" lon="-1.03688">
        <ele>88.4</ele>
        <time>2020-12-20T10:10:30Z</time>
      </trkpt>
      <trkpt lat="47.8403" lon="-1.03682">
        <ele>88.3</ele>
        <time>2020-12-20T10:10:31Z</time>
      </trkpt>
      <trkpt lat="47.84027" lon="-1.03673">
        <ele>88.2</ele>
        <time>2020-12-20T10:10:32Z</time>
      </trkpt>
      <trkpt lat="47.84024" lon="-1.03666">
        <ele>88.1</ele>
        <time>2020-12-20T10:10:33Z</time>
      </trkpt>
      <trkpt lat="47.84021" lon="-1.03658">
        <ele>87.9</ele>
        <time>2020-12-20T10:10:34Z</time>
      </trkpt>
      <trkpt lat="47.84017" lon="-1.03648">
        <ele>87.5</ele>
        <time>2020-12-20T10:10:35Z</time>
      </trkpt>
      <trkpt lat="47.84014" lon="-1.0364">
        <ele>87.3</ele>
        <time>2020-12-20T10:10:36Z</time>
      </trkpt>
      <trkpt lat="47.84011" lon="-1.03631">
        <ele>86.9</ele>
        <time>2020-12-20T10:10:37Z</time>
      </trkpt>
      <trkpt lat="47.84007" lon="-1.03622">
        <ele>86.6</ele>
        <time>2020-12-20T10:10:38Z</time>
      </trkpt>
      <trkpt lat="47.84004" lon="-1.03613">
        <ele>86.3</ele>
        <time>2020-12-20T10:10:39Z</time>
      </trkpt>
      <trkpt lat="47.84" lon="-1.03601">
        <ele>85.8</ele>
        <time>2020-12-20T10:10:40Z</time>
      </trkpt>
      <trkpt lat="47.83997" lon="-1.03593">
        <ele>85.6</ele>
        <time>2020-12-20T10:10:41Z</time>
      </trkpt>
      <trkpt lat="47.83993" lon="-1.03583">
        <ele>85.3</ele>
        <time>2020-12-20T10:10:42Z</time>
      </trkpt>
      <trkpt lat="47.8399" lon="-1.03573">
        <ele>85.1</ele>
        <time>2020-12-20T10:10:43Z</time>
      </trkpt>
      <trkpt lat="47.83987" lon="-1.03564">
        <ele>84.9</ele>
        <time>2020-12-20T10:10:44Z</time>
      </trkpt>
      <trkpt lat="47.83983" lon="-1.03554">
        <ele>84.7</ele>
        <time>2020-12-20T10:10:45Z</time>
      </trkpt>
      <trkpt lat="47.8398" lon="-1.03545">
        <ele>84.5</ele>
        <time>2020-12-20T10:10:46Z</time>
      </trkpt>
      <trkpt lat="47.83976" lon="-1.03535">
        <ele>84.2</ele>
        <time>2020-12-20T10:10:47Z</time>
      </trkpt>
      <trkpt lat="47.83973" lon="-1.03525">
        <ele>84</ele>
        <time>2020-12-20T10:10:48Z</time>
      </trkpt>
      <trkpt lat="47.83969" lon="-1.03516">
        <ele>83.8</ele>
        <time>2020-12-20T10:10:49Z</time>
      </trkpt>
      <trkpt lat="47.83965" lon="-1.03506">
        <ele>83.5</ele>
        <time>2020-12-20T10:10:50Z</time>
      </trkpt>
      <trkpt lat="47.83961" lon="-1.03497">
        <ele>83.3</ele>
        <time>2020-12-20T10:10:51Z</time>
      </trkpt>
      <trkpt lat="47.83957" lon="-1.03488">
        <ele>83</ele>
        <time>2020-12-20T10:10:52Z</time>
      </trkpt>
      <trkpt lat="47.83954" lon="-1.03478">
        <ele>82.7</ele>
        <time>2020-12-20T10:10:53Z</time>
      </trkpt>
      <trkpt lat="47.83951" lon="-1.03469">
        <ele>82.4</ele>
        <time>2020-12-20T10:10:54Z</time>
      </trkpt>
      <trkpt lat="47.83948" lon="-1.03459">
        <ele>82.1</ele>
        <time>2020-12-20T10:10:55Z</time>
      </trkpt>
      <trkpt lat="47.83945" lon="-1.0345">
        <ele>82</ele>
        <time>2020-12-20T10:10:56Z</time>
      </trkpt>
      <trkpt lat="47.83942" lon="-1.03441">
        <ele>81.8</ele>
        <time>2020-12-20T10:10:57Z</time>
      </trkpt>
      <trkpt lat="47.83938" lon="-1.03431">
        <ele>81.7</ele>
        <time>2020-12-20T10:10:58Z</time>
      </trkpt>
      <trkpt lat="47.83935" lon="-1.03422">
        <ele>81.6</ele>
        <time>2020-12-20T10:10:59Z</time>
      </trkpt>
      <trkpt lat="47.83932" lon="-1.03413">
        <ele>81.7</ele>
        <time>2020-12-20T10:11:00Z</time>
      </trkpt>
      <trkpt lat="47.83928" lon="-1.03404">
        <ele>81.9</ele>
        <time>2020-12-20T10:11:01Z</time>
      </trkpt>
      <trkpt lat="47.83925" lon="-1.03397">
        <ele>82</ele>
        <time>2020-12-20T10:11:02Z</time>
      </trkpt>
      <trkpt lat="47.83923" lon="-1.0339">
        <ele>82.1</ele>
        <time>2020-12-20T10:11:03Z</time>
      </trkpt>
      <trkpt lat="47.83921" lon="-1.03384">
        <ele>82.2</ele>
        <time>2020-12-20T10:11:04Z</time>
      </trkpt>
      <trkpt lat="47.83919" lon="-1.03379">
        <ele>82.3</ele>
        <time>2020-12-20T10:11:05Z</time>
      </trkpt>
      <trkpt lat="47.83917" lon="-1.03376">
        <ele>82.5</ele>
        <time>2020-12-20T10:11:06Z</time>
      </trkpt>
      <trkpt lat="47.83916" lon="-1.03373">
        <ele>82.6</ele>
        <time>2020-12-20T10:11:07Z</time>
      </trkpt>
      <trkpt lat="47.83916" lon="-1.03372">
        <ele>82.6</ele>
        <time>2020-12-20T10:11:08Z</time>
      </trkpt>
      <trkpt lat="47.83915" lon="-1.0337">
        <ele>82.7</ele>
        <time>2020-12-20T10:11:09Z</time>
      </trkpt>
      <trkpt lat="47.83915" lon="-1.03368">
        <ele>82.7</ele>
        <time>2020-12-20T10:11:10Z</time>
      </trkpt>
      <trkpt lat="47.83914" lon="-1.03367">
        <ele>82.9</ele>
        <time>2020-12-20T10:11:11Z</time>
      </trkpt>
      <trkpt lat="47.83914" lon="-1.03365">
        <ele>82.8</ele>
        <time>2020-12-20T10:11:12Z</time>
      </trkpt>
      <trkpt lat="47.83913" lon="-1.03364">
        <ele>83</ele>
        <time>2020-12-20T10:11:13Z</time>
      </trkpt>
      <trkpt lat="47.83913" lon="-1.03363">
        <ele>83</ele>
        <time>2020-12-20T10:11:14Z</time>
      </trkpt>
      <trkpt lat="47.83912" lon="-1.03362">
        <ele>83.1</ele>
        <time>2020-12-20T10:11:15Z</time>
      </trkpt>
      <trkpt lat="47.83912" lon="-1.03361">
        <ele>83.1</ele>
        <time>2020-12-20T10:11:16Z</time>
      </trkpt>
      <trkpt lat="47.83912" lon="-1.0336">
        <ele>83.1</ele>
        <time>2020-12-20T10:11:17Z</time>
      </trkpt>
      <trkpt lat="47.83911" lon="-1.03359">
        <ele>83.3</ele>
        <time>2020-12-20T10:11:18Z</time>
      </trkpt>
      <trkpt lat="47.83911" lon="-1.03359">
        <ele>83.3</ele>
        <time>2020-12-20T10:11:19Z</time>
      </trkpt>
      <trkpt lat="47.83911" lon="-1.03359">
        <ele>83.3</ele>
        <time>2020-12-20T10:11:20Z</time>
      </trkpt>
      <trkpt lat="47.8391" lon="-1.0336">
        <ele>83.4</ele>
        <time>2020-12-20T10:11:21Z</time>
      </trkpt>
      <trkpt lat="47.83909" lon="-1.03362">
        <ele>83.6</ele>
        <time>2020-12-20T10:11:22Z</time>
      </trkpt>
      <trkpt lat="47.83907" lon="-1.03363">
        <ele>84</ele>
        <time>2020-12-20T10:11:23Z</time>
      </trkpt>
      <trkpt lat="47.83906" lon="-1.03365">
        <ele>84.2</ele>
        <time>2020-12-20T10:11:24Z</time>
      </trkpt>
      <trkpt lat="47.83905" lon="-1.03365">
        <ele>84.3</ele>
        <time>2020-12-20T10:11:25Z</time>
      </trkpt>
      <trkpt lat="47.83904" lon="-1.03365">
        <ele>84.5</ele>
        <time>2020-12-20T10:11:26Z</time>
      </trkpt>
      <trkpt lat="47.83903" lon="-1.03365">
        <ele>84.7</ele>
        <time>2020-12-20T10:11:27Z</time>
      </trkpt>
      <trkpt lat="47.83903" lon="-1.03366">
        <ele>84.7</ele>
        <time>2020-12-20T10:11:28Z</time>
      </trkpt>
      <trkpt lat="47.83902" lon="-1.03366">
        <ele>84.9</ele>
        <time>2020-12-20T10:11:29Z</time>
      </trkpt>
      <trkpt lat="47.83902" lon="-1.03366">
        <ele>84.9</ele>
        <time>2020-12-20T10:11:30Z</time>
      </trkpt>
      <trkpt lat="47.83902" lon="-1.03366">
        <ele>84.9</ele>
        <time>2020-12-20T10:11:31Z</time>
      </trkpt>
      <trkpt lat="47.83902" lon="-1.03366">
        <ele>84.9</ele>
        <time>2020-12-20T10:11:32Z</time>
      </trkpt>
      <trkpt lat="47.83902" lon="-1.03366">
        <ele>84.9</ele>
        <time>2020-12-20T10:11:33Z</time>
      </trkpt>
      <trkpt lat="47.83902" lon="-1.03367">
        <ele>84.9</ele>
        <time>2020-12-20T10:11:42Z</time>
      </trkpt>
      <trkpt lat="47.83902" lon="-1.03367">
        <ele>84.9</ele>
        <time>2020-12-20T10:11:43Z</time>
      </trkpt>
      <trkpt lat="47.83901" lon="-1.03367">
        <ele>85</ele>
        <time>2020-12-20T10:11:44Z</time>
      </trkpt>
      <trkpt lat="47.839" lon="-1.03367">
        <ele>85.2</ele>
        <time>2020-12-20T10:11:45Z</time>
      </trkpt>
      <trkpt lat="47.839" lon="-1.03367">
        <ele>85.2</ele>
        <time>2020-12-20T10:11:46Z</time>
      </trkpt>
      <trkpt lat="47.839" lon="-1.03366">
        <ele>85.2</ele>
        <time>2020-12-20T10:11:47Z</time>
      </trkpt>
      <trkpt lat="47.839" lon="-1.03366">
        <ele>85.2</ele>
        <time>2020-12-20T10:11:48Z</time>
      </trkpt>
      <trkpt lat="47.839" lon="-1.03366">
        <ele>85.2</ele>
        <time>2020-12-20T10:11:49Z</time>
      </trkpt>
      <trkpt lat="47.83899" lon="-1.03365">
        <ele>85.3</ele>
        <time>2020-12-20T10:11:50Z</time>
      </trkpt>
      <trkpt lat="47.83898" lon="-1.03364">
        <ele>85.5</ele>
        <time>2020-12-20T10:11:51Z</time>
      </trkpt>
      <trkpt lat="47.83896" lon="-1.03363">
        <ele>85.8</ele>
        <time>2020-12-20T10:11:52Z</time>
      </trkpt>
      <trkpt lat="47.83894" lon="-1.03363">
        <ele>86.2</ele>
        <time>2020-12-20T10:11:53Z</time>
      </trkpt>
      <trkpt lat="47.83892" lon="-1.03365">
        <ele>86.5</ele>
        <time>2020-12-20T10:11:54Z</time>
      </trkpt>
      <trkpt lat="47.83889" lon="-1.03367">
        <ele>87.1</ele>
        <time>2020-12-20T10:11:55Z</time>
      </trkpt>
      <trkpt lat="47.83887" lon="-1.03369">
        <ele>87.4</ele>
        <time>2020-12-20T10:11:56Z</time>
      </trkpt>
      <trkpt lat="47.83886" lon="-1.03371">
        <ele>87.6</ele>
        <time>2020-12-20T10:11:57Z</time>
      </trkpt>
      <trkpt lat="47.83883" lon="-1.03374">
        <ele>88.1</ele>
        <time>2020-12-20T10:11:58Z</time>
      </trkpt>
      <trkpt lat="47.83881" lon="-1.03376">
        <ele>88.5</ele>
        <time>2020-12-20T10:11:59Z</time>
      </trkpt>
      <trkpt lat="47.83878" lon="-1.03378">
        <ele>89</ele>
        <time>2020-12-20T10:12:00Z</time>
      </trkpt>
      <trkpt lat="47.83877" lon="-1.0338">
        <ele>89.2</ele>
        <time>2020-12-20T10:12:01Z</time>
      </trkpt>
      <trkpt lat="47.83875" lon="-1.03384">
        <ele>89.6</ele>
        <time>2020-12-20T10:12:02Z</time>
      </trkpt>
      <trkpt lat="47.83873" lon="-1.03387">
        <ele>90</ele>
        <time>2020-12-20T10:12:03Z</time>
      </trkpt>
      <trkpt lat="47.83872" lon="-1.0339">
        <ele>90.2</ele>
        <time>2020-12-20T10:12:04Z</time>
      </trkpt>
      <trkpt lat="47.83871" lon="-1.03391">
        <ele>90.4</ele>
        <time>2020-12-20T10:12:05Z</time>
      </trkpt>
      <trkpt lat="47.83869" lon="-1.03393">
        <ele>90.7</ele>
        <time>2020-12-20T10:12:06Z</time>
      </trkpt>
      <trkpt lat="47.83867" lon="-1.03395">
        <ele>91.1</ele>
        <time>2020-12-20T10:12:07Z</time>
      </trkpt>
      <trkpt lat="47.83865" lon="-1.03397">
        <ele>91.4</ele>
        <time>2020-12-20T10:12:08Z</time>
      </trkpt>
      <trkpt lat="47.83864" lon="-1.034">
        <ele>91.6</ele>
        <time>2020-12-20T10:12:09Z</time>
      </trkpt>
      <trkpt lat="47.83862" lon="-1.03404">
        <ele>92</ele>
        <time>2020-12-20T10:12:10Z</time>
      </trkpt>
      <trkpt lat="47.8386" lon="-1.03409">
        <ele>92.4</ele>
        <time>2020-12-20T10:12:11Z</time>
      </trkpt>
      <trkpt lat="47.83858" lon="-1.03412">
        <ele>92.8</ele>
        <time>2020-12-20T10:12:12Z</time>
      </trkpt>
      <trkpt lat="47.83856" lon="-1.03415">
        <ele>93.2</ele>
        <time>2020-12-20T10:12:13Z</time>
      </trkpt>
      <trkpt lat="47.83854" lon="-1.03418">
        <ele>93.5</ele>
        <time>2020-12-20T10:12:14Z</time>
      </trkpt>
      <trkpt lat="47.83853" lon="-1.03422">
        <ele>93.6</ele>
        <time>2020-12-20T10:12:15Z</time>
      </trkpt>
      <trkpt lat="47.83851" lon="-1.03427">
        <ele>93.8</ele>
        <time>2020-12-20T10:12:16Z</time>
      </trkpt>
      <trkpt lat="47.83849" lon="-1.03432">
        <ele>94</ele>
        <time>2020-12-20T10:12:17Z</time>
      </trkpt>
      <trkpt lat="47.83847" lon="-1.03436">
        <ele>94.2</ele>
        <time>2020-12-20T10:12:18Z</time>
      </trkpt>
      <trkpt lat="47.83845" lon="-1.03439">
        <ele>94.4</ele>
        <time>2020-12-20T10:12:19Z</time>
      </trkpt>
      <trkpt lat="47.83842" lon="-1.03443">
        <ele>94.8</ele>
        <time>2020-12-20T10:12:20Z</time>
      </trkpt>
      <trkpt lat="47.8384" lon="-1.03448">
        <ele>94.9</ele>
        <time>2020-12-20T10:12:21Z</time>
      </trkpt>
      <trkpt lat="47.83838" lon="-1.03453">
        <ele>95</ele>
        <time>2020-12-20T10:12:22Z</time>
      </trkpt>
      <trkpt lat="47.83837" lon="-1.03456">
        <ele>95.1</ele>
        <time>2020-12-20T10:12:23Z</time>
      </trkpt>
      <trkpt lat="47.83835" lon="-1.03462">
        <ele>95.1</ele>
        <time>2020-12-20T10:12:24Z</time>
      </trkpt>
      <trkpt lat="47.83834" lon="-1.03466">
        <ele>95.1</ele>
        <time>2020-12-20T10:12:25Z</time>
      </trkpt>
      <trkpt lat="47.83833" lon="-1.0347">
        <ele>95.1</ele>
        <time>2020-12-20T10:12:26Z</time>
      </trkpt>
      <trkpt lat="47.8383" lon="-1.03477">
        <ele>95.1</ele>
        <time>2020-12-20T10:12:27Z</time>
      </trkpt>
      <trkpt lat="47.83827" lon="-1.03482">
        <ele>95.1</ele>
        <time>2020-12-20T10:12:28Z</time>
      </trkpt>
      <trkpt lat="47.83825" lon="-1.03486">
        <ele>95.2</ele>
        <time>2020-12-20T10:12:29Z</time>
      </trkpt>
      <trkpt lat="47.83824" lon="-1.03488">
        <ele>95.2</ele>
        <time>2020-12-20T10:12:30Z</time>
      </trkpt>
      <trkpt lat="47.83823" lon="-1.03492">
        <ele>95.1</ele>
        <time>2020-12-20T10:12:31Z</time>
      </trkpt>
      <trkpt lat="47.83822" lon="-1.03495">
        <ele>95.1</ele>
        <time>2020-12-20T10:12:32Z</time>
      </trkpt>
      <trkpt lat="47.83822" lon="-1.03498">
        <ele>95</ele>
        <time>2020-12-20T10:12:33Z</time>
      </trkpt>
      <trkpt lat="47.83821" lon="-1.03501">
        <ele>95</ele>
        <time>2020-12-20T10:12:34Z</time>
      </trkpt>
      <trkpt lat="47.83819" lon="-1.03505">
        <ele>95</ele>
        <time>2020-12-20T10:12:35Z</time>
      </trkpt>
      <trkpt lat="47.83816" lon="-1.03508">
        <ele>95.1</ele>
        <time>2020-12-20T10:12:36Z</time>
      </trkpt>
      <trkpt lat="47.83815" lon="-1.0351">
        <ele>95.1</ele>
        <time>2020-12-20T10:12:37Z</time>
      </trkpt>
      <trkpt lat="47.83813" lon="-1.03513">
        <ele>95.2</ele>
        <time>2020-12-20T10:12:38Z</time>
      </trkpt>
      <trkpt lat="47.83812" lon="-1.03517">
        <ele>95.1</ele>
        <time>2020-12-20T10:12:39Z</time>
      </trkpt>
      <trkpt lat="47.8381" lon="-1.0352">
        <ele>95.1</ele>
        <time>2020-12-20T10:12:40Z</time>
      </trkpt>
      <trkpt lat="47.83808" lon="-1.03525">
        <ele>95</ele>
        <time>2020-12-20T10:12:41Z</time>
      </trkpt>
      <trkpt lat="47.83807" lon="-1.03528">
        <ele>95</ele>
        <time>2020-12-20T10:12:42Z</time>
      </trkpt>
      <trkpt lat="47.83805" lon="-1.03532">
        <ele>95</ele>
        <time>2020-12-20T10:12:43Z</time>
      </trkpt>
      <trkpt lat="47.83802" lon="-1.03536">
        <ele>95</ele>
        <time>2020-12-20T10:12:44Z</time>
      </trkpt>
      <trkpt lat="47.83799" lon="-1.03541">
        <ele>95</ele>
        <time>2020-12-20T10:12:45Z</time>
      </trkpt>
      <trkpt lat="47.83797" lon="-1.03543">
        <ele>95.1</ele>
        <time>2020-12-20T10:12:46Z</time>
      </trkpt>
      <trkpt lat="47.83794" lon="-1.03547">
        <ele>95.1</ele>
        <time>2020-12-20T10:12:47Z</time>
      </trkpt>
      <trkpt lat="47.83793" lon="-1.03551">
        <ele>95</ele>
        <time>2020-12-20T10:12:48Z</time>
      </trkpt>
      <trkpt lat="47.83792" lon="-1.03554">
        <ele>94.9</ele>
        <time>2020-12-20T10:12:49Z</time>
      </trkpt>
      <trkpt lat="47.83791" lon="-1.03556">
        <ele>94.9</ele>
        <time>2020-12-20T10:12:50Z</time>
      </trkpt>
      <trkpt lat="47.83788" lon="-1.03559">
        <ele>94.9</ele>
        <time>2020-12-20T10:12:51Z</time>
      </trkpt>
      <trkpt lat="47.83785" lon="-1.03564">
        <ele>94.9</ele>
        <time>2020-12-20T10:12:52Z</time>
      </trkpt>
      <trkpt lat="47.83781" lon="-1.03566">
        <ele>95</ele>
        <time>2020-12-20T10:12:53Z</time>
      </trkpt>
      <trkpt lat="47.83778" lon="-1.03566">
        <ele>95.2</ele>
        <time>2020-12-20T10:12:54Z</time>
      </trkpt>
      <trkpt lat="47.83775" lon="-1.03564">
        <ele>95.5</ele>
        <time>2020-12-20T10:12:55Z</time>
      </trkpt>
      <trkpt lat="47.83772" lon="-1.03562">
        <ele>95.8</ele>
        <time>2020-12-20T10:12:56Z</time>
      </trkpt>
      <trkpt lat="47.83771" lon="-1.0356">
        <ele>96</ele>
        <time>2020-12-20T10:12:57Z</time>
      </trkpt>
      <trkpt lat="47.83769" lon="-1.03557">
        <ele>96.3</ele>
        <time>2020-12-20T10:12:58Z</time>
      </trkpt>
      <trkpt lat="47.83766" lon="-1.03555">
        <ele>96.6</ele>
        <time>2020-12-20T10:12:59Z</time>
      </trkpt>
      <trkpt lat="47.83763" lon="-1.03552">
        <ele>97</ele>
        <time>2020-12-20T10:13:00Z</time>
      </trkpt>
      <trkpt lat="47.83758" lon="-1.0355">
        <ele>97.4</ele>
        <time>2020-12-20T10:13:01Z</time>
      </trkpt>
      <trkpt lat="47.83755" lon="-1.03547">
        <ele>97.8</ele>
        <time>2020-12-20T10:13:02Z</time>
      </trkpt>
      <trkpt lat="47.83753" lon="-1.03545">
        <ele>98.1</ele>
        <time>2020-12-20T10:13:03Z</time>
      </trkpt>
      <trkpt lat="47.83749" lon="-1.03543">
        <ele>98.4</ele>
        <time>2020-12-20T10:13:04Z</time>
      </trkpt>
      <trkpt lat="47.83746" lon="-1.03539">
        <ele>98.6</ele>
        <time>2020-12-20T10:13:05Z</time>
      </trkpt>
      <trkpt lat="47.83743" lon="-1.03536">
        <ele>98.8</ele>
        <time>2020-12-20T10:13:06Z</time>
      </trkpt>
      <trkpt lat="47.8374" lon="-1.03532">
        <ele>99</ele>
        <time>2020-12-20T10:13:07Z</time>
      </trkpt>
      <trkpt lat="47.83737" lon="-1.03527">
        <ele>99.3</ele>
        <time>2020-12-20T10:13:08Z</time>
      </trkpt>
      <trkpt lat="47.83734" lon="-1.03522">
        <ele>99.6</ele>
        <time>2020-12-20T10:13:09Z</time>
      </trkpt>
      <trkpt lat="47.83732" lon="-1.03518">
        <ele>99.8</ele>
        <time>2020-12-20T10:13:10Z</time>
      </trkpt>
      <trkpt lat="47.8373" lon="-1.03516">
        <ele>99.9</ele>
        <time>2020-12-20T10:13:11Z</time>
      </trkpt>
      <trkpt lat="47.83728" lon="-1.03515">
        <ele>100</ele>
        <time>2020-12-20T10:13:12Z</time>
      </trkpt>
      <trkpt lat="47.83726" lon="-1.03513">
        <ele>100.1</ele>
        <time>2020-12-20T10:13:13Z</time>
      </trkpt>
      <trkpt lat="47.83723" lon="-1.0351">
        <ele>100.3</ele>
        <time>2020-12-20T10:13:14Z</time>
      </trkpt>
      <trkpt lat="47.83721" lon="-1.03507">
        <ele>100.5</ele>
        <time>2020-12-20T10:13:15Z</time>
      </trkpt>
      <trkpt lat="47.83719" lon="-1.03505">
        <ele>100.7</ele>
        <time>2020-12-20T10:13:16Z</time>
      </trkpt>
      <trkpt lat="47.83717" lon="-1.03502">
        <ele>100.9</ele>
        <time>2020-12-20T10:13:17Z</time>
      </trkpt>
      <trkpt lat="47.83715" lon="-1.03499">
        <ele>101</ele>
        <time>2020-12-20T10:13:18Z</time>
      </trkpt>
      <trkpt lat="47.83714" lon="-1.03496">
        <ele>101.1</ele>
        <time>2020-12-20T10:13:19Z</time>
      </trkpt>
      <trkpt lat="47.83712" lon="-1.03494">
        <ele>101.2</ele>
        <time>2020-12-20T10:13:20Z</time>
      </trkpt>
      <trkpt lat="47.83708" lon="-1.03491">
        <ele>101.3</ele>
        <time>2020-12-20T10:13:21Z</time>
      </trkpt>
      <trkpt lat="47.83705" lon="-1.03489">
        <ele>101.3</ele>
        <time>2020-12-20T10:13:22Z</time>
      </trkpt>
      <trkpt lat="47.83703" lon="-1.03486">
        <ele>101.5</ele>
        <time>2020-12-20T10:13:23Z</time>
      </trkpt>
      <trkpt lat="47.837" lon="-1.03483">
        <ele>101.6</ele>
        <time>2020-12-20T10:13:24Z</time>
      </trkpt>
      <trkpt lat="47.83697" lon="-1.03478">
        <ele>101.8</ele>
        <time>2020-12-20T10:13:25Z</time>
      </trkpt>
      <trkpt lat="47.83694" lon="-1.03474">
        <ele>101.9</ele>
        <time>2020-12-20T10:13:26Z</time>
      </trkpt>
      <trkpt lat="47.83693" lon="-1.03472">
        <ele>102</ele>
        <time>2020-12-20T10:13:27Z</time>
      </trkpt>
      <trkpt lat="47.8369" lon="-1.03471">
        <ele>102.1</ele>
        <time>2020-12-20T10:13:28Z</time>
      </trkpt>
      <trkpt lat="47.83687" lon="-1.03468">
        <ele>102.3</ele>
        <time>2020-12-20T10:13:29Z</time>
      </trkpt>
      <trkpt lat="47.83684" lon="-1.03465">
        <ele>102.4</ele>
        <time>2020-12-20T10:13:30Z</time>
      </trkpt>
      <trkpt lat="47.83681" lon="-1.03462">
        <ele>102.6</ele>
        <time>2020-12-20T10:13:31Z</time>
      </trkpt>
      <trkpt lat="47.83678" lon="-1.0346">
        <ele>102.7</ele>
        <time>2020-12-20T10:13:32Z</time>
      </trkpt>
      <trkpt lat="47.83674" lon="-1.03458">
        <ele>102.9</ele>
        <time>2020-12-20T10:13:33Z</time>
      </trkpt>
      <trkpt lat="47.8367" lon="-1.03455">
        <ele>103.1</ele>
        <time>2020-12-20T10:13:34Z</time>
      </trkpt>
      <trkpt lat="47.83666" lon="-1.03452">
        <ele>103.3</ele>
        <time>2020-12-20T10:13:35Z</time>
      </trkpt>
      <trkpt lat="47.83663" lon="-1.03449">
        <ele>103.2</ele>
        <time>2020-12-20T10:13:36Z</time>
      </trkpt>
      <trkpt lat="47.83658" lon="-1.03446">
        <ele>102.9</ele>
        <time>2020-12-20T10:13:37Z</time>
      </trkpt>
      <trkpt lat="47.83654" lon="-1.03443">
        <ele>102.8</ele>
        <time>2020-12-20T10:13:38Z</time>
      </trkpt>
      <trkpt lat="47.83648" lon="-1.03438">
        <ele>102.6</ele>
        <time>2020-12-20T10:13:39Z</time>
      </trkpt>
      <trkpt lat="47.83645" lon="-1.03434">
        <ele>102.6</ele>
        <time>2020-12-20T10:13:40Z</time>
      </trkpt>
      <trkpt lat="47.83641" lon="-1.03429">
        <ele>102.5</ele>
        <time>2020-12-20T10:13:41Z</time>
      </trkpt>
      <trkpt lat="47.83637" lon="-1.03426">
        <ele>102.4</ele>
        <time>2020-12-20T10:13:42Z</time>
      </trkpt>
      <trkpt lat="47.83634" lon="-1.03422">
        <ele>102.4</ele>
        <time>2020-12-20T10:13:43Z</time>
      </trkpt>
      <trkpt lat="47.8363" lon="-1.03419">
        <ele>102.2</ele>
        <time>2020-12-20T10:13:44Z</time>
      </trkpt>
      <trkpt lat="47.83624" lon="-1.03412">
        <ele>102.1</ele>
        <time>2020-12-20T10:13:45Z</time>
      </trkpt>
      <trkpt lat="47.83619" lon="-1.03407">
        <ele>101.9</ele>
        <time>2020-12-20T10:13:46Z</time>
      </trkpt>
      <trkpt lat="47.83614" lon="-1.03403">
        <ele>101.6</ele>
        <time>2020-12-20T10:13:47Z</time>
      </trkpt>
      <trkpt lat="47.83611" lon="-1.03399">
        <ele>101.6</ele>
        <time>2020-12-20T10:13:48Z</time>
      </trkpt>
      <trkpt lat="47.83607" lon="-1.03396">
        <ele>101.4</ele>
        <time>2020-12-20T10:13:49Z</time>
      </trkpt>
      <trkpt lat="47.83605" lon="-1.03394">
        <ele>101.3</ele>
        <time>2020-12-20T10:13:50Z</time>
      </trkpt>
      <trkpt lat="47.83603" lon="-1.03392">
        <ele>101.2</ele>
        <time>2020-12-20T10:13:51Z</time>
      </trkpt>
      <trkpt lat="47.83601" lon="-1.03388">
        <ele>101.2</ele>
        <time>2020-12-20T10:13:52Z</time>
      </trkpt>
      <trkpt lat="47.836" lon="-1.03384">
        <ele>101.3</ele>
        <time>2020-12-20T10:13:53Z</time>
      </trkpt>
      <trkpt lat="47.83596" lon="-1.03381">
        <ele>101.1</ele>
        <time>2020-12-20T10:13:54Z</time>
      </trkpt>
      <trkpt lat="47.83591" lon="-1.03377">
        <ele>100.9</ele>
        <time>2020-12-20T10:13:55Z</time>
      </trkpt>
      <trkpt lat="47.83587" lon="-1.03372">
        <ele>100.8</ele>
        <time>2020-12-20T10:13:56Z</time>
      </trkpt>
      <trkpt lat="47.83582" lon="-1.03366">
        <ele>100.6</ele>
        <time>2020-12-20T10:13:57Z</time>
      </trkpt>
      <trkpt lat="47.83579" lon="-1.03361">
        <ele>100.4</ele>
        <time>2020-12-20T10:13:58Z</time>
      </trkpt>
      <trkpt lat="47.83575" lon="-1.03356">
        <ele>100</ele>
        <time>2020-12-20T10:13:59Z</time>
      </trkpt>
      <trkpt lat="47.83572" lon="-1.03352">
        <ele>99.8</ele>
        <time>2020-12-20T10:14:00Z</time>
      </trkpt>
      <trkpt lat="47.83569" lon="-1.03349">
        <ele>99.4</ele>
        <time>2020-12-20T10:14:01Z</time>
      </trkpt>
      <trkpt lat="47.83568" lon="-1.03346">
        <ele>99.4</ele>
        <time>2020-12-20T10:14:02Z</time>
      </trkpt>
      <trkpt lat="47.83565" lon="-1.03344">
        <ele>99</ele>
        <time>2020-12-20T10:14:03Z</time>
      </trkpt>
      <trkpt lat="47.83562" lon="-1.03343">
        <ele>98.6</ele>
        <time>2020-12-20T10:14:04Z</time>
      </trkpt>
      <trkpt lat="47.83558" lon="-1.03342">
        <ele>98.1</ele>
        <time>2020-12-20T10:14:05Z</time>
      </trkpt>
      <trkpt lat="47.83556" lon="-1.0334">
        <ele>97.9</ele>
        <time>2020-12-20T10:14:06Z</time>
      </trkpt>
      <trkpt lat="47.83554" lon="-1.03337">
        <ele>97.7</ele>
        <time>2020-12-20T10:14:07Z</time>
      </trkpt>
      <trkpt lat="47.83552" lon="-1.03333">
        <ele>97.5</ele>
        <time>2020-12-20T10:14:08Z</time>
      </trkpt>
      <trkpt lat="47.83549" lon="-1.03329">
        <ele>97</ele>
        <time>2020-12-20T10:14:09Z</time>
      </trkpt>
      <trkpt lat="47.83545" lon="-1.03326">
        <ele>96.4</ele>
        <time>2020-12-20T10:14:10Z</time>
      </trkpt>
      <trkpt lat="47.83541" lon="-1.03325">
        <ele>95.8</ele>
        <time>2020-12-20T10:14:11Z</time>
      </trkpt>
      <trkpt lat="47.83537" lon="-1.03325">
        <ele>95.2</ele>
        <time>2020-12-20T10:14:12Z</time>
      </trkpt>
      <trkpt lat="47.83532" lon="-1.03327">
        <ele>94.5</ele>
        <time>2020-12-20T10:14:13Z</time>
      </trkpt>
      <trkpt lat="47.83527" lon="-1.03328">
        <ele>93.8</ele>
        <time>2020-12-20T10:14:14Z</time>
      </trkpt>
      <trkpt lat="47.83522" lon="-1.03329">
        <ele>93.1</ele>
        <time>2020-12-20T10:14:15Z</time>
      </trkpt>
      <trkpt lat="47.83516" lon="-1.03329">
        <ele>92.3</ele>
        <time>2020-12-20T10:14:16Z</time>
      </trkpt>
      <trkpt lat="47.8351" lon="-1.0333">
        <ele>91.4</ele>
        <time>2020-12-20T10:14:17Z</time>
      </trkpt>
      <trkpt lat="47.83505" lon="-1.03331">
        <ele>90.7</ele>
        <time>2020-12-20T10:14:18Z</time>
      </trkpt>
      <trkpt lat="47.83499" lon="-1.03331">
        <ele>89.9</ele>
        <time>2020-12-20T10:14:19Z</time>
      </trkpt>
      <trkpt lat="47.83494" lon="-1.03332">
        <ele>89.6</ele>
        <time>2020-12-20T10:14:20Z</time>
      </trkpt>
      <trkpt lat="47.83488" lon="-1.03333">
        <ele>89.3</ele>
        <time>2020-12-20T10:14:21Z</time>
      </trkpt>
      <trkpt lat="47.83483" lon="-1.03334">
        <ele>89</ele>
        <time>2020-12-20T10:14:22Z</time>
      </trkpt>
      <trkpt lat="47.83477" lon="-1.03335">
        <ele>88.6</ele>
        <time>2020-12-20T10:14:23Z</time>
      </trkpt>
      <trkpt lat="47.83471" lon="-1.03335">
        <ele>88.3</ele>
        <time>2020-12-20T10:14:24Z</time>
      </trkpt>
      <trkpt lat="47.83465" lon="-1.03336">
        <ele>87.9</ele>
        <time>2020-12-20T10:14:25Z</time>
      </trkpt>
      <trkpt lat="47.83459" lon="-1.03337">
        <ele>87.5</ele>
        <time>2020-12-20T10:14:26Z</time>
      </trkpt>
      <trkpt lat="47.83452" lon="-1.03338">
        <ele>87.1</ele>
        <time>2020-12-20T10:14:27Z</time>
      </trkpt>
      <trkpt lat="47.83446" lon="-1.03339">
        <ele>86.8</ele>
        <time>2020-12-20T10:14:28Z</time>
      </trkpt>
      <trkpt lat="47.8344" lon="-1.0334">
        <ele>86.4</ele>
        <time>2020-12-20T10:14:29Z</time>
      </trkpt>
      <trkpt lat="47.83433" lon="-1.03341">
        <ele>86</ele>
        <time>2020-12-20T10:14:30Z</time>
      </trkpt>
      <trkpt lat="47.83427" lon="-1.03342">
        <ele>85.7</ele>
        <time>2020-12-20T10:14:31Z</time>
      </trkpt>
      <trkpt lat="47.8342" lon="-1.03343">
        <ele>85.3</ele>
        <time>2020-12-20T10:14:32Z</time>
      </trkpt>
      <trkpt lat="47.83413" lon="-1.03344">
        <ele>85</ele>
        <time>2020-12-20T10:14:33Z</time>
      </trkpt>
      <trkpt lat="47.83407" lon="-1.03345">
        <ele>84.8</ele>
        <time>2020-12-20T10:14:34Z</time>
      </trkpt>
      <trkpt lat="47.834" lon="-1.03346">
        <ele>84.6</ele>
        <time>2020-12-20T10:14:35Z</time>
      </trkpt>
      <trkpt lat="47.83394" lon="-1.03347">
        <ele>84.3</ele>
        <time>2020-12-20T10:14:36Z</time>
      </trkpt>
      <trkpt lat="47.83387" lon="-1.03348">
        <ele>84.1</ele>
        <time>2020-12-20T10:14:37Z</time>
      </trkpt>
      <trkpt lat="47.8338" lon="-1.03349">
        <ele>83.9</ele>
        <time>2020-12-20T10:14:38Z</time>
      </trkpt>
      <trkpt lat="47.83373" lon="-1.0335">
        <ele>83.6</ele>
        <time>2020-12-20T10:14:39Z</time>
      </trkpt>
      <trkpt lat="47.83367" lon="-1.03351">
        <ele>83.4</ele>
        <time>2020-12-20T10:14:40Z</time>
      </trkpt>
      <trkpt lat="47.8336" lon="-1.03352">
        <ele>83.2</ele>
        <time>2020-12-20T10:14:41Z</time>
      </trkpt>
      <trkpt lat="47.83353" lon="-1.03353">
        <ele>82.9</ele>
        <time>2020-12-20T10:14:42Z</time>
      </trkpt>
      <trkpt lat="47.83346" lon="-1.03354">
        <ele>82.7</ele>
        <time>2020-12-20T10:14:43Z</time>
      </trkpt>
      <trkpt lat="47.83339" lon="-1.03355">
        <ele>82.5</ele>
        <time>2020-12-20T10:14:44Z</time>
      </trkpt>
      <trkpt lat="47.83332" lon="-1.03356">
        <ele>82.2</ele>
        <time>2020-12-20T10:14:45Z</time>
      </trkpt>
      <trkpt lat="47.83325" lon="-1.03356">
        <ele>82</ele>
        <time>2020-12-20T10:14:46Z</time>
      </trkpt>
      <trkpt lat="47.83318" lon="-1.03357">
        <ele>81.9</ele>
        <time>2020-12-20T10:14:47Z</time>
      </trkpt>
      <trkpt lat="47.83311" lon="-1.03359">
        <ele>81.7</ele>
        <time>2020-12-20T10:14:48Z</time>
      </trkpt>
      <trkpt lat="47.83304" lon="-1.0336">
        <ele>81.5</ele>
        <time>2020-12-20T10:14:49Z</time>
      </trkpt>
      <trkpt lat="47.83297" lon="-1.03362">
        <ele>81.3</ele>
        <time>2020-12-20T10:14:50Z</time>
      </trkpt>
      <trkpt lat="47.8329" lon="-1.03363">
        <ele>81.1</ele>
        <time>2020-12-20T10:14:51Z</time>
      </trkpt>
      <trkpt lat="47.83283" lon="-1.03364">
        <ele>80.9</ele>
        <time>2020-12-20T10:14:52Z</time>
      </trkpt>
      <trkpt lat="47.83277" lon="-1.03365">
        <ele>80.8</ele>
        <time>2020-12-20T10:14:53Z</time>
      </trkpt>
      <trkpt lat="47.8327" lon="-1.03368">
        <ele>80.6</ele>
        <time>2020-12-20T10:14:54Z</time>
      </trkpt>
      <trkpt lat="47.83264" lon="-1.03371">
        <ele>80.4</ele>
        <time>2020-12-20T10:14:55Z</time>
      </trkpt>
      <trkpt lat="47.83258" lon="-1.03374">
        <ele>80.2</ele>
        <time>2020-12-20T10:14:56Z</time>
      </trkpt>
      <trkpt lat="47.83253" lon="-1.03378">
        <ele>80.1</ele>
        <time>2020-12-20T10:14:57Z</time>
      </trkpt>
      <trkpt lat="47.83247" lon="-1.03382">
        <ele>80</ele>
        <time>2020-12-20T10:14:58Z</time>
      </trkpt>
      <trkpt lat="47.83242" lon="-1.03386">
        <ele>80</ele>
        <time>2020-12-20T10:14:59Z</time>
      </trkpt>
      <trkpt lat="47.83237" lon="-1.03389">
        <ele>79.9</ele>
        <time>2020-12-20T10:15:00Z</time>
      </trkpt>
      <trkpt lat="47.83231" lon="-1.03393">
        <ele>79.9</ele>
        <time>2020-12-20T10:15:01Z</time>
      </trkpt>
      <trkpt lat="47.83226" lon="-1.03397">
        <ele>79.9</ele>
        <time>2020-12-20T10:15:02Z</time>
      </trkpt>
      <trkpt lat="47.83221" lon="-1.034">
        <ele>79.9</ele>
        <time>2020-12-20T10:15:03Z</time>
      </trkpt>
      <trkpt lat="47.83216" lon="-1.03404">
        <ele>79.9</ele>
        <time>2020-12-20T10:15:04Z</time>
      </trkpt>
      <trkpt lat="47.83211" lon="-1.03408">
        <ele>80</ele>
        <time>2020-12-20T10:15:05Z</time>
      </trkpt>
      <trkpt lat="47.83206" lon="-1.03412">
        <ele>80</ele>
        <time>2020-12-20T10:15:06Z</time>
      </trkpt>
      <trkpt lat="47.83201" lon="-1.03415">
        <ele>80</ele>
        <time>2020-12-20T10:15:07Z</time>
      </trkpt>
      <trkpt lat="47.83196" lon="-1.03419">
        <ele>80</ele>
        <time>2020-12-20T10:15:08Z</time>
      </trkpt>
      <trkpt lat="47.83191" lon="-1.03422">
        <ele>80.1</ele>
        <time>2020-12-20T10:15:09Z</time>
      </trkpt>
      <trkpt lat="47.83186" lon="-1.03425">
        <ele>80.1</ele>
        <time>2020-12-20T10:15:10Z</time>
      </trkpt>
      <trkpt lat="47.83182" lon="-1.03428">
        <ele>80.2</ele>
        <time>2020-12-20T10:15:11Z</time>
      </trkpt>
      <trkpt lat="47.83177" lon="-1.03432">
        <ele>80.2</ele>
        <time>2020-12-20T10:15:12Z</time>
      </trkpt>
      <trkpt lat="47.83168" lon="-1.03439">
        <ele>80.3</ele>
        <time>2020-12-20T10:15:14Z</time>
      </trkpt>
      <trkpt lat="47.83163" lon="-1.03442">
        <ele>80.2</ele>
        <time>2020-12-20T10:15:15Z</time>
      </trkpt>
      <trkpt lat="47.83158" lon="-1.03446">
        <ele>80.1</ele>
        <time>2020-12-20T10:15:16Z</time>
      </trkpt>
      <trkpt lat="47.83153" lon="-1.03449">
        <ele>80</ele>
        <time>2020-12-20T10:15:17Z</time>
      </trkpt>
      <trkpt lat="47.83144" lon="-1.03456">
        <ele>79.8</ele>
        <time>2020-12-20T10:15:19Z</time>
      </trkpt>
      <trkpt lat="47.83138" lon="-1.03459">
        <ele>79.6</ele>
        <time>2020-12-20T10:15:20Z</time>
      </trkpt>
      <trkpt lat="47.83133" lon="-1.03463">
        <ele>79.5</ele>
        <time>2020-12-20T10:15:21Z</time>
      </trkpt>
      <trkpt lat="47.83128" lon="-1.03467">
        <ele>79.4</ele>
        <time>2020-12-20T10:15:22Z</time>
      </trkpt>
      <trkpt lat="47.83123" lon="-1.03471">
        <ele>79.3</ele>
        <time>2020-12-20T10:15:23Z</time>
      </trkpt>
      <trkpt lat="47.83118" lon="-1.03474">
        <ele>79.1</ele>
        <time>2020-12-20T10:15:24Z</time>
      </trkpt>
      <trkpt lat="47.83113" lon="-1.03478">
        <ele>79</ele>
        <time>2020-12-20T10:15:25Z</time>
      </trkpt>
      <trkpt lat="47.83108" lon="-1.03481">
        <ele>78.8</ele>
        <time>2020-12-20T10:15:26Z</time>
      </trkpt>
      <trkpt lat="47.83104" lon="-1.03485">
        <ele>78.7</ele>
        <time>2020-12-20T10:15:27Z</time>
      </trkpt>
      <trkpt lat="47.83099" lon="-1.03488">
        <ele>78.5</ele>
        <time>2020-12-20T10:15:28Z</time>
      </trkpt>
      <trkpt lat="47.83094" lon="-1.03492">
        <ele>78.4</ele>
        <time>2020-12-20T10:15:29Z</time>
      </trkpt>
      <trkpt lat="47.8309" lon="-1.03494">
        <ele>78.2</ele>
        <time>2020-12-20T10:15:30Z</time>
      </trkpt>
      <trkpt lat="47.83085" lon="-1.03498">
        <ele>78.1</ele>
        <time>2020-12-20T10:15:31Z</time>
      </trkpt>
      <trkpt lat="47.8308" lon="-1.03502">
        <ele>78</ele>
        <time>2020-12-20T10:15:32Z</time>
      </trkpt>
      <trkpt lat="47.83076" lon="-1.03505">
        <ele>78</ele>
        <time>2020-12-20T10:15:33Z</time>
      </trkpt>
      <trkpt lat="47.83071" lon="-1.03508">
        <ele>78</ele>
        <time>2020-12-20T10:15:34Z</time>
      </trkpt>
      <trkpt lat="47.83062" lon="-1.03515">
        <ele>78.1</ele>
        <time>2020-12-20T10:15:36Z</time>
      </trkpt>
      <trkpt lat="47.83057" lon="-1.03519">
        <ele>78.1</ele>
        <time>2020-12-20T10:15:37Z</time>
      </trkpt>
      <trkpt lat="47.83052" lon="-1.03522">
        <ele>78.1</ele>
        <time>2020-12-20T10:15:38Z</time>
      </trkpt>
      <trkpt lat="47.83048" lon="-1.03526">
        <ele>78.2</ele>
        <time>2020-12-20T10:15:39Z</time>
      </trkpt>
      <trkpt lat="47.83043" lon="-1.0353">
        <ele>78.3</ele>
        <time>2020-12-20T10:15:40Z</time>
      </trkpt>
      <trkpt lat="47.83039" lon="-1.03533">
        <ele>78.3</ele>
        <time>2020-12-20T10:15:41Z</time>
      </trkpt>
      <trkpt lat="47.83034" lon="-1.03536">
        <ele>78.4</ele>
        <time>2020-12-20T10:15:42Z</time>
      </trkpt>
      <trkpt lat="47.83029" lon="-1.0354">
        <ele>78.4</ele>
        <time>2020-12-20T10:15:43Z</time>
      </trkpt>
      <trkpt lat="47.83024" lon="-1.03544">
        <ele>78.5</ele>
        <time>2020-12-20T10:15:44Z</time>
      </trkpt>
      <trkpt lat="47.83019" lon="-1.03547">
        <ele>78.6</ele>
        <time>2020-12-20T10:15:45Z</time>
      </trkpt>
      <trkpt lat="47.83009" lon="-1.03554">
        <ele>78.7</ele>
        <time>2020-12-20T10:15:47Z</time>
      </trkpt>
      <trkpt lat="47.83004" lon="-1.03558">
        <ele>78.8</ele>
        <time>2020-12-20T10:15:48Z</time>
      </trkpt>
      <trkpt lat="47.82999" lon="-1.03561">
        <ele>78.9</ele>
        <time>2020-12-20T10:15:49Z</time>
      </trkpt>
      <trkpt lat="47.82995" lon="-1.03565">
        <ele>79.2</ele>
        <time>2020-12-20T10:15:50Z</time>
      </trkpt>
      <trkpt lat="47.8299" lon="-1.03569">
        <ele>79.4</ele>
        <time>2020-12-20T10:15:51Z</time>
      </trkpt>
      <trkpt lat="47.82985" lon="-1.03572">
        <ele>79.5</ele>
        <time>2020-12-20T10:15:52Z</time>
      </trkpt>
      <trkpt lat="47.8298" lon="-1.03575">
        <ele>79.7</ele>
        <time>2020-12-20T10:15:53Z</time>
      </trkpt>
      <trkpt lat="47.82976" lon="-1.03578">
        <ele>79.8</ele>
        <time>2020-12-20T10:15:54Z</time>
      </trkpt>
      <trkpt lat="47.82971" lon="-1.03581">
        <ele>79.9</ele>
        <time>2020-12-20T10:15:55Z</time>
      </trkpt>
      <trkpt lat="47.82966" lon="-1.03583">
        <ele>80</ele>
        <time>2020-12-20T10:15:56Z</time>
      </trkpt>
      <trkpt lat="47.82961" lon="-1.03584">
        <ele>80</ele>
        <time>2020-12-20T10:15:57Z</time>
      </trkpt>
      <trkpt lat="47.82956" lon="-1.03585">
        <ele>80</ele>
        <time>2020-12-20T10:15:58Z</time>
      </trkpt>
      <trkpt lat="47.82952" lon="-1.03585">
        <ele>80</ele>
        <time>2020-12-20T10:15:59Z</time>
      </trkpt>
      <trkpt lat="47.82948" lon="-1.03586">
        <ele>80</ele>
        <time>2020-12-20T10:16:00Z</time>
      </trkpt>
      <trkpt lat="47.82944" lon="-1.03587">
        <ele>80</ele>
        <time>2020-12-20T10:16:01Z</time>
      </trkpt>
      <trkpt lat="47.82941" lon="-1.03588">
        <ele>80</ele>
        <time>2020-12-20T10:16:02Z</time>
      </trkpt>
      <trkpt lat="47.82938" lon="-1.0359">
        <ele>80</ele>
        <time>2020-12-20T10:16:03Z</time>
      </trkpt>
      <trkpt lat="47.82937" lon="-1.03593">
        <ele>80</ele>
        <time>2020-12-20T10:16:04Z</time>
      </trkpt>
      <trkpt lat="47.82937" lon="-1.03596">
        <ele>80</ele>
        <time>2020-12-20T10:16:05Z</time>
      </trkpt>
      <trkpt lat="47.82937" lon="-1.03599">
        <ele>80</ele>
        <time>2020-12-20T10:16:06Z</time>
      </trkpt>
      <trkpt lat="47.82937" lon="-1.03602">
        <ele>80</ele>
        <time>2020-12-20T10:16:07Z</time>
      </trkpt>
      <trkpt lat="47.82937" lon="-1.03606">
        <ele>80</ele>
        <time>2020-12-20T10:16:08Z</time>
      </trkpt>
      <trkpt lat="47.82936" lon="-1.03611">
        <ele>80</ele>
        <time>2020-12-20T10:16:09Z</time>
      </trkpt>
      <trkpt lat="47.82936" lon="-1.03615">
        <ele>80</ele>
        <time>2020-12-20T10:16:10Z</time>
      </trkpt>
      <trkpt lat="47.82936" lon="-1.0362">
        <ele>80</ele>
        <time>2020-12-20T10:16:11Z</time>
      </trkpt>
      <trkpt lat="47.82936" lon="-1.03625">
        <ele>80</ele>
        <time>2020-12-20T10:16:12Z</time>
      </trkpt>
      <trkpt lat="47.82936" lon="-1.03629">
        <ele>80</ele>
        <time>2020-12-20T10:16:13Z</time>
      </trkpt>
      <trkpt lat="47.82936" lon="-1.03634">
        <ele>80</ele>
        <time>2020-12-20T10:16:14Z</time>
      </trkpt>
      <trkpt lat="47.82936" lon="-1.03638">
        <ele>80</ele>
        <time>2020-12-20T10:16:15Z</time>
      </trkpt>
      <trkpt lat="47.82936" lon="-1.03642">
        <ele>80</ele>
        <time>2020-12-20T10:16:16Z</time>
      </trkpt>
      <trkpt lat="47.82936" lon="-1.03646">
        <ele>80</ele>
        <time>2020-12-20T10:16:17Z</time>
      </trkpt>
      <trkpt lat="47.82936" lon="-1.0365">
        <ele>80</ele>
        <time>2020-12-20T10:16:18Z</time>
      </trkpt>
      <trkpt lat="47.82936" lon="-1.03654">
        <ele>80</ele>
        <time>2020-12-20T10:16:19Z</time>
      </trkpt>
      <trkpt lat="47.82935" lon="-1.03659">
        <ele>80</ele>
        <time>2020-12-20T10:16:20Z</time>
      </trkpt>
      <trkpt lat="47.82936" lon="-1.03663">
        <ele>80</ele>
        <time>2020-12-20T10:16:21Z</time>
      </trkpt>
      <trkpt lat="47.82936" lon="-1.03668">
        <ele>80</ele>
        <time>2020-12-20T10:16:22Z</time>
      </trkpt>
      <trkpt lat="47.82936" lon="-1.03673">
        <ele>80.1</ele>
        <time>2020-12-20T10:16:23Z</time>
      </trkpt>
      <trkpt lat="47.82935" lon="-1.03676">
        <ele>80.2</ele>
        <time>2020-12-20T10:16:24Z</time>
      </trkpt>
      <trkpt lat="47.82935" lon="-1.0368">
        <ele>80.2</ele>
        <time>2020-12-20T10:16:25Z</time>
      </trkpt>
      <trkpt lat="47.82935" lon="-1.03683">
        <ele>80.3</ele>
        <time>2020-12-20T10:16:26Z</time>
      </trkpt>
      <trkpt lat="47.82934" lon="-1.03687">
        <ele>80.4</ele>
        <time>2020-12-20T10:16:27Z</time>
      </trkpt>
      <trkpt lat="47.82933" lon="-1.03691">
        <ele>80.5</ele>
        <time>2020-12-20T10:16:28Z</time>
      </trkpt>
      <trkpt lat="47.82933" lon="-1.03695">
        <ele>80.5</ele>
        <time>2020-12-20T10:16:29Z</time>
      </trkpt>
      <trkpt lat="47.82931" lon="-1.03697">
        <ele>80.6</ele>
        <time>2020-12-20T10:16:30Z</time>
      </trkpt>
      <trkpt lat="47.8293" lon="-1.03699">
        <ele>80.7</ele>
        <time>2020-12-20T10:16:31Z</time>
      </trkpt>
      <trkpt lat="47.82929" lon="-1.03699">
        <ele>80.7</ele>
        <time>2020-12-20T10:16:32Z</time>
      </trkpt>
      <trkpt lat="47.82928" lon="-1.03698">
        <ele>80.6</ele>
        <time>2020-12-20T10:16:33Z</time>
      </trkpt>
      <trkpt lat="47.82928" lon="-1.03696">
        <ele>80.6</ele>
        <time>2020-12-20T10:16:34Z</time>
      </trkpt>
      <trkpt lat="47.82928" lon="-1.03692">
        <ele>80.5</ele>
        <time>2020-12-20T10:16:35Z</time>
      </trkpt>
      <trkpt lat="47.82928" lon="-1.03688">
        <ele>80.4</ele>
        <time>2020-12-20T10:16:36Z</time>
      </trkpt>
      <trkpt lat="47.82928" lon="-1.03682">
        <ele>80.3</ele>
        <time>2020-12-20T10:16:37Z</time>
      </trkpt>
      <trkpt lat="47.82928" lon="-1.03676">
        <ele>80.2</ele>
        <time>2020-12-20T10:16:38Z</time>
      </trkpt>
      <trkpt lat="47.82928" lon="-1.0367">
        <ele>80.1</ele>
        <time>2020-12-20T10:16:39Z</time>
      </trkpt>
      <trkpt lat="47.82928" lon="-1.03663">
        <ele>80</ele>
        <time>2020-12-20T10:16:40Z</time>
      </trkpt>
      <trkpt lat="47.82928" lon="-1.03656">
        <ele>80</ele>
        <time>2020-12-20T10:16:41Z</time>
      </trkpt>
      <trkpt lat="47.82928" lon="-1.03648">
        <ele>80</ele>
        <time>2020-12-20T10:16:42Z</time>
      </trkpt>
      <trkpt lat="47.82928" lon="-1.03641">
        <ele>80</ele>
        <time>2020-12-20T10:16:43Z</time>
      </trkpt>
      <trkpt lat="47.82929" lon="-1.03633">
        <ele>80</ele>
        <time>2020-12-20T10:16:44Z</time>
      </trkpt>
      <trkpt lat="47.82929" lon="-1.03626">
        <ele>80</ele>
        <time>2020-12-20T10:16:45Z</time>
      </trkpt>
      <trkpt lat="47.82928" lon="-1.03618">
        <ele>80</ele>
        <time>2020-12-20T10:16:46Z</time>
      </trkpt>
      <trkpt lat="47.82929" lon="-1.0361">
        <ele>80</ele>
        <time>2020-12-20T10:16:47Z</time>
      </trkpt>
      <trkpt lat="47.82929" lon="-1.03603">
        <ele>80</ele>
        <time>2020-12-20T10:16:48Z</time>
      </trkpt>
      <trkpt lat="47.82929" lon="-1.03595">
        <ele>80</ele>
        <time>2020-12-20T10:16:49Z</time>
      </trkpt>
      <trkpt lat="47.82929" lon="-1.03587">
        <ele>80</ele>
        <time>2020-12-20T10:16:51Z</time>
      </trkpt>
      <trkpt lat="47.82929" lon="-1.03578">
        <ele>79.9</ele>
        <time>2020-12-20T10:16:52Z</time>
      </trkpt>
      <trkpt lat="47.82929" lon="-1.03568">
        <ele>79.7</ele>
        <time>2020-12-20T10:16:53Z</time>
      </trkpt>
      <trkpt lat="47.82929" lon="-1.03559">
        <ele>79.6</ele>
        <time>2020-12-20T10:16:54Z</time>
      </trkpt>
      <trkpt lat="47.82929" lon="-1.0355">
        <ele>79.4</ele>
        <time>2020-12-20T10:16:55Z</time>
      </trkpt>
      <trkpt lat="47.8293" lon="-1.0354">
        <ele>79.2</ele>
        <time>2020-12-20T10:16:56Z</time>
      </trkpt>
      <trkpt lat="47.8293" lon="-1.0353">
        <ele>79.1</ele>
        <time>2020-12-20T10:16:57Z</time>
      </trkpt>
      <trkpt lat="47.8293" lon="-1.0352">
        <ele>78.9</ele>
        <time>2020-12-20T10:16:58Z</time>
      </trkpt>
      <trkpt lat="47.8293" lon="-1.03511">
        <ele>78.7</ele>
        <time>2020-12-20T10:16:59Z</time>
      </trkpt>
      <trkpt lat="47.8293" lon="-1.03502">
        <ele>78.6</ele>
        <time>2020-12-20T10:17:00Z</time>
      </trkpt>
      <trkpt lat="47.82931" lon="-1.03484">
        <ele>78.3</ele>
        <time>2020-12-20T10:17:02Z</time>
      </trkpt>
      <trkpt lat="47.82931" lon="-1.03475">
        <ele>78.2</ele>
        <time>2020-12-20T10:17:03Z</time>
      </trkpt>
      <trkpt lat="47.82932" lon="-1.03466">
        <ele>78</ele>
        <time>2020-12-20T10:17:04Z</time>
      </trkpt>
      <trkpt lat="47.82932" lon="-1.03457">
        <ele>77.9</ele>
        <time>2020-12-20T10:17:05Z</time>
      </trkpt>
      <trkpt lat="47.82932" lon="-1.03446">
        <ele>77.8</ele>
        <time>2020-12-20T10:17:06Z</time>
      </trkpt>
      <trkpt lat="47.82933" lon="-1.03425">
        <ele>77.5</ele>
        <time>2020-12-20T10:17:08Z</time>
      </trkpt>
      <trkpt lat="47.82933" lon="-1.03414">
        <ele>77.4</ele>
        <time>2020-12-20T10:17:09Z</time>
      </trkpt>
      <trkpt lat="47.82933" lon="-1.03404">
        <ele>77.3</ele>
        <time>2020-12-20T10:17:10Z</time>
      </trkpt>
      <trkpt lat="47.82933" lon="-1.03393">
        <ele>77.2</ele>
        <time>2020-12-20T10:17:11Z</time>
      </trkpt>
      <trkpt lat="47.82933" lon="-1.03383">
        <ele>77.1</ele>
        <time>2020-12-20T10:17:12Z</time>
      </trkpt>
      <trkpt lat="47.82933" lon="-1.03372">
        <ele>77</ele>
        <time>2020-12-20T10:17:13Z</time>
      </trkpt>
      <trkpt lat="47.82933" lon="-1.03361">
        <ele>76.9</ele>
        <time>2020-12-20T10:17:14Z</time>
      </trkpt>
      <trkpt lat="47.82933" lon="-1.03351">
        <ele>76.8</ele>
        <time>2020-12-20T10:17:15Z</time>
      </trkpt>
      <trkpt lat="47.82933" lon="-1.0334">
        <ele>76.7</ele>
        <time>2020-12-20T10:17:16Z</time>
      </trkpt>
      <trkpt lat="47.82933" lon="-1.0333">
        <ele>76.5</ele>
        <time>2020-12-20T10:17:17Z</time>
      </trkpt>
      <trkpt lat="47.82933" lon="-1.03319">
        <ele>76.2</ele>
        <time>2020-12-20T10:17:18Z</time>
      </trkpt>
      <trkpt lat="47.82933" lon="-1.03308">
        <ele>75.9</ele>
        <time>2020-12-20T10:17:19Z</time>
      </trkpt>
      <trkpt lat="47.82933" lon="-1.03298">
        <ele>75.7</ele>
        <time>2020-12-20T10:17:20Z</time>
      </trkpt>
      <trkpt lat="47.82933" lon="-1.03287">
        <ele>75.4</ele>
        <time>2020-12-20T10:17:21Z</time>
      </trkpt>
      <trkpt lat="47.82933" lon="-1.03277">
        <ele>75.1</ele>
        <time>2020-12-20T10:17:22Z</time>
      </trkpt>
      <trkpt lat="47.82933" lon="-1.03268">
        <ele>74.9</ele>
        <time>2020-12-20T10:17:23Z</time>
      </trkpt>
      <trkpt lat="47.82932" lon="-1.03259">
        <ele>74.7</ele>
        <time>2020-12-20T10:17:24Z</time>
      </trkpt>
      <trkpt lat="47.82932" lon="-1.03249">
        <ele>74.4</ele>
        <time>2020-12-20T10:17:25Z</time>
      </trkpt>
      <trkpt lat="47.82932" lon="-1.03238">
        <ele>74.3</ele>
        <time>2020-12-20T10:17:26Z</time>
      </trkpt>
      <trkpt lat="47.82932" lon="-1.03228">
        <ele>74.2</ele>
        <time>2020-12-20T10:17:27Z</time>
      </trkpt>
      <trkpt lat="47.82933" lon="-1.03217">
        <ele>74</ele>
        <time>2020-12-20T10:17:28Z</time>
      </trkpt>
      <trkpt lat="47.82933" lon="-1.03207">
        <ele>73.9</ele>
        <time>2020-12-20T10:17:29Z</time>
      </trkpt>
      <trkpt lat="47.82933" lon="-1.03196">
        <ele>73.8</ele>
        <time>2020-12-20T10:17:30Z</time>
      </trkpt>
      <trkpt lat="47.82934" lon="-1.03186">
        <ele>73.6</ele>
        <time>2020-12-20T10:17:31Z</time>
      </trkpt>
      <trkpt lat="47.82935" lon="-1.03177">
        <ele>73.5</ele>
        <time>2020-12-20T10:17:32Z</time>
      </trkpt>
      <trkpt lat="47.82935" lon="-1.03166">
        <ele>73.3</ele>
        <time>2020-12-20T10:17:33Z</time>
      </trkpt>
      <trkpt lat="47.82935" lon="-1.03155">
        <ele>73.5</ele>
        <time>2020-12-20T10:17:34Z</time>
      </trkpt>
      <trkpt lat="47.82934" lon="-1.03145">
        <ele>73.6</ele>
        <time>2020-12-20T10:17:35Z</time>
      </trkpt>
      <trkpt lat="47.82934" lon="-1.03135">
        <ele>73.8</ele>
        <time>2020-12-20T10:17:36Z</time>
      </trkpt>
      <trkpt lat="47.82934" lon="-1.03125">
        <ele>73.9</ele>
        <time>2020-12-20T10:17:37Z</time>
      </trkpt>
      <trkpt lat="47.82934" lon="-1.03115">
        <ele>74</ele>
        <time>2020-12-20T10:17:38Z</time>
      </trkpt>
      <trkpt lat="47.82934" lon="-1.03105">
        <ele>74.1</ele>
        <time>2020-12-20T10:17:39Z</time>
      </trkpt>
      <trkpt lat="47.82933" lon="-1.03095">
        <ele>74.3</ele>
        <time>2020-12-20T10:17:40Z</time>
      </trkpt>
      <trkpt lat="47.82934" lon="-1.03085">
        <ele>74.4</ele>
        <time>2020-12-20T10:17:41Z</time>
      </trkpt>
      <trkpt lat="47.82934" lon="-1.03075">
        <ele>74.4</ele>
        <time>2020-12-20T10:17:42Z</time>
      </trkpt>
      <trkpt lat="47.82935" lon="-1.03065">
        <ele>74.4</ele>
        <time>2020-12-20T10:17:43Z</time>
      </trkpt>
      <trkpt lat="47.82935" lon="-1.03054">
        <ele>74.5</ele>
        <time>2020-12-20T10:17:44Z</time>
      </trkpt>
      <trkpt lat="47.82935" lon="-1.03043">
        <ele>74.6</ele>
        <time>2020-12-20T10:17:45Z</time>
      </trkpt>
      <trkpt lat="47.82935" lon="-1.03033">
        <ele>74.6</ele>
        <time>2020-12-20T10:17:46Z</time>
      </trkpt>
      <trkpt lat="47.82935" lon="-1.03024">
        <ele>74.7</ele>
        <time>2020-12-20T10:17:47Z</time>
      </trkpt>
      <trkpt lat="47.82935" lon="-1.03014">
        <ele>74.7</ele>
        <time>2020-12-20T10:17:48Z</time>
      </trkpt>
      <trkpt lat="47.82934" lon="-1.03004">
        <ele>74.8</ele>
        <time>2020-12-20T10:17:49Z</time>
      </trkpt>
      <trkpt lat="47.82933" lon="-1.02994">
        <ele>74.8</ele>
        <time>2020-12-20T10:17:50Z</time>
      </trkpt>
      <trkpt lat="47.82934" lon="-1.02983">
        <ele>74.9</ele>
        <time>2020-12-20T10:17:51Z</time>
      </trkpt>
      <trkpt lat="47.82935" lon="-1.02972">
        <ele>75</ele>
        <time>2020-12-20T10:17:52Z</time>
      </trkpt>
      <trkpt lat="47.82936" lon="-1.02962">
        <ele>75</ele>
        <time>2020-12-20T10:17:53Z</time>
      </trkpt>
      <trkpt lat="47.82937" lon="-1.02952">
        <ele>75.1</ele>
        <time>2020-12-20T10:17:54Z</time>
      </trkpt>
      <trkpt lat="47.82936" lon="-1.02942">
        <ele>75.1</ele>
        <time>2020-12-20T10:17:55Z</time>
      </trkpt>
      <trkpt lat="47.82936" lon="-1.02932">
        <ele>75.2</ele>
        <time>2020-12-20T10:17:56Z</time>
      </trkpt>
      <trkpt lat="47.82936" lon="-1.02922">
        <ele>75.3</ele>
        <time>2020-12-20T10:17:57Z</time>
      </trkpt>
      <trkpt lat="47.82937" lon="-1.02912">
        <ele>75.5</ele>
        <time>2020-12-20T10:17:58Z</time>
      </trkpt>
      <trkpt lat="47.82937" lon="-1.02901">
        <ele>76</ele>
        <time>2020-12-20T10:17:59Z</time>
      </trkpt>
      <trkpt lat="47.82937" lon="-1.0289">
        <ele>76.5</ele>
        <time>2020-12-20T10:18:00Z</time>
      </trkpt>
      <trkpt lat="47.82937" lon="-1.02879">
        <ele>77</ele>
        <time>2020-12-20T10:18:01Z</time>
      </trkpt>
      <trkpt lat="47.82936" lon="-1.02869">
        <ele>77.4</ele>
        <time>2020-12-20T10:18:02Z</time>
      </trkpt>
      <trkpt lat="47.82936" lon="-1.02858">
        <ele>77.9</ele>
        <time>2020-12-20T10:18:03Z</time>
      </trkpt>
      <trkpt lat="47.82937" lon="-1.02847">
        <ele>78.4</ele>
        <time>2020-12-20T10:18:04Z</time>
      </trkpt>
      <trkpt lat="47.82937" lon="-1.02837">
        <ele>78.8</ele>
        <time>2020-12-20T10:18:05Z</time>
      </trkpt>
      <trkpt lat="47.82937" lon="-1.02826">
        <ele>79</ele>
        <time>2020-12-20T10:18:06Z</time>
      </trkpt>
      <trkpt lat="47.82938" lon="-1.02813">
        <ele>79.1</ele>
        <time>2020-12-20T10:18:07Z</time>
      </trkpt>
      <trkpt lat="47.82938" lon="-1.02805">
        <ele>79.1</ele>
        <time>2020-12-20T10:18:08Z</time>
      </trkpt>
      <trkpt lat="47.82939" lon="-1.02794">
        <ele>79.1</ele>
        <time>2020-12-20T10:18:09Z</time>
      </trkpt>
      <trkpt lat="47.82939" lon="-1.02784">
        <ele>79.2</ele>
        <time>2020-12-20T10:18:10Z</time>
      </trkpt>
      <trkpt lat="47.82938" lon="-1.02773">
        <ele>79.2</ele>
        <time>2020-12-20T10:18:11Z</time>
      </trkpt>
      <trkpt lat="47.82938" lon="-1.02762">
        <ele>79.2</ele>
        <time>2020-12-20T10:18:12Z</time>
      </trkpt>
      <trkpt lat="47.82938" lon="-1.02749">
        <ele>79.3</ele>
        <time>2020-12-20T10:18:13Z</time>
      </trkpt>
      <trkpt lat="47.82938" lon="-1.02741">
        <ele>79.3</ele>
        <time>2020-12-20T10:18:14Z</time>
      </trkpt>
      <trkpt lat="47.82937" lon="-1.0273">
        <ele>79.4</ele>
        <time>2020-12-20T10:18:15Z</time>
      </trkpt>
      <trkpt lat="47.82937" lon="-1.02717">
        <ele>79.4</ele>
        <time>2020-12-20T10:18:16Z</time>
      </trkpt>
      <trkpt lat="47.82938" lon="-1.02709">
        <ele>79.5</ele>
        <time>2020-12-20T10:18:17Z</time>
      </trkpt>
      <trkpt lat="47.82938" lon="-1.02698">
        <ele>79.6</ele>
        <time>2020-12-20T10:18:18Z</time>
      </trkpt>
      <trkpt lat="47.82939" lon="-1.02688">
        <ele>79.6</ele>
        <time>2020-12-20T10:18:19Z</time>
      </trkpt>
      <trkpt lat="47.8294" lon="-1.02679">
        <ele>79.7</ele>
        <time>2020-12-20T10:18:20Z</time>
      </trkpt>
      <trkpt lat="47.82941" lon="-1.0267">
        <ele>79.7</ele>
        <time>2020-12-20T10:18:21Z</time>
      </trkpt>
      <trkpt lat="47.82941" lon="-1.02661">
        <ele>79.6</ele>
        <time>2020-12-20T10:18:22Z</time>
      </trkpt>
      <trkpt lat="47.82942" lon="-1.02651">
        <ele>79.3</ele>
        <time>2020-12-20T10:18:23Z</time>
      </trkpt>
      <trkpt lat="47.82943" lon="-1.02641">
        <ele>79</ele>
        <time>2020-12-20T10:18:24Z</time>
      </trkpt>
      <trkpt lat="47.82943" lon="-1.02631">
        <ele>78.7</ele>
        <time>2020-12-20T10:18:25Z</time>
      </trkpt>
      <trkpt lat="47.82943" lon="-1.0262">
        <ele>78.4</ele>
        <time>2020-12-20T10:18:26Z</time>
      </trkpt>
      <trkpt lat="47.82943" lon="-1.02607">
        <ele>78</ele>
        <time>2020-12-20T10:18:27Z</time>
      </trkpt>
      <trkpt lat="47.82943" lon="-1.02598">
        <ele>77.8</ele>
        <time>2020-12-20T10:18:28Z</time>
      </trkpt>
      <trkpt lat="47.82943" lon="-1.02587">
        <ele>77.5</ele>
        <time>2020-12-20T10:18:29Z</time>
      </trkpt>
      <trkpt lat="47.82944" lon="-1.02577">
        <ele>76.9</ele>
        <time>2020-12-20T10:18:30Z</time>
      </trkpt>
      <trkpt lat="47.82945" lon="-1.02567">
        <ele>76.3</ele>
        <time>2020-12-20T10:18:31Z</time>
      </trkpt>
      <trkpt lat="47.82945" lon="-1.02556">
        <ele>75.6</ele>
        <time>2020-12-20T10:18:32Z</time>
      </trkpt>
      <trkpt lat="47.82945" lon="-1.02546">
        <ele>74.9</ele>
        <time>2020-12-20T10:18:33Z</time>
      </trkpt>
      <trkpt lat="47.82945" lon="-1.02535">
        <ele>74.2</ele>
        <time>2020-12-20T10:18:34Z</time>
      </trkpt>
      <trkpt lat="47.82944" lon="-1.02524">
        <ele>73.5</ele>
        <time>2020-12-20T10:18:35Z</time>
      </trkpt>
      <trkpt lat="47.82944" lon="-1.02513">
        <ele>72.8</ele>
        <time>2020-12-20T10:18:36Z</time>
      </trkpt>
      <trkpt lat="47.82944" lon="-1.02502">
        <ele>72.1</ele>
        <time>2020-12-20T10:18:37Z</time>
      </trkpt>
      <trkpt lat="47.82944" lon="-1.02491">
        <ele>71.9</ele>
        <time>2020-12-20T10:18:38Z</time>
      </trkpt>
      <trkpt lat="47.82944" lon="-1.0248">
        <ele>71.9</ele>
        <time>2020-12-20T10:18:39Z</time>
      </trkpt>
      <trkpt lat="47.82943" lon="-1.0247">
        <ele>71.8</ele>
        <time>2020-12-20T10:18:40Z</time>
      </trkpt>
      <trkpt lat="47.82942" lon="-1.02459">
        <ele>71.8</ele>
        <time>2020-12-20T10:18:41Z</time>
      </trkpt>
      <trkpt lat="47.82942" lon="-1.02447">
        <ele>71.7</ele>
        <time>2020-12-20T10:18:42Z</time>
      </trkpt>
      <trkpt lat="47.82942" lon="-1.02437">
        <ele>71.7</ele>
        <time>2020-12-20T10:18:43Z</time>
      </trkpt>
      <trkpt lat="47.82941" lon="-1.02426">
        <ele>71.6</ele>
        <time>2020-12-20T10:18:44Z</time>
      </trkpt>
      <trkpt lat="47.82941" lon="-1.02413">
        <ele>71.6</ele>
        <time>2020-12-20T10:18:45Z</time>
      </trkpt>
      <trkpt lat="47.82941" lon="-1.02402">
        <ele>71.5</ele>
        <time>2020-12-20T10:18:46Z</time>
      </trkpt>
      <trkpt lat="47.82942" lon="-1.02392">
        <ele>71.5</ele>
        <time>2020-12-20T10:18:47Z</time>
      </trkpt>
      <trkpt lat="47.82942" lon="-1.02382">
        <ele>71.5</ele>
        <time>2020-12-20T10:18:48Z</time>
      </trkpt>
      <trkpt lat="47.82942" lon="-1.02373">
        <ele>71.4</ele>
        <time>2020-12-20T10:18:49Z</time>
      </trkpt>
      <trkpt lat="47.82942" lon="-1.02363">
        <ele>71.4</ele>
        <time>2020-12-20T10:18:50Z</time>
      </trkpt>
      <trkpt lat="47.82942" lon="-1.02353">
        <ele>71.4</ele>
        <time>2020-12-20T10:18:51Z</time>
      </trkpt>
      <trkpt lat="47.82942" lon="-1.02343">
        <ele>71.3</ele>
        <time>2020-12-20T10:18:52Z</time>
      </trkpt>
      <trkpt lat="47.82942" lon="-1.02334">
        <ele>71.3</ele>
        <time>2020-12-20T10:18:53Z</time>
      </trkpt>
      <trkpt lat="47.82942" lon="-1.02324">
        <ele>71</ele>
        <time>2020-12-20T10:18:54Z</time>
      </trkpt>
      <trkpt lat="47.82942" lon="-1.02315">
        <ele>70.7</ele>
        <time>2020-12-20T10:18:55Z</time>
      </trkpt>
      <trkpt lat="47.82943" lon="-1.02304">
        <ele>70.4</ele>
        <time>2020-12-20T10:18:56Z</time>
      </trkpt>
      <trkpt lat="47.82943" lon="-1.02294">
        <ele>70.1</ele>
        <time>2020-12-20T10:18:57Z</time>
      </trkpt>
      <trkpt lat="47.82943" lon="-1.02284">
        <ele>69.8</ele>
        <time>2020-12-20T10:18:58Z</time>
      </trkpt>
      <trkpt lat="47.82943" lon="-1.02273">
        <ele>69.4</ele>
        <time>2020-12-20T10:18:59Z</time>
      </trkpt>
      <trkpt lat="47.82943" lon="-1.02263">
        <ele>69.1</ele>
        <time>2020-12-20T10:19:00Z</time>
      </trkpt>
      <trkpt lat="47.82943" lon="-1.02253">
        <ele>68.8</ele>
        <time>2020-12-20T10:19:01Z</time>
      </trkpt>
      <trkpt lat="47.82943" lon="-1.02244">
        <ele>68.8</ele>
        <time>2020-12-20T10:19:02Z</time>
      </trkpt>
      <trkpt lat="47.82943" lon="-1.02234">
        <ele>68.9</ele>
        <time>2020-12-20T10:19:03Z</time>
      </trkpt>
      <trkpt lat="47.82944" lon="-1.02224">
        <ele>69</ele>
        <time>2020-12-20T10:19:04Z</time>
      </trkpt>
      <trkpt lat="47.82944" lon="-1.02214">
        <ele>69.1</ele>
        <time>2020-12-20T10:19:05Z</time>
      </trkpt>
      <trkpt lat="47.82945" lon="-1.02204">
        <ele>69.2</ele>
        <time>2020-12-20T10:19:06Z</time>
      </trkpt>
      <trkpt lat="47.82945" lon="-1.02194">
        <ele>69.3</ele>
        <time>2020-12-20T10:19:07Z</time>
      </trkpt>
      <trkpt lat="47.82945" lon="-1.02183">
        <ele>69.5</ele>
        <time>2020-12-20T10:19:08Z</time>
      </trkpt>
      <trkpt lat="47.82945" lon="-1.02173">
        <ele>69.6</ele>
        <time>2020-12-20T10:19:09Z</time>
      </trkpt>
      <trkpt lat="47.82945" lon="-1.02163">
        <ele>69.7</ele>
        <time>2020-12-20T10:19:10Z</time>
      </trkpt>
      <trkpt lat="47.82945" lon="-1.02152">
        <ele>69.8</ele>
        <time>2020-12-20T10:19:11Z</time>
      </trkpt>
      <trkpt lat="47.82945" lon="-1.02142">
        <ele>69.9</ele>
        <time>2020-12-20T10:19:12Z</time>
      </trkpt>
      <trkpt lat="47.82945" lon="-1.02132">
        <ele>69.9</ele>
        <time>2020-12-20T10:19:13Z</time>
      </trkpt>
      <trkpt lat="47.82945" lon="-1.02123">
        <ele>70</ele>
        <time>2020-12-20T10:19:14Z</time>
      </trkpt>
      <trkpt lat="47.82944" lon="-1.02113">
        <ele>70.1</ele>
        <time>2020-12-20T10:19:15Z</time>
      </trkpt>
      <trkpt lat="47.82944" lon="-1.02102">
        <ele>70.2</ele>
        <time>2020-12-20T10:19:16Z</time>
      </trkpt>
      <trkpt lat="47.82944" lon="-1.02095">
        <ele>70.2</ele>
        <time>2020-12-20T10:19:17Z</time>
      </trkpt>
      <trkpt lat="47.82943" lon="-1.02085">
        <ele>70.4</ele>
        <time>2020-12-20T10:19:18Z</time>
      </trkpt>
      <trkpt lat="47.82943" lon="-1.02076">
        <ele>70.4</ele>
        <time>2020-12-20T10:19:19Z</time>
      </trkpt>
      <trkpt lat="47.82944" lon="-1.02066">
        <ele>70.4</ele>
        <time>2020-12-20T10:19:20Z</time>
      </trkpt>
      <trkpt lat="47.82944" lon="-1.02057">
        <ele>70.5</ele>
        <time>2020-12-20T10:19:21Z</time>
      </trkpt>
      <trkpt lat="47.82944" lon="-1.02047">
        <ele>70.5</ele>
        <time>2020-12-20T10:19:22Z</time>
      </trkpt>
      <trkpt lat="47.82944" lon="-1.02038">
        <ele>70.5</ele>
        <time>2020-12-20T10:19:23Z</time>
      </trkpt>
      <trkpt lat="47.82944" lon="-1.02028">
        <ele>70.6</ele>
        <time>2020-12-20T10:19:24Z</time>
      </trkpt>
      <trkpt lat="47.82944" lon="-1.02019">
        <ele>70.6</ele>
        <time>2020-12-20T10:19:25Z</time>
      </trkpt>
      <trkpt lat="47.82944" lon="-1.0201">
        <ele>70.6</ele>
        <time>2020-12-20T10:19:26Z</time>
      </trkpt>
      <trkpt lat="47.82944" lon="-1.02001">
        <ele>70.7</ele>
        <time>2020-12-20T10:19:27Z</time>
      </trkpt>
      <trkpt lat="47.82944" lon="-1.0199">
        <ele>70.6</ele>
        <time>2020-12-20T10:19:28Z</time>
      </trkpt>
      <trkpt lat="47.82945" lon="-1.01984">
        <ele>70.6</ele>
        <time>2020-12-20T10:19:29Z</time>
      </trkpt>
      <trkpt lat="47.82945" lon="-1.01974">
        <ele>70.5</ele>
        <time>2020-12-20T10:19:30Z</time>
      </trkpt>
      <trkpt lat="47.82945" lon="-1.01966">
        <ele>70.5</ele>
        <time>2020-12-20T10:19:31Z</time>
      </trkpt>
      <trkpt lat="47.82944" lon="-1.01959">
        <ele>70.5</ele>
        <time>2020-12-20T10:19:32Z</time>
      </trkpt>
      <trkpt lat="47.82944" lon="-1.01952">
        <ele>70.5</ele>
        <time>2020-12-20T10:19:33Z</time>
      </trkpt>
      <trkpt lat="47.82945" lon="-1.01945">
        <ele>70.4</ele>
        <time>2020-12-20T10:19:34Z</time>
      </trkpt>
      <trkpt lat="47.82945" lon="-1.01939">
        <ele>70.4</ele>
        <time>2020-12-20T10:19:35Z</time>
      </trkpt>
      <trkpt lat="47.82945" lon="-1.01933">
        <ele>70.4</ele>
        <time>2020-12-20T10:19:36Z</time>
      </trkpt>
      <trkpt lat="47.82945" lon="-1.01927">
        <ele>70.3</ele>
        <time>2020-12-20T10:19:37Z</time>
      </trkpt>
      <trkpt lat="47.82945" lon="-1.01921">
        <ele>70.3</ele>
        <time>2020-12-20T10:19:38Z</time>
      </trkpt>
      <trkpt lat="47.82945" lon="-1.01914">
        <ele>70.3</ele>
        <time>2020-12-20T10:19:39Z</time>
      </trkpt>
      <trkpt lat="47.82945" lon="-1.01906">
        <ele>70.2</ele>
        <time>2020-12-20T10:19:40Z</time>
      </trkpt>
      <trkpt lat="47.82945" lon="-1.01897">
        <ele>70.1</ele>
        <time>2020-12-20T10:19:41Z</time>
      </trkpt>
      <trkpt lat="47.82946" lon="-1.01888">
        <ele>70</ele>
        <time>2020-12-20T10:19:42Z</time>
      </trkpt>
      <trkpt lat="47.82947" lon="-1.01876">
        <ele>69.9</ele>
        <time>2020-12-20T10:19:43Z</time>
      </trkpt>
      <trkpt lat="47.82947" lon="-1.01868">
        <ele>69.8</ele>
        <time>2020-12-20T10:19:44Z</time>
      </trkpt>
      <trkpt lat="47.82948" lon="-1.01857">
        <ele>69.7</ele>
        <time>2020-12-20T10:19:45Z</time>
      </trkpt>
      <trkpt lat="47.82948" lon="-1.01847">
        <ele>69.6</ele>
        <time>2020-12-20T10:19:46Z</time>
      </trkpt>
      <trkpt lat="47.82948" lon="-1.01837">
        <ele>69.5</ele>
        <time>2020-12-20T10:19:47Z</time>
      </trkpt>
      <trkpt lat="47.82948" lon="-1.01827">
        <ele>69.5</ele>
        <time>2020-12-20T10:19:48Z</time>
      </trkpt>
      <trkpt lat="47.82948" lon="-1.01816">
        <ele>69.4</ele>
        <time>2020-12-20T10:19:49Z</time>
      </trkpt>
      <trkpt lat="47.82949" lon="-1.01806">
        <ele>69.3</ele>
        <time>2020-12-20T10:19:50Z</time>
      </trkpt>
      <trkpt lat="47.82949" lon="-1.01795">
        <ele>69.2</ele>
        <time>2020-12-20T10:19:51Z</time>
      </trkpt>
      <trkpt lat="47.8295" lon="-1.01785">
        <ele>69.2</ele>
        <time>2020-12-20T10:19:52Z</time>
      </trkpt>
      <trkpt lat="47.8295" lon="-1.01775">
        <ele>69.1</ele>
        <time>2020-12-20T10:19:53Z</time>
      </trkpt>
      <trkpt lat="47.8295" lon="-1.01767">
        <ele>69.1</ele>
        <time>2020-12-20T10:19:54Z</time>
      </trkpt>
      <trkpt lat="47.8295" lon="-1.01758">
        <ele>69</ele>
        <time>2020-12-20T10:19:55Z</time>
      </trkpt>
      <trkpt lat="47.82951" lon="-1.01747">
        <ele>68.9</ele>
        <time>2020-12-20T10:19:56Z</time>
      </trkpt>
      <trkpt lat="47.82951" lon="-1.01735">
        <ele>68.7</ele>
        <time>2020-12-20T10:19:57Z</time>
      </trkpt>
      <trkpt lat="47.82951" lon="-1.01723">
        <ele>68.5</ele>
        <time>2020-12-20T10:19:58Z</time>
      </trkpt>
      <trkpt lat="47.82951" lon="-1.01709">
        <ele>68.2</ele>
        <time>2020-12-20T10:19:59Z</time>
      </trkpt>
      <trkpt lat="47.82951" lon="-1.017">
        <ele>68</ele>
        <time>2020-12-20T10:20:00Z</time>
      </trkpt>
      <trkpt lat="47.82951" lon="-1.01688">
        <ele>67.8</ele>
        <time>2020-12-20T10:20:01Z</time>
      </trkpt>
      <trkpt lat="47.82951" lon="-1.01676">
        <ele>67.6</ele>
        <time>2020-12-20T10:20:02Z</time>
      </trkpt>
      <trkpt lat="47.82951" lon="-1.01665">
        <ele>67.4</ele>
        <time>2020-12-20T10:20:03Z</time>
      </trkpt>
      <trkpt lat="47.82951" lon="-1.01655">
        <ele>67.4</ele>
        <time>2020-12-20T10:20:04Z</time>
      </trkpt>
      <trkpt lat="47.82951" lon="-1.01645">
        <ele>67.3</ele>
        <time>2020-12-20T10:20:05Z</time>
      </trkpt>
      <trkpt lat="47.82951" lon="-1.01634">
        <ele>67.3</ele>
        <time>2020-12-20T10:20:06Z</time>
      </trkpt>
      <trkpt lat="47.82952" lon="-1.01624">
        <ele>67.2</ele>
        <time>2020-12-20T10:20:07Z</time>
      </trkpt>
      <trkpt lat="47.82952" lon="-1.01613">
        <ele>67.2</ele>
        <time>2020-12-20T10:20:08Z</time>
      </trkpt>
      <trkpt lat="47.82952" lon="-1.01603">
        <ele>67.1</ele>
        <time>2020-12-20T10:20:09Z</time>
      </trkpt>
      <trkpt lat="47.82952" lon="-1.01593">
        <ele>67</ele>
        <time>2020-12-20T10:20:10Z</time>
      </trkpt>
      <trkpt lat="47.82952" lon="-1.01582">
        <ele>67</ele>
        <time>2020-12-20T10:20:11Z</time>
      </trkpt>
      <trkpt lat="47.82952" lon="-1.01572">
        <ele>67.2</ele>
        <time>2020-12-20T10:20:12Z</time>
      </trkpt>
      <trkpt lat="47.82952" lon="-1.01561">
        <ele>67.5</ele>
        <time>2020-12-20T10:20:13Z</time>
      </trkpt>
      <trkpt lat="47.82952" lon="-1.0155">
        <ele>67.7</ele>
        <time>2020-12-20T10:20:14Z</time>
      </trkpt>
      <trkpt lat="47.82952" lon="-1.0154">
        <ele>67.9</ele>
        <time>2020-12-20T10:20:15Z</time>
      </trkpt>
      <trkpt lat="47.82952" lon="-1.0153">
        <ele>68.1</ele>
        <time>2020-12-20T10:20:16Z</time>
      </trkpt>
      <trkpt lat="47.82952" lon="-1.01521">
        <ele>68.3</ele>
        <time>2020-12-20T10:20:17Z</time>
      </trkpt>
      <trkpt lat="47.82952" lon="-1.01511">
        <ele>68.5</ele>
        <time>2020-12-20T10:20:18Z</time>
      </trkpt>
      <trkpt lat="47.82952" lon="-1.01502">
        <ele>68.7</ele>
        <time>2020-12-20T10:20:19Z</time>
      </trkpt>
      <trkpt lat="47.82952" lon="-1.01494">
        <ele>68.6</ele>
        <time>2020-12-20T10:20:20Z</time>
      </trkpt>
      <trkpt lat="47.82952" lon="-1.01484">
        <ele>68.4</ele>
        <time>2020-12-20T10:20:21Z</time>
      </trkpt>
      <trkpt lat="47.82951" lon="-1.01477">
        <ele>68.2</ele>
        <time>2020-12-20T10:20:22Z</time>
      </trkpt>
      <trkpt lat="47.82951" lon="-1.01466">
        <ele>68</ele>
        <time>2020-12-20T10:20:23Z</time>
      </trkpt>
      <trkpt lat="47.82952" lon="-1.0146">
        <ele>67.9</ele>
        <time>2020-12-20T10:20:24Z</time>
      </trkpt>
      <trkpt lat="47.82952" lon="-1.01452">
        <ele>67.8</ele>
        <time>2020-12-20T10:20:25Z</time>
      </trkpt>
      <trkpt lat="47.82953" lon="-1.01443">
        <ele>67.7</ele>
        <time>2020-12-20T10:20:26Z</time>
      </trkpt>
      <trkpt lat="47.82953" lon="-1.01435">
        <ele>67.5</ele>
        <time>2020-12-20T10:20:27Z</time>
      </trkpt>
      <trkpt lat="47.82953" lon="-1.01429">
        <ele>67.4</ele>
        <time>2020-12-20T10:20:28Z</time>
      </trkpt>
      <trkpt lat="47.82953" lon="-1.01418">
        <ele>67.2</ele>
        <time>2020-12-20T10:20:29Z</time>
      </trkpt>
      <trkpt lat="47.82953" lon="-1.0141">
        <ele>67</ele>
        <time>2020-12-20T10:20:30Z</time>
      </trkpt>
      <trkpt lat="47.82953" lon="-1.01399">
        <ele>66.7</ele>
        <time>2020-12-20T10:20:31Z</time>
      </trkpt>
      <trkpt lat="47.82953" lon="-1.01389">
        <ele>66.4</ele>
        <time>2020-12-20T10:20:32Z</time>
      </trkpt>
      <trkpt lat="47.82954" lon="-1.01378">
        <ele>66.1</ele>
        <time>2020-12-20T10:20:33Z</time>
      </trkpt>
      <trkpt lat="47.82955" lon="-1.01367">
        <ele>65.8</ele>
        <time>2020-12-20T10:20:34Z</time>
      </trkpt>
      <trkpt lat="47.82955" lon="-1.01357">
        <ele>65.5</ele>
        <time>2020-12-20T10:20:35Z</time>
      </trkpt>
      <trkpt lat="47.82956" lon="-1.01346">
        <ele>65.3</ele>
        <time>2020-12-20T10:20:36Z</time>
      </trkpt>
      <trkpt lat="47.82956" lon="-1.01335">
        <ele>64.9</ele>
        <time>2020-12-20T10:20:37Z</time>
      </trkpt>
      <trkpt lat="47.82956" lon="-1.01322">
        <ele>64.4</ele>
        <time>2020-12-20T10:20:38Z</time>
      </trkpt>
      <trkpt lat="47.82956" lon="-1.01314">
        <ele>64</ele>
        <time>2020-12-20T10:20:39Z</time>
      </trkpt>
      <trkpt lat="47.82957" lon="-1.01303">
        <ele>63.5</ele>
        <time>2020-12-20T10:20:40Z</time>
      </trkpt>
      <trkpt lat="47.82957" lon="-1.01291">
        <ele>62.9</ele>
        <time>2020-12-20T10:20:41Z</time>
      </trkpt>
      <trkpt lat="47.82957" lon="-1.01281">
        <ele>62.5</ele>
        <time>2020-12-20T10:20:42Z</time>
      </trkpt>
      <trkpt lat="47.82958" lon="-1.0127">
        <ele>62</ele>
        <time>2020-12-20T10:20:43Z</time>
      </trkpt>
      <trkpt lat="47.82958" lon="-1.01262">
        <ele>61.6</ele>
        <time>2020-12-20T10:20:44Z</time>
      </trkpt>
      <trkpt lat="47.82957" lon="-1.0125">
        <ele>61</ele>
        <time>2020-12-20T10:20:45Z</time>
      </trkpt>
      <trkpt lat="47.82957" lon="-1.01236">
        <ele>60.7</ele>
        <time>2020-12-20T10:20:46Z</time>
      </trkpt>
      <trkpt lat="47.82957" lon="-1.01226">
        <ele>60.4</ele>
        <time>2020-12-20T10:20:47Z</time>
      </trkpt>
      <trkpt lat="47.82957" lon="-1.01213">
        <ele>60.1</ele>
        <time>2020-12-20T10:20:48Z</time>
      </trkpt>
      <trkpt lat="47.82957" lon="-1.01199">
        <ele>59.8</ele>
        <time>2020-12-20T10:20:49Z</time>
      </trkpt>
      <trkpt lat="47.82957" lon="-1.01189">
        <ele>59.5</ele>
        <time>2020-12-20T10:20:50Z</time>
      </trkpt>
      <trkpt lat="47.82957" lon="-1.01173">
        <ele>59.2</ele>
        <time>2020-12-20T10:20:51Z</time>
      </trkpt>
      <trkpt lat="47.82957" lon="-1.01163">
        <ele>59</ele>
        <time>2020-12-20T10:20:52Z</time>
      </trkpt>
      <trkpt lat="47.82956" lon="-1.0115">
        <ele>58.8</ele>
        <time>2020-12-20T10:20:53Z</time>
      </trkpt>
      <trkpt lat="47.82956" lon="-1.01134">
        <ele>58.6</ele>
        <time>2020-12-20T10:20:54Z</time>
      </trkpt>
      <trkpt lat="47.82957" lon="-1.01124">
        <ele>58.5</ele>
        <time>2020-12-20T10:20:55Z</time>
      </trkpt>
      <trkpt lat="47.82957" lon="-1.01111">
        <ele>58.3</ele>
        <time>2020-12-20T10:20:56Z</time>
      </trkpt>
      <trkpt lat="47.82957" lon="-1.01098">
        <ele>58.2</ele>
        <time>2020-12-20T10:20:57Z</time>
      </trkpt>
      <trkpt lat="47.82958" lon="-1.01083">
        <ele>58</ele>
        <time>2020-12-20T10:20:58Z</time>
      </trkpt>
      <trkpt lat="47.82958" lon="-1.01073">
        <ele>57.9</ele>
        <time>2020-12-20T10:20:59Z</time>
      </trkpt>
      <trkpt lat="47.82958" lon="-1.01058">
        <ele>57.7</ele>
        <time>2020-12-20T10:21:00Z</time>
      </trkpt>
      <trkpt lat="47.82958" lon="-1.01048">
        <ele>57.6</ele>
        <time>2020-12-20T10:21:01Z</time>
      </trkpt>
      <trkpt lat="47.82958" lon="-1.01035">
        <ele>57.4</ele>
        <time>2020-12-20T10:21:02Z</time>
      </trkpt>
      <trkpt lat="47.82958" lon="-1.01023">
        <ele>57.3</ele>
        <time>2020-12-20T10:21:03Z</time>
      </trkpt>
      <trkpt lat="47.82959" lon="-1.01011">
        <ele>57.1</ele>
        <time>2020-12-20T10:21:04Z</time>
      </trkpt>
      <trkpt lat="47.82959" lon="-1.00999">
        <ele>57</ele>
        <time>2020-12-20T10:21:05Z</time>
      </trkpt>
      <trkpt lat="47.82959" lon="-1.00987">
        <ele>56.8</ele>
        <time>2020-12-20T10:21:06Z</time>
      </trkpt>
      <trkpt lat="47.82959" lon="-1.00976">
        <ele>56.7</ele>
        <time>2020-12-20T10:21:07Z</time>
      </trkpt>
      <trkpt lat="47.82959" lon="-1.00964">
        <ele>56.6</ele>
        <time>2020-12-20T10:21:08Z</time>
      </trkpt>
      <trkpt lat="47.8296" lon="-1.00953">
        <ele>56.4</ele>
        <time>2020-12-20T10:21:09Z</time>
      </trkpt>
      <trkpt lat="47.8296" lon="-1.00941">
        <ele>56.3</ele>
        <time>2020-12-20T10:21:10Z</time>
      </trkpt>
      <trkpt lat="47.8296" lon="-1.0093">
        <ele>56.2</ele>
        <time>2020-12-20T10:21:11Z</time>
      </trkpt>
      <trkpt lat="47.8296" lon="-1.00919">
        <ele>56</ele>
        <time>2020-12-20T10:21:12Z</time>
      </trkpt>
      <trkpt lat="47.8296" lon="-1.00908">
        <ele>55.8</ele>
        <time>2020-12-20T10:21:13Z</time>
      </trkpt>
      <trkpt lat="47.82961" lon="-1.00897">
        <ele>55.7</ele>
        <time>2020-12-20T10:21:14Z</time>
      </trkpt>
      <trkpt lat="47.82961" lon="-1.00886">
        <ele>55.5</ele>
        <time>2020-12-20T10:21:15Z</time>
      </trkpt>
      <trkpt lat="47.82962" lon="-1.00875">
        <ele>55.3</ele>
        <time>2020-12-20T10:21:16Z</time>
      </trkpt>
      <trkpt lat="47.82963" lon="-1.00863">
        <ele>55.1</ele>
        <time>2020-12-20T10:21:17Z</time>
      </trkpt>
      <trkpt lat="47.82963" lon="-1.00852">
        <ele>54.9</ele>
        <time>2020-12-20T10:21:18Z</time>
      </trkpt>
      <trkpt lat="47.82964" lon="-1.00841">
        <ele>54.7</ele>
        <time>2020-12-20T10:21:19Z</time>
      </trkpt>
      <trkpt lat="47.82965" lon="-1.00828">
        <ele>54.5</ele>
        <time>2020-12-20T10:21:20Z</time>
      </trkpt>
      <trkpt lat="47.82966" lon="-1.00819">
        <ele>54.4</ele>
        <time>2020-12-20T10:21:21Z</time>
      </trkpt>
      <trkpt lat="47.82967" lon="-1.00806">
        <ele>54.3</ele>
        <time>2020-12-20T10:21:22Z</time>
      </trkpt>
      <trkpt lat="47.82968" lon="-1.00795">
        <ele>54.2</ele>
        <time>2020-12-20T10:21:23Z</time>
      </trkpt>
      <trkpt lat="47.82969" lon="-1.00785">
        <ele>54</ele>
        <time>2020-12-20T10:21:24Z</time>
      </trkpt>
      <trkpt lat="47.8297" lon="-1.00774">
        <ele>53.9</ele>
        <time>2020-12-20T10:21:25Z</time>
      </trkpt>
      <trkpt lat="47.82972" lon="-1.0076">
        <ele>53.8</ele>
        <time>2020-12-20T10:21:26Z</time>
      </trkpt>
      <trkpt lat="47.82973" lon="-1.0075">
        <ele>53.7</ele>
        <time>2020-12-20T10:21:27Z</time>
      </trkpt>
      <trkpt lat="47.82975" lon="-1.00738">
        <ele>53.5</ele>
        <time>2020-12-20T10:21:28Z</time>
      </trkpt>
      <trkpt lat="47.82977" lon="-1.00725">
        <ele>53.2</ele>
        <time>2020-12-20T10:21:29Z</time>
      </trkpt>
      <trkpt lat="47.82978" lon="-1.00715">
        <ele>53</ele>
        <time>2020-12-20T10:21:30Z</time>
      </trkpt>
      <trkpt lat="47.8298" lon="-1.00704">
        <ele>52.8</ele>
        <time>2020-12-20T10:21:31Z</time>
      </trkpt>
      <trkpt lat="47.82982" lon="-1.0069">
        <ele>52.5</ele>
        <time>2020-12-20T10:21:32Z</time>
      </trkpt>
      <trkpt lat="47.82984" lon="-1.00681">
        <ele>52.3</ele>
        <time>2020-12-20T10:21:33Z</time>
      </trkpt>
      <trkpt lat="47.82985" lon="-1.0067">
        <ele>52.1</ele>
        <time>2020-12-20T10:21:34Z</time>
      </trkpt>
      <trkpt lat="47.82987" lon="-1.00658">
        <ele>52.1</ele>
        <time>2020-12-20T10:21:35Z</time>
      </trkpt>
      <trkpt lat="47.82989" lon="-1.00647">
        <ele>52.2</ele>
        <time>2020-12-20T10:21:36Z</time>
      </trkpt>
      <trkpt lat="47.82991" lon="-1.00636">
        <ele>52.4</ele>
        <time>2020-12-20T10:21:37Z</time>
      </trkpt>
      <trkpt lat="47.82993" lon="-1.00624">
        <ele>52.5</ele>
        <time>2020-12-20T10:21:38Z</time>
      </trkpt>
      <trkpt lat="47.82996" lon="-1.00613">
        <ele>52.6</ele>
        <time>2020-12-20T10:21:39Z</time>
      </trkpt>
      <trkpt lat="47.82998" lon="-1.00602">
        <ele>52.8</ele>
        <time>2020-12-20T10:21:40Z</time>
      </trkpt>
      <trkpt lat="47.83001" lon="-1.00588">
        <ele>52.9</ele>
        <time>2020-12-20T10:21:41Z</time>
      </trkpt>
      <trkpt lat="47.83003" lon="-1.00579">
        <ele>53</ele>
        <time>2020-12-20T10:21:42Z</time>
      </trkpt>
      <trkpt lat="47.83006" lon="-1.00566">
        <ele>53.2</ele>
        <time>2020-12-20T10:21:43Z</time>
      </trkpt>
      <trkpt lat="47.83008" lon="-1.00554">
        <ele>53.3</ele>
        <time>2020-12-20T10:21:44Z</time>
      </trkpt>
      <trkpt lat="47.8301" lon="-1.00546">
        <ele>53.3</ele>
        <time>2020-12-20T10:21:45Z</time>
      </trkpt>
      <trkpt lat="47.83013" lon="-1.00535">
        <ele>53.4</ele>
        <time>2020-12-20T10:21:46Z</time>
      </trkpt>
      <trkpt lat="47.83015" lon="-1.00524">
        <ele>53.5</ele>
        <time>2020-12-20T10:21:47Z</time>
      </trkpt>
      <trkpt lat="47.83017" lon="-1.00513">
        <ele>53.5</ele>
        <time>2020-12-20T10:21:48Z</time>
      </trkpt>
      <trkpt lat="47.8302" lon="-1.00501">
        <ele>53.5</ele>
        <time>2020-12-20T10:21:49Z</time>
      </trkpt>
      <trkpt lat="47.83022" lon="-1.0049">
        <ele>53.4</ele>
        <time>2020-12-20T10:21:50Z</time>
      </trkpt>
      <trkpt lat="47.83024" lon="-1.00479">
        <ele>53.2</ele>
        <time>2020-12-20T10:21:51Z</time>
      </trkpt>
      <trkpt lat="47.83026" lon="-1.00469">
        <ele>53.1</ele>
        <time>2020-12-20T10:21:52Z</time>
      </trkpt>
      <trkpt lat="47.83029" lon="-1.00458">
        <ele>53</ele>
        <time>2020-12-20T10:21:53Z</time>
      </trkpt>
      <trkpt lat="47.83031" lon="-1.00448">
        <ele>52.9</ele>
        <time>2020-12-20T10:21:54Z</time>
      </trkpt>
      <trkpt lat="47.83033" lon="-1.00438">
        <ele>52.8</ele>
        <time>2020-12-20T10:21:55Z</time>
      </trkpt>
      <trkpt lat="47.83036" lon="-1.00428">
        <ele>52.6</ele>
        <time>2020-12-20T10:21:56Z</time>
      </trkpt>
      <trkpt lat="47.83038" lon="-1.00418">
        <ele>52.6</ele>
        <time>2020-12-20T10:21:57Z</time>
      </trkpt>
      <trkpt lat="47.8304" lon="-1.00408">
        <ele>52.4</ele>
        <time>2020-12-20T10:21:58Z</time>
      </trkpt>
      <trkpt lat="47.83042" lon="-1.00399">
        <ele>52.3</ele>
        <time>2020-12-20T10:21:59Z</time>
      </trkpt>
      <trkpt lat="47.83044" lon="-1.00389">
        <ele>52.2</ele>
        <time>2020-12-20T10:22:00Z</time>
      </trkpt>
      <trkpt lat="47.83046" lon="-1.0038">
        <ele>52.1</ele>
        <time>2020-12-20T10:22:01Z</time>
      </trkpt>
      <trkpt lat="47.83048" lon="-1.0037">
        <ele>51.9</ele>
        <time>2020-12-20T10:22:02Z</time>
      </trkpt>
      <trkpt lat="47.8305" lon="-1.0036">
        <ele>51.9</ele>
        <time>2020-12-20T10:22:03Z</time>
      </trkpt>
      <trkpt lat="47.83052" lon="-1.0035">
        <ele>51.8</ele>
        <time>2020-12-20T10:22:04Z</time>
      </trkpt>
      <trkpt lat="47.83054" lon="-1.0034">
        <ele>51.7</ele>
        <time>2020-12-20T10:22:05Z</time>
      </trkpt>
      <trkpt lat="47.83057" lon="-1.0033">
        <ele>51.6</ele>
        <time>2020-12-20T10:22:06Z</time>
      </trkpt>
      <trkpt lat="47.83059" lon="-1.0032">
        <ele>51.5</ele>
        <time>2020-12-20T10:22:07Z</time>
      </trkpt>
      <trkpt lat="47.83061" lon="-1.00309">
        <ele>51.4</ele>
        <time>2020-12-20T10:22:08Z</time>
      </trkpt>
      <trkpt lat="47.83064" lon="-1.00299">
        <ele>51.4</ele>
        <time>2020-12-20T10:22:09Z</time>
      </trkpt>
      <trkpt lat="47.83066" lon="-1.00289">
        <ele>51.3</ele>
        <time>2020-12-20T10:22:10Z</time>
      </trkpt>
      <trkpt lat="47.83068" lon="-1.0028">
        <ele>51.2</ele>
        <time>2020-12-20T10:22:11Z</time>
      </trkpt>
      <trkpt lat="47.8307" lon="-1.0027">
        <ele>51.1</ele>
        <time>2020-12-20T10:22:12Z</time>
      </trkpt>
      <trkpt lat="47.83072" lon="-1.0026">
        <ele>51</ele>
        <time>2020-12-20T10:22:13Z</time>
      </trkpt>
      <trkpt lat="47.83074" lon="-1.0025">
        <ele>50.9</ele>
        <time>2020-12-20T10:22:14Z</time>
      </trkpt>
      <trkpt lat="47.83076" lon="-1.0024">
        <ele>50.8</ele>
        <time>2020-12-20T10:22:15Z</time>
      </trkpt>
      <trkpt lat="47.83078" lon="-1.00231">
        <ele>50.7</ele>
        <time>2020-12-20T10:22:16Z</time>
      </trkpt>
      <trkpt lat="47.8308" lon="-1.00222">
        <ele>50.6</ele>
        <time>2020-12-20T10:22:17Z</time>
      </trkpt>
      <trkpt lat="47.83083" lon="-1.00213">
        <ele>50.5</ele>
        <time>2020-12-20T10:22:18Z</time>
      </trkpt>
      <trkpt lat="47.83085" lon="-1.00204">
        <ele>50.6</ele>
        <time>2020-12-20T10:22:19Z</time>
      </trkpt>
      <trkpt lat="47.83087" lon="-1.00193">
        <ele>50.6</ele>
        <time>2020-12-20T10:22:20Z</time>
      </trkpt>
      <trkpt lat="47.83089" lon="-1.00186">
        <ele>50.7</ele>
        <time>2020-12-20T10:22:21Z</time>
      </trkpt>
      <trkpt lat="47.83091" lon="-1.00176">
        <ele>50.8</ele>
        <time>2020-12-20T10:22:22Z</time>
      </trkpt>
      <trkpt lat="47.83092" lon="-1.00167">
        <ele>50.8</ele>
        <time>2020-12-20T10:22:23Z</time>
      </trkpt>
      <trkpt lat="47.83094" lon="-1.00158">
        <ele>51</ele>
        <time>2020-12-20T10:22:24Z</time>
      </trkpt>
      <trkpt lat="47.83096" lon="-1.00149">
        <ele>51.2</ele>
        <time>2020-12-20T10:22:25Z</time>
      </trkpt>
      <trkpt lat="47.83098" lon="-1.0014">
        <ele>51.4</ele>
        <time>2020-12-20T10:22:26Z</time>
      </trkpt>
      <trkpt lat="47.831" lon="-1.0013">
        <ele>51.6</ele>
        <time>2020-12-20T10:22:27Z</time>
      </trkpt>
      <trkpt lat="47.83102" lon="-1.00121">
        <ele>51.9</ele>
        <time>2020-12-20T10:22:28Z</time>
      </trkpt>
      <trkpt lat="47.83104" lon="-1.00112">
        <ele>52.1</ele>
        <time>2020-12-20T10:22:29Z</time>
      </trkpt>
      <trkpt lat="47.83106" lon="-1.00103">
        <ele>52.5</ele>
        <time>2020-12-20T10:22:30Z</time>
      </trkpt>
      <trkpt lat="47.83107" lon="-1.00093">
        <ele>52.6</ele>
        <time>2020-12-20T10:22:31Z</time>
      </trkpt>
      <trkpt lat="47.83108" lon="-1.00084">
        <ele>52.8</ele>
        <time>2020-12-20T10:22:32Z</time>
      </trkpt>
      <trkpt lat="47.8311" lon="-1.00076">
        <ele>53.1</ele>
        <time>2020-12-20T10:22:33Z</time>
      </trkpt>
      <trkpt lat="47.83112" lon="-1.00067">
        <ele>53.4</ele>
        <time>2020-12-20T10:22:34Z</time>
      </trkpt>
      <trkpt lat="47.83114" lon="-1.00059">
        <ele>53.6</ele>
        <time>2020-12-20T10:22:35Z</time>
      </trkpt>
      <trkpt lat="47.83116" lon="-1.0005">
        <ele>53.9</ele>
        <time>2020-12-20T10:22:36Z</time>
      </trkpt>
      <trkpt lat="47.83117" lon="-1.00042">
        <ele>53.9</ele>
        <time>2020-12-20T10:22:37Z</time>
      </trkpt>
      <trkpt lat="47.8312" lon="-1.00034">
        <ele>54.3</ele>
        <time>2020-12-20T10:22:38Z</time>
      </trkpt>
      <trkpt lat="47.83122" lon="-1.00026">
        <ele>54.4</ele>
        <time>2020-12-20T10:22:39Z</time>
      </trkpt>
      <trkpt lat="47.83125" lon="-1.00018">
        <ele>54.7</ele>
        <time>2020-12-20T10:22:40Z</time>
      </trkpt>
      <trkpt lat="47.83127" lon="-1.00007">
        <ele>54.8</ele>
        <time>2020-12-20T10:22:41Z</time>
      </trkpt>
      <trkpt lat="47.83128" lon="-0.99998">
        <ele>54.8</ele>
        <time>2020-12-20T10:22:42Z</time>
      </trkpt>
      <trkpt lat="47.83129" lon="-0.99989">
        <ele>54.8</ele>
        <time>2020-12-20T10:22:43Z</time>
      </trkpt>
      <trkpt lat="47.83131" lon="-0.9998">
        <ele>54.9</ele>
        <time>2020-12-20T10:22:44Z</time>
      </trkpt>
      <trkpt lat="47.83132" lon="-0.99971">
        <ele>54.8</ele>
        <time>2020-12-20T10:22:45Z</time>
      </trkpt>
      <trkpt lat="47.83133" lon="-0.99961">
        <ele>54.8</ele>
        <time>2020-12-20T10:22:46Z</time>
      </trkpt>
      <trkpt lat="47.83135" lon="-0.99952">
        <ele>54.9</ele>
        <time>2020-12-20T10:22:47Z</time>
      </trkpt>
      <trkpt lat="47.83137" lon="-0.99943">
        <ele>54.9</ele>
        <time>2020-12-20T10:22:48Z</time>
      </trkpt>
      <trkpt lat="47.83138" lon="-0.99933">
        <ele>54.8</ele>
        <time>2020-12-20T10:22:49Z</time>
      </trkpt>
      <trkpt lat="47.83139" lon="-0.99924">
        <ele>54.8</ele>
        <time>2020-12-20T10:22:50Z</time>
      </trkpt>
      <trkpt lat="47.83142" lon="-0.99914">
        <ele>54.9</ele>
        <time>2020-12-20T10:22:51Z</time>
      </trkpt>
      <trkpt lat="47.83144" lon="-0.99906">
        <ele>55</ele>
        <time>2020-12-20T10:22:52Z</time>
      </trkpt>
      <trkpt lat="47.83147" lon="-0.99897">
        <ele>55.2</ele>
        <time>2020-12-20T10:22:53Z</time>
      </trkpt>
      <trkpt lat="47.83149" lon="-0.99888">
        <ele>55.4</ele>
        <time>2020-12-20T10:22:54Z</time>
      </trkpt>
      <trkpt lat="47.83151" lon="-0.9988">
        <ele>55.5</ele>
        <time>2020-12-20T10:22:55Z</time>
      </trkpt>
      <trkpt lat="47.83154" lon="-0.99871">
        <ele>55.8</ele>
        <time>2020-12-20T10:22:56Z</time>
      </trkpt>
      <trkpt lat="47.83157" lon="-0.99863">
        <ele>56</ele>
        <time>2020-12-20T10:22:57Z</time>
      </trkpt>
      <trkpt lat="47.83159" lon="-0.99855">
        <ele>56.2</ele>
        <time>2020-12-20T10:22:58Z</time>
      </trkpt>
      <trkpt lat="47.83161" lon="-0.99847">
        <ele>56.4</ele>
        <time>2020-12-20T10:22:59Z</time>
      </trkpt>
      <trkpt lat="47.83164" lon="-0.99839">
        <ele>56.7</ele>
        <time>2020-12-20T10:23:00Z</time>
      </trkpt>
      <trkpt lat="47.83166" lon="-0.99831">
        <ele>56.9</ele>
        <time>2020-12-20T10:23:01Z</time>
      </trkpt>
      <trkpt lat="47.83168" lon="-0.99824">
        <ele>57.1</ele>
        <time>2020-12-20T10:23:02Z</time>
      </trkpt>
      <trkpt lat="47.8317" lon="-0.99816">
        <ele>57.3</ele>
        <time>2020-12-20T10:23:03Z</time>
      </trkpt>
      <trkpt lat="47.83172" lon="-0.99808">
        <ele>57.5</ele>
        <time>2020-12-20T10:23:04Z</time>
      </trkpt>
      <trkpt lat="47.83173" lon="-0.99799">
        <ele>57.5</ele>
        <time>2020-12-20T10:23:05Z</time>
      </trkpt>
      <trkpt lat="47.83175" lon="-0.9979">
        <ele>57.6</ele>
        <time>2020-12-20T10:23:06Z</time>
      </trkpt>
      <trkpt lat="47.83177" lon="-0.99781">
        <ele>57.8</ele>
        <time>2020-12-20T10:23:07Z</time>
      </trkpt>
      <trkpt lat="47.83179" lon="-0.99772">
        <ele>57.9</ele>
        <time>2020-12-20T10:23:08Z</time>
      </trkpt>
      <trkpt lat="47.83182" lon="-0.99762">
        <ele>58</ele>
        <time>2020-12-20T10:23:09Z</time>
      </trkpt>
      <trkpt lat="47.83184" lon="-0.99753">
        <ele>58.1</ele>
        <time>2020-12-20T10:23:10Z</time>
      </trkpt>
      <trkpt lat="47.83186" lon="-0.99743">
        <ele>57.9</ele>
        <time>2020-12-20T10:23:11Z</time>
      </trkpt>
      <trkpt lat="47.83188" lon="-0.99733">
        <ele>57.7</ele>
        <time>2020-12-20T10:23:12Z</time>
      </trkpt>
      <trkpt lat="47.83189" lon="-0.99723">
        <ele>57.4</ele>
        <time>2020-12-20T10:23:13Z</time>
      </trkpt>
      <trkpt lat="47.83191" lon="-0.99713">
        <ele>57.1</ele>
        <time>2020-12-20T10:23:14Z</time>
      </trkpt>
      <trkpt lat="47.83194" lon="-0.99703">
        <ele>56.9</ele>
        <time>2020-12-20T10:23:15Z</time>
      </trkpt>
      <trkpt lat="47.83195" lon="-0.99693">
        <ele>56.6</ele>
        <time>2020-12-20T10:23:16Z</time>
      </trkpt>
      <trkpt lat="47.83198" lon="-0.99681">
        <ele>56.4</ele>
        <time>2020-12-20T10:23:17Z</time>
      </trkpt>
      <trkpt lat="47.83199" lon="-0.99673">
        <ele>56.2</ele>
        <time>2020-12-20T10:23:18Z</time>
      </trkpt>
      <trkpt lat="47.83201" lon="-0.99663">
        <ele>56</ele>
        <time>2020-12-20T10:23:19Z</time>
      </trkpt>
      <trkpt lat="47.83202" lon="-0.99654">
        <ele>55.9</ele>
        <time>2020-12-20T10:23:20Z</time>
      </trkpt>
      <trkpt lat="47.83204" lon="-0.99644">
        <ele>55.8</ele>
        <time>2020-12-20T10:23:21Z</time>
      </trkpt>
      <trkpt lat="47.83206" lon="-0.99635">
        <ele>55.8</ele>
        <time>2020-12-20T10:23:22Z</time>
      </trkpt>
      <trkpt lat="47.83208" lon="-0.99625">
        <ele>55.7</ele>
        <time>2020-12-20T10:23:23Z</time>
      </trkpt>
      <trkpt lat="47.8321" lon="-0.99615">
        <ele>55.7</ele>
        <time>2020-12-20T10:23:24Z</time>
      </trkpt>
      <trkpt lat="47.83212" lon="-0.99606">
        <ele>55.7</ele>
        <time>2020-12-20T10:23:25Z</time>
      </trkpt>
      <trkpt lat="47.83214" lon="-0.99596">
        <ele>55.7</ele>
        <time>2020-12-20T10:23:26Z</time>
      </trkpt>
      <trkpt lat="47.83215" lon="-0.99586">
        <ele>55.7</ele>
        <time>2020-12-20T10:23:27Z</time>
      </trkpt>
      <trkpt lat="47.83217" lon="-0.99575">
        <ele>55.5</ele>
        <time>2020-12-20T10:23:28Z</time>
      </trkpt>
      <trkpt lat="47.83219" lon="-0.99566">
        <ele>55.3</ele>
        <time>2020-12-20T10:23:29Z</time>
      </trkpt>
      <trkpt lat="47.83221" lon="-0.99556">
        <ele>55</ele>
        <time>2020-12-20T10:23:30Z</time>
      </trkpt>
      <trkpt lat="47.83223" lon="-0.99547">
        <ele>54.8</ele>
        <time>2020-12-20T10:23:31Z</time>
      </trkpt>
      <trkpt lat="47.83224" lon="-0.99538">
        <ele>54.5</ele>
        <time>2020-12-20T10:23:32Z</time>
      </trkpt>
      <trkpt lat="47.83226" lon="-0.99529">
        <ele>54.3</ele>
        <time>2020-12-20T10:23:33Z</time>
      </trkpt>
      <trkpt lat="47.83227" lon="-0.99519">
        <ele>53.9</ele>
        <time>2020-12-20T10:23:34Z</time>
      </trkpt>
      <trkpt lat="47.8323" lon="-0.9951">
        <ele>53.8</ele>
        <time>2020-12-20T10:23:35Z</time>
      </trkpt>
      <trkpt lat="47.83232" lon="-0.995">
        <ele>53.5</ele>
        <time>2020-12-20T10:23:36Z</time>
      </trkpt>
      <trkpt lat="47.83234" lon="-0.99491">
        <ele>53.4</ele>
        <time>2020-12-20T10:23:37Z</time>
      </trkpt>
      <trkpt lat="47.83236" lon="-0.99482">
        <ele>53.4</ele>
        <time>2020-12-20T10:23:38Z</time>
      </trkpt>
      <trkpt lat="47.83239" lon="-0.99471">
        <ele>53.3</ele>
        <time>2020-12-20T10:23:39Z</time>
      </trkpt>
      <trkpt lat="47.8324" lon="-0.99463">
        <ele>53.2</ele>
        <time>2020-12-20T10:23:40Z</time>
      </trkpt>
      <trkpt lat="47.83242" lon="-0.99454">
        <ele>53.2</ele>
        <time>2020-12-20T10:23:41Z</time>
      </trkpt>
      <trkpt lat="47.83244" lon="-0.99445">
        <ele>53.1</ele>
        <time>2020-12-20T10:23:42Z</time>
      </trkpt>
      <trkpt lat="47.83246" lon="-0.99435">
        <ele>53.1</ele>
        <time>2020-12-20T10:23:43Z</time>
      </trkpt>
      <trkpt lat="47.83249" lon="-0.99426">
        <ele>53.1</ele>
        <time>2020-12-20T10:23:44Z</time>
      </trkpt>
      <trkpt lat="47.83251" lon="-0.99417">
        <ele>53.1</ele>
        <time>2020-12-20T10:23:45Z</time>
      </trkpt>
      <trkpt lat="47.83253" lon="-0.99408">
        <ele>52.8</ele>
        <time>2020-12-20T10:23:46Z</time>
      </trkpt>
      <trkpt lat="47.83255" lon="-0.99398">
        <ele>52.6</ele>
        <time>2020-12-20T10:23:47Z</time>
      </trkpt>
      <trkpt lat="47.83257" lon="-0.99389">
        <ele>52.3</ele>
        <time>2020-12-20T10:23:48Z</time>
      </trkpt>
      <trkpt lat="47.83259" lon="-0.9938">
        <ele>52.1</ele>
        <time>2020-12-20T10:23:49Z</time>
      </trkpt>
      <trkpt lat="47.8326" lon="-0.99372">
        <ele>51.9</ele>
        <time>2020-12-20T10:23:50Z</time>
      </trkpt>
      <trkpt lat="47.83262" lon="-0.99364">
        <ele>51.7</ele>
        <time>2020-12-20T10:23:51Z</time>
      </trkpt>
      <trkpt lat="47.83264" lon="-0.99356">
        <ele>51.5</ele>
        <time>2020-12-20T10:23:52Z</time>
      </trkpt>
      <trkpt lat="47.83265" lon="-0.99348">
        <ele>51.2</ele>
        <time>2020-12-20T10:23:53Z</time>
      </trkpt>
      <trkpt lat="47.83267" lon="-0.9934">
        <ele>51.1</ele>
        <time>2020-12-20T10:23:54Z</time>
      </trkpt>
      <trkpt lat="47.83268" lon="-0.99333">
        <ele>50.9</ele>
        <time>2020-12-20T10:23:55Z</time>
      </trkpt>
      <trkpt lat="47.8327" lon="-0.99325">
        <ele>50.7</ele>
        <time>2020-12-20T10:23:56Z</time>
      </trkpt>
      <trkpt lat="47.83272" lon="-0.99317">
        <ele>50.5</ele>
        <time>2020-12-20T10:23:57Z</time>
      </trkpt>
      <trkpt lat="47.83274" lon="-0.99309">
        <ele>50.2</ele>
        <time>2020-12-20T10:23:58Z</time>
      </trkpt>
      <trkpt lat="47.83276" lon="-0.99298">
        <ele>49.9</ele>
        <time>2020-12-20T10:23:59Z</time>
      </trkpt>
      <trkpt lat="47.83277" lon="-0.99291">
        <ele>49.6</ele>
        <time>2020-12-20T10:24:00Z</time>
      </trkpt>
      <trkpt lat="47.83279" lon="-0.99282">
        <ele>49.3</ele>
        <time>2020-12-20T10:24:01Z</time>
      </trkpt>
      <trkpt lat="47.83282" lon="-0.99273">
        <ele>49</ele>
        <time>2020-12-20T10:24:02Z</time>
      </trkpt>
      <trkpt lat="47.83285" lon="-0.99265">
        <ele>48.7</ele>
        <time>2020-12-20T10:24:03Z</time>
      </trkpt>
      <trkpt lat="47.83288" lon="-0.99258">
        <ele>48.4</ele>
        <time>2020-12-20T10:24:04Z</time>
      </trkpt>
      <trkpt lat="47.83291" lon="-0.99253">
        <ele>48.1</ele>
        <time>2020-12-20T10:24:05Z</time>
      </trkpt>
      <trkpt lat="47.83295" lon="-0.99247">
        <ele>47.8</ele>
        <time>2020-12-20T10:24:06Z</time>
      </trkpt>
      <trkpt lat="47.83298" lon="-0.9924">
        <ele>47.5</ele>
        <time>2020-12-20T10:24:07Z</time>
      </trkpt>
      <trkpt lat="47.833" lon="-0.99232">
        <ele>47</ele>
        <time>2020-12-20T10:24:08Z</time>
      </trkpt>
      <trkpt lat="47.83302" lon="-0.99224">
        <ele>46.6</ele>
        <time>2020-12-20T10:24:09Z</time>
      </trkpt>
      <trkpt lat="47.83305" lon="-0.99215">
        <ele>46</ele>
        <time>2020-12-20T10:24:10Z</time>
      </trkpt>
      <trkpt lat="47.83307" lon="-0.99207">
        <ele>45.6</ele>
        <time>2020-12-20T10:24:11Z</time>
      </trkpt>
      <trkpt lat="47.8331" lon="-0.99198">
        <ele>45.1</ele>
        <time>2020-12-20T10:24:12Z</time>
      </trkpt>
      <trkpt lat="47.83312" lon="-0.99189">
        <ele>44.5</ele>
        <time>2020-12-20T10:24:13Z</time>
      </trkpt>
      <trkpt lat="47.83315" lon="-0.9918">
        <ele>44</ele>
        <time>2020-12-20T10:24:14Z</time>
      </trkpt>
      <trkpt lat="47.83317" lon="-0.99173">
        <ele>43.6</ele>
        <time>2020-12-20T10:24:15Z</time>
      </trkpt>
      <trkpt lat="47.83319" lon="-0.99166">
        <ele>43.2</ele>
        <time>2020-12-20T10:24:16Z</time>
      </trkpt>
      <trkpt lat="47.83321" lon="-0.99161">
        <ele>43.2</ele>
        <time>2020-12-20T10:24:17Z</time>
      </trkpt>
      <trkpt lat="47.83322" lon="-0.99154">
        <ele>43.3</ele>
        <time>2020-12-20T10:24:18Z</time>
      </trkpt>
      <trkpt lat="47.83324" lon="-0.99146">
        <ele>43.5</ele>
        <time>2020-12-20T10:24:19Z</time>
      </trkpt>
      <trkpt lat="47.83326" lon="-0.99138">
        <ele>43.6</ele>
        <time>2020-12-20T10:24:20Z</time>
      </trkpt>
      <trkpt lat="47.83329" lon="-0.9913">
        <ele>43.8</ele>
        <time>2020-12-20T10:24:21Z</time>
      </trkpt>
      <trkpt lat="47.83332" lon="-0.9912">
        <ele>44.1</ele>
        <time>2020-12-20T10:24:22Z</time>
      </trkpt>
      <trkpt lat="47.83334" lon="-0.99111">
        <ele>44.3</ele>
        <time>2020-12-20T10:24:23Z</time>
      </trkpt>
      <trkpt lat="47.83337" lon="-0.99103">
        <ele>44.5</ele>
        <time>2020-12-20T10:24:24Z</time>
      </trkpt>
      <trkpt lat="47.83342" lon="-0.99095">
        <ele>44.6</ele>
        <time>2020-12-20T10:24:25Z</time>
      </trkpt>
      <trkpt lat="47.83348" lon="-0.99089">
        <ele>44.7</ele>
        <time>2020-12-20T10:24:26Z</time>
      </trkpt>
      <trkpt lat="47.83355" lon="-0.99085">
        <ele>44.7</ele>
        <time>2020-12-20T10:24:27Z</time>
      </trkpt>
      <trkpt lat="47.83362" lon="-0.99083">
        <ele>44.7</ele>
        <time>2020-12-20T10:24:28Z</time>
      </trkpt>
      <trkpt lat="47.83368" lon="-0.99082">
        <ele>44.6</ele>
        <time>2020-12-20T10:24:29Z</time>
      </trkpt>
      <trkpt lat="47.83376" lon="-0.9908">
        <ele>44.7</ele>
        <time>2020-12-20T10:24:30Z</time>
      </trkpt>
      <trkpt lat="47.83381" lon="-0.9908">
        <ele>44.6</ele>
        <time>2020-12-20T10:24:31Z</time>
      </trkpt>
      <trkpt lat="47.83387" lon="-0.99078">
        <ele>44.7</ele>
        <time>2020-12-20T10:24:32Z</time>
      </trkpt>
      <trkpt lat="47.83392" lon="-0.99078">
        <ele>44.6</ele>
        <time>2020-12-20T10:24:33Z</time>
      </trkpt>
      <trkpt lat="47.83396" lon="-0.99078">
        <ele>44.6</ele>
        <time>2020-12-20T10:24:34Z</time>
      </trkpt>
      <trkpt lat="47.834" lon="-0.99077">
        <ele>44.6</ele>
        <time>2020-12-20T10:24:35Z</time>
      </trkpt>
      <trkpt lat="47.83403" lon="-0.99077">
        <ele>44.6</ele>
        <time>2020-12-20T10:24:36Z</time>
      </trkpt>
      <trkpt lat="47.83406" lon="-0.99076">
        <ele>44.7</ele>
        <time>2020-12-20T10:24:37Z</time>
      </trkpt>
      <trkpt lat="47.83408" lon="-0.99074">
        <ele>44.8</ele>
        <time>2020-12-20T10:24:38Z</time>
      </trkpt>
      <trkpt lat="47.83409" lon="-0.99072">
        <ele>45</ele>
        <time>2020-12-20T10:24:39Z</time>
      </trkpt>
      <trkpt lat="47.83412" lon="-0.99071">
        <ele>45</ele>
        <time>2020-12-20T10:24:40Z</time>
      </trkpt>
      <trkpt lat="47.83415" lon="-0.99072">
        <ele>45</ele>
        <time>2020-12-20T10:24:41Z</time>
      </trkpt>
      <trkpt lat="47.83417" lon="-0.99072">
        <ele>45</ele>
        <time>2020-12-20T10:24:42Z</time>
      </trkpt>
      <trkpt lat="47.8342" lon="-0.99072">
        <ele>45.3</ele>
        <time>2020-12-20T10:24:43Z</time>
      </trkpt>
      <trkpt lat="47.83422" lon="-0.99071">
        <ele>45.7</ele>
        <time>2020-12-20T10:24:44Z</time>
      </trkpt>
      <trkpt lat="47.83424" lon="-0.9907">
        <ele>46</ele>
        <time>2020-12-20T10:24:45Z</time>
      </trkpt>
      <trkpt lat="47.83427" lon="-0.9907">
        <ele>46.3</ele>
        <time>2020-12-20T10:24:46Z</time>
      </trkpt>
      <trkpt lat="47.83428" lon="-0.9907">
        <ele>46.4</ele>
        <time>2020-12-20T10:24:47Z</time>
      </trkpt>
      <trkpt lat="47.8343" lon="-0.99071">
        <ele>46.6</ele>
        <time>2020-12-20T10:24:48Z</time>
      </trkpt>
      <trkpt lat="47.83431" lon="-0.99072">
        <ele>46.6</ele>
        <time>2020-12-20T10:24:49Z</time>
      </trkpt>
      <trkpt lat="47.83432" lon="-0.99072">
        <ele>46.7</ele>
        <time>2020-12-20T10:24:50Z</time>
      </trkpt>
      <trkpt lat="47.83434" lon="-0.99071">
        <ele>47.1</ele>
        <time>2020-12-20T10:24:51Z</time>
      </trkpt>
      <trkpt lat="47.83436" lon="-0.99071">
        <ele>47.3</ele>
        <time>2020-12-20T10:24:52Z</time>
      </trkpt>
      <trkpt lat="47.83438" lon="-0.9907">
        <ele>47.6</ele>
        <time>2020-12-20T10:24:53Z</time>
      </trkpt>
      <trkpt lat="47.8344" lon="-0.99071">
        <ele>47.8</ele>
        <time>2020-12-20T10:24:54Z</time>
      </trkpt>
      <trkpt lat="47.83441" lon="-0.99071">
        <ele>47.9</ele>
        <time>2020-12-20T10:24:55Z</time>
      </trkpt>
      <trkpt lat="47.83443" lon="-0.99072">
        <ele>48</ele>
        <time>2020-12-20T10:24:56Z</time>
      </trkpt>
      <trkpt lat="47.83444" lon="-0.99072">
        <ele>48.1</ele>
        <time>2020-12-20T10:24:57Z</time>
      </trkpt>
      <trkpt lat="47.83446" lon="-0.99073">
        <ele>48.3</ele>
        <time>2020-12-20T10:24:58Z</time>
      </trkpt>
      <trkpt lat="47.83449" lon="-0.99074">
        <ele>48.6</ele>
        <time>2020-12-20T10:24:59Z</time>
      </trkpt>
      <trkpt lat="47.83451" lon="-0.99075">
        <ele>48.7</ele>
        <time>2020-12-20T10:25:00Z</time>
      </trkpt>
      <trkpt lat="47.83453" lon="-0.99076">
        <ele>48.9</ele>
        <time>2020-12-20T10:25:01Z</time>
      </trkpt>
      <trkpt lat="47.83456" lon="-0.99078">
        <ele>49.1</ele>
        <time>2020-12-20T10:25:02Z</time>
      </trkpt>
      <trkpt lat="47.83459" lon="-0.99079">
        <ele>49.4</ele>
        <time>2020-12-20T10:25:03Z</time>
      </trkpt>
      <trkpt lat="47.83461" lon="-0.99081">
        <ele>49.5</ele>
        <time>2020-12-20T10:25:04Z</time>
      </trkpt>
      <trkpt lat="47.83463" lon="-0.99082">
        <ele>49.7</ele>
        <time>2020-12-20T10:25:05Z</time>
      </trkpt>
      <trkpt lat="47.83464" lon="-0.99082">
        <ele>49.8</ele>
        <time>2020-12-20T10:25:06Z</time>
      </trkpt>
      <trkpt lat="47.83466" lon="-0.99083">
        <ele>49.9</ele>
        <time>2020-12-20T10:25:07Z</time>
      </trkpt>
      <trkpt lat="47.83467" lon="-0.99083">
        <ele>50.1</ele>
        <time>2020-12-20T10:25:08Z</time>
      </trkpt>
      <trkpt lat="47.83469" lon="-0.99082">
        <ele>50.4</ele>
        <time>2020-12-20T10:25:09Z</time>
      </trkpt>
      <trkpt lat="47.8347" lon="-0.99081">
        <ele>50.6</ele>
        <time>2020-12-20T10:25:10Z</time>
      </trkpt>
      <trkpt lat="47.83469" lon="-0.99079">
        <ele>50.6</ele>
        <time>2020-12-20T10:25:11Z</time>
      </trkpt>
      <trkpt lat="47.83467" lon="-0.99076">
        <ele>50.5</ele>
        <time>2020-12-20T10:25:12Z</time>
      </trkpt>
      <trkpt lat="47.83464" lon="-0.99075">
        <ele>50.3</ele>
        <time>2020-12-20T10:25:13Z</time>
      </trkpt>
      <trkpt lat="47.83461" lon="-0.99072">
        <ele>50.1</ele>
        <time>2020-12-20T10:25:14Z</time>
      </trkpt>
      <trkpt lat="47.83458" lon="-0.9907">
        <ele>49.9</ele>
        <time>2020-12-20T10:25:15Z</time>
      </trkpt>
      <trkpt lat="47.83454" lon="-0.99067">
        <ele>49.7</ele>
        <time>2020-12-20T10:25:16Z</time>
      </trkpt>
      <trkpt lat="47.83449" lon="-0.99064">
        <ele>49.3</ele>
        <time>2020-12-20T10:25:17Z</time>
      </trkpt>
      <trkpt lat="47.83445" lon="-0.9906">
        <ele>49.2</ele>
        <time>2020-12-20T10:25:18Z</time>
      </trkpt>
      <trkpt lat="47.8344" lon="-0.99056">
        <ele>48.9</ele>
        <time>2020-12-20T10:25:19Z</time>
      </trkpt>
      <trkpt lat="47.83436" lon="-0.99051">
        <ele>48.9</ele>
        <time>2020-12-20T10:25:20Z</time>
      </trkpt>
      <trkpt lat="47.83432" lon="-0.99046">
        <ele>48.8</ele>
        <time>2020-12-20T10:25:21Z</time>
      </trkpt>
      <trkpt lat="47.83429" lon="-0.9904">
        <ele>49</ele>
        <time>2020-12-20T10:25:22Z</time>
      </trkpt>
      <trkpt lat="47.83426" lon="-0.99034">
        <ele>49.1</ele>
        <time>2020-12-20T10:25:23Z</time>
      </trkpt>
      <trkpt lat="47.83423" lon="-0.99028">
        <ele>49.3</ele>
        <time>2020-12-20T10:25:24Z</time>
      </trkpt>
      <trkpt lat="47.83421" lon="-0.99022">
        <ele>49.6</ele>
        <time>2020-12-20T10:25:25Z</time>
      </trkpt>
      <trkpt lat="47.83419" lon="-0.99016">
        <ele>49.9</ele>
        <time>2020-12-20T10:25:26Z</time>
      </trkpt>
      <trkpt lat="47.83416" lon="-0.99009">
        <ele>50.2</ele>
        <time>2020-12-20T10:25:27Z</time>
      </trkpt>
      <trkpt lat="47.83413" lon="-0.99003">
        <ele>50.5</ele>
        <time>2020-12-20T10:25:28Z</time>
      </trkpt>
      <trkpt lat="47.83411" lon="-0.98998">
        <ele>50.7</ele>
        <time>2020-12-20T10:25:29Z</time>
      </trkpt>
      <trkpt lat="47.83409" lon="-0.98992">
        <ele>50.8</ele>
        <time>2020-12-20T10:25:30Z</time>
      </trkpt>
      <trkpt lat="47.83407" lon="-0.98988">
        <ele>50.8</ele>
        <time>2020-12-20T10:25:31Z</time>
      </trkpt>
      <trkpt lat="47.83404" lon="-0.98982">
        <ele>50.9</ele>
        <time>2020-12-20T10:25:32Z</time>
      </trkpt>
      <trkpt lat="47.83402" lon="-0.98976">
        <ele>50.9</ele>
        <time>2020-12-20T10:25:33Z</time>
      </trkpt>
      <trkpt lat="47.83399" lon="-0.9897">
        <ele>50.9</ele>
        <time>2020-12-20T10:25:34Z</time>
      </trkpt>
      <trkpt lat="47.83396" lon="-0.98963">
        <ele>51</ele>
        <time>2020-12-20T10:25:35Z</time>
      </trkpt>
      <trkpt lat="47.83393" lon="-0.98957">
        <ele>51</ele>
        <time>2020-12-20T10:25:36Z</time>
      </trkpt>
      <trkpt lat="47.8339" lon="-0.98951">
        <ele>51</ele>
        <time>2020-12-20T10:25:37Z</time>
      </trkpt>
      <trkpt lat="47.83387" lon="-0.98945">
        <ele>51</ele>
        <time>2020-12-20T10:25:38Z</time>
      </trkpt>
      <trkpt lat="47.83385" lon="-0.98938">
        <ele>51</ele>
        <time>2020-12-20T10:25:39Z</time>
      </trkpt>
      <trkpt lat="47.83382" lon="-0.98932">
        <ele>51</ele>
        <time>2020-12-20T10:25:40Z</time>
      </trkpt>
      <trkpt lat="47.83379" lon="-0.98927">
        <ele>51</ele>
        <time>2020-12-20T10:25:41Z</time>
      </trkpt>
      <trkpt lat="47.83376" lon="-0.98921">
        <ele>50.9</ele>
        <time>2020-12-20T10:25:42Z</time>
      </trkpt>
      <trkpt lat="47.83374" lon="-0.98916">
        <ele>50.9</ele>
        <time>2020-12-20T10:25:43Z</time>
      </trkpt>
      <trkpt lat="47.83371" lon="-0.9891">
        <ele>50.7</ele>
        <time>2020-12-20T10:25:44Z</time>
      </trkpt>
      <trkpt lat="47.83368" lon="-0.98905">
        <ele>50.5</ele>
        <time>2020-12-20T10:25:45Z</time>
      </trkpt>
      <trkpt lat="47.83366" lon="-0.98899">
        <ele>50.4</ele>
        <time>2020-12-20T10:25:46Z</time>
      </trkpt>
      <trkpt lat="47.83365" lon="-0.98892">
        <ele>50.3</ele>
        <time>2020-12-20T10:25:47Z</time>
      </trkpt>
      <trkpt lat="47.83366" lon="-0.98884">
        <ele>50.4</ele>
        <time>2020-12-20T10:25:48Z</time>
      </trkpt>
      <trkpt lat="47.83367" lon="-0.98876">
        <ele>50.4</ele>
        <time>2020-12-20T10:25:49Z</time>
      </trkpt>
      <trkpt lat="47.83369" lon="-0.98869">
        <ele>50.6</ele>
        <time>2020-12-20T10:25:50Z</time>
      </trkpt>
      <trkpt lat="47.83371" lon="-0.98861">
        <ele>50.7</ele>
        <time>2020-12-20T10:25:51Z</time>
      </trkpt>
      <trkpt lat="47.83372" lon="-0.98852">
        <ele>50.8</ele>
        <time>2020-12-20T10:25:52Z</time>
      </trkpt>
      <trkpt lat="47.83374" lon="-0.98845">
        <ele>50.9</ele>
        <time>2020-12-20T10:25:53Z</time>
      </trkpt>
      <trkpt lat="47.83376" lon="-0.98836">
        <ele>51.1</ele>
        <time>2020-12-20T10:25:54Z</time>
      </trkpt>
      <trkpt lat="47.83377" lon="-0.98828">
        <ele>51.1</ele>
        <time>2020-12-20T10:25:55Z</time>
      </trkpt>
      <trkpt lat="47.83378" lon="-0.98819">
        <ele>51.2</ele>
        <time>2020-12-20T10:25:56Z</time>
      </trkpt>
      <trkpt lat="47.8338" lon="-0.9881">
        <ele>51.4</ele>
        <time>2020-12-20T10:25:57Z</time>
      </trkpt>
      <trkpt lat="47.83381" lon="-0.98802">
        <ele>51.4</ele>
        <time>2020-12-20T10:25:58Z</time>
      </trkpt>
      <trkpt lat="47.83383" lon="-0.98793">
        <ele>51.6</ele>
        <time>2020-12-20T10:25:59Z</time>
      </trkpt>
      <trkpt lat="47.83385" lon="-0.98785">
        <ele>51.7</ele>
        <time>2020-12-20T10:26:00Z</time>
      </trkpt>
      <trkpt lat="47.83386" lon="-0.98776">
        <ele>51.8</ele>
        <time>2020-12-20T10:26:01Z</time>
      </trkpt>
      <trkpt lat="47.83388" lon="-0.98766">
        <ele>51.9</ele>
        <time>2020-12-20T10:26:02Z</time>
      </trkpt>
      <trkpt lat="47.83389" lon="-0.98759">
        <ele>52</ele>
        <time>2020-12-20T10:26:03Z</time>
      </trkpt>
      <trkpt lat="47.83391" lon="-0.98749">
        <ele>52.2</ele>
        <time>2020-12-20T10:26:04Z</time>
      </trkpt>
      <trkpt lat="47.83392" lon="-0.98743">
        <ele>52.3</ele>
        <time>2020-12-20T10:26:05Z</time>
      </trkpt>
      <trkpt lat="47.83394" lon="-0.98734">
        <ele>52.5</ele>
        <time>2020-12-20T10:26:06Z</time>
      </trkpt>
      <trkpt lat="47.83395" lon="-0.98726">
        <ele>52.7</ele>
        <time>2020-12-20T10:26:07Z</time>
      </trkpt>
      <trkpt lat="47.83396" lon="-0.98717">
        <ele>52.8</ele>
        <time>2020-12-20T10:26:08Z</time>
      </trkpt>
      <trkpt lat="47.83397" lon="-0.98709">
        <ele>53</ele>
        <time>2020-12-20T10:26:09Z</time>
      </trkpt>
      <trkpt lat="47.83398" lon="-0.98701">
        <ele>53.1</ele>
        <time>2020-12-20T10:26:10Z</time>
      </trkpt>
      <trkpt lat="47.83399" lon="-0.98692">
        <ele>53.3</ele>
        <time>2020-12-20T10:26:11Z</time>
      </trkpt>
      <trkpt lat="47.834" lon="-0.98683">
        <ele>53.4</ele>
        <time>2020-12-20T10:26:12Z</time>
      </trkpt>
      <trkpt lat="47.83401" lon="-0.98674">
        <ele>53.6</ele>
        <time>2020-12-20T10:26:13Z</time>
      </trkpt>
      <trkpt lat="47.83402" lon="-0.98666">
        <ele>53.8</ele>
        <time>2020-12-20T10:26:14Z</time>
      </trkpt>
      <trkpt lat="47.83403" lon="-0.98657">
        <ele>53.8</ele>
        <time>2020-12-20T10:26:15Z</time>
      </trkpt>
      <trkpt lat="47.83404" lon="-0.98647">
        <ele>53.7</ele>
        <time>2020-12-20T10:26:16Z</time>
      </trkpt>
      <trkpt lat="47.83404" lon="-0.9864">
        <ele>53.7</ele>
        <time>2020-12-20T10:26:17Z</time>
      </trkpt>
      <trkpt lat="47.83405" lon="-0.98632">
        <ele>53.7</ele>
        <time>2020-12-20T10:26:18Z</time>
      </trkpt>
      <trkpt lat="47.83406" lon="-0.98623">
        <ele>53.6</ele>
        <time>2020-12-20T10:26:19Z</time>
      </trkpt>
      <trkpt lat="47.83407" lon="-0.98614">
        <ele>53.6</ele>
        <time>2020-12-20T10:26:20Z</time>
      </trkpt>
      <trkpt lat="47.83407" lon="-0.98604">
        <ele>53.5</ele>
        <time>2020-12-20T10:26:21Z</time>
      </trkpt>
      <trkpt lat="47.83407" lon="-0.98595">
        <ele>53.4</ele>
        <time>2020-12-20T10:26:22Z</time>
      </trkpt>
      <trkpt lat="47.83405" lon="-0.98586">
        <ele>53.2</ele>
        <time>2020-12-20T10:26:23Z</time>
      </trkpt>
      <trkpt lat="47.83404" lon="-0.98574">
        <ele>53</ele>
        <time>2020-12-20T10:26:24Z</time>
      </trkpt>
      <trkpt lat="47.83403" lon="-0.98567">
        <ele>52.9</ele>
        <time>2020-12-20T10:26:25Z</time>
      </trkpt>
      <trkpt lat="47.83402" lon="-0.98558">
        <ele>52.7</ele>
        <time>2020-12-20T10:26:26Z</time>
      </trkpt>
      <trkpt lat="47.83403" lon="-0.98547">
        <ele>52.7</ele>
        <time>2020-12-20T10:26:27Z</time>
      </trkpt>
      <trkpt lat="47.83403" lon="-0.98547">
        <ele>52.7</ele>
        <time>2020-12-20T10:26:28Z</time>
      </trkpt>
      <trkpt lat="47.83403" lon="-0.98547">
        <ele>52.7</ele>
        <time>2020-12-20T10:26:29Z</time>
      </trkpt>
      <trkpt lat="47.83403" lon="-0.98547">
        <ele>52.7</ele>
        <time>2020-12-20T10:26:30Z</time>
      </trkpt>
      <trkpt lat="47.83403" lon="-0.98547">
        <ele>52.7</ele>
        <time>2020-12-20T10:26:31Z</time>
      </trkpt>
      <trkpt lat="47.83403" lon="-0.98547">
        <ele>52.7</ele>
        <time>2020-12-20T10:26:32Z</time>
      </trkpt>
      <trkpt lat="47.83403" lon="-0.98547">
        <ele>52.7</ele>
        <time>2020-12-20T10:26:33Z</time>
      </trkpt>
      <trkpt lat="47.83403" lon="-0.98547">
        <ele>52.7</ele>
        <time>2020-12-20T10:26:34Z</time>
      </trkpt>
      <trkpt lat="47.834" lon="-0.98485">
        <ele>52.3</ele>
        <time>2020-12-20T10:26:35Z</time>
      </trkpt>
      <trkpt lat="47.83403" lon="-0.98479">
        <ele>52.6</ele>
        <time>2020-12-20T10:26:36Z</time>
      </trkpt>
      <trkpt lat="47.83405" lon="-0.98473">
        <ele>52.8</ele>
        <time>2020-12-20T10:26:37Z</time>
      </trkpt>
      <trkpt lat="47.83408" lon="-0.98465">
        <ele>53</ele>
        <time>2020-12-20T10:26:38Z</time>
      </trkpt>
      <trkpt lat="47.83409" lon="-0.98455">
        <ele>53.2</ele>
        <time>2020-12-20T10:26:39Z</time>
      </trkpt>
      <trkpt lat="47.8341" lon="-0.98447">
        <ele>53.4</ele>
        <time>2020-12-20T10:26:40Z</time>
      </trkpt>
      <trkpt lat="47.83411" lon="-0.98435">
        <ele>53.6</ele>
        <time>2020-12-20T10:26:41Z</time>
      </trkpt>
      <trkpt lat="47.83411" lon="-0.98425">
        <ele>53.7</ele>
        <time>2020-12-20T10:26:42Z</time>
      </trkpt>
      <trkpt lat="47.83411" lon="-0.98415">
        <ele>53.9</ele>
        <time>2020-12-20T10:26:43Z</time>
      </trkpt>
      <trkpt lat="47.83411" lon="-0.98405">
        <ele>54.4</ele>
        <time>2020-12-20T10:26:44Z</time>
      </trkpt>
      <trkpt lat="47.8341" lon="-0.98396">
        <ele>54.9</ele>
        <time>2020-12-20T10:26:45Z</time>
      </trkpt>
      <trkpt lat="47.8341" lon="-0.98386">
        <ele>55.3</ele>
        <time>2020-12-20T10:26:46Z</time>
      </trkpt>
      <trkpt lat="47.83408" lon="-0.98376">
        <ele>55.8</ele>
        <time>2020-12-20T10:26:47Z</time>
      </trkpt>
      <trkpt lat="47.83407" lon="-0.98367">
        <ele>56.2</ele>
        <time>2020-12-20T10:26:48Z</time>
      </trkpt>
      <trkpt lat="47.83406" lon="-0.98358">
        <ele>56.7</ele>
        <time>2020-12-20T10:26:49Z</time>
      </trkpt>
      <trkpt lat="47.83406" lon="-0.98348">
        <ele>57.1</ele>
        <time>2020-12-20T10:26:50Z</time>
      </trkpt>
      <trkpt lat="47.83405" lon="-0.9834">
        <ele>57.5</ele>
        <time>2020-12-20T10:26:51Z</time>
      </trkpt>
      <trkpt lat="47.83404" lon="-0.98331">
        <ele>57.9</ele>
        <time>2020-12-20T10:26:52Z</time>
      </trkpt>
      <trkpt lat="47.83403" lon="-0.98323">
        <ele>58</ele>
        <time>2020-12-20T10:26:53Z</time>
      </trkpt>
      <trkpt lat="47.83403" lon="-0.98315">
        <ele>58.1</ele>
        <time>2020-12-20T10:26:54Z</time>
      </trkpt>
      <trkpt lat="47.83402" lon="-0.98308">
        <ele>58.2</ele>
        <time>2020-12-20T10:26:55Z</time>
      </trkpt>
      <trkpt lat="47.83402" lon="-0.983">
        <ele>58.4</ele>
        <time>2020-12-20T10:26:56Z</time>
      </trkpt>
      <trkpt lat="47.83402" lon="-0.98291">
        <ele>58.5</ele>
        <time>2020-12-20T10:26:57Z</time>
      </trkpt>
      <trkpt lat="47.83402" lon="-0.98285">
        <ele>58.6</ele>
        <time>2020-12-20T10:26:58Z</time>
      </trkpt>
      <trkpt lat="47.83401" lon="-0.98276">
        <ele>58.8</ele>
        <time>2020-12-20T10:26:59Z</time>
      </trkpt>
      <trkpt lat="47.834" lon="-0.98268">
        <ele>58.9</ele>
        <time>2020-12-20T10:27:00Z</time>
      </trkpt>
      <trkpt lat="47.834" lon="-0.98261">
        <ele>59</ele>
        <time>2020-12-20T10:27:01Z</time>
      </trkpt>
      <trkpt lat="47.83399" lon="-0.98254">
        <ele>59.1</ele>
        <time>2020-12-20T10:27:02Z</time>
      </trkpt>
      <trkpt lat="47.83399" lon="-0.98246">
        <ele>59.3</ele>
        <time>2020-12-20T10:27:03Z</time>
      </trkpt>
      <trkpt lat="47.83398" lon="-0.98236">
        <ele>59.5</ele>
        <time>2020-12-20T10:27:04Z</time>
      </trkpt>
      <trkpt lat="47.83397" lon="-0.98227">
        <ele>59.7</ele>
        <time>2020-12-20T10:27:05Z</time>
      </trkpt>
      <trkpt lat="47.83397" lon="-0.98219">
        <ele>59.9</ele>
        <time>2020-12-20T10:27:06Z</time>
      </trkpt>
      <trkpt lat="47.83396" lon="-0.98211">
        <ele>60.1</ele>
        <time>2020-12-20T10:27:07Z</time>
      </trkpt>
      <trkpt lat="47.83395" lon="-0.98203">
        <ele>60.2</ele>
        <time>2020-12-20T10:27:08Z</time>
      </trkpt>
      <trkpt lat="47.83395" lon="-0.98197">
        <ele>60.4</ele>
        <time>2020-12-20T10:27:09Z</time>
      </trkpt>
      <trkpt lat="47.83393" lon="-0.98189">
        <ele>60.5</ele>
        <time>2020-12-20T10:27:10Z</time>
      </trkpt>
      <trkpt lat="47.83392" lon="-0.98181">
        <ele>60.7</ele>
        <time>2020-12-20T10:27:11Z</time>
      </trkpt>
      <trkpt lat="47.83391" lon="-0.98174">
        <ele>60.9</ele>
        <time>2020-12-20T10:27:12Z</time>
      </trkpt>
      <trkpt lat="47.8339" lon="-0.98164">
        <ele>61.1</ele>
        <time>2020-12-20T10:27:13Z</time>
      </trkpt>
      <trkpt lat="47.8339" lon="-0.98156">
        <ele>61.2</ele>
        <time>2020-12-20T10:27:14Z</time>
      </trkpt>
      <trkpt lat="47.83389" lon="-0.98148">
        <ele>61.4</ele>
        <time>2020-12-20T10:27:15Z</time>
      </trkpt>
      <trkpt lat="47.83389" lon="-0.9814">
        <ele>61.5</ele>
        <time>2020-12-20T10:27:16Z</time>
      </trkpt>
      <trkpt lat="47.83388" lon="-0.98132">
        <ele>61.7</ele>
        <time>2020-12-20T10:27:17Z</time>
      </trkpt>
      <trkpt lat="47.83388" lon="-0.98124">
        <ele>61.8</ele>
        <time>2020-12-20T10:27:18Z</time>
      </trkpt>
      <trkpt lat="47.83388" lon="-0.98117">
        <ele>62</ele>
        <time>2020-12-20T10:27:19Z</time>
      </trkpt>
      <trkpt lat="47.83387" lon="-0.98109">
        <ele>62.1</ele>
        <time>2020-12-20T10:27:20Z</time>
      </trkpt>
      <trkpt lat="47.83386" lon="-0.98103">
        <ele>62.2</ele>
        <time>2020-12-20T10:27:21Z</time>
      </trkpt>
      <trkpt lat="47.83385" lon="-0.98095">
        <ele>62.4</ele>
        <time>2020-12-20T10:27:22Z</time>
      </trkpt>
      <trkpt lat="47.83385" lon="-0.98087">
        <ele>62.5</ele>
        <time>2020-12-20T10:27:23Z</time>
      </trkpt>
      <trkpt lat="47.83384" lon="-0.9808">
        <ele>62.6</ele>
        <time>2020-12-20T10:27:24Z</time>
      </trkpt>
      <trkpt lat="47.83383" lon="-0.98072">
        <ele>62.7</ele>
        <time>2020-12-20T10:27:25Z</time>
      </trkpt>
      <trkpt lat="47.83382" lon="-0.98064">
        <ele>62.7</ele>
        <time>2020-12-20T10:27:26Z</time>
      </trkpt>
      <trkpt lat="47.83381" lon="-0.98056">
        <ele>62.8</ele>
        <time>2020-12-20T10:27:27Z</time>
      </trkpt>
      <trkpt lat="47.8338" lon="-0.98049">
        <ele>62.8</ele>
        <time>2020-12-20T10:27:28Z</time>
      </trkpt>
      <trkpt lat="47.83378" lon="-0.98042">
        <ele>62.8</ele>
        <time>2020-12-20T10:27:29Z</time>
      </trkpt>
      <trkpt lat="47.83377" lon="-0.98036">
        <ele>62.8</ele>
        <time>2020-12-20T10:27:30Z</time>
      </trkpt>
      <trkpt lat="47.83376" lon="-0.98027">
        <ele>62.9</ele>
        <time>2020-12-20T10:27:31Z</time>
      </trkpt>
      <trkpt lat="47.83375" lon="-0.98019">
        <ele>62.9</ele>
        <time>2020-12-20T10:27:32Z</time>
      </trkpt>
      <trkpt lat="47.83375" lon="-0.98011">
        <ele>62.9</ele>
        <time>2020-12-20T10:27:33Z</time>
      </trkpt>
      <trkpt lat="47.83375" lon="-0.98003">
        <ele>63</ele>
        <time>2020-12-20T10:27:34Z</time>
      </trkpt>
      <trkpt lat="47.83374" lon="-0.97996">
        <ele>63</ele>
        <time>2020-12-20T10:27:35Z</time>
      </trkpt>
      <trkpt lat="47.83373" lon="-0.97989">
        <ele>63</ele>
        <time>2020-12-20T10:27:36Z</time>
      </trkpt>
      <trkpt lat="47.83372" lon="-0.97982">
        <ele>62.9</ele>
        <time>2020-12-20T10:27:37Z</time>
      </trkpt>
      <trkpt lat="47.83371" lon="-0.97975">
        <ele>62.9</ele>
        <time>2020-12-20T10:27:38Z</time>
      </trkpt>
      <trkpt lat="47.83371" lon="-0.97969">
        <ele>62.9</ele>
        <time>2020-12-20T10:27:39Z</time>
      </trkpt>
      <trkpt lat="47.8337" lon="-0.97959">
        <ele>62.9</ele>
        <time>2020-12-20T10:27:40Z</time>
      </trkpt>
      <trkpt lat="47.8337" lon="-0.97952">
        <ele>62.9</ele>
        <time>2020-12-20T10:27:41Z</time>
      </trkpt>
      <trkpt lat="47.83369" lon="-0.97944">
        <ele>62.9</ele>
        <time>2020-12-20T10:27:42Z</time>
      </trkpt>
      <trkpt lat="47.83369" lon="-0.97937">
        <ele>62.9</ele>
        <time>2020-12-20T10:27:43Z</time>
      </trkpt>
      <trkpt lat="47.83368" lon="-0.97928">
        <ele>62.8</ele>
        <time>2020-12-20T10:27:44Z</time>
      </trkpt>
      <trkpt lat="47.83367" lon="-0.9792">
        <ele>62.8</ele>
        <time>2020-12-20T10:27:45Z</time>
      </trkpt>
      <trkpt lat="47.83367" lon="-0.97913">
        <ele>62.8</ele>
        <time>2020-12-20T10:27:46Z</time>
      </trkpt>
      <trkpt lat="47.83366" lon="-0.97905">
        <ele>62.6</ele>
        <time>2020-12-20T10:27:47Z</time>
      </trkpt>
      <trkpt lat="47.83365" lon="-0.97898">
        <ele>62.5</ele>
        <time>2020-12-20T10:27:48Z</time>
      </trkpt>
      <trkpt lat="47.83365" lon="-0.97891">
        <ele>62.5</ele>
        <time>2020-12-20T10:27:49Z</time>
      </trkpt>
      <trkpt lat="47.83365" lon="-0.97882">
        <ele>62.3</ele>
        <time>2020-12-20T10:27:50Z</time>
      </trkpt>
      <trkpt lat="47.83364" lon="-0.97874">
        <ele>62.2</ele>
        <time>2020-12-20T10:27:51Z</time>
      </trkpt>
      <trkpt lat="47.83363" lon="-0.97868">
        <ele>62.1</ele>
        <time>2020-12-20T10:27:52Z</time>
      </trkpt>
      <trkpt lat="47.83363" lon="-0.97859">
        <ele>62</ele>
        <time>2020-12-20T10:27:53Z</time>
      </trkpt>
      <trkpt lat="47.83362" lon="-0.97852">
        <ele>61.9</ele>
        <time>2020-12-20T10:27:54Z</time>
      </trkpt>
      <trkpt lat="47.83362" lon="-0.97845">
        <ele>61.8</ele>
        <time>2020-12-20T10:27:55Z</time>
      </trkpt>
      <trkpt lat="47.83361" lon="-0.97839">
        <ele>61.7</ele>
        <time>2020-12-20T10:27:56Z</time>
      </trkpt>
      <trkpt lat="47.8336" lon="-0.97829">
        <ele>61.6</ele>
        <time>2020-12-20T10:27:57Z</time>
      </trkpt>
      <trkpt lat="47.8336" lon="-0.97822">
        <ele>61.6</ele>
        <time>2020-12-20T10:27:58Z</time>
      </trkpt>
      <trkpt lat="47.8336" lon="-0.97814">
        <ele>61.6</ele>
        <time>2020-12-20T10:27:59Z</time>
      </trkpt>
      <trkpt lat="47.83359" lon="-0.97809">
        <ele>61.5</ele>
        <time>2020-12-20T10:28:00Z</time>
      </trkpt>
      <trkpt lat="47.83358" lon="-0.97803">
        <ele>61.5</ele>
        <time>2020-12-20T10:28:01Z</time>
      </trkpt>
      <trkpt lat="47.83357" lon="-0.97796">
        <ele>61.4</ele>
        <time>2020-12-20T10:28:02Z</time>
      </trkpt>
      <trkpt lat="47.83357" lon="-0.9779">
        <ele>61.4</ele>
        <time>2020-12-20T10:28:03Z</time>
      </trkpt>
      <trkpt lat="47.83356" lon="-0.97783">
        <ele>61.4</ele>
        <time>2020-12-20T10:28:04Z</time>
      </trkpt>
      <trkpt lat="47.83355" lon="-0.97777">
        <ele>61.3</ele>
        <time>2020-12-20T10:28:05Z</time>
      </trkpt>
      <trkpt lat="47.83354" lon="-0.97769">
        <ele>61.3</ele>
        <time>2020-12-20T10:28:06Z</time>
      </trkpt>
      <trkpt lat="47.83353" lon="-0.97762">
        <ele>61.3</ele>
        <time>2020-12-20T10:28:07Z</time>
      </trkpt>
      <trkpt lat="47.83353" lon="-0.97754">
        <ele>61.2</ele>
        <time>2020-12-20T10:28:08Z</time>
      </trkpt>
      <trkpt lat="47.83352" lon="-0.97747">
        <ele>61.2</ele>
        <time>2020-12-20T10:28:09Z</time>
      </trkpt>
      <trkpt lat="47.83351" lon="-0.9774">
        <ele>61.2</ele>
        <time>2020-12-20T10:28:10Z</time>
      </trkpt>
      <trkpt lat="47.8335" lon="-0.97732">
        <ele>61.2</ele>
        <time>2020-12-20T10:28:11Z</time>
      </trkpt>
      <trkpt lat="47.83349" lon="-0.97724">
        <ele>61.2</ele>
        <time>2020-12-20T10:28:12Z</time>
      </trkpt>
      <trkpt lat="47.83349" lon="-0.97716">
        <ele>61.2</ele>
        <time>2020-12-20T10:28:13Z</time>
      </trkpt>
      <trkpt lat="47.83348" lon="-0.97708">
        <ele>61.2</ele>
        <time>2020-12-20T10:28:14Z</time>
      </trkpt>
      <trkpt lat="47.83347" lon="-0.977">
        <ele>61.2</ele>
        <time>2020-12-20T10:28:15Z</time>
      </trkpt>
      <trkpt lat="47.83346" lon="-0.97693">
        <ele>61.2</ele>
        <time>2020-12-20T10:28:16Z</time>
      </trkpt>
      <trkpt lat="47.83346" lon="-0.97685">
        <ele>61.2</ele>
        <time>2020-12-20T10:28:17Z</time>
      </trkpt>
      <trkpt lat="47.83345" lon="-0.97677">
        <ele>61.1</ele>
        <time>2020-12-20T10:28:18Z</time>
      </trkpt>
      <trkpt lat="47.83345" lon="-0.9767">
        <ele>61.1</ele>
        <time>2020-12-20T10:28:19Z</time>
      </trkpt>
      <trkpt lat="47.83343" lon="-0.97664">
        <ele>61.1</ele>
        <time>2020-12-20T10:28:20Z</time>
      </trkpt>
      <trkpt lat="47.83343" lon="-0.97656">
        <ele>61.2</ele>
        <time>2020-12-20T10:28:21Z</time>
      </trkpt>
      <trkpt lat="47.83343" lon="-0.97649">
        <ele>61.3</ele>
        <time>2020-12-20T10:28:22Z</time>
      </trkpt>
      <trkpt lat="47.83342" lon="-0.97642">
        <ele>61.4</ele>
        <time>2020-12-20T10:28:23Z</time>
      </trkpt>
      <trkpt lat="47.83342" lon="-0.97635">
        <ele>61.5</ele>
        <time>2020-12-20T10:28:24Z</time>
      </trkpt>
      <trkpt lat="47.83342" lon="-0.97627">
        <ele>61.6</ele>
        <time>2020-12-20T10:28:25Z</time>
      </trkpt>
      <trkpt lat="47.83341" lon="-0.97619">
        <ele>61.7</ele>
        <time>2020-12-20T10:28:26Z</time>
      </trkpt>
      <trkpt lat="47.83341" lon="-0.97611">
        <ele>61.8</ele>
        <time>2020-12-20T10:28:27Z</time>
      </trkpt>
      <trkpt lat="47.8334" lon="-0.97604">
        <ele>61.8</ele>
        <time>2020-12-20T10:28:28Z</time>
      </trkpt>
      <trkpt lat="47.83339" lon="-0.97597">
        <ele>61.9</ele>
        <time>2020-12-20T10:28:29Z</time>
      </trkpt>
      <trkpt lat="47.83339" lon="-0.97589">
        <ele>62</ele>
        <time>2020-12-20T10:28:30Z</time>
      </trkpt>
      <trkpt lat="47.83339" lon="-0.97581">
        <ele>62.1</ele>
        <time>2020-12-20T10:28:31Z</time>
      </trkpt>
      <trkpt lat="47.83339" lon="-0.97574">
        <ele>62.2</ele>
        <time>2020-12-20T10:28:32Z</time>
      </trkpt>
      <trkpt lat="47.83339" lon="-0.97567">
        <ele>62.3</ele>
        <time>2020-12-20T10:28:33Z</time>
      </trkpt>
      <trkpt lat="47.83338" lon="-0.97559">
        <ele>62.4</ele>
        <time>2020-12-20T10:28:34Z</time>
      </trkpt>
      <trkpt lat="47.83338" lon="-0.97552">
        <ele>62.5</ele>
        <time>2020-12-20T10:28:35Z</time>
      </trkpt>
      <trkpt lat="47.83337" lon="-0.97545">
        <ele>62.5</ele>
        <time>2020-12-20T10:28:36Z</time>
      </trkpt>
      <trkpt lat="47.83337" lon="-0.97539">
        <ele>62.6</ele>
        <time>2020-12-20T10:28:37Z</time>
      </trkpt>
      <trkpt lat="47.83336" lon="-0.97532">
        <ele>62.7</ele>
        <time>2020-12-20T10:28:38Z</time>
      </trkpt>
      <trkpt lat="47.83337" lon="-0.97525">
        <ele>62.8</ele>
        <time>2020-12-20T10:28:39Z</time>
      </trkpt>
      <trkpt lat="47.83338" lon="-0.97518">
        <ele>62.9</ele>
        <time>2020-12-20T10:28:40Z</time>
      </trkpt>
      <trkpt lat="47.83337" lon="-0.97511">
        <ele>63</ele>
        <time>2020-12-20T10:28:41Z</time>
      </trkpt>
      <trkpt lat="47.83337" lon="-0.97505">
        <ele>63</ele>
        <time>2020-12-20T10:28:42Z</time>
      </trkpt>
      <trkpt lat="47.83337" lon="-0.97498">
        <ele>63.1</ele>
        <time>2020-12-20T10:28:43Z</time>
      </trkpt>
      <trkpt lat="47.83337" lon="-0.9749">
        <ele>63.2</ele>
        <time>2020-12-20T10:28:44Z</time>
      </trkpt>
      <trkpt lat="47.83337" lon="-0.97483">
        <ele>63.3</ele>
        <time>2020-12-20T10:28:45Z</time>
      </trkpt>
      <trkpt lat="47.83338" lon="-0.97476">
        <ele>63.4</ele>
        <time>2020-12-20T10:28:46Z</time>
      </trkpt>
      <trkpt lat="47.83338" lon="-0.9747">
        <ele>63.5</ele>
        <time>2020-12-20T10:28:47Z</time>
      </trkpt>
      <trkpt lat="47.83338" lon="-0.97464">
        <ele>63.5</ele>
        <time>2020-12-20T10:28:48Z</time>
      </trkpt>
      <trkpt lat="47.83338" lon="-0.97457">
        <ele>63.6</ele>
        <time>2020-12-20T10:28:49Z</time>
      </trkpt>
      <trkpt lat="47.83338" lon="-0.9745">
        <ele>63.7</ele>
        <time>2020-12-20T10:28:50Z</time>
      </trkpt>
      <trkpt lat="47.83339" lon="-0.97443">
        <ele>63.8</ele>
        <time>2020-12-20T10:28:51Z</time>
      </trkpt>
      <trkpt lat="47.8334" lon="-0.97436">
        <ele>63.9</ele>
        <time>2020-12-20T10:28:52Z</time>
      </trkpt>
      <trkpt lat="47.8334" lon="-0.97429">
        <ele>64</ele>
        <time>2020-12-20T10:28:53Z</time>
      </trkpt>
      <trkpt lat="47.8334" lon="-0.97421">
        <ele>64.1</ele>
        <time>2020-12-20T10:28:54Z</time>
      </trkpt>
      <trkpt lat="47.83339" lon="-0.97413">
        <ele>64.2</ele>
        <time>2020-12-20T10:28:55Z</time>
      </trkpt>
      <trkpt lat="47.83339" lon="-0.97405">
        <ele>64.3</ele>
        <time>2020-12-20T10:28:56Z</time>
      </trkpt>
      <trkpt lat="47.8334" lon="-0.97396">
        <ele>64.4</ele>
        <time>2020-12-20T10:28:57Z</time>
      </trkpt>
      <trkpt lat="47.83341" lon="-0.97387">
        <ele>64.5</ele>
        <time>2020-12-20T10:28:58Z</time>
      </trkpt>
      <trkpt lat="47.83342" lon="-0.97379">
        <ele>64.7</ele>
        <time>2020-12-20T10:28:59Z</time>
      </trkpt>
      <trkpt lat="47.83342" lon="-0.9737">
        <ele>64.8</ele>
        <time>2020-12-20T10:29:00Z</time>
      </trkpt>
      <trkpt lat="47.83343" lon="-0.97361">
        <ele>64.9</ele>
        <time>2020-12-20T10:29:01Z</time>
      </trkpt>
      <trkpt lat="47.83344" lon="-0.97354">
        <ele>65</ele>
        <time>2020-12-20T10:29:02Z</time>
      </trkpt>
      <trkpt lat="47.83345" lon="-0.97344">
        <ele>65.2</ele>
        <time>2020-12-20T10:29:03Z</time>
      </trkpt>
      <trkpt lat="47.83347" lon="-0.97336">
        <ele>65.3</ele>
        <time>2020-12-20T10:29:04Z</time>
      </trkpt>
      <trkpt lat="47.83348" lon="-0.97327">
        <ele>65.4</ele>
        <time>2020-12-20T10:29:05Z</time>
      </trkpt>
      <trkpt lat="47.83348" lon="-0.97319">
        <ele>65.5</ele>
        <time>2020-12-20T10:29:06Z</time>
      </trkpt>
      <trkpt lat="47.8335" lon="-0.9731">
        <ele>65.6</ele>
        <time>2020-12-20T10:29:07Z</time>
      </trkpt>
      <trkpt lat="47.83351" lon="-0.97303">
        <ele>65.7</ele>
        <time>2020-12-20T10:29:08Z</time>
      </trkpt>
      <trkpt lat="47.83352" lon="-0.97294">
        <ele>65.8</ele>
        <time>2020-12-20T10:29:09Z</time>
      </trkpt>
      <trkpt lat="47.83354" lon="-0.97286">
        <ele>65.9</ele>
        <time>2020-12-20T10:29:10Z</time>
      </trkpt>
      <trkpt lat="47.83355" lon="-0.97278">
        <ele>66</ele>
        <time>2020-12-20T10:29:11Z</time>
      </trkpt>
      <trkpt lat="47.83356" lon="-0.97272">
        <ele>66.1</ele>
        <time>2020-12-20T10:29:12Z</time>
      </trkpt>
      <trkpt lat="47.83357" lon="-0.97265">
        <ele>66.2</ele>
        <time>2020-12-20T10:29:13Z</time>
      </trkpt>
      <trkpt lat="47.83358" lon="-0.97257">
        <ele>66.2</ele>
        <time>2020-12-20T10:29:14Z</time>
      </trkpt>
      <trkpt lat="47.83359" lon="-0.97251">
        <ele>66.3</ele>
        <time>2020-12-20T10:29:15Z</time>
      </trkpt>
      <trkpt lat="47.8336" lon="-0.97246">
        <ele>66.3</ele>
        <time>2020-12-20T10:29:16Z</time>
      </trkpt>
      <trkpt lat="47.83361" lon="-0.9724">
        <ele>66.3</ele>
        <time>2020-12-20T10:29:17Z</time>
      </trkpt>
      <trkpt lat="47.83362" lon="-0.97234">
        <ele>66.3</ele>
        <time>2020-12-20T10:29:18Z</time>
      </trkpt>
      <trkpt lat="47.83363" lon="-0.97228">
        <ele>66.3</ele>
        <time>2020-12-20T10:29:19Z</time>
      </trkpt>
      <trkpt lat="47.83364" lon="-0.97221">
        <ele>66.2</ele>
        <time>2020-12-20T10:29:20Z</time>
      </trkpt>
      <trkpt lat="47.83366" lon="-0.97213">
        <ele>66.2</ele>
        <time>2020-12-20T10:29:21Z</time>
      </trkpt>
      <trkpt lat="47.83367" lon="-0.97206">
        <ele>66.2</ele>
        <time>2020-12-20T10:29:22Z</time>
      </trkpt>
      <trkpt lat="47.83369" lon="-0.97198">
        <ele>66.2</ele>
        <time>2020-12-20T10:29:23Z</time>
      </trkpt>
      <trkpt lat="47.83372" lon="-0.9719">
        <ele>66.1</ele>
        <time>2020-12-20T10:29:24Z</time>
      </trkpt>
      <trkpt lat="47.83373" lon="-0.97181">
        <ele>66.1</ele>
        <time>2020-12-20T10:29:25Z</time>
      </trkpt>
      <trkpt lat="47.83375" lon="-0.97172">
        <ele>66</ele>
        <time>2020-12-20T10:29:26Z</time>
      </trkpt>
      <trkpt lat="47.83377" lon="-0.97162">
        <ele>66.1</ele>
        <time>2020-12-20T10:29:27Z</time>
      </trkpt>
      <trkpt lat="47.83379" lon="-0.97153">
        <ele>66.3</ele>
        <time>2020-12-20T10:29:28Z</time>
      </trkpt>
      <trkpt lat="47.83381" lon="-0.97144">
        <ele>66.5</ele>
        <time>2020-12-20T10:29:29Z</time>
      </trkpt>
      <trkpt lat="47.83384" lon="-0.97134">
        <ele>66.8</ele>
        <time>2020-12-20T10:29:30Z</time>
      </trkpt>
      <trkpt lat="47.83386" lon="-0.97125">
        <ele>67</ele>
        <time>2020-12-20T10:29:31Z</time>
      </trkpt>
      <trkpt lat="47.83389" lon="-0.97116">
        <ele>67.2</ele>
        <time>2020-12-20T10:29:32Z</time>
      </trkpt>
      <trkpt lat="47.83391" lon="-0.97107">
        <ele>67.4</ele>
        <time>2020-12-20T10:29:33Z</time>
      </trkpt>
      <trkpt lat="47.83394" lon="-0.97097">
        <ele>67.7</ele>
        <time>2020-12-20T10:29:34Z</time>
      </trkpt>
      <trkpt lat="47.83396" lon="-0.97087">
        <ele>67.9</ele>
        <time>2020-12-20T10:29:35Z</time>
      </trkpt>
      <trkpt lat="47.83399" lon="-0.97077">
        <ele>68</ele>
        <time>2020-12-20T10:29:36Z</time>
      </trkpt>
      <trkpt lat="47.83402" lon="-0.97067">
        <ele>67.9</ele>
        <time>2020-12-20T10:29:37Z</time>
      </trkpt>
      <trkpt lat="47.83405" lon="-0.97058">
        <ele>67.9</ele>
        <time>2020-12-20T10:29:38Z</time>
      </trkpt>
      <trkpt lat="47.83408" lon="-0.97049">
        <ele>67.9</ele>
        <time>2020-12-20T10:29:39Z</time>
      </trkpt>
      <trkpt lat="47.8341" lon="-0.9704">
        <ele>67.9</ele>
        <time>2020-12-20T10:29:40Z</time>
      </trkpt>
      <trkpt lat="47.83413" lon="-0.97031">
        <ele>67.9</ele>
        <time>2020-12-20T10:29:41Z</time>
      </trkpt>
      <trkpt lat="47.83416" lon="-0.97023">
        <ele>68</ele>
        <time>2020-12-20T10:29:42Z</time>
      </trkpt>
      <trkpt lat="47.83419" lon="-0.97014">
        <ele>67.9</ele>
        <time>2020-12-20T10:29:43Z</time>
      </trkpt>
      <trkpt lat="47.83422" lon="-0.97005">
        <ele>67.8</ele>
        <time>2020-12-20T10:29:44Z</time>
      </trkpt>
      <trkpt lat="47.83425" lon="-0.96995">
        <ele>67.5</ele>
        <time>2020-12-20T10:29:45Z</time>
      </trkpt>
      <trkpt lat="47.83429" lon="-0.96986">
        <ele>67.2</ele>
        <time>2020-12-20T10:29:46Z</time>
      </trkpt>
      <trkpt lat="47.83432" lon="-0.96977">
        <ele>67</ele>
        <time>2020-12-20T10:29:47Z</time>
      </trkpt>
      <trkpt lat="47.83434" lon="-0.96968">
        <ele>66.8</ele>
        <time>2020-12-20T10:29:48Z</time>
      </trkpt>
      <trkpt lat="47.83438" lon="-0.96958">
        <ele>66.5</ele>
        <time>2020-12-20T10:29:49Z</time>
      </trkpt>
      <trkpt lat="47.83442" lon="-0.9695">
        <ele>66.2</ele>
        <time>2020-12-20T10:29:50Z</time>
      </trkpt>
      <trkpt lat="47.83444" lon="-0.96942">
        <ele>66</ele>
        <time>2020-12-20T10:29:51Z</time>
      </trkpt>
      <trkpt lat="47.83447" lon="-0.96933">
        <ele>65.7</ele>
        <time>2020-12-20T10:29:52Z</time>
      </trkpt>
      <trkpt lat="47.8345" lon="-0.96925">
        <ele>65.5</ele>
        <time>2020-12-20T10:29:53Z</time>
      </trkpt>
      <trkpt lat="47.83453" lon="-0.96916">
        <ele>65.2</ele>
        <time>2020-12-20T10:29:54Z</time>
      </trkpt>
      <trkpt lat="47.83456" lon="-0.96907">
        <ele>65</ele>
        <time>2020-12-20T10:29:55Z</time>
      </trkpt>
      <trkpt lat="47.83459" lon="-0.96899">
        <ele>64.8</ele>
        <time>2020-12-20T10:29:56Z</time>
      </trkpt>
      <trkpt lat="47.83463" lon="-0.9689">
        <ele>64.5</ele>
        <time>2020-12-20T10:29:57Z</time>
      </trkpt>
      <trkpt lat="47.83466" lon="-0.96881">
        <ele>64.3</ele>
        <time>2020-12-20T10:29:58Z</time>
      </trkpt>
      <trkpt lat="47.83469" lon="-0.96872">
        <ele>64.1</ele>
        <time>2020-12-20T10:29:59Z</time>
      </trkpt>
      <trkpt lat="47.83471" lon="-0.96863">
        <ele>63.9</ele>
        <time>2020-12-20T10:30:00Z</time>
      </trkpt>
      <trkpt lat="47.83474" lon="-0.96854">
        <ele>63.8</ele>
        <time>2020-12-20T10:30:01Z</time>
      </trkpt>
      <trkpt lat="47.83477" lon="-0.96845">
        <ele>63.6</ele>
        <time>2020-12-20T10:30:02Z</time>
      </trkpt>
      <trkpt lat="47.83479" lon="-0.96837">
        <ele>63.5</ele>
        <time>2020-12-20T10:30:03Z</time>
      </trkpt>
      <trkpt lat="47.83482" lon="-0.96828">
        <ele>63.5</ele>
        <time>2020-12-20T10:30:04Z</time>
      </trkpt>
      <trkpt lat="47.83485" lon="-0.96821">
        <ele>63.6</ele>
        <time>2020-12-20T10:30:05Z</time>
      </trkpt>
      <trkpt lat="47.83488" lon="-0.96811">
        <ele>63.8</ele>
        <time>2020-12-20T10:30:06Z</time>
      </trkpt>
      <trkpt lat="47.83491" lon="-0.96802">
        <ele>63.9</ele>
        <time>2020-12-20T10:30:07Z</time>
      </trkpt>
      <trkpt lat="47.83494" lon="-0.96793">
        <ele>64.1</ele>
        <time>2020-12-20T10:30:08Z</time>
      </trkpt>
      <trkpt lat="47.83497" lon="-0.96785">
        <ele>64.2</ele>
        <time>2020-12-20T10:30:09Z</time>
      </trkpt>
      <trkpt lat="47.835" lon="-0.96777">
        <ele>64.4</ele>
        <time>2020-12-20T10:30:10Z</time>
      </trkpt>
      <trkpt lat="47.83504" lon="-0.96766">
        <ele>64.7</ele>
        <time>2020-12-20T10:30:11Z</time>
      </trkpt>
      <trkpt lat="47.83507" lon="-0.96757">
        <ele>64.9</ele>
        <time>2020-12-20T10:30:12Z</time>
      </trkpt>
      <trkpt lat="47.8351" lon="-0.96748">
        <ele>65.1</ele>
        <time>2020-12-20T10:30:13Z</time>
      </trkpt>
      <trkpt lat="47.83513" lon="-0.9674">
        <ele>65.2</ele>
        <time>2020-12-20T10:30:14Z</time>
      </trkpt>
      <trkpt lat="47.83516" lon="-0.96731">
        <ele>65.2</ele>
        <time>2020-12-20T10:30:15Z</time>
      </trkpt>
      <trkpt lat="47.83518" lon="-0.96723">
        <ele>65.3</ele>
        <time>2020-12-20T10:30:16Z</time>
      </trkpt>
      <trkpt lat="47.8352" lon="-0.96715">
        <ele>65.3</ele>
        <time>2020-12-20T10:30:17Z</time>
      </trkpt>
      <trkpt lat="47.83521" lon="-0.96707">
        <ele>65.4</ele>
        <time>2020-12-20T10:30:18Z</time>
      </trkpt>
      <trkpt lat="47.83522" lon="-0.96702">
        <ele>65.4</ele>
        <time>2020-12-20T10:30:19Z</time>
      </trkpt>
      <trkpt lat="47.83524" lon="-0.96694">
        <ele>65.5</ele>
        <time>2020-12-20T10:30:20Z</time>
      </trkpt>
      <trkpt lat="47.83527" lon="-0.96688">
        <ele>65.6</ele>
        <time>2020-12-20T10:30:21Z</time>
      </trkpt>
      <trkpt lat="47.8353" lon="-0.96681">
        <ele>65.7</ele>
        <time>2020-12-20T10:30:22Z</time>
      </trkpt>
      <trkpt lat="47.83534" lon="-0.96674">
        <ele>65.8</ele>
        <time>2020-12-20T10:30:23Z</time>
      </trkpt>
      <trkpt lat="47.83537" lon="-0.96666">
        <ele>65.9</ele>
        <time>2020-12-20T10:30:24Z</time>
      </trkpt>
      <trkpt lat="47.8354" lon="-0.9666">
        <ele>65.8</ele>
        <time>2020-12-20T10:30:25Z</time>
      </trkpt>
      <trkpt lat="47.83544" lon="-0.9665">
        <ele>65.6</ele>
        <time>2020-12-20T10:30:26Z</time>
      </trkpt>
      <trkpt lat="47.83546" lon="-0.96643">
        <ele>65.4</ele>
        <time>2020-12-20T10:30:27Z</time>
      </trkpt>
      <trkpt lat="47.83549" lon="-0.96634">
        <ele>65.3</ele>
        <time>2020-12-20T10:30:28Z</time>
      </trkpt>
      <trkpt lat="47.83552" lon="-0.96624">
        <ele>65.2</ele>
        <time>2020-12-20T10:30:29Z</time>
      </trkpt>
      <trkpt lat="47.83555" lon="-0.96614">
        <ele>65</ele>
        <time>2020-12-20T10:30:30Z</time>
      </trkpt>
      <trkpt lat="47.83558" lon="-0.96605">
        <ele>65</ele>
        <time>2020-12-20T10:30:31Z</time>
      </trkpt>
      <trkpt lat="47.83561" lon="-0.96595">
        <ele>64.9</ele>
        <time>2020-12-20T10:30:32Z</time>
      </trkpt>
      <trkpt lat="47.83564" lon="-0.96587">
        <ele>64.9</ele>
        <time>2020-12-20T10:30:33Z</time>
      </trkpt>
      <trkpt lat="47.83566" lon="-0.96577">
        <ele>64.5</ele>
        <time>2020-12-20T10:30:34Z</time>
      </trkpt>
      <trkpt lat="47.8357" lon="-0.96567">
        <ele>64.1</ele>
        <time>2020-12-20T10:30:35Z</time>
      </trkpt>
      <trkpt lat="47.83572" lon="-0.96559">
        <ele>63.6</ele>
        <time>2020-12-20T10:30:36Z</time>
      </trkpt>
      <trkpt lat="47.83576" lon="-0.96548">
        <ele>63.1</ele>
        <time>2020-12-20T10:30:37Z</time>
      </trkpt>
      <trkpt lat="47.8358" lon="-0.96538">
        <ele>62.6</ele>
        <time>2020-12-20T10:30:38Z</time>
      </trkpt>
      <trkpt lat="47.83583" lon="-0.9653">
        <ele>62.1</ele>
        <time>2020-12-20T10:30:39Z</time>
      </trkpt>
      <trkpt lat="47.83587" lon="-0.96521">
        <ele>61.6</ele>
        <time>2020-12-20T10:30:40Z</time>
      </trkpt>
      <trkpt lat="47.8359" lon="-0.96511">
        <ele>61</ele>
        <time>2020-12-20T10:30:41Z</time>
      </trkpt>
      <trkpt lat="47.83594" lon="-0.965">
        <ele>60.4</ele>
        <time>2020-12-20T10:30:42Z</time>
      </trkpt>
      <trkpt lat="47.83597" lon="-0.96489">
        <ele>60.2</ele>
        <time>2020-12-20T10:30:43Z</time>
      </trkpt>
      <trkpt lat="47.83601" lon="-0.96477">
        <ele>60</ele>
        <time>2020-12-20T10:30:44Z</time>
      </trkpt>
      <trkpt lat="47.83605" lon="-0.96466">
        <ele>59.9</ele>
        <time>2020-12-20T10:30:45Z</time>
      </trkpt>
      <trkpt lat="47.83609" lon="-0.96455">
        <ele>59.7</ele>
        <time>2020-12-20T10:30:46Z</time>
      </trkpt>
      <trkpt lat="47.83613" lon="-0.96444">
        <ele>59.5</ele>
        <time>2020-12-20T10:30:47Z</time>
      </trkpt>
      <trkpt lat="47.83617" lon="-0.96432">
        <ele>59.3</ele>
        <time>2020-12-20T10:30:48Z</time>
      </trkpt>
      <trkpt lat="47.8362" lon="-0.96421">
        <ele>59</ele>
        <time>2020-12-20T10:30:49Z</time>
      </trkpt>
      <trkpt lat="47.83624" lon="-0.96409">
        <ele>58.7</ele>
        <time>2020-12-20T10:30:50Z</time>
      </trkpt>
      <trkpt lat="47.83627" lon="-0.96397">
        <ele>58.5</ele>
        <time>2020-12-20T10:30:51Z</time>
      </trkpt>
      <trkpt lat="47.83631" lon="-0.96386">
        <ele>58.2</ele>
        <time>2020-12-20T10:30:52Z</time>
      </trkpt>
      <trkpt lat="47.83635" lon="-0.96375">
        <ele>57.9</ele>
        <time>2020-12-20T10:30:53Z</time>
      </trkpt>
      <trkpt lat="47.83638" lon="-0.96364">
        <ele>57.6</ele>
        <time>2020-12-20T10:30:54Z</time>
      </trkpt>
      <trkpt lat="47.83641" lon="-0.96354">
        <ele>57.4</ele>
        <time>2020-12-20T10:30:55Z</time>
      </trkpt>
      <trkpt lat="47.83644" lon="-0.96344">
        <ele>57.1</ele>
        <time>2020-12-20T10:30:56Z</time>
      </trkpt>
      <trkpt lat="47.83647" lon="-0.96336">
        <ele>56.9</ele>
        <time>2020-12-20T10:30:57Z</time>
      </trkpt>
      <trkpt lat="47.8365" lon="-0.96329">
        <ele>56.7</ele>
        <time>2020-12-20T10:30:58Z</time>
      </trkpt>
      <trkpt lat="47.83653" lon="-0.96323">
        <ele>56.6</ele>
        <time>2020-12-20T10:30:59Z</time>
      </trkpt>
      <trkpt lat="47.83656" lon="-0.96317">
        <ele>56.5</ele>
        <time>2020-12-20T10:31:00Z</time>
      </trkpt>
      <trkpt lat="47.8366" lon="-0.96312">
        <ele>56.4</ele>
        <time>2020-12-20T10:31:01Z</time>
      </trkpt>
      <trkpt lat="47.83662" lon="-0.96305">
        <ele>56.3</ele>
        <time>2020-12-20T10:31:02Z</time>
      </trkpt>
      <trkpt lat="47.83664" lon="-0.96298">
        <ele>56.1</ele>
        <time>2020-12-20T10:31:03Z</time>
      </trkpt>
      <trkpt lat="47.83666" lon="-0.96287">
        <ele>55.9</ele>
        <time>2020-12-20T10:31:04Z</time>
      </trkpt>
      <trkpt lat="47.8367" lon="-0.96278">
        <ele>55.8</ele>
        <time>2020-12-20T10:31:05Z</time>
      </trkpt>
      <trkpt lat="47.83674" lon="-0.96268">
        <ele>55.8</ele>
        <time>2020-12-20T10:31:06Z</time>
      </trkpt>
      <trkpt lat="47.83678" lon="-0.96259">
        <ele>55.7</ele>
        <time>2020-12-20T10:31:07Z</time>
      </trkpt>
      <trkpt lat="47.83682" lon="-0.96249">
        <ele>55.7</ele>
        <time>2020-12-20T10:31:08Z</time>
      </trkpt>
      <trkpt lat="47.83686" lon="-0.96239">
        <ele>55.7</ele>
        <time>2020-12-20T10:31:09Z</time>
      </trkpt>
      <trkpt lat="47.83691" lon="-0.96229">
        <ele>55.7</ele>
        <time>2020-12-20T10:31:10Z</time>
      </trkpt>
      <trkpt lat="47.83694" lon="-0.96221">
        <ele>55.6</ele>
        <time>2020-12-20T10:31:11Z</time>
      </trkpt>
      <trkpt lat="47.837" lon="-0.96209">
        <ele>55.6</ele>
        <time>2020-12-20T10:31:12Z</time>
      </trkpt>
      <trkpt lat="47.83704" lon="-0.96199">
        <ele>55.6</ele>
        <time>2020-12-20T10:31:13Z</time>
      </trkpt>
      <trkpt lat="47.83708" lon="-0.96189">
        <ele>55.5</ele>
        <time>2020-12-20T10:31:14Z</time>
      </trkpt>
      <trkpt lat="47.83713" lon="-0.96179">
        <ele>55.5</ele>
        <time>2020-12-20T10:31:15Z</time>
      </trkpt>
      <trkpt lat="47.83717" lon="-0.96171">
        <ele>55.5</ele>
        <time>2020-12-20T10:31:16Z</time>
      </trkpt>
      <trkpt lat="47.83722" lon="-0.96159">
        <ele>55.5</ele>
        <time>2020-12-20T10:31:17Z</time>
      </trkpt>
      <trkpt lat="47.83727" lon="-0.9615">
        <ele>55.6</ele>
        <time>2020-12-20T10:31:18Z</time>
      </trkpt>
      <trkpt lat="47.83731" lon="-0.9614">
        <ele>55.5</ele>
        <time>2020-12-20T10:31:19Z</time>
      </trkpt>
      <trkpt lat="47.83735" lon="-0.96132">
        <ele>55.5</ele>
        <time>2020-12-20T10:31:20Z</time>
      </trkpt>
      <trkpt lat="47.8374" lon="-0.96119">
        <ele>55.4</ele>
        <time>2020-12-20T10:31:21Z</time>
      </trkpt>
      <trkpt lat="47.83745" lon="-0.9611">
        <ele>55.4</ele>
        <time>2020-12-20T10:31:22Z</time>
      </trkpt>
      <trkpt lat="47.83749" lon="-0.961">
        <ele>55.4</ele>
        <time>2020-12-20T10:31:23Z</time>
      </trkpt>
      <trkpt lat="47.83754" lon="-0.96091">
        <ele>55.2</ele>
        <time>2020-12-20T10:31:24Z</time>
      </trkpt>
      <trkpt lat="47.83758" lon="-0.96083">
        <ele>55.1</ele>
        <time>2020-12-20T10:31:25Z</time>
      </trkpt>
      <trkpt lat="47.83763" lon="-0.96071">
        <ele>54.9</ele>
        <time>2020-12-20T10:31:26Z</time>
      </trkpt>
      <trkpt lat="47.83767" lon="-0.96061">
        <ele>54.7</ele>
        <time>2020-12-20T10:31:27Z</time>
      </trkpt>
      <trkpt lat="47.83772" lon="-0.96052">
        <ele>54.5</ele>
        <time>2020-12-20T10:31:28Z</time>
      </trkpt>
      <trkpt lat="47.83775" lon="-0.96044">
        <ele>54.4</ele>
        <time>2020-12-20T10:31:29Z</time>
      </trkpt>
      <trkpt lat="47.8378" lon="-0.96032">
        <ele>54.1</ele>
        <time>2020-12-20T10:31:30Z</time>
      </trkpt>
      <trkpt lat="47.83785" lon="-0.96022">
        <ele>53.9</ele>
        <time>2020-12-20T10:31:31Z</time>
      </trkpt>
      <trkpt lat="47.83789" lon="-0.96012">
        <ele>53.8</ele>
        <time>2020-12-20T10:31:32Z</time>
      </trkpt>
      <trkpt lat="47.83794" lon="-0.96003">
        <ele>53.6</ele>
        <time>2020-12-20T10:31:33Z</time>
      </trkpt>
      <trkpt lat="47.83798" lon="-0.95996">
        <ele>53.5</ele>
        <time>2020-12-20T10:31:34Z</time>
      </trkpt>
      <trkpt lat="47.83804" lon="-0.95985">
        <ele>53.5</ele>
        <time>2020-12-20T10:31:35Z</time>
      </trkpt>
      <trkpt lat="47.83809" lon="-0.95977">
        <ele>53.4</ele>
        <time>2020-12-20T10:31:36Z</time>
      </trkpt>
      <trkpt lat="47.83813" lon="-0.95968">
        <ele>53.4</ele>
        <time>2020-12-20T10:31:37Z</time>
      </trkpt>
      <trkpt lat="47.83817" lon="-0.95959">
        <ele>53.3</ele>
        <time>2020-12-20T10:31:38Z</time>
      </trkpt>
      <trkpt lat="47.83822" lon="-0.9595">
        <ele>53.3</ele>
        <time>2020-12-20T10:31:39Z</time>
      </trkpt>
      <trkpt lat="47.83826" lon="-0.95941">
        <ele>53.2</ele>
        <time>2020-12-20T10:31:40Z</time>
      </trkpt>
      <trkpt lat="47.8383" lon="-0.95932">
        <ele>53.1</ele>
        <time>2020-12-20T10:31:41Z</time>
      </trkpt>
      <trkpt lat="47.83834" lon="-0.95924">
        <ele>53.1</ele>
        <time>2020-12-20T10:31:42Z</time>
      </trkpt>
      <trkpt lat="47.83838" lon="-0.95915">
        <ele>52.8</ele>
        <time>2020-12-20T10:31:43Z</time>
      </trkpt>
      <trkpt lat="47.83843" lon="-0.95905">
        <ele>52.2</ele>
        <time>2020-12-20T10:31:44Z</time>
      </trkpt>
      <trkpt lat="47.83847" lon="-0.95896">
        <ele>51.7</ele>
        <time>2020-12-20T10:31:45Z</time>
      </trkpt>
      <trkpt lat="47.8385" lon="-0.95887">
        <ele>51.2</ele>
        <time>2020-12-20T10:31:46Z</time>
      </trkpt>
      <trkpt lat="47.83854" lon="-0.95879">
        <ele>50.8</ele>
        <time>2020-12-20T10:31:47Z</time>
      </trkpt>
      <trkpt lat="47.83858" lon="-0.95871">
        <ele>50.4</ele>
        <time>2020-12-20T10:31:48Z</time>
      </trkpt>
      <trkpt lat="47.83862" lon="-0.95863">
        <ele>50</ele>
        <time>2020-12-20T10:31:49Z</time>
      </trkpt>
      <trkpt lat="47.83866" lon="-0.95855">
        <ele>49.5</ele>
        <time>2020-12-20T10:31:50Z</time>
      </trkpt>
      <trkpt lat="47.8387" lon="-0.95847">
        <ele>49.1</ele>
        <time>2020-12-20T10:31:51Z</time>
      </trkpt>
      <trkpt lat="47.83874" lon="-0.9584">
        <ele>48.8</ele>
        <time>2020-12-20T10:31:52Z</time>
      </trkpt>
      <trkpt lat="47.83879" lon="-0.9583">
        <ele>48.4</ele>
        <time>2020-12-20T10:31:53Z</time>
      </trkpt>
      <trkpt lat="47.83883" lon="-0.95822">
        <ele>48.2</ele>
        <time>2020-12-20T10:31:54Z</time>
      </trkpt>
      <trkpt lat="47.83886" lon="-0.95813">
        <ele>48</ele>
        <time>2020-12-20T10:31:55Z</time>
      </trkpt>
      <trkpt lat="47.8389" lon="-0.95806">
        <ele>47.8</ele>
        <time>2020-12-20T10:31:56Z</time>
      </trkpt>
      <trkpt lat="47.83895" lon="-0.95796">
        <ele>47.5</ele>
        <time>2020-12-20T10:31:57Z</time>
      </trkpt>
      <trkpt lat="47.83898" lon="-0.95787">
        <ele>47.2</ele>
        <time>2020-12-20T10:31:58Z</time>
      </trkpt>
      <trkpt lat="47.83902" lon="-0.95778">
        <ele>47</ele>
        <time>2020-12-20T10:31:59Z</time>
      </trkpt>
      <trkpt lat="47.83905" lon="-0.9577">
        <ele>46.7</ele>
        <time>2020-12-20T10:32:00Z</time>
      </trkpt>
      <trkpt lat="47.83909" lon="-0.95762">
        <ele>46.5</ele>
        <time>2020-12-20T10:32:01Z</time>
      </trkpt>
      <trkpt lat="47.83912" lon="-0.95754">
        <ele>46.2</ele>
        <time>2020-12-20T10:32:02Z</time>
      </trkpt>
      <trkpt lat="47.83915" lon="-0.95746">
        <ele>45.9</ele>
        <time>2020-12-20T10:32:03Z</time>
      </trkpt>
      <trkpt lat="47.83918" lon="-0.95738">
        <ele>45.7</ele>
        <time>2020-12-20T10:32:04Z</time>
      </trkpt>
      <trkpt lat="47.8392" lon="-0.95733">
        <ele>45.5</ele>
        <time>2020-12-20T10:32:05Z</time>
      </trkpt>
      <trkpt lat="47.83921" lon="-0.95724">
        <ele>45.3</ele>
        <time>2020-12-20T10:32:06Z</time>
      </trkpt>
      <trkpt lat="47.83919" lon="-0.95719">
        <ele>45.2</ele>
        <time>2020-12-20T10:32:07Z</time>
      </trkpt>
      <trkpt lat="47.83916" lon="-0.95715">
        <ele>45.2</ele>
        <time>2020-12-20T10:32:08Z</time>
      </trkpt>
      <trkpt lat="47.83912" lon="-0.95712">
        <ele>45.2</ele>
        <time>2020-12-20T10:32:09Z</time>
      </trkpt>
      <trkpt lat="47.83907" lon="-0.9571">
        <ele>45.3</ele>
        <time>2020-12-20T10:32:10Z</time>
      </trkpt>
      <trkpt lat="47.83901" lon="-0.95709">
        <ele>45.4</ele>
        <time>2020-12-20T10:32:11Z</time>
      </trkpt>
      <trkpt lat="47.83895" lon="-0.95708">
        <ele>45.5</ele>
        <time>2020-12-20T10:32:12Z</time>
      </trkpt>
      <trkpt lat="47.83889" lon="-0.95707">
        <ele>45.6</ele>
        <time>2020-12-20T10:32:13Z</time>
      </trkpt>
      <trkpt lat="47.83883" lon="-0.95707">
        <ele>45.8</ele>
        <time>2020-12-20T10:32:14Z</time>
      </trkpt>
      <trkpt lat="47.83876" lon="-0.95705">
        <ele>45.9</ele>
        <time>2020-12-20T10:32:15Z</time>
      </trkpt>
      <trkpt lat="47.8387" lon="-0.95704">
        <ele>46</ele>
        <time>2020-12-20T10:32:16Z</time>
      </trkpt>
      <trkpt lat="47.83864" lon="-0.95702">
        <ele>46.1</ele>
        <time>2020-12-20T10:32:17Z</time>
      </trkpt>
      <trkpt lat="47.83857" lon="-0.95702">
        <ele>46.3</ele>
        <time>2020-12-20T10:32:18Z</time>
      </trkpt>
      <trkpt lat="47.83851" lon="-0.957">
        <ele>46.4</ele>
        <time>2020-12-20T10:32:19Z</time>
      </trkpt>
      <trkpt lat="47.83844" lon="-0.95698">
        <ele>46.5</ele>
        <time>2020-12-20T10:32:20Z</time>
      </trkpt>
      <trkpt lat="47.83838" lon="-0.95697">
        <ele>46.6</ele>
        <time>2020-12-20T10:32:21Z</time>
      </trkpt>
      <trkpt lat="47.83833" lon="-0.95695">
        <ele>46.7</ele>
        <time>2020-12-20T10:32:22Z</time>
      </trkpt>
      <trkpt lat="47.83826" lon="-0.95693">
        <ele>46.7</ele>
        <time>2020-12-20T10:32:23Z</time>
      </trkpt>
      <trkpt lat="47.8382" lon="-0.95692">
        <ele>46.8</ele>
        <time>2020-12-20T10:32:24Z</time>
      </trkpt>
      <trkpt lat="47.83815" lon="-0.95691">
        <ele>46.8</ele>
        <time>2020-12-20T10:32:25Z</time>
      </trkpt>
      <trkpt lat="47.83809" lon="-0.9569">
        <ele>46.9</ele>
        <time>2020-12-20T10:32:26Z</time>
      </trkpt>
      <trkpt lat="47.83805" lon="-0.95688">
        <ele>46.9</ele>
        <time>2020-12-20T10:32:27Z</time>
      </trkpt>
      <trkpt lat="47.83798" lon="-0.95686">
        <ele>47</ele>
        <time>2020-12-20T10:32:28Z</time>
      </trkpt>
      <trkpt lat="47.83792" lon="-0.95684">
        <ele>47.1</ele>
        <time>2020-12-20T10:32:29Z</time>
      </trkpt>
      <trkpt lat="47.83786" lon="-0.95683">
        <ele>47.2</ele>
        <time>2020-12-20T10:32:30Z</time>
      </trkpt>
      <trkpt lat="47.83781" lon="-0.95681">
        <ele>47.3</ele>
        <time>2020-12-20T10:32:31Z</time>
      </trkpt>
      <trkpt lat="47.83776" lon="-0.95679">
        <ele>47.4</ele>
        <time>2020-12-20T10:32:32Z</time>
      </trkpt>
      <trkpt lat="47.83771" lon="-0.95678">
        <ele>47.5</ele>
        <time>2020-12-20T10:32:33Z</time>
      </trkpt>
      <trkpt lat="47.83765" lon="-0.95676">
        <ele>47.6</ele>
        <time>2020-12-20T10:32:34Z</time>
      </trkpt>
      <trkpt lat="47.8376" lon="-0.95674">
        <ele>47.7</ele>
        <time>2020-12-20T10:32:35Z</time>
      </trkpt>
      <trkpt lat="47.83756" lon="-0.95673">
        <ele>47.8</ele>
        <time>2020-12-20T10:32:36Z</time>
      </trkpt>
      <trkpt lat="47.83751" lon="-0.95671">
        <ele>47.9</ele>
        <time>2020-12-20T10:32:37Z</time>
      </trkpt>
      <trkpt lat="47.83746" lon="-0.95669">
        <ele>47.8</ele>
        <time>2020-12-20T10:32:38Z</time>
      </trkpt>
      <trkpt lat="47.83742" lon="-0.95668">
        <ele>47.7</ele>
        <time>2020-12-20T10:32:39Z</time>
      </trkpt>
      <trkpt lat="47.83738" lon="-0.95667">
        <ele>47.6</ele>
        <time>2020-12-20T10:32:40Z</time>
      </trkpt>
      <trkpt lat="47.83734" lon="-0.95665">
        <ele>47.4</ele>
        <time>2020-12-20T10:32:41Z</time>
      </trkpt>
      <trkpt lat="47.83732" lon="-0.95663">
        <ele>47.3</ele>
        <time>2020-12-20T10:32:42Z</time>
      </trkpt>
      <trkpt lat="47.8373" lon="-0.9566">
        <ele>47.2</ele>
        <time>2020-12-20T10:32:43Z</time>
      </trkpt>
      <trkpt lat="47.83729" lon="-0.95656">
        <ele>47.1</ele>
        <time>2020-12-20T10:32:44Z</time>
      </trkpt>
      <trkpt lat="47.83729" lon="-0.9565">
        <ele>47</ele>
        <time>2020-12-20T10:32:45Z</time>
      </trkpt>
      <trkpt lat="47.83731" lon="-0.95641">
        <ele>47</ele>
        <time>2020-12-20T10:32:46Z</time>
      </trkpt>
      <trkpt lat="47.83733" lon="-0.95634">
        <ele>47</ele>
        <time>2020-12-20T10:32:47Z</time>
      </trkpt>
      <trkpt lat="47.83735" lon="-0.95626">
        <ele>47</ele>
        <time>2020-12-20T10:32:48Z</time>
      </trkpt>
      <trkpt lat="47.83737" lon="-0.95618">
        <ele>46.9</ele>
        <time>2020-12-20T10:32:49Z</time>
      </trkpt>
      <trkpt lat="47.83739" lon="-0.9561">
        <ele>46.9</ele>
        <time>2020-12-20T10:32:50Z</time>
      </trkpt>
      <trkpt lat="47.83742" lon="-0.95601">
        <ele>46.9</ele>
        <time>2020-12-20T10:32:51Z</time>
      </trkpt>
      <trkpt lat="47.83745" lon="-0.95593">
        <ele>46.9</ele>
        <time>2020-12-20T10:32:52Z</time>
      </trkpt>
      <trkpt lat="47.83748" lon="-0.95585">
        <ele>46.9</ele>
        <time>2020-12-20T10:32:53Z</time>
      </trkpt>
      <trkpt lat="47.83751" lon="-0.95578">
        <ele>47</ele>
        <time>2020-12-20T10:32:54Z</time>
      </trkpt>
      <trkpt lat="47.83755" lon="-0.95569">
        <ele>47</ele>
        <time>2020-12-20T10:32:55Z</time>
      </trkpt>
      <trkpt lat="47.83759" lon="-0.9556">
        <ele>46.9</ele>
        <time>2020-12-20T10:32:56Z</time>
      </trkpt>
      <trkpt lat="47.83762" lon="-0.95552">
        <ele>46.9</ele>
        <time>2020-12-20T10:32:57Z</time>
      </trkpt>
      <trkpt lat="47.83765" lon="-0.95544">
        <ele>46.8</ele>
        <time>2020-12-20T10:32:58Z</time>
      </trkpt>
      <trkpt lat="47.83769" lon="-0.95535">
        <ele>46.6</ele>
        <time>2020-12-20T10:32:59Z</time>
      </trkpt>
      <trkpt lat="47.83772" lon="-0.95526">
        <ele>46.4</ele>
        <time>2020-12-20T10:33:00Z</time>
      </trkpt>
      <trkpt lat="47.83776" lon="-0.95517">
        <ele>46.2</ele>
        <time>2020-12-20T10:33:01Z</time>
      </trkpt>
      <trkpt lat="47.83778" lon="-0.9551">
        <ele>46</ele>
        <time>2020-12-20T10:33:02Z</time>
      </trkpt>
      <trkpt lat="47.83782" lon="-0.95501">
        <ele>45.7</ele>
        <time>2020-12-20T10:33:03Z</time>
      </trkpt>
      <trkpt lat="47.83785" lon="-0.95492">
        <ele>45.1</ele>
        <time>2020-12-20T10:33:04Z</time>
      </trkpt>
      <trkpt lat="47.83787" lon="-0.95483">
        <ele>44.5</ele>
        <time>2020-12-20T10:33:05Z</time>
      </trkpt>
      <trkpt lat="47.8379" lon="-0.95475">
        <ele>43.9</ele>
        <time>2020-12-20T10:33:06Z</time>
      </trkpt>
      <trkpt lat="47.83791" lon="-0.95468">
        <ele>43.5</ele>
        <time>2020-12-20T10:33:07Z</time>
      </trkpt>
      <trkpt lat="47.83793" lon="-0.95458">
        <ele>42.9</ele>
        <time>2020-12-20T10:33:08Z</time>
      </trkpt>
      <trkpt lat="47.83794" lon="-0.95449">
        <ele>42.4</ele>
        <time>2020-12-20T10:33:09Z</time>
      </trkpt>
      <trkpt lat="47.83795" lon="-0.95441">
        <ele>42</ele>
        <time>2020-12-20T10:33:10Z</time>
      </trkpt>
      <trkpt lat="47.83795" lon="-0.95432">
        <ele>41.6</ele>
        <time>2020-12-20T10:33:11Z</time>
      </trkpt>
      <trkpt lat="47.83795" lon="-0.95422">
        <ele>41.1</ele>
        <time>2020-12-20T10:33:12Z</time>
      </trkpt>
      <trkpt lat="47.83796" lon="-0.95412">
        <ele>40.7</ele>
        <time>2020-12-20T10:33:13Z</time>
      </trkpt>
      <trkpt lat="47.83797" lon="-0.95403">
        <ele>40.5</ele>
        <time>2020-12-20T10:33:14Z</time>
      </trkpt>
      <trkpt lat="47.83798" lon="-0.95393">
        <ele>40.3</ele>
        <time>2020-12-20T10:33:15Z</time>
      </trkpt>
      <trkpt lat="47.83798" lon="-0.95385">
        <ele>40.2</ele>
        <time>2020-12-20T10:33:16Z</time>
      </trkpt>
      <trkpt lat="47.83799" lon="-0.95374">
        <ele>40</ele>
        <time>2020-12-20T10:33:17Z</time>
      </trkpt>
      <trkpt lat="47.838" lon="-0.95365">
        <ele>39.9</ele>
        <time>2020-12-20T10:33:18Z</time>
      </trkpt>
      <trkpt lat="47.838" lon="-0.95355">
        <ele>39.7</ele>
        <time>2020-12-20T10:33:19Z</time>
      </trkpt>
      <trkpt lat="47.83801" lon="-0.95346">
        <ele>39.6</ele>
        <time>2020-12-20T10:33:20Z</time>
      </trkpt>
      <trkpt lat="47.83802" lon="-0.95337">
        <ele>39.4</ele>
        <time>2020-12-20T10:33:21Z</time>
      </trkpt>
      <trkpt lat="47.83802" lon="-0.95327">
        <ele>39.5</ele>
        <time>2020-12-20T10:33:22Z</time>
      </trkpt>
      <trkpt lat="47.83802" lon="-0.95317">
        <ele>39.8</ele>
        <time>2020-12-20T10:33:23Z</time>
      </trkpt>
      <trkpt lat="47.83802" lon="-0.95308">
        <ele>40.1</ele>
        <time>2020-12-20T10:33:24Z</time>
      </trkpt>
      <trkpt lat="47.83803" lon="-0.953">
        <ele>40.3</ele>
        <time>2020-12-20T10:33:25Z</time>
      </trkpt>
      <trkpt lat="47.83804" lon="-0.9529">
        <ele>40.5</ele>
        <time>2020-12-20T10:33:26Z</time>
      </trkpt>
      <trkpt lat="47.83805" lon="-0.95281">
        <ele>40.8</ele>
        <time>2020-12-20T10:33:27Z</time>
      </trkpt>
      <trkpt lat="47.83808" lon="-0.95274">
        <ele>41</ele>
        <time>2020-12-20T10:33:28Z</time>
      </trkpt>
      <trkpt lat="47.83811" lon="-0.95267">
        <ele>41.2</ele>
        <time>2020-12-20T10:33:29Z</time>
      </trkpt>
      <trkpt lat="47.83812" lon="-0.95259">
        <ele>41.5</ele>
        <time>2020-12-20T10:33:30Z</time>
      </trkpt>
      <trkpt lat="47.83811" lon="-0.95252">
        <ele>41.7</ele>
        <time>2020-12-20T10:33:31Z</time>
      </trkpt>
      <trkpt lat="47.83808" lon="-0.95246">
        <ele>41.9</ele>
        <time>2020-12-20T10:33:32Z</time>
      </trkpt>
      <trkpt lat="47.83804" lon="-0.95239">
        <ele>42.2</ele>
        <time>2020-12-20T10:33:33Z</time>
      </trkpt>
      <trkpt lat="47.838" lon="-0.95234">
        <ele>42.4</ele>
        <time>2020-12-20T10:33:34Z</time>
      </trkpt>
      <trkpt lat="47.83796" lon="-0.95229">
        <ele>42.7</ele>
        <time>2020-12-20T10:33:35Z</time>
      </trkpt>
      <trkpt lat="47.83792" lon="-0.95223">
        <ele>43</ele>
        <time>2020-12-20T10:33:36Z</time>
      </trkpt>
      <trkpt lat="47.83788" lon="-0.95217">
        <ele>43.3</ele>
        <time>2020-12-20T10:33:37Z</time>
      </trkpt>
      <trkpt lat="47.83785" lon="-0.95211">
        <ele>43.6</ele>
        <time>2020-12-20T10:33:38Z</time>
      </trkpt>
      <trkpt lat="47.83781" lon="-0.95206">
        <ele>43.8</ele>
        <time>2020-12-20T10:33:39Z</time>
      </trkpt>
      <trkpt lat="47.83777" lon="-0.95201">
        <ele>44.1</ele>
        <time>2020-12-20T10:33:40Z</time>
      </trkpt>
      <trkpt lat="47.83773" lon="-0.95197">
        <ele>44.3</ele>
        <time>2020-12-20T10:33:41Z</time>
      </trkpt>
      <trkpt lat="47.83769" lon="-0.95193">
        <ele>44.5</ele>
        <time>2020-12-20T10:33:42Z</time>
      </trkpt>
      <trkpt lat="47.83763" lon="-0.95189">
        <ele>44.7</ele>
        <time>2020-12-20T10:33:43Z</time>
      </trkpt>
      <trkpt lat="47.83758" lon="-0.95185">
        <ele>44.9</ele>
        <time>2020-12-20T10:33:44Z</time>
      </trkpt>
      <trkpt lat="47.83753" lon="-0.95181">
        <ele>45.1</ele>
        <time>2020-12-20T10:33:45Z</time>
      </trkpt>
      <trkpt lat="47.83749" lon="-0.95178">
        <ele>45.3</ele>
        <time>2020-12-20T10:33:46Z</time>
      </trkpt>
      <trkpt lat="47.83745" lon="-0.95175">
        <ele>45.2</ele>
        <time>2020-12-20T10:33:47Z</time>
      </trkpt>
      <trkpt lat="47.83741" lon="-0.95173">
        <ele>45</ele>
        <time>2020-12-20T10:33:48Z</time>
      </trkpt>
      <trkpt lat="47.83736" lon="-0.95171">
        <ele>44.8</ele>
        <time>2020-12-20T10:33:49Z</time>
      </trkpt>
      <trkpt lat="47.83732" lon="-0.95168">
        <ele>44.6</ele>
        <time>2020-12-20T10:33:50Z</time>
      </trkpt>
      <trkpt lat="47.83728" lon="-0.95165">
        <ele>44.5</ele>
        <time>2020-12-20T10:33:51Z</time>
      </trkpt>
      <trkpt lat="47.83724" lon="-0.95162">
        <ele>44.3</ele>
        <time>2020-12-20T10:33:52Z</time>
      </trkpt>
      <trkpt lat="47.83721" lon="-0.9516">
        <ele>44.2</ele>
        <time>2020-12-20T10:33:53Z</time>
      </trkpt>
      <trkpt lat="47.83717" lon="-0.95157">
        <ele>44.1</ele>
        <time>2020-12-20T10:33:54Z</time>
      </trkpt>
      <trkpt lat="47.83712" lon="-0.95154">
        <ele>43.9</ele>
        <time>2020-12-20T10:33:55Z</time>
      </trkpt>
      <trkpt lat="47.83707" lon="-0.95151">
        <ele>43.8</ele>
        <time>2020-12-20T10:33:56Z</time>
      </trkpt>
      <trkpt lat="47.83702" lon="-0.95149">
        <ele>43.6</ele>
        <time>2020-12-20T10:33:57Z</time>
      </trkpt>
      <trkpt lat="47.83699" lon="-0.95146">
        <ele>43.6</ele>
        <time>2020-12-20T10:33:58Z</time>
      </trkpt>
      <trkpt lat="47.83695" lon="-0.95142">
        <ele>43.6</ele>
        <time>2020-12-20T10:33:59Z</time>
      </trkpt>
      <trkpt lat="47.83693" lon="-0.95139">
        <ele>43.7</ele>
        <time>2020-12-20T10:34:00Z</time>
      </trkpt>
      <trkpt lat="47.83691" lon="-0.95136">
        <ele>43.8</ele>
        <time>2020-12-20T10:34:01Z</time>
      </trkpt>
      <trkpt lat="47.83688" lon="-0.95134">
        <ele>43.8</ele>
        <time>2020-12-20T10:34:02Z</time>
      </trkpt>
      <trkpt lat="47.83685" lon="-0.95132">
        <ele>43.8</ele>
        <time>2020-12-20T10:34:03Z</time>
      </trkpt>
      <trkpt lat="47.83682" lon="-0.9513">
        <ele>43.8</ele>
        <time>2020-12-20T10:34:04Z</time>
      </trkpt>
      <trkpt lat="47.83679" lon="-0.95128">
        <ele>43.8</ele>
        <time>2020-12-20T10:34:05Z</time>
      </trkpt>
      <trkpt lat="47.83675" lon="-0.95126">
        <ele>43.8</ele>
        <time>2020-12-20T10:34:06Z</time>
      </trkpt>
      <trkpt lat="47.83671" lon="-0.95123">
        <ele>43.8</ele>
        <time>2020-12-20T10:34:07Z</time>
      </trkpt>
      <trkpt lat="47.83668" lon="-0.95121">
        <ele>43.9</ele>
        <time>2020-12-20T10:34:08Z</time>
      </trkpt>
      <trkpt lat="47.83665" lon="-0.95119">
        <ele>43.9</ele>
        <time>2020-12-20T10:34:09Z</time>
      </trkpt>
      <trkpt lat="47.83661" lon="-0.95116">
        <ele>44</ele>
        <time>2020-12-20T10:34:10Z</time>
      </trkpt>
      <trkpt lat="47.83657" lon="-0.95113">
        <ele>44.1</ele>
        <time>2020-12-20T10:34:11Z</time>
      </trkpt>
      <trkpt lat="47.83654" lon="-0.95109">
        <ele>44.3</ele>
        <time>2020-12-20T10:34:12Z</time>
      </trkpt>
      <trkpt lat="47.83652" lon="-0.95107">
        <ele>44.3</ele>
        <time>2020-12-20T10:34:13Z</time>
      </trkpt>
      <trkpt lat="47.8365" lon="-0.95105">
        <ele>44.4</ele>
        <time>2020-12-20T10:34:14Z</time>
      </trkpt>
      <trkpt lat="47.83647" lon="-0.95102">
        <ele>44.5</ele>
        <time>2020-12-20T10:34:15Z</time>
      </trkpt>
      <trkpt lat="47.83642" lon="-0.95098">
        <ele>44.5</ele>
        <time>2020-12-20T10:34:16Z</time>
      </trkpt>
      <trkpt lat="47.83637" lon="-0.95095">
        <ele>44.4</ele>
        <time>2020-12-20T10:34:17Z</time>
      </trkpt>
      <trkpt lat="47.83635" lon="-0.95093">
        <ele>44.5</ele>
        <time>2020-12-20T10:34:18Z</time>
      </trkpt>
      <trkpt lat="47.83633" lon="-0.9509">
        <ele>44.5</ele>
        <time>2020-12-20T10:34:19Z</time>
      </trkpt>
      <trkpt lat="47.83631" lon="-0.95089">
        <ele>44.5</ele>
        <time>2020-12-20T10:34:20Z</time>
      </trkpt>
      <trkpt lat="47.83629" lon="-0.95088">
        <ele>44.4</ele>
        <time>2020-12-20T10:34:21Z</time>
      </trkpt>
      <trkpt lat="47.83626" lon="-0.95086">
        <ele>44.4</ele>
        <time>2020-12-20T10:34:22Z</time>
      </trkpt>
      <trkpt lat="47.83624" lon="-0.95085">
        <ele>44.3</ele>
        <time>2020-12-20T10:34:23Z</time>
      </trkpt>
      <trkpt lat="47.83621" lon="-0.95082">
        <ele>44.4</ele>
        <time>2020-12-20T10:34:24Z</time>
      </trkpt>
      <trkpt lat="47.83618" lon="-0.9508">
        <ele>44.4</ele>
        <time>2020-12-20T10:34:25Z</time>
      </trkpt>
      <trkpt lat="47.83614" lon="-0.95077">
        <ele>44.4</ele>
        <time>2020-12-20T10:34:26Z</time>
      </trkpt>
      <trkpt lat="47.83612" lon="-0.95074">
        <ele>44.6</ele>
        <time>2020-12-20T10:34:27Z</time>
      </trkpt>
      <trkpt lat="47.83608" lon="-0.95071">
        <ele>44.6</ele>
        <time>2020-12-20T10:34:28Z</time>
      </trkpt>
      <trkpt lat="47.83607" lon="-0.95069">
        <ele>44.8</ele>
        <time>2020-12-20T10:34:29Z</time>
      </trkpt>
      <trkpt lat="47.83605" lon="-0.95066">
        <ele>45</ele>
        <time>2020-12-20T10:34:30Z</time>
      </trkpt>
      <trkpt lat="47.83601" lon="-0.95062">
        <ele>45.1</ele>
        <time>2020-12-20T10:34:31Z</time>
      </trkpt>
      <trkpt lat="47.83599" lon="-0.95059">
        <ele>45.3</ele>
        <time>2020-12-20T10:34:32Z</time>
      </trkpt>
      <trkpt lat="47.83598" lon="-0.95058">
        <ele>45.4</ele>
        <time>2020-12-20T10:34:33Z</time>
      </trkpt>
      <trkpt lat="47.83596" lon="-0.95056">
        <ele>45.5</ele>
        <time>2020-12-20T10:34:34Z</time>
      </trkpt>
      <trkpt lat="47.83593" lon="-0.95053">
        <ele>45.7</ele>
        <time>2020-12-20T10:34:35Z</time>
      </trkpt>
      <trkpt lat="47.83591" lon="-0.9505">
        <ele>45.9</ele>
        <time>2020-12-20T10:34:36Z</time>
      </trkpt>
      <trkpt lat="47.83588" lon="-0.95046">
        <ele>46.2</ele>
        <time>2020-12-20T10:34:37Z</time>
      </trkpt>
      <trkpt lat="47.83585" lon="-0.95042">
        <ele>46.5</ele>
        <time>2020-12-20T10:34:38Z</time>
      </trkpt>
      <trkpt lat="47.83581" lon="-0.95039">
        <ele>46.7</ele>
        <time>2020-12-20T10:34:39Z</time>
      </trkpt>
      <trkpt lat="47.83578" lon="-0.95034">
        <ele>47</ele>
        <time>2020-12-20T10:34:40Z</time>
      </trkpt>
      <trkpt lat="47.83576" lon="-0.95031">
        <ele>47.2</ele>
        <time>2020-12-20T10:34:41Z</time>
      </trkpt>
      <trkpt lat="47.83573" lon="-0.95028">
        <ele>47.4</ele>
        <time>2020-12-20T10:34:42Z</time>
      </trkpt>
      <trkpt lat="47.8357" lon="-0.95025">
        <ele>47.5</ele>
        <time>2020-12-20T10:34:43Z</time>
      </trkpt>
      <trkpt lat="47.83569" lon="-0.95022">
        <ele>47.7</ele>
        <time>2020-12-20T10:34:44Z</time>
      </trkpt>
      <trkpt lat="47.83566" lon="-0.95019">
        <ele>47.8</ele>
        <time>2020-12-20T10:34:45Z</time>
      </trkpt>
      <trkpt lat="47.83562" lon="-0.95015">
        <ele>48</ele>
        <time>2020-12-20T10:34:46Z</time>
      </trkpt>
      <trkpt lat="47.83559" lon="-0.95012">
        <ele>48.1</ele>
        <time>2020-12-20T10:34:47Z</time>
      </trkpt>
      <trkpt lat="47.83557" lon="-0.95009">
        <ele>48.2</ele>
        <time>2020-12-20T10:34:48Z</time>
      </trkpt>
      <trkpt lat="47.83556" lon="-0.95008">
        <ele>48.3</ele>
        <time>2020-12-20T10:34:49Z</time>
      </trkpt>
      <trkpt lat="47.83553" lon="-0.95005">
        <ele>48.3</ele>
        <time>2020-12-20T10:34:50Z</time>
      </trkpt>
      <trkpt lat="47.83551" lon="-0.95001">
        <ele>48.6</ele>
        <time>2020-12-20T10:34:51Z</time>
      </trkpt>
      <trkpt lat="47.83549" lon="-0.94996">
        <ele>48.6</ele>
        <time>2020-12-20T10:34:52Z</time>
      </trkpt>
      <trkpt lat="47.83548" lon="-0.94992">
        <ele>48.6</ele>
        <time>2020-12-20T10:34:53Z</time>
      </trkpt>
      <trkpt lat="47.83547" lon="-0.94988">
        <ele>48.7</ele>
        <time>2020-12-20T10:34:54Z</time>
      </trkpt>
      <trkpt lat="47.83545" lon="-0.94983">
        <ele>48.6</ele>
        <time>2020-12-20T10:34:55Z</time>
      </trkpt>
      <trkpt lat="47.83543" lon="-0.94979">
        <ele>48.6</ele>
        <time>2020-12-20T10:34:56Z</time>
      </trkpt>
      <trkpt lat="47.83541" lon="-0.94974">
        <ele>48.6</ele>
        <time>2020-12-20T10:34:57Z</time>
      </trkpt>
      <trkpt lat="47.83539" lon="-0.9497">
        <ele>48.6</ele>
        <time>2020-12-20T10:34:58Z</time>
      </trkpt>
      <trkpt lat="47.83537" lon="-0.94965">
        <ele>48.6</ele>
        <time>2020-12-20T10:34:59Z</time>
      </trkpt>
      <trkpt lat="47.83534" lon="-0.9496">
        <ele>48.5</ele>
        <time>2020-12-20T10:35:00Z</time>
      </trkpt>
      <trkpt lat="47.83532" lon="-0.94955">
        <ele>48.5</ele>
        <time>2020-12-20T10:35:01Z</time>
      </trkpt>
      <trkpt lat="47.8353" lon="-0.94948">
        <ele>48.6</ele>
        <time>2020-12-20T10:35:02Z</time>
      </trkpt>
      <trkpt lat="47.83528" lon="-0.94942">
        <ele>48.6</ele>
        <time>2020-12-20T10:35:03Z</time>
      </trkpt>
      <trkpt lat="47.83525" lon="-0.94937">
        <ele>48.6</ele>
        <time>2020-12-20T10:35:04Z</time>
      </trkpt>
      <trkpt lat="47.83523" lon="-0.94931">
        <ele>48.7</ele>
        <time>2020-12-20T10:35:05Z</time>
      </trkpt>
      <trkpt lat="47.8352" lon="-0.94926">
        <ele>48.7</ele>
        <time>2020-12-20T10:35:06Z</time>
      </trkpt>
      <trkpt lat="47.83516" lon="-0.9492">
        <ele>48.7</ele>
        <time>2020-12-20T10:35:07Z</time>
      </trkpt>
      <trkpt lat="47.83512" lon="-0.94915">
        <ele>48.6</ele>
        <time>2020-12-20T10:35:08Z</time>
      </trkpt>
      <trkpt lat="47.8351" lon="-0.9491">
        <ele>48.8</ele>
        <time>2020-12-20T10:35:09Z</time>
      </trkpt>
      <trkpt lat="47.83507" lon="-0.94906">
        <ele>48.8</ele>
        <time>2020-12-20T10:35:10Z</time>
      </trkpt>
      <trkpt lat="47.83504" lon="-0.94901">
        <ele>48.9</ele>
        <time>2020-12-20T10:35:11Z</time>
      </trkpt>
      <trkpt lat="47.83502" lon="-0.94895">
        <ele>49.1</ele>
        <time>2020-12-20T10:35:12Z</time>
      </trkpt>
      <trkpt lat="47.83499" lon="-0.9489">
        <ele>49.2</ele>
        <time>2020-12-20T10:35:13Z</time>
      </trkpt>
      <trkpt lat="47.83497" lon="-0.94884">
        <ele>49.4</ele>
        <time>2020-12-20T10:35:14Z</time>
      </trkpt>
      <trkpt lat="47.83495" lon="-0.94879">
        <ele>49.4</ele>
        <time>2020-12-20T10:35:15Z</time>
      </trkpt>
      <trkpt lat="47.83493" lon="-0.94875">
        <ele>49.5</ele>
        <time>2020-12-20T10:35:16Z</time>
      </trkpt>
      <trkpt lat="47.8349" lon="-0.9487">
        <ele>49.5</ele>
        <time>2020-12-20T10:35:17Z</time>
      </trkpt>
      <trkpt lat="47.83489" lon="-0.94864">
        <ele>49.7</ele>
        <time>2020-12-20T10:35:18Z</time>
      </trkpt>
      <trkpt lat="47.83487" lon="-0.94859">
        <ele>49.8</ele>
        <time>2020-12-20T10:35:19Z</time>
      </trkpt>
      <trkpt lat="47.83487" lon="-0.94854">
        <ele>50.1</ele>
        <time>2020-12-20T10:35:20Z</time>
      </trkpt>
      <trkpt lat="47.83486" lon="-0.9485">
        <ele>50.2</ele>
        <time>2020-12-20T10:35:21Z</time>
      </trkpt>
      <trkpt lat="47.83486" lon="-0.94843">
        <ele>50.5</ele>
        <time>2020-12-20T10:35:22Z</time>
      </trkpt>
      <trkpt lat="47.83486" lon="-0.94839">
        <ele>50.7</ele>
        <time>2020-12-20T10:35:23Z</time>
      </trkpt>
      <trkpt lat="47.83486" lon="-0.94834">
        <ele>51</ele>
        <time>2020-12-20T10:35:24Z</time>
      </trkpt>
      <trkpt lat="47.83487" lon="-0.9483">
        <ele>51.1</ele>
        <time>2020-12-20T10:35:25Z</time>
      </trkpt>
      <trkpt lat="47.83487" lon="-0.94826">
        <ele>51.1</ele>
        <time>2020-12-20T10:35:26Z</time>
      </trkpt>
      <trkpt lat="47.83486" lon="-0.94822">
        <ele>51</ele>
        <time>2020-12-20T10:35:27Z</time>
      </trkpt>
      <trkpt lat="47.83483" lon="-0.94818">
        <ele>50.8</ele>
        <time>2020-12-20T10:35:28Z</time>
      </trkpt>
      <trkpt lat="47.8348" lon="-0.94815">
        <ele>50.6</ele>
        <time>2020-12-20T10:35:29Z</time>
      </trkpt>
      <trkpt lat="47.83475" lon="-0.94811">
        <ele>50.3</ele>
        <time>2020-12-20T10:35:30Z</time>
      </trkpt>
      <trkpt lat="47.8347" lon="-0.94808">
        <ele>49.9</ele>
        <time>2020-12-20T10:35:31Z</time>
      </trkpt>
      <trkpt lat="47.83464" lon="-0.94804">
        <ele>49.6</ele>
        <time>2020-12-20T10:35:32Z</time>
      </trkpt>
      <trkpt lat="47.83459" lon="-0.948">
        <ele>49.2</ele>
        <time>2020-12-20T10:35:33Z</time>
      </trkpt>
      <trkpt lat="47.83454" lon="-0.94796">
        <ele>48.9</ele>
        <time>2020-12-20T10:35:34Z</time>
      </trkpt>
      <trkpt lat="47.83447" lon="-0.9479">
        <ele>48.5</ele>
        <time>2020-12-20T10:35:35Z</time>
      </trkpt>
      <trkpt lat="47.83442" lon="-0.94786">
        <ele>48.2</ele>
        <time>2020-12-20T10:35:36Z</time>
      </trkpt>
      <trkpt lat="47.83436" lon="-0.94781">
        <ele>47.9</ele>
        <time>2020-12-20T10:35:37Z</time>
      </trkpt>
      <trkpt lat="47.83432" lon="-0.94778">
        <ele>47.6</ele>
        <time>2020-12-20T10:35:38Z</time>
      </trkpt>
      <trkpt lat="47.83425" lon="-0.94773">
        <ele>47.3</ele>
        <time>2020-12-20T10:35:39Z</time>
      </trkpt>
      <trkpt lat="47.8342" lon="-0.94768">
        <ele>47</ele>
        <time>2020-12-20T10:35:40Z</time>
      </trkpt>
      <trkpt lat="47.83414" lon="-0.94764">
        <ele>46.6</ele>
        <time>2020-12-20T10:35:41Z</time>
      </trkpt>
      <trkpt lat="47.83408" lon="-0.9476">
        <ele>46.3</ele>
        <time>2020-12-20T10:35:42Z</time>
      </trkpt>
      <trkpt lat="47.83402" lon="-0.94756">
        <ele>45.9</ele>
        <time>2020-12-20T10:35:43Z</time>
      </trkpt>
      <trkpt lat="47.83396" lon="-0.94751">
        <ele>45.5</ele>
        <time>2020-12-20T10:35:44Z</time>
      </trkpt>
      <trkpt lat="47.83389" lon="-0.94747">
        <ele>45.1</ele>
        <time>2020-12-20T10:35:45Z</time>
      </trkpt>
      <trkpt lat="47.83382" lon="-0.94743">
        <ele>44.7</ele>
        <time>2020-12-20T10:35:46Z</time>
      </trkpt>
      <trkpt lat="47.83375" lon="-0.9474">
        <ele>44.2</ele>
        <time>2020-12-20T10:35:47Z</time>
      </trkpt>
      <trkpt lat="47.83368" lon="-0.94737">
        <ele>43.8</ele>
        <time>2020-12-20T10:35:48Z</time>
      </trkpt>
      <trkpt lat="47.83362" lon="-0.94734">
        <ele>43.5</ele>
        <time>2020-12-20T10:35:49Z</time>
      </trkpt>
      <trkpt lat="47.83355" lon="-0.94732">
        <ele>43.1</ele>
        <time>2020-12-20T10:35:50Z</time>
      </trkpt>
      <trkpt lat="47.83348" lon="-0.94729">
        <ele>42.7</ele>
        <time>2020-12-20T10:35:51Z</time>
      </trkpt>
      <trkpt lat="47.83342" lon="-0.94727">
        <ele>42.4</ele>
        <time>2020-12-20T10:35:52Z</time>
      </trkpt>
      <trkpt lat="47.83334" lon="-0.94724">
        <ele>42</ele>
        <time>2020-12-20T10:35:53Z</time>
      </trkpt>
      <trkpt lat="47.83327" lon="-0.94721">
        <ele>41.8</ele>
        <time>2020-12-20T10:35:54Z</time>
      </trkpt>
      <trkpt lat="47.83321" lon="-0.94718">
        <ele>41.8</ele>
        <time>2020-12-20T10:35:55Z</time>
      </trkpt>
      <trkpt lat="47.83314" lon="-0.94715">
        <ele>41.7</ele>
        <time>2020-12-20T10:35:56Z</time>
      </trkpt>
      <trkpt lat="47.83307" lon="-0.94711">
        <ele>41.6</ele>
        <time>2020-12-20T10:35:57Z</time>
      </trkpt>
      <trkpt lat="47.83301" lon="-0.94707">
        <ele>41.6</ele>
        <time>2020-12-20T10:35:58Z</time>
      </trkpt>
      <trkpt lat="47.83295" lon="-0.94704">
        <ele>41.5</ele>
        <time>2020-12-20T10:35:59Z</time>
      </trkpt>
      <trkpt lat="47.83289" lon="-0.947">
        <ele>41.5</ele>
        <time>2020-12-20T10:36:00Z</time>
      </trkpt>
      <trkpt lat="47.83282" lon="-0.94696">
        <ele>41.5</ele>
        <time>2020-12-20T10:36:01Z</time>
      </trkpt>
      <trkpt lat="47.83276" lon="-0.94692">
        <ele>41.5</ele>
        <time>2020-12-20T10:36:02Z</time>
      </trkpt>
      <trkpt lat="47.8327" lon="-0.94688">
        <ele>41.5</ele>
        <time>2020-12-20T10:36:03Z</time>
      </trkpt>
      <trkpt lat="47.83265" lon="-0.94685">
        <ele>41.5</ele>
        <time>2020-12-20T10:36:04Z</time>
      </trkpt>
      <trkpt lat="47.83258" lon="-0.94681">
        <ele>41.5</ele>
        <time>2020-12-20T10:36:05Z</time>
      </trkpt>
      <trkpt lat="47.83251" lon="-0.94676">
        <ele>41.6</ele>
        <time>2020-12-20T10:36:06Z</time>
      </trkpt>
      <trkpt lat="47.83244" lon="-0.94673">
        <ele>41.6</ele>
        <time>2020-12-20T10:36:07Z</time>
      </trkpt>
      <trkpt lat="47.83239" lon="-0.9467">
        <ele>41.7</ele>
        <time>2020-12-20T10:36:08Z</time>
      </trkpt>
      <trkpt lat="47.83233" lon="-0.94666">
        <ele>41.8</ele>
        <time>2020-12-20T10:36:09Z</time>
      </trkpt>
      <trkpt lat="47.83227" lon="-0.94663">
        <ele>41.8</ele>
        <time>2020-12-20T10:36:10Z</time>
      </trkpt>
      <trkpt lat="47.83221" lon="-0.94659">
        <ele>41.8</ele>
        <time>2020-12-20T10:36:11Z</time>
      </trkpt>
      <trkpt lat="47.83214" lon="-0.94655">
        <ele>41.8</ele>
        <time>2020-12-20T10:36:12Z</time>
      </trkpt>
      <trkpt lat="47.83209" lon="-0.94653">
        <ele>41.8</ele>
        <time>2020-12-20T10:36:13Z</time>
      </trkpt>
      <trkpt lat="47.83203" lon="-0.94649">
        <ele>41.7</ele>
        <time>2020-12-20T10:36:14Z</time>
      </trkpt>
      <trkpt lat="47.83197" lon="-0.94645">
        <ele>41.7</ele>
        <time>2020-12-20T10:36:15Z</time>
      </trkpt>
      <trkpt lat="47.83191" lon="-0.94642">
        <ele>41.7</ele>
        <time>2020-12-20T10:36:16Z</time>
      </trkpt>
      <trkpt lat="47.83186" lon="-0.94639">
        <ele>41.6</ele>
        <time>2020-12-20T10:36:17Z</time>
      </trkpt>
      <trkpt lat="47.83182" lon="-0.94636">
        <ele>41.6</ele>
        <time>2020-12-20T10:36:18Z</time>
      </trkpt>
      <trkpt lat="47.83177" lon="-0.94633">
        <ele>41.6</ele>
        <time>2020-12-20T10:36:19Z</time>
      </trkpt>
      <trkpt lat="47.83172" lon="-0.9463">
        <ele>41.5</ele>
        <time>2020-12-20T10:36:20Z</time>
      </trkpt>
      <trkpt lat="47.83166" lon="-0.94626">
        <ele>41.5</ele>
        <time>2020-12-20T10:36:21Z</time>
      </trkpt>
      <trkpt lat="47.83161" lon="-0.94622">
        <ele>41.4</ele>
        <time>2020-12-20T10:36:22Z</time>
      </trkpt>
      <trkpt lat="47.83154" lon="-0.94616">
        <ele>41.4</ele>
        <time>2020-12-20T10:36:23Z</time>
      </trkpt>
      <trkpt lat="47.8315" lon="-0.94612">
        <ele>41.3</ele>
        <time>2020-12-20T10:36:24Z</time>
      </trkpt>
      <trkpt lat="47.83144" lon="-0.94604">
        <ele>41.3</ele>
        <time>2020-12-20T10:36:25Z</time>
      </trkpt>
      <trkpt lat="47.8314" lon="-0.946">
        <ele>41.2</ele>
        <time>2020-12-20T10:36:26Z</time>
      </trkpt>
      <trkpt lat="47.83134" lon="-0.94593">
        <ele>41.1</ele>
        <time>2020-12-20T10:36:27Z</time>
      </trkpt>
      <trkpt lat="47.83128" lon="-0.94586">
        <ele>41.1</ele>
        <time>2020-12-20T10:36:28Z</time>
      </trkpt>
      <trkpt lat="47.83123" lon="-0.94579">
        <ele>40.9</ele>
        <time>2020-12-20T10:36:29Z</time>
      </trkpt>
      <trkpt lat="47.83119" lon="-0.94574">
        <ele>40.8</ele>
        <time>2020-12-20T10:36:30Z</time>
      </trkpt>
      <trkpt lat="47.83114" lon="-0.94568">
        <ele>40.7</ele>
        <time>2020-12-20T10:36:31Z</time>
      </trkpt>
      <trkpt lat="47.83108" lon="-0.9456">
        <ele>40.5</ele>
        <time>2020-12-20T10:36:32Z</time>
      </trkpt>
      <trkpt lat="47.83103" lon="-0.94555">
        <ele>40.4</ele>
        <time>2020-12-20T10:36:33Z</time>
      </trkpt>
      <trkpt lat="47.83098" lon="-0.94549">
        <ele>40.3</ele>
        <time>2020-12-20T10:36:34Z</time>
      </trkpt>
      <trkpt lat="47.83092" lon="-0.94542">
        <ele>40.2</ele>
        <time>2020-12-20T10:36:35Z</time>
      </trkpt>
      <trkpt lat="47.83086" lon="-0.94535">
        <ele>40</ele>
        <time>2020-12-20T10:36:36Z</time>
      </trkpt>
      <trkpt lat="47.83081" lon="-0.94531">
        <ele>40</ele>
        <time>2020-12-20T10:36:37Z</time>
      </trkpt>
      <trkpt lat="47.83075" lon="-0.94525">
        <ele>40</ele>
        <time>2020-12-20T10:36:38Z</time>
      </trkpt>
      <trkpt lat="47.8307" lon="-0.94522">
        <ele>40.1</ele>
        <time>2020-12-20T10:36:39Z</time>
      </trkpt>
      <trkpt lat="47.83064" lon="-0.94517">
        <ele>40.1</ele>
        <time>2020-12-20T10:36:40Z</time>
      </trkpt>
      <trkpt lat="47.83057" lon="-0.94513">
        <ele>40.2</ele>
        <time>2020-12-20T10:36:41Z</time>
      </trkpt>
      <trkpt lat="47.83053" lon="-0.9451">
        <ele>40.3</ele>
        <time>2020-12-20T10:36:42Z</time>
      </trkpt>
      <trkpt lat="47.83047" lon="-0.94507">
        <ele>40.4</ele>
        <time>2020-12-20T10:36:43Z</time>
      </trkpt>
      <trkpt lat="47.83039" lon="-0.94504">
        <ele>40.5</ele>
        <time>2020-12-20T10:36:44Z</time>
      </trkpt>
      <trkpt lat="47.83033" lon="-0.94502">
        <ele>40.6</ele>
        <time>2020-12-20T10:36:45Z</time>
      </trkpt>
      <trkpt lat="47.83027" lon="-0.94499">
        <ele>40.7</ele>
        <time>2020-12-20T10:36:46Z</time>
      </trkpt>
      <trkpt lat="47.83022" lon="-0.94497">
        <ele>40.7</ele>
        <time>2020-12-20T10:36:47Z</time>
      </trkpt>
      <trkpt lat="47.83016" lon="-0.94496">
        <ele>40.8</ele>
        <time>2020-12-20T10:36:48Z</time>
      </trkpt>
      <trkpt lat="47.83011" lon="-0.94494">
        <ele>40.9</ele>
        <time>2020-12-20T10:36:49Z</time>
      </trkpt>
      <trkpt lat="47.83005" lon="-0.94493">
        <ele>40.9</ele>
        <time>2020-12-20T10:36:50Z</time>
      </trkpt>
      <trkpt lat="47.83" lon="-0.94491">
        <ele>41</ele>
        <time>2020-12-20T10:36:51Z</time>
      </trkpt>
      <trkpt lat="47.82995" lon="-0.9449">
        <ele>41.1</ele>
        <time>2020-12-20T10:36:52Z</time>
      </trkpt>
      <trkpt lat="47.82991" lon="-0.94489">
        <ele>41.2</ele>
        <time>2020-12-20T10:36:53Z</time>
      </trkpt>
      <trkpt lat="47.82985" lon="-0.94488">
        <ele>41.4</ele>
        <time>2020-12-20T10:36:54Z</time>
      </trkpt>
      <trkpt lat="47.82981" lon="-0.94487">
        <ele>41.5</ele>
        <time>2020-12-20T10:36:55Z</time>
      </trkpt>
      <trkpt lat="47.82976" lon="-0.94486">
        <ele>41.6</ele>
        <time>2020-12-20T10:36:56Z</time>
      </trkpt>
      <trkpt lat="47.82971" lon="-0.94485">
        <ele>41.7</ele>
        <time>2020-12-20T10:36:57Z</time>
      </trkpt>
      <trkpt lat="47.82966" lon="-0.94484">
        <ele>41.8</ele>
        <time>2020-12-20T10:36:58Z</time>
      </trkpt>
      <trkpt lat="47.82962" lon="-0.94484">
        <ele>41.9</ele>
        <time>2020-12-20T10:36:59Z</time>
      </trkpt>
      <trkpt lat="47.82959" lon="-0.94484">
        <ele>42</ele>
        <time>2020-12-20T10:37:00Z</time>
      </trkpt>
      <trkpt lat="47.82954" lon="-0.94483">
        <ele>42.1</ele>
        <time>2020-12-20T10:37:01Z</time>
      </trkpt>
      <trkpt lat="47.8295" lon="-0.94482">
        <ele>42.2</ele>
        <time>2020-12-20T10:37:02Z</time>
      </trkpt>
      <trkpt lat="47.82945" lon="-0.94482">
        <ele>42.3</ele>
        <time>2020-12-20T10:37:03Z</time>
      </trkpt>
      <trkpt lat="47.82941" lon="-0.94481">
        <ele>42.4</ele>
        <time>2020-12-20T10:37:04Z</time>
      </trkpt>
      <trkpt lat="47.82937" lon="-0.94481">
        <ele>42.5</ele>
        <time>2020-12-20T10:37:05Z</time>
      </trkpt>
      <trkpt lat="47.82933" lon="-0.94481">
        <ele>42.6</ele>
        <time>2020-12-20T10:37:06Z</time>
      </trkpt>
      <trkpt lat="47.82929" lon="-0.9448">
        <ele>42.7</ele>
        <time>2020-12-20T10:37:07Z</time>
      </trkpt>
      <trkpt lat="47.82925" lon="-0.9448">
        <ele>42.8</ele>
        <time>2020-12-20T10:37:08Z</time>
      </trkpt>
      <trkpt lat="47.82921" lon="-0.94479">
        <ele>42.9</ele>
        <time>2020-12-20T10:37:09Z</time>
      </trkpt>
      <trkpt lat="47.82917" lon="-0.94479">
        <ele>43</ele>
        <time>2020-12-20T10:37:10Z</time>
      </trkpt>
      <trkpt lat="47.82914" lon="-0.94479">
        <ele>43.1</ele>
        <time>2020-12-20T10:37:11Z</time>
      </trkpt>
      <trkpt lat="47.8291" lon="-0.94478">
        <ele>43.2</ele>
        <time>2020-12-20T10:37:12Z</time>
      </trkpt>
      <trkpt lat="47.82906" lon="-0.94478">
        <ele>43.4</ele>
        <time>2020-12-20T10:37:13Z</time>
      </trkpt>
      <trkpt lat="47.82903" lon="-0.94478">
        <ele>43.5</ele>
        <time>2020-12-20T10:37:14Z</time>
      </trkpt>
      <trkpt lat="47.829" lon="-0.94477">
        <ele>43.6</ele>
        <time>2020-12-20T10:37:15Z</time>
      </trkpt>
      <trkpt lat="47.82896" lon="-0.94477">
        <ele>43.7</ele>
        <time>2020-12-20T10:37:16Z</time>
      </trkpt>
      <trkpt lat="47.82892" lon="-0.94477">
        <ele>43.8</ele>
        <time>2020-12-20T10:37:17Z</time>
      </trkpt>
      <trkpt lat="47.82889" lon="-0.94477">
        <ele>43.9</ele>
        <time>2020-12-20T10:37:18Z</time>
      </trkpt>
      <trkpt lat="47.82886" lon="-0.94476">
        <ele>44.1</ele>
        <time>2020-12-20T10:37:19Z</time>
      </trkpt>
      <trkpt lat="47.82882" lon="-0.94475">
        <ele>44.2</ele>
        <time>2020-12-20T10:37:20Z</time>
      </trkpt>
      <trkpt lat="47.82878" lon="-0.94475">
        <ele>44.3</ele>
        <time>2020-12-20T10:37:21Z</time>
      </trkpt>
      <trkpt lat="47.82875" lon="-0.94474">
        <ele>44.5</ele>
        <time>2020-12-20T10:37:22Z</time>
      </trkpt>
      <trkpt lat="47.82872" lon="-0.94474">
        <ele>44.6</ele>
        <time>2020-12-20T10:37:23Z</time>
      </trkpt>
      <trkpt lat="47.82868" lon="-0.94474">
        <ele>44.7</ele>
        <time>2020-12-20T10:37:24Z</time>
      </trkpt>
      <trkpt lat="47.82866" lon="-0.94475">
        <ele>44.8</ele>
        <time>2020-12-20T10:37:25Z</time>
      </trkpt>
      <trkpt lat="47.82863" lon="-0.94475">
        <ele>44.9</ele>
        <time>2020-12-20T10:37:26Z</time>
      </trkpt>
      <trkpt lat="47.82859" lon="-0.94475">
        <ele>45</ele>
        <time>2020-12-20T10:37:27Z</time>
      </trkpt>
      <trkpt lat="47.82856" lon="-0.94475">
        <ele>45.1</ele>
        <time>2020-12-20T10:37:28Z</time>
      </trkpt>
      <trkpt lat="47.82853" lon="-0.94476">
        <ele>45.2</ele>
        <time>2020-12-20T10:37:29Z</time>
      </trkpt>
      <trkpt lat="47.82849" lon="-0.94476">
        <ele>45.3</ele>
        <time>2020-12-20T10:37:30Z</time>
      </trkpt>
      <trkpt lat="47.82847" lon="-0.94476">
        <ele>45.4</ele>
        <time>2020-12-20T10:37:31Z</time>
      </trkpt>
      <trkpt lat="47.82843" lon="-0.94477">
        <ele>45.5</ele>
        <time>2020-12-20T10:37:32Z</time>
      </trkpt>
      <trkpt lat="47.8284" lon="-0.94477">
        <ele>45.6</ele>
        <time>2020-12-20T10:37:33Z</time>
      </trkpt>
      <trkpt lat="47.82837" lon="-0.94477">
        <ele>45.7</ele>
        <time>2020-12-20T10:37:34Z</time>
      </trkpt>
      <trkpt lat="47.82833" lon="-0.94477">
        <ele>45.8</ele>
        <time>2020-12-20T10:37:35Z</time>
      </trkpt>
      <trkpt lat="47.8283" lon="-0.94477">
        <ele>45.8</ele>
        <time>2020-12-20T10:37:36Z</time>
      </trkpt>
      <trkpt lat="47.82827" lon="-0.94477">
        <ele>45.8</ele>
        <time>2020-12-20T10:37:37Z</time>
      </trkpt>
      <trkpt lat="47.82824" lon="-0.94478">
        <ele>45.8</ele>
        <time>2020-12-20T10:37:38Z</time>
      </trkpt>
      <trkpt lat="47.8282" lon="-0.94478">
        <ele>45.7</ele>
        <time>2020-12-20T10:37:39Z</time>
      </trkpt>
      <trkpt lat="47.82817" lon="-0.94478">
        <ele>45.7</ele>
        <time>2020-12-20T10:37:40Z</time>
      </trkpt>
      <trkpt lat="47.82814" lon="-0.94478">
        <ele>45.7</ele>
        <time>2020-12-20T10:37:41Z</time>
      </trkpt>
      <trkpt lat="47.82809" lon="-0.94478">
        <ele>45.7</ele>
        <time>2020-12-20T10:37:42Z</time>
      </trkpt>
      <trkpt lat="47.82805" lon="-0.94479">
        <ele>45.7</ele>
        <time>2020-12-20T10:37:43Z</time>
      </trkpt>
      <trkpt lat="47.82802" lon="-0.94479">
        <ele>45.7</ele>
        <time>2020-12-20T10:37:44Z</time>
      </trkpt>
      <trkpt lat="47.82799" lon="-0.94479">
        <ele>45.7</ele>
        <time>2020-12-20T10:37:45Z</time>
      </trkpt>
      <trkpt lat="47.82794" lon="-0.94479">
        <ele>45.6</ele>
        <time>2020-12-20T10:37:46Z</time>
      </trkpt>
      <trkpt lat="47.82791" lon="-0.94478">
        <ele>45.7</ele>
        <time>2020-12-20T10:37:47Z</time>
      </trkpt>
      <trkpt lat="47.82785" lon="-0.94478">
        <ele>45.6</ele>
        <time>2020-12-20T10:37:48Z</time>
      </trkpt>
      <trkpt lat="47.82782" lon="-0.94479">
        <ele>45.6</ele>
        <time>2020-12-20T10:37:49Z</time>
      </trkpt>
      <trkpt lat="47.82777" lon="-0.94479">
        <ele>45.6</ele>
        <time>2020-12-20T10:37:50Z</time>
      </trkpt>
      <trkpt lat="47.82773" lon="-0.9448">
        <ele>45.5</ele>
        <time>2020-12-20T10:37:51Z</time>
      </trkpt>
      <trkpt lat="47.82768" lon="-0.94481">
        <ele>45.5</ele>
        <time>2020-12-20T10:37:52Z</time>
      </trkpt>
      <trkpt lat="47.82764" lon="-0.94481">
        <ele>45.5</ele>
        <time>2020-12-20T10:37:53Z</time>
      </trkpt>
      <trkpt lat="47.8276" lon="-0.94482">
        <ele>45.5</ele>
        <time>2020-12-20T10:37:54Z</time>
      </trkpt>
      <trkpt lat="47.82755" lon="-0.94483">
        <ele>45.4</ele>
        <time>2020-12-20T10:37:55Z</time>
      </trkpt>
      <trkpt lat="47.8275" lon="-0.94484">
        <ele>45.4</ele>
        <time>2020-12-20T10:37:56Z</time>
      </trkpt>
      <trkpt lat="47.82747" lon="-0.94485">
        <ele>45.5</ele>
        <time>2020-12-20T10:37:57Z</time>
      </trkpt>
      <trkpt lat="47.82743" lon="-0.94487">
        <ele>45.6</ele>
        <time>2020-12-20T10:37:58Z</time>
      </trkpt>
      <trkpt lat="47.82738" lon="-0.94488">
        <ele>45.9</ele>
        <time>2020-12-20T10:37:59Z</time>
      </trkpt>
      <trkpt lat="47.82734" lon="-0.94489">
        <ele>46</ele>
        <time>2020-12-20T10:38:00Z</time>
      </trkpt>
      <trkpt lat="47.8273" lon="-0.9449">
        <ele>46.2</ele>
        <time>2020-12-20T10:38:01Z</time>
      </trkpt>
      <trkpt lat="47.82726" lon="-0.94491">
        <ele>46.4</ele>
        <time>2020-12-20T10:38:02Z</time>
      </trkpt>
      <trkpt lat="47.82722" lon="-0.94493">
        <ele>46.5</ele>
        <time>2020-12-20T10:38:03Z</time>
      </trkpt>
      <trkpt lat="47.82719" lon="-0.94494">
        <ele>46.6</ele>
        <time>2020-12-20T10:38:04Z</time>
      </trkpt>
      <trkpt lat="47.82715" lon="-0.94496">
        <ele>46.8</ele>
        <time>2020-12-20T10:38:05Z</time>
      </trkpt>
      <trkpt lat="47.82712" lon="-0.94498">
        <ele>46.9</ele>
        <time>2020-12-20T10:38:06Z</time>
      </trkpt>
      <trkpt lat="47.82709" lon="-0.94499">
        <ele>47</ele>
        <time>2020-12-20T10:38:07Z</time>
      </trkpt>
      <trkpt lat="47.82704" lon="-0.94498">
        <ele>47.3</ele>
        <time>2020-12-20T10:38:08Z</time>
      </trkpt>
      <trkpt lat="47.82702" lon="-0.94496">
        <ele>47.4</ele>
        <time>2020-12-20T10:38:09Z</time>
      </trkpt>
      <trkpt lat="47.82699" lon="-0.94493">
        <ele>47.6</ele>
        <time>2020-12-20T10:38:10Z</time>
      </trkpt>
      <trkpt lat="47.82696" lon="-0.94491">
        <ele>47.8</ele>
        <time>2020-12-20T10:38:11Z</time>
      </trkpt>
      <trkpt lat="47.82693" lon="-0.94489">
        <ele>48</ele>
        <time>2020-12-20T10:38:12Z</time>
      </trkpt>
      <trkpt lat="47.8269" lon="-0.94487">
        <ele>48.2</ele>
        <time>2020-12-20T10:38:13Z</time>
      </trkpt>
      <trkpt lat="47.82687" lon="-0.94486">
        <ele>48.4</ele>
        <time>2020-12-20T10:38:14Z</time>
      </trkpt>
      <trkpt lat="47.82684" lon="-0.94485">
        <ele>48.5</ele>
        <time>2020-12-20T10:38:15Z</time>
      </trkpt>
      <trkpt lat="47.82681" lon="-0.94484">
        <ele>48.7</ele>
        <time>2020-12-20T10:38:16Z</time>
      </trkpt>
      <trkpt lat="47.82679" lon="-0.94483">
        <ele>48.8</ele>
        <time>2020-12-20T10:38:17Z</time>
      </trkpt>
      <trkpt lat="47.82676" lon="-0.94482">
        <ele>49</ele>
        <time>2020-12-20T10:38:18Z</time>
      </trkpt>
      <trkpt lat="47.82673" lon="-0.94481">
        <ele>49.2</ele>
        <time>2020-12-20T10:38:19Z</time>
      </trkpt>
      <trkpt lat="47.8267" lon="-0.9448">
        <ele>49.3</ele>
        <time>2020-12-20T10:38:20Z</time>
      </trkpt>
      <trkpt lat="47.82666" lon="-0.94479">
        <ele>49.5</ele>
        <time>2020-12-20T10:38:21Z</time>
      </trkpt>
      <trkpt lat="47.82663" lon="-0.94477">
        <ele>49.8</ele>
        <time>2020-12-20T10:38:22Z</time>
      </trkpt>
      <trkpt lat="47.8266" lon="-0.94476">
        <ele>50</ele>
        <time>2020-12-20T10:38:23Z</time>
      </trkpt>
      <trkpt lat="47.82658" lon="-0.94475">
        <ele>50.2</ele>
        <time>2020-12-20T10:38:24Z</time>
      </trkpt>
      <trkpt lat="47.82654" lon="-0.94473">
        <ele>50.5</ele>
        <time>2020-12-20T10:38:25Z</time>
      </trkpt>
      <trkpt lat="47.82651" lon="-0.94472">
        <ele>50.7</ele>
        <time>2020-12-20T10:38:26Z</time>
      </trkpt>
      <trkpt lat="47.82649" lon="-0.94471">
        <ele>50.8</ele>
        <time>2020-12-20T10:38:27Z</time>
      </trkpt>
      <trkpt lat="47.82646" lon="-0.94469">
        <ele>51</ele>
        <time>2020-12-20T10:38:28Z</time>
      </trkpt>
      <trkpt lat="47.82643" lon="-0.94467">
        <ele>51.3</ele>
        <time>2020-12-20T10:38:29Z</time>
      </trkpt>
      <trkpt lat="47.82641" lon="-0.94465">
        <ele>51.4</ele>
        <time>2020-12-20T10:38:30Z</time>
      </trkpt>
      <trkpt lat="47.82638" lon="-0.94463">
        <ele>51.6</ele>
        <time>2020-12-20T10:38:31Z</time>
      </trkpt>
      <trkpt lat="47.82636" lon="-0.94461">
        <ele>51.8</ele>
        <time>2020-12-20T10:38:32Z</time>
      </trkpt>
      <trkpt lat="47.82633" lon="-0.94459">
        <ele>52</ele>
        <time>2020-12-20T10:38:33Z</time>
      </trkpt>
      <trkpt lat="47.8263" lon="-0.94457">
        <ele>52.2</ele>
        <time>2020-12-20T10:38:34Z</time>
      </trkpt>
      <trkpt lat="47.82627" lon="-0.94454">
        <ele>52.4</ele>
        <time>2020-12-20T10:38:35Z</time>
      </trkpt>
      <trkpt lat="47.82626" lon="-0.94452">
        <ele>52.5</ele>
        <time>2020-12-20T10:38:36Z</time>
      </trkpt>
      <trkpt lat="47.82624" lon="-0.94449">
        <ele>52.7</ele>
        <time>2020-12-20T10:38:37Z</time>
      </trkpt>
      <trkpt lat="47.82621" lon="-0.94447">
        <ele>52.9</ele>
        <time>2020-12-20T10:38:38Z</time>
      </trkpt>
      <trkpt lat="47.82619" lon="-0.94444">
        <ele>53</ele>
        <time>2020-12-20T10:38:39Z</time>
      </trkpt>
      <trkpt lat="47.82618" lon="-0.94442">
        <ele>53.1</ele>
        <time>2020-12-20T10:38:40Z</time>
      </trkpt>
      <trkpt lat="47.82616" lon="-0.9444">
        <ele>53.2</ele>
        <time>2020-12-20T10:38:41Z</time>
      </trkpt>
      <trkpt lat="47.82614" lon="-0.94438">
        <ele>53.3</ele>
        <time>2020-12-20T10:38:42Z</time>
      </trkpt>
      <trkpt lat="47.82612" lon="-0.94436">
        <ele>53.5</ele>
        <time>2020-12-20T10:38:43Z</time>
      </trkpt>
      <trkpt lat="47.82611" lon="-0.94434">
        <ele>53.5</ele>
        <time>2020-12-20T10:38:44Z</time>
      </trkpt>
      <trkpt lat="47.82609" lon="-0.94433">
        <ele>53.6</ele>
        <time>2020-12-20T10:38:45Z</time>
      </trkpt>
      <trkpt lat="47.82607" lon="-0.9443">
        <ele>53.8</ele>
        <time>2020-12-20T10:38:46Z</time>
      </trkpt>
      <trkpt lat="47.82605" lon="-0.94429">
        <ele>53.9</ele>
        <time>2020-12-20T10:38:47Z</time>
      </trkpt>
      <trkpt lat="47.82603" lon="-0.94426">
        <ele>54</ele>
        <time>2020-12-20T10:38:48Z</time>
      </trkpt>
      <trkpt lat="47.82602" lon="-0.94424">
        <ele>54.1</ele>
        <time>2020-12-20T10:38:49Z</time>
      </trkpt>
      <trkpt lat="47.826" lon="-0.94421">
        <ele>54.2</ele>
        <time>2020-12-20T10:38:50Z</time>
      </trkpt>
      <trkpt lat="47.82597" lon="-0.94418">
        <ele>54.3</ele>
        <time>2020-12-20T10:38:51Z</time>
      </trkpt>
      <trkpt lat="47.82596" lon="-0.94415">
        <ele>54.5</ele>
        <time>2020-12-20T10:38:52Z</time>
      </trkpt>
      <trkpt lat="47.82594" lon="-0.94413">
        <ele>54.7</ele>
        <time>2020-12-20T10:38:53Z</time>
      </trkpt>
      <trkpt lat="47.82592" lon="-0.94411">
        <ele>54.8</ele>
        <time>2020-12-20T10:38:54Z</time>
      </trkpt>
      <trkpt lat="47.8259" lon="-0.94408">
        <ele>55.1</ele>
        <time>2020-12-20T10:38:55Z</time>
      </trkpt>
      <trkpt lat="47.82587" lon="-0.94406">
        <ele>55.3</ele>
        <time>2020-12-20T10:38:56Z</time>
      </trkpt>
      <trkpt lat="47.82585" lon="-0.94403">
        <ele>55.6</ele>
        <time>2020-12-20T10:38:57Z</time>
      </trkpt>
      <trkpt lat="47.82583" lon="-0.94401">
        <ele>55.8</ele>
        <time>2020-12-20T10:38:58Z</time>
      </trkpt>
      <trkpt lat="47.82581" lon="-0.94397">
        <ele>56.1</ele>
        <time>2020-12-20T10:38:59Z</time>
      </trkpt>
      <trkpt lat="47.82579" lon="-0.94395">
        <ele>56.3</ele>
        <time>2020-12-20T10:39:00Z</time>
      </trkpt>
      <trkpt lat="47.82577" lon="-0.94391">
        <ele>56.6</ele>
        <time>2020-12-20T10:39:01Z</time>
      </trkpt>
      <trkpt lat="47.82574" lon="-0.94389">
        <ele>56.9</ele>
        <time>2020-12-20T10:39:02Z</time>
      </trkpt>
      <trkpt lat="47.82572" lon="-0.94387">
        <ele>57.1</ele>
        <time>2020-12-20T10:39:03Z</time>
      </trkpt>
      <trkpt lat="47.8257" lon="-0.94384">
        <ele>57.4</ele>
        <time>2020-12-20T10:39:04Z</time>
      </trkpt>
      <trkpt lat="47.82568" lon="-0.94381">
        <ele>57.6</ele>
        <time>2020-12-20T10:39:05Z</time>
      </trkpt>
      <trkpt lat="47.82567" lon="-0.94379">
        <ele>57.8</ele>
        <time>2020-12-20T10:39:06Z</time>
      </trkpt>
      <trkpt lat="47.82565" lon="-0.94377">
        <ele>58</ele>
        <time>2020-12-20T10:39:07Z</time>
      </trkpt>
      <trkpt lat="47.82563" lon="-0.94375">
        <ele>58.2</ele>
        <time>2020-12-20T10:39:08Z</time>
      </trkpt>
      <trkpt lat="47.82561" lon="-0.94372">
        <ele>58.5</ele>
        <time>2020-12-20T10:39:09Z</time>
      </trkpt>
      <trkpt lat="47.82559" lon="-0.94369">
        <ele>58.7</ele>
        <time>2020-12-20T10:39:10Z</time>
      </trkpt>
      <trkpt lat="47.82557" lon="-0.94367">
        <ele>59</ele>
        <time>2020-12-20T10:39:11Z</time>
      </trkpt>
      <trkpt lat="47.82555" lon="-0.94363">
        <ele>59.3</ele>
        <time>2020-12-20T10:39:12Z</time>
      </trkpt>
      <trkpt lat="47.82553" lon="-0.94361">
        <ele>59.5</ele>
        <time>2020-12-20T10:39:13Z</time>
      </trkpt>
      <trkpt lat="47.82551" lon="-0.94359">
        <ele>59.7</ele>
        <time>2020-12-20T10:39:14Z</time>
      </trkpt>
      <trkpt lat="47.82549" lon="-0.94357">
        <ele>59.9</ele>
        <time>2020-12-20T10:39:15Z</time>
      </trkpt>
      <trkpt lat="47.82548" lon="-0.94354">
        <ele>60.1</ele>
        <time>2020-12-20T10:39:16Z</time>
      </trkpt>
      <trkpt lat="47.82545" lon="-0.94351">
        <ele>60.5</ele>
        <time>2020-12-20T10:39:17Z</time>
      </trkpt>
      <trkpt lat="47.82544" lon="-0.94349">
        <ele>60.6</ele>
        <time>2020-12-20T10:39:18Z</time>
      </trkpt>
      <trkpt lat="47.82542" lon="-0.94345">
        <ele>60.9</ele>
        <time>2020-12-20T10:39:19Z</time>
      </trkpt>
      <trkpt lat="47.82539" lon="-0.94342">
        <ele>61.2</ele>
        <time>2020-12-20T10:39:20Z</time>
      </trkpt>
      <trkpt lat="47.82537" lon="-0.94338">
        <ele>61.6</ele>
        <time>2020-12-20T10:39:21Z</time>
      </trkpt>
      <trkpt lat="47.82535" lon="-0.94336">
        <ele>61.8</ele>
        <time>2020-12-20T10:39:22Z</time>
      </trkpt>
      <trkpt lat="47.82533" lon="-0.94333">
        <ele>62</ele>
        <time>2020-12-20T10:39:23Z</time>
      </trkpt>
      <trkpt lat="47.82531" lon="-0.94329">
        <ele>62.1</ele>
        <time>2020-12-20T10:39:24Z</time>
      </trkpt>
      <trkpt lat="47.82529" lon="-0.94326">
        <ele>62.2</ele>
        <time>2020-12-20T10:39:25Z</time>
      </trkpt>
      <trkpt lat="47.82527" lon="-0.94323">
        <ele>62.3</ele>
        <time>2020-12-20T10:39:26Z</time>
      </trkpt>
      <trkpt lat="47.82525" lon="-0.94319">
        <ele>62.4</ele>
        <time>2020-12-20T10:39:27Z</time>
      </trkpt>
      <trkpt lat="47.82523" lon="-0.94316">
        <ele>62.5</ele>
        <time>2020-12-20T10:39:28Z</time>
      </trkpt>
      <trkpt lat="47.82521" lon="-0.94313">
        <ele>62.6</ele>
        <time>2020-12-20T10:39:29Z</time>
      </trkpt>
      <trkpt lat="47.82518" lon="-0.9431">
        <ele>62.8</ele>
        <time>2020-12-20T10:39:30Z</time>
      </trkpt>
      <trkpt lat="47.82516" lon="-0.94306">
        <ele>62.8</ele>
        <time>2020-12-20T10:39:31Z</time>
      </trkpt>
      <trkpt lat="47.82514" lon="-0.94304">
        <ele>62.9</ele>
        <time>2020-12-20T10:39:32Z</time>
      </trkpt>
      <trkpt lat="47.82512" lon="-0.943">
        <ele>63</ele>
        <time>2020-12-20T10:39:33Z</time>
      </trkpt>
      <trkpt lat="47.8251" lon="-0.94297">
        <ele>63.1</ele>
        <time>2020-12-20T10:39:34Z</time>
      </trkpt>
      <trkpt lat="47.82508" lon="-0.94294">
        <ele>63.1</ele>
        <time>2020-12-20T10:39:35Z</time>
      </trkpt>
      <trkpt lat="47.82506" lon="-0.9429">
        <ele>63.2</ele>
        <time>2020-12-20T10:39:36Z</time>
      </trkpt>
      <trkpt lat="47.82504" lon="-0.94287">
        <ele>63.3</ele>
        <time>2020-12-20T10:39:37Z</time>
      </trkpt>
      <trkpt lat="47.82502" lon="-0.94284">
        <ele>63.3</ele>
        <time>2020-12-20T10:39:38Z</time>
      </trkpt>
      <trkpt lat="47.825" lon="-0.9428">
        <ele>63.4</ele>
        <time>2020-12-20T10:39:39Z</time>
      </trkpt>
      <trkpt lat="47.82498" lon="-0.94277">
        <ele>63.3</ele>
        <time>2020-12-20T10:39:40Z</time>
      </trkpt>
      <trkpt lat="47.82496" lon="-0.94273">
        <ele>63.3</ele>
        <time>2020-12-20T10:39:41Z</time>
      </trkpt>
      <trkpt lat="47.82493" lon="-0.9427">
        <ele>63.3</ele>
        <time>2020-12-20T10:39:42Z</time>
      </trkpt>
      <trkpt lat="47.82491" lon="-0.94266">
        <ele>63.3</ele>
        <time>2020-12-20T10:39:43Z</time>
      </trkpt>
      <trkpt lat="47.82489" lon="-0.94262">
        <ele>63.2</ele>
        <time>2020-12-20T10:39:44Z</time>
      </trkpt>
      <trkpt lat="47.82487" lon="-0.94259">
        <ele>63.2</ele>
        <time>2020-12-20T10:39:45Z</time>
      </trkpt>
      <trkpt lat="47.82484" lon="-0.94255">
        <ele>63.2</ele>
        <time>2020-12-20T10:39:46Z</time>
      </trkpt>
      <trkpt lat="47.82482" lon="-0.94251">
        <ele>63.2</ele>
        <time>2020-12-20T10:39:47Z</time>
      </trkpt>
      <trkpt lat="47.8248" lon="-0.94247">
        <ele>63.3</ele>
        <time>2020-12-20T10:39:48Z</time>
      </trkpt>
      <trkpt lat="47.82477" lon="-0.94242">
        <ele>63.5</ele>
        <time>2020-12-20T10:39:49Z</time>
      </trkpt>
      <trkpt lat="47.82474" lon="-0.94238">
        <ele>63.6</ele>
        <time>2020-12-20T10:39:50Z</time>
      </trkpt>
      <trkpt lat="47.82472" lon="-0.94234">
        <ele>63.7</ele>
        <time>2020-12-20T10:39:51Z</time>
      </trkpt>
      <trkpt lat="47.8247" lon="-0.9423">
        <ele>63.8</ele>
        <time>2020-12-20T10:39:52Z</time>
      </trkpt>
      <trkpt lat="47.82467" lon="-0.94226">
        <ele>64</ele>
        <time>2020-12-20T10:39:53Z</time>
      </trkpt>
      <trkpt lat="47.82465" lon="-0.94222">
        <ele>64.1</ele>
        <time>2020-12-20T10:39:54Z</time>
      </trkpt>
      <trkpt lat="47.82463" lon="-0.94218">
        <ele>64.2</ele>
        <time>2020-12-20T10:39:55Z</time>
      </trkpt>
      <trkpt lat="47.82461" lon="-0.94215">
        <ele>64.3</ele>
        <time>2020-12-20T10:39:56Z</time>
      </trkpt>
      <trkpt lat="47.82458" lon="-0.94211">
        <ele>64.4</ele>
        <time>2020-12-20T10:39:57Z</time>
      </trkpt>
      <trkpt lat="47.82456" lon="-0.94208">
        <ele>64.5</ele>
        <time>2020-12-20T10:39:58Z</time>
      </trkpt>
      <trkpt lat="47.82454" lon="-0.94204">
        <ele>64.7</ele>
        <time>2020-12-20T10:39:59Z</time>
      </trkpt>
      <trkpt lat="47.82452" lon="-0.942">
        <ele>64.8</ele>
        <time>2020-12-20T10:40:00Z</time>
      </trkpt>
      <trkpt lat="47.8245" lon="-0.94195">
        <ele>64.9</ele>
        <time>2020-12-20T10:40:01Z</time>
      </trkpt>
      <trkpt lat="47.82447" lon="-0.94191">
        <ele>65.1</ele>
        <time>2020-12-20T10:40:02Z</time>
      </trkpt>
      <trkpt lat="47.82445" lon="-0.94187">
        <ele>65.2</ele>
        <time>2020-12-20T10:40:03Z</time>
      </trkpt>
      <trkpt lat="47.82443" lon="-0.94183">
        <ele>65.3</ele>
        <time>2020-12-20T10:40:04Z</time>
      </trkpt>
      <trkpt lat="47.82441" lon="-0.94179">
        <ele>65.4</ele>
        <time>2020-12-20T10:40:05Z</time>
      </trkpt>
      <trkpt lat="47.82439" lon="-0.94174">
        <ele>65.6</ele>
        <time>2020-12-20T10:40:06Z</time>
      </trkpt>
      <trkpt lat="47.82437" lon="-0.9417">
        <ele>65.7</ele>
        <time>2020-12-20T10:40:07Z</time>
      </trkpt>
      <trkpt lat="47.82435" lon="-0.94166">
        <ele>65.8</ele>
        <time>2020-12-20T10:40:08Z</time>
      </trkpt>
      <trkpt lat="47.82433" lon="-0.94161">
        <ele>65.7</ele>
        <time>2020-12-20T10:40:09Z</time>
      </trkpt>
      <trkpt lat="47.8243" lon="-0.94156">
        <ele>65.7</ele>
        <time>2020-12-20T10:40:10Z</time>
      </trkpt>
      <trkpt lat="47.82427" lon="-0.94151">
        <ele>65.7</ele>
        <time>2020-12-20T10:40:11Z</time>
      </trkpt>
      <trkpt lat="47.82425" lon="-0.94146">
        <ele>65.7</ele>
        <time>2020-12-20T10:40:12Z</time>
      </trkpt>
      <trkpt lat="47.82422" lon="-0.94141">
        <ele>65.6</ele>
        <time>2020-12-20T10:40:13Z</time>
      </trkpt>
      <trkpt lat="47.8242" lon="-0.94136">
        <ele>65.6</ele>
        <time>2020-12-20T10:40:14Z</time>
      </trkpt>
      <trkpt lat="47.82417" lon="-0.94131">
        <ele>65.6</ele>
        <time>2020-12-20T10:40:15Z</time>
      </trkpt>
      <trkpt lat="47.82414" lon="-0.94126">
        <ele>65.5</ele>
        <time>2020-12-20T10:40:16Z</time>
      </trkpt>
      <trkpt lat="47.82411" lon="-0.94121">
        <ele>65.5</ele>
        <time>2020-12-20T10:40:17Z</time>
      </trkpt>
      <trkpt lat="47.82409" lon="-0.94116">
        <ele>65.5</ele>
        <time>2020-12-20T10:40:18Z</time>
      </trkpt>
      <trkpt lat="47.82406" lon="-0.94111">
        <ele>65.5</ele>
        <time>2020-12-20T10:40:19Z</time>
      </trkpt>
      <trkpt lat="47.82404" lon="-0.94105">
        <ele>65.5</ele>
        <time>2020-12-20T10:40:20Z</time>
      </trkpt>
      <trkpt lat="47.82401" lon="-0.941">
        <ele>65.5</ele>
        <time>2020-12-20T10:40:21Z</time>
      </trkpt>
      <trkpt lat="47.82399" lon="-0.94095">
        <ele>65.5</ele>
        <time>2020-12-20T10:40:22Z</time>
      </trkpt>
      <trkpt lat="47.82396" lon="-0.9409">
        <ele>65.5</ele>
        <time>2020-12-20T10:40:23Z</time>
      </trkpt>
      <trkpt lat="47.82393" lon="-0.94086">
        <ele>65.6</ele>
        <time>2020-12-20T10:40:24Z</time>
      </trkpt>
      <trkpt lat="47.82391" lon="-0.94081">
        <ele>65.6</ele>
        <time>2020-12-20T10:40:25Z</time>
      </trkpt>
      <trkpt lat="47.82388" lon="-0.94076">
        <ele>65.7</ele>
        <time>2020-12-20T10:40:26Z</time>
      </trkpt>
      <trkpt lat="47.82385" lon="-0.94071">
        <ele>65.9</ele>
        <time>2020-12-20T10:40:27Z</time>
      </trkpt>
      <trkpt lat="47.82383" lon="-0.94067">
        <ele>65.9</ele>
        <time>2020-12-20T10:40:28Z</time>
      </trkpt>
      <trkpt lat="47.82381" lon="-0.94063">
        <ele>66</ele>
        <time>2020-12-20T10:40:29Z</time>
      </trkpt>
      <trkpt lat="47.82379" lon="-0.94057">
        <ele>66.1</ele>
        <time>2020-12-20T10:40:30Z</time>
      </trkpt>
      <trkpt lat="47.82378" lon="-0.94051">
        <ele>66.1</ele>
        <time>2020-12-20T10:40:31Z</time>
      </trkpt>
      <trkpt lat="47.82377" lon="-0.94044">
        <ele>66.2</ele>
        <time>2020-12-20T10:40:32Z</time>
      </trkpt>
      <trkpt lat="47.82376" lon="-0.94039">
        <ele>66.2</ele>
        <time>2020-12-20T10:40:33Z</time>
      </trkpt>
      <trkpt lat="47.82376" lon="-0.94033">
        <ele>66.3</ele>
        <time>2020-12-20T10:40:34Z</time>
      </trkpt>
      <trkpt lat="47.82376" lon="-0.94026">
        <ele>66.3</ele>
        <time>2020-12-20T10:40:35Z</time>
      </trkpt>
      <trkpt lat="47.82376" lon="-0.94022">
        <ele>66.4</ele>
        <time>2020-12-20T10:40:36Z</time>
      </trkpt>
      <trkpt lat="47.82377" lon="-0.94016">
        <ele>66.4</ele>
        <time>2020-12-20T10:40:37Z</time>
      </trkpt>
      <trkpt lat="47.82377" lon="-0.94011">
        <ele>66.4</ele>
        <time>2020-12-20T10:40:38Z</time>
      </trkpt>
      <trkpt lat="47.82378" lon="-0.94005">
        <ele>66.4</ele>
        <time>2020-12-20T10:40:39Z</time>
      </trkpt>
      <trkpt lat="47.82379" lon="-0.93999">
        <ele>66.4</ele>
        <time>2020-12-20T10:40:40Z</time>
      </trkpt>
      <trkpt lat="47.82379" lon="-0.93992">
        <ele>66.4</ele>
        <time>2020-12-20T10:40:41Z</time>
      </trkpt>
      <trkpt lat="47.8238" lon="-0.93985">
        <ele>66.3</ele>
        <time>2020-12-20T10:40:42Z</time>
      </trkpt>
      <trkpt lat="47.82381" lon="-0.93979">
        <ele>66.2</ele>
        <time>2020-12-20T10:40:43Z</time>
      </trkpt>
      <trkpt lat="47.82382" lon="-0.93973">
        <ele>66.1</ele>
        <time>2020-12-20T10:40:44Z</time>
      </trkpt>
      <trkpt lat="47.82383" lon="-0.93965">
        <ele>66.1</ele>
        <time>2020-12-20T10:40:45Z</time>
      </trkpt>
      <trkpt lat="47.82383" lon="-0.93959">
        <ele>66</ele>
        <time>2020-12-20T10:40:46Z</time>
      </trkpt>
      <trkpt lat="47.82384" lon="-0.93953">
        <ele>65.9</ele>
        <time>2020-12-20T10:40:47Z</time>
      </trkpt>
      <trkpt lat="47.82385" lon="-0.93946">
        <ele>65.9</ele>
        <time>2020-12-20T10:40:48Z</time>
      </trkpt>
      <trkpt lat="47.82385" lon="-0.9394">
        <ele>65.8</ele>
        <time>2020-12-20T10:40:49Z</time>
      </trkpt>
      <trkpt lat="47.82386" lon="-0.93933">
        <ele>65.8</ele>
        <time>2020-12-20T10:40:50Z</time>
      </trkpt>
      <trkpt lat="47.82386" lon="-0.93927">
        <ele>65.7</ele>
        <time>2020-12-20T10:40:51Z</time>
      </trkpt>
      <trkpt lat="47.82386" lon="-0.9392">
        <ele>65.7</ele>
        <time>2020-12-20T10:40:52Z</time>
      </trkpt>
      <trkpt lat="47.82386" lon="-0.93914">
        <ele>65.7</ele>
        <time>2020-12-20T10:40:53Z</time>
      </trkpt>
      <trkpt lat="47.82387" lon="-0.93907">
        <ele>65.8</ele>
        <time>2020-12-20T10:40:54Z</time>
      </trkpt>
      <trkpt lat="47.82387" lon="-0.939">
        <ele>65.8</ele>
        <time>2020-12-20T10:40:55Z</time>
      </trkpt>
      <trkpt lat="47.82388" lon="-0.93893">
        <ele>65.9</ele>
        <time>2020-12-20T10:40:56Z</time>
      </trkpt>
      <trkpt lat="47.82389" lon="-0.93887">
        <ele>66</ele>
        <time>2020-12-20T10:40:57Z</time>
      </trkpt>
      <trkpt lat="47.82389" lon="-0.93881">
        <ele>66.1</ele>
        <time>2020-12-20T10:40:58Z</time>
      </trkpt>
      <trkpt lat="47.8239" lon="-0.93874">
        <ele>66.2</ele>
        <time>2020-12-20T10:40:59Z</time>
      </trkpt>
      <trkpt lat="47.82391" lon="-0.93867">
        <ele>66.3</ele>
        <time>2020-12-20T10:41:00Z</time>
      </trkpt>
      <trkpt lat="47.82392" lon="-0.93861">
        <ele>66.4</ele>
        <time>2020-12-20T10:41:01Z</time>
      </trkpt>
      <trkpt lat="47.82393" lon="-0.93854">
        <ele>66.5</ele>
        <time>2020-12-20T10:41:02Z</time>
      </trkpt>
      <trkpt lat="47.82393" lon="-0.93847">
        <ele>66.6</ele>
        <time>2020-12-20T10:41:03Z</time>
      </trkpt>
      <trkpt lat="47.82394" lon="-0.9384">
        <ele>66.6</ele>
        <time>2020-12-20T10:41:04Z</time>
      </trkpt>
      <trkpt lat="47.82394" lon="-0.93834">
        <ele>66.7</ele>
        <time>2020-12-20T10:41:05Z</time>
      </trkpt>
      <trkpt lat="47.82394" lon="-0.93827">
        <ele>66.7</ele>
        <time>2020-12-20T10:41:06Z</time>
      </trkpt>
      <trkpt lat="47.82394" lon="-0.93821">
        <ele>66.7</ele>
        <time>2020-12-20T10:41:07Z</time>
      </trkpt>
      <trkpt lat="47.82395" lon="-0.93815">
        <ele>66.7</ele>
        <time>2020-12-20T10:41:08Z</time>
      </trkpt>
      <trkpt lat="47.82396" lon="-0.93809">
        <ele>66.7</ele>
        <time>2020-12-20T10:41:09Z</time>
      </trkpt>
      <trkpt lat="47.82396" lon="-0.93801">
        <ele>66.7</ele>
        <time>2020-12-20T10:41:10Z</time>
      </trkpt>
      <trkpt lat="47.82396" lon="-0.93794">
        <ele>66.6</ele>
        <time>2020-12-20T10:41:11Z</time>
      </trkpt>
      <trkpt lat="47.82397" lon="-0.93787">
        <ele>66.6</ele>
        <time>2020-12-20T10:41:12Z</time>
      </trkpt>
      <trkpt lat="47.82397" lon="-0.93779">
        <ele>66.6</ele>
        <time>2020-12-20T10:41:13Z</time>
      </trkpt>
      <trkpt lat="47.82398" lon="-0.93772">
        <ele>66.6</ele>
        <time>2020-12-20T10:41:14Z</time>
      </trkpt>
      <trkpt lat="47.82398" lon="-0.93765">
        <ele>66.6</ele>
        <time>2020-12-20T10:41:15Z</time>
      </trkpt>
      <trkpt lat="47.82399" lon="-0.93758">
        <ele>66.6</ele>
        <time>2020-12-20T10:41:16Z</time>
      </trkpt>
      <trkpt lat="47.82399" lon="-0.93752">
        <ele>66.6</ele>
        <time>2020-12-20T10:41:17Z</time>
      </trkpt>
      <trkpt lat="47.824" lon="-0.93744">
        <ele>66.6</ele>
        <time>2020-12-20T10:41:18Z</time>
      </trkpt>
      <trkpt lat="47.824" lon="-0.93737">
        <ele>66.6</ele>
        <time>2020-12-20T10:41:19Z</time>
      </trkpt>
      <trkpt lat="47.82401" lon="-0.93729">
        <ele>66.6</ele>
        <time>2020-12-20T10:41:20Z</time>
      </trkpt>
      <trkpt lat="47.82402" lon="-0.93722">
        <ele>66.6</ele>
        <time>2020-12-20T10:41:21Z</time>
      </trkpt>
      <trkpt lat="47.82402" lon="-0.93715">
        <ele>66.6</ele>
        <time>2020-12-20T10:41:22Z</time>
      </trkpt>
      <trkpt lat="47.82402" lon="-0.93708">
        <ele>66.6</ele>
        <time>2020-12-20T10:41:23Z</time>
      </trkpt>
      <trkpt lat="47.82402" lon="-0.93701">
        <ele>66.5</ele>
        <time>2020-12-20T10:41:24Z</time>
      </trkpt>
      <trkpt lat="47.82403" lon="-0.93694">
        <ele>66.6</ele>
        <time>2020-12-20T10:41:25Z</time>
      </trkpt>
      <trkpt lat="47.82403" lon="-0.93687">
        <ele>66.5</ele>
        <time>2020-12-20T10:41:26Z</time>
      </trkpt>
      <trkpt lat="47.82404" lon="-0.9368">
        <ele>66.6</ele>
        <time>2020-12-20T10:41:27Z</time>
      </trkpt>
      <trkpt lat="47.82404" lon="-0.93672">
        <ele>66.6</ele>
        <time>2020-12-20T10:41:28Z</time>
      </trkpt>
      <trkpt lat="47.82406" lon="-0.93664">
        <ele>66.6</ele>
        <time>2020-12-20T10:41:29Z</time>
      </trkpt>
      <trkpt lat="47.82406" lon="-0.93657">
        <ele>66.5</ele>
        <time>2020-12-20T10:41:30Z</time>
      </trkpt>
      <trkpt lat="47.82406" lon="-0.93649">
        <ele>66.4</ele>
        <time>2020-12-20T10:41:31Z</time>
      </trkpt>
      <trkpt lat="47.82406" lon="-0.93642">
        <ele>66.4</ele>
        <time>2020-12-20T10:41:32Z</time>
      </trkpt>
      <trkpt lat="47.82406" lon="-0.93634">
        <ele>66.3</ele>
        <time>2020-12-20T10:41:33Z</time>
      </trkpt>
      <trkpt lat="47.82407" lon="-0.93627">
        <ele>66.2</ele>
        <time>2020-12-20T10:41:34Z</time>
      </trkpt>
      <trkpt lat="47.82407" lon="-0.93618">
        <ele>66.1</ele>
        <time>2020-12-20T10:41:35Z</time>
      </trkpt>
      <trkpt lat="47.82408" lon="-0.93611">
        <ele>66.1</ele>
        <time>2020-12-20T10:41:36Z</time>
      </trkpt>
      <trkpt lat="47.82408" lon="-0.93603">
        <ele>66</ele>
        <time>2020-12-20T10:41:37Z</time>
      </trkpt>
      <trkpt lat="47.82408" lon="-0.93596">
        <ele>65.9</ele>
        <time>2020-12-20T10:41:38Z</time>
      </trkpt>
      <trkpt lat="47.82408" lon="-0.9359">
        <ele>65.9</ele>
        <time>2020-12-20T10:41:39Z</time>
      </trkpt>
      <trkpt lat="47.82408" lon="-0.93582">
        <ele>65.8</ele>
        <time>2020-12-20T10:41:40Z</time>
      </trkpt>
      <trkpt lat="47.82408" lon="-0.93575">
        <ele>65.8</ele>
        <time>2020-12-20T10:41:41Z</time>
      </trkpt>
      <trkpt lat="47.82409" lon="-0.93568">
        <ele>65.8</ele>
        <time>2020-12-20T10:41:42Z</time>
      </trkpt>
      <trkpt lat="47.82409" lon="-0.93561">
        <ele>65.9</ele>
        <time>2020-12-20T10:41:43Z</time>
      </trkpt>
      <trkpt lat="47.8241" lon="-0.93554">
        <ele>65.9</ele>
        <time>2020-12-20T10:41:44Z</time>
      </trkpt>
      <trkpt lat="47.8241" lon="-0.93549">
        <ele>65.9</ele>
        <time>2020-12-20T10:41:45Z</time>
      </trkpt>
      <trkpt lat="47.8241" lon="-0.93543">
        <ele>65.9</ele>
        <time>2020-12-20T10:41:46Z</time>
      </trkpt>
      <trkpt lat="47.8241" lon="-0.93536">
        <ele>65.9</ele>
        <time>2020-12-20T10:41:47Z</time>
      </trkpt>
      <trkpt lat="47.8241" lon="-0.93529">
        <ele>65.9</ele>
        <time>2020-12-20T10:41:48Z</time>
      </trkpt>
      <trkpt lat="47.82411" lon="-0.93522">
        <ele>66</ele>
        <time>2020-12-20T10:41:49Z</time>
      </trkpt>
      <trkpt lat="47.82411" lon="-0.93515">
        <ele>66</ele>
        <time>2020-12-20T10:41:50Z</time>
      </trkpt>
      <trkpt lat="47.82411" lon="-0.93509">
        <ele>66</ele>
        <time>2020-12-20T10:41:51Z</time>
      </trkpt>
      <trkpt lat="47.82411" lon="-0.93502">
        <ele>66</ele>
        <time>2020-12-20T10:41:52Z</time>
      </trkpt>
      <trkpt lat="47.82411" lon="-0.93496">
        <ele>66</ele>
        <time>2020-12-20T10:41:53Z</time>
      </trkpt>
      <trkpt lat="47.8241" lon="-0.9349">
        <ele>66</ele>
        <time>2020-12-20T10:41:54Z</time>
      </trkpt>
      <trkpt lat="47.8241" lon="-0.93485">
        <ele>66</ele>
        <time>2020-12-20T10:41:55Z</time>
      </trkpt>
      <trkpt lat="47.82409" lon="-0.93479">
        <ele>66</ele>
        <time>2020-12-20T10:41:56Z</time>
      </trkpt>
      <trkpt lat="47.82408" lon="-0.93474">
        <ele>66</ele>
        <time>2020-12-20T10:41:57Z</time>
      </trkpt>
      <trkpt lat="47.82408" lon="-0.93467">
        <ele>66</ele>
        <time>2020-12-20T10:41:58Z</time>
      </trkpt>
      <trkpt lat="47.82407" lon="-0.93461">
        <ele>66</ele>
        <time>2020-12-20T10:41:59Z</time>
      </trkpt>
      <trkpt lat="47.82406" lon="-0.93454">
        <ele>66</ele>
        <time>2020-12-20T10:42:00Z</time>
      </trkpt>
      <trkpt lat="47.82405" lon="-0.93447">
        <ele>66</ele>
        <time>2020-12-20T10:42:01Z</time>
      </trkpt>
      <trkpt lat="47.82405" lon="-0.93439">
        <ele>66</ele>
        <time>2020-12-20T10:42:02Z</time>
      </trkpt>
      <trkpt lat="47.82405" lon="-0.93432">
        <ele>66</ele>
        <time>2020-12-20T10:42:03Z</time>
      </trkpt>
      <trkpt lat="47.82404" lon="-0.93425">
        <ele>66</ele>
        <time>2020-12-20T10:42:04Z</time>
      </trkpt>
      <trkpt lat="47.82403" lon="-0.93419">
        <ele>66</ele>
        <time>2020-12-20T10:42:05Z</time>
      </trkpt>
      <trkpt lat="47.82402" lon="-0.93412">
        <ele>66.1</ele>
        <time>2020-12-20T10:42:06Z</time>
      </trkpt>
      <trkpt lat="47.82402" lon="-0.93404">
        <ele>66.2</ele>
        <time>2020-12-20T10:42:07Z</time>
      </trkpt>
      <trkpt lat="47.82402" lon="-0.93396">
        <ele>66.2</ele>
        <time>2020-12-20T10:42:08Z</time>
      </trkpt>
      <trkpt lat="47.82402" lon="-0.93388">
        <ele>66.3</ele>
        <time>2020-12-20T10:42:09Z</time>
      </trkpt>
      <trkpt lat="47.82403" lon="-0.93381">
        <ele>66.4</ele>
        <time>2020-12-20T10:42:10Z</time>
      </trkpt>
      <trkpt lat="47.82403" lon="-0.93374">
        <ele>66.5</ele>
        <time>2020-12-20T10:42:11Z</time>
      </trkpt>
      <trkpt lat="47.82404" lon="-0.93367">
        <ele>66.6</ele>
        <time>2020-12-20T10:42:12Z</time>
      </trkpt>
      <trkpt lat="47.82405" lon="-0.93359">
        <ele>66.7</ele>
        <time>2020-12-20T10:42:13Z</time>
      </trkpt>
      <trkpt lat="47.82407" lon="-0.93351">
        <ele>66.8</ele>
        <time>2020-12-20T10:42:14Z</time>
      </trkpt>
      <trkpt lat="47.82409" lon="-0.93343">
        <ele>66.9</ele>
        <time>2020-12-20T10:42:15Z</time>
      </trkpt>
      <trkpt lat="47.8241" lon="-0.93336">
        <ele>67</ele>
        <time>2020-12-20T10:42:16Z</time>
      </trkpt>
      <trkpt lat="47.8241" lon="-0.93329">
        <ele>67</ele>
        <time>2020-12-20T10:42:17Z</time>
      </trkpt>
      <trkpt lat="47.82411" lon="-0.93321">
        <ele>66.9</ele>
        <time>2020-12-20T10:42:18Z</time>
      </trkpt>
      <trkpt lat="47.82412" lon="-0.93314">
        <ele>66.8</ele>
        <time>2020-12-20T10:42:19Z</time>
      </trkpt>
      <trkpt lat="47.82413" lon="-0.93307">
        <ele>66.7</ele>
        <time>2020-12-20T10:42:20Z</time>
      </trkpt>
      <trkpt lat="47.82415" lon="-0.933">
        <ele>66.6</ele>
        <time>2020-12-20T10:42:21Z</time>
      </trkpt>
      <trkpt lat="47.82416" lon="-0.93292">
        <ele>66.5</ele>
        <time>2020-12-20T10:42:22Z</time>
      </trkpt>
      <trkpt lat="47.82417" lon="-0.93284">
        <ele>66.4</ele>
        <time>2020-12-20T10:42:23Z</time>
      </trkpt>
      <trkpt lat="47.82418" lon="-0.93278">
        <ele>66.3</ele>
        <time>2020-12-20T10:42:24Z</time>
      </trkpt>
      <trkpt lat="47.82419" lon="-0.9327">
        <ele>66.3</ele>
        <time>2020-12-20T10:42:25Z</time>
      </trkpt>
      <trkpt lat="47.82419" lon="-0.93261">
        <ele>66.2</ele>
        <time>2020-12-20T10:42:26Z</time>
      </trkpt>
      <trkpt lat="47.82421" lon="-0.93253">
        <ele>66.1</ele>
        <time>2020-12-20T10:42:27Z</time>
      </trkpt>
      <trkpt lat="47.82422" lon="-0.93245">
        <ele>66.1</ele>
        <time>2020-12-20T10:42:28Z</time>
      </trkpt>
      <trkpt lat="47.82422" lon="-0.93239">
        <ele>66.1</ele>
        <time>2020-12-20T10:42:29Z</time>
      </trkpt>
      <trkpt lat="47.82422" lon="-0.93233">
        <ele>66.1</ele>
        <time>2020-12-20T10:42:30Z</time>
      </trkpt>
      <trkpt lat="47.82421" lon="-0.93225">
        <ele>66</ele>
        <time>2020-12-20T10:42:31Z</time>
      </trkpt>
      <trkpt lat="47.82421" lon="-0.93217">
        <ele>66</ele>
        <time>2020-12-20T10:42:32Z</time>
      </trkpt>
      <trkpt lat="47.82419" lon="-0.9321">
        <ele>66</ele>
        <time>2020-12-20T10:42:33Z</time>
      </trkpt>
      <trkpt lat="47.82417" lon="-0.93203">
        <ele>66</ele>
        <time>2020-12-20T10:42:34Z</time>
      </trkpt>
      <trkpt lat="47.82415" lon="-0.93196">
        <ele>66</ele>
        <time>2020-12-20T10:42:35Z</time>
      </trkpt>
      <trkpt lat="47.82411" lon="-0.93192">
        <ele>66.1</ele>
        <time>2020-12-20T10:42:36Z</time>
      </trkpt>
      <trkpt lat="47.82407" lon="-0.93185">
        <ele>66.2</ele>
        <time>2020-12-20T10:42:37Z</time>
      </trkpt>
      <trkpt lat="47.82404" lon="-0.9318">
        <ele>66.3</ele>
        <time>2020-12-20T10:42:38Z</time>
      </trkpt>
      <trkpt lat="47.824" lon="-0.93174">
        <ele>66.4</ele>
        <time>2020-12-20T10:42:39Z</time>
      </trkpt>
      <trkpt lat="47.82397" lon="-0.93167">
        <ele>66.5</ele>
        <time>2020-12-20T10:42:40Z</time>
      </trkpt>
      <trkpt lat="47.82395" lon="-0.93159">
        <ele>66.4</ele>
        <time>2020-12-20T10:42:41Z</time>
      </trkpt>
      <trkpt lat="47.82394" lon="-0.93152">
        <ele>66.2</ele>
        <time>2020-12-20T10:42:42Z</time>
      </trkpt>
      <trkpt lat="47.82392" lon="-0.93146">
        <ele>66.2</ele>
        <time>2020-12-20T10:42:43Z</time>
      </trkpt>
      <trkpt lat="47.82388" lon="-0.9314">
        <ele>66.2</ele>
        <time>2020-12-20T10:42:44Z</time>
      </trkpt>
      <trkpt lat="47.82386" lon="-0.93133">
        <ele>66.1</ele>
        <time>2020-12-20T10:42:45Z</time>
      </trkpt>
      <trkpt lat="47.82383" lon="-0.93126">
        <ele>66</ele>
        <time>2020-12-20T10:42:46Z</time>
      </trkpt>
      <trkpt lat="47.82381" lon="-0.93121">
        <ele>66</ele>
        <time>2020-12-20T10:42:47Z</time>
      </trkpt>
      <trkpt lat="47.82379" lon="-0.93116">
        <ele>66</ele>
        <time>2020-12-20T10:42:48Z</time>
      </trkpt>
      <trkpt lat="47.82378" lon="-0.93112">
        <ele>65.9</ele>
        <time>2020-12-20T10:42:49Z</time>
      </trkpt>
      <trkpt lat="47.82376" lon="-0.93108">
        <ele>65.9</ele>
        <time>2020-12-20T10:42:50Z</time>
      </trkpt>
      <trkpt lat="47.82374" lon="-0.93103">
        <ele>65.9</ele>
        <time>2020-12-20T10:42:51Z</time>
      </trkpt>
      <trkpt lat="47.82373" lon="-0.93099">
        <ele>65.8</ele>
        <time>2020-12-20T10:42:52Z</time>
      </trkpt>
      <trkpt lat="47.82371" lon="-0.93093">
        <ele>65.8</ele>
        <time>2020-12-20T10:42:53Z</time>
      </trkpt>
      <trkpt lat="47.82368" lon="-0.93088">
        <ele>65.8</ele>
        <time>2020-12-20T10:42:54Z</time>
      </trkpt>
      <trkpt lat="47.82366" lon="-0.93084">
        <ele>65.8</ele>
        <time>2020-12-20T10:42:55Z</time>
      </trkpt>
      <trkpt lat="47.82364" lon="-0.93079">
        <ele>65.9</ele>
        <time>2020-12-20T10:42:56Z</time>
      </trkpt>
      <trkpt lat="47.82361" lon="-0.93073">
        <ele>65.9</ele>
        <time>2020-12-20T10:42:57Z</time>
      </trkpt>
      <trkpt lat="47.82358" lon="-0.93068">
        <ele>66</ele>
        <time>2020-12-20T10:42:58Z</time>
      </trkpt>
      <trkpt lat="47.82356" lon="-0.93063">
        <ele>66</ele>
        <time>2020-12-20T10:42:59Z</time>
      </trkpt>
      <trkpt lat="47.82354" lon="-0.93059">
        <ele>66</ele>
        <time>2020-12-20T10:43:00Z</time>
      </trkpt>
      <trkpt lat="47.82351" lon="-0.93054">
        <ele>66.1</ele>
        <time>2020-12-20T10:43:01Z</time>
      </trkpt>
      <trkpt lat="47.82349" lon="-0.9305">
        <ele>66.1</ele>
        <time>2020-12-20T10:43:02Z</time>
      </trkpt>
      <trkpt lat="47.82346" lon="-0.93045">
        <ele>66.2</ele>
        <time>2020-12-20T10:43:03Z</time>
      </trkpt>
      <trkpt lat="47.82344" lon="-0.93041">
        <ele>66.2</ele>
        <time>2020-12-20T10:43:04Z</time>
      </trkpt>
      <trkpt lat="47.82341" lon="-0.93036">
        <ele>66.2</ele>
        <time>2020-12-20T10:43:05Z</time>
      </trkpt>
      <trkpt lat="47.82339" lon="-0.93031">
        <ele>66.2</ele>
        <time>2020-12-20T10:43:06Z</time>
      </trkpt>
      <trkpt lat="47.82336" lon="-0.93026">
        <ele>66.2</ele>
        <time>2020-12-20T10:43:07Z</time>
      </trkpt>
      <trkpt lat="47.82333" lon="-0.93021">
        <ele>66.3</ele>
        <time>2020-12-20T10:43:08Z</time>
      </trkpt>
      <trkpt lat="47.82331" lon="-0.93015">
        <ele>66.2</ele>
        <time>2020-12-20T10:43:09Z</time>
      </trkpt>
      <trkpt lat="47.82329" lon="-0.9301">
        <ele>66.2</ele>
        <time>2020-12-20T10:43:10Z</time>
      </trkpt>
      <trkpt lat="47.82327" lon="-0.93004">
        <ele>66.2</ele>
        <time>2020-12-20T10:43:11Z</time>
      </trkpt>
      <trkpt lat="47.82324" lon="-0.92999">
        <ele>66.2</ele>
        <time>2020-12-20T10:43:12Z</time>
      </trkpt>
      <trkpt lat="47.82322" lon="-0.92994">
        <ele>66.3</ele>
        <time>2020-12-20T10:43:13Z</time>
      </trkpt>
      <trkpt lat="47.8232" lon="-0.92988">
        <ele>66.3</ele>
        <time>2020-12-20T10:43:14Z</time>
      </trkpt>
      <trkpt lat="47.82318" lon="-0.92983">
        <ele>66.4</ele>
        <time>2020-12-20T10:43:15Z</time>
      </trkpt>
      <trkpt lat="47.82317" lon="-0.92976">
        <ele>66.4</ele>
        <time>2020-12-20T10:43:16Z</time>
      </trkpt>
      <trkpt lat="47.82315" lon="-0.92971">
        <ele>66.5</ele>
        <time>2020-12-20T10:43:17Z</time>
      </trkpt>
      <trkpt lat="47.82314" lon="-0.92965">
        <ele>66.6</ele>
        <time>2020-12-20T10:43:18Z</time>
      </trkpt>
      <trkpt lat="47.82313" lon="-0.92958">
        <ele>66.6</ele>
        <time>2020-12-20T10:43:19Z</time>
      </trkpt>
      <trkpt lat="47.82313" lon="-0.92952">
        <ele>66.6</ele>
        <time>2020-12-20T10:43:20Z</time>
      </trkpt>
      <trkpt lat="47.82313" lon="-0.92945">
        <ele>66.6</ele>
        <time>2020-12-20T10:43:21Z</time>
      </trkpt>
      <trkpt lat="47.82313" lon="-0.92938">
        <ele>66.7</ele>
        <time>2020-12-20T10:43:22Z</time>
      </trkpt>
      <trkpt lat="47.82311" lon="-0.92931">
        <ele>66.8</ele>
        <time>2020-12-20T10:43:23Z</time>
      </trkpt>
      <trkpt lat="47.8231" lon="-0.92926">
        <ele>66.8</ele>
        <time>2020-12-20T10:43:24Z</time>
      </trkpt>
      <trkpt lat="47.82308" lon="-0.9292">
        <ele>66.9</ele>
        <time>2020-12-20T10:43:25Z</time>
      </trkpt>
      <trkpt lat="47.82308" lon="-0.92914">
        <ele>66.9</ele>
        <time>2020-12-20T10:43:26Z</time>
      </trkpt>
      <trkpt lat="47.82307" lon="-0.92908">
        <ele>66.8</ele>
        <time>2020-12-20T10:43:27Z</time>
      </trkpt>
      <trkpt lat="47.82307" lon="-0.92902">
        <ele>66.8</ele>
        <time>2020-12-20T10:43:28Z</time>
      </trkpt>
      <trkpt lat="47.82307" lon="-0.92897">
        <ele>66.7</ele>
        <time>2020-12-20T10:43:29Z</time>
      </trkpt>
      <trkpt lat="47.82306" lon="-0.92892">
        <ele>66.7</ele>
        <time>2020-12-20T10:43:30Z</time>
      </trkpt>
      <trkpt lat="47.82305" lon="-0.92888">
        <ele>66.7</ele>
        <time>2020-12-20T10:43:31Z</time>
      </trkpt>
      <trkpt lat="47.82304" lon="-0.92883">
        <ele>66.7</ele>
        <time>2020-12-20T10:43:32Z</time>
      </trkpt>
      <trkpt lat="47.82302" lon="-0.92879">
        <ele>66.7</ele>
        <time>2020-12-20T10:43:33Z</time>
      </trkpt>
      <trkpt lat="47.823" lon="-0.92876">
        <ele>66.7</ele>
        <time>2020-12-20T10:43:34Z</time>
      </trkpt>
      <trkpt lat="47.82297" lon="-0.92872">
        <ele>66.8</ele>
        <time>2020-12-20T10:43:35Z</time>
      </trkpt>
      <trkpt lat="47.82294" lon="-0.92866">
        <ele>66.8</ele>
        <time>2020-12-20T10:43:36Z</time>
      </trkpt>
      <trkpt lat="47.82293" lon="-0.9286">
        <ele>66.8</ele>
        <time>2020-12-20T10:43:37Z</time>
      </trkpt>
      <trkpt lat="47.82291" lon="-0.92854">
        <ele>66.8</ele>
        <time>2020-12-20T10:43:38Z</time>
      </trkpt>
      <trkpt lat="47.82291" lon="-0.92848">
        <ele>66.7</ele>
        <time>2020-12-20T10:43:39Z</time>
      </trkpt>
      <trkpt lat="47.8229" lon="-0.92843">
        <ele>66.7</ele>
        <time>2020-12-20T10:43:40Z</time>
      </trkpt>
      <trkpt lat="47.8229" lon="-0.92837">
        <ele>66.6</ele>
        <time>2020-12-20T10:43:41Z</time>
      </trkpt>
      <trkpt lat="47.82291" lon="-0.92832">
        <ele>66.5</ele>
        <time>2020-12-20T10:43:42Z</time>
      </trkpt>
      <trkpt lat="47.8229" lon="-0.92826">
        <ele>66.6</ele>
        <time>2020-12-20T10:43:43Z</time>
      </trkpt>
      <trkpt lat="47.82289" lon="-0.9282">
        <ele>66.7</ele>
        <time>2020-12-20T10:43:44Z</time>
      </trkpt>
      <trkpt lat="47.82288" lon="-0.92813">
        <ele>66.9</ele>
        <time>2020-12-20T10:43:45Z</time>
      </trkpt>
      <trkpt lat="47.82287" lon="-0.92808">
        <ele>66.9</ele>
        <time>2020-12-20T10:43:46Z</time>
      </trkpt>
      <trkpt lat="47.82286" lon="-0.92803">
        <ele>67</ele>
        <time>2020-12-20T10:43:47Z</time>
      </trkpt>
      <trkpt lat="47.82286" lon="-0.92797">
        <ele>67.1</ele>
        <time>2020-12-20T10:43:48Z</time>
      </trkpt>
      <trkpt lat="47.82285" lon="-0.92792">
        <ele>67.2</ele>
        <time>2020-12-20T10:43:49Z</time>
      </trkpt>
      <trkpt lat="47.82285" lon="-0.92786">
        <ele>67.2</ele>
        <time>2020-12-20T10:43:50Z</time>
      </trkpt>
      <trkpt lat="47.82284" lon="-0.9278">
        <ele>67.3</ele>
        <time>2020-12-20T10:43:51Z</time>
      </trkpt>
      <trkpt lat="47.82283" lon="-0.92776">
        <ele>67.4</ele>
        <time>2020-12-20T10:43:52Z</time>
      </trkpt>
      <trkpt lat="47.82283" lon="-0.92771">
        <ele>67.4</ele>
        <time>2020-12-20T10:43:53Z</time>
      </trkpt>
      <trkpt lat="47.82282" lon="-0.92767">
        <ele>67.5</ele>
        <time>2020-12-20T10:43:54Z</time>
      </trkpt>
      <trkpt lat="47.82282" lon="-0.92764">
        <ele>67.5</ele>
        <time>2020-12-20T10:43:55Z</time>
      </trkpt>
      <trkpt lat="47.82281" lon="-0.92762">
        <ele>67.5</ele>
        <time>2020-12-20T10:43:56Z</time>
      </trkpt>
      <trkpt lat="47.82281" lon="-0.9276">
        <ele>67.5</ele>
        <time>2020-12-20T10:43:57Z</time>
      </trkpt>
      <trkpt lat="47.8228" lon="-0.92757">
        <ele>67.6</ele>
        <time>2020-12-20T10:43:58Z</time>
      </trkpt>
      <trkpt lat="47.82278" lon="-0.92754">
        <ele>67.6</ele>
        <time>2020-12-20T10:43:59Z</time>
      </trkpt>
      <trkpt lat="47.82276" lon="-0.92752">
        <ele>67.7</ele>
        <time>2020-12-20T10:44:00Z</time>
      </trkpt>
      <trkpt lat="47.82274" lon="-0.92749">
        <ele>67.7</ele>
        <time>2020-12-20T10:44:01Z</time>
      </trkpt>
      <trkpt lat="47.82271" lon="-0.92747">
        <ele>67.8</ele>
        <time>2020-12-20T10:44:02Z</time>
      </trkpt>
      <trkpt lat="47.82267" lon="-0.92743">
        <ele>67.8</ele>
        <time>2020-12-20T10:44:03Z</time>
      </trkpt>
      <trkpt lat="47.82264" lon="-0.9274">
        <ele>67.9</ele>
        <time>2020-12-20T10:44:04Z</time>
      </trkpt>
      <trkpt lat="47.8226" lon="-0.92736">
        <ele>68</ele>
        <time>2020-12-20T10:44:05Z</time>
      </trkpt>
      <trkpt lat="47.82256" lon="-0.92733">
        <ele>68.1</ele>
        <time>2020-12-20T10:44:06Z</time>
      </trkpt>
      <trkpt lat="47.82252" lon="-0.9273">
        <ele>68.2</ele>
        <time>2020-12-20T10:44:07Z</time>
      </trkpt>
      <trkpt lat="47.82248" lon="-0.92727">
        <ele>68.3</ele>
        <time>2020-12-20T10:44:08Z</time>
      </trkpt>
      <trkpt lat="47.82244" lon="-0.92724">
        <ele>68.2</ele>
        <time>2020-12-20T10:44:09Z</time>
      </trkpt>
      <trkpt lat="47.82241" lon="-0.9272">
        <ele>68.3</ele>
        <time>2020-12-20T10:44:10Z</time>
      </trkpt>
      <trkpt lat="47.82237" lon="-0.92717">
        <ele>68.2</ele>
        <time>2020-12-20T10:44:11Z</time>
      </trkpt>
      <trkpt lat="47.82233" lon="-0.92714">
        <ele>68.2</ele>
        <time>2020-12-20T10:44:12Z</time>
      </trkpt>
      <trkpt lat="47.82229" lon="-0.92711">
        <ele>68.2</ele>
        <time>2020-12-20T10:44:13Z</time>
      </trkpt>
      <trkpt lat="47.82225" lon="-0.92708">
        <ele>68.2</ele>
        <time>2020-12-20T10:44:14Z</time>
      </trkpt>
      <trkpt lat="47.82222" lon="-0.92705">
        <ele>68.2</ele>
        <time>2020-12-20T10:44:15Z</time>
      </trkpt>
      <trkpt lat="47.82218" lon="-0.92701">
        <ele>68.2</ele>
        <time>2020-12-20T10:44:16Z</time>
      </trkpt>
      <trkpt lat="47.82214" lon="-0.92698">
        <ele>68.2</ele>
        <time>2020-12-20T10:44:17Z</time>
      </trkpt>
      <trkpt lat="47.82211" lon="-0.92695">
        <ele>68.2</ele>
        <time>2020-12-20T10:44:18Z</time>
      </trkpt>
      <trkpt lat="47.82207" lon="-0.92692">
        <ele>68.2</ele>
        <time>2020-12-20T10:44:19Z</time>
      </trkpt>
      <trkpt lat="47.82204" lon="-0.92689">
        <ele>68.2</ele>
        <time>2020-12-20T10:44:20Z</time>
      </trkpt>
      <trkpt lat="47.822" lon="-0.92685">
        <ele>68.2</ele>
        <time>2020-12-20T10:44:21Z</time>
      </trkpt>
      <trkpt lat="47.82196" lon="-0.92682">
        <ele>68.2</ele>
        <time>2020-12-20T10:44:22Z</time>
      </trkpt>
      <trkpt lat="47.82193" lon="-0.92679">
        <ele>68.2</ele>
        <time>2020-12-20T10:44:23Z</time>
      </trkpt>
      <trkpt lat="47.82189" lon="-0.92675">
        <ele>68.2</ele>
        <time>2020-12-20T10:44:24Z</time>
      </trkpt>
      <trkpt lat="47.82185" lon="-0.92672">
        <ele>68.2</ele>
        <time>2020-12-20T10:44:25Z</time>
      </trkpt>
      <trkpt lat="47.82181" lon="-0.92669">
        <ele>68.1</ele>
        <time>2020-12-20T10:44:26Z</time>
      </trkpt>
      <trkpt lat="47.82177" lon="-0.92666">
        <ele>68.1</ele>
        <time>2020-12-20T10:44:27Z</time>
      </trkpt>
      <trkpt lat="47.82174" lon="-0.92662">
        <ele>68.1</ele>
        <time>2020-12-20T10:44:28Z</time>
      </trkpt>
      <trkpt lat="47.82171" lon="-0.92657">
        <ele>68.2</ele>
        <time>2020-12-20T10:44:29Z</time>
      </trkpt>
      <trkpt lat="47.8217" lon="-0.92651">
        <ele>68.2</ele>
        <time>2020-12-20T10:44:30Z</time>
      </trkpt>
      <trkpt lat="47.82169" lon="-0.92644">
        <ele>68.3</ele>
        <time>2020-12-20T10:44:31Z</time>
      </trkpt>
      <trkpt lat="47.8217" lon="-0.92637">
        <ele>68.4</ele>
        <time>2020-12-20T10:44:32Z</time>
      </trkpt>
      <trkpt lat="47.82172" lon="-0.9263">
        <ele>68.5</ele>
        <time>2020-12-20T10:44:33Z</time>
      </trkpt>
      <trkpt lat="47.82174" lon="-0.92623">
        <ele>68.6</ele>
        <time>2020-12-20T10:44:34Z</time>
      </trkpt>
      <trkpt lat="47.82177" lon="-0.92617">
        <ele>68.7</ele>
        <time>2020-12-20T10:44:35Z</time>
      </trkpt>
      <trkpt lat="47.8218" lon="-0.9261">
        <ele>68.8</ele>
        <time>2020-12-20T10:44:36Z</time>
      </trkpt>
      <trkpt lat="47.82183" lon="-0.92604">
        <ele>68.9</ele>
        <time>2020-12-20T10:44:37Z</time>
      </trkpt>
      <trkpt lat="47.82186" lon="-0.92597">
        <ele>69.1</ele>
        <time>2020-12-20T10:44:38Z</time>
      </trkpt>
      <trkpt lat="47.82189" lon="-0.92591">
        <ele>69.2</ele>
        <time>2020-12-20T10:44:39Z</time>
      </trkpt>
      <trkpt lat="47.82192" lon="-0.92585">
        <ele>69.3</ele>
        <time>2020-12-20T10:44:40Z</time>
      </trkpt>
      <trkpt lat="47.82196" lon="-0.92578">
        <ele>69.3</ele>
        <time>2020-12-20T10:44:41Z</time>
      </trkpt>
      <trkpt lat="47.82199" lon="-0.92572">
        <ele>69.3</ele>
        <time>2020-12-20T10:44:42Z</time>
      </trkpt>
      <trkpt lat="47.82202" lon="-0.92565">
        <ele>69.3</ele>
        <time>2020-12-20T10:44:43Z</time>
      </trkpt>
      <trkpt lat="47.82206" lon="-0.92558">
        <ele>69.3</ele>
        <time>2020-12-20T10:44:44Z</time>
      </trkpt>
      <trkpt lat="47.82209" lon="-0.92552">
        <ele>69.3</ele>
        <time>2020-12-20T10:44:45Z</time>
      </trkpt>
      <trkpt lat="47.82213" lon="-0.92545">
        <ele>69.3</ele>
        <time>2020-12-20T10:44:46Z</time>
      </trkpt>
      <trkpt lat="47.82217" lon="-0.92539">
        <ele>69.3</ele>
        <time>2020-12-20T10:44:47Z</time>
      </trkpt>
      <trkpt lat="47.8222" lon="-0.92532">
        <ele>69.2</ele>
        <time>2020-12-20T10:44:48Z</time>
      </trkpt>
      <trkpt lat="47.82224" lon="-0.92525">
        <ele>69.2</ele>
        <time>2020-12-20T10:44:49Z</time>
      </trkpt>
      <trkpt lat="47.82227" lon="-0.92518">
        <ele>69.2</ele>
        <time>2020-12-20T10:44:50Z</time>
      </trkpt>
      <trkpt lat="47.82231" lon="-0.92511">
        <ele>69.1</ele>
        <time>2020-12-20T10:44:51Z</time>
      </trkpt>
      <trkpt lat="47.82235" lon="-0.92504">
        <ele>69</ele>
        <time>2020-12-20T10:44:52Z</time>
      </trkpt>
      <trkpt lat="47.82238" lon="-0.92497">
        <ele>69.1</ele>
        <time>2020-12-20T10:44:53Z</time>
      </trkpt>
      <trkpt lat="47.8224" lon="-0.9249">
        <ele>69.2</ele>
        <time>2020-12-20T10:44:54Z</time>
      </trkpt>
      <trkpt lat="47.82243" lon="-0.92482">
        <ele>69.4</ele>
        <time>2020-12-20T10:44:55Z</time>
      </trkpt>
      <trkpt lat="47.82245" lon="-0.92474">
        <ele>69.6</ele>
        <time>2020-12-20T10:44:56Z</time>
      </trkpt>
      <trkpt lat="47.82247" lon="-0.92466">
        <ele>69.8</ele>
        <time>2020-12-20T10:44:57Z</time>
      </trkpt>
      <trkpt lat="47.82248" lon="-0.92458">
        <ele>70</ele>
        <time>2020-12-20T10:44:58Z</time>
      </trkpt>
      <trkpt lat="47.82249" lon="-0.9245">
        <ele>70.2</ele>
        <time>2020-12-20T10:44:59Z</time>
      </trkpt>
      <trkpt lat="47.82249" lon="-0.92442">
        <ele>70.4</ele>
        <time>2020-12-20T10:45:00Z</time>
      </trkpt>
      <trkpt lat="47.8225" lon="-0.92433">
        <ele>70.6</ele>
        <time>2020-12-20T10:45:01Z</time>
      </trkpt>
      <trkpt lat="47.8225" lon="-0.92425">
        <ele>70.8</ele>
        <time>2020-12-20T10:45:02Z</time>
      </trkpt>
      <trkpt lat="47.8225" lon="-0.92417">
        <ele>71</ele>
        <time>2020-12-20T10:45:03Z</time>
      </trkpt>
      <trkpt lat="47.8225" lon="-0.92409">
        <ele>71.1</ele>
        <time>2020-12-20T10:45:04Z</time>
      </trkpt>
      <trkpt lat="47.82249" lon="-0.92401">
        <ele>71.2</ele>
        <time>2020-12-20T10:45:05Z</time>
      </trkpt>
      <trkpt lat="47.82248" lon="-0.92393">
        <ele>71.3</ele>
        <time>2020-12-20T10:45:06Z</time>
      </trkpt>
      <trkpt lat="47.82248" lon="-0.92385">
        <ele>71.4</ele>
        <time>2020-12-20T10:45:07Z</time>
      </trkpt>
      <trkpt lat="47.82248" lon="-0.92377">
        <ele>71.5</ele>
        <time>2020-12-20T10:45:08Z</time>
      </trkpt>
      <trkpt lat="47.82248" lon="-0.92369">
        <ele>71.6</ele>
        <time>2020-12-20T10:45:09Z</time>
      </trkpt>
      <trkpt lat="47.82247" lon="-0.92361">
        <ele>71.7</ele>
        <time>2020-12-20T10:45:10Z</time>
      </trkpt>
      <trkpt lat="47.82247" lon="-0.92354">
        <ele>71.7</ele>
        <time>2020-12-20T10:45:11Z</time>
      </trkpt>
      <trkpt lat="47.82246" lon="-0.92346">
        <ele>71.8</ele>
        <time>2020-12-20T10:45:12Z</time>
      </trkpt>
      <trkpt lat="47.82246" lon="-0.92339">
        <ele>71.9</ele>
        <time>2020-12-20T10:45:13Z</time>
      </trkpt>
      <trkpt lat="47.82245" lon="-0.92331">
        <ele>72</ele>
        <time>2020-12-20T10:45:14Z</time>
      </trkpt>
      <trkpt lat="47.82244" lon="-0.92323">
        <ele>72.1</ele>
        <time>2020-12-20T10:45:15Z</time>
      </trkpt>
      <trkpt lat="47.82243" lon="-0.92315">
        <ele>72.2</ele>
        <time>2020-12-20T10:45:16Z</time>
      </trkpt>
      <trkpt lat="47.82242" lon="-0.92308">
        <ele>72.2</ele>
        <time>2020-12-20T10:45:17Z</time>
      </trkpt>
      <trkpt lat="47.82241" lon="-0.923">
        <ele>72.3</ele>
        <time>2020-12-20T10:45:18Z</time>
      </trkpt>
      <trkpt lat="47.82239" lon="-0.92293">
        <ele>72.4</ele>
        <time>2020-12-20T10:45:19Z</time>
      </trkpt>
      <trkpt lat="47.82237" lon="-0.92285">
        <ele>72.4</ele>
        <time>2020-12-20T10:45:20Z</time>
      </trkpt>
      <trkpt lat="47.82235" lon="-0.92278">
        <ele>72.4</ele>
        <time>2020-12-20T10:45:21Z</time>
      </trkpt>
      <trkpt lat="47.82233" lon="-0.92271">
        <ele>72.4</ele>
        <time>2020-12-20T10:45:22Z</time>
      </trkpt>
      <trkpt lat="47.82231" lon="-0.92265">
        <ele>72.4</ele>
        <time>2020-12-20T10:45:23Z</time>
      </trkpt>
      <trkpt lat="47.82228" lon="-0.92258">
        <ele>72.4</ele>
        <time>2020-12-20T10:45:24Z</time>
      </trkpt>
      <trkpt lat="47.82226" lon="-0.92251">
        <ele>72.4</ele>
        <time>2020-12-20T10:45:25Z</time>
      </trkpt>
      <trkpt lat="47.82224" lon="-0.92245">
        <ele>72.5</ele>
        <time>2020-12-20T10:45:26Z</time>
      </trkpt>
      <trkpt lat="47.82222" lon="-0.92239">
        <ele>72.5</ele>
        <time>2020-12-20T10:45:27Z</time>
      </trkpt>
      <trkpt lat="47.82219" lon="-0.92232">
        <ele>72.6</ele>
        <time>2020-12-20T10:45:28Z</time>
      </trkpt>
      <trkpt lat="47.82217" lon="-0.92225">
        <ele>72.6</ele>
        <time>2020-12-20T10:45:29Z</time>
      </trkpt>
      <trkpt lat="47.82215" lon="-0.92219">
        <ele>72.7</ele>
        <time>2020-12-20T10:45:30Z</time>
      </trkpt>
      <trkpt lat="47.82213" lon="-0.92212">
        <ele>72.8</ele>
        <time>2020-12-20T10:45:31Z</time>
      </trkpt>
      <trkpt lat="47.82211" lon="-0.92206">
        <ele>72.8</ele>
        <time>2020-12-20T10:45:32Z</time>
      </trkpt>
      <trkpt lat="47.82209" lon="-0.92199">
        <ele>72.9</ele>
        <time>2020-12-20T10:45:33Z</time>
      </trkpt>
      <trkpt lat="47.82208" lon="-0.92192">
        <ele>73</ele>
        <time>2020-12-20T10:45:34Z</time>
      </trkpt>
      <trkpt lat="47.82206" lon="-0.92186">
        <ele>73.1</ele>
        <time>2020-12-20T10:45:35Z</time>
      </trkpt>
      <trkpt lat="47.82207" lon="-0.92179">
        <ele>73.3</ele>
        <time>2020-12-20T10:45:36Z</time>
      </trkpt>
      <trkpt lat="47.82209" lon="-0.92173">
        <ele>73.4</ele>
        <time>2020-12-20T10:45:37Z</time>
      </trkpt>
      <trkpt lat="47.82212" lon="-0.92169">
        <ele>73.5</ele>
        <time>2020-12-20T10:45:38Z</time>
      </trkpt>
      <trkpt lat="47.82215" lon="-0.92166">
        <ele>73.6</ele>
        <time>2020-12-20T10:45:39Z</time>
      </trkpt>
      <trkpt lat="47.82219" lon="-0.92165">
        <ele>73.6</ele>
        <time>2020-12-20T10:45:40Z</time>
      </trkpt>
      <trkpt lat="47.82223" lon="-0.92164">
        <ele>73.7</ele>
        <time>2020-12-20T10:45:41Z</time>
      </trkpt>
      <trkpt lat="47.82228" lon="-0.92163">
        <ele>73.8</ele>
        <time>2020-12-20T10:45:42Z</time>
      </trkpt>
      <trkpt lat="47.82233" lon="-0.92163">
        <ele>73.8</ele>
        <time>2020-12-20T10:45:43Z</time>
      </trkpt>
      <trkpt lat="47.82238" lon="-0.92162">
        <ele>73.9</ele>
        <time>2020-12-20T10:45:44Z</time>
      </trkpt>
      <trkpt lat="47.82243" lon="-0.92161">
        <ele>74</ele>
        <time>2020-12-20T10:45:45Z</time>
      </trkpt>
      <trkpt lat="47.82248" lon="-0.92161">
        <ele>74</ele>
        <time>2020-12-20T10:45:46Z</time>
      </trkpt>
      <trkpt lat="47.82253" lon="-0.9216">
        <ele>74</ele>
        <time>2020-12-20T10:45:47Z</time>
      </trkpt>
      <trkpt lat="47.82258" lon="-0.92158">
        <ele>73.9</ele>
        <time>2020-12-20T10:45:48Z</time>
      </trkpt>
      <trkpt lat="47.82264" lon="-0.92157">
        <ele>73.8</ele>
        <time>2020-12-20T10:45:49Z</time>
      </trkpt>
      <trkpt lat="47.8227" lon="-0.92156">
        <ele>73.6</ele>
        <time>2020-12-20T10:45:50Z</time>
      </trkpt>
      <trkpt lat="47.82277" lon="-0.92155">
        <ele>73.4</ele>
        <time>2020-12-20T10:45:51Z</time>
      </trkpt>
      <trkpt lat="47.82283" lon="-0.92154">
        <ele>73.3</ele>
        <time>2020-12-20T10:45:52Z</time>
      </trkpt>
      <trkpt lat="47.82289" lon="-0.92152">
        <ele>73.2</ele>
        <time>2020-12-20T10:45:53Z</time>
      </trkpt>
      <trkpt lat="47.82295" lon="-0.92151">
        <ele>73</ele>
        <time>2020-12-20T10:45:54Z</time>
      </trkpt>
      <trkpt lat="47.82301" lon="-0.92151">
        <ele>72.8</ele>
        <time>2020-12-20T10:45:55Z</time>
      </trkpt>
      <trkpt lat="47.82307" lon="-0.9215">
        <ele>72.7</ele>
        <time>2020-12-20T10:45:56Z</time>
      </trkpt>
      <trkpt lat="47.82313" lon="-0.92149">
        <ele>72.5</ele>
        <time>2020-12-20T10:45:57Z</time>
      </trkpt>
      <trkpt lat="47.8232" lon="-0.92148">
        <ele>72.4</ele>
        <time>2020-12-20T10:45:58Z</time>
      </trkpt>
      <trkpt lat="47.82326" lon="-0.92147">
        <ele>72.2</ele>
        <time>2020-12-20T10:45:59Z</time>
      </trkpt>
      <trkpt lat="47.82332" lon="-0.92146">
        <ele>72</ele>
        <time>2020-12-20T10:46:00Z</time>
      </trkpt>
      <trkpt lat="47.82338" lon="-0.92145">
        <ele>71.8</ele>
        <time>2020-12-20T10:46:01Z</time>
      </trkpt>
      <trkpt lat="47.82345" lon="-0.92143">
        <ele>71.5</ele>
        <time>2020-12-20T10:46:02Z</time>
      </trkpt>
      <trkpt lat="47.82351" lon="-0.92142">
        <ele>71.2</ele>
        <time>2020-12-20T10:46:03Z</time>
      </trkpt>
      <trkpt lat="47.82358" lon="-0.92141">
        <ele>70.9</ele>
        <time>2020-12-20T10:46:04Z</time>
      </trkpt>
      <trkpt lat="47.82364" lon="-0.9214">
        <ele>70.7</ele>
        <time>2020-12-20T10:46:05Z</time>
      </trkpt>
      <trkpt lat="47.82371" lon="-0.92138">
        <ele>70.3</ele>
        <time>2020-12-20T10:46:06Z</time>
      </trkpt>
      <trkpt lat="47.82378" lon="-0.92137">
        <ele>70</ele>
        <time>2020-12-20T10:46:07Z</time>
      </trkpt>
      <trkpt lat="47.82386" lon="-0.92135">
        <ele>69.6</ele>
        <time>2020-12-20T10:46:08Z</time>
      </trkpt>
      <trkpt lat="47.82393" lon="-0.92133">
        <ele>69.3</ele>
        <time>2020-12-20T10:46:09Z</time>
      </trkpt>
      <trkpt lat="47.824" lon="-0.92132">
        <ele>68.9</ele>
        <time>2020-12-20T10:46:10Z</time>
      </trkpt>
      <trkpt lat="47.82409" lon="-0.9213">
        <ele>68.5</ele>
        <time>2020-12-20T10:46:11Z</time>
      </trkpt>
      <trkpt lat="47.82417" lon="-0.92129">
        <ele>68.1</ele>
        <time>2020-12-20T10:46:12Z</time>
      </trkpt>
      <trkpt lat="47.82425" lon="-0.92127">
        <ele>67.8</ele>
        <time>2020-12-20T10:46:13Z</time>
      </trkpt>
      <trkpt lat="47.82433" lon="-0.92126">
        <ele>67.5</ele>
        <time>2020-12-20T10:46:14Z</time>
      </trkpt>
      <trkpt lat="47.82442" lon="-0.92124">
        <ele>67.2</ele>
        <time>2020-12-20T10:46:15Z</time>
      </trkpt>
      <trkpt lat="47.8245" lon="-0.92123">
        <ele>67</ele>
        <time>2020-12-20T10:46:16Z</time>
      </trkpt>
      <trkpt lat="47.82458" lon="-0.92121">
        <ele>66.7</ele>
        <time>2020-12-20T10:46:17Z</time>
      </trkpt>
      <trkpt lat="47.82466" lon="-0.9212">
        <ele>66.4</ele>
        <time>2020-12-20T10:46:18Z</time>
      </trkpt>
      <trkpt lat="47.82475" lon="-0.92119">
        <ele>66.2</ele>
        <time>2020-12-20T10:46:19Z</time>
      </trkpt>
      <trkpt lat="47.82483" lon="-0.92117">
        <ele>65.9</ele>
        <time>2020-12-20T10:46:20Z</time>
      </trkpt>
      <trkpt lat="47.82491" lon="-0.92116">
        <ele>65.7</ele>
        <time>2020-12-20T10:46:21Z</time>
      </trkpt>
      <trkpt lat="47.82499" lon="-0.92114">
        <ele>65.4</ele>
        <time>2020-12-20T10:46:22Z</time>
      </trkpt>
      <trkpt lat="47.82507" lon="-0.92112">
        <ele>65.1</ele>
        <time>2020-12-20T10:46:23Z</time>
      </trkpt>
      <trkpt lat="47.82515" lon="-0.9211">
        <ele>64.8</ele>
        <time>2020-12-20T10:46:24Z</time>
      </trkpt>
      <trkpt lat="47.82522" lon="-0.92108">
        <ele>64.5</ele>
        <time>2020-12-20T10:46:25Z</time>
      </trkpt>
      <trkpt lat="47.8253" lon="-0.92107">
        <ele>64.2</ele>
        <time>2020-12-20T10:46:26Z</time>
      </trkpt>
      <trkpt lat="47.82538" lon="-0.92105">
        <ele>63.9</ele>
        <time>2020-12-20T10:46:27Z</time>
      </trkpt>
      <trkpt lat="47.82545" lon="-0.92104">
        <ele>63.6</ele>
        <time>2020-12-20T10:46:28Z</time>
      </trkpt>
      <trkpt lat="47.82553" lon="-0.92102">
        <ele>63.3</ele>
        <time>2020-12-20T10:46:29Z</time>
      </trkpt>
      <trkpt lat="47.8256" lon="-0.921">
        <ele>63</ele>
        <time>2020-12-20T10:46:30Z</time>
      </trkpt>
      <trkpt lat="47.82568" lon="-0.92099">
        <ele>62.7</ele>
        <time>2020-12-20T10:46:31Z</time>
      </trkpt>
      <trkpt lat="47.82576" lon="-0.92099">
        <ele>62.5</ele>
        <time>2020-12-20T10:46:32Z</time>
      </trkpt>
      <trkpt lat="47.82583" lon="-0.921">
        <ele>62.2</ele>
        <time>2020-12-20T10:46:33Z</time>
      </trkpt>
      <trkpt lat="47.8259" lon="-0.92101">
        <ele>62.1</ele>
        <time>2020-12-20T10:46:34Z</time>
      </trkpt>
      <trkpt lat="47.82598" lon="-0.92102">
        <ele>61.9</ele>
        <time>2020-12-20T10:46:35Z</time>
      </trkpt>
      <trkpt lat="47.82605" lon="-0.92105">
        <ele>61.7</ele>
        <time>2020-12-20T10:46:36Z</time>
      </trkpt>
      <trkpt lat="47.82612" lon="-0.92108">
        <ele>61.6</ele>
        <time>2020-12-20T10:46:37Z</time>
      </trkpt>
      <trkpt lat="47.82619" lon="-0.92112">
        <ele>61.5</ele>
        <time>2020-12-20T10:46:38Z</time>
      </trkpt>
      <trkpt lat="47.82625" lon="-0.92118">
        <ele>61.4</ele>
        <time>2020-12-20T10:46:39Z</time>
      </trkpt>
      <trkpt lat="47.82631" lon="-0.92124">
        <ele>61.3</ele>
        <time>2020-12-20T10:46:40Z</time>
      </trkpt>
      <trkpt lat="47.82639" lon="-0.92128">
        <ele>61.2</ele>
        <time>2020-12-20T10:46:41Z</time>
      </trkpt>
      <trkpt lat="47.82646" lon="-0.92131">
        <ele>61.1</ele>
        <time>2020-12-20T10:46:42Z</time>
      </trkpt>
      <trkpt lat="47.82655" lon="-0.92133">
        <ele>60.9</ele>
        <time>2020-12-20T10:46:43Z</time>
      </trkpt>
      <trkpt lat="47.82663" lon="-0.92135">
        <ele>60.7</ele>
        <time>2020-12-20T10:46:44Z</time>
      </trkpt>
      <trkpt lat="47.8267" lon="-0.92136">
        <ele>60.5</ele>
        <time>2020-12-20T10:46:45Z</time>
      </trkpt>
      <trkpt lat="47.82676" lon="-0.92137">
        <ele>60.3</ele>
        <time>2020-12-20T10:46:46Z</time>
      </trkpt>
      <trkpt lat="47.82684" lon="-0.92137">
        <ele>60</ele>
        <time>2020-12-20T10:46:47Z</time>
      </trkpt>
      <trkpt lat="47.82691" lon="-0.92138">
        <ele>59.7</ele>
        <time>2020-12-20T10:46:48Z</time>
      </trkpt>
      <trkpt lat="47.82698" lon="-0.92138">
        <ele>59.4</ele>
        <time>2020-12-20T10:46:49Z</time>
      </trkpt>
      <trkpt lat="47.82706" lon="-0.92139">
        <ele>59.1</ele>
        <time>2020-12-20T10:46:50Z</time>
      </trkpt>
      <trkpt lat="47.82713" lon="-0.92141">
        <ele>58.8</ele>
        <time>2020-12-20T10:46:51Z</time>
      </trkpt>
      <trkpt lat="47.8272" lon="-0.92142">
        <ele>58.5</ele>
        <time>2020-12-20T10:46:52Z</time>
      </trkpt>
      <trkpt lat="47.82726" lon="-0.92142">
        <ele>58.3</ele>
        <time>2020-12-20T10:46:53Z</time>
      </trkpt>
      <trkpt lat="47.82734" lon="-0.92142">
        <ele>58</ele>
        <time>2020-12-20T10:46:54Z</time>
      </trkpt>
      <trkpt lat="47.82741" lon="-0.9214">
        <ele>57.7</ele>
        <time>2020-12-20T10:46:55Z</time>
      </trkpt>
      <trkpt lat="47.82748" lon="-0.92138">
        <ele>57.4</ele>
        <time>2020-12-20T10:46:56Z</time>
      </trkpt>
      <trkpt lat="47.82754" lon="-0.92136">
        <ele>57.3</ele>
        <time>2020-12-20T10:46:57Z</time>
      </trkpt>
      <trkpt lat="47.82762" lon="-0.92133">
        <ele>57.1</ele>
        <time>2020-12-20T10:46:58Z</time>
      </trkpt>
      <trkpt lat="47.82769" lon="-0.9213">
        <ele>56.9</ele>
        <time>2020-12-20T10:46:59Z</time>
      </trkpt>
      <trkpt lat="47.82774" lon="-0.92127">
        <ele>56.8</ele>
        <time>2020-12-20T10:47:00Z</time>
      </trkpt>
      <trkpt lat="47.82781" lon="-0.92123">
        <ele>56.6</ele>
        <time>2020-12-20T10:47:01Z</time>
      </trkpt>
      <trkpt lat="47.82788" lon="-0.9212">
        <ele>56.4</ele>
        <time>2020-12-20T10:47:02Z</time>
      </trkpt>
      <trkpt lat="47.82795" lon="-0.92117">
        <ele>56.2</ele>
        <time>2020-12-20T10:47:03Z</time>
      </trkpt>
      <trkpt lat="47.82803" lon="-0.92115">
        <ele>56</ele>
        <time>2020-12-20T10:47:04Z</time>
      </trkpt>
      <trkpt lat="47.8281" lon="-0.92112">
        <ele>55.7</ele>
        <time>2020-12-20T10:47:05Z</time>
      </trkpt>
      <trkpt lat="47.82818" lon="-0.92109">
        <ele>55.5</ele>
        <time>2020-12-20T10:47:06Z</time>
      </trkpt>
      <trkpt lat="47.82825" lon="-0.92106">
        <ele>55.3</ele>
        <time>2020-12-20T10:47:07Z</time>
      </trkpt>
      <trkpt lat="47.82832" lon="-0.92103">
        <ele>55</ele>
        <time>2020-12-20T10:47:08Z</time>
      </trkpt>
      <trkpt lat="47.82838" lon="-0.92101">
        <ele>55</ele>
        <time>2020-12-20T10:47:09Z</time>
      </trkpt>
      <trkpt lat="47.82845" lon="-0.921">
        <ele>54.9</ele>
        <time>2020-12-20T10:47:10Z</time>
      </trkpt>
      <trkpt lat="47.82851" lon="-0.921">
        <ele>54.9</ele>
        <time>2020-12-20T10:47:11Z</time>
      </trkpt>
      <trkpt lat="47.82858" lon="-0.921">
        <ele>54.9</ele>
        <time>2020-12-20T10:47:12Z</time>
      </trkpt>
      <trkpt lat="47.82864" lon="-0.92102">
        <ele>54.8</ele>
        <time>2020-12-20T10:47:13Z</time>
      </trkpt>
      <trkpt lat="47.8287" lon="-0.92105">
        <ele>54.8</ele>
        <time>2020-12-20T10:47:14Z</time>
      </trkpt>
      <trkpt lat="47.82877" lon="-0.92108">
        <ele>54.7</ele>
        <time>2020-12-20T10:47:15Z</time>
      </trkpt>
      <trkpt lat="47.82883" lon="-0.92111">
        <ele>54.6</ele>
        <time>2020-12-20T10:47:16Z</time>
      </trkpt>
      <trkpt lat="47.82889" lon="-0.92114">
        <ele>54.5</ele>
        <time>2020-12-20T10:47:17Z</time>
      </trkpt>
      <trkpt lat="47.82896" lon="-0.92118">
        <ele>54.4</ele>
        <time>2020-12-20T10:47:18Z</time>
      </trkpt>
      <trkpt lat="47.82902" lon="-0.92121">
        <ele>54.3</ele>
        <time>2020-12-20T10:47:19Z</time>
      </trkpt>
      <trkpt lat="47.82909" lon="-0.92125">
        <ele>54.1</ele>
        <time>2020-12-20T10:47:20Z</time>
      </trkpt>
      <trkpt lat="47.82916" lon="-0.92128">
        <ele>53.9</ele>
        <time>2020-12-20T10:47:21Z</time>
      </trkpt>
      <trkpt lat="47.82924" lon="-0.92132">
        <ele>53.9</ele>
        <time>2020-12-20T10:47:22Z</time>
      </trkpt>
      <trkpt lat="47.82931" lon="-0.92135">
        <ele>53.9</ele>
        <time>2020-12-20T10:47:23Z</time>
      </trkpt>
      <trkpt lat="47.82939" lon="-0.92137">
        <ele>54</ele>
        <time>2020-12-20T10:47:24Z</time>
      </trkpt>
      <trkpt lat="47.82946" lon="-0.92139">
        <ele>54</ele>
        <time>2020-12-20T10:47:25Z</time>
      </trkpt>
      <trkpt lat="47.82953" lon="-0.92141">
        <ele>54.1</ele>
        <time>2020-12-20T10:47:26Z</time>
      </trkpt>
      <trkpt lat="47.8296" lon="-0.92144">
        <ele>54.2</ele>
        <time>2020-12-20T10:47:27Z</time>
      </trkpt>
      <trkpt lat="47.82966" lon="-0.92146">
        <ele>54.2</ele>
        <time>2020-12-20T10:47:28Z</time>
      </trkpt>
      <trkpt lat="47.82973" lon="-0.92149">
        <ele>54.3</ele>
        <time>2020-12-20T10:47:29Z</time>
      </trkpt>
      <trkpt lat="47.8298" lon="-0.92152">
        <ele>54.5</ele>
        <time>2020-12-20T10:47:30Z</time>
      </trkpt>
      <trkpt lat="47.82985" lon="-0.92154">
        <ele>54.6</ele>
        <time>2020-12-20T10:47:31Z</time>
      </trkpt>
      <trkpt lat="47.82991" lon="-0.92156">
        <ele>54.7</ele>
        <time>2020-12-20T10:47:32Z</time>
      </trkpt>
      <trkpt lat="47.82997" lon="-0.92158">
        <ele>54.8</ele>
        <time>2020-12-20T10:47:33Z</time>
      </trkpt>
      <trkpt lat="47.83003" lon="-0.9216">
        <ele>55</ele>
        <time>2020-12-20T10:47:34Z</time>
      </trkpt>
      <trkpt lat="47.83008" lon="-0.92162">
        <ele>55</ele>
        <time>2020-12-20T10:47:35Z</time>
      </trkpt>
      <trkpt lat="47.83013" lon="-0.92165">
        <ele>55.1</ele>
        <time>2020-12-20T10:47:36Z</time>
      </trkpt>
      <trkpt lat="47.83019" lon="-0.92168">
        <ele>55.2</ele>
        <time>2020-12-20T10:47:37Z</time>
      </trkpt>
      <trkpt lat="47.83024" lon="-0.92169">
        <ele>55.3</ele>
        <time>2020-12-20T10:47:38Z</time>
      </trkpt>
      <trkpt lat="47.83029" lon="-0.92169">
        <ele>55.3</ele>
        <time>2020-12-20T10:47:39Z</time>
      </trkpt>
      <trkpt lat="47.83033" lon="-0.9217">
        <ele>55.4</ele>
        <time>2020-12-20T10:47:40Z</time>
      </trkpt>
      <trkpt lat="47.83037" lon="-0.92173">
        <ele>55.4</ele>
        <time>2020-12-20T10:47:41Z</time>
      </trkpt>
      <trkpt lat="47.83041" lon="-0.92176">
        <ele>55.4</ele>
        <time>2020-12-20T10:47:42Z</time>
      </trkpt>
      <trkpt lat="47.83046" lon="-0.9218">
        <ele>55.5</ele>
        <time>2020-12-20T10:47:43Z</time>
      </trkpt>
      <trkpt lat="47.83051" lon="-0.92184">
        <ele>55.6</ele>
        <time>2020-12-20T10:47:44Z</time>
      </trkpt>
      <trkpt lat="47.83056" lon="-0.92188">
        <ele>55.7</ele>
        <time>2020-12-20T10:47:45Z</time>
      </trkpt>
      <trkpt lat="47.8306" lon="-0.92192">
        <ele>55.8</ele>
        <time>2020-12-20T10:47:46Z</time>
      </trkpt>
      <trkpt lat="47.83064" lon="-0.92195">
        <ele>55.9</ele>
        <time>2020-12-20T10:47:47Z</time>
      </trkpt>
      <trkpt lat="47.83068" lon="-0.92199">
        <ele>56</ele>
        <time>2020-12-20T10:47:48Z</time>
      </trkpt>
      <trkpt lat="47.83071" lon="-0.92202">
        <ele>56.1</ele>
        <time>2020-12-20T10:47:49Z</time>
      </trkpt>
      <trkpt lat="47.83075" lon="-0.92204">
        <ele>56.2</ele>
        <time>2020-12-20T10:47:50Z</time>
      </trkpt>
      <trkpt lat="47.83078" lon="-0.92207">
        <ele>56.3</ele>
        <time>2020-12-20T10:47:51Z</time>
      </trkpt>
      <trkpt lat="47.83081" lon="-0.9221">
        <ele>56.4</ele>
        <time>2020-12-20T10:47:52Z</time>
      </trkpt>
      <trkpt lat="47.83084" lon="-0.92213">
        <ele>56.6</ele>
        <time>2020-12-20T10:47:53Z</time>
      </trkpt>
      <trkpt lat="47.83086" lon="-0.92215">
        <ele>56.6</ele>
        <time>2020-12-20T10:47:54Z</time>
      </trkpt>
      <trkpt lat="47.83089" lon="-0.92216">
        <ele>56.7</ele>
        <time>2020-12-20T10:47:55Z</time>
      </trkpt>
      <trkpt lat="47.83091" lon="-0.92218">
        <ele>56.8</ele>
        <time>2020-12-20T10:47:56Z</time>
      </trkpt>
      <trkpt lat="47.83093" lon="-0.9222">
        <ele>56.8</ele>
        <time>2020-12-20T10:47:57Z</time>
      </trkpt>
      <trkpt lat="47.83096" lon="-0.92222">
        <ele>56.9</ele>
        <time>2020-12-20T10:47:58Z</time>
      </trkpt>
      <trkpt lat="47.83098" lon="-0.92224">
        <ele>57</ele>
        <time>2020-12-20T10:47:59Z</time>
      </trkpt>
      <trkpt lat="47.831" lon="-0.92223">
        <ele>57</ele>
        <time>2020-12-20T10:48:00Z</time>
      </trkpt>
      <trkpt lat="47.83102" lon="-0.92222">
        <ele>57</ele>
        <time>2020-12-20T10:48:01Z</time>
      </trkpt>
      <trkpt lat="47.83103" lon="-0.92219">
        <ele>57</ele>
        <time>2020-12-20T10:48:02Z</time>
      </trkpt>
      <trkpt lat="47.83103" lon="-0.92215">
        <ele>57</ele>
        <time>2020-12-20T10:48:03Z</time>
      </trkpt>
      <trkpt lat="47.83102" lon="-0.9221">
        <ele>56.9</ele>
        <time>2020-12-20T10:48:04Z</time>
      </trkpt>
      <trkpt lat="47.831" lon="-0.92206">
        <ele>56.8</ele>
        <time>2020-12-20T10:48:05Z</time>
      </trkpt>
      <trkpt lat="47.831" lon="-0.922">
        <ele>56.7</ele>
        <time>2020-12-20T10:48:06Z</time>
      </trkpt>
      <trkpt lat="47.83099" lon="-0.92194">
        <ele>56.6</ele>
        <time>2020-12-20T10:48:07Z</time>
      </trkpt>
      <trkpt lat="47.83098" lon="-0.92188">
        <ele>56.5</ele>
        <time>2020-12-20T10:48:08Z</time>
      </trkpt>
      <trkpt lat="47.83097" lon="-0.92182">
        <ele>56.4</ele>
        <time>2020-12-20T10:48:09Z</time>
      </trkpt>
      <trkpt lat="47.83096" lon="-0.92176">
        <ele>56.3</ele>
        <time>2020-12-20T10:48:10Z</time>
      </trkpt>
      <trkpt lat="47.83095" lon="-0.9217">
        <ele>56.2</ele>
        <time>2020-12-20T10:48:11Z</time>
      </trkpt>
      <trkpt lat="47.83095" lon="-0.92164">
        <ele>56.1</ele>
        <time>2020-12-20T10:48:12Z</time>
      </trkpt>
      <trkpt lat="47.83094" lon="-0.92158">
        <ele>56</ele>
        <time>2020-12-20T10:48:13Z</time>
      </trkpt>
      <trkpt lat="47.83094" lon="-0.92153">
        <ele>56</ele>
        <time>2020-12-20T10:48:14Z</time>
      </trkpt>
      <trkpt lat="47.83093" lon="-0.92147">
        <ele>55.9</ele>
        <time>2020-12-20T10:48:15Z</time>
      </trkpt>
      <trkpt lat="47.83092" lon="-0.92142">
        <ele>55.8</ele>
        <time>2020-12-20T10:48:16Z</time>
      </trkpt>
      <trkpt lat="47.83091" lon="-0.92136">
        <ele>55.8</ele>
        <time>2020-12-20T10:48:17Z</time>
      </trkpt>
      <trkpt lat="47.8309" lon="-0.92131">
        <ele>55.7</ele>
        <time>2020-12-20T10:48:18Z</time>
      </trkpt>
      <trkpt lat="47.8309" lon="-0.92126">
        <ele>55.6</ele>
        <time>2020-12-20T10:48:19Z</time>
      </trkpt>
      <trkpt lat="47.8309" lon="-0.9212">
        <ele>55.6</ele>
        <time>2020-12-20T10:48:20Z</time>
      </trkpt>
      <trkpt lat="47.83089" lon="-0.92115">
        <ele>55.5</ele>
        <time>2020-12-20T10:48:21Z</time>
      </trkpt>
      <trkpt lat="47.83088" lon="-0.92111">
        <ele>55.4</ele>
        <time>2020-12-20T10:48:22Z</time>
      </trkpt>
      <trkpt lat="47.83088" lon="-0.92107">
        <ele>55.4</ele>
        <time>2020-12-20T10:48:23Z</time>
      </trkpt>
      <trkpt lat="47.83088" lon="-0.92103">
        <ele>55.3</ele>
        <time>2020-12-20T10:48:24Z</time>
      </trkpt>
      <trkpt lat="47.83089" lon="-0.92102">
        <ele>55.3</ele>
        <time>2020-12-20T10:51:32Z</time>
      </trkpt>
      <trkpt lat="47.8309" lon="-0.92101">
        <ele>55.4</ele>
        <time>2020-12-20T10:51:33Z</time>
      </trkpt>
      <trkpt lat="47.83092" lon="-0.921">
        <ele>55.4</ele>
        <time>2020-12-20T10:51:34Z</time>
      </trkpt>
      <trkpt lat="47.83095" lon="-0.921">
        <ele>55.5</ele>
        <time>2020-12-20T10:51:35Z</time>
      </trkpt>
      <trkpt lat="47.83098" lon="-0.92101">
        <ele>55.5</ele>
        <time>2020-12-20T10:51:36Z</time>
      </trkpt>
      <trkpt lat="47.83101" lon="-0.92102">
        <ele>55.6</ele>
        <time>2020-12-20T10:51:37Z</time>
      </trkpt>
      <trkpt lat="47.83105" lon="-0.92103">
        <ele>55.7</ele>
        <time>2020-12-20T10:51:38Z</time>
      </trkpt>
      <trkpt lat="47.83109" lon="-0.92104">
        <ele>55.8</ele>
        <time>2020-12-20T10:51:39Z</time>
      </trkpt>
      <trkpt lat="47.83113" lon="-0.92106">
        <ele>55.9</ele>
        <time>2020-12-20T10:51:40Z</time>
      </trkpt>
      <trkpt lat="47.83117" lon="-0.92107">
        <ele>56</ele>
        <time>2020-12-20T10:51:41Z</time>
      </trkpt>
      <trkpt lat="47.83121" lon="-0.92109">
        <ele>56.1</ele>
        <time>2020-12-20T10:51:42Z</time>
      </trkpt>
      <trkpt lat="47.83125" lon="-0.9211">
        <ele>56.2</ele>
        <time>2020-12-20T10:51:43Z</time>
      </trkpt>
      <trkpt lat="47.83129" lon="-0.92112">
        <ele>56.3</ele>
        <time>2020-12-20T10:51:44Z</time>
      </trkpt>
      <trkpt lat="47.83133" lon="-0.92114">
        <ele>56.3</ele>
        <time>2020-12-20T10:51:45Z</time>
      </trkpt>
      <trkpt lat="47.83137" lon="-0.92116">
        <ele>56.4</ele>
        <time>2020-12-20T10:51:46Z</time>
      </trkpt>
      <trkpt lat="47.83141" lon="-0.92117">
        <ele>56.5</ele>
        <time>2020-12-20T10:51:47Z</time>
      </trkpt>
      <trkpt lat="47.83145" lon="-0.92119">
        <ele>56.6</ele>
        <time>2020-12-20T10:51:48Z</time>
      </trkpt>
      <trkpt lat="47.83149" lon="-0.9212">
        <ele>56.7</ele>
        <time>2020-12-20T10:51:49Z</time>
      </trkpt>
      <trkpt lat="47.83154" lon="-0.92123">
        <ele>56.8</ele>
        <time>2020-12-20T10:51:50Z</time>
      </trkpt>
      <trkpt lat="47.83158" lon="-0.92125">
        <ele>56.8</ele>
        <time>2020-12-20T10:51:51Z</time>
      </trkpt>
      <trkpt lat="47.83161" lon="-0.92127">
        <ele>56.9</ele>
        <time>2020-12-20T10:51:52Z</time>
      </trkpt>
      <trkpt lat="47.83166" lon="-0.92129">
        <ele>57</ele>
        <time>2020-12-20T10:51:53Z</time>
      </trkpt>
      <trkpt lat="47.8317" lon="-0.92132">
        <ele>57</ele>
        <time>2020-12-20T10:51:54Z</time>
      </trkpt>
      <trkpt lat="47.83173" lon="-0.92134">
        <ele>57</ele>
        <time>2020-12-20T10:51:55Z</time>
      </trkpt>
      <trkpt lat="47.83178" lon="-0.92135">
        <ele>56.9</ele>
        <time>2020-12-20T10:51:56Z</time>
      </trkpt>
      <trkpt lat="47.83182" lon="-0.92135">
        <ele>56.9</ele>
        <time>2020-12-20T10:51:57Z</time>
      </trkpt>
      <trkpt lat="47.83185" lon="-0.92133">
        <ele>56.9</ele>
        <time>2020-12-20T10:51:58Z</time>
      </trkpt>
      <trkpt lat="47.83188" lon="-0.92127">
        <ele>56.9</ele>
        <time>2020-12-20T10:51:59Z</time>
      </trkpt>
      <trkpt lat="47.8319" lon="-0.92121">
        <ele>56.9</ele>
        <time>2020-12-20T10:52:00Z</time>
      </trkpt>
      <trkpt lat="47.83192" lon="-0.92115">
        <ele>56.9</ele>
        <time>2020-12-20T10:52:01Z</time>
      </trkpt>
      <trkpt lat="47.83194" lon="-0.92109">
        <ele>56.9</ele>
        <time>2020-12-20T10:52:02Z</time>
      </trkpt>
      <trkpt lat="47.83195" lon="-0.92101">
        <ele>56.9</ele>
        <time>2020-12-20T10:52:03Z</time>
      </trkpt>
      <trkpt lat="47.83196" lon="-0.92094">
        <ele>57</ele>
        <time>2020-12-20T10:52:04Z</time>
      </trkpt>
      <trkpt lat="47.83198" lon="-0.92087">
        <ele>57</ele>
        <time>2020-12-20T10:52:05Z</time>
      </trkpt>
      <trkpt lat="47.83199" lon="-0.92081">
        <ele>56.9</ele>
        <time>2020-12-20T10:52:06Z</time>
      </trkpt>
      <trkpt lat="47.83201" lon="-0.92074">
        <ele>56.8</ele>
        <time>2020-12-20T10:52:07Z</time>
      </trkpt>
      <trkpt lat="47.83204" lon="-0.92066">
        <ele>56.6</ele>
        <time>2020-12-20T10:52:08Z</time>
      </trkpt>
      <trkpt lat="47.83205" lon="-0.92058">
        <ele>56.4</ele>
        <time>2020-12-20T10:52:09Z</time>
      </trkpt>
      <trkpt lat="47.83206" lon="-0.92051">
        <ele>56.2</ele>
        <time>2020-12-20T10:52:10Z</time>
      </trkpt>
      <trkpt lat="47.83208" lon="-0.92044">
        <ele>56.1</ele>
        <time>2020-12-20T10:52:11Z</time>
      </trkpt>
      <trkpt lat="47.83208" lon="-0.92036">
        <ele>55.9</ele>
        <time>2020-12-20T10:52:12Z</time>
      </trkpt>
      <trkpt lat="47.83209" lon="-0.9203">
        <ele>55.7</ele>
        <time>2020-12-20T10:52:13Z</time>
      </trkpt>
      <trkpt lat="47.8321" lon="-0.9202">
        <ele>55.5</ele>
        <time>2020-12-20T10:52:14Z</time>
      </trkpt>
      <trkpt lat="47.83211" lon="-0.92011">
        <ele>55.3</ele>
        <time>2020-12-20T10:52:15Z</time>
      </trkpt>
      <trkpt lat="47.83211" lon="-0.92003">
        <ele>55.1</ele>
        <time>2020-12-20T10:52:16Z</time>
      </trkpt>
      <trkpt lat="47.83212" lon="-0.91995">
        <ele>55</ele>
        <time>2020-12-20T10:52:17Z</time>
      </trkpt>
      <trkpt lat="47.83212" lon="-0.91986">
        <ele>54.9</ele>
        <time>2020-12-20T10:52:18Z</time>
      </trkpt>
      <trkpt lat="47.83213" lon="-0.91978">
        <ele>54.9</ele>
        <time>2020-12-20T10:52:19Z</time>
      </trkpt>
      <trkpt lat="47.83214" lon="-0.9197">
        <ele>54.8</ele>
        <time>2020-12-20T10:52:20Z</time>
      </trkpt>
      <trkpt lat="47.83214" lon="-0.91962">
        <ele>54.8</ele>
        <time>2020-12-20T10:52:21Z</time>
      </trkpt>
      <trkpt lat="47.83215" lon="-0.91953">
        <ele>54.8</ele>
        <time>2020-12-20T10:52:22Z</time>
      </trkpt>
      <trkpt lat="47.83216" lon="-0.91945">
        <ele>54.7</ele>
        <time>2020-12-20T10:52:23Z</time>
      </trkpt>
      <trkpt lat="47.83216" lon="-0.91937">
        <ele>54.7</ele>
        <time>2020-12-20T10:52:24Z</time>
      </trkpt>
      <trkpt lat="47.83217" lon="-0.91929">
        <ele>54.7</ele>
        <time>2020-12-20T10:52:25Z</time>
      </trkpt>
      <trkpt lat="47.83218" lon="-0.91921">
        <ele>54.6</ele>
        <time>2020-12-20T10:52:26Z</time>
      </trkpt>
      <trkpt lat="47.83219" lon="-0.91913">
        <ele>54.7</ele>
        <time>2020-12-20T10:52:27Z</time>
      </trkpt>
      <trkpt lat="47.8322" lon="-0.91905">
        <ele>54.8</ele>
        <time>2020-12-20T10:52:28Z</time>
      </trkpt>
      <trkpt lat="47.8322" lon="-0.91891">
        <ele>54.9</ele>
        <time>2020-12-20T10:52:30Z</time>
      </trkpt>
      <trkpt lat="47.83221" lon="-0.91882">
        <ele>55.1</ele>
        <time>2020-12-20T10:52:31Z</time>
      </trkpt>
      <trkpt lat="47.83221" lon="-0.91866">
        <ele>55.3</ele>
        <time>2020-12-20T10:52:33Z</time>
      </trkpt>
      <trkpt lat="47.83221" lon="-0.91858">
        <ele>55.4</ele>
        <time>2020-12-20T10:52:34Z</time>
      </trkpt>
      <trkpt lat="47.83221" lon="-0.91851">
        <ele>55.4</ele>
        <time>2020-12-20T10:52:35Z</time>
      </trkpt>
      <trkpt lat="47.8322" lon="-0.91844">
        <ele>55.5</ele>
        <time>2020-12-20T10:52:36Z</time>
      </trkpt>
      <trkpt lat="47.8322" lon="-0.91837">
        <ele>55.6</ele>
        <time>2020-12-20T10:52:37Z</time>
      </trkpt>
      <trkpt lat="47.8322" lon="-0.9183">
        <ele>55.6</ele>
        <time>2020-12-20T10:52:38Z</time>
      </trkpt>
      <trkpt lat="47.8322" lon="-0.91824">
        <ele>55.6</ele>
        <time>2020-12-20T10:52:39Z</time>
      </trkpt>
      <trkpt lat="47.8322" lon="-0.91817">
        <ele>55.6</ele>
        <time>2020-12-20T10:52:40Z</time>
      </trkpt>
      <trkpt lat="47.83219" lon="-0.91811">
        <ele>55.6</ele>
        <time>2020-12-20T10:52:41Z</time>
      </trkpt>
      <trkpt lat="47.83219" lon="-0.91805">
        <ele>55.6</ele>
        <time>2020-12-20T10:52:42Z</time>
      </trkpt>
      <trkpt lat="47.83221" lon="-0.91799">
        <ele>55.7</ele>
        <time>2020-12-20T10:52:43Z</time>
      </trkpt>
      <trkpt lat="47.83223" lon="-0.91794">
        <ele>55.7</ele>
        <time>2020-12-20T10:52:44Z</time>
      </trkpt>
      <trkpt lat="47.83226" lon="-0.9179">
        <ele>55.7</ele>
        <time>2020-12-20T10:52:45Z</time>
      </trkpt>
      <trkpt lat="47.83229" lon="-0.91786">
        <ele>55.7</ele>
        <time>2020-12-20T10:52:46Z</time>
      </trkpt>
      <trkpt lat="47.83233" lon="-0.91783">
        <ele>55.8</ele>
        <time>2020-12-20T10:52:47Z</time>
      </trkpt>
      <trkpt lat="47.83237" lon="-0.91781">
        <ele>55.8</ele>
        <time>2020-12-20T10:52:48Z</time>
      </trkpt>
      <trkpt lat="47.83241" lon="-0.9178">
        <ele>55.9</ele>
        <time>2020-12-20T10:52:49Z</time>
      </trkpt>
      <trkpt lat="47.83246" lon="-0.91778">
        <ele>56</ele>
        <time>2020-12-20T10:52:50Z</time>
      </trkpt>
      <trkpt lat="47.8325" lon="-0.91775">
        <ele>56</ele>
        <time>2020-12-20T10:52:51Z</time>
      </trkpt>
      <trkpt lat="47.83254" lon="-0.91773">
        <ele>56</ele>
        <time>2020-12-20T10:52:52Z</time>
      </trkpt>
      <trkpt lat="47.83258" lon="-0.91771">
        <ele>56</ele>
        <time>2020-12-20T10:52:53Z</time>
      </trkpt>
      <trkpt lat="47.83263" lon="-0.91769">
        <ele>55.9</ele>
        <time>2020-12-20T10:52:54Z</time>
      </trkpt>
      <trkpt lat="47.83267" lon="-0.91767">
        <ele>55.9</ele>
        <time>2020-12-20T10:52:55Z</time>
      </trkpt>
      <trkpt lat="47.83271" lon="-0.91765">
        <ele>55.8</ele>
        <time>2020-12-20T10:52:56Z</time>
      </trkpt>
      <trkpt lat="47.83275" lon="-0.91763">
        <ele>55.8</ele>
        <time>2020-12-20T10:52:57Z</time>
      </trkpt>
      <trkpt lat="47.83279" lon="-0.91761">
        <ele>55.7</ele>
        <time>2020-12-20T10:52:58Z</time>
      </trkpt>
      <trkpt lat="47.83282" lon="-0.9176">
        <ele>55.7</ele>
        <time>2020-12-20T10:52:59Z</time>
      </trkpt>
      <trkpt lat="47.83285" lon="-0.91758">
        <ele>55.7</ele>
        <time>2020-12-20T10:53:00Z</time>
      </trkpt>
      <trkpt lat="47.83287" lon="-0.91756">
        <ele>55.6</ele>
        <time>2020-12-20T10:53:01Z</time>
      </trkpt>
      <trkpt lat="47.83288" lon="-0.91754">
        <ele>55.6</ele>
        <time>2020-12-20T10:53:02Z</time>
      </trkpt>
      <trkpt lat="47.83288" lon="-0.91751">
        <ele>55.6</ele>
        <time>2020-12-20T10:53:03Z</time>
      </trkpt>
      <trkpt lat="47.83288" lon="-0.91748">
        <ele>55.5</ele>
        <time>2020-12-20T10:53:04Z</time>
      </trkpt>
      <trkpt lat="47.83286" lon="-0.91744">
        <ele>55.5</ele>
        <time>2020-12-20T10:53:05Z</time>
      </trkpt>
      <trkpt lat="47.83284" lon="-0.9174">
        <ele>55.5</ele>
        <time>2020-12-20T10:53:06Z</time>
      </trkpt>
      <trkpt lat="47.83282" lon="-0.91737">
        <ele>55.5</ele>
        <time>2020-12-20T10:53:07Z</time>
      </trkpt>
      <trkpt lat="47.83281" lon="-0.91732">
        <ele>55.5</ele>
        <time>2020-12-20T10:53:08Z</time>
      </trkpt>
      <trkpt lat="47.8328" lon="-0.91728">
        <ele>55.4</ele>
        <time>2020-12-20T10:53:09Z</time>
      </trkpt>
      <trkpt lat="47.83278" lon="-0.91723">
        <ele>55.4</ele>
        <time>2020-12-20T10:53:10Z</time>
      </trkpt>
      <trkpt lat="47.83276" lon="-0.91719">
        <ele>55.5</ele>
        <time>2020-12-20T10:53:11Z</time>
      </trkpt>
      <trkpt lat="47.83274" lon="-0.91714">
        <ele>55.5</ele>
        <time>2020-12-20T10:53:12Z</time>
      </trkpt>
      <trkpt lat="47.83272" lon="-0.91709">
        <ele>55.5</ele>
        <time>2020-12-20T10:53:13Z</time>
      </trkpt>
      <trkpt lat="47.8327" lon="-0.91704">
        <ele>55.5</ele>
        <time>2020-12-20T10:53:14Z</time>
      </trkpt>
      <trkpt lat="47.83267" lon="-0.91697">
        <ele>55.5</ele>
        <time>2020-12-20T10:53:15Z</time>
      </trkpt>
      <trkpt lat="47.83265" lon="-0.91692">
        <ele>55.6</ele>
        <time>2020-12-20T10:53:16Z</time>
      </trkpt>
      <trkpt lat="47.83263" lon="-0.91686">
        <ele>55.6</ele>
        <time>2020-12-20T10:53:17Z</time>
      </trkpt>
      <trkpt lat="47.83261" lon="-0.91681">
        <ele>55.6</ele>
        <time>2020-12-20T10:53:18Z</time>
      </trkpt>
      <trkpt lat="47.83258" lon="-0.91674">
        <ele>55.7</ele>
        <time>2020-12-20T10:53:19Z</time>
      </trkpt>
      <trkpt lat="47.83256" lon="-0.91667">
        <ele>55.8</ele>
        <time>2020-12-20T10:53:20Z</time>
      </trkpt>
      <trkpt lat="47.83254" lon="-0.9166">
        <ele>55.8</ele>
        <time>2020-12-20T10:53:21Z</time>
      </trkpt>
      <trkpt lat="47.83252" lon="-0.91653">
        <ele>55.8</ele>
        <time>2020-12-20T10:53:22Z</time>
      </trkpt>
      <trkpt lat="47.83251" lon="-0.91647">
        <ele>55.7</ele>
        <time>2020-12-20T10:53:23Z</time>
      </trkpt>
      <trkpt lat="47.83248" lon="-0.91641">
        <ele>55.7</ele>
        <time>2020-12-20T10:53:24Z</time>
      </trkpt>
      <trkpt lat="47.83246" lon="-0.91635">
        <ele>55.5</ele>
        <time>2020-12-20T10:53:25Z</time>
      </trkpt>
      <trkpt lat="47.83244" lon="-0.91627">
        <ele>55.4</ele>
        <time>2020-12-20T10:53:26Z</time>
      </trkpt>
      <trkpt lat="47.83242" lon="-0.91621">
        <ele>55.3</ele>
        <time>2020-12-20T10:53:27Z</time>
      </trkpt>
      <trkpt lat="47.83239" lon="-0.91615">
        <ele>55.2</ele>
        <time>2020-12-20T10:53:28Z</time>
      </trkpt>
      <trkpt lat="47.83237" lon="-0.9161">
        <ele>55.1</ele>
        <time>2020-12-20T10:53:29Z</time>
      </trkpt>
      <trkpt lat="47.83235" lon="-0.91603">
        <ele>55</ele>
        <time>2020-12-20T10:53:30Z</time>
      </trkpt>
      <trkpt lat="47.83232" lon="-0.91598">
        <ele>54.9</ele>
        <time>2020-12-20T10:53:31Z</time>
      </trkpt>
      <trkpt lat="47.83228" lon="-0.91593">
        <ele>54.8</ele>
        <time>2020-12-20T10:53:32Z</time>
      </trkpt>
      <trkpt lat="47.83226" lon="-0.91588">
        <ele>54.8</ele>
        <time>2020-12-20T10:53:33Z</time>
      </trkpt>
      <trkpt lat="47.83224" lon="-0.91583">
        <ele>54.7</ele>
        <time>2020-12-20T10:53:34Z</time>
      </trkpt>
      <trkpt lat="47.83221" lon="-0.91578">
        <ele>54.7</ele>
        <time>2020-12-20T10:53:35Z</time>
      </trkpt>
      <trkpt lat="47.83218" lon="-0.91573">
        <ele>54.6</ele>
        <time>2020-12-20T10:53:36Z</time>
      </trkpt>
      <trkpt lat="47.83215" lon="-0.91568">
        <ele>54.6</ele>
        <time>2020-12-20T10:53:37Z</time>
      </trkpt>
      <trkpt lat="47.83212" lon="-0.91562">
        <ele>54.6</ele>
        <time>2020-12-20T10:53:38Z</time>
      </trkpt>
      <trkpt lat="47.83209" lon="-0.91555">
        <ele>54.7</ele>
        <time>2020-12-20T10:53:39Z</time>
      </trkpt>
      <trkpt lat="47.83206" lon="-0.91549">
        <ele>54.7</ele>
        <time>2020-12-20T10:53:40Z</time>
      </trkpt>
      <trkpt lat="47.83204" lon="-0.91544">
        <ele>54.8</ele>
        <time>2020-12-20T10:53:41Z</time>
      </trkpt>
      <trkpt lat="47.83202" lon="-0.91539">
        <ele>54.8</ele>
        <time>2020-12-20T10:53:42Z</time>
      </trkpt>
      <trkpt lat="47.83199" lon="-0.91535">
        <ele>54.9</ele>
        <time>2020-12-20T10:53:43Z</time>
      </trkpt>
      <trkpt lat="47.83196" lon="-0.9153">
        <ele>55</ele>
        <time>2020-12-20T10:53:44Z</time>
      </trkpt>
      <trkpt lat="47.83194" lon="-0.91525">
        <ele>55</ele>
        <time>2020-12-20T10:53:45Z</time>
      </trkpt>
      <trkpt lat="47.83193" lon="-0.9152">
        <ele>55.1</ele>
        <time>2020-12-20T10:53:46Z</time>
      </trkpt>
      <trkpt lat="47.83193" lon="-0.91514">
        <ele>55.2</ele>
        <time>2020-12-20T10:53:47Z</time>
      </trkpt>
      <trkpt lat="47.83192" lon="-0.91509">
        <ele>55.3</ele>
        <time>2020-12-20T10:53:48Z</time>
      </trkpt>
      <trkpt lat="47.83191" lon="-0.91503">
        <ele>55.4</ele>
        <time>2020-12-20T10:53:49Z</time>
      </trkpt>
      <trkpt lat="47.83191" lon="-0.91497">
        <ele>55.4</ele>
        <time>2020-12-20T10:53:50Z</time>
      </trkpt>
      <trkpt lat="47.83191" lon="-0.91492">
        <ele>55.4</ele>
        <time>2020-12-20T10:53:51Z</time>
      </trkpt>
      <trkpt lat="47.8319" lon="-0.91486">
        <ele>55.4</ele>
        <time>2020-12-20T10:53:52Z</time>
      </trkpt>
      <trkpt lat="47.83189" lon="-0.9148">
        <ele>55.4</ele>
        <time>2020-12-20T10:53:53Z</time>
      </trkpt>
      <trkpt lat="47.83189" lon="-0.91474">
        <ele>55.4</ele>
        <time>2020-12-20T10:53:54Z</time>
      </trkpt>
      <trkpt lat="47.83189" lon="-0.91469">
        <ele>55.4</ele>
        <time>2020-12-20T10:53:55Z</time>
      </trkpt>
      <trkpt lat="47.83189" lon="-0.91463">
        <ele>55.3</ele>
        <time>2020-12-20T10:53:56Z</time>
      </trkpt>
      <trkpt lat="47.83188" lon="-0.91457">
        <ele>55.4</ele>
        <time>2020-12-20T10:53:57Z</time>
      </trkpt>
      <trkpt lat="47.83187" lon="-0.91452">
        <ele>55.4</ele>
        <time>2020-12-20T10:53:58Z</time>
      </trkpt>
      <trkpt lat="47.83186" lon="-0.91445">
        <ele>55.4</ele>
        <time>2020-12-20T10:53:59Z</time>
      </trkpt>
      <trkpt lat="47.83186" lon="-0.9144">
        <ele>55.4</ele>
        <time>2020-12-20T10:54:00Z</time>
      </trkpt>
      <trkpt lat="47.83185" lon="-0.91435">
        <ele>55.4</ele>
        <time>2020-12-20T10:54:01Z</time>
      </trkpt>
      <trkpt lat="47.83183" lon="-0.9143">
        <ele>55.4</ele>
        <time>2020-12-20T10:54:02Z</time>
      </trkpt>
      <trkpt lat="47.83181" lon="-0.91425">
        <ele>55.5</ele>
        <time>2020-12-20T10:54:03Z</time>
      </trkpt>
      <trkpt lat="47.8318" lon="-0.9142">
        <ele>55.5</ele>
        <time>2020-12-20T10:54:04Z</time>
      </trkpt>
      <trkpt lat="47.83178" lon="-0.91414">
        <ele>55.6</ele>
        <time>2020-12-20T10:54:05Z</time>
      </trkpt>
      <trkpt lat="47.83176" lon="-0.91409">
        <ele>55.7</ele>
        <time>2020-12-20T10:54:06Z</time>
      </trkpt>
      <trkpt lat="47.83175" lon="-0.91403">
        <ele>55.7</ele>
        <time>2020-12-20T10:54:07Z</time>
      </trkpt>
      <trkpt lat="47.83173" lon="-0.91397">
        <ele>55.8</ele>
        <time>2020-12-20T10:54:08Z</time>
      </trkpt>
      <trkpt lat="47.83172" lon="-0.91392">
        <ele>55.8</ele>
        <time>2020-12-20T10:54:09Z</time>
      </trkpt>
      <trkpt lat="47.8317" lon="-0.91386">
        <ele>55.9</ele>
        <time>2020-12-20T10:54:10Z</time>
      </trkpt>
      <trkpt lat="47.83168" lon="-0.91381">
        <ele>56</ele>
        <time>2020-12-20T10:54:11Z</time>
      </trkpt>
      <trkpt lat="47.83166" lon="-0.91375">
        <ele>56</ele>
        <time>2020-12-20T10:54:12Z</time>
      </trkpt>
      <trkpt lat="47.83164" lon="-0.9137">
        <ele>56.1</ele>
        <time>2020-12-20T10:54:13Z</time>
      </trkpt>
      <trkpt lat="47.83163" lon="-0.91366">
        <ele>56.1</ele>
        <time>2020-12-20T10:54:14Z</time>
      </trkpt>
      <trkpt lat="47.8316" lon="-0.91359">
        <ele>56.2</ele>
        <time>2020-12-20T10:54:15Z</time>
      </trkpt>
      <trkpt lat="47.83159" lon="-0.91354">
        <ele>56.2</ele>
        <time>2020-12-20T10:54:16Z</time>
      </trkpt>
      <trkpt lat="47.83158" lon="-0.91347">
        <ele>56.3</ele>
        <time>2020-12-20T10:54:17Z</time>
      </trkpt>
      <trkpt lat="47.83157" lon="-0.9134">
        <ele>56.3</ele>
        <time>2020-12-20T10:54:18Z</time>
      </trkpt>
      <trkpt lat="47.83157" lon="-0.91336">
        <ele>56.3</ele>
        <time>2020-12-20T10:54:19Z</time>
      </trkpt>
      <trkpt lat="47.83155" lon="-0.9133">
        <ele>56.4</ele>
        <time>2020-12-20T10:54:20Z</time>
      </trkpt>
      <trkpt lat="47.83153" lon="-0.91325">
        <ele>56.5</ele>
        <time>2020-12-20T10:54:21Z</time>
      </trkpt>
      <trkpt lat="47.83152" lon="-0.9132">
        <ele>56.5</ele>
        <time>2020-12-20T10:54:22Z</time>
      </trkpt>
      <trkpt lat="47.8315" lon="-0.91314">
        <ele>56.6</ele>
        <time>2020-12-20T10:54:23Z</time>
      </trkpt>
      <trkpt lat="47.8315" lon="-0.91309">
        <ele>56.6</ele>
        <time>2020-12-20T10:54:24Z</time>
      </trkpt>
      <trkpt lat="47.8315" lon="-0.91303">
        <ele>56.6</ele>
        <time>2020-12-20T10:54:25Z</time>
      </trkpt>
      <trkpt lat="47.8315" lon="-0.91296">
        <ele>56.6</ele>
        <time>2020-12-20T10:54:26Z</time>
      </trkpt>
      <trkpt lat="47.8315" lon="-0.91289">
        <ele>56.6</ele>
        <time>2020-12-20T10:54:27Z</time>
      </trkpt>
      <trkpt lat="47.83149" lon="-0.91283">
        <ele>56.6</ele>
        <time>2020-12-20T10:54:28Z</time>
      </trkpt>
      <trkpt lat="47.83148" lon="-0.91277">
        <ele>56.7</ele>
        <time>2020-12-20T10:54:29Z</time>
      </trkpt>
      <trkpt lat="47.83148" lon="-0.91271">
        <ele>56.7</ele>
        <time>2020-12-20T10:54:30Z</time>
      </trkpt>
      <trkpt lat="47.83146" lon="-0.91264">
        <ele>56.7</ele>
        <time>2020-12-20T10:54:31Z</time>
      </trkpt>
      <trkpt lat="47.83146" lon="-0.91257">
        <ele>56.7</ele>
        <time>2020-12-20T10:54:32Z</time>
      </trkpt>
      <trkpt lat="47.83146" lon="-0.91251">
        <ele>56.7</ele>
        <time>2020-12-20T10:54:33Z</time>
      </trkpt>
      <trkpt lat="47.83146" lon="-0.91244">
        <ele>56.8</ele>
        <time>2020-12-20T10:54:34Z</time>
      </trkpt>
      <trkpt lat="47.83143" lon="-0.91238">
        <ele>57</ele>
        <time>2020-12-20T10:54:35Z</time>
      </trkpt>
      <trkpt lat="47.83142" lon="-0.91232">
        <ele>57</ele>
        <time>2020-12-20T10:54:36Z</time>
      </trkpt>
      <trkpt lat="47.8314" lon="-0.91227">
        <ele>57.1</ele>
        <time>2020-12-20T10:54:37Z</time>
      </trkpt>
      <trkpt lat="47.83137" lon="-0.91222">
        <ele>57.3</ele>
        <time>2020-12-20T10:54:38Z</time>
      </trkpt>
      <trkpt lat="47.83134" lon="-0.91215">
        <ele>57.4</ele>
        <time>2020-12-20T10:54:39Z</time>
      </trkpt>
      <trkpt lat="47.83132" lon="-0.91209">
        <ele>57.5</ele>
        <time>2020-12-20T10:54:40Z</time>
      </trkpt>
      <trkpt lat="47.8313" lon="-0.91204">
        <ele>57.6</ele>
        <time>2020-12-20T10:54:41Z</time>
      </trkpt>
      <trkpt lat="47.83128" lon="-0.91198">
        <ele>57.7</ele>
        <time>2020-12-20T10:54:42Z</time>
      </trkpt>
      <trkpt lat="47.83126" lon="-0.91192">
        <ele>57.8</ele>
        <time>2020-12-20T10:54:43Z</time>
      </trkpt>
      <trkpt lat="47.83124" lon="-0.91187">
        <ele>57.9</ele>
        <time>2020-12-20T10:54:44Z</time>
      </trkpt>
      <trkpt lat="47.83122" lon="-0.91182">
        <ele>58</ele>
        <time>2020-12-20T10:54:45Z</time>
      </trkpt>
      <trkpt lat="47.8312" lon="-0.91178">
        <ele>58.1</ele>
        <time>2020-12-20T10:54:46Z</time>
      </trkpt>
      <trkpt lat="47.83118" lon="-0.91173">
        <ele>58.1</ele>
        <time>2020-12-20T10:54:47Z</time>
      </trkpt>
      <trkpt lat="47.83116" lon="-0.91169">
        <ele>58.2</ele>
        <time>2020-12-20T10:54:48Z</time>
      </trkpt>
      <trkpt lat="47.83114" lon="-0.91165">
        <ele>58.3</ele>
        <time>2020-12-20T10:54:49Z</time>
      </trkpt>
      <trkpt lat="47.83112" lon="-0.9116">
        <ele>58.4</ele>
        <time>2020-12-20T10:54:50Z</time>
      </trkpt>
      <trkpt lat="47.8311" lon="-0.91157">
        <ele>58.5</ele>
        <time>2020-12-20T10:54:51Z</time>
      </trkpt>
      <trkpt lat="47.83107" lon="-0.91151">
        <ele>58.7</ele>
        <time>2020-12-20T10:54:52Z</time>
      </trkpt>
      <trkpt lat="47.83105" lon="-0.91146">
        <ele>58.8</ele>
        <time>2020-12-20T10:54:53Z</time>
      </trkpt>
      <trkpt lat="47.83103" lon="-0.91142">
        <ele>58.9</ele>
        <time>2020-12-20T10:54:54Z</time>
      </trkpt>
      <trkpt lat="47.831" lon="-0.91138">
        <ele>59</ele>
        <time>2020-12-20T10:54:55Z</time>
      </trkpt>
      <trkpt lat="47.83098" lon="-0.91134">
        <ele>59.1</ele>
        <time>2020-12-20T10:54:56Z</time>
      </trkpt>
      <trkpt lat="47.83096" lon="-0.9113">
        <ele>59.2</ele>
        <time>2020-12-20T10:54:57Z</time>
      </trkpt>
      <trkpt lat="47.83094" lon="-0.91126">
        <ele>59.3</ele>
        <time>2020-12-20T10:54:58Z</time>
      </trkpt>
      <trkpt lat="47.83091" lon="-0.91121">
        <ele>59.4</ele>
        <time>2020-12-20T10:54:59Z</time>
      </trkpt>
      <trkpt lat="47.83089" lon="-0.91117">
        <ele>59.5</ele>
        <time>2020-12-20T10:55:00Z</time>
      </trkpt>
      <trkpt lat="47.83086" lon="-0.91113">
        <ele>59.6</ele>
        <time>2020-12-20T10:55:01Z</time>
      </trkpt>
      <trkpt lat="47.83084" lon="-0.91109">
        <ele>59.7</ele>
        <time>2020-12-20T10:55:02Z</time>
      </trkpt>
      <trkpt lat="47.83082" lon="-0.91105">
        <ele>59.8</ele>
        <time>2020-12-20T10:55:03Z</time>
      </trkpt>
      <trkpt lat="47.8308" lon="-0.91102">
        <ele>59.8</ele>
        <time>2020-12-20T10:55:04Z</time>
      </trkpt>
      <trkpt lat="47.83077" lon="-0.91097">
        <ele>59.9</ele>
        <time>2020-12-20T10:55:05Z</time>
      </trkpt>
      <trkpt lat="47.83075" lon="-0.91094">
        <ele>60</ele>
        <time>2020-12-20T10:55:06Z</time>
      </trkpt>
      <trkpt lat="47.83072" lon="-0.9109">
        <ele>60.1</ele>
        <time>2020-12-20T10:55:07Z</time>
      </trkpt>
      <trkpt lat="47.83069" lon="-0.91087">
        <ele>60.1</ele>
        <time>2020-12-20T10:55:08Z</time>
      </trkpt>
      <trkpt lat="47.83067" lon="-0.91084">
        <ele>60.2</ele>
        <time>2020-12-20T10:55:09Z</time>
      </trkpt>
      <trkpt lat="47.83065" lon="-0.91081">
        <ele>60.2</ele>
        <time>2020-12-20T10:55:10Z</time>
      </trkpt>
      <trkpt lat="47.83063" lon="-0.91077">
        <ele>60.3</ele>
        <time>2020-12-20T10:55:11Z</time>
      </trkpt>
      <trkpt lat="47.83061" lon="-0.91074">
        <ele>60.3</ele>
        <time>2020-12-20T10:55:12Z</time>
      </trkpt>
      <trkpt lat="47.83058" lon="-0.91071">
        <ele>60.3</ele>
        <time>2020-12-20T10:55:13Z</time>
      </trkpt>
      <trkpt lat="47.83056" lon="-0.91068">
        <ele>60.4</ele>
        <time>2020-12-20T10:55:14Z</time>
      </trkpt>
      <trkpt lat="47.83053" lon="-0.91065">
        <ele>60.4</ele>
        <time>2020-12-20T10:55:15Z</time>
      </trkpt>
      <trkpt lat="47.8305" lon="-0.91061">
        <ele>60.5</ele>
        <time>2020-12-20T10:55:16Z</time>
      </trkpt>
      <trkpt lat="47.83047" lon="-0.91058">
        <ele>60.6</ele>
        <time>2020-12-20T10:55:17Z</time>
      </trkpt>
      <trkpt lat="47.83045" lon="-0.91055">
        <ele>60.6</ele>
        <time>2020-12-20T10:55:18Z</time>
      </trkpt>
      <trkpt lat="47.83042" lon="-0.91053">
        <ele>60.7</ele>
        <time>2020-12-20T10:55:19Z</time>
      </trkpt>
      <trkpt lat="47.83039" lon="-0.9105">
        <ele>60.7</ele>
        <time>2020-12-20T10:55:20Z</time>
      </trkpt>
      <trkpt lat="47.83036" lon="-0.91048">
        <ele>60.8</ele>
        <time>2020-12-20T10:55:21Z</time>
      </trkpt>
      <trkpt lat="47.83034" lon="-0.91045">
        <ele>60.9</ele>
        <time>2020-12-20T10:55:22Z</time>
      </trkpt>
      <trkpt lat="47.83032" lon="-0.91043">
        <ele>60.9</ele>
        <time>2020-12-20T10:55:23Z</time>
      </trkpt>
      <trkpt lat="47.83029" lon="-0.9104">
        <ele>61</ele>
        <time>2020-12-20T10:55:24Z</time>
      </trkpt>
      <trkpt lat="47.83026" lon="-0.91038">
        <ele>61.1</ele>
        <time>2020-12-20T10:55:25Z</time>
      </trkpt>
      <trkpt lat="47.83024" lon="-0.91035">
        <ele>61.1</ele>
        <time>2020-12-20T10:55:26Z</time>
      </trkpt>
      <trkpt lat="47.83021" lon="-0.91033">
        <ele>61.2</ele>
        <time>2020-12-20T10:55:27Z</time>
      </trkpt>
      <trkpt lat="47.83019" lon="-0.9103">
        <ele>61.3</ele>
        <time>2020-12-20T10:55:28Z</time>
      </trkpt>
      <trkpt lat="47.83016" lon="-0.91027">
        <ele>61.4</ele>
        <time>2020-12-20T10:55:29Z</time>
      </trkpt>
      <trkpt lat="47.83014" lon="-0.91025">
        <ele>61.4</ele>
        <time>2020-12-20T10:55:30Z</time>
      </trkpt>
      <trkpt lat="47.83012" lon="-0.91022">
        <ele>61.5</ele>
        <time>2020-12-20T10:55:31Z</time>
      </trkpt>
      <trkpt lat="47.83009" lon="-0.9102">
        <ele>61.6</ele>
        <time>2020-12-20T10:55:32Z</time>
      </trkpt>
      <trkpt lat="47.83007" lon="-0.91017">
        <ele>61.6</ele>
        <time>2020-12-20T10:55:33Z</time>
      </trkpt>
      <trkpt lat="47.83004" lon="-0.91014">
        <ele>61.7</ele>
        <time>2020-12-20T10:55:34Z</time>
      </trkpt>
      <trkpt lat="47.83001" lon="-0.91012">
        <ele>61.8</ele>
        <time>2020-12-20T10:55:35Z</time>
      </trkpt>
      <trkpt lat="47.82998" lon="-0.91009">
        <ele>61.9</ele>
        <time>2020-12-20T10:55:36Z</time>
      </trkpt>
      <trkpt lat="47.82995" lon="-0.91007">
        <ele>62</ele>
        <time>2020-12-20T10:55:37Z</time>
      </trkpt>
      <trkpt lat="47.82993" lon="-0.91004">
        <ele>62</ele>
        <time>2020-12-20T10:55:38Z</time>
      </trkpt>
      <trkpt lat="47.8299" lon="-0.91002">
        <ele>62.1</ele>
        <time>2020-12-20T10:55:39Z</time>
      </trkpt>
      <trkpt lat="47.82987" lon="-0.90999">
        <ele>62.2</ele>
        <time>2020-12-20T10:55:40Z</time>
      </trkpt>
      <trkpt lat="47.82984" lon="-0.90997">
        <ele>62.2</ele>
        <time>2020-12-20T10:55:41Z</time>
      </trkpt>
      <trkpt lat="47.82982" lon="-0.90994">
        <ele>62.2</ele>
        <time>2020-12-20T10:55:42Z</time>
      </trkpt>
      <trkpt lat="47.82979" lon="-0.90992">
        <ele>62.3</ele>
        <time>2020-12-20T10:55:43Z</time>
      </trkpt>
      <trkpt lat="47.82976" lon="-0.9099">
        <ele>62.3</ele>
        <time>2020-12-20T10:55:44Z</time>
      </trkpt>
      <trkpt lat="47.82974" lon="-0.90988">
        <ele>62.3</ele>
        <time>2020-12-20T10:55:45Z</time>
      </trkpt>
      <trkpt lat="47.82971" lon="-0.90985">
        <ele>62.3</ele>
        <time>2020-12-20T10:55:46Z</time>
      </trkpt>
      <trkpt lat="47.82969" lon="-0.90983">
        <ele>62.4</ele>
        <time>2020-12-20T10:55:47Z</time>
      </trkpt>
      <trkpt lat="47.82966" lon="-0.90981">
        <ele>62.4</ele>
        <time>2020-12-20T10:55:48Z</time>
      </trkpt>
      <trkpt lat="47.82964" lon="-0.9098">
        <ele>62.4</ele>
        <time>2020-12-20T10:55:49Z</time>
      </trkpt>
      <trkpt lat="47.82961" lon="-0.90978">
        <ele>62.5</ele>
        <time>2020-12-20T10:55:50Z</time>
      </trkpt>
      <trkpt lat="47.82959" lon="-0.90976">
        <ele>62.5</ele>
        <time>2020-12-20T10:55:51Z</time>
      </trkpt>
      <trkpt lat="47.82957" lon="-0.90974">
        <ele>62.5</ele>
        <time>2020-12-20T10:55:52Z</time>
      </trkpt>
      <trkpt lat="47.82955" lon="-0.90973">
        <ele>62.5</ele>
        <time>2020-12-20T10:55:53Z</time>
      </trkpt>
      <trkpt lat="47.82953" lon="-0.90971">
        <ele>62.6</ele>
        <time>2020-12-20T10:55:54Z</time>
      </trkpt>
      <trkpt lat="47.82951" lon="-0.90969">
        <ele>62.6</ele>
        <time>2020-12-20T10:55:55Z</time>
      </trkpt>
      <trkpt lat="47.82948" lon="-0.90967">
        <ele>62.6</ele>
        <time>2020-12-20T10:55:56Z</time>
      </trkpt>
      <trkpt lat="47.82946" lon="-0.90965">
        <ele>62.6</ele>
        <time>2020-12-20T10:55:57Z</time>
      </trkpt>
      <trkpt lat="47.82943" lon="-0.90964">
        <ele>62.7</ele>
        <time>2020-12-20T10:55:58Z</time>
      </trkpt>
      <trkpt lat="47.82941" lon="-0.90962">
        <ele>62.7</ele>
        <time>2020-12-20T10:55:59Z</time>
      </trkpt>
      <trkpt lat="47.82939" lon="-0.90961">
        <ele>62.7</ele>
        <time>2020-12-20T10:56:00Z</time>
      </trkpt>
      <trkpt lat="47.82937" lon="-0.90959">
        <ele>62.8</ele>
        <time>2020-12-20T10:56:01Z</time>
      </trkpt>
      <trkpt lat="47.82935" lon="-0.90958">
        <ele>62.8</ele>
        <time>2020-12-20T10:56:02Z</time>
      </trkpt>
      <trkpt lat="47.82933" lon="-0.90957">
        <ele>62.8</ele>
        <time>2020-12-20T10:56:03Z</time>
      </trkpt>
      <trkpt lat="47.82932" lon="-0.90956">
        <ele>62.8</ele>
        <time>2020-12-20T10:56:04Z</time>
      </trkpt>
      <trkpt lat="47.82931" lon="-0.90955">
        <ele>62.8</ele>
        <time>2020-12-20T10:56:05Z</time>
      </trkpt>
      <trkpt lat="47.8293" lon="-0.90954">
        <ele>62.8</ele>
        <time>2020-12-20T10:56:06Z</time>
      </trkpt>
      <trkpt lat="47.82928" lon="-0.90954">
        <ele>62.9</ele>
        <time>2020-12-20T10:56:07Z</time>
      </trkpt>
      <trkpt lat="47.82927" lon="-0.90952">
        <ele>62.9</ele>
        <time>2020-12-20T10:56:08Z</time>
      </trkpt>
      <trkpt lat="47.82925" lon="-0.90951">
        <ele>62.9</ele>
        <time>2020-12-20T10:56:09Z</time>
      </trkpt>
      <trkpt lat="47.82922" lon="-0.90948">
        <ele>62.9</ele>
        <time>2020-12-20T10:56:10Z</time>
      </trkpt>
      <trkpt lat="47.8292" lon="-0.90944">
        <ele>63</ele>
        <time>2020-12-20T10:56:11Z</time>
      </trkpt>
      <trkpt lat="47.82918" lon="-0.9094">
        <ele>63</ele>
        <time>2020-12-20T10:56:12Z</time>
      </trkpt>
      <trkpt lat="47.82916" lon="-0.90934">
        <ele>63</ele>
        <time>2020-12-20T10:56:13Z</time>
      </trkpt>
      <trkpt lat="47.82914" lon="-0.9093">
        <ele>63</ele>
        <time>2020-12-20T10:56:14Z</time>
      </trkpt>
      <trkpt lat="47.82913" lon="-0.90924">
        <ele>63</ele>
        <time>2020-12-20T10:56:15Z</time>
      </trkpt>
      <trkpt lat="47.82912" lon="-0.90918">
        <ele>63</ele>
        <time>2020-12-20T10:56:16Z</time>
      </trkpt>
      <trkpt lat="47.82911" lon="-0.90913">
        <ele>63</ele>
        <time>2020-12-20T10:56:17Z</time>
      </trkpt>
      <trkpt lat="47.82909" lon="-0.90907">
        <ele>63.1</ele>
        <time>2020-12-20T10:56:18Z</time>
      </trkpt>
      <trkpt lat="47.82908" lon="-0.909">
        <ele>63.2</ele>
        <time>2020-12-20T10:56:19Z</time>
      </trkpt>
      <trkpt lat="47.82907" lon="-0.90895">
        <ele>63.3</ele>
        <time>2020-12-20T10:56:20Z</time>
      </trkpt>
      <trkpt lat="47.82906" lon="-0.90889">
        <ele>63.4</ele>
        <time>2020-12-20T10:56:21Z</time>
      </trkpt>
      <trkpt lat="47.82905" lon="-0.90882">
        <ele>63.5</ele>
        <time>2020-12-20T10:56:22Z</time>
      </trkpt>
      <trkpt lat="47.82903" lon="-0.90876">
        <ele>63.6</ele>
        <time>2020-12-20T10:56:23Z</time>
      </trkpt>
      <trkpt lat="47.82902" lon="-0.9087">
        <ele>63.7</ele>
        <time>2020-12-20T10:56:24Z</time>
      </trkpt>
      <trkpt lat="47.82901" lon="-0.90866">
        <ele>63.7</ele>
        <time>2020-12-20T10:56:25Z</time>
      </trkpt>
      <trkpt lat="47.82899" lon="-0.90858">
        <ele>63.9</ele>
        <time>2020-12-20T10:56:26Z</time>
      </trkpt>
      <trkpt lat="47.82898" lon="-0.90852">
        <ele>63.9</ele>
        <time>2020-12-20T10:56:27Z</time>
      </trkpt>
      <trkpt lat="47.82896" lon="-0.90846">
        <ele>64.1</ele>
        <time>2020-12-20T10:56:28Z</time>
      </trkpt>
      <trkpt lat="47.82896" lon="-0.9084">
        <ele>64.1</ele>
        <time>2020-12-20T10:56:29Z</time>
      </trkpt>
      <trkpt lat="47.82895" lon="-0.90833">
        <ele>64.3</ele>
        <time>2020-12-20T10:56:30Z</time>
      </trkpt>
      <trkpt lat="47.82894" lon="-0.90827">
        <ele>64.2</ele>
        <time>2020-12-20T10:56:31Z</time>
      </trkpt>
      <trkpt lat="47.82894" lon="-0.90819">
        <ele>64.2</ele>
        <time>2020-12-20T10:56:32Z</time>
      </trkpt>
      <trkpt lat="47.82893" lon="-0.90812">
        <ele>64.2</ele>
        <time>2020-12-20T10:56:33Z</time>
      </trkpt>
      <trkpt lat="47.82893" lon="-0.90805">
        <ele>64.1</ele>
        <time>2020-12-20T10:56:34Z</time>
      </trkpt>
      <trkpt lat="47.82892" lon="-0.90799">
        <ele>64.1</ele>
        <time>2020-12-20T10:56:35Z</time>
      </trkpt>
      <trkpt lat="47.82892" lon="-0.90792">
        <ele>64.1</ele>
        <time>2020-12-20T10:56:36Z</time>
      </trkpt>
      <trkpt lat="47.82891" lon="-0.90785">
        <ele>64.1</ele>
        <time>2020-12-20T10:56:37Z</time>
      </trkpt>
      <trkpt lat="47.82891" lon="-0.90779">
        <ele>64.1</ele>
        <time>2020-12-20T10:56:38Z</time>
      </trkpt>
      <trkpt lat="47.82891" lon="-0.90772">
        <ele>64</ele>
        <time>2020-12-20T10:56:39Z</time>
      </trkpt>
      <trkpt lat="47.8289" lon="-0.90765">
        <ele>64</ele>
        <time>2020-12-20T10:56:40Z</time>
      </trkpt>
      <trkpt lat="47.8289" lon="-0.90757">
        <ele>64</ele>
        <time>2020-12-20T10:56:41Z</time>
      </trkpt>
      <trkpt lat="47.82889" lon="-0.9075">
        <ele>64</ele>
        <time>2020-12-20T10:56:42Z</time>
      </trkpt>
      <trkpt lat="47.82889" lon="-0.90742">
        <ele>64.1</ele>
        <time>2020-12-20T10:56:43Z</time>
      </trkpt>
      <trkpt lat="47.82888" lon="-0.90735">
        <ele>64.3</ele>
        <time>2020-12-20T10:56:44Z</time>
      </trkpt>
      <trkpt lat="47.82888" lon="-0.90727">
        <ele>64.4</ele>
        <time>2020-12-20T10:56:45Z</time>
      </trkpt>
      <trkpt lat="47.82887" lon="-0.9072">
        <ele>64.6</ele>
        <time>2020-12-20T10:56:46Z</time>
      </trkpt>
      <trkpt lat="47.82887" lon="-0.90712">
        <ele>64.7</ele>
        <time>2020-12-20T10:56:47Z</time>
      </trkpt>
      <trkpt lat="47.82886" lon="-0.90705">
        <ele>64.8</ele>
        <time>2020-12-20T10:56:48Z</time>
      </trkpt>
      <trkpt lat="47.82885" lon="-0.90697">
        <ele>65</ele>
        <time>2020-12-20T10:56:49Z</time>
      </trkpt>
      <trkpt lat="47.82885" lon="-0.9069">
        <ele>65.1</ele>
        <time>2020-12-20T10:56:50Z</time>
      </trkpt>
      <trkpt lat="47.82883" lon="-0.90684">
        <ele>65.3</ele>
        <time>2020-12-20T10:56:51Z</time>
      </trkpt>
      <trkpt lat="47.82879" lon="-0.90679">
        <ele>65.6</ele>
        <time>2020-12-20T10:56:52Z</time>
      </trkpt>
      <trkpt lat="47.82875" lon="-0.90678">
        <ele>65.8</ele>
        <time>2020-12-20T10:56:53Z</time>
      </trkpt>
      <trkpt lat="47.8287" lon="-0.9068">
        <ele>66</ele>
        <time>2020-12-20T10:56:54Z</time>
      </trkpt>
      <trkpt lat="47.82865" lon="-0.90682">
        <ele>66.2</ele>
        <time>2020-12-20T10:56:55Z</time>
      </trkpt>
      <trkpt lat="47.8286" lon="-0.90685">
        <ele>66.4</ele>
        <time>2020-12-20T10:56:56Z</time>
      </trkpt>
      <trkpt lat="47.82855" lon="-0.90687">
        <ele>66.5</ele>
        <time>2020-12-20T10:56:57Z</time>
      </trkpt>
      <trkpt lat="47.8285" lon="-0.9069">
        <ele>66.7</ele>
        <time>2020-12-20T10:56:58Z</time>
      </trkpt>
      <trkpt lat="47.82846" lon="-0.90692">
        <ele>66.8</ele>
        <time>2020-12-20T10:56:59Z</time>
      </trkpt>
      <trkpt lat="47.82842" lon="-0.90695">
        <ele>66.9</ele>
        <time>2020-12-20T10:57:00Z</time>
      </trkpt>
      <trkpt lat="47.82837" lon="-0.90698">
        <ele>67.1</ele>
        <time>2020-12-20T10:57:01Z</time>
      </trkpt>
      <trkpt lat="47.82834" lon="-0.907">
        <ele>67.2</ele>
        <time>2020-12-20T10:57:02Z</time>
      </trkpt>
      <trkpt lat="47.82828" lon="-0.90703">
        <ele>67.2</ele>
        <time>2020-12-20T10:57:03Z</time>
      </trkpt>
      <trkpt lat="47.82824" lon="-0.90705">
        <ele>67.1</ele>
        <time>2020-12-20T10:57:04Z</time>
      </trkpt>
      <trkpt lat="47.82819" lon="-0.90708">
        <ele>67.1</ele>
        <time>2020-12-20T10:57:05Z</time>
      </trkpt>
      <trkpt lat="47.82815" lon="-0.90711">
        <ele>67.1</ele>
        <time>2020-12-20T10:57:06Z</time>
      </trkpt>
      <trkpt lat="47.8281" lon="-0.90713">
        <ele>67</ele>
        <time>2020-12-20T10:57:07Z</time>
      </trkpt>
      <trkpt lat="47.82806" lon="-0.90716">
        <ele>67</ele>
        <time>2020-12-20T10:57:08Z</time>
      </trkpt>
      <trkpt lat="47.82801" lon="-0.90719">
        <ele>67</ele>
        <time>2020-12-20T10:57:09Z</time>
      </trkpt>
      <trkpt lat="47.82796" lon="-0.90722">
        <ele>67</ele>
        <time>2020-12-20T10:57:10Z</time>
      </trkpt>
      <trkpt lat="47.82792" lon="-0.90724">
        <ele>67</ele>
        <time>2020-12-20T10:57:11Z</time>
      </trkpt>
      <trkpt lat="47.82787" lon="-0.90728">
        <ele>66.9</ele>
        <time>2020-12-20T10:57:12Z</time>
      </trkpt>
      <trkpt lat="47.82784" lon="-0.9073">
        <ele>66.9</ele>
        <time>2020-12-20T10:57:13Z</time>
      </trkpt>
      <trkpt lat="47.82779" lon="-0.90732">
        <ele>66.9</ele>
        <time>2020-12-20T10:57:14Z</time>
      </trkpt>
      <trkpt lat="47.82775" lon="-0.90735">
        <ele>66.9</ele>
        <time>2020-12-20T10:57:15Z</time>
      </trkpt>
      <trkpt lat="47.8277" lon="-0.90738">
        <ele>66.9</ele>
        <time>2020-12-20T10:57:16Z</time>
      </trkpt>
      <trkpt lat="47.82766" lon="-0.90741">
        <ele>66.9</ele>
        <time>2020-12-20T10:57:17Z</time>
      </trkpt>
      <trkpt lat="47.82762" lon="-0.90743">
        <ele>67</ele>
        <time>2020-12-20T10:57:18Z</time>
      </trkpt>
      <trkpt lat="47.82758" lon="-0.90746">
        <ele>67</ele>
        <time>2020-12-20T10:57:19Z</time>
      </trkpt>
      <trkpt lat="47.82753" lon="-0.90749">
        <ele>67</ele>
        <time>2020-12-20T10:57:20Z</time>
      </trkpt>
      <trkpt lat="47.82749" lon="-0.90752">
        <ele>67</ele>
        <time>2020-12-20T10:57:21Z</time>
      </trkpt>
      <trkpt lat="47.82745" lon="-0.90755">
        <ele>67.1</ele>
        <time>2020-12-20T10:57:22Z</time>
      </trkpt>
      <trkpt lat="47.82741" lon="-0.90759">
        <ele>67.2</ele>
        <time>2020-12-20T10:57:23Z</time>
      </trkpt>
      <trkpt lat="47.82737" lon="-0.90763">
        <ele>67.3</ele>
        <time>2020-12-20T10:57:24Z</time>
      </trkpt>
      <trkpt lat="47.82733" lon="-0.90766">
        <ele>67.3</ele>
        <time>2020-12-20T10:57:25Z</time>
      </trkpt>
      <trkpt lat="47.82729" lon="-0.9077">
        <ele>67.4</ele>
        <time>2020-12-20T10:57:26Z</time>
      </trkpt>
      <trkpt lat="47.82725" lon="-0.90773">
        <ele>67.4</ele>
        <time>2020-12-20T10:57:27Z</time>
      </trkpt>
      <trkpt lat="47.82721" lon="-0.90777">
        <ele>67.5</ele>
        <time>2020-12-20T10:57:28Z</time>
      </trkpt>
      <trkpt lat="47.82717" lon="-0.9078">
        <ele>67.5</ele>
        <time>2020-12-20T10:57:29Z</time>
      </trkpt>
      <trkpt lat="47.82713" lon="-0.90784">
        <ele>67.5</ele>
        <time>2020-12-20T10:57:30Z</time>
      </trkpt>
      <trkpt lat="47.82709" lon="-0.90787">
        <ele>67.5</ele>
        <time>2020-12-20T10:57:31Z</time>
      </trkpt>
      <trkpt lat="47.82706" lon="-0.90791">
        <ele>67.5</ele>
        <time>2020-12-20T10:57:32Z</time>
      </trkpt>
      <trkpt lat="47.82702" lon="-0.90795">
        <ele>67.5</ele>
        <time>2020-12-20T10:57:33Z</time>
      </trkpt>
      <trkpt lat="47.82698" lon="-0.90798">
        <ele>67.5</ele>
        <time>2020-12-20T10:57:34Z</time>
      </trkpt>
      <trkpt lat="47.82694" lon="-0.90801">
        <ele>67.5</ele>
        <time>2020-12-20T10:57:35Z</time>
      </trkpt>
      <trkpt lat="47.82691" lon="-0.90804">
        <ele>67.5</ele>
        <time>2020-12-20T10:57:36Z</time>
      </trkpt>
      <trkpt lat="47.82687" lon="-0.90807">
        <ele>67.5</ele>
        <time>2020-12-20T10:57:37Z</time>
      </trkpt>
      <trkpt lat="47.82684" lon="-0.90811">
        <ele>67.4</ele>
        <time>2020-12-20T10:57:38Z</time>
      </trkpt>
      <trkpt lat="47.8268" lon="-0.90813">
        <ele>67.4</ele>
        <time>2020-12-20T10:57:39Z</time>
      </trkpt>
      <trkpt lat="47.82677" lon="-0.90816">
        <ele>67.4</ele>
        <time>2020-12-20T10:57:40Z</time>
      </trkpt>
      <trkpt lat="47.82674" lon="-0.90818">
        <ele>67.3</ele>
        <time>2020-12-20T10:57:41Z</time>
      </trkpt>
      <trkpt lat="47.8267" lon="-0.9082">
        <ele>67.3</ele>
        <time>2020-12-20T10:57:42Z</time>
      </trkpt>
      <trkpt lat="47.82666" lon="-0.90822">
        <ele>67.3</ele>
        <time>2020-12-20T10:57:43Z</time>
      </trkpt>
      <trkpt lat="47.82663" lon="-0.90824">
        <ele>67.3</ele>
        <time>2020-12-20T10:57:44Z</time>
      </trkpt>
      <trkpt lat="47.82659" lon="-0.90826">
        <ele>67.4</ele>
        <time>2020-12-20T10:57:45Z</time>
      </trkpt>
      <trkpt lat="47.82655" lon="-0.90828">
        <ele>67.4</ele>
        <time>2020-12-20T10:57:46Z</time>
      </trkpt>
      <trkpt lat="47.82651" lon="-0.90829">
        <ele>67.5</ele>
        <time>2020-12-20T10:57:47Z</time>
      </trkpt>
      <trkpt lat="47.82647" lon="-0.9083">
        <ele>67.5</ele>
        <time>2020-12-20T10:57:48Z</time>
      </trkpt>
      <trkpt lat="47.82643" lon="-0.90832">
        <ele>67.6</ele>
        <time>2020-12-20T10:57:49Z</time>
      </trkpt>
      <trkpt lat="47.82639" lon="-0.90833">
        <ele>67.7</ele>
        <time>2020-12-20T10:57:50Z</time>
      </trkpt>
      <trkpt lat="47.82635" lon="-0.90834">
        <ele>67.7</ele>
        <time>2020-12-20T10:57:51Z</time>
      </trkpt>
      <trkpt lat="47.82631" lon="-0.90836">
        <ele>67.8</ele>
        <time>2020-12-20T10:57:52Z</time>
      </trkpt>
      <trkpt lat="47.82627" lon="-0.90837">
        <ele>67.9</ele>
        <time>2020-12-20T10:57:53Z</time>
      </trkpt>
      <trkpt lat="47.82623" lon="-0.90838">
        <ele>68</ele>
        <time>2020-12-20T10:57:54Z</time>
      </trkpt>
      <trkpt lat="47.82619" lon="-0.90839">
        <ele>68</ele>
        <time>2020-12-20T10:57:55Z</time>
      </trkpt>
      <trkpt lat="47.82614" lon="-0.90841">
        <ele>68.1</ele>
        <time>2020-12-20T10:57:56Z</time>
      </trkpt>
      <trkpt lat="47.82609" lon="-0.90842">
        <ele>68.2</ele>
        <time>2020-12-20T10:57:57Z</time>
      </trkpt>
      <trkpt lat="47.82605" lon="-0.90843">
        <ele>68.3</ele>
        <time>2020-12-20T10:57:58Z</time>
      </trkpt>
      <trkpt lat="47.82601" lon="-0.90844">
        <ele>68.4</ele>
        <time>2020-12-20T10:57:59Z</time>
      </trkpt>
      <trkpt lat="47.82597" lon="-0.90846">
        <ele>68.5</ele>
        <time>2020-12-20T10:58:00Z</time>
      </trkpt>
      <trkpt lat="47.82593" lon="-0.90847">
        <ele>68.6</ele>
        <time>2020-12-20T10:58:01Z</time>
      </trkpt>
      <trkpt lat="47.82589" lon="-0.90848">
        <ele>68.7</ele>
        <time>2020-12-20T10:58:02Z</time>
      </trkpt>
      <trkpt lat="47.82586" lon="-0.90849">
        <ele>68.7</ele>
        <time>2020-12-20T10:58:03Z</time>
      </trkpt>
      <trkpt lat="47.82582" lon="-0.9085">
        <ele>68.8</ele>
        <time>2020-12-20T10:58:04Z</time>
      </trkpt>
      <trkpt lat="47.82578" lon="-0.90852">
        <ele>68.9</ele>
        <time>2020-12-20T10:58:05Z</time>
      </trkpt>
      <trkpt lat="47.82574" lon="-0.90854">
        <ele>69</ele>
        <time>2020-12-20T10:58:06Z</time>
      </trkpt>
      <trkpt lat="47.8257" lon="-0.90856">
        <ele>69</ele>
        <time>2020-12-20T10:58:07Z</time>
      </trkpt>
      <trkpt lat="47.82566" lon="-0.90858">
        <ele>69.1</ele>
        <time>2020-12-20T10:58:08Z</time>
      </trkpt>
      <trkpt lat="47.82562" lon="-0.9086">
        <ele>69.2</ele>
        <time>2020-12-20T10:58:09Z</time>
      </trkpt>
      <trkpt lat="47.82558" lon="-0.90862">
        <ele>69.3</ele>
        <time>2020-12-20T10:58:10Z</time>
      </trkpt>
      <trkpt lat="47.82554" lon="-0.90864">
        <ele>69.3</ele>
        <time>2020-12-20T10:58:11Z</time>
      </trkpt>
      <trkpt lat="47.82551" lon="-0.90866">
        <ele>69.4</ele>
        <time>2020-12-20T10:58:12Z</time>
      </trkpt>
      <trkpt lat="47.82547" lon="-0.90868">
        <ele>69.5</ele>
        <time>2020-12-20T10:58:13Z</time>
      </trkpt>
      <trkpt lat="47.82544" lon="-0.90869">
        <ele>69.5</ele>
        <time>2020-12-20T10:58:14Z</time>
      </trkpt>
      <trkpt lat="47.82541" lon="-0.90871">
        <ele>69.6</ele>
        <time>2020-12-20T10:58:15Z</time>
      </trkpt>
      <trkpt lat="47.82537" lon="-0.90872">
        <ele>69.6</ele>
        <time>2020-12-20T10:58:16Z</time>
      </trkpt>
      <trkpt lat="47.82534" lon="-0.90874">
        <ele>69.7</ele>
        <time>2020-12-20T10:58:17Z</time>
      </trkpt>
      <trkpt lat="47.8253" lon="-0.90877">
        <ele>69.8</ele>
        <time>2020-12-20T10:58:18Z</time>
      </trkpt>
      <trkpt lat="47.82526" lon="-0.90879">
        <ele>69.8</ele>
        <time>2020-12-20T10:58:19Z</time>
      </trkpt>
      <trkpt lat="47.82522" lon="-0.90882">
        <ele>69.9</ele>
        <time>2020-12-20T10:58:20Z</time>
      </trkpt>
      <trkpt lat="47.82518" lon="-0.90884">
        <ele>70</ele>
        <time>2020-12-20T10:58:21Z</time>
      </trkpt>
      <trkpt lat="47.82514" lon="-0.90887">
        <ele>70</ele>
        <time>2020-12-20T10:58:22Z</time>
      </trkpt>
      <trkpt lat="47.82511" lon="-0.90889">
        <ele>70.1</ele>
        <time>2020-12-20T10:58:23Z</time>
      </trkpt>
      <trkpt lat="47.82507" lon="-0.90891">
        <ele>70.1</ele>
        <time>2020-12-20T10:58:24Z</time>
      </trkpt>
      <trkpt lat="47.82503" lon="-0.90893">
        <ele>70.2</ele>
        <time>2020-12-20T10:58:25Z</time>
      </trkpt>
      <trkpt lat="47.82498" lon="-0.90896">
        <ele>70.2</ele>
        <time>2020-12-20T10:58:26Z</time>
      </trkpt>
      <trkpt lat="47.82494" lon="-0.90899">
        <ele>70.2</ele>
        <time>2020-12-20T10:58:27Z</time>
      </trkpt>
      <trkpt lat="47.82489" lon="-0.90902">
        <ele>70.2</ele>
        <time>2020-12-20T10:58:28Z</time>
      </trkpt>
      <trkpt lat="47.82486" lon="-0.90906">
        <ele>70.1</ele>
        <time>2020-12-20T10:58:29Z</time>
      </trkpt>
      <trkpt lat="47.82481" lon="-0.90909">
        <ele>70.1</ele>
        <time>2020-12-20T10:58:30Z</time>
      </trkpt>
      <trkpt lat="47.82478" lon="-0.90912">
        <ele>70</ele>
        <time>2020-12-20T10:58:31Z</time>
      </trkpt>
      <trkpt lat="47.82473" lon="-0.90916">
        <ele>70</ele>
        <time>2020-12-20T10:58:32Z</time>
      </trkpt>
      <trkpt lat="47.82468" lon="-0.90919">
        <ele>70</ele>
        <time>2020-12-20T10:58:33Z</time>
      </trkpt>
      <trkpt lat="47.82463" lon="-0.90922">
        <ele>69.9</ele>
        <time>2020-12-20T10:58:34Z</time>
      </trkpt>
      <trkpt lat="47.82458" lon="-0.90925">
        <ele>69.9</ele>
        <time>2020-12-20T10:58:35Z</time>
      </trkpt>
      <trkpt lat="47.82453" lon="-0.90928">
        <ele>69.8</ele>
        <time>2020-12-20T10:58:36Z</time>
      </trkpt>
      <trkpt lat="47.82448" lon="-0.90931">
        <ele>69.8</ele>
        <time>2020-12-20T10:58:37Z</time>
      </trkpt>
      <trkpt lat="47.82443" lon="-0.90934">
        <ele>69.7</ele>
        <time>2020-12-20T10:58:38Z</time>
      </trkpt>
      <trkpt lat="47.82438" lon="-0.90937">
        <ele>69.7</ele>
        <time>2020-12-20T10:58:39Z</time>
      </trkpt>
      <trkpt lat="47.82433" lon="-0.90939">
        <ele>69.7</ele>
        <time>2020-12-20T10:58:40Z</time>
      </trkpt>
      <trkpt lat="47.82428" lon="-0.90942">
        <ele>69.7</ele>
        <time>2020-12-20T10:58:41Z</time>
      </trkpt>
      <trkpt lat="47.82423" lon="-0.90945">
        <ele>69.6</ele>
        <time>2020-12-20T10:58:42Z</time>
      </trkpt>
      <trkpt lat="47.82418" lon="-0.90948">
        <ele>69.6</ele>
        <time>2020-12-20T10:58:43Z</time>
      </trkpt>
      <trkpt lat="47.82413" lon="-0.90951">
        <ele>69.6</ele>
        <time>2020-12-20T10:58:44Z</time>
      </trkpt>
      <trkpt lat="47.82409" lon="-0.90953">
        <ele>69.5</ele>
        <time>2020-12-20T10:58:45Z</time>
      </trkpt>
      <trkpt lat="47.82404" lon="-0.90957">
        <ele>69.4</ele>
        <time>2020-12-20T10:58:46Z</time>
      </trkpt>
      <trkpt lat="47.82399" lon="-0.9096">
        <ele>69.4</ele>
        <time>2020-12-20T10:58:47Z</time>
      </trkpt>
      <trkpt lat="47.82394" lon="-0.90962">
        <ele>69.4</ele>
        <time>2020-12-20T10:58:48Z</time>
      </trkpt>
      <trkpt lat="47.8239" lon="-0.90965">
        <ele>69.3</ele>
        <time>2020-12-20T10:58:49Z</time>
      </trkpt>
      <trkpt lat="47.82385" lon="-0.90968">
        <ele>69.3</ele>
        <time>2020-12-20T10:58:50Z</time>
      </trkpt>
      <trkpt lat="47.8238" lon="-0.90971">
        <ele>69.3</ele>
        <time>2020-12-20T10:58:51Z</time>
      </trkpt>
      <trkpt lat="47.82375" lon="-0.90973">
        <ele>69.3</ele>
        <time>2020-12-20T10:58:52Z</time>
      </trkpt>
      <trkpt lat="47.82371" lon="-0.90976">
        <ele>69.4</ele>
        <time>2020-12-20T10:58:53Z</time>
      </trkpt>
      <trkpt lat="47.82367" lon="-0.90979">
        <ele>69.4</ele>
        <time>2020-12-20T10:58:54Z</time>
      </trkpt>
      <trkpt lat="47.82362" lon="-0.90982">
        <ele>69.4</ele>
        <time>2020-12-20T10:58:55Z</time>
      </trkpt>
      <trkpt lat="47.82358" lon="-0.90985">
        <ele>69.5</ele>
        <time>2020-12-20T10:58:56Z</time>
      </trkpt>
      <trkpt lat="47.82354" lon="-0.90987">
        <ele>69.6</ele>
        <time>2020-12-20T10:58:57Z</time>
      </trkpt>
      <trkpt lat="47.8235" lon="-0.90989">
        <ele>69.6</ele>
        <time>2020-12-20T10:58:58Z</time>
      </trkpt>
      <trkpt lat="47.82346" lon="-0.90991">
        <ele>69.7</ele>
        <time>2020-12-20T10:58:59Z</time>
      </trkpt>
      <trkpt lat="47.82342" lon="-0.90992">
        <ele>69.7</ele>
        <time>2020-12-20T10:59:00Z</time>
      </trkpt>
      <trkpt lat="47.82338" lon="-0.90993">
        <ele>69.8</ele>
        <time>2020-12-20T10:59:01Z</time>
      </trkpt>
      <trkpt lat="47.82335" lon="-0.90994">
        <ele>69.8</ele>
        <time>2020-12-20T10:59:02Z</time>
      </trkpt>
      <trkpt lat="47.82331" lon="-0.90994">
        <ele>69.8</ele>
        <time>2020-12-20T10:59:03Z</time>
      </trkpt>
      <trkpt lat="47.82328" lon="-0.90994">
        <ele>69.8</ele>
        <time>2020-12-20T10:59:04Z</time>
      </trkpt>
      <trkpt lat="47.82324" lon="-0.90984">
        <ele>69.5</ele>
      </trkpt>
      <trkpt lat="47.82324" lon="-0.90982">
        <ele>69.5</ele>
        <time>2020-12-20T10:59:41Z</time>
      </trkpt>
      <trkpt lat="47.82323" lon="-0.90979">
        <ele>69.4</ele>
        <time>2020-12-20T10:59:42Z</time>
      </trkpt>
      <trkpt lat="47.82322" lon="-0.90975">
        <ele>69.3</ele>
        <time>2020-12-20T10:59:43Z</time>
      </trkpt>
      <trkpt lat="47.82319" lon="-0.9097">
        <ele>69.1</ele>
        <time>2020-12-20T10:59:44Z</time>
      </trkpt>
      <trkpt lat="47.82316" lon="-0.90965">
        <ele>69</ele>
        <time>2020-12-20T10:59:45Z</time>
      </trkpt>
      <trkpt lat="47.82314" lon="-0.9096">
        <ele>68.8</ele>
        <time>2020-12-20T10:59:46Z</time>
      </trkpt>
      <trkpt lat="47.82311" lon="-0.90954">
        <ele>68.6</ele>
        <time>2020-12-20T10:59:47Z</time>
      </trkpt>
      <trkpt lat="47.82308" lon="-0.90948">
        <ele>68.4</ele>
        <time>2020-12-20T10:59:48Z</time>
      </trkpt>
      <trkpt lat="47.82305" lon="-0.90943">
        <ele>68.3</ele>
        <time>2020-12-20T10:59:49Z</time>
      </trkpt>
      <trkpt lat="47.82302" lon="-0.90937">
        <ele>68.1</ele>
        <time>2020-12-20T10:59:50Z</time>
      </trkpt>
      <trkpt lat="47.823" lon="-0.90931">
        <ele>67.9</ele>
        <time>2020-12-20T10:59:51Z</time>
      </trkpt>
      <trkpt lat="47.82297" lon="-0.90925">
        <ele>67.8</ele>
        <time>2020-12-20T10:59:52Z</time>
      </trkpt>
      <trkpt lat="47.82295" lon="-0.9092">
        <ele>67.6</ele>
        <time>2020-12-20T10:59:53Z</time>
      </trkpt>
      <trkpt lat="47.82292" lon="-0.90915">
        <ele>67.5</ele>
        <time>2020-12-20T10:59:54Z</time>
      </trkpt>
      <trkpt lat="47.82289" lon="-0.9091">
        <ele>67.4</ele>
        <time>2020-12-20T10:59:55Z</time>
      </trkpt>
      <trkpt lat="47.82287" lon="-0.90904">
        <ele>67.3</ele>
        <time>2020-12-20T10:59:56Z</time>
      </trkpt>
      <trkpt lat="47.82284" lon="-0.90899">
        <ele>67.2</ele>
        <time>2020-12-20T10:59:57Z</time>
      </trkpt>
      <trkpt lat="47.82282" lon="-0.90893">
        <ele>67</ele>
        <time>2020-12-20T10:59:58Z</time>
      </trkpt>
      <trkpt lat="47.8228" lon="-0.90887">
        <ele>66.9</ele>
        <time>2020-12-20T10:59:59Z</time>
      </trkpt>
      <trkpt lat="47.82278" lon="-0.90881">
        <ele>66.8</ele>
        <time>2020-12-20T11:00:00Z</time>
      </trkpt>
      <trkpt lat="47.82276" lon="-0.90876">
        <ele>66.6</ele>
        <time>2020-12-20T11:00:01Z</time>
      </trkpt>
      <trkpt lat="47.82274" lon="-0.9087">
        <ele>66.5</ele>
        <time>2020-12-20T11:00:02Z</time>
      </trkpt>
      <trkpt lat="47.82272" lon="-0.90865">
        <ele>66.4</ele>
        <time>2020-12-20T11:00:03Z</time>
      </trkpt>
      <trkpt lat="47.8227" lon="-0.90859">
        <ele>66.2</ele>
        <time>2020-12-20T11:00:04Z</time>
      </trkpt>
      <trkpt lat="47.82268" lon="-0.90854">
        <ele>66</ele>
        <time>2020-12-20T11:00:05Z</time>
      </trkpt>
      <trkpt lat="47.82266" lon="-0.90848">
        <ele>65.9</ele>
        <time>2020-12-20T11:00:06Z</time>
      </trkpt>
      <trkpt lat="47.82265" lon="-0.90843">
        <ele>65.7</ele>
        <time>2020-12-20T11:00:07Z</time>
      </trkpt>
      <trkpt lat="47.82263" lon="-0.90837">
        <ele>65.5</ele>
        <time>2020-12-20T11:00:08Z</time>
      </trkpt>
      <trkpt lat="47.82261" lon="-0.90831">
        <ele>65.4</ele>
        <time>2020-12-20T11:00:09Z</time>
      </trkpt>
      <trkpt lat="47.8226" lon="-0.90826">
        <ele>65.4</ele>
        <time>2020-12-20T11:00:10Z</time>
      </trkpt>
      <trkpt lat="47.82259" lon="-0.90821">
        <ele>65.5</ele>
        <time>2020-12-20T11:00:11Z</time>
      </trkpt>
      <trkpt lat="47.82257" lon="-0.90816">
        <ele>65.5</ele>
        <time>2020-12-20T11:00:12Z</time>
      </trkpt>
      <trkpt lat="47.82255" lon="-0.90811">
        <ele>65.4</ele>
        <time>2020-12-20T11:00:13Z</time>
      </trkpt>
      <trkpt lat="47.82254" lon="-0.90806">
        <ele>65.5</ele>
        <time>2020-12-20T11:00:14Z</time>
      </trkpt>
      <trkpt lat="47.82252" lon="-0.90801">
        <ele>65.5</ele>
        <time>2020-12-20T11:00:15Z</time>
      </trkpt>
      <trkpt lat="47.8225" lon="-0.90795">
        <ele>65.5</ele>
        <time>2020-12-20T11:00:16Z</time>
      </trkpt>
      <trkpt lat="47.82247" lon="-0.90789">
        <ele>65.5</ele>
        <time>2020-12-20T11:00:17Z</time>
      </trkpt>
      <trkpt lat="47.82245" lon="-0.90782">
        <ele>65.6</ele>
        <time>2020-12-20T11:00:18Z</time>
      </trkpt>
      <trkpt lat="47.82244" lon="-0.90777">
        <ele>65.6</ele>
        <time>2020-12-20T11:00:19Z</time>
      </trkpt>
      <trkpt lat="47.82242" lon="-0.90771">
        <ele>65.7</ele>
        <time>2020-12-20T11:00:20Z</time>
      </trkpt>
      <trkpt lat="47.82241" lon="-0.90765">
        <ele>65.7</ele>
        <time>2020-12-20T11:00:21Z</time>
      </trkpt>
      <trkpt lat="47.82239" lon="-0.9076">
        <ele>65.8</ele>
        <time>2020-12-20T11:00:22Z</time>
      </trkpt>
      <trkpt lat="47.82238" lon="-0.90754">
        <ele>65.8</ele>
        <time>2020-12-20T11:00:23Z</time>
      </trkpt>
      <trkpt lat="47.82236" lon="-0.90749">
        <ele>65.8</ele>
        <time>2020-12-20T11:00:24Z</time>
      </trkpt>
      <trkpt lat="47.82234" lon="-0.90743">
        <ele>65.9</ele>
        <time>2020-12-20T11:00:25Z</time>
      </trkpt>
      <trkpt lat="47.82233" lon="-0.90738">
        <ele>65.9</ele>
        <time>2020-12-20T11:00:26Z</time>
      </trkpt>
      <trkpt lat="47.82232" lon="-0.90732">
        <ele>66</ele>
        <time>2020-12-20T11:00:27Z</time>
      </trkpt>
      <trkpt lat="47.8223" lon="-0.90727">
        <ele>66</ele>
        <time>2020-12-20T11:00:28Z</time>
      </trkpt>
      <trkpt lat="47.82229" lon="-0.90721">
        <ele>66</ele>
        <time>2020-12-20T11:00:29Z</time>
      </trkpt>
      <trkpt lat="47.82227" lon="-0.90716">
        <ele>66</ele>
        <time>2020-12-20T11:00:30Z</time>
      </trkpt>
      <trkpt lat="47.82225" lon="-0.9071">
        <ele>66</ele>
        <time>2020-12-20T11:00:31Z</time>
      </trkpt>
      <trkpt lat="47.82224" lon="-0.90705">
        <ele>66.1</ele>
        <time>2020-12-20T11:00:32Z</time>
      </trkpt>
      <trkpt lat="47.82222" lon="-0.907">
        <ele>66.1</ele>
        <time>2020-12-20T11:00:33Z</time>
      </trkpt>
      <trkpt lat="47.8222" lon="-0.90694">
        <ele>66.1</ele>
        <time>2020-12-20T11:00:34Z</time>
      </trkpt>
      <trkpt lat="47.82219" lon="-0.90689">
        <ele>66.1</ele>
        <time>2020-12-20T11:00:35Z</time>
      </trkpt>
      <trkpt lat="47.82217" lon="-0.90685">
        <ele>66.1</ele>
        <time>2020-12-20T11:00:36Z</time>
      </trkpt>
      <trkpt lat="47.82215" lon="-0.90679">
        <ele>66.1</ele>
        <time>2020-12-20T11:00:37Z</time>
      </trkpt>
      <trkpt lat="47.82214" lon="-0.90674">
        <ele>66.1</ele>
        <time>2020-12-20T11:00:38Z</time>
      </trkpt>
      <trkpt lat="47.82212" lon="-0.90668">
        <ele>66.1</ele>
        <time>2020-12-20T11:00:39Z</time>
      </trkpt>
      <trkpt lat="47.82211" lon="-0.90662">
        <ele>66.1</ele>
        <time>2020-12-20T11:00:40Z</time>
      </trkpt>
      <trkpt lat="47.82209" lon="-0.90656">
        <ele>66</ele>
        <time>2020-12-20T11:00:41Z</time>
      </trkpt>
      <trkpt lat="47.82207" lon="-0.9065">
        <ele>66</ele>
        <time>2020-12-20T11:00:42Z</time>
      </trkpt>
      <trkpt lat="47.82206" lon="-0.90645">
        <ele>65.9</ele>
        <time>2020-12-20T11:00:43Z</time>
      </trkpt>
      <trkpt lat="47.82205" lon="-0.90639">
        <ele>65.9</ele>
        <time>2020-12-20T11:00:44Z</time>
      </trkpt>
      <trkpt lat="47.82204" lon="-0.90633">
        <ele>65.9</ele>
        <time>2020-12-20T11:00:45Z</time>
      </trkpt>
      <trkpt lat="47.82203" lon="-0.90626">
        <ele>65.9</ele>
        <time>2020-12-20T11:00:46Z</time>
      </trkpt>
      <trkpt lat="47.82201" lon="-0.9062">
        <ele>65.8</ele>
        <time>2020-12-20T11:00:47Z</time>
      </trkpt>
      <trkpt lat="47.822" lon="-0.90614">
        <ele>65.8</ele>
        <time>2020-12-20T11:00:48Z</time>
      </trkpt>
      <trkpt lat="47.82199" lon="-0.90608">
        <ele>65.8</ele>
        <time>2020-12-20T11:00:49Z</time>
      </trkpt>
      <trkpt lat="47.82198" lon="-0.90602">
        <ele>65.8</ele>
        <time>2020-12-20T11:00:50Z</time>
      </trkpt>
      <trkpt lat="47.82197" lon="-0.90597">
        <ele>65.7</ele>
        <time>2020-12-20T11:00:51Z</time>
      </trkpt>
      <trkpt lat="47.82196" lon="-0.90591">
        <ele>65.7</ele>
        <time>2020-12-20T11:00:52Z</time>
      </trkpt>
      <trkpt lat="47.82195" lon="-0.90585">
        <ele>65.7</ele>
        <time>2020-12-20T11:00:53Z</time>
      </trkpt>
      <trkpt lat="47.82194" lon="-0.9058">
        <ele>65.6</ele>
        <time>2020-12-20T11:00:54Z</time>
      </trkpt>
      <trkpt lat="47.82193" lon="-0.90575">
        <ele>65.5</ele>
        <time>2020-12-20T11:00:55Z</time>
      </trkpt>
      <trkpt lat="47.82192" lon="-0.90569">
        <ele>65.4</ele>
        <time>2020-12-20T11:00:56Z</time>
      </trkpt>
      <trkpt lat="47.82191" lon="-0.90564">
        <ele>65.4</ele>
        <time>2020-12-20T11:00:57Z</time>
      </trkpt>
      <trkpt lat="47.82191" lon="-0.90559">
        <ele>65.3</ele>
        <time>2020-12-20T11:00:58Z</time>
      </trkpt>
      <trkpt lat="47.82191" lon="-0.90554">
        <ele>65.2</ele>
        <time>2020-12-20T11:00:59Z</time>
      </trkpt>
      <trkpt lat="47.82192" lon="-0.9055">
        <ele>65.2</ele>
        <time>2020-12-20T11:01:00Z</time>
      </trkpt>
      <trkpt lat="47.82193" lon="-0.90544">
        <ele>65.2</ele>
        <time>2020-12-20T11:01:01Z</time>
      </trkpt>
      <trkpt lat="47.82195" lon="-0.90539">
        <ele>65.1</ele>
        <time>2020-12-20T11:01:02Z</time>
      </trkpt>
      <trkpt lat="47.82198" lon="-0.90533">
        <ele>65.1</ele>
        <time>2020-12-20T11:01:03Z</time>
      </trkpt>
      <trkpt lat="47.82201" lon="-0.90528">
        <ele>65.2</ele>
        <time>2020-12-20T11:01:04Z</time>
      </trkpt>
      <trkpt lat="47.82205" lon="-0.90522">
        <ele>65.2</ele>
        <time>2020-12-20T11:01:05Z</time>
      </trkpt>
      <trkpt lat="47.82207" lon="-0.90518">
        <ele>65.2</ele>
        <time>2020-12-20T11:01:06Z</time>
      </trkpt>
      <trkpt lat="47.8221" lon="-0.90513">
        <ele>65.2</ele>
        <time>2020-12-20T11:01:07Z</time>
      </trkpt>
      <trkpt lat="47.82214" lon="-0.90507">
        <ele>65.2</ele>
        <time>2020-12-20T11:01:08Z</time>
      </trkpt>
      <trkpt lat="47.82217" lon="-0.90501">
        <ele>65.2</ele>
        <time>2020-12-20T11:01:09Z</time>
      </trkpt>
      <trkpt lat="47.8222" lon="-0.90495">
        <ele>65.2</ele>
        <time>2020-12-20T11:01:10Z</time>
      </trkpt>
      <trkpt lat="47.82224" lon="-0.9049">
        <ele>65.3</ele>
        <time>2020-12-20T11:01:11Z</time>
      </trkpt>
      <trkpt lat="47.82227" lon="-0.90484">
        <ele>65.3</ele>
        <time>2020-12-20T11:01:12Z</time>
      </trkpt>
      <trkpt lat="47.8223" lon="-0.90479">
        <ele>65.3</ele>
        <time>2020-12-20T11:01:13Z</time>
      </trkpt>
      <trkpt lat="47.82236" lon="-0.90467">
        <ele>65.3</ele>
        <time>2020-12-20T11:01:15Z</time>
      </trkpt>
      <trkpt lat="47.82239" lon="-0.90461">
        <ele>65.3</ele>
        <time>2020-12-20T11:01:16Z</time>
      </trkpt>
      <trkpt lat="47.82242" lon="-0.90455">
        <ele>65.3</ele>
        <time>2020-12-20T11:01:17Z</time>
      </trkpt>
      <trkpt lat="47.82245" lon="-0.90449">
        <ele>65.3</ele>
        <time>2020-12-20T11:01:18Z</time>
      </trkpt>
      <trkpt lat="47.82248" lon="-0.90442">
        <ele>65.3</ele>
        <time>2020-12-20T11:01:19Z</time>
      </trkpt>
      <trkpt lat="47.8225" lon="-0.90435">
        <ele>65.2</ele>
        <time>2020-12-20T11:01:20Z</time>
      </trkpt>
      <trkpt lat="47.82252" lon="-0.90428">
        <ele>65.2</ele>
        <time>2020-12-20T11:01:21Z</time>
      </trkpt>
      <trkpt lat="47.82254" lon="-0.90421">
        <ele>65.1</ele>
        <time>2020-12-20T11:01:22Z</time>
      </trkpt>
      <trkpt lat="47.82256" lon="-0.90413">
        <ele>65.1</ele>
        <time>2020-12-20T11:01:23Z</time>
      </trkpt>
      <trkpt lat="47.82257" lon="-0.90405">
        <ele>65</ele>
        <time>2020-12-20T11:01:24Z</time>
      </trkpt>
      <trkpt lat="47.82259" lon="-0.90397">
        <ele>65</ele>
        <time>2020-12-20T11:01:25Z</time>
      </trkpt>
      <trkpt lat="47.8226" lon="-0.90389">
        <ele>64.9</ele>
        <time>2020-12-20T11:01:26Z</time>
      </trkpt>
      <trkpt lat="47.82262" lon="-0.90381">
        <ele>64.9</ele>
        <time>2020-12-20T11:01:27Z</time>
      </trkpt>
      <trkpt lat="47.82263" lon="-0.90373">
        <ele>64.8</ele>
        <time>2020-12-20T11:01:28Z</time>
      </trkpt>
      <trkpt lat="47.82265" lon="-0.90365">
        <ele>64.7</ele>
        <time>2020-12-20T11:01:29Z</time>
      </trkpt>
      <trkpt lat="47.82266" lon="-0.90357">
        <ele>64.7</ele>
        <time>2020-12-20T11:01:30Z</time>
      </trkpt>
      <trkpt lat="47.82268" lon="-0.90349">
        <ele>64.6</ele>
        <time>2020-12-20T11:01:31Z</time>
      </trkpt>
      <trkpt lat="47.82269" lon="-0.90341">
        <ele>64.5</ele>
        <time>2020-12-20T11:01:32Z</time>
      </trkpt>
      <trkpt lat="47.82271" lon="-0.90334">
        <ele>64.5</ele>
        <time>2020-12-20T11:01:33Z</time>
      </trkpt>
      <trkpt lat="47.82272" lon="-0.90326">
        <ele>64.5</ele>
        <time>2020-12-20T11:01:34Z</time>
      </trkpt>
      <trkpt lat="47.82273" lon="-0.90318">
        <ele>64.5</ele>
        <time>2020-12-20T11:01:35Z</time>
      </trkpt>
      <trkpt lat="47.82275" lon="-0.9031">
        <ele>64.5</ele>
        <time>2020-12-20T11:01:36Z</time>
      </trkpt>
      <trkpt lat="47.82276" lon="-0.90303">
        <ele>64.5</ele>
        <time>2020-12-20T11:01:37Z</time>
      </trkpt>
      <trkpt lat="47.82277" lon="-0.90295">
        <ele>64.5</ele>
        <time>2020-12-20T11:01:38Z</time>
      </trkpt>
      <trkpt lat="47.82278" lon="-0.90287">
        <ele>64.5</ele>
        <time>2020-12-20T11:01:39Z</time>
      </trkpt>
      <trkpt lat="47.82279" lon="-0.90279">
        <ele>64.5</ele>
        <time>2020-12-20T11:01:40Z</time>
      </trkpt>
      <trkpt lat="47.82282" lon="-0.90264">
        <ele>64.6</ele>
        <time>2020-12-20T11:01:42Z</time>
      </trkpt>
      <trkpt lat="47.82283" lon="-0.90256">
        <ele>64.6</ele>
        <time>2020-12-20T11:01:43Z</time>
      </trkpt>
      <trkpt lat="47.82284" lon="-0.90248">
        <ele>64.7</ele>
        <time>2020-12-20T11:01:44Z</time>
      </trkpt>
      <trkpt lat="47.82285" lon="-0.9024">
        <ele>64.8</ele>
        <time>2020-12-20T11:01:45Z</time>
      </trkpt>
      <trkpt lat="47.82286" lon="-0.90233">
        <ele>64.9</ele>
        <time>2020-12-20T11:01:46Z</time>
      </trkpt>
      <trkpt lat="47.82287" lon="-0.90224">
        <ele>65.1</ele>
        <time>2020-12-20T11:01:47Z</time>
      </trkpt>
      <trkpt lat="47.82288" lon="-0.90218">
        <ele>65.2</ele>
        <time>2020-12-20T11:01:48Z</time>
      </trkpt>
      <trkpt lat="47.82289" lon="-0.90211">
        <ele>65.3</ele>
        <time>2020-12-20T11:01:49Z</time>
      </trkpt>
      <trkpt lat="47.8229" lon="-0.90203">
        <ele>65.5</ele>
        <time>2020-12-20T11:01:50Z</time>
      </trkpt>
      <trkpt lat="47.82291" lon="-0.90196">
        <ele>65.6</ele>
        <time>2020-12-20T11:01:51Z</time>
      </trkpt>
      <trkpt lat="47.82291" lon="-0.90188">
        <ele>65.7</ele>
        <time>2020-12-20T11:01:52Z</time>
      </trkpt>
      <trkpt lat="47.82292" lon="-0.90181">
        <ele>65.8</ele>
        <time>2020-12-20T11:01:53Z</time>
      </trkpt>
      <trkpt lat="47.82293" lon="-0.90173">
        <ele>66</ele>
        <time>2020-12-20T11:01:54Z</time>
      </trkpt>
      <trkpt lat="47.82294" lon="-0.90157">
        <ele>66.1</ele>
        <time>2020-12-20T11:01:56Z</time>
      </trkpt>
      <trkpt lat="47.82295" lon="-0.90149">
        <ele>66.2</ele>
        <time>2020-12-20T11:01:57Z</time>
      </trkpt>
      <trkpt lat="47.82296" lon="-0.9014">
        <ele>66.2</ele>
        <time>2020-12-20T11:01:58Z</time>
      </trkpt>
      <trkpt lat="47.82297" lon="-0.90132">
        <ele>66.3</ele>
        <time>2020-12-20T11:01:59Z</time>
      </trkpt>
      <trkpt lat="47.82297" lon="-0.90124">
        <ele>66.3</ele>
        <time>2020-12-20T11:02:00Z</time>
      </trkpt>
      <trkpt lat="47.82298" lon="-0.90116">
        <ele>66.3</ele>
        <time>2020-12-20T11:02:01Z</time>
      </trkpt>
      <trkpt lat="47.82299" lon="-0.90108">
        <ele>66.4</ele>
        <time>2020-12-20T11:02:02Z</time>
      </trkpt>
      <trkpt lat="47.82299" lon="-0.90099">
        <ele>66.4</ele>
        <time>2020-12-20T11:02:03Z</time>
      </trkpt>
      <trkpt lat="47.823" lon="-0.90091">
        <ele>66.4</ele>
        <time>2020-12-20T11:02:04Z</time>
      </trkpt>
      <trkpt lat="47.823" lon="-0.90082">
        <ele>66.4</ele>
        <time>2020-12-20T11:02:05Z</time>
      </trkpt>
      <trkpt lat="47.823" lon="-0.90074">
        <ele>66.3</ele>
        <time>2020-12-20T11:02:06Z</time>
      </trkpt>
      <trkpt lat="47.82301" lon="-0.90066">
        <ele>66.2</ele>
        <time>2020-12-20T11:02:07Z</time>
      </trkpt>
      <trkpt lat="47.82301" lon="-0.90058">
        <ele>66.1</ele>
        <time>2020-12-20T11:02:08Z</time>
      </trkpt>
      <trkpt lat="47.82301" lon="-0.90049">
        <ele>66</ele>
        <time>2020-12-20T11:02:09Z</time>
      </trkpt>
      <trkpt lat="47.82301" lon="-0.9004">
        <ele>65.9</ele>
        <time>2020-12-20T11:02:10Z</time>
      </trkpt>
      <trkpt lat="47.82301" lon="-0.90032">
        <ele>65.8</ele>
        <time>2020-12-20T11:02:11Z</time>
      </trkpt>
      <trkpt lat="47.82302" lon="-0.90023">
        <ele>65.8</ele>
        <time>2020-12-20T11:02:12Z</time>
      </trkpt>
      <trkpt lat="47.82302" lon="-0.90014">
        <ele>65.7</ele>
        <time>2020-12-20T11:02:13Z</time>
      </trkpt>
      <trkpt lat="47.82303" lon="-0.90004">
        <ele>65.6</ele>
        <time>2020-12-20T11:02:14Z</time>
      </trkpt>
      <trkpt lat="47.82303" lon="-0.89986">
        <ele>65.5</ele>
        <time>2020-12-20T11:02:16Z</time>
      </trkpt>
      <trkpt lat="47.82304" lon="-0.89976">
        <ele>65.6</ele>
        <time>2020-12-20T11:02:17Z</time>
      </trkpt>
      <trkpt lat="47.82303" lon="-0.89967">
        <ele>65.5</ele>
        <time>2020-12-20T11:02:18Z</time>
      </trkpt>
      <trkpt lat="47.82303" lon="-0.89958">
        <ele>65.5</ele>
        <time>2020-12-20T11:02:19Z</time>
      </trkpt>
      <trkpt lat="47.82304" lon="-0.89949">
        <ele>65.6</ele>
        <time>2020-12-20T11:02:20Z</time>
      </trkpt>
      <trkpt lat="47.82304" lon="-0.89939">
        <ele>65.6</ele>
        <time>2020-12-20T11:02:21Z</time>
      </trkpt>
      <trkpt lat="47.82303" lon="-0.8993">
        <ele>65.5</ele>
        <time>2020-12-20T11:02:22Z</time>
      </trkpt>
      <trkpt lat="47.82303" lon="-0.89921">
        <ele>65.5</ele>
        <time>2020-12-20T11:02:23Z</time>
      </trkpt>
      <trkpt lat="47.82302" lon="-0.89912">
        <ele>65.6</ele>
        <time>2020-12-20T11:02:24Z</time>
      </trkpt>
      <trkpt lat="47.82302" lon="-0.89904">
        <ele>65.9</ele>
        <time>2020-12-20T11:02:25Z</time>
      </trkpt>
      <trkpt lat="47.82301" lon="-0.89896">
        <ele>66.1</ele>
        <time>2020-12-20T11:02:26Z</time>
      </trkpt>
      <trkpt lat="47.82301" lon="-0.89889">
        <ele>66.3</ele>
        <time>2020-12-20T11:02:27Z</time>
      </trkpt>
      <trkpt lat="47.82301" lon="-0.89882">
        <ele>66.5</ele>
        <time>2020-12-20T11:02:28Z</time>
      </trkpt>
      <trkpt lat="47.82302" lon="-0.89875">
        <ele>66.8</ele>
        <time>2020-12-20T11:02:29Z</time>
      </trkpt>
      <trkpt lat="47.82304" lon="-0.8987">
        <ele>67.1</ele>
        <time>2020-12-20T11:02:30Z</time>
      </trkpt>
      <trkpt lat="47.82306" lon="-0.89864">
        <ele>67.4</ele>
        <time>2020-12-20T11:02:31Z</time>
      </trkpt>
      <trkpt lat="47.82308" lon="-0.89859">
        <ele>67.6</ele>
        <time>2020-12-20T11:02:32Z</time>
      </trkpt>
      <trkpt lat="47.82309" lon="-0.89855">
        <ele>67.8</ele>
        <time>2020-12-20T11:02:33Z</time>
      </trkpt>
      <trkpt lat="47.82311" lon="-0.89849">
        <ele>68.1</ele>
        <time>2020-12-20T11:02:34Z</time>
      </trkpt>
      <trkpt lat="47.82312" lon="-0.89845">
        <ele>68.3</ele>
        <time>2020-12-20T11:02:35Z</time>
      </trkpt>
      <trkpt lat="47.82314" lon="-0.8984">
        <ele>68.6</ele>
        <time>2020-12-20T11:02:36Z</time>
      </trkpt>
      <trkpt lat="47.82315" lon="-0.89835">
        <ele>68.8</ele>
        <time>2020-12-20T11:02:37Z</time>
      </trkpt>
      <trkpt lat="47.82315" lon="-0.89828">
        <ele>68.8</ele>
        <time>2020-12-20T11:02:38Z</time>
      </trkpt>
      <trkpt lat="47.82315" lon="-0.89822">
        <ele>68.8</ele>
        <time>2020-12-20T11:02:39Z</time>
      </trkpt>
      <trkpt lat="47.82316" lon="-0.89815">
        <ele>68.7</ele>
        <time>2020-12-20T11:02:40Z</time>
      </trkpt>
      <trkpt lat="47.82318" lon="-0.8981">
        <ele>68.8</ele>
        <time>2020-12-20T11:02:41Z</time>
      </trkpt>
      <trkpt lat="47.82322" lon="-0.89805">
        <ele>69</ele>
        <time>2020-12-20T11:02:42Z</time>
      </trkpt>
      <trkpt lat="47.82325" lon="-0.89801">
        <ele>69.1</ele>
        <time>2020-12-20T11:02:43Z</time>
      </trkpt>
      <trkpt lat="47.82329" lon="-0.89796">
        <ele>69.3</ele>
        <time>2020-12-20T11:02:44Z</time>
      </trkpt>
      <trkpt lat="47.82332" lon="-0.89792">
        <ele>69.4</ele>
        <time>2020-12-20T11:02:45Z</time>
      </trkpt>
      <trkpt lat="47.82334" lon="-0.89788">
        <ele>69.5</ele>
        <time>2020-12-20T11:02:46Z</time>
      </trkpt>
      <trkpt lat="47.82335" lon="-0.89784">
        <ele>69.4</ele>
        <time>2020-12-20T11:02:47Z</time>
      </trkpt>
      <trkpt lat="47.82336" lon="-0.89778">
        <ele>69.4</ele>
        <time>2020-12-20T11:02:48Z</time>
      </trkpt>
      <trkpt lat="47.82336" lon="-0.89771">
        <ele>69.3</ele>
        <time>2020-12-20T11:02:49Z</time>
      </trkpt>
      <trkpt lat="47.82336" lon="-0.89764">
        <ele>69.2</ele>
        <time>2020-12-20T11:02:50Z</time>
      </trkpt>
      <trkpt lat="47.82336" lon="-0.89757">
        <ele>69.1</ele>
        <time>2020-12-20T11:02:51Z</time>
      </trkpt>
      <trkpt lat="47.82333" lon="-0.8975">
        <ele>69</ele>
        <time>2020-12-20T11:02:52Z</time>
      </trkpt>
      <trkpt lat="47.8233" lon="-0.89744">
        <ele>68.7</ele>
        <time>2020-12-20T11:02:53Z</time>
      </trkpt>
      <trkpt lat="47.82327" lon="-0.89738">
        <ele>68.4</ele>
        <time>2020-12-20T11:02:54Z</time>
      </trkpt>
      <trkpt lat="47.82325" lon="-0.89732">
        <ele>68.1</ele>
        <time>2020-12-20T11:02:55Z</time>
      </trkpt>
      <trkpt lat="47.82322" lon="-0.89728">
        <ele>67.9</ele>
        <time>2020-12-20T11:02:56Z</time>
      </trkpt>
      <trkpt lat="47.82318" lon="-0.89724">
        <ele>67.6</ele>
        <time>2020-12-20T11:02:57Z</time>
      </trkpt>
      <trkpt lat="47.82315" lon="-0.89717">
        <ele>67.3</ele>
        <time>2020-12-20T11:02:58Z</time>
      </trkpt>
      <trkpt lat="47.82312" lon="-0.8971">
        <ele>67</ele>
        <time>2020-12-20T11:02:59Z</time>
      </trkpt>
      <trkpt lat="47.82309" lon="-0.89704">
        <ele>66.8</ele>
        <time>2020-12-20T11:03:00Z</time>
      </trkpt>
      <trkpt lat="47.82306" lon="-0.89696">
        <ele>66.5</ele>
        <time>2020-12-20T11:03:01Z</time>
      </trkpt>
      <trkpt lat="47.82304" lon="-0.89689">
        <ele>66.3</ele>
        <time>2020-12-20T11:03:02Z</time>
      </trkpt>
      <trkpt lat="47.823" lon="-0.89682">
        <ele>66</ele>
        <time>2020-12-20T11:03:03Z</time>
      </trkpt>
      <trkpt lat="47.82298" lon="-0.89674">
        <ele>65.8</ele>
        <time>2020-12-20T11:03:04Z</time>
      </trkpt>
      <trkpt lat="47.82295" lon="-0.89666">
        <ele>65.6</ele>
        <time>2020-12-20T11:03:05Z</time>
      </trkpt>
      <trkpt lat="47.82293" lon="-0.89659">
        <ele>65.5</ele>
        <time>2020-12-20T11:03:06Z</time>
      </trkpt>
      <trkpt lat="47.82289" lon="-0.89652">
        <ele>65.3</ele>
        <time>2020-12-20T11:03:07Z</time>
      </trkpt>
      <trkpt lat="47.82286" lon="-0.89644">
        <ele>65.1</ele>
        <time>2020-12-20T11:03:08Z</time>
      </trkpt>
      <trkpt lat="47.82354" lon="-0.89623">
        <ele>67.6</ele>
        <time>2020-12-20T11:06:32Z</time>
      </trkpt>
    </trkseg>
  </trk>
</gpx>